<?xml version="1.0" encoding="UTF-8" standalone="no" ?>
<gpx xmlns="http://www.topografix.com/GPX/1/1" xmlns:xsi="http://www.w3.org/2001/XMLSchema-instance" xsi:schemaLocation="http://www.topografix.com/GPX/1/1 http://www.topografix.com/GPX/1/1/gpx.xsd" version="1.1" creator="VisuGPX - https://www.visugpx.com">
  <metadata>
    <name>vtt besancon</name>
    <desc><![CDATA[parcours ceinture de besancon avec passage du vieux tilleul ]]></desc>
  </metadata>
  <trk>
    <name><![CDATA[Tracé actuel: 22 SEP 2018 13:34]]></name>
    <trkseg>
      <trkpt lat="47.26108" lon="6.04243">
        <ele>207.78</ele>
        <time>2018-09-22T11:34:50Z</time>
      </trkpt>
      <trkpt lat="47.26107" lon="6.04243">
        <ele>207.78</ele>
        <time>2018-09-22T11:34:51Z</time>
      </trkpt>
      <trkpt lat="47.26106" lon="6.04216">
        <ele>212.11</ele>
        <time>2018-09-22T11:34:58Z</time>
      </trkpt>
      <trkpt lat="47.26106" lon="6.04216">
        <ele>216.91</ele>
        <time>2018-09-22T11:34:59Z</time>
      </trkpt>
      <trkpt lat="47.26106" lon="6.04216">
        <ele>220.76</ele>
        <time>2018-09-22T11:35:00Z</time>
      </trkpt>
      <trkpt lat="47.26106" lon="6.04217">
        <ele>225.09</ele>
        <time>2018-09-22T11:35:01Z</time>
      </trkpt>
      <trkpt lat="47.26106" lon="6.04217">
        <ele>228.93</ele>
        <time>2018-09-22T11:35:02Z</time>
      </trkpt>
      <trkpt lat="47.26106" lon="6.04216">
        <ele>232.78</ele>
        <time>2018-09-22T11:35:03Z</time>
      </trkpt>
      <trkpt lat="47.26106" lon="6.04216">
        <ele>236.62</ele>
        <time>2018-09-22T11:35:04Z</time>
      </trkpt>
      <trkpt lat="47.26106" lon="6.04216">
        <ele>240.47</ele>
        <time>2018-09-22T11:35:05Z</time>
      </trkpt>
      <trkpt lat="47.26106" lon="6.04215">
        <ele>243.83</ele>
        <time>2018-09-22T11:35:06Z</time>
      </trkpt>
      <trkpt lat="47.26106" lon="6.04215">
        <ele>247.2</ele>
        <time>2018-09-22T11:35:07Z</time>
      </trkpt>
      <trkpt lat="47.26106" lon="6.04215">
        <ele>250.08</ele>
        <time>2018-09-22T11:35:08Z</time>
      </trkpt>
      <trkpt lat="47.26106" lon="6.04215">
        <ele>253.44</ele>
        <time>2018-09-22T11:35:09Z</time>
      </trkpt>
      <trkpt lat="47.26106" lon="6.04214">
        <ele>256.33</ele>
        <time>2018-09-22T11:35:10Z</time>
      </trkpt>
      <trkpt lat="47.26106" lon="6.04214">
        <ele>262.1</ele>
        <time>2018-09-22T11:35:12Z</time>
      </trkpt>
      <trkpt lat="47.26106" lon="6.04214">
        <ele>267.38</ele>
        <time>2018-09-22T11:35:14Z</time>
      </trkpt>
      <trkpt lat="47.26106" lon="6.04214">
        <ele>272.19</ele>
        <time>2018-09-22T11:35:16Z</time>
      </trkpt>
      <trkpt lat="47.26106" lon="6.04213">
        <ele>276.52</ele>
        <time>2018-09-22T11:35:18Z</time>
      </trkpt>
      <trkpt lat="47.26106" lon="6.04212">
        <ele>280.84</ele>
        <time>2018-09-22T11:35:20Z</time>
      </trkpt>
      <trkpt lat="47.26106" lon="6.04211">
        <ele>285.17</ele>
        <time>2018-09-22T11:35:22Z</time>
      </trkpt>
      <trkpt lat="47.26106" lon="6.04212">
        <ele>288.53</ele>
        <time>2018-09-22T11:35:24Z</time>
      </trkpt>
      <trkpt lat="47.26107" lon="6.04213">
        <ele>292.38</ele>
        <time>2018-09-22T11:35:26Z</time>
      </trkpt>
      <trkpt lat="47.26107" lon="6.04213">
        <ele>295.26</ele>
        <time>2018-09-22T11:35:28Z</time>
      </trkpt>
      <trkpt lat="47.26108" lon="6.04216">
        <ele>299.59</ele>
        <time>2018-09-22T11:35:31Z</time>
      </trkpt>
      <trkpt lat="47.26111" lon="6.0422">
        <ele>301.99</ele>
        <time>2018-09-22T11:35:33Z</time>
      </trkpt>
      <trkpt lat="47.2612" lon="6.04234">
        <ele>306.8</ele>
        <time>2018-09-22T11:35:38Z</time>
      </trkpt>
      <trkpt lat="47.2613" lon="6.04255">
        <ele>311.12</ele>
        <time>2018-09-22T11:35:43Z</time>
      </trkpt>
      <trkpt lat="47.26141" lon="6.04274">
        <ele>314.01</ele>
        <time>2018-09-22T11:35:48Z</time>
      </trkpt>
      <trkpt lat="47.26159" lon="6.04302">
        <ele>317.37</ele>
        <time>2018-09-22T11:35:55Z</time>
      </trkpt>
      <trkpt lat="47.26179" lon="6.04332">
        <ele>320.74</ele>
        <time>2018-09-22T11:36:03Z</time>
      </trkpt>
      <trkpt lat="47.26205" lon="6.04371">
        <ele>323.62</ele>
        <time>2018-09-22T11:36:13Z</time>
      </trkpt>
      <trkpt lat="47.26216" lon="6.04383">
        <ele>325.06</ele>
        <time>2018-09-22T11:36:17Z</time>
      </trkpt>
      <trkpt lat="47.26218" lon="6.04386">
        <ele>325.54</ele>
        <time>2018-09-22T11:36:18Z</time>
      </trkpt>
      <trkpt lat="47.2622" lon="6.04389">
        <ele>325.54</ele>
        <time>2018-09-22T11:36:19Z</time>
      </trkpt>
      <trkpt lat="47.26252" lon="6.04432">
        <ele>327.95</ele>
        <time>2018-09-22T11:36:32Z</time>
      </trkpt>
      <trkpt lat="47.26287" lon="6.04468">
        <ele>331.31</ele>
        <time>2018-09-22T11:36:44Z</time>
      </trkpt>
      <trkpt lat="47.26328" lon="6.04507">
        <ele>334.68</ele>
        <time>2018-09-22T11:36:58Z</time>
      </trkpt>
      <trkpt lat="47.26355" lon="6.04533">
        <ele>336.12</ele>
        <time>2018-09-22T11:37:12Z</time>
      </trkpt>
      <trkpt lat="47.26356" lon="6.04534">
        <ele>336.12</ele>
        <time>2018-09-22T11:37:35Z</time>
      </trkpt>
      <trkpt lat="47.26356" lon="6.04534">
        <ele>336.12</ele>
        <time>2018-09-22T11:38:03Z</time>
      </trkpt>
      <trkpt lat="47.26377" lon="6.04548">
        <ele>335.64</ele>
        <time>2018-09-22T11:38:12Z</time>
      </trkpt>
      <trkpt lat="47.26393" lon="6.04552">
        <ele>336.12</ele>
        <time>2018-09-22T11:38:16Z</time>
      </trkpt>
      <trkpt lat="47.26397" lon="6.04554">
        <ele>336.12</ele>
        <time>2018-09-22T11:38:17Z</time>
      </trkpt>
      <trkpt lat="47.26466" lon="6.04589">
        <ele>337.08</ele>
        <time>2018-09-22T11:38:34Z</time>
      </trkpt>
      <trkpt lat="47.265" lon="6.04612">
        <ele>337.56</ele>
        <time>2018-09-22T11:38:42Z</time>
      </trkpt>
      <trkpt lat="47.26503" lon="6.04616">
        <ele>337.56</ele>
        <time>2018-09-22T11:38:43Z</time>
      </trkpt>
      <trkpt lat="47.26514" lon="6.04627">
        <ele>338.52</ele>
        <time>2018-09-22T11:38:46Z</time>
      </trkpt>
      <trkpt lat="47.26549" lon="6.04666">
        <ele>339.96</ele>
        <time>2018-09-22T11:38:56Z</time>
      </trkpt>
      <trkpt lat="47.26553" lon="6.04668">
        <ele>339.96</ele>
        <time>2018-09-22T11:38:57Z</time>
      </trkpt>
      <trkpt lat="47.26557" lon="6.0467">
        <ele>340.44</ele>
        <time>2018-09-22T11:38:58Z</time>
      </trkpt>
      <trkpt lat="47.26561" lon="6.04671">
        <ele>340.44</ele>
        <time>2018-09-22T11:38:59Z</time>
      </trkpt>
      <trkpt lat="47.26566" lon="6.04672">
        <ele>340.44</ele>
        <time>2018-09-22T11:39:00Z</time>
      </trkpt>
      <trkpt lat="47.26636" lon="6.04683">
        <ele>342.37</ele>
        <time>2018-09-22T11:39:16Z</time>
      </trkpt>
      <trkpt lat="47.26661" lon="6.04682">
        <ele>342.37</ele>
        <time>2018-09-22T11:39:21Z</time>
      </trkpt>
      <trkpt lat="47.26666" lon="6.04683">
        <ele>341.89</ele>
        <time>2018-09-22T11:39:22Z</time>
      </trkpt>
      <trkpt lat="47.26671" lon="6.04685">
        <ele>342.37</ele>
        <time>2018-09-22T11:39:23Z</time>
      </trkpt>
      <trkpt lat="47.26686" lon="6.04692">
        <ele>341.89</ele>
        <time>2018-09-22T11:39:26Z</time>
      </trkpt>
      <trkpt lat="47.2669" lon="6.04696">
        <ele>341.89</ele>
        <time>2018-09-22T11:39:27Z</time>
      </trkpt>
      <trkpt lat="47.26751" lon="6.04747">
        <ele>341.89</ele>
        <time>2018-09-22T11:39:40Z</time>
      </trkpt>
      <trkpt lat="47.26795" lon="6.04811">
        <ele>340.44</ele>
        <time>2018-09-22T11:39:52Z</time>
      </trkpt>
      <trkpt lat="47.26808" lon="6.04827">
        <ele>340.92</ele>
        <time>2018-09-22T11:40:01Z</time>
      </trkpt>
      <trkpt lat="47.26811" lon="6.04827">
        <ele>340.92</ele>
        <time>2018-09-22T11:40:02Z</time>
      </trkpt>
      <trkpt lat="47.26814" lon="6.04825">
        <ele>340.44</ele>
        <time>2018-09-22T11:40:03Z</time>
      </trkpt>
      <trkpt lat="47.26818" lon="6.04823">
        <ele>339.96</ele>
        <time>2018-09-22T11:40:04Z</time>
      </trkpt>
      <trkpt lat="47.26822" lon="6.04819">
        <ele>339.96</ele>
        <time>2018-09-22T11:40:05Z</time>
      </trkpt>
      <trkpt lat="47.26825" lon="6.04815">
        <ele>339.48</ele>
        <time>2018-09-22T11:40:06Z</time>
      </trkpt>
      <trkpt lat="47.26829" lon="6.0481">
        <ele>339.48</ele>
        <time>2018-09-22T11:40:07Z</time>
      </trkpt>
      <trkpt lat="47.26833" lon="6.04804">
        <ele>339</ele>
        <time>2018-09-22T11:40:08Z</time>
      </trkpt>
      <trkpt lat="47.26867" lon="6.0476">
        <ele>338.04</ele>
        <time>2018-09-22T11:40:16Z</time>
      </trkpt>
      <trkpt lat="47.26871" lon="6.04756">
        <ele>338.04</ele>
        <time>2018-09-22T11:40:17Z</time>
      </trkpt>
      <trkpt lat="47.26876" lon="6.04752">
        <ele>338.04</ele>
        <time>2018-09-22T11:40:18Z</time>
      </trkpt>
      <trkpt lat="47.26938" lon="6.04712">
        <ele>337.56</ele>
        <time>2018-09-22T11:40:31Z</time>
      </trkpt>
      <trkpt lat="47.2695" lon="6.04708">
        <ele>337.08</ele>
        <time>2018-09-22T11:40:33Z</time>
      </trkpt>
      <trkpt lat="47.26994" lon="6.04689">
        <ele>333.71</ele>
        <time>2018-09-22T11:40:40Z</time>
      </trkpt>
      <trkpt lat="47.27009" lon="6.04681">
        <ele>332.75</ele>
        <time>2018-09-22T11:40:42Z</time>
      </trkpt>
      <trkpt lat="47.27015" lon="6.04676">
        <ele>332.27</ele>
        <time>2018-09-22T11:40:43Z</time>
      </trkpt>
      <trkpt lat="47.27022" lon="6.04672">
        <ele>332.27</ele>
        <time>2018-09-22T11:40:44Z</time>
      </trkpt>
      <trkpt lat="47.27029" lon="6.04672">
        <ele>330.83</ele>
        <time>2018-09-22T11:40:45Z</time>
      </trkpt>
      <trkpt lat="47.27036" lon="6.04671">
        <ele>330.35</ele>
        <time>2018-09-22T11:40:46Z</time>
      </trkpt>
      <trkpt lat="47.27044" lon="6.04667">
        <ele>329.39</ele>
        <time>2018-09-22T11:40:47Z</time>
      </trkpt>
      <trkpt lat="47.27051" lon="6.04661">
        <ele>328.43</ele>
        <time>2018-09-22T11:40:48Z</time>
      </trkpt>
      <trkpt lat="47.27059" lon="6.04655">
        <ele>327.95</ele>
        <time>2018-09-22T11:40:49Z</time>
      </trkpt>
      <trkpt lat="47.27066" lon="6.04647">
        <ele>326.99</ele>
        <time>2018-09-22T11:40:50Z</time>
      </trkpt>
      <trkpt lat="47.27073" lon="6.04638">
        <ele>326.02</ele>
        <time>2018-09-22T11:40:51Z</time>
      </trkpt>
      <trkpt lat="47.27081" lon="6.04629">
        <ele>325.54</ele>
        <time>2018-09-22T11:40:52Z</time>
      </trkpt>
      <trkpt lat="47.27089" lon="6.04622">
        <ele>324.58</ele>
        <time>2018-09-22T11:40:53Z</time>
      </trkpt>
      <trkpt lat="47.27098" lon="6.04617">
        <ele>323.62</ele>
        <time>2018-09-22T11:40:54Z</time>
      </trkpt>
      <trkpt lat="47.27126" lon="6.046">
        <ele>321.7</ele>
        <time>2018-09-22T11:40:57Z</time>
      </trkpt>
      <trkpt lat="47.27134" lon="6.04593">
        <ele>322.18</ele>
        <time>2018-09-22T11:40:58Z</time>
      </trkpt>
      <trkpt lat="47.27151" lon="6.04571">
        <ele>324.58</ele>
        <time>2018-09-22T11:41:01Z</time>
      </trkpt>
      <trkpt lat="47.27155" lon="6.04565">
        <ele>325.54</ele>
        <time>2018-09-22T11:41:02Z</time>
      </trkpt>
      <trkpt lat="47.27165" lon="6.04545">
        <ele>328.91</ele>
        <time>2018-09-22T11:41:06Z</time>
      </trkpt>
      <trkpt lat="47.2717" lon="6.04535">
        <ele>330.35</ele>
        <time>2018-09-22T11:41:09Z</time>
      </trkpt>
      <trkpt lat="47.27172" lon="6.04535">
        <ele>330.35</ele>
        <time>2018-09-22T11:41:10Z</time>
      </trkpt>
      <trkpt lat="47.27217" lon="6.0453">
        <ele>330.35</ele>
        <time>2018-09-22T11:41:23Z</time>
      </trkpt>
      <trkpt lat="47.27229" lon="6.04529">
        <ele>330.35</ele>
        <time>2018-09-22T11:41:26Z</time>
      </trkpt>
      <trkpt lat="47.27233" lon="6.04529">
        <ele>330.35</ele>
        <time>2018-09-22T11:41:27Z</time>
      </trkpt>
      <trkpt lat="47.27237" lon="6.04529">
        <ele>330.35</ele>
        <time>2018-09-22T11:41:28Z</time>
      </trkpt>
      <trkpt lat="47.27241" lon="6.04531">
        <ele>330.35</ele>
        <time>2018-09-22T11:41:29Z</time>
      </trkpt>
      <trkpt lat="47.27245" lon="6.04532">
        <ele>330.83</ele>
        <time>2018-09-22T11:41:30Z</time>
      </trkpt>
      <trkpt lat="47.2728" lon="6.04549">
        <ele>333.23</ele>
        <time>2018-09-22T11:41:42Z</time>
      </trkpt>
      <trkpt lat="47.27306" lon="6.04568">
        <ele>337.08</ele>
        <time>2018-09-22T11:41:53Z</time>
      </trkpt>
      <trkpt lat="47.27308" lon="6.04569">
        <ele>335.64</ele>
        <time>2018-09-22T11:41:54Z</time>
      </trkpt>
      <trkpt lat="47.27315" lon="6.0457">
        <ele>336.6</ele>
        <time>2018-09-22T11:41:57Z</time>
      </trkpt>
      <trkpt lat="47.27317" lon="6.04571">
        <ele>336.12</ele>
        <time>2018-09-22T11:41:58Z</time>
      </trkpt>
      <trkpt lat="47.27319" lon="6.04573">
        <ele>336.6</ele>
        <time>2018-09-22T11:41:59Z</time>
      </trkpt>
      <trkpt lat="47.27321" lon="6.04574">
        <ele>336.6</ele>
        <time>2018-09-22T11:42:00Z</time>
      </trkpt>
      <trkpt lat="47.27324" lon="6.04577">
        <ele>337.08</ele>
        <time>2018-09-22T11:42:01Z</time>
      </trkpt>
      <trkpt lat="47.27327" lon="6.0458">
        <ele>337.08</ele>
        <time>2018-09-22T11:42:02Z</time>
      </trkpt>
      <trkpt lat="47.2733" lon="6.04583">
        <ele>337.08</ele>
        <time>2018-09-22T11:42:03Z</time>
      </trkpt>
      <trkpt lat="47.27334" lon="6.04586">
        <ele>337.08</ele>
        <time>2018-09-22T11:42:04Z</time>
      </trkpt>
      <trkpt lat="47.27379" lon="6.04625">
        <ele>339</ele>
        <time>2018-09-22T11:42:19Z</time>
      </trkpt>
      <trkpt lat="47.27432" lon="6.04673">
        <ele>338.52</ele>
        <time>2018-09-22T11:42:35Z</time>
      </trkpt>
      <trkpt lat="47.2745" lon="6.04693">
        <ele>338.04</ele>
        <time>2018-09-22T11:42:40Z</time>
      </trkpt>
      <trkpt lat="47.27461" lon="6.04702">
        <ele>338.04</ele>
        <time>2018-09-22T11:42:43Z</time>
      </trkpt>
      <trkpt lat="47.27464" lon="6.04705">
        <ele>338.04</ele>
        <time>2018-09-22T11:42:44Z</time>
      </trkpt>
      <trkpt lat="47.27468" lon="6.04709">
        <ele>338.04</ele>
        <time>2018-09-22T11:42:45Z</time>
      </trkpt>
      <trkpt lat="47.27472" lon="6.04712">
        <ele>338.04</ele>
        <time>2018-09-22T11:42:46Z</time>
      </trkpt>
      <trkpt lat="47.27476" lon="6.04715">
        <ele>338.04</ele>
        <time>2018-09-22T11:42:47Z</time>
      </trkpt>
      <trkpt lat="47.2748" lon="6.04718">
        <ele>338.04</ele>
        <time>2018-09-22T11:42:48Z</time>
      </trkpt>
      <trkpt lat="47.27508" lon="6.04732">
        <ele>338.52</ele>
        <time>2018-09-22T11:42:55Z</time>
      </trkpt>
      <trkpt lat="47.27513" lon="6.04732">
        <ele>338.52</ele>
        <time>2018-09-22T11:42:56Z</time>
      </trkpt>
      <trkpt lat="47.27517" lon="6.0473">
        <ele>338.52</ele>
        <time>2018-09-22T11:42:57Z</time>
      </trkpt>
      <trkpt lat="47.27537" lon="6.04727">
        <ele>339.48</ele>
        <time>2018-09-22T11:43:02Z</time>
      </trkpt>
      <trkpt lat="47.2754" lon="6.04729">
        <ele>339.48</ele>
        <time>2018-09-22T11:43:03Z</time>
      </trkpt>
      <trkpt lat="47.27546" lon="6.04735">
        <ele>339.48</ele>
        <time>2018-09-22T11:43:05Z</time>
      </trkpt>
      <trkpt lat="47.2755" lon="6.04739">
        <ele>339</ele>
        <time>2018-09-22T11:43:06Z</time>
      </trkpt>
      <trkpt lat="47.27553" lon="6.04744">
        <ele>339</ele>
        <time>2018-09-22T11:43:07Z</time>
      </trkpt>
      <trkpt lat="47.27555" lon="6.04748">
        <ele>338.52</ele>
        <time>2018-09-22T11:43:08Z</time>
      </trkpt>
      <trkpt lat="47.27558" lon="6.04753">
        <ele>338.04</ele>
        <time>2018-09-22T11:43:09Z</time>
      </trkpt>
      <trkpt lat="47.2756" lon="6.04758">
        <ele>338.04</ele>
        <time>2018-09-22T11:43:10Z</time>
      </trkpt>
      <trkpt lat="47.27561" lon="6.04765">
        <ele>338.04</ele>
        <time>2018-09-22T11:43:11Z</time>
      </trkpt>
      <trkpt lat="47.27562" lon="6.04773">
        <ele>338.04</ele>
        <time>2018-09-22T11:43:12Z</time>
      </trkpt>
      <trkpt lat="47.27563" lon="6.0478">
        <ele>337.56</ele>
        <time>2018-09-22T11:43:13Z</time>
      </trkpt>
      <trkpt lat="47.27565" lon="6.04788">
        <ele>337.08</ele>
        <time>2018-09-22T11:43:14Z</time>
      </trkpt>
      <trkpt lat="47.27574" lon="6.04831">
        <ele>335.64</ele>
        <time>2018-09-22T11:43:19Z</time>
      </trkpt>
      <trkpt lat="47.27574" lon="6.0484">
        <ele>334.68</ele>
        <time>2018-09-22T11:43:20Z</time>
      </trkpt>
      <trkpt lat="47.27574" lon="6.04849">
        <ele>334.68</ele>
        <time>2018-09-22T11:43:21Z</time>
      </trkpt>
      <trkpt lat="47.27574" lon="6.04859">
        <ele>334.68</ele>
        <time>2018-09-22T11:43:22Z</time>
      </trkpt>
      <trkpt lat="47.27575" lon="6.04868">
        <ele>333.71</ele>
        <time>2018-09-22T11:43:23Z</time>
      </trkpt>
      <trkpt lat="47.27577" lon="6.04894">
        <ele>333.23</ele>
        <time>2018-09-22T11:43:26Z</time>
      </trkpt>
      <trkpt lat="47.27582" lon="6.04908">
        <ele>333.23</ele>
        <time>2018-09-22T11:43:28Z</time>
      </trkpt>
      <trkpt lat="47.27586" lon="6.04925">
        <ele>332.27</ele>
        <time>2018-09-22T11:43:30Z</time>
      </trkpt>
      <trkpt lat="47.27598" lon="6.0497">
        <ele>329.39</ele>
        <time>2018-09-22T11:43:35Z</time>
      </trkpt>
      <trkpt lat="47.27599" lon="6.0498">
        <ele>329.39</ele>
        <time>2018-09-22T11:43:36Z</time>
      </trkpt>
      <trkpt lat="47.27599" lon="6.04989">
        <ele>329.39</ele>
        <time>2018-09-22T11:43:37Z</time>
      </trkpt>
      <trkpt lat="47.27599" lon="6.04998">
        <ele>329.39</ele>
        <time>2018-09-22T11:43:38Z</time>
      </trkpt>
      <trkpt lat="47.27597" lon="6.05008">
        <ele>329.39</ele>
        <time>2018-09-22T11:43:39Z</time>
      </trkpt>
      <trkpt lat="47.27594" lon="6.05017">
        <ele>328.43</ele>
        <time>2018-09-22T11:43:40Z</time>
      </trkpt>
      <trkpt lat="47.27591" lon="6.05026">
        <ele>328.43</ele>
        <time>2018-09-22T11:43:41Z</time>
      </trkpt>
      <trkpt lat="47.27587" lon="6.05034">
        <ele>328.43</ele>
        <time>2018-09-22T11:43:42Z</time>
      </trkpt>
      <trkpt lat="47.27584" lon="6.05043">
        <ele>327.95</ele>
        <time>2018-09-22T11:43:43Z</time>
      </trkpt>
      <trkpt lat="47.27581" lon="6.05052">
        <ele>327.95</ele>
        <time>2018-09-22T11:43:44Z</time>
      </trkpt>
      <trkpt lat="47.27579" lon="6.0506">
        <ele>328.43</ele>
        <time>2018-09-22T11:43:45Z</time>
      </trkpt>
      <trkpt lat="47.27578" lon="6.05068">
        <ele>329.39</ele>
        <time>2018-09-22T11:43:46Z</time>
      </trkpt>
      <trkpt lat="47.27574" lon="6.05082">
        <ele>330.35</ele>
        <time>2018-09-22T11:43:48Z</time>
      </trkpt>
      <trkpt lat="47.27567" lon="6.05103">
        <ele>331.31</ele>
        <time>2018-09-22T11:43:52Z</time>
      </trkpt>
      <trkpt lat="47.27565" lon="6.05106">
        <ele>331.79</ele>
        <time>2018-09-22T11:43:53Z</time>
      </trkpt>
      <trkpt lat="47.27564" lon="6.0511">
        <ele>332.27</ele>
        <time>2018-09-22T11:43:54Z</time>
      </trkpt>
      <trkpt lat="47.27564" lon="6.05116">
        <ele>332.75</ele>
        <time>2018-09-22T11:43:55Z</time>
      </trkpt>
      <trkpt lat="47.27564" lon="6.05121">
        <ele>332.75</ele>
        <time>2018-09-22T11:43:56Z</time>
      </trkpt>
      <trkpt lat="47.27565" lon="6.05126">
        <ele>333.23</ele>
        <time>2018-09-22T11:43:57Z</time>
      </trkpt>
      <trkpt lat="47.27565" lon="6.05131">
        <ele>333.23</ele>
        <time>2018-09-22T11:43:58Z</time>
      </trkpt>
      <trkpt lat="47.27565" lon="6.05137">
        <ele>333.71</ele>
        <time>2018-09-22T11:43:59Z</time>
      </trkpt>
      <trkpt lat="47.27566" lon="6.05141">
        <ele>333.71</ele>
        <time>2018-09-22T11:44:00Z</time>
      </trkpt>
      <trkpt lat="47.27567" lon="6.05145">
        <ele>333.71</ele>
        <time>2018-09-22T11:44:01Z</time>
      </trkpt>
      <trkpt lat="47.27569" lon="6.05149">
        <ele>333.71</ele>
        <time>2018-09-22T11:44:02Z</time>
      </trkpt>
      <trkpt lat="47.27571" lon="6.05153">
        <ele>333.71</ele>
        <time>2018-09-22T11:44:03Z</time>
      </trkpt>
      <trkpt lat="47.27583" lon="6.05171">
        <ele>333.23</ele>
        <time>2018-09-22T11:44:07Z</time>
      </trkpt>
      <trkpt lat="47.27586" lon="6.05176">
        <ele>333.23</ele>
        <time>2018-09-22T11:44:08Z</time>
      </trkpt>
      <trkpt lat="47.27588" lon="6.05182">
        <ele>333.23</ele>
        <time>2018-09-22T11:44:09Z</time>
      </trkpt>
      <trkpt lat="47.27596" lon="6.05199">
        <ele>333.23</ele>
        <time>2018-09-22T11:44:12Z</time>
      </trkpt>
      <trkpt lat="47.27605" lon="6.05211">
        <ele>333.23</ele>
        <time>2018-09-22T11:44:15Z</time>
      </trkpt>
      <trkpt lat="47.2761" lon="6.05211">
        <ele>332.75</ele>
        <time>2018-09-22T11:44:16Z</time>
      </trkpt>
      <trkpt lat="47.27614" lon="6.05208">
        <ele>332.75</ele>
        <time>2018-09-22T11:44:17Z</time>
      </trkpt>
      <trkpt lat="47.2763" lon="6.05196">
        <ele>331.31</ele>
        <time>2018-09-22T11:44:20Z</time>
      </trkpt>
      <trkpt lat="47.2764" lon="6.0519">
        <ele>331.31</ele>
        <time>2018-09-22T11:44:22Z</time>
      </trkpt>
      <trkpt lat="47.27645" lon="6.05191">
        <ele>331.31</ele>
        <time>2018-09-22T11:44:23Z</time>
      </trkpt>
      <trkpt lat="47.27649" lon="6.05193">
        <ele>331.31</ele>
        <time>2018-09-22T11:44:24Z</time>
      </trkpt>
      <trkpt lat="47.27653" lon="6.05196">
        <ele>331.31</ele>
        <time>2018-09-22T11:44:25Z</time>
      </trkpt>
      <trkpt lat="47.27657" lon="6.05199">
        <ele>331.31</ele>
        <time>2018-09-22T11:44:26Z</time>
      </trkpt>
      <trkpt lat="47.27676" lon="6.0522">
        <ele>330.35</ele>
        <time>2018-09-22T11:44:31Z</time>
      </trkpt>
      <trkpt lat="47.2768" lon="6.05226">
        <ele>329.87</ele>
        <time>2018-09-22T11:44:32Z</time>
      </trkpt>
      <trkpt lat="47.27684" lon="6.05232">
        <ele>329.87</ele>
        <time>2018-09-22T11:44:33Z</time>
      </trkpt>
      <trkpt lat="47.27687" lon="6.05238">
        <ele>329.87</ele>
        <time>2018-09-22T11:44:34Z</time>
      </trkpt>
      <trkpt lat="47.2769" lon="6.05244">
        <ele>329.87</ele>
        <time>2018-09-22T11:44:35Z</time>
      </trkpt>
      <trkpt lat="47.27691" lon="6.0525">
        <ele>329.87</ele>
        <time>2018-09-22T11:44:36Z</time>
      </trkpt>
      <trkpt lat="47.27692" lon="6.05257">
        <ele>329.87</ele>
        <time>2018-09-22T11:44:37Z</time>
      </trkpt>
      <trkpt lat="47.27693" lon="6.05264">
        <ele>329.87</ele>
        <time>2018-09-22T11:44:38Z</time>
      </trkpt>
      <trkpt lat="47.27694" lon="6.05271">
        <ele>329.87</ele>
        <time>2018-09-22T11:44:39Z</time>
      </trkpt>
      <trkpt lat="47.27696" lon="6.05277">
        <ele>329.39</ele>
        <time>2018-09-22T11:44:40Z</time>
      </trkpt>
      <trkpt lat="47.27699" lon="6.05285">
        <ele>329.39</ele>
        <time>2018-09-22T11:44:41Z</time>
      </trkpt>
      <trkpt lat="47.27703" lon="6.05292">
        <ele>329.87</ele>
        <time>2018-09-22T11:44:42Z</time>
      </trkpt>
      <trkpt lat="47.27705" lon="6.05298">
        <ele>329.87</ele>
        <time>2018-09-22T11:44:43Z</time>
      </trkpt>
      <trkpt lat="47.27709" lon="6.05304">
        <ele>330.35</ele>
        <time>2018-09-22T11:44:44Z</time>
      </trkpt>
      <trkpt lat="47.27712" lon="6.05308">
        <ele>330.35</ele>
        <time>2018-09-22T11:44:45Z</time>
      </trkpt>
      <trkpt lat="47.27717" lon="6.05312">
        <ele>330.35</ele>
        <time>2018-09-22T11:44:46Z</time>
      </trkpt>
      <trkpt lat="47.27721" lon="6.05315">
        <ele>330.35</ele>
        <time>2018-09-22T11:44:47Z</time>
      </trkpt>
      <trkpt lat="47.27725" lon="6.05319">
        <ele>330.83</ele>
        <time>2018-09-22T11:44:48Z</time>
      </trkpt>
      <trkpt lat="47.27729" lon="6.05324">
        <ele>330.83</ele>
        <time>2018-09-22T11:44:49Z</time>
      </trkpt>
      <trkpt lat="47.27732" lon="6.0533">
        <ele>331.31</ele>
        <time>2018-09-22T11:44:50Z</time>
      </trkpt>
      <trkpt lat="47.27735" lon="6.05336">
        <ele>331.31</ele>
        <time>2018-09-22T11:44:51Z</time>
      </trkpt>
      <trkpt lat="47.27748" lon="6.05367">
        <ele>332.75</ele>
        <time>2018-09-22T11:44:56Z</time>
      </trkpt>
      <trkpt lat="47.2775" lon="6.05373">
        <ele>333.23</ele>
        <time>2018-09-22T11:44:57Z</time>
      </trkpt>
      <trkpt lat="47.27751" lon="6.05379">
        <ele>333.23</ele>
        <time>2018-09-22T11:44:58Z</time>
      </trkpt>
      <trkpt lat="47.27752" lon="6.05385">
        <ele>333.71</ele>
        <time>2018-09-22T11:44:59Z</time>
      </trkpt>
      <trkpt lat="47.27752" lon="6.05389">
        <ele>333.71</ele>
        <time>2018-09-22T11:45:00Z</time>
      </trkpt>
      <trkpt lat="47.27753" lon="6.05393">
        <ele>333.71</ele>
        <time>2018-09-22T11:45:01Z</time>
      </trkpt>
      <trkpt lat="47.27774" lon="6.05445">
        <ele>334.2</ele>
        <time>2018-09-22T11:45:11Z</time>
      </trkpt>
      <trkpt lat="47.2779" lon="6.05501">
        <ele>332.27</ele>
        <time>2018-09-22T11:45:21Z</time>
      </trkpt>
      <trkpt lat="47.27793" lon="6.05508">
        <ele>331.79</ele>
        <time>2018-09-22T11:45:22Z</time>
      </trkpt>
      <trkpt lat="47.278" lon="6.05522">
        <ele>331.31</ele>
        <time>2018-09-22T11:45:24Z</time>
      </trkpt>
      <trkpt lat="47.27805" lon="6.05527">
        <ele>330.83</ele>
        <time>2018-09-22T11:45:25Z</time>
      </trkpt>
      <trkpt lat="47.2781" lon="6.05532">
        <ele>330.83</ele>
        <time>2018-09-22T11:45:26Z</time>
      </trkpt>
      <trkpt lat="47.27836" lon="6.05552">
        <ele>331.31</ele>
        <time>2018-09-22T11:45:31Z</time>
      </trkpt>
      <trkpt lat="47.27842" lon="6.05555">
        <ele>331.31</ele>
        <time>2018-09-22T11:45:32Z</time>
      </trkpt>
      <trkpt lat="47.27846" lon="6.05557">
        <ele>331.79</ele>
        <time>2018-09-22T11:45:33Z</time>
      </trkpt>
      <trkpt lat="47.27851" lon="6.0556">
        <ele>331.79</ele>
        <time>2018-09-22T11:45:34Z</time>
      </trkpt>
      <trkpt lat="47.27855" lon="6.05565">
        <ele>331.79</ele>
        <time>2018-09-22T11:45:35Z</time>
      </trkpt>
      <trkpt lat="47.27859" lon="6.05571">
        <ele>332.27</ele>
        <time>2018-09-22T11:45:36Z</time>
      </trkpt>
      <trkpt lat="47.27867" lon="6.05582">
        <ele>332.27</ele>
        <time>2018-09-22T11:45:38Z</time>
      </trkpt>
      <trkpt lat="47.27872" lon="6.05586">
        <ele>332.27</ele>
        <time>2018-09-22T11:45:39Z</time>
      </trkpt>
      <trkpt lat="47.27876" lon="6.05589">
        <ele>332.75</ele>
        <time>2018-09-22T11:45:40Z</time>
      </trkpt>
      <trkpt lat="47.27886" lon="6.05595">
        <ele>332.75</ele>
        <time>2018-09-22T11:45:42Z</time>
      </trkpt>
      <trkpt lat="47.2793" lon="6.05643">
        <ele>334.2</ele>
        <time>2018-09-22T11:45:54Z</time>
      </trkpt>
      <trkpt lat="47.27933" lon="6.05647">
        <ele>334.2</ele>
        <time>2018-09-22T11:45:55Z</time>
      </trkpt>
      <trkpt lat="47.27937" lon="6.05651">
        <ele>334.2</ele>
        <time>2018-09-22T11:45:56Z</time>
      </trkpt>
      <trkpt lat="47.2794" lon="6.05655">
        <ele>334.68</ele>
        <time>2018-09-22T11:45:57Z</time>
      </trkpt>
      <trkpt lat="47.27944" lon="6.05658">
        <ele>334.68</ele>
        <time>2018-09-22T11:45:58Z</time>
      </trkpt>
      <trkpt lat="47.27974" lon="6.05687">
        <ele>336.6</ele>
        <time>2018-09-22T11:46:08Z</time>
      </trkpt>
      <trkpt lat="47.2801" lon="6.05722">
        <ele>337.08</ele>
        <time>2018-09-22T11:46:19Z</time>
      </trkpt>
      <trkpt lat="47.28047" lon="6.05749">
        <ele>339</ele>
        <time>2018-09-22T11:46:29Z</time>
      </trkpt>
      <trkpt lat="47.28072" lon="6.05793">
        <ele>339</ele>
        <time>2018-09-22T11:46:39Z</time>
      </trkpt>
      <trkpt lat="47.28084" lon="6.05823">
        <ele>339.48</ele>
        <time>2018-09-22T11:46:44Z</time>
      </trkpt>
      <trkpt lat="47.28086" lon="6.0583">
        <ele>339.48</ele>
        <time>2018-09-22T11:46:45Z</time>
      </trkpt>
      <trkpt lat="47.28099" lon="6.05857">
        <ele>339</ele>
        <time>2018-09-22T11:46:50Z</time>
      </trkpt>
      <trkpt lat="47.28103" lon="6.05859">
        <ele>339.48</ele>
        <time>2018-09-22T11:46:51Z</time>
      </trkpt>
      <trkpt lat="47.28108" lon="6.05859">
        <ele>339.48</ele>
        <time>2018-09-22T11:46:52Z</time>
      </trkpt>
      <trkpt lat="47.28112" lon="6.0586">
        <ele>339.48</ele>
        <time>2018-09-22T11:46:53Z</time>
      </trkpt>
      <trkpt lat="47.28116" lon="6.05861">
        <ele>340.44</ele>
        <time>2018-09-22T11:46:54Z</time>
      </trkpt>
      <trkpt lat="47.28153" lon="6.05872">
        <ele>339.48</ele>
        <time>2018-09-22T11:47:02Z</time>
      </trkpt>
      <trkpt lat="47.28158" lon="6.05873">
        <ele>339.48</ele>
        <time>2018-09-22T11:47:03Z</time>
      </trkpt>
      <trkpt lat="47.28168" lon="6.05873">
        <ele>339</ele>
        <time>2018-09-22T11:47:05Z</time>
      </trkpt>
      <trkpt lat="47.28186" lon="6.05871">
        <ele>339</ele>
        <time>2018-09-22T11:47:09Z</time>
      </trkpt>
      <trkpt lat="47.28217" lon="6.05866">
        <ele>339</ele>
        <time>2018-09-22T11:47:16Z</time>
      </trkpt>
      <trkpt lat="47.28232" lon="6.05862">
        <ele>339.48</ele>
        <time>2018-09-22T11:47:19Z</time>
      </trkpt>
      <trkpt lat="47.28255" lon="6.05857">
        <ele>339.48</ele>
        <time>2018-09-22T11:47:23Z</time>
      </trkpt>
      <trkpt lat="47.28278" lon="6.05858">
        <ele>339.48</ele>
        <time>2018-09-22T11:47:27Z</time>
      </trkpt>
      <trkpt lat="47.28332" lon="6.05869">
        <ele>338.52</ele>
        <time>2018-09-22T11:47:37Z</time>
      </trkpt>
      <trkpt lat="47.28344" lon="6.05867">
        <ele>338.04</ele>
        <time>2018-09-22T11:47:39Z</time>
      </trkpt>
      <trkpt lat="47.28355" lon="6.05863">
        <ele>337.56</ele>
        <time>2018-09-22T11:47:41Z</time>
      </trkpt>
      <trkpt lat="47.28361" lon="6.0586">
        <ele>337.08</ele>
        <time>2018-09-22T11:47:42Z</time>
      </trkpt>
      <trkpt lat="47.28367" lon="6.05856">
        <ele>337.08</ele>
        <time>2018-09-22T11:47:43Z</time>
      </trkpt>
      <trkpt lat="47.28377" lon="6.05845">
        <ele>337.08</ele>
        <time>2018-09-22T11:47:45Z</time>
      </trkpt>
      <trkpt lat="47.28385" lon="6.05839">
        <ele>336.6</ele>
        <time>2018-09-22T11:47:47Z</time>
      </trkpt>
      <trkpt lat="47.2839" lon="6.0584">
        <ele>336.6</ele>
        <time>2018-09-22T11:47:48Z</time>
      </trkpt>
      <trkpt lat="47.28393" lon="6.05841">
        <ele>336.12</ele>
        <time>2018-09-22T11:47:49Z</time>
      </trkpt>
      <trkpt lat="47.28398" lon="6.05843">
        <ele>336.12</ele>
        <time>2018-09-22T11:47:50Z</time>
      </trkpt>
      <trkpt lat="47.28403" lon="6.05845">
        <ele>336.12</ele>
        <time>2018-09-22T11:47:51Z</time>
      </trkpt>
      <trkpt lat="47.28408" lon="6.05848">
        <ele>335.64</ele>
        <time>2018-09-22T11:47:52Z</time>
      </trkpt>
      <trkpt lat="47.28412" lon="6.05851">
        <ele>335.16</ele>
        <time>2018-09-22T11:47:53Z</time>
      </trkpt>
      <trkpt lat="47.28417" lon="6.05855">
        <ele>334.68</ele>
        <time>2018-09-22T11:47:54Z</time>
      </trkpt>
      <trkpt lat="47.28422" lon="6.05859">
        <ele>334.2</ele>
        <time>2018-09-22T11:47:55Z</time>
      </trkpt>
      <trkpt lat="47.28436" lon="6.05873">
        <ele>333.71</ele>
        <time>2018-09-22T11:47:58Z</time>
      </trkpt>
      <trkpt lat="47.28441" lon="6.05877">
        <ele>333.23</ele>
        <time>2018-09-22T11:47:59Z</time>
      </trkpt>
      <trkpt lat="47.28445" lon="6.05881">
        <ele>332.75</ele>
        <time>2018-09-22T11:48:00Z</time>
      </trkpt>
      <trkpt lat="47.28449" lon="6.05887">
        <ele>332.27</ele>
        <time>2018-09-22T11:48:01Z</time>
      </trkpt>
      <trkpt lat="47.28453" lon="6.05894">
        <ele>331.31</ele>
        <time>2018-09-22T11:48:02Z</time>
      </trkpt>
      <trkpt lat="47.28457" lon="6.05902">
        <ele>330.83</ele>
        <time>2018-09-22T11:48:03Z</time>
      </trkpt>
      <trkpt lat="47.28462" lon="6.05908">
        <ele>330.35</ele>
        <time>2018-09-22T11:48:04Z</time>
      </trkpt>
      <trkpt lat="47.28467" lon="6.05913">
        <ele>329.87</ele>
        <time>2018-09-22T11:48:05Z</time>
      </trkpt>
      <trkpt lat="47.28473" lon="6.05917">
        <ele>329.39</ele>
        <time>2018-09-22T11:48:06Z</time>
      </trkpt>
      <trkpt lat="47.28519" lon="6.05952">
        <ele>326.02</ele>
        <time>2018-09-22T11:48:13Z</time>
      </trkpt>
      <trkpt lat="47.28526" lon="6.0596">
        <ele>325.06</ele>
        <time>2018-09-22T11:48:14Z</time>
      </trkpt>
      <trkpt lat="47.28531" lon="6.05969">
        <ele>324.58</ele>
        <time>2018-09-22T11:48:15Z</time>
      </trkpt>
      <trkpt lat="47.28537" lon="6.05976">
        <ele>324.1</ele>
        <time>2018-09-22T11:48:16Z</time>
      </trkpt>
      <trkpt lat="47.28543" lon="6.05982">
        <ele>324.1</ele>
        <time>2018-09-22T11:48:17Z</time>
      </trkpt>
      <trkpt lat="47.28554" lon="6.05994">
        <ele>323.62</ele>
        <time>2018-09-22T11:48:19Z</time>
      </trkpt>
      <trkpt lat="47.28576" lon="6.05997">
        <ele>323.14</ele>
        <time>2018-09-22T11:48:24Z</time>
      </trkpt>
      <trkpt lat="47.2858" lon="6.05993">
        <ele>323.14</ele>
        <time>2018-09-22T11:48:25Z</time>
      </trkpt>
      <trkpt lat="47.28593" lon="6.05979">
        <ele>321.7</ele>
        <time>2018-09-22T11:48:28Z</time>
      </trkpt>
      <trkpt lat="47.28602" lon="6.05967">
        <ele>321.22</ele>
        <time>2018-09-22T11:48:30Z</time>
      </trkpt>
      <trkpt lat="47.28611" lon="6.05955">
        <ele>320.26</ele>
        <time>2018-09-22T11:48:32Z</time>
      </trkpt>
      <trkpt lat="47.28619" lon="6.05941">
        <ele>319.3</ele>
        <time>2018-09-22T11:48:34Z</time>
      </trkpt>
      <trkpt lat="47.28624" lon="6.05934">
        <ele>319.3</ele>
        <time>2018-09-22T11:48:35Z</time>
      </trkpt>
      <trkpt lat="47.2863" lon="6.0593">
        <ele>319.3</ele>
        <time>2018-09-22T11:48:36Z</time>
      </trkpt>
      <trkpt lat="47.28643" lon="6.05924">
        <ele>318.33</ele>
        <time>2018-09-22T11:48:38Z</time>
      </trkpt>
      <trkpt lat="47.28654" lon="6.05915">
        <ele>318.33</ele>
        <time>2018-09-22T11:48:40Z</time>
      </trkpt>
      <trkpt lat="47.28659" lon="6.0591">
        <ele>318.33</ele>
        <time>2018-09-22T11:48:41Z</time>
      </trkpt>
      <trkpt lat="47.28664" lon="6.05904">
        <ele>317.85</ele>
        <time>2018-09-22T11:48:42Z</time>
      </trkpt>
      <trkpt lat="47.28672" lon="6.05891">
        <ele>317.85</ele>
        <time>2018-09-22T11:48:44Z</time>
      </trkpt>
      <trkpt lat="47.28676" lon="6.05885">
        <ele>317.85</ele>
        <time>2018-09-22T11:48:45Z</time>
      </trkpt>
      <trkpt lat="47.28681" lon="6.05879">
        <ele>317.85</ele>
        <time>2018-09-22T11:48:46Z</time>
      </trkpt>
      <trkpt lat="47.28701" lon="6.05856">
        <ele>317.37</ele>
        <time>2018-09-22T11:48:50Z</time>
      </trkpt>
      <trkpt lat="47.28712" lon="6.05846">
        <ele>315.93</ele>
        <time>2018-09-22T11:48:52Z</time>
      </trkpt>
      <trkpt lat="47.28718" lon="6.05843">
        <ele>315.93</ele>
        <time>2018-09-22T11:48:53Z</time>
      </trkpt>
      <trkpt lat="47.28744" lon="6.05836">
        <ele>312.57</ele>
        <time>2018-09-22T11:48:57Z</time>
      </trkpt>
      <trkpt lat="47.28753" lon="6.05834">
        <ele>312.09</ele>
        <time>2018-09-22T11:48:58Z</time>
      </trkpt>
      <trkpt lat="47.28761" lon="6.05831">
        <ele>311.6</ele>
        <time>2018-09-22T11:48:59Z</time>
      </trkpt>
      <trkpt lat="47.28768" lon="6.05825">
        <ele>310.64</ele>
        <time>2018-09-22T11:49:00Z</time>
      </trkpt>
      <trkpt lat="47.28774" lon="6.05818">
        <ele>310.16</ele>
        <time>2018-09-22T11:49:01Z</time>
      </trkpt>
      <trkpt lat="47.28779" lon="6.05809">
        <ele>309.68</ele>
        <time>2018-09-22T11:49:02Z</time>
      </trkpt>
      <trkpt lat="47.28783" lon="6.05799">
        <ele>309.2</ele>
        <time>2018-09-22T11:49:03Z</time>
      </trkpt>
      <trkpt lat="47.28788" lon="6.0579">
        <ele>308.24</ele>
        <time>2018-09-22T11:49:04Z</time>
      </trkpt>
      <trkpt lat="47.28794" lon="6.05779">
        <ele>306.8</ele>
        <time>2018-09-22T11:49:05Z</time>
      </trkpt>
      <trkpt lat="47.28799" lon="6.05768">
        <ele>305.84</ele>
        <time>2018-09-22T11:49:06Z</time>
      </trkpt>
      <trkpt lat="47.28803" lon="6.05755">
        <ele>305.36</ele>
        <time>2018-09-22T11:49:07Z</time>
      </trkpt>
      <trkpt lat="47.28805" lon="6.05743">
        <ele>305.36</ele>
        <time>2018-09-22T11:49:08Z</time>
      </trkpt>
      <trkpt lat="47.28809" lon="6.05733">
        <ele>305.84</ele>
        <time>2018-09-22T11:49:09Z</time>
      </trkpt>
      <trkpt lat="47.28814" lon="6.05727">
        <ele>306.32</ele>
        <time>2018-09-22T11:49:10Z</time>
      </trkpt>
      <trkpt lat="47.28819" lon="6.05723">
        <ele>306.32</ele>
        <time>2018-09-22T11:49:11Z</time>
      </trkpt>
      <trkpt lat="47.28825" lon="6.0572">
        <ele>306.8</ele>
        <time>2018-09-22T11:49:12Z</time>
      </trkpt>
      <trkpt lat="47.2883" lon="6.05718">
        <ele>306.8</ele>
        <time>2018-09-22T11:49:13Z</time>
      </trkpt>
      <trkpt lat="47.28835" lon="6.05717">
        <ele>306.8</ele>
        <time>2018-09-22T11:49:14Z</time>
      </trkpt>
      <trkpt lat="47.28856" lon="6.05716">
        <ele>308.24</ele>
        <time>2018-09-22T11:49:19Z</time>
      </trkpt>
      <trkpt lat="47.2886" lon="6.05718">
        <ele>308.72</ele>
        <time>2018-09-22T11:49:20Z</time>
      </trkpt>
      <trkpt lat="47.28862" lon="6.05721">
        <ele>308.24</ele>
        <time>2018-09-22T11:49:21Z</time>
      </trkpt>
      <trkpt lat="47.28865" lon="6.05724">
        <ele>308.72</ele>
        <time>2018-09-22T11:49:22Z</time>
      </trkpt>
      <trkpt lat="47.28868" lon="6.05727">
        <ele>308.72</ele>
        <time>2018-09-22T11:49:23Z</time>
      </trkpt>
      <trkpt lat="47.28872" lon="6.05729">
        <ele>308.72</ele>
        <time>2018-09-22T11:49:24Z</time>
      </trkpt>
      <trkpt lat="47.28876" lon="6.05731">
        <ele>308.72</ele>
        <time>2018-09-22T11:49:25Z</time>
      </trkpt>
      <trkpt lat="47.2888" lon="6.05733">
        <ele>308.72</ele>
        <time>2018-09-22T11:49:26Z</time>
      </trkpt>
      <trkpt lat="47.28915" lon="6.05757">
        <ele>310.64</ele>
        <time>2018-09-22T11:49:36Z</time>
      </trkpt>
      <trkpt lat="47.28937" lon="6.05767">
        <ele>311.12</ele>
        <time>2018-09-22T11:49:42Z</time>
      </trkpt>
      <trkpt lat="47.28941" lon="6.0577">
        <ele>311.12</ele>
        <time>2018-09-22T11:49:43Z</time>
      </trkpt>
      <trkpt lat="47.28945" lon="6.05773">
        <ele>311.12</ele>
        <time>2018-09-22T11:49:44Z</time>
      </trkpt>
      <trkpt lat="47.2895" lon="6.05777">
        <ele>310.64</ele>
        <time>2018-09-22T11:49:45Z</time>
      </trkpt>
      <trkpt lat="47.28954" lon="6.05781">
        <ele>310.64</ele>
        <time>2018-09-22T11:49:46Z</time>
      </trkpt>
      <trkpt lat="47.28958" lon="6.05783">
        <ele>310.64</ele>
        <time>2018-09-22T11:49:47Z</time>
      </trkpt>
      <trkpt lat="47.28962" lon="6.05785">
        <ele>310.64</ele>
        <time>2018-09-22T11:49:48Z</time>
      </trkpt>
      <trkpt lat="47.28966" lon="6.05786">
        <ele>310.64</ele>
        <time>2018-09-22T11:49:49Z</time>
      </trkpt>
      <trkpt lat="47.28971" lon="6.05785">
        <ele>310.64</ele>
        <time>2018-09-22T11:49:50Z</time>
      </trkpt>
      <trkpt lat="47.28975" lon="6.05782">
        <ele>310.64</ele>
        <time>2018-09-22T11:49:51Z</time>
      </trkpt>
      <trkpt lat="47.2898" lon="6.05778">
        <ele>310.16</ele>
        <time>2018-09-22T11:49:52Z</time>
      </trkpt>
      <trkpt lat="47.28988" lon="6.05772">
        <ele>310.16</ele>
        <time>2018-09-22T11:49:54Z</time>
      </trkpt>
      <trkpt lat="47.28992" lon="6.05768">
        <ele>310.16</ele>
        <time>2018-09-22T11:49:55Z</time>
      </trkpt>
      <trkpt lat="47.29012" lon="6.05747">
        <ele>312.57</ele>
        <time>2018-09-22T11:50:02Z</time>
      </trkpt>
      <trkpt lat="47.29014" lon="6.05745">
        <ele>313.05</ele>
        <time>2018-09-22T11:50:03Z</time>
      </trkpt>
      <trkpt lat="47.29016" lon="6.05742">
        <ele>313.53</ele>
        <time>2018-09-22T11:50:04Z</time>
      </trkpt>
      <trkpt lat="47.29018" lon="6.05738">
        <ele>313.53</ele>
        <time>2018-09-22T11:50:05Z</time>
      </trkpt>
      <trkpt lat="47.29019" lon="6.05736">
        <ele>313.53</ele>
        <time>2018-09-22T11:50:06Z</time>
      </trkpt>
      <trkpt lat="47.29021" lon="6.05733">
        <ele>314.01</ele>
        <time>2018-09-22T11:50:07Z</time>
      </trkpt>
      <trkpt lat="47.2905" lon="6.05699">
        <ele>316.89</ele>
        <time>2018-09-22T11:50:19Z</time>
      </trkpt>
      <trkpt lat="47.29079" lon="6.05663">
        <ele>318.81</ele>
        <time>2018-09-22T11:50:31Z</time>
      </trkpt>
      <trkpt lat="47.29107" lon="6.05627">
        <ele>319.3</ele>
        <time>2018-09-22T11:50:42Z</time>
      </trkpt>
      <trkpt lat="47.2911" lon="6.05623">
        <ele>318.81</ele>
        <time>2018-09-22T11:50:43Z</time>
      </trkpt>
      <trkpt lat="47.29113" lon="6.05618">
        <ele>318.33</ele>
        <time>2018-09-22T11:50:44Z</time>
      </trkpt>
      <trkpt lat="47.29117" lon="6.05613">
        <ele>317.37</ele>
        <time>2018-09-22T11:50:45Z</time>
      </trkpt>
      <trkpt lat="47.29121" lon="6.05607">
        <ele>316.89</ele>
        <time>2018-09-22T11:50:46Z</time>
      </trkpt>
      <trkpt lat="47.29125" lon="6.05602">
        <ele>316.89</ele>
        <time>2018-09-22T11:50:47Z</time>
      </trkpt>
      <trkpt lat="47.29129" lon="6.05599">
        <ele>316.89</ele>
        <time>2018-09-22T11:50:48Z</time>
      </trkpt>
      <trkpt lat="47.29144" lon="6.05581">
        <ele>320.26</ele>
        <time>2018-09-22T11:50:54Z</time>
      </trkpt>
      <trkpt lat="47.29148" lon="6.05576">
        <ele>321.22</ele>
        <time>2018-09-22T11:50:56Z</time>
      </trkpt>
      <trkpt lat="47.29151" lon="6.05571">
        <ele>322.18</ele>
        <time>2018-09-22T11:50:58Z</time>
      </trkpt>
      <trkpt lat="47.29153" lon="6.05568">
        <ele>322.18</ele>
        <time>2018-09-22T11:50:59Z</time>
      </trkpt>
      <trkpt lat="47.29174" lon="6.0554">
        <ele>324.58</ele>
        <time>2018-09-22T11:51:11Z</time>
      </trkpt>
      <trkpt lat="47.292" lon="6.05506">
        <ele>327.95</ele>
        <time>2018-09-22T11:51:25Z</time>
      </trkpt>
      <trkpt lat="47.29221" lon="6.05479">
        <ele>330.35</ele>
        <time>2018-09-22T11:51:37Z</time>
      </trkpt>
      <trkpt lat="47.29235" lon="6.05455">
        <ele>332.75</ele>
        <time>2018-09-22T11:51:47Z</time>
      </trkpt>
      <trkpt lat="47.29237" lon="6.05452">
        <ele>333.23</ele>
        <time>2018-09-22T11:51:48Z</time>
      </trkpt>
      <trkpt lat="47.29239" lon="6.0545">
        <ele>333.23</ele>
        <time>2018-09-22T11:51:49Z</time>
      </trkpt>
      <trkpt lat="47.29252" lon="6.05433">
        <ele>334.68</ele>
        <time>2018-09-22T11:51:56Z</time>
      </trkpt>
      <trkpt lat="47.29254" lon="6.0543">
        <ele>335.16</ele>
        <time>2018-09-22T11:51:57Z</time>
      </trkpt>
      <trkpt lat="47.29255" lon="6.05428">
        <ele>335.16</ele>
        <time>2018-09-22T11:51:58Z</time>
      </trkpt>
      <trkpt lat="47.29257" lon="6.05425">
        <ele>335.64</ele>
        <time>2018-09-22T11:51:59Z</time>
      </trkpt>
      <trkpt lat="47.29259" lon="6.05422">
        <ele>335.64</ele>
        <time>2018-09-22T11:52:00Z</time>
      </trkpt>
      <trkpt lat="47.29261" lon="6.0542">
        <ele>336.12</ele>
        <time>2018-09-22T11:52:01Z</time>
      </trkpt>
      <trkpt lat="47.29262" lon="6.05417">
        <ele>336.12</ele>
        <time>2018-09-22T11:52:02Z</time>
      </trkpt>
      <trkpt lat="47.29264" lon="6.05415">
        <ele>336.6</ele>
        <time>2018-09-22T11:52:03Z</time>
      </trkpt>
      <trkpt lat="47.29266" lon="6.05413">
        <ele>336.6</ele>
        <time>2018-09-22T11:52:04Z</time>
      </trkpt>
      <trkpt lat="47.29273" lon="6.05404">
        <ele>337.56</ele>
        <time>2018-09-22T11:52:08Z</time>
      </trkpt>
      <trkpt lat="47.29275" lon="6.05401">
        <ele>337.56</ele>
        <time>2018-09-22T11:52:09Z</time>
      </trkpt>
      <trkpt lat="47.29277" lon="6.05398">
        <ele>338.04</ele>
        <time>2018-09-22T11:52:10Z</time>
      </trkpt>
      <trkpt lat="47.29278" lon="6.05396">
        <ele>338.04</ele>
        <time>2018-09-22T11:52:11Z</time>
      </trkpt>
      <trkpt lat="47.2928" lon="6.05393">
        <ele>338.52</ele>
        <time>2018-09-22T11:52:12Z</time>
      </trkpt>
      <trkpt lat="47.29282" lon="6.05391">
        <ele>338.52</ele>
        <time>2018-09-22T11:52:13Z</time>
      </trkpt>
      <trkpt lat="47.29283" lon="6.05388">
        <ele>339</ele>
        <time>2018-09-22T11:52:14Z</time>
      </trkpt>
      <trkpt lat="47.29284" lon="6.05386">
        <ele>339</ele>
        <time>2018-09-22T11:52:15Z</time>
      </trkpt>
      <trkpt lat="47.29286" lon="6.05384">
        <ele>339.48</ele>
        <time>2018-09-22T11:52:16Z</time>
      </trkpt>
      <trkpt lat="47.29288" lon="6.05383">
        <ele>339.48</ele>
        <time>2018-09-22T11:52:17Z</time>
      </trkpt>
      <trkpt lat="47.29289" lon="6.05381">
        <ele>339.96</ele>
        <time>2018-09-22T11:52:18Z</time>
      </trkpt>
      <trkpt lat="47.29291" lon="6.05378">
        <ele>339.96</ele>
        <time>2018-09-22T11:52:19Z</time>
      </trkpt>
      <trkpt lat="47.29293" lon="6.05376">
        <ele>339.96</ele>
        <time>2018-09-22T11:52:20Z</time>
      </trkpt>
      <trkpt lat="47.29312" lon="6.05352">
        <ele>341.89</ele>
        <time>2018-09-22T11:52:30Z</time>
      </trkpt>
      <trkpt lat="47.29313" lon="6.05349">
        <ele>341.89</ele>
        <time>2018-09-22T11:52:31Z</time>
      </trkpt>
      <trkpt lat="47.29316" lon="6.05346">
        <ele>342.37</ele>
        <time>2018-09-22T11:52:32Z</time>
      </trkpt>
      <trkpt lat="47.29318" lon="6.05343">
        <ele>342.37</ele>
        <time>2018-09-22T11:52:33Z</time>
      </trkpt>
      <trkpt lat="47.2932" lon="6.05341">
        <ele>342.37</ele>
        <time>2018-09-22T11:52:34Z</time>
      </trkpt>
      <trkpt lat="47.29322" lon="6.05339">
        <ele>342.85</ele>
        <time>2018-09-22T11:52:35Z</time>
      </trkpt>
      <trkpt lat="47.29324" lon="6.05336">
        <ele>342.85</ele>
        <time>2018-09-22T11:52:36Z</time>
      </trkpt>
      <trkpt lat="47.29327" lon="6.05334">
        <ele>343.33</ele>
        <time>2018-09-22T11:52:37Z</time>
      </trkpt>
      <trkpt lat="47.29329" lon="6.05331">
        <ele>343.33</ele>
        <time>2018-09-22T11:52:38Z</time>
      </trkpt>
      <trkpt lat="47.29332" lon="6.05328">
        <ele>343.33</ele>
        <time>2018-09-22T11:52:39Z</time>
      </trkpt>
      <trkpt lat="47.29333" lon="6.05325">
        <ele>343.33</ele>
        <time>2018-09-22T11:52:40Z</time>
      </trkpt>
      <trkpt lat="47.29335" lon="6.05321">
        <ele>343.81</ele>
        <time>2018-09-22T11:52:41Z</time>
      </trkpt>
      <trkpt lat="47.29337" lon="6.05318">
        <ele>343.81</ele>
        <time>2018-09-22T11:52:42Z</time>
      </trkpt>
      <trkpt lat="47.2934" lon="6.05316">
        <ele>343.81</ele>
        <time>2018-09-22T11:52:43Z</time>
      </trkpt>
      <trkpt lat="47.29342" lon="6.05314">
        <ele>343.81</ele>
        <time>2018-09-22T11:52:44Z</time>
      </trkpt>
      <trkpt lat="47.29343" lon="6.05312">
        <ele>343.81</ele>
        <time>2018-09-22T11:52:45Z</time>
      </trkpt>
      <trkpt lat="47.29345" lon="6.0531">
        <ele>343.81</ele>
        <time>2018-09-22T11:52:46Z</time>
      </trkpt>
      <trkpt lat="47.29347" lon="6.05307">
        <ele>343.81</ele>
        <time>2018-09-22T11:52:47Z</time>
      </trkpt>
      <trkpt lat="47.29348" lon="6.05306">
        <ele>343.81</ele>
        <time>2018-09-22T11:52:48Z</time>
      </trkpt>
      <trkpt lat="47.29351" lon="6.05303">
        <ele>343.81</ele>
        <time>2018-09-22T11:52:49Z</time>
      </trkpt>
      <trkpt lat="47.29354" lon="6.053">
        <ele>343.33</ele>
        <time>2018-09-22T11:52:50Z</time>
      </trkpt>
      <trkpt lat="47.29369" lon="6.0528">
        <ele>343.33</ele>
        <time>2018-09-22T11:52:56Z</time>
      </trkpt>
      <trkpt lat="47.29371" lon="6.05276">
        <ele>342.85</ele>
        <time>2018-09-22T11:52:57Z</time>
      </trkpt>
      <trkpt lat="47.29373" lon="6.05272">
        <ele>343.33</ele>
        <time>2018-09-22T11:52:58Z</time>
      </trkpt>
      <trkpt lat="47.29376" lon="6.05268">
        <ele>343.33</ele>
        <time>2018-09-22T11:52:59Z</time>
      </trkpt>
      <trkpt lat="47.29379" lon="6.05263">
        <ele>343.33</ele>
        <time>2018-09-22T11:53:00Z</time>
      </trkpt>
      <trkpt lat="47.29381" lon="6.05259">
        <ele>343.33</ele>
        <time>2018-09-22T11:53:01Z</time>
      </trkpt>
      <trkpt lat="47.29413" lon="6.05232">
        <ele>342.85</ele>
        <time>2018-09-22T11:53:10Z</time>
      </trkpt>
      <trkpt lat="47.29417" lon="6.0523">
        <ele>342.85</ele>
        <time>2018-09-22T11:53:11Z</time>
      </trkpt>
      <trkpt lat="47.29422" lon="6.05226">
        <ele>342.37</ele>
        <time>2018-09-22T11:53:12Z</time>
      </trkpt>
      <trkpt lat="47.29426" lon="6.05223">
        <ele>341.89</ele>
        <time>2018-09-22T11:53:13Z</time>
      </trkpt>
      <trkpt lat="47.2943" lon="6.05219">
        <ele>341.89</ele>
        <time>2018-09-22T11:53:14Z</time>
      </trkpt>
      <trkpt lat="47.29435" lon="6.05217">
        <ele>341.41</ele>
        <time>2018-09-22T11:53:15Z</time>
      </trkpt>
      <trkpt lat="47.2944" lon="6.05216">
        <ele>341.41</ele>
        <time>2018-09-22T11:53:16Z</time>
      </trkpt>
      <trkpt lat="47.29445" lon="6.05217">
        <ele>340.92</ele>
        <time>2018-09-22T11:53:17Z</time>
      </trkpt>
      <trkpt lat="47.2945" lon="6.05219">
        <ele>340.44</ele>
        <time>2018-09-22T11:53:18Z</time>
      </trkpt>
      <trkpt lat="47.29454" lon="6.05223">
        <ele>339.96</ele>
        <time>2018-09-22T11:53:19Z</time>
      </trkpt>
      <trkpt lat="47.29459" lon="6.05228">
        <ele>339</ele>
        <time>2018-09-22T11:53:20Z</time>
      </trkpt>
      <trkpt lat="47.29484" lon="6.05251">
        <ele>335.64</ele>
        <time>2018-09-22T11:53:24Z</time>
      </trkpt>
      <trkpt lat="47.29499" lon="6.05265">
        <ele>333.23</ele>
        <time>2018-09-22T11:53:26Z</time>
      </trkpt>
      <trkpt lat="47.29511" lon="6.05282">
        <ele>331.79</ele>
        <time>2018-09-22T11:53:28Z</time>
      </trkpt>
      <trkpt lat="47.29522" lon="6.05292">
        <ele>330.83</ele>
        <time>2018-09-22T11:53:30Z</time>
      </trkpt>
      <trkpt lat="47.29528" lon="6.05297">
        <ele>330.35</ele>
        <time>2018-09-22T11:53:31Z</time>
      </trkpt>
      <trkpt lat="47.29532" lon="6.05302">
        <ele>330.35</ele>
        <time>2018-09-22T11:53:32Z</time>
      </trkpt>
      <trkpt lat="47.29537" lon="6.05308">
        <ele>329.87</ele>
        <time>2018-09-22T11:53:33Z</time>
      </trkpt>
      <trkpt lat="47.29541" lon="6.05311">
        <ele>329.87</ele>
        <time>2018-09-22T11:53:34Z</time>
      </trkpt>
      <trkpt lat="47.29546" lon="6.05311">
        <ele>329.87</ele>
        <time>2018-09-22T11:53:35Z</time>
      </trkpt>
      <trkpt lat="47.29551" lon="6.05308">
        <ele>329.87</ele>
        <time>2018-09-22T11:53:36Z</time>
      </trkpt>
      <trkpt lat="47.29559" lon="6.05301">
        <ele>329.87</ele>
        <time>2018-09-22T11:53:38Z</time>
      </trkpt>
      <trkpt lat="47.29563" lon="6.05299">
        <ele>329.39</ele>
        <time>2018-09-22T11:53:39Z</time>
      </trkpt>
      <trkpt lat="47.29589" lon="6.05291">
        <ele>332.27</ele>
        <time>2018-09-22T11:53:47Z</time>
      </trkpt>
      <trkpt lat="47.2961" lon="6.05297">
        <ele>335.16</ele>
        <time>2018-09-22T11:53:57Z</time>
      </trkpt>
      <trkpt lat="47.29622" lon="6.05302">
        <ele>336.12</ele>
        <time>2018-09-22T11:54:03Z</time>
      </trkpt>
      <trkpt lat="47.29625" lon="6.05305">
        <ele>336.6</ele>
        <time>2018-09-22T11:54:05Z</time>
      </trkpt>
      <trkpt lat="47.29627" lon="6.05305">
        <ele>336.6</ele>
        <time>2018-09-22T11:54:06Z</time>
      </trkpt>
      <trkpt lat="47.29629" lon="6.05305">
        <ele>337.08</ele>
        <time>2018-09-22T11:54:07Z</time>
      </trkpt>
      <trkpt lat="47.29631" lon="6.05305">
        <ele>337.08</ele>
        <time>2018-09-22T11:54:08Z</time>
      </trkpt>
      <trkpt lat="47.29633" lon="6.05304">
        <ele>337.08</ele>
        <time>2018-09-22T11:54:09Z</time>
      </trkpt>
      <trkpt lat="47.29659" lon="6.05284">
        <ele>339.96</ele>
        <time>2018-09-22T11:54:20Z</time>
      </trkpt>
      <trkpt lat="47.29702" lon="6.05235">
        <ele>339.48</ele>
        <time>2018-09-22T11:54:35Z</time>
      </trkpt>
      <trkpt lat="47.29705" lon="6.05231">
        <ele>339.48</ele>
        <time>2018-09-22T11:54:36Z</time>
      </trkpt>
      <trkpt lat="47.29708" lon="6.05228">
        <ele>339.48</ele>
        <time>2018-09-22T11:54:37Z</time>
      </trkpt>
      <trkpt lat="47.29713" lon="6.05227">
        <ele>339.48</ele>
        <time>2018-09-22T11:54:38Z</time>
      </trkpt>
      <trkpt lat="47.2972" lon="6.05229">
        <ele>339.96</ele>
        <time>2018-09-22T11:54:40Z</time>
      </trkpt>
      <trkpt lat="47.29755" lon="6.05256">
        <ele>342.37</ele>
        <time>2018-09-22T11:54:53Z</time>
      </trkpt>
      <trkpt lat="47.29756" lon="6.05259">
        <ele>342.85</ele>
        <time>2018-09-22T11:54:54Z</time>
      </trkpt>
      <trkpt lat="47.29756" lon="6.05263">
        <ele>343.33</ele>
        <time>2018-09-22T11:54:55Z</time>
      </trkpt>
      <trkpt lat="47.29755" lon="6.05267">
        <ele>343.33</ele>
        <time>2018-09-22T11:54:56Z</time>
      </trkpt>
      <trkpt lat="47.29755" lon="6.05271">
        <ele>343.33</ele>
        <time>2018-09-22T11:54:57Z</time>
      </trkpt>
      <trkpt lat="47.29745" lon="6.0533">
        <ele>343.33</ele>
        <time>2018-09-22T11:55:08Z</time>
      </trkpt>
      <trkpt lat="47.29738" lon="6.05383">
        <ele>344.29</ele>
        <time>2018-09-22T11:55:18Z</time>
      </trkpt>
      <trkpt lat="47.29736" lon="6.05388">
        <ele>343.81</ele>
        <time>2018-09-22T11:55:19Z</time>
      </trkpt>
      <trkpt lat="47.29733" lon="6.05392">
        <ele>343.81</ele>
        <time>2018-09-22T11:55:20Z</time>
      </trkpt>
      <trkpt lat="47.29731" lon="6.05396">
        <ele>343.33</ele>
        <time>2018-09-22T11:55:21Z</time>
      </trkpt>
      <trkpt lat="47.29729" lon="6.054">
        <ele>343.33</ele>
        <time>2018-09-22T11:55:22Z</time>
      </trkpt>
      <trkpt lat="47.29727" lon="6.05404">
        <ele>343.33</ele>
        <time>2018-09-22T11:55:23Z</time>
      </trkpt>
      <trkpt lat="47.29725" lon="6.05407">
        <ele>343.33</ele>
        <time>2018-09-22T11:55:24Z</time>
      </trkpt>
      <trkpt lat="47.29723" lon="6.05409">
        <ele>342.85</ele>
        <time>2018-09-22T11:55:25Z</time>
      </trkpt>
      <trkpt lat="47.29722" lon="6.05414">
        <ele>342.85</ele>
        <time>2018-09-22T11:55:26Z</time>
      </trkpt>
      <trkpt lat="47.29721" lon="6.0542">
        <ele>342.85</ele>
        <time>2018-09-22T11:55:27Z</time>
      </trkpt>
      <trkpt lat="47.29721" lon="6.05426">
        <ele>342.85</ele>
        <time>2018-09-22T11:55:28Z</time>
      </trkpt>
      <trkpt lat="47.2972" lon="6.05433">
        <ele>343.33</ele>
        <time>2018-09-22T11:55:29Z</time>
      </trkpt>
      <trkpt lat="47.2972" lon="6.05439">
        <ele>343.81</ele>
        <time>2018-09-22T11:55:30Z</time>
      </trkpt>
      <trkpt lat="47.2972" lon="6.05445">
        <ele>343.81</ele>
        <time>2018-09-22T11:55:31Z</time>
      </trkpt>
      <trkpt lat="47.29721" lon="6.05451">
        <ele>343.81</ele>
        <time>2018-09-22T11:55:32Z</time>
      </trkpt>
      <trkpt lat="47.29722" lon="6.05457">
        <ele>344.29</ele>
        <time>2018-09-22T11:55:33Z</time>
      </trkpt>
      <trkpt lat="47.29723" lon="6.05462">
        <ele>344.29</ele>
        <time>2018-09-22T11:55:34Z</time>
      </trkpt>
      <trkpt lat="47.29724" lon="6.05466">
        <ele>344.77</ele>
        <time>2018-09-22T11:55:35Z</time>
      </trkpt>
      <trkpt lat="47.29725" lon="6.0547">
        <ele>345.25</ele>
        <time>2018-09-22T11:55:36Z</time>
      </trkpt>
      <trkpt lat="47.29726" lon="6.05474">
        <ele>345.25</ele>
        <time>2018-09-22T11:55:37Z</time>
      </trkpt>
      <trkpt lat="47.29726" lon="6.05478">
        <ele>345.73</ele>
        <time>2018-09-22T11:55:38Z</time>
      </trkpt>
      <trkpt lat="47.29727" lon="6.05483">
        <ele>345.25</ele>
        <time>2018-09-22T11:55:39Z</time>
      </trkpt>
      <trkpt lat="47.29738" lon="6.05527">
        <ele>347.65</ele>
        <time>2018-09-22T11:55:50Z</time>
      </trkpt>
      <trkpt lat="47.29746" lon="6.05567">
        <ele>349.58</ele>
        <time>2018-09-22T11:56:00Z</time>
      </trkpt>
      <trkpt lat="47.29747" lon="6.05576">
        <ele>350.06</ele>
        <time>2018-09-22T11:56:02Z</time>
      </trkpt>
      <trkpt lat="47.29747" lon="6.0558">
        <ele>350.54</ele>
        <time>2018-09-22T11:56:03Z</time>
      </trkpt>
      <trkpt lat="47.29747" lon="6.05584">
        <ele>350.54</ele>
        <time>2018-09-22T11:56:04Z</time>
      </trkpt>
      <trkpt lat="47.29748" lon="6.05588">
        <ele>351.02</ele>
        <time>2018-09-22T11:56:05Z</time>
      </trkpt>
      <trkpt lat="47.29749" lon="6.05591">
        <ele>351.02</ele>
        <time>2018-09-22T11:56:06Z</time>
      </trkpt>
      <trkpt lat="47.29749" lon="6.05595">
        <ele>351.5</ele>
        <time>2018-09-22T11:56:07Z</time>
      </trkpt>
      <trkpt lat="47.29759" lon="6.05637">
        <ele>353.9</ele>
        <time>2018-09-22T11:56:18Z</time>
      </trkpt>
      <trkpt lat="47.29761" lon="6.05644">
        <ele>353.9</ele>
        <time>2018-09-22T11:56:20Z</time>
      </trkpt>
      <trkpt lat="47.29761" lon="6.05648">
        <ele>354.38</ele>
        <time>2018-09-22T11:56:21Z</time>
      </trkpt>
      <trkpt lat="47.29776" lon="6.05688">
        <ele>356.31</ele>
        <time>2018-09-22T11:56:32Z</time>
      </trkpt>
      <trkpt lat="47.29783" lon="6.05717">
        <ele>356.79</ele>
        <time>2018-09-22T11:56:39Z</time>
      </trkpt>
      <trkpt lat="47.29786" lon="6.0572">
        <ele>356.79</ele>
        <time>2018-09-22T11:56:40Z</time>
      </trkpt>
      <trkpt lat="47.29788" lon="6.05723">
        <ele>357.27</ele>
        <time>2018-09-22T11:56:41Z</time>
      </trkpt>
      <trkpt lat="47.29814" lon="6.05753">
        <ele>359.19</ele>
        <time>2018-09-22T11:56:52Z</time>
      </trkpt>
      <trkpt lat="47.2983" lon="6.05776">
        <ele>360.63</ele>
        <time>2018-09-22T11:57:00Z</time>
      </trkpt>
      <trkpt lat="47.29832" lon="6.05779">
        <ele>360.63</ele>
        <time>2018-09-22T11:57:01Z</time>
      </trkpt>
      <trkpt lat="47.29834" lon="6.05781">
        <ele>361.11</ele>
        <time>2018-09-22T11:57:02Z</time>
      </trkpt>
      <trkpt lat="47.29836" lon="6.05783">
        <ele>361.11</ele>
        <time>2018-09-22T11:57:03Z</time>
      </trkpt>
      <trkpt lat="47.29837" lon="6.05785">
        <ele>361.11</ele>
        <time>2018-09-22T11:57:04Z</time>
      </trkpt>
      <trkpt lat="47.29839" lon="6.05787">
        <ele>361.11</ele>
        <time>2018-09-22T11:57:05Z</time>
      </trkpt>
      <trkpt lat="47.29859" lon="6.05809">
        <ele>363.04</ele>
        <time>2018-09-22T11:57:12Z</time>
      </trkpt>
      <trkpt lat="47.29862" lon="6.05812">
        <ele>363.04</ele>
        <time>2018-09-22T11:57:13Z</time>
      </trkpt>
      <trkpt lat="47.29864" lon="6.05815">
        <ele>363.04</ele>
        <time>2018-09-22T11:57:14Z</time>
      </trkpt>
      <trkpt lat="47.29898" lon="6.05856">
        <ele>364.48</ele>
        <time>2018-09-22T11:57:27Z</time>
      </trkpt>
      <trkpt lat="47.29914" lon="6.05876">
        <ele>365.44</ele>
        <time>2018-09-22T11:57:33Z</time>
      </trkpt>
      <trkpt lat="47.29916" lon="6.05879">
        <ele>365.44</ele>
        <time>2018-09-22T11:57:34Z</time>
      </trkpt>
      <trkpt lat="47.29946" lon="6.05916">
        <ele>365.92</ele>
        <time>2018-09-22T11:57:45Z</time>
      </trkpt>
      <trkpt lat="47.29976" lon="6.05955">
        <ele>365.44</ele>
        <time>2018-09-22T11:57:55Z</time>
      </trkpt>
      <trkpt lat="47.29979" lon="6.05959">
        <ele>365.44</ele>
        <time>2018-09-22T11:57:56Z</time>
      </trkpt>
      <trkpt lat="47.29983" lon="6.05964">
        <ele>364.96</ele>
        <time>2018-09-22T11:57:57Z</time>
      </trkpt>
      <trkpt lat="47.29986" lon="6.05968">
        <ele>364.96</ele>
        <time>2018-09-22T11:57:58Z</time>
      </trkpt>
      <trkpt lat="47.2999" lon="6.05973">
        <ele>364.96</ele>
        <time>2018-09-22T11:57:59Z</time>
      </trkpt>
      <trkpt lat="47.29993" lon="6.05977">
        <ele>364.96</ele>
        <time>2018-09-22T11:58:00Z</time>
      </trkpt>
      <trkpt lat="47.3001" lon="6.05998">
        <ele>364.48</ele>
        <time>2018-09-22T11:58:05Z</time>
      </trkpt>
      <trkpt lat="47.30018" lon="6.06007">
        <ele>363.52</ele>
        <time>2018-09-22T11:58:07Z</time>
      </trkpt>
      <trkpt lat="47.30023" lon="6.06012">
        <ele>363.52</ele>
        <time>2018-09-22T11:58:08Z</time>
      </trkpt>
      <trkpt lat="47.30027" lon="6.06018">
        <ele>363.04</ele>
        <time>2018-09-22T11:58:09Z</time>
      </trkpt>
      <trkpt lat="47.30043" lon="6.06036">
        <ele>362.07</ele>
        <time>2018-09-22T11:58:13Z</time>
      </trkpt>
      <trkpt lat="47.30046" lon="6.0604">
        <ele>362.07</ele>
        <time>2018-09-22T11:58:14Z</time>
      </trkpt>
      <trkpt lat="47.30047" lon="6.06044">
        <ele>362.07</ele>
        <time>2018-09-22T11:58:15Z</time>
      </trkpt>
      <trkpt lat="47.30046" lon="6.06046">
        <ele>361.59</ele>
        <time>2018-09-22T11:58:16Z</time>
      </trkpt>
      <trkpt lat="47.30043" lon="6.06049">
        <ele>361.11</ele>
        <time>2018-09-22T11:58:17Z</time>
      </trkpt>
      <trkpt lat="47.3004" lon="6.06052">
        <ele>360.15</ele>
        <time>2018-09-22T11:58:18Z</time>
      </trkpt>
      <trkpt lat="47.30035" lon="6.06056">
        <ele>359.19</ele>
        <time>2018-09-22T11:58:19Z</time>
      </trkpt>
      <trkpt lat="47.30023" lon="6.06069">
        <ele>357.27</ele>
        <time>2018-09-22T11:58:22Z</time>
      </trkpt>
      <trkpt lat="47.30019" lon="6.06073">
        <ele>356.79</ele>
        <time>2018-09-22T11:58:23Z</time>
      </trkpt>
      <trkpt lat="47.3001" lon="6.06082">
        <ele>355.34</ele>
        <time>2018-09-22T11:58:25Z</time>
      </trkpt>
      <trkpt lat="47.30006" lon="6.06085">
        <ele>354.86</ele>
        <time>2018-09-22T11:58:26Z</time>
      </trkpt>
      <trkpt lat="47.29986" lon="6.06109">
        <ele>352.94</ele>
        <time>2018-09-22T11:58:31Z</time>
      </trkpt>
      <trkpt lat="47.29966" lon="6.06138">
        <ele>351.02</ele>
        <time>2018-09-22T11:58:36Z</time>
      </trkpt>
      <trkpt lat="47.29959" lon="6.0615">
        <ele>350.54</ele>
        <time>2018-09-22T11:58:38Z</time>
      </trkpt>
      <trkpt lat="47.29955" lon="6.06155">
        <ele>350.54</ele>
        <time>2018-09-22T11:58:39Z</time>
      </trkpt>
      <trkpt lat="47.29946" lon="6.06166">
        <ele>350.54</ele>
        <time>2018-09-22T11:58:41Z</time>
      </trkpt>
      <trkpt lat="47.29941" lon="6.06172">
        <ele>350.54</ele>
        <time>2018-09-22T11:58:42Z</time>
      </trkpt>
      <trkpt lat="47.29937" lon="6.06177">
        <ele>350.06</ele>
        <time>2018-09-22T11:58:43Z</time>
      </trkpt>
      <trkpt lat="47.29925" lon="6.0619">
        <ele>349.1</ele>
        <time>2018-09-22T11:58:46Z</time>
      </trkpt>
      <trkpt lat="47.29919" lon="6.06193">
        <ele>348.62</ele>
        <time>2018-09-22T11:58:47Z</time>
      </trkpt>
      <trkpt lat="47.29913" lon="6.06195">
        <ele>347.17</ele>
        <time>2018-09-22T11:58:48Z</time>
      </trkpt>
      <trkpt lat="47.29907" lon="6.06196">
        <ele>346.69</ele>
        <time>2018-09-22T11:58:49Z</time>
      </trkpt>
      <trkpt lat="47.29902" lon="6.06198">
        <ele>346.21</ele>
        <time>2018-09-22T11:58:50Z</time>
      </trkpt>
      <trkpt lat="47.29896" lon="6.06201">
        <ele>345.25</ele>
        <time>2018-09-22T11:58:51Z</time>
      </trkpt>
      <trkpt lat="47.29884" lon="6.06211">
        <ele>344.77</ele>
        <time>2018-09-22T11:58:53Z</time>
      </trkpt>
      <trkpt lat="47.29865" lon="6.06244">
        <ele>347.17</ele>
        <time>2018-09-22T11:58:59Z</time>
      </trkpt>
      <trkpt lat="47.29863" lon="6.06249">
        <ele>347.65</ele>
        <time>2018-09-22T11:59:00Z</time>
      </trkpt>
      <trkpt lat="47.29862" lon="6.06252">
        <ele>348.13</ele>
        <time>2018-09-22T11:59:01Z</time>
      </trkpt>
      <trkpt lat="47.29862" lon="6.06255">
        <ele>348.62</ele>
        <time>2018-09-22T11:59:02Z</time>
      </trkpt>
      <trkpt lat="47.29862" lon="6.06258">
        <ele>348.13</ele>
        <time>2018-09-22T11:59:03Z</time>
      </trkpt>
      <trkpt lat="47.29863" lon="6.06261">
        <ele>348.13</ele>
        <time>2018-09-22T11:59:04Z</time>
      </trkpt>
      <trkpt lat="47.29862" lon="6.06265">
        <ele>348.62</ele>
        <time>2018-09-22T11:59:05Z</time>
      </trkpt>
      <trkpt lat="47.29861" lon="6.06268">
        <ele>349.1</ele>
        <time>2018-09-22T11:59:06Z</time>
      </trkpt>
      <trkpt lat="47.29859" lon="6.06271">
        <ele>349.1</ele>
        <time>2018-09-22T11:59:07Z</time>
      </trkpt>
      <trkpt lat="47.29855" lon="6.06277">
        <ele>350.06</ele>
        <time>2018-09-22T11:59:10Z</time>
      </trkpt>
      <trkpt lat="47.29854" lon="6.06279">
        <ele>350.06</ele>
        <time>2018-09-22T11:59:11Z</time>
      </trkpt>
      <trkpt lat="47.29848" lon="6.06292">
        <ele>351.02</ele>
        <time>2018-09-22T11:59:16Z</time>
      </trkpt>
      <trkpt lat="47.29847" lon="6.06294">
        <ele>351.5</ele>
        <time>2018-09-22T11:59:17Z</time>
      </trkpt>
      <trkpt lat="47.29828" lon="6.06321">
        <ele>352.94</ele>
        <time>2018-09-22T11:59:28Z</time>
      </trkpt>
      <trkpt lat="47.29802" lon="6.06352">
        <ele>353.9</ele>
        <time>2018-09-22T11:59:39Z</time>
      </trkpt>
      <trkpt lat="47.2977" lon="6.06394">
        <ele>353.42</ele>
        <time>2018-09-22T11:59:50Z</time>
      </trkpt>
      <trkpt lat="47.29739" lon="6.06437">
        <ele>354.38</ele>
        <time>2018-09-22T12:00:02Z</time>
      </trkpt>
      <trkpt lat="47.29712" lon="6.06471">
        <ele>354.86</ele>
        <time>2018-09-22T12:00:11Z</time>
      </trkpt>
      <trkpt lat="47.29686" lon="6.06503">
        <ele>354.38</ele>
        <time>2018-09-22T12:00:19Z</time>
      </trkpt>
      <trkpt lat="47.29682" lon="6.06507">
        <ele>353.9</ele>
        <time>2018-09-22T12:00:20Z</time>
      </trkpt>
      <trkpt lat="47.29677" lon="6.06512">
        <ele>353.42</ele>
        <time>2018-09-22T12:00:21Z</time>
      </trkpt>
      <trkpt lat="47.29672" lon="6.06519">
        <ele>351.5</ele>
        <time>2018-09-22T12:00:22Z</time>
      </trkpt>
      <trkpt lat="47.29666" lon="6.06527">
        <ele>350.06</ele>
        <time>2018-09-22T12:00:23Z</time>
      </trkpt>
      <trkpt lat="47.2966" lon="6.06534">
        <ele>350.54</ele>
        <time>2018-09-22T12:00:24Z</time>
      </trkpt>
      <trkpt lat="47.29655" lon="6.06539">
        <ele>352.94</ele>
        <time>2018-09-22T12:00:25Z</time>
      </trkpt>
      <trkpt lat="47.29652" lon="6.06541">
        <ele>354.86</ele>
        <time>2018-09-22T12:00:26Z</time>
      </trkpt>
      <trkpt lat="47.29649" lon="6.06544">
        <ele>355.34</ele>
        <time>2018-09-22T12:00:27Z</time>
      </trkpt>
      <trkpt lat="47.29647" lon="6.06547">
        <ele>355.34</ele>
        <time>2018-09-22T12:00:28Z</time>
      </trkpt>
      <trkpt lat="47.29645" lon="6.0655">
        <ele>355.34</ele>
        <time>2018-09-22T12:00:29Z</time>
      </trkpt>
      <trkpt lat="47.29643" lon="6.06553">
        <ele>355.83</ele>
        <time>2018-09-22T12:00:30Z</time>
      </trkpt>
      <trkpt lat="47.2964" lon="6.06557">
        <ele>355.83</ele>
        <time>2018-09-22T12:00:31Z</time>
      </trkpt>
      <trkpt lat="47.29638" lon="6.0656">
        <ele>355.34</ele>
        <time>2018-09-22T12:00:32Z</time>
      </trkpt>
      <trkpt lat="47.29605" lon="6.06602">
        <ele>353.42</ele>
        <time>2018-09-22T12:00:42Z</time>
      </trkpt>
      <trkpt lat="47.29583" lon="6.0663">
        <ele>352.94</ele>
        <time>2018-09-22T12:00:50Z</time>
      </trkpt>
      <trkpt lat="47.29581" lon="6.06631">
        <ele>352.94</ele>
        <time>2018-09-22T12:00:51Z</time>
      </trkpt>
      <trkpt lat="47.29579" lon="6.06634">
        <ele>352.46</ele>
        <time>2018-09-22T12:00:52Z</time>
      </trkpt>
      <trkpt lat="47.29578" lon="6.06635">
        <ele>351.02</ele>
        <time>2018-09-22T12:00:53Z</time>
      </trkpt>
      <trkpt lat="47.29575" lon="6.06638">
        <ele>351.02</ele>
        <time>2018-09-22T12:00:54Z</time>
      </trkpt>
      <trkpt lat="47.29573" lon="6.06641">
        <ele>349.58</ele>
        <time>2018-09-22T12:00:55Z</time>
      </trkpt>
      <trkpt lat="47.29572" lon="6.06643">
        <ele>348.62</ele>
        <time>2018-09-22T12:00:56Z</time>
      </trkpt>
      <trkpt lat="47.29571" lon="6.06646">
        <ele>347.65</ele>
        <time>2018-09-22T12:00:57Z</time>
      </trkpt>
      <trkpt lat="47.29568" lon="6.06649">
        <ele>346.21</ele>
        <time>2018-09-22T12:00:58Z</time>
      </trkpt>
      <trkpt lat="47.29565" lon="6.06654">
        <ele>345.25</ele>
        <time>2018-09-22T12:00:59Z</time>
      </trkpt>
      <trkpt lat="47.2956" lon="6.0666">
        <ele>345.25</ele>
        <time>2018-09-22T12:01:00Z</time>
      </trkpt>
      <trkpt lat="47.29549" lon="6.06674">
        <ele>348.62</ele>
        <time>2018-09-22T12:01:06Z</time>
      </trkpt>
      <trkpt lat="47.2954" lon="6.06685">
        <ele>350.06</ele>
        <time>2018-09-22T12:01:20Z</time>
      </trkpt>
      <trkpt lat="47.29535" lon="6.06694">
        <ele>351.02</ele>
        <time>2018-09-22T12:01:28Z</time>
      </trkpt>
      <trkpt lat="47.29528" lon="6.06703">
        <ele>351.98</ele>
        <time>2018-09-22T12:01:38Z</time>
      </trkpt>
      <trkpt lat="47.29525" lon="6.06707">
        <ele>351.5</ele>
        <time>2018-09-22T12:01:40Z</time>
      </trkpt>
      <trkpt lat="47.29514" lon="6.06717">
        <ele>347.17</ele>
        <time>2018-09-22T12:01:45Z</time>
      </trkpt>
      <trkpt lat="47.29507" lon="6.06725">
        <ele>343.33</ele>
        <time>2018-09-22T12:01:47Z</time>
      </trkpt>
      <trkpt lat="47.29498" lon="6.06739">
        <ele>340.44</ele>
        <time>2018-09-22T12:01:49Z</time>
      </trkpt>
      <trkpt lat="47.29486" lon="6.06752">
        <ele>339.48</ele>
        <time>2018-09-22T12:01:51Z</time>
      </trkpt>
      <trkpt lat="47.29477" lon="6.06762">
        <ele>342.85</ele>
        <time>2018-09-22T12:01:54Z</time>
      </trkpt>
      <trkpt lat="47.29476" lon="6.06763">
        <ele>342.85</ele>
        <time>2018-09-22T12:01:55Z</time>
      </trkpt>
      <trkpt lat="47.29471" lon="6.06774">
        <ele>343.81</ele>
        <time>2018-09-22T12:02:05Z</time>
      </trkpt>
      <trkpt lat="47.29462" lon="6.06786">
        <ele>345.25</ele>
        <time>2018-09-22T12:02:14Z</time>
      </trkpt>
      <trkpt lat="47.2945" lon="6.06798">
        <ele>345.25</ele>
        <time>2018-09-22T12:02:24Z</time>
      </trkpt>
      <trkpt lat="47.29437" lon="6.06814">
        <ele>344.29</ele>
        <time>2018-09-22T12:02:37Z</time>
      </trkpt>
      <trkpt lat="47.29436" lon="6.06814">
        <ele>344.29</ele>
        <time>2018-09-22T12:02:38Z</time>
      </trkpt>
      <trkpt lat="47.29435" lon="6.06817">
        <ele>344.29</ele>
        <time>2018-09-22T12:02:40Z</time>
      </trkpt>
      <trkpt lat="47.29434" lon="6.06819">
        <ele>344.29</ele>
        <time>2018-09-22T12:02:41Z</time>
      </trkpt>
      <trkpt lat="47.29433" lon="6.0682">
        <ele>344.29</ele>
        <time>2018-09-22T12:02:42Z</time>
      </trkpt>
      <trkpt lat="47.29431" lon="6.06822">
        <ele>343.81</ele>
        <time>2018-09-22T12:02:43Z</time>
      </trkpt>
      <trkpt lat="47.29429" lon="6.06825">
        <ele>343.81</ele>
        <time>2018-09-22T12:02:44Z</time>
      </trkpt>
      <trkpt lat="47.29427" lon="6.06828">
        <ele>343.33</ele>
        <time>2018-09-22T12:02:45Z</time>
      </trkpt>
      <trkpt lat="47.29426" lon="6.0683">
        <ele>343.33</ele>
        <time>2018-09-22T12:02:46Z</time>
      </trkpt>
      <trkpt lat="47.29423" lon="6.06834">
        <ele>342.85</ele>
        <time>2018-09-22T12:02:47Z</time>
      </trkpt>
      <trkpt lat="47.294" lon="6.06865">
        <ele>339.96</ele>
        <time>2018-09-22T12:02:54Z</time>
      </trkpt>
      <trkpt lat="47.2939" lon="6.06878">
        <ele>339</ele>
        <time>2018-09-22T12:02:56Z</time>
      </trkpt>
      <trkpt lat="47.29374" lon="6.06898">
        <ele>335.64</ele>
        <time>2018-09-22T12:02:59Z</time>
      </trkpt>
      <trkpt lat="47.29362" lon="6.06912">
        <ele>333.71</ele>
        <time>2018-09-22T12:03:01Z</time>
      </trkpt>
      <trkpt lat="47.29338" lon="6.06944">
        <ele>329.39</ele>
        <time>2018-09-22T12:03:05Z</time>
      </trkpt>
      <trkpt lat="47.29324" lon="6.06962">
        <ele>325.06</ele>
        <time>2018-09-22T12:03:07Z</time>
      </trkpt>
      <trkpt lat="47.29317" lon="6.0697">
        <ele>325.54</ele>
        <time>2018-09-22T12:03:08Z</time>
      </trkpt>
      <trkpt lat="47.29304" lon="6.06984">
        <ele>329.39</ele>
        <time>2018-09-22T12:03:10Z</time>
      </trkpt>
      <trkpt lat="47.2929" lon="6.06999">
        <ele>332.27</ele>
        <time>2018-09-22T12:03:14Z</time>
      </trkpt>
      <trkpt lat="47.29288" lon="6.07">
        <ele>332.75</ele>
        <time>2018-09-22T12:03:15Z</time>
      </trkpt>
      <trkpt lat="47.29284" lon="6.07003">
        <ele>332.75</ele>
        <time>2018-09-22T12:03:17Z</time>
      </trkpt>
      <trkpt lat="47.29282" lon="6.07007">
        <ele>332.75</ele>
        <time>2018-09-22T12:03:18Z</time>
      </trkpt>
      <trkpt lat="47.2928" lon="6.0701">
        <ele>332.27</ele>
        <time>2018-09-22T12:03:19Z</time>
      </trkpt>
      <trkpt lat="47.29278" lon="6.07014">
        <ele>332.27</ele>
        <time>2018-09-22T12:03:20Z</time>
      </trkpt>
      <trkpt lat="47.29277" lon="6.07016">
        <ele>332.75</ele>
        <time>2018-09-22T12:03:21Z</time>
      </trkpt>
      <trkpt lat="47.2926" lon="6.0704">
        <ele>335.16</ele>
        <time>2018-09-22T12:03:33Z</time>
      </trkpt>
      <trkpt lat="47.2924" lon="6.07067">
        <ele>337.56</ele>
        <time>2018-09-22T12:03:47Z</time>
      </trkpt>
      <trkpt lat="47.29222" lon="6.07086">
        <ele>339.96</ele>
        <time>2018-09-22T12:03:58Z</time>
      </trkpt>
      <trkpt lat="47.29203" lon="6.07111">
        <ele>342.85</ele>
        <time>2018-09-22T12:04:10Z</time>
      </trkpt>
      <trkpt lat="47.29196" lon="6.07118">
        <ele>343.81</ele>
        <time>2018-09-22T12:04:14Z</time>
      </trkpt>
      <trkpt lat="47.29194" lon="6.0712">
        <ele>343.81</ele>
        <time>2018-09-22T12:04:15Z</time>
      </trkpt>
      <trkpt lat="47.29193" lon="6.07122">
        <ele>343.81</ele>
        <time>2018-09-22T12:04:16Z</time>
      </trkpt>
      <trkpt lat="47.29192" lon="6.07124">
        <ele>344.29</ele>
        <time>2018-09-22T12:04:17Z</time>
      </trkpt>
      <trkpt lat="47.29191" lon="6.07127">
        <ele>344.29</ele>
        <time>2018-09-22T12:04:18Z</time>
      </trkpt>
      <trkpt lat="47.29175" lon="6.07147">
        <ele>346.69</ele>
        <time>2018-09-22T12:04:30Z</time>
      </trkpt>
      <trkpt lat="47.29165" lon="6.07165">
        <ele>349.1</ele>
        <time>2018-09-22T12:04:37Z</time>
      </trkpt>
      <trkpt lat="47.29164" lon="6.07167">
        <ele>349.58</ele>
        <time>2018-09-22T12:04:38Z</time>
      </trkpt>
      <trkpt lat="47.29163" lon="6.0717">
        <ele>349.58</ele>
        <time>2018-09-22T12:04:39Z</time>
      </trkpt>
      <trkpt lat="47.29159" lon="6.07189">
        <ele>351.02</ele>
        <time>2018-09-22T12:04:46Z</time>
      </trkpt>
      <trkpt lat="47.29157" lon="6.07191">
        <ele>351.5</ele>
        <time>2018-09-22T12:04:47Z</time>
      </trkpt>
      <trkpt lat="47.29156" lon="6.07193">
        <ele>351.5</ele>
        <time>2018-09-22T12:04:48Z</time>
      </trkpt>
      <trkpt lat="47.29148" lon="6.07209">
        <ele>352.94</ele>
        <time>2018-09-22T12:04:55Z</time>
      </trkpt>
      <trkpt lat="47.29147" lon="6.07211">
        <ele>353.42</ele>
        <time>2018-09-22T12:04:56Z</time>
      </trkpt>
      <trkpt lat="47.29131" lon="6.07241">
        <ele>356.31</ele>
        <time>2018-09-22T12:05:08Z</time>
      </trkpt>
      <trkpt lat="47.29115" lon="6.07273">
        <ele>358.23</ele>
        <time>2018-09-22T12:05:20Z</time>
      </trkpt>
      <trkpt lat="47.29102" lon="6.07294">
        <ele>360.15</ele>
        <time>2018-09-22T12:05:29Z</time>
      </trkpt>
      <trkpt lat="47.29082" lon="6.07335">
        <ele>362.07</ele>
        <time>2018-09-22T12:05:41Z</time>
      </trkpt>
      <trkpt lat="47.29056" lon="6.0738">
        <ele>363.04</ele>
        <time>2018-09-22T12:05:54Z</time>
      </trkpt>
      <trkpt lat="47.29038" lon="6.07398">
        <ele>362.07</ele>
        <time>2018-09-22T12:06:00Z</time>
      </trkpt>
      <trkpt lat="47.29031" lon="6.07403">
        <ele>361.59</ele>
        <time>2018-09-22T12:06:02Z</time>
      </trkpt>
      <trkpt lat="47.29027" lon="6.07407">
        <ele>361.59</ele>
        <time>2018-09-22T12:06:03Z</time>
      </trkpt>
      <trkpt lat="47.29023" lon="6.07413">
        <ele>361.11</ele>
        <time>2018-09-22T12:06:04Z</time>
      </trkpt>
      <trkpt lat="47.2902" lon="6.07418">
        <ele>361.11</ele>
        <time>2018-09-22T12:06:05Z</time>
      </trkpt>
      <trkpt lat="47.29019" lon="6.07424">
        <ele>361.11</ele>
        <time>2018-09-22T12:06:06Z</time>
      </trkpt>
      <trkpt lat="47.29018" lon="6.0743">
        <ele>361.59</ele>
        <time>2018-09-22T12:06:07Z</time>
      </trkpt>
      <trkpt lat="47.29003" lon="6.07477">
        <ele>364.48</ele>
        <time>2018-09-22T12:06:19Z</time>
      </trkpt>
      <trkpt lat="47.28985" lon="6.07515">
        <ele>365.44</ele>
        <time>2018-09-22T12:06:29Z</time>
      </trkpt>
      <trkpt lat="47.28975" lon="6.07533">
        <ele>364.96</ele>
        <time>2018-09-22T12:06:33Z</time>
      </trkpt>
      <trkpt lat="47.28971" lon="6.07538">
        <ele>364.48</ele>
        <time>2018-09-22T12:06:34Z</time>
      </trkpt>
      <trkpt lat="47.28964" lon="6.07549">
        <ele>363.52</ele>
        <time>2018-09-22T12:06:36Z</time>
      </trkpt>
      <trkpt lat="47.28953" lon="6.07575">
        <ele>365.92</ele>
        <time>2018-09-22T12:06:42Z</time>
      </trkpt>
      <trkpt lat="47.28938" lon="6.07604">
        <ele>367.36</ele>
        <time>2018-09-22T12:06:51Z</time>
      </trkpt>
      <trkpt lat="47.28938" lon="6.07606">
        <ele>367.36</ele>
        <time>2018-09-22T12:06:52Z</time>
      </trkpt>
      <trkpt lat="47.28912" lon="6.07648">
        <ele>367.36</ele>
        <time>2018-09-22T12:07:02Z</time>
      </trkpt>
      <trkpt lat="47.28903" lon="6.07672">
        <ele>366.88</ele>
        <time>2018-09-22T12:07:06Z</time>
      </trkpt>
      <trkpt lat="47.28901" lon="6.0768">
        <ele>366.4</ele>
        <time>2018-09-22T12:07:07Z</time>
      </trkpt>
      <trkpt lat="47.28899" lon="6.07687">
        <ele>366.4</ele>
        <time>2018-09-22T12:07:08Z</time>
      </trkpt>
      <trkpt lat="47.28893" lon="6.07699">
        <ele>365.92</ele>
        <time>2018-09-22T12:07:10Z</time>
      </trkpt>
      <trkpt lat="47.28887" lon="6.07708">
        <ele>365.92</ele>
        <time>2018-09-22T12:07:12Z</time>
      </trkpt>
      <trkpt lat="47.28884" lon="6.07713">
        <ele>364.96</ele>
        <time>2018-09-22T12:07:13Z</time>
      </trkpt>
      <trkpt lat="47.28882" lon="6.07718">
        <ele>364.96</ele>
        <time>2018-09-22T12:07:14Z</time>
      </trkpt>
      <trkpt lat="47.28876" lon="6.07731">
        <ele>364.48</ele>
        <time>2018-09-22T12:07:16Z</time>
      </trkpt>
      <trkpt lat="47.28859" lon="6.07759">
        <ele>362.55</ele>
        <time>2018-09-22T12:07:20Z</time>
      </trkpt>
      <trkpt lat="47.28835" lon="6.07804">
        <ele>358.71</ele>
        <time>2018-09-22T12:07:25Z</time>
      </trkpt>
      <trkpt lat="47.28828" lon="6.07819">
        <ele>357.75</ele>
        <time>2018-09-22T12:07:27Z</time>
      </trkpt>
      <trkpt lat="47.28826" lon="6.07826">
        <ele>357.75</ele>
        <time>2018-09-22T12:07:28Z</time>
      </trkpt>
      <trkpt lat="47.28826" lon="6.07832">
        <ele>357.27</ele>
        <time>2018-09-22T12:07:29Z</time>
      </trkpt>
      <trkpt lat="47.28827" lon="6.07837">
        <ele>357.27</ele>
        <time>2018-09-22T12:07:30Z</time>
      </trkpt>
      <trkpt lat="47.28829" lon="6.07842">
        <ele>357.27</ele>
        <time>2018-09-22T12:07:31Z</time>
      </trkpt>
      <trkpt lat="47.2884" lon="6.07893">
        <ele>357.75</ele>
        <time>2018-09-22T12:07:41Z</time>
      </trkpt>
      <trkpt lat="47.28865" lon="6.0792">
        <ele>360.15</ele>
        <time>2018-09-22T12:07:50Z</time>
      </trkpt>
      <trkpt lat="47.28889" lon="6.0795">
        <ele>361.59</ele>
        <time>2018-09-22T12:07:59Z</time>
      </trkpt>
      <trkpt lat="47.28889" lon="6.07955">
        <ele>361.11</ele>
        <time>2018-09-22T12:08:00Z</time>
      </trkpt>
      <trkpt lat="47.28888" lon="6.07959">
        <ele>361.11</ele>
        <time>2018-09-22T12:08:01Z</time>
      </trkpt>
      <trkpt lat="47.28886" lon="6.07963">
        <ele>360.15</ele>
        <time>2018-09-22T12:08:02Z</time>
      </trkpt>
      <trkpt lat="47.28883" lon="6.07967">
        <ele>359.67</ele>
        <time>2018-09-22T12:08:03Z</time>
      </trkpt>
      <trkpt lat="47.28879" lon="6.07972">
        <ele>359.19</ele>
        <time>2018-09-22T12:08:04Z</time>
      </trkpt>
      <trkpt lat="47.28877" lon="6.07976">
        <ele>358.71</ele>
        <time>2018-09-22T12:08:05Z</time>
      </trkpt>
      <trkpt lat="47.28881" lon="6.07992">
        <ele>358.23</ele>
        <time>2018-09-22T12:08:09Z</time>
      </trkpt>
      <trkpt lat="47.28885" lon="6.07996">
        <ele>357.75</ele>
        <time>2018-09-22T12:08:10Z</time>
      </trkpt>
      <trkpt lat="47.2889" lon="6.08001">
        <ele>357.27</ele>
        <time>2018-09-22T12:08:11Z</time>
      </trkpt>
      <trkpt lat="47.28894" lon="6.08006">
        <ele>356.79</ele>
        <time>2018-09-22T12:08:12Z</time>
      </trkpt>
      <trkpt lat="47.28897" lon="6.0801">
        <ele>357.27</ele>
        <time>2018-09-22T12:08:13Z</time>
      </trkpt>
      <trkpt lat="47.28901" lon="6.08015">
        <ele>357.27</ele>
        <time>2018-09-22T12:08:14Z</time>
      </trkpt>
      <trkpt lat="47.28919" lon="6.08057">
        <ele>358.71</ele>
        <time>2018-09-22T12:08:22Z</time>
      </trkpt>
      <trkpt lat="47.28921" lon="6.08063">
        <ele>359.19</ele>
        <time>2018-09-22T12:08:23Z</time>
      </trkpt>
      <trkpt lat="47.28922" lon="6.08068">
        <ele>359.19</ele>
        <time>2018-09-22T12:08:24Z</time>
      </trkpt>
      <trkpt lat="47.28923" lon="6.08074">
        <ele>359.19</ele>
        <time>2018-09-22T12:08:25Z</time>
      </trkpt>
      <trkpt lat="47.28925" lon="6.08079">
        <ele>359.67</ele>
        <time>2018-09-22T12:08:26Z</time>
      </trkpt>
      <trkpt lat="47.28927" lon="6.08083">
        <ele>359.67</ele>
        <time>2018-09-22T12:08:27Z</time>
      </trkpt>
      <trkpt lat="47.2893" lon="6.08087">
        <ele>359.67</ele>
        <time>2018-09-22T12:08:28Z</time>
      </trkpt>
      <trkpt lat="47.28932" lon="6.08091">
        <ele>360.15</ele>
        <time>2018-09-22T12:08:29Z</time>
      </trkpt>
      <trkpt lat="47.28934" lon="6.08094">
        <ele>360.63</ele>
        <time>2018-09-22T12:08:30Z</time>
      </trkpt>
      <trkpt lat="47.28936" lon="6.08098">
        <ele>360.63</ele>
        <time>2018-09-22T12:08:31Z</time>
      </trkpt>
      <trkpt lat="47.28938" lon="6.08102">
        <ele>360.63</ele>
        <time>2018-09-22T12:08:32Z</time>
      </trkpt>
      <trkpt lat="47.28939" lon="6.08107">
        <ele>361.11</ele>
        <time>2018-09-22T12:08:33Z</time>
      </trkpt>
      <trkpt lat="47.28962" lon="6.08164">
        <ele>361.59</ele>
        <time>2018-09-22T12:08:45Z</time>
      </trkpt>
      <trkpt lat="47.28983" lon="6.08207">
        <ele>362.07</ele>
        <time>2018-09-22T12:08:55Z</time>
      </trkpt>
      <trkpt lat="47.28986" lon="6.08211">
        <ele>362.07</ele>
        <time>2018-09-22T12:08:56Z</time>
      </trkpt>
      <trkpt lat="47.29006" lon="6.0825">
        <ele>362.55</ele>
        <time>2018-09-22T12:09:05Z</time>
      </trkpt>
      <trkpt lat="47.29008" lon="6.08254">
        <ele>362.55</ele>
        <time>2018-09-22T12:09:06Z</time>
      </trkpt>
      <trkpt lat="47.29011" lon="6.08258">
        <ele>362.55</ele>
        <time>2018-09-22T12:09:07Z</time>
      </trkpt>
      <trkpt lat="47.29017" lon="6.08269">
        <ele>362.55</ele>
        <time>2018-09-22T12:09:10Z</time>
      </trkpt>
      <trkpt lat="47.29034" lon="6.08299">
        <ele>361.59</ele>
        <time>2018-09-22T12:09:17Z</time>
      </trkpt>
      <trkpt lat="47.29037" lon="6.08304">
        <ele>361.59</ele>
        <time>2018-09-22T12:09:18Z</time>
      </trkpt>
      <trkpt lat="47.29042" lon="6.08307">
        <ele>361.59</ele>
        <time>2018-09-22T12:09:19Z</time>
      </trkpt>
      <trkpt lat="47.29046" lon="6.08309">
        <ele>361.59</ele>
        <time>2018-09-22T12:09:20Z</time>
      </trkpt>
      <trkpt lat="47.2905" lon="6.08312">
        <ele>361.11</ele>
        <time>2018-09-22T12:09:21Z</time>
      </trkpt>
      <trkpt lat="47.29054" lon="6.08316">
        <ele>361.11</ele>
        <time>2018-09-22T12:09:22Z</time>
      </trkpt>
      <trkpt lat="47.29057" lon="6.08321">
        <ele>361.11</ele>
        <time>2018-09-22T12:09:23Z</time>
      </trkpt>
      <trkpt lat="47.29059" lon="6.08326">
        <ele>361.11</ele>
        <time>2018-09-22T12:09:24Z</time>
      </trkpt>
      <trkpt lat="47.29061" lon="6.08332">
        <ele>360.63</ele>
        <time>2018-09-22T12:09:25Z</time>
      </trkpt>
      <trkpt lat="47.29062" lon="6.08338">
        <ele>360.15</ele>
        <time>2018-09-22T12:09:26Z</time>
      </trkpt>
      <trkpt lat="47.29064" lon="6.08345">
        <ele>359.67</ele>
        <time>2018-09-22T12:09:27Z</time>
      </trkpt>
      <trkpt lat="47.29068" lon="6.08358">
        <ele>358.71</ele>
        <time>2018-09-22T12:09:29Z</time>
      </trkpt>
      <trkpt lat="47.2907" lon="6.08364">
        <ele>358.23</ele>
        <time>2018-09-22T12:09:30Z</time>
      </trkpt>
      <trkpt lat="47.2907" lon="6.0837">
        <ele>358.23</ele>
        <time>2018-09-22T12:09:31Z</time>
      </trkpt>
      <trkpt lat="47.2907" lon="6.08377">
        <ele>357.75</ele>
        <time>2018-09-22T12:09:32Z</time>
      </trkpt>
      <trkpt lat="47.29068" lon="6.08384">
        <ele>356.31</ele>
        <time>2018-09-22T12:09:33Z</time>
      </trkpt>
      <trkpt lat="47.29062" lon="6.08403">
        <ele>354.38</ele>
        <time>2018-09-22T12:09:36Z</time>
      </trkpt>
      <trkpt lat="47.29055" lon="6.08412">
        <ele>351.5</ele>
        <time>2018-09-22T12:09:38Z</time>
      </trkpt>
      <trkpt lat="47.29051" lon="6.08414">
        <ele>350.54</ele>
        <time>2018-09-22T12:09:39Z</time>
      </trkpt>
      <trkpt lat="47.29046" lon="6.08414">
        <ele>349.58</ele>
        <time>2018-09-22T12:09:40Z</time>
      </trkpt>
      <trkpt lat="47.29042" lon="6.08412">
        <ele>349.1</ele>
        <time>2018-09-22T12:09:41Z</time>
      </trkpt>
      <trkpt lat="47.29038" lon="6.08408">
        <ele>348.62</ele>
        <time>2018-09-22T12:09:42Z</time>
      </trkpt>
      <trkpt lat="47.29035" lon="6.08404">
        <ele>348.13</ele>
        <time>2018-09-22T12:09:43Z</time>
      </trkpt>
      <trkpt lat="47.29032" lon="6.08399">
        <ele>348.13</ele>
        <time>2018-09-22T12:09:44Z</time>
      </trkpt>
      <trkpt lat="47.29029" lon="6.08393">
        <ele>347.65</ele>
        <time>2018-09-22T12:09:45Z</time>
      </trkpt>
      <trkpt lat="47.29025" lon="6.08389">
        <ele>347.17</ele>
        <time>2018-09-22T12:09:46Z</time>
      </trkpt>
      <trkpt lat="47.29021" lon="6.08385">
        <ele>347.17</ele>
        <time>2018-09-22T12:09:47Z</time>
      </trkpt>
      <trkpt lat="47.29016" lon="6.08382">
        <ele>346.69</ele>
        <time>2018-09-22T12:09:48Z</time>
      </trkpt>
      <trkpt lat="47.29001" lon="6.08369">
        <ele>343.81</ele>
        <time>2018-09-22T12:09:51Z</time>
      </trkpt>
      <trkpt lat="47.28983" lon="6.08362">
        <ele>340.44</ele>
        <time>2018-09-22T12:09:54Z</time>
      </trkpt>
      <trkpt lat="47.28972" lon="6.08357">
        <ele>338.04</ele>
        <time>2018-09-22T12:09:56Z</time>
      </trkpt>
      <trkpt lat="47.28955" lon="6.08353">
        <ele>333.71</ele>
        <time>2018-09-22T12:09:59Z</time>
      </trkpt>
      <trkpt lat="47.28949" lon="6.08353">
        <ele>332.75</ele>
        <time>2018-09-22T12:10:00Z</time>
      </trkpt>
      <trkpt lat="47.28944" lon="6.08353">
        <ele>330.35</ele>
        <time>2018-09-22T12:10:01Z</time>
      </trkpt>
      <trkpt lat="47.28939" lon="6.08355">
        <ele>328.91</ele>
        <time>2018-09-22T12:10:02Z</time>
      </trkpt>
      <trkpt lat="47.28933" lon="6.08358">
        <ele>327.95</ele>
        <time>2018-09-22T12:10:03Z</time>
      </trkpt>
      <trkpt lat="47.28927" lon="6.08359">
        <ele>326.5</ele>
        <time>2018-09-22T12:10:04Z</time>
      </trkpt>
      <trkpt lat="47.2892" lon="6.0836">
        <ele>325.54</ele>
        <time>2018-09-22T12:10:05Z</time>
      </trkpt>
      <trkpt lat="47.28913" lon="6.08361">
        <ele>324.1</ele>
        <time>2018-09-22T12:10:06Z</time>
      </trkpt>
      <trkpt lat="47.28906" lon="6.08362">
        <ele>323.14</ele>
        <time>2018-09-22T12:10:07Z</time>
      </trkpt>
      <trkpt lat="47.28899" lon="6.08364">
        <ele>321.7</ele>
        <time>2018-09-22T12:10:08Z</time>
      </trkpt>
      <trkpt lat="47.28893" lon="6.08364">
        <ele>321.7</ele>
        <time>2018-09-22T12:10:09Z</time>
      </trkpt>
      <trkpt lat="47.28887" lon="6.08363">
        <ele>320.74</ele>
        <time>2018-09-22T12:10:10Z</time>
      </trkpt>
      <trkpt lat="47.28883" lon="6.08359">
        <ele>319.78</ele>
        <time>2018-09-22T12:10:11Z</time>
      </trkpt>
      <trkpt lat="47.28879" lon="6.08355">
        <ele>319.78</ele>
        <time>2018-09-22T12:10:12Z</time>
      </trkpt>
      <trkpt lat="47.28874" lon="6.08352">
        <ele>318.33</ele>
        <time>2018-09-22T12:10:13Z</time>
      </trkpt>
      <trkpt lat="47.28868" lon="6.08349">
        <ele>317.37</ele>
        <time>2018-09-22T12:10:14Z</time>
      </trkpt>
      <trkpt lat="47.2886" lon="6.08349">
        <ele>316.89</ele>
        <time>2018-09-22T12:10:15Z</time>
      </trkpt>
      <trkpt lat="47.28851" lon="6.08351">
        <ele>316.41</ele>
        <time>2018-09-22T12:10:16Z</time>
      </trkpt>
      <trkpt lat="47.28824" lon="6.08358">
        <ele>313.53</ele>
        <time>2018-09-22T12:10:19Z</time>
      </trkpt>
      <trkpt lat="47.28817" lon="6.08359">
        <ele>312.57</ele>
        <time>2018-09-22T12:10:20Z</time>
      </trkpt>
      <trkpt lat="47.28809" lon="6.08359">
        <ele>312.09</ele>
        <time>2018-09-22T12:10:21Z</time>
      </trkpt>
      <trkpt lat="47.28795" lon="6.08358">
        <ele>310.64</ele>
        <time>2018-09-22T12:10:23Z</time>
      </trkpt>
      <trkpt lat="47.28789" lon="6.08356">
        <ele>309.68</ele>
        <time>2018-09-22T12:10:24Z</time>
      </trkpt>
      <trkpt lat="47.28782" lon="6.08354">
        <ele>308.72</ele>
        <time>2018-09-22T12:10:25Z</time>
      </trkpt>
      <trkpt lat="47.28775" lon="6.08349">
        <ele>307.76</ele>
        <time>2018-09-22T12:10:26Z</time>
      </trkpt>
      <trkpt lat="47.28766" lon="6.08344">
        <ele>307.28</ele>
        <time>2018-09-22T12:10:27Z</time>
      </trkpt>
      <trkpt lat="47.28727" lon="6.08322">
        <ele>304.39</ele>
        <time>2018-09-22T12:10:31Z</time>
      </trkpt>
      <trkpt lat="47.28697" lon="6.08302">
        <ele>301.03</ele>
        <time>2018-09-22T12:10:34Z</time>
      </trkpt>
      <trkpt lat="47.28655" lon="6.08273">
        <ele>298.15</ele>
        <time>2018-09-22T12:10:38Z</time>
      </trkpt>
      <trkpt lat="47.28612" lon="6.08247">
        <ele>294.3</ele>
        <time>2018-09-22T12:10:42Z</time>
      </trkpt>
      <trkpt lat="47.28575" lon="6.08213">
        <ele>290.46</ele>
        <time>2018-09-22T12:10:46Z</time>
      </trkpt>
      <trkpt lat="47.28552" lon="6.08183">
        <ele>287.09</ele>
        <time>2018-09-22T12:10:49Z</time>
      </trkpt>
      <trkpt lat="47.28547" lon="6.08176">
        <ele>286.61</ele>
        <time>2018-09-22T12:10:50Z</time>
      </trkpt>
      <trkpt lat="47.28543" lon="6.08168">
        <ele>286.61</ele>
        <time>2018-09-22T12:10:51Z</time>
      </trkpt>
      <trkpt lat="47.2853" lon="6.0814">
        <ele>283.25</ele>
        <time>2018-09-22T12:10:54Z</time>
      </trkpt>
      <trkpt lat="47.28524" lon="6.08131">
        <ele>282.28</ele>
        <time>2018-09-22T12:10:55Z</time>
      </trkpt>
      <trkpt lat="47.28517" lon="6.08123">
        <ele>281.8</ele>
        <time>2018-09-22T12:10:56Z</time>
      </trkpt>
      <trkpt lat="47.2851" lon="6.08117">
        <ele>280.84</ele>
        <time>2018-09-22T12:10:57Z</time>
      </trkpt>
      <trkpt lat="47.28502" lon="6.08111">
        <ele>280.36</ele>
        <time>2018-09-22T12:10:58Z</time>
      </trkpt>
      <trkpt lat="47.28494" lon="6.08108">
        <ele>279.88</ele>
        <time>2018-09-22T12:10:59Z</time>
      </trkpt>
      <trkpt lat="47.28485" lon="6.08107">
        <ele>279.4</ele>
        <time>2018-09-22T12:11:00Z</time>
      </trkpt>
      <trkpt lat="47.28478" lon="6.08107">
        <ele>279.4</ele>
        <time>2018-09-22T12:11:01Z</time>
      </trkpt>
      <trkpt lat="47.28464" lon="6.08108">
        <ele>278.92</ele>
        <time>2018-09-22T12:11:03Z</time>
      </trkpt>
      <trkpt lat="47.28459" lon="6.08112">
        <ele>278.92</ele>
        <time>2018-09-22T12:11:04Z</time>
      </trkpt>
      <trkpt lat="47.28454" lon="6.08119">
        <ele>278.92</ele>
        <time>2018-09-22T12:11:05Z</time>
      </trkpt>
      <trkpt lat="47.2845" lon="6.08127">
        <ele>279.4</ele>
        <time>2018-09-22T12:11:06Z</time>
      </trkpt>
      <trkpt lat="47.28447" lon="6.08134">
        <ele>279.4</ele>
        <time>2018-09-22T12:11:07Z</time>
      </trkpt>
      <trkpt lat="47.28445" lon="6.08141">
        <ele>279.88</ele>
        <time>2018-09-22T12:11:08Z</time>
      </trkpt>
      <trkpt lat="47.28442" lon="6.08147">
        <ele>280.36</ele>
        <time>2018-09-22T12:11:09Z</time>
      </trkpt>
      <trkpt lat="47.28425" lon="6.08189">
        <ele>282.28</ele>
        <time>2018-09-22T12:11:19Z</time>
      </trkpt>
      <trkpt lat="47.284" lon="6.08259">
        <ele>285.65</ele>
        <time>2018-09-22T12:11:35Z</time>
      </trkpt>
      <trkpt lat="47.28391" lon="6.08332">
        <ele>288.05</ele>
        <time>2018-09-22T12:11:51Z</time>
      </trkpt>
      <trkpt lat="47.28389" lon="6.08394">
        <ele>290.94</ele>
        <time>2018-09-22T12:12:06Z</time>
      </trkpt>
      <trkpt lat="47.28387" lon="6.08428">
        <ele>293.34</ele>
        <time>2018-09-22T12:12:18Z</time>
      </trkpt>
      <trkpt lat="47.28385" lon="6.08468">
        <ele>296.22</ele>
        <time>2018-09-22T12:12:31Z</time>
      </trkpt>
      <trkpt lat="47.28386" lon="6.08486">
        <ele>297.67</ele>
        <time>2018-09-22T12:12:37Z</time>
      </trkpt>
      <trkpt lat="47.28386" lon="6.08489">
        <ele>297.67</ele>
        <time>2018-09-22T12:12:38Z</time>
      </trkpt>
      <trkpt lat="47.28386" lon="6.08492">
        <ele>297.67</ele>
        <time>2018-09-22T12:12:39Z</time>
      </trkpt>
      <trkpt lat="47.28391" lon="6.08526">
        <ele>300.07</ele>
        <time>2018-09-22T12:12:51Z</time>
      </trkpt>
      <trkpt lat="47.284" lon="6.08559">
        <ele>302.47</ele>
        <time>2018-09-22T12:13:03Z</time>
      </trkpt>
      <trkpt lat="47.284" lon="6.08561">
        <ele>302.95</ele>
        <time>2018-09-22T12:13:04Z</time>
      </trkpt>
      <trkpt lat="47.28401" lon="6.08564">
        <ele>302.95</ele>
        <time>2018-09-22T12:13:05Z</time>
      </trkpt>
      <trkpt lat="47.28402" lon="6.08567">
        <ele>303.43</ele>
        <time>2018-09-22T12:13:06Z</time>
      </trkpt>
      <trkpt lat="47.28403" lon="6.08569">
        <ele>303.43</ele>
        <time>2018-09-22T12:13:07Z</time>
      </trkpt>
      <trkpt lat="47.28404" lon="6.08571">
        <ele>303.91</ele>
        <time>2018-09-22T12:13:08Z</time>
      </trkpt>
      <trkpt lat="47.28405" lon="6.08574">
        <ele>303.91</ele>
        <time>2018-09-22T12:13:09Z</time>
      </trkpt>
      <trkpt lat="47.28406" lon="6.08576">
        <ele>304.39</ele>
        <time>2018-09-22T12:13:10Z</time>
      </trkpt>
      <trkpt lat="47.28406" lon="6.08578">
        <ele>304.39</ele>
        <time>2018-09-22T12:13:11Z</time>
      </trkpt>
      <trkpt lat="47.28407" lon="6.08584">
        <ele>305.36</ele>
        <time>2018-09-22T12:13:13Z</time>
      </trkpt>
      <trkpt lat="47.28417" lon="6.08611">
        <ele>308.24</ele>
        <time>2018-09-22T12:13:23Z</time>
      </trkpt>
      <trkpt lat="47.2843" lon="6.08647">
        <ele>311.12</ele>
        <time>2018-09-22T12:13:36Z</time>
      </trkpt>
      <trkpt lat="47.28442" lon="6.08671">
        <ele>314.49</ele>
        <time>2018-09-22T12:13:45Z</time>
      </trkpt>
      <trkpt lat="47.28444" lon="6.08676">
        <ele>314.97</ele>
        <time>2018-09-22T12:13:47Z</time>
      </trkpt>
      <trkpt lat="47.28446" lon="6.08678">
        <ele>315.45</ele>
        <time>2018-09-22T12:13:48Z</time>
      </trkpt>
      <trkpt lat="47.28448" lon="6.08679">
        <ele>315.93</ele>
        <time>2018-09-22T12:13:49Z</time>
      </trkpt>
      <trkpt lat="47.28449" lon="6.08681">
        <ele>316.41</ele>
        <time>2018-09-22T12:13:50Z</time>
      </trkpt>
      <trkpt lat="47.28451" lon="6.08683">
        <ele>316.41</ele>
        <time>2018-09-22T12:13:51Z</time>
      </trkpt>
      <trkpt lat="47.28452" lon="6.08686">
        <ele>316.41</ele>
        <time>2018-09-22T12:13:52Z</time>
      </trkpt>
      <trkpt lat="47.28454" lon="6.08711">
        <ele>316.89</ele>
        <time>2018-09-22T12:13:59Z</time>
      </trkpt>
      <trkpt lat="47.28454" lon="6.08714">
        <ele>317.37</ele>
        <time>2018-09-22T12:14:00Z</time>
      </trkpt>
      <trkpt lat="47.28453" lon="6.08717">
        <ele>317.37</ele>
        <time>2018-09-22T12:14:01Z</time>
      </trkpt>
      <trkpt lat="47.28441" lon="6.08756">
        <ele>320.26</ele>
        <time>2018-09-22T12:14:13Z</time>
      </trkpt>
      <trkpt lat="47.28433" lon="6.08799">
        <ele>322.66</ele>
        <time>2018-09-22T12:14:25Z</time>
      </trkpt>
      <trkpt lat="47.28428" lon="6.08854">
        <ele>325.06</ele>
        <time>2018-09-22T12:14:38Z</time>
      </trkpt>
      <trkpt lat="47.28421" lon="6.08921">
        <ele>326.99</ele>
        <time>2018-09-22T12:14:52Z</time>
      </trkpt>
      <trkpt lat="47.28416" lon="6.08981">
        <ele>326.99</ele>
        <time>2018-09-22T12:15:02Z</time>
      </trkpt>
      <trkpt lat="47.28416" lon="6.08988">
        <ele>326.99</ele>
        <time>2018-09-22T12:15:03Z</time>
      </trkpt>
      <trkpt lat="47.28417" lon="6.08994">
        <ele>326.99</ele>
        <time>2018-09-22T12:15:04Z</time>
      </trkpt>
      <trkpt lat="47.28417" lon="6.09001">
        <ele>326.99</ele>
        <time>2018-09-22T12:15:05Z</time>
      </trkpt>
      <trkpt lat="47.28417" lon="6.09007">
        <ele>326.5</ele>
        <time>2018-09-22T12:15:06Z</time>
      </trkpt>
      <trkpt lat="47.28417" lon="6.09014">
        <ele>326.5</ele>
        <time>2018-09-22T12:15:07Z</time>
      </trkpt>
      <trkpt lat="47.28418" lon="6.0902">
        <ele>326.5</ele>
        <time>2018-09-22T12:15:08Z</time>
      </trkpt>
      <trkpt lat="47.28418" lon="6.09027">
        <ele>326.5</ele>
        <time>2018-09-22T12:15:09Z</time>
      </trkpt>
      <trkpt lat="47.28418" lon="6.09048">
        <ele>326.5</ele>
        <time>2018-09-22T12:15:12Z</time>
      </trkpt>
      <trkpt lat="47.28417" lon="6.09055">
        <ele>326.5</ele>
        <time>2018-09-22T12:15:13Z</time>
      </trkpt>
      <trkpt lat="47.28416" lon="6.09062">
        <ele>326.5</ele>
        <time>2018-09-22T12:15:14Z</time>
      </trkpt>
      <trkpt lat="47.28415" lon="6.09067">
        <ele>326.5</ele>
        <time>2018-09-22T12:15:15Z</time>
      </trkpt>
      <trkpt lat="47.28415" lon="6.09074">
        <ele>326.99</ele>
        <time>2018-09-22T12:15:16Z</time>
      </trkpt>
      <trkpt lat="47.28414" lon="6.0908">
        <ele>326.5</ele>
        <time>2018-09-22T12:15:17Z</time>
      </trkpt>
      <trkpt lat="47.28413" lon="6.09094">
        <ele>326.5</ele>
        <time>2018-09-22T12:15:19Z</time>
      </trkpt>
      <trkpt lat="47.28413" lon="6.09101">
        <ele>326.5</ele>
        <time>2018-09-22T12:15:20Z</time>
      </trkpt>
      <trkpt lat="47.28412" lon="6.09121">
        <ele>326.5</ele>
        <time>2018-09-22T12:15:23Z</time>
      </trkpt>
      <trkpt lat="47.28412" lon="6.09128">
        <ele>326.99</ele>
        <time>2018-09-22T12:15:24Z</time>
      </trkpt>
      <trkpt lat="47.28412" lon="6.09136">
        <ele>326.99</ele>
        <time>2018-09-22T12:15:25Z</time>
      </trkpt>
      <trkpt lat="47.28413" lon="6.09142">
        <ele>327.47</ele>
        <time>2018-09-22T12:15:26Z</time>
      </trkpt>
      <trkpt lat="47.28413" lon="6.09149">
        <ele>327.47</ele>
        <time>2018-09-22T12:15:27Z</time>
      </trkpt>
      <trkpt lat="47.28413" lon="6.09183">
        <ele>328.91</ele>
        <time>2018-09-22T12:15:32Z</time>
      </trkpt>
      <trkpt lat="47.28414" lon="6.0919">
        <ele>328.91</ele>
        <time>2018-09-22T12:15:33Z</time>
      </trkpt>
      <trkpt lat="47.28417" lon="6.09217">
        <ele>329.39</ele>
        <time>2018-09-22T12:15:37Z</time>
      </trkpt>
      <trkpt lat="47.28419" lon="6.0923">
        <ele>329.39</ele>
        <time>2018-09-22T12:15:39Z</time>
      </trkpt>
      <trkpt lat="47.28416" lon="6.09257">
        <ele>329.87</ele>
        <time>2018-09-22T12:15:43Z</time>
      </trkpt>
      <trkpt lat="47.28415" lon="6.09264">
        <ele>330.35</ele>
        <time>2018-09-22T12:15:44Z</time>
      </trkpt>
      <trkpt lat="47.28412" lon="6.09282">
        <ele>330.35</ele>
        <time>2018-09-22T12:15:47Z</time>
      </trkpt>
      <trkpt lat="47.28409" lon="6.09294">
        <ele>330.83</ele>
        <time>2018-09-22T12:15:49Z</time>
      </trkpt>
      <trkpt lat="47.28405" lon="6.0933">
        <ele>330.83</ele>
        <time>2018-09-22T12:15:54Z</time>
      </trkpt>
      <trkpt lat="47.28404" lon="6.09337">
        <ele>330.83</ele>
        <time>2018-09-22T12:15:55Z</time>
      </trkpt>
      <trkpt lat="47.28403" lon="6.09345">
        <ele>330.83</ele>
        <time>2018-09-22T12:15:56Z</time>
      </trkpt>
      <trkpt lat="47.28397" lon="6.09398">
        <ele>330.83</ele>
        <time>2018-09-22T12:16:03Z</time>
      </trkpt>
      <trkpt lat="47.28391" lon="6.09459">
        <ele>330.35</ele>
        <time>2018-09-22T12:16:11Z</time>
      </trkpt>
      <trkpt lat="47.28391" lon="6.09467">
        <ele>330.35</ele>
        <time>2018-09-22T12:16:12Z</time>
      </trkpt>
      <trkpt lat="47.28404" lon="6.09547">
        <ele>333.23</ele>
        <time>2018-09-22T12:16:24Z</time>
      </trkpt>
      <trkpt lat="47.28414" lon="6.09595">
        <ele>335.64</ele>
        <time>2018-09-22T12:16:32Z</time>
      </trkpt>
      <trkpt lat="47.28418" lon="6.09658">
        <ele>336.6</ele>
        <time>2018-09-22T12:16:42Z</time>
      </trkpt>
      <trkpt lat="47.28418" lon="6.09664">
        <ele>337.08</ele>
        <time>2018-09-22T12:16:43Z</time>
      </trkpt>
      <trkpt lat="47.28418" lon="6.09671">
        <ele>337.08</ele>
        <time>2018-09-22T12:16:44Z</time>
      </trkpt>
      <trkpt lat="47.28418" lon="6.09677">
        <ele>337.08</ele>
        <time>2018-09-22T12:16:45Z</time>
      </trkpt>
      <trkpt lat="47.2842" lon="6.09684">
        <ele>337.08</ele>
        <time>2018-09-22T12:16:46Z</time>
      </trkpt>
      <trkpt lat="47.2842" lon="6.0969">
        <ele>337.08</ele>
        <time>2018-09-22T12:16:47Z</time>
      </trkpt>
      <trkpt lat="47.2842" lon="6.09697">
        <ele>337.08</ele>
        <time>2018-09-22T12:16:48Z</time>
      </trkpt>
      <trkpt lat="47.28419" lon="6.09705">
        <ele>337.08</ele>
        <time>2018-09-22T12:16:49Z</time>
      </trkpt>
      <trkpt lat="47.28409" lon="6.09779">
        <ele>336.6</ele>
        <time>2018-09-22T12:16:59Z</time>
      </trkpt>
      <trkpt lat="47.28405" lon="6.09801">
        <ele>336.12</ele>
        <time>2018-09-22T12:17:02Z</time>
      </trkpt>
      <trkpt lat="47.28402" lon="6.09808">
        <ele>336.12</ele>
        <time>2018-09-22T12:17:03Z</time>
      </trkpt>
      <trkpt lat="47.28398" lon="6.09814">
        <ele>335.64</ele>
        <time>2018-09-22T12:17:04Z</time>
      </trkpt>
      <trkpt lat="47.28393" lon="6.09819">
        <ele>335.16</ele>
        <time>2018-09-22T12:17:05Z</time>
      </trkpt>
      <trkpt lat="47.28388" lon="6.09823">
        <ele>334.68</ele>
        <time>2018-09-22T12:17:06Z</time>
      </trkpt>
      <trkpt lat="47.28382" lon="6.09827">
        <ele>334.2</ele>
        <time>2018-09-22T12:17:07Z</time>
      </trkpt>
      <trkpt lat="47.28369" lon="6.09835">
        <ele>332.75</ele>
        <time>2018-09-22T12:17:09Z</time>
      </trkpt>
      <trkpt lat="47.28356" lon="6.09842">
        <ele>332.27</ele>
        <time>2018-09-22T12:17:11Z</time>
      </trkpt>
      <trkpt lat="47.28327" lon="6.09861">
        <ele>328.91</ele>
        <time>2018-09-22T12:17:15Z</time>
      </trkpt>
      <trkpt lat="47.28287" lon="6.09891">
        <ele>325.54</ele>
        <time>2018-09-22T12:17:20Z</time>
      </trkpt>
      <trkpt lat="47.28279" lon="6.09897">
        <ele>325.54</ele>
        <time>2018-09-22T12:17:21Z</time>
      </trkpt>
      <trkpt lat="47.28264" lon="6.09905">
        <ele>325.54</ele>
        <time>2018-09-22T12:17:23Z</time>
      </trkpt>
      <trkpt lat="47.28212" lon="6.09927">
        <ele>322.66</ele>
        <time>2018-09-22T12:17:30Z</time>
      </trkpt>
      <trkpt lat="47.28204" lon="6.09933">
        <ele>321.7</ele>
        <time>2018-09-22T12:17:31Z</time>
      </trkpt>
      <trkpt lat="47.28196" lon="6.0994">
        <ele>321.22</ele>
        <time>2018-09-22T12:17:32Z</time>
      </trkpt>
      <trkpt lat="47.28189" lon="6.09948">
        <ele>320.74</ele>
        <time>2018-09-22T12:17:33Z</time>
      </trkpt>
      <trkpt lat="47.28182" lon="6.09959">
        <ele>320.26</ele>
        <time>2018-09-22T12:17:34Z</time>
      </trkpt>
      <trkpt lat="47.28177" lon="6.09969">
        <ele>319.78</ele>
        <time>2018-09-22T12:17:35Z</time>
      </trkpt>
      <trkpt lat="47.28126" lon="6.10081">
        <ele>318.33</ele>
        <time>2018-09-22T12:17:46Z</time>
      </trkpt>
      <trkpt lat="47.28109" lon="6.10123">
        <ele>316.41</ele>
        <time>2018-09-22T12:17:50Z</time>
      </trkpt>
      <trkpt lat="47.28104" lon="6.10134">
        <ele>315.93</ele>
        <time>2018-09-22T12:17:51Z</time>
      </trkpt>
      <trkpt lat="47.28086" lon="6.1018">
        <ele>312.57</ele>
        <time>2018-09-22T12:17:55Z</time>
      </trkpt>
      <trkpt lat="47.28072" lon="6.10218">
        <ele>310.16</ele>
        <time>2018-09-22T12:17:58Z</time>
      </trkpt>
      <trkpt lat="47.28055" lon="6.10276">
        <ele>305.84</ele>
        <time>2018-09-22T12:18:02Z</time>
      </trkpt>
      <trkpt lat="47.28042" lon="6.10306">
        <ele>302.47</ele>
        <time>2018-09-22T12:18:04Z</time>
      </trkpt>
      <trkpt lat="47.28029" lon="6.10338">
        <ele>298.63</ele>
        <time>2018-09-22T12:18:06Z</time>
      </trkpt>
      <trkpt lat="47.28013" lon="6.1038">
        <ele>297.67</ele>
        <time>2018-09-22T12:18:09Z</time>
      </trkpt>
      <trkpt lat="47.28007" lon="6.10388">
        <ele>298.15</ele>
        <time>2018-09-22T12:18:10Z</time>
      </trkpt>
      <trkpt lat="47.28001" lon="6.10393">
        <ele>299.11</ele>
        <time>2018-09-22T12:18:11Z</time>
      </trkpt>
      <trkpt lat="47.27993" lon="6.10394">
        <ele>299.59</ele>
        <time>2018-09-22T12:18:12Z</time>
      </trkpt>
      <trkpt lat="47.27987" lon="6.10393">
        <ele>299.11</ele>
        <time>2018-09-22T12:18:13Z</time>
      </trkpt>
      <trkpt lat="47.2798" lon="6.1039">
        <ele>299.11</ele>
        <time>2018-09-22T12:18:14Z</time>
      </trkpt>
      <trkpt lat="47.27974" lon="6.10386">
        <ele>299.11</ele>
        <time>2018-09-22T12:18:15Z</time>
      </trkpt>
      <trkpt lat="47.27969" lon="6.10383">
        <ele>299.11</ele>
        <time>2018-09-22T12:18:16Z</time>
      </trkpt>
      <trkpt lat="47.279" lon="6.10365">
        <ele>295.74</ele>
        <time>2018-09-22T12:18:26Z</time>
      </trkpt>
      <trkpt lat="47.27867" lon="6.10368">
        <ele>293.34</ele>
        <time>2018-09-22T12:18:30Z</time>
      </trkpt>
      <trkpt lat="47.27858" lon="6.10371">
        <ele>291.9</ele>
        <time>2018-09-22T12:18:31Z</time>
      </trkpt>
      <trkpt lat="47.27814" lon="6.10399">
        <ele>288.05</ele>
        <time>2018-09-22T12:18:36Z</time>
      </trkpt>
      <trkpt lat="47.27806" lon="6.10405">
        <ele>288.05</ele>
        <time>2018-09-22T12:18:37Z</time>
      </trkpt>
      <trkpt lat="47.27797" lon="6.1041">
        <ele>287.57</ele>
        <time>2018-09-22T12:18:38Z</time>
      </trkpt>
      <trkpt lat="47.27788" lon="6.10414">
        <ele>287.09</ele>
        <time>2018-09-22T12:18:39Z</time>
      </trkpt>
      <trkpt lat="47.27778" lon="6.10416">
        <ele>286.61</ele>
        <time>2018-09-22T12:18:40Z</time>
      </trkpt>
      <trkpt lat="47.27746" lon="6.10421">
        <ele>281.32</ele>
        <time>2018-09-22T12:18:43Z</time>
      </trkpt>
      <trkpt lat="47.27736" lon="6.10421">
        <ele>279.88</ele>
        <time>2018-09-22T12:18:44Z</time>
      </trkpt>
      <trkpt lat="47.27727" lon="6.10419">
        <ele>278.44</ele>
        <time>2018-09-22T12:18:45Z</time>
      </trkpt>
      <trkpt lat="47.27717" lon="6.10416">
        <ele>277.48</ele>
        <time>2018-09-22T12:18:46Z</time>
      </trkpt>
      <trkpt lat="47.27709" lon="6.10412">
        <ele>276.52</ele>
        <time>2018-09-22T12:18:47Z</time>
      </trkpt>
      <trkpt lat="47.27701" lon="6.10408">
        <ele>276.04</ele>
        <time>2018-09-22T12:18:48Z</time>
      </trkpt>
      <trkpt lat="47.27696" lon="6.10406">
        <ele>276.52</ele>
        <time>2018-09-22T12:18:49Z</time>
      </trkpt>
      <trkpt lat="47.27693" lon="6.10405">
        <ele>277</ele>
        <time>2018-09-22T12:18:52Z</time>
      </trkpt>
      <trkpt lat="47.27691" lon="6.10403">
        <ele>276.52</ele>
        <time>2018-09-22T12:18:53Z</time>
      </trkpt>
      <trkpt lat="47.27688" lon="6.10402">
        <ele>276.04</ele>
        <time>2018-09-22T12:18:54Z</time>
      </trkpt>
      <trkpt lat="47.27685" lon="6.10403">
        <ele>276.04</ele>
        <time>2018-09-22T12:18:55Z</time>
      </trkpt>
      <trkpt lat="47.2768" lon="6.10405">
        <ele>275.56</ele>
        <time>2018-09-22T12:18:56Z</time>
      </trkpt>
      <trkpt lat="47.27675" lon="6.10408">
        <ele>275.56</ele>
        <time>2018-09-22T12:18:57Z</time>
      </trkpt>
      <trkpt lat="47.2767" lon="6.10412">
        <ele>275.56</ele>
        <time>2018-09-22T12:18:58Z</time>
      </trkpt>
      <trkpt lat="47.27666" lon="6.10417">
        <ele>275.56</ele>
        <time>2018-09-22T12:18:59Z</time>
      </trkpt>
      <trkpt lat="47.27662" lon="6.10423">
        <ele>275.56</ele>
        <time>2018-09-22T12:19:00Z</time>
      </trkpt>
      <trkpt lat="47.27659" lon="6.1043">
        <ele>275.56</ele>
        <time>2018-09-22T12:19:01Z</time>
      </trkpt>
      <trkpt lat="47.27656" lon="6.10437">
        <ele>275.07</ele>
        <time>2018-09-22T12:19:02Z</time>
      </trkpt>
      <trkpt lat="47.27653" lon="6.10445">
        <ele>275.07</ele>
        <time>2018-09-22T12:19:03Z</time>
      </trkpt>
      <trkpt lat="47.27652" lon="6.10454">
        <ele>274.59</ele>
        <time>2018-09-22T12:19:04Z</time>
      </trkpt>
      <trkpt lat="47.27651" lon="6.10463">
        <ele>274.11</ele>
        <time>2018-09-22T12:19:05Z</time>
      </trkpt>
      <trkpt lat="47.27651" lon="6.10473">
        <ele>274.11</ele>
        <time>2018-09-22T12:19:06Z</time>
      </trkpt>
      <trkpt lat="47.27651" lon="6.10483">
        <ele>274.11</ele>
        <time>2018-09-22T12:19:07Z</time>
      </trkpt>
      <trkpt lat="47.27653" lon="6.10543">
        <ele>272.19</ele>
        <time>2018-09-22T12:19:13Z</time>
      </trkpt>
      <trkpt lat="47.27654" lon="6.10553">
        <ele>272.19</ele>
        <time>2018-09-22T12:19:14Z</time>
      </trkpt>
      <trkpt lat="47.27664" lon="6.10613">
        <ele>271.23</ele>
        <time>2018-09-22T12:19:20Z</time>
      </trkpt>
      <trkpt lat="47.2768" lon="6.10687">
        <ele>271.71</ele>
        <time>2018-09-22T12:19:28Z</time>
      </trkpt>
      <trkpt lat="47.27709" lon="6.10785">
        <ele>272.19</ele>
        <time>2018-09-22T12:19:40Z</time>
      </trkpt>
      <trkpt lat="47.27727" lon="6.10851">
        <ele>271.23</ele>
        <time>2018-09-22T12:19:48Z</time>
      </trkpt>
      <trkpt lat="47.27728" lon="6.1086">
        <ele>271.23</ele>
        <time>2018-09-22T12:19:49Z</time>
      </trkpt>
      <trkpt lat="47.27728" lon="6.1087">
        <ele>271.23</ele>
        <time>2018-09-22T12:19:50Z</time>
      </trkpt>
      <trkpt lat="47.27728" lon="6.10879">
        <ele>270.75</ele>
        <time>2018-09-22T12:19:51Z</time>
      </trkpt>
      <trkpt lat="47.27727" lon="6.10889">
        <ele>270.75</ele>
        <time>2018-09-22T12:19:52Z</time>
      </trkpt>
      <trkpt lat="47.27725" lon="6.10899">
        <ele>270.27</ele>
        <time>2018-09-22T12:19:53Z</time>
      </trkpt>
      <trkpt lat="47.27721" lon="6.10908">
        <ele>270.27</ele>
        <time>2018-09-22T12:19:54Z</time>
      </trkpt>
      <trkpt lat="47.27718" lon="6.10917">
        <ele>269.79</ele>
        <time>2018-09-22T12:19:55Z</time>
      </trkpt>
      <trkpt lat="47.27695" lon="6.10978">
        <ele>268.83</ele>
        <time>2018-09-22T12:20:02Z</time>
      </trkpt>
      <trkpt lat="47.27692" lon="6.10986">
        <ele>268.83</ele>
        <time>2018-09-22T12:20:03Z</time>
      </trkpt>
      <trkpt lat="47.27684" lon="6.11013">
        <ele>269.79</ele>
        <time>2018-09-22T12:20:08Z</time>
      </trkpt>
      <trkpt lat="47.27685" lon="6.11013">
        <ele>269.79</ele>
        <time>2018-09-22T12:20:09Z</time>
      </trkpt>
      <trkpt lat="47.27686" lon="6.11011">
        <ele>270.27</ele>
        <time>2018-09-22T12:20:10Z</time>
      </trkpt>
      <trkpt lat="47.27699" lon="6.11008">
        <ele>270.27</ele>
        <time>2018-09-22T12:20:15Z</time>
      </trkpt>
      <trkpt lat="47.27702" lon="6.11013">
        <ele>269.79</ele>
        <time>2018-09-22T12:20:16Z</time>
      </trkpt>
      <trkpt lat="47.27706" lon="6.11019">
        <ele>269.79</ele>
        <time>2018-09-22T12:20:17Z</time>
      </trkpt>
      <trkpt lat="47.27709" lon="6.11025">
        <ele>269.79</ele>
        <time>2018-09-22T12:20:18Z</time>
      </trkpt>
      <trkpt lat="47.27713" lon="6.11031">
        <ele>270.27</ele>
        <time>2018-09-22T12:20:19Z</time>
      </trkpt>
      <trkpt lat="47.27716" lon="6.11036">
        <ele>270.27</ele>
        <time>2018-09-22T12:20:20Z</time>
      </trkpt>
      <trkpt lat="47.27735" lon="6.1107">
        <ele>269.31</ele>
        <time>2018-09-22T12:20:26Z</time>
      </trkpt>
      <trkpt lat="47.27738" lon="6.11076">
        <ele>269.31</ele>
        <time>2018-09-22T12:20:27Z</time>
      </trkpt>
      <trkpt lat="47.27764" lon="6.1113">
        <ele>269.79</ele>
        <time>2018-09-22T12:20:37Z</time>
      </trkpt>
      <trkpt lat="47.27764" lon="6.11136">
        <ele>270.27</ele>
        <time>2018-09-22T12:20:38Z</time>
      </trkpt>
      <trkpt lat="47.2776" lon="6.11141">
        <ele>269.79</ele>
        <time>2018-09-22T12:20:39Z</time>
      </trkpt>
      <trkpt lat="47.27755" lon="6.11145">
        <ele>269.31</ele>
        <time>2018-09-22T12:20:40Z</time>
      </trkpt>
      <trkpt lat="47.2775" lon="6.11148">
        <ele>268.83</ele>
        <time>2018-09-22T12:20:41Z</time>
      </trkpt>
      <trkpt lat="47.27717" lon="6.11166">
        <ele>265.94</ele>
        <time>2018-09-22T12:20:46Z</time>
      </trkpt>
      <trkpt lat="47.27692" lon="6.11182">
        <ele>262.58</ele>
        <time>2018-09-22T12:20:49Z</time>
      </trkpt>
      <trkpt lat="47.27657" lon="6.11203">
        <ele>259.21</ele>
        <time>2018-09-22T12:20:53Z</time>
      </trkpt>
      <trkpt lat="47.27618" lon="6.1123">
        <ele>262.58</ele>
        <time>2018-09-22T12:20:59Z</time>
      </trkpt>
      <trkpt lat="47.27613" lon="6.11233">
        <ele>263.54</ele>
        <time>2018-09-22T12:21:00Z</time>
      </trkpt>
      <trkpt lat="47.27573" lon="6.11265">
        <ele>265.46</ele>
        <time>2018-09-22T12:21:12Z</time>
      </trkpt>
      <trkpt lat="47.27573" lon="6.11264">
        <ele>265.94</ele>
        <time>2018-09-22T12:21:29Z</time>
      </trkpt>
      <trkpt lat="47.27573" lon="6.11264">
        <ele>265.94</ele>
        <time>2018-09-22T12:21:49Z</time>
      </trkpt>
      <trkpt lat="47.27573" lon="6.11264">
        <ele>265.94</ele>
        <time>2018-09-22T12:22:07Z</time>
      </trkpt>
      <trkpt lat="47.27573" lon="6.11267">
        <ele>265.94</ele>
        <time>2018-09-22T12:22:31Z</time>
      </trkpt>
      <trkpt lat="47.2756" lon="6.11276">
        <ele>264.98</ele>
        <time>2018-09-22T12:22:38Z</time>
      </trkpt>
      <trkpt lat="47.27497" lon="6.11315">
        <ele>264.02</ele>
        <time>2018-09-22T12:22:51Z</time>
      </trkpt>
      <trkpt lat="47.27407" lon="6.11373">
        <ele>263.06</ele>
        <time>2018-09-22T12:23:08Z</time>
      </trkpt>
      <trkpt lat="47.27349" lon="6.1141">
        <ele>262.58</ele>
        <time>2018-09-22T12:23:19Z</time>
      </trkpt>
      <trkpt lat="47.27344" lon="6.1141">
        <ele>262.58</ele>
        <time>2018-09-22T12:23:20Z</time>
      </trkpt>
      <trkpt lat="47.2734" lon="6.11408">
        <ele>262.58</ele>
        <time>2018-09-22T12:23:21Z</time>
      </trkpt>
      <trkpt lat="47.27336" lon="6.11403">
        <ele>262.58</ele>
        <time>2018-09-22T12:23:22Z</time>
      </trkpt>
      <trkpt lat="47.27334" lon="6.11396">
        <ele>262.58</ele>
        <time>2018-09-22T12:23:23Z</time>
      </trkpt>
      <trkpt lat="47.27333" lon="6.11388">
        <ele>263.06</ele>
        <time>2018-09-22T12:23:24Z</time>
      </trkpt>
      <trkpt lat="47.27331" lon="6.11381">
        <ele>263.06</ele>
        <time>2018-09-22T12:23:25Z</time>
      </trkpt>
      <trkpt lat="47.27329" lon="6.11368">
        <ele>263.06</ele>
        <time>2018-09-22T12:23:27Z</time>
      </trkpt>
      <trkpt lat="47.27328" lon="6.11361">
        <ele>263.54</ele>
        <time>2018-09-22T12:23:28Z</time>
      </trkpt>
      <trkpt lat="47.27319" lon="6.11306">
        <ele>263.06</ele>
        <time>2018-09-22T12:23:36Z</time>
      </trkpt>
      <trkpt lat="47.27317" lon="6.11299">
        <ele>263.06</ele>
        <time>2018-09-22T12:23:37Z</time>
      </trkpt>
      <trkpt lat="47.27312" lon="6.11286">
        <ele>263.54</ele>
        <time>2018-09-22T12:23:39Z</time>
      </trkpt>
      <trkpt lat="47.27308" lon="6.11282">
        <ele>263.54</ele>
        <time>2018-09-22T12:23:40Z</time>
      </trkpt>
      <trkpt lat="47.27302" lon="6.11281">
        <ele>263.06</ele>
        <time>2018-09-22T12:23:41Z</time>
      </trkpt>
      <trkpt lat="47.27297" lon="6.11283">
        <ele>262.58</ele>
        <time>2018-09-22T12:23:42Z</time>
      </trkpt>
      <trkpt lat="47.27291" lon="6.11284">
        <ele>261.62</ele>
        <time>2018-09-22T12:23:43Z</time>
      </trkpt>
      <trkpt lat="47.27248" lon="6.11297">
        <ele>258.25</ele>
        <time>2018-09-22T12:23:49Z</time>
      </trkpt>
      <trkpt lat="47.27223" lon="6.11301">
        <ele>256.33</ele>
        <time>2018-09-22T12:23:52Z</time>
      </trkpt>
      <trkpt lat="47.27214" lon="6.113">
        <ele>255.85</ele>
        <time>2018-09-22T12:23:53Z</time>
      </trkpt>
      <trkpt lat="47.27206" lon="6.11298">
        <ele>255.85</ele>
        <time>2018-09-22T12:23:54Z</time>
      </trkpt>
      <trkpt lat="47.27198" lon="6.11295">
        <ele>255.85</ele>
        <time>2018-09-22T12:23:55Z</time>
      </trkpt>
      <trkpt lat="47.27191" lon="6.11291">
        <ele>255.37</ele>
        <time>2018-09-22T12:23:56Z</time>
      </trkpt>
      <trkpt lat="47.27184" lon="6.11286">
        <ele>255.37</ele>
        <time>2018-09-22T12:23:57Z</time>
      </trkpt>
      <trkpt lat="47.27177" lon="6.11281">
        <ele>255.37</ele>
        <time>2018-09-22T12:23:58Z</time>
      </trkpt>
      <trkpt lat="47.27171" lon="6.11275">
        <ele>255.37</ele>
        <time>2018-09-22T12:23:59Z</time>
      </trkpt>
      <trkpt lat="47.2709" lon="6.11202">
        <ele>255.85</ele>
        <time>2018-09-22T12:24:13Z</time>
      </trkpt>
      <trkpt lat="47.27015" lon="6.11135">
        <ele>256.81</ele>
        <time>2018-09-22T12:24:28Z</time>
      </trkpt>
      <trkpt lat="47.26975" lon="6.11096">
        <ele>257.29</ele>
        <time>2018-09-22T12:24:37Z</time>
      </trkpt>
      <trkpt lat="47.2697" lon="6.11092">
        <ele>257.29</ele>
        <time>2018-09-22T12:24:38Z</time>
      </trkpt>
      <trkpt lat="47.26966" lon="6.1109">
        <ele>257.29</ele>
        <time>2018-09-22T12:24:39Z</time>
      </trkpt>
      <trkpt lat="47.26953" lon="6.11091">
        <ele>258.25</ele>
        <time>2018-09-22T12:24:42Z</time>
      </trkpt>
      <trkpt lat="47.2695" lon="6.11088">
        <ele>258.25</ele>
        <time>2018-09-22T12:24:43Z</time>
      </trkpt>
      <trkpt lat="47.26948" lon="6.11083">
        <ele>258.25</ele>
        <time>2018-09-22T12:24:44Z</time>
      </trkpt>
      <trkpt lat="47.26947" lon="6.11077">
        <ele>258.25</ele>
        <time>2018-09-22T12:24:45Z</time>
      </trkpt>
      <trkpt lat="47.26945" lon="6.11071">
        <ele>257.77</ele>
        <time>2018-09-22T12:24:46Z</time>
      </trkpt>
      <trkpt lat="47.2694" lon="6.11051">
        <ele>257.77</ele>
        <time>2018-09-22T12:24:49Z</time>
      </trkpt>
      <trkpt lat="47.26939" lon="6.11044">
        <ele>257.29</ele>
        <time>2018-09-22T12:24:50Z</time>
      </trkpt>
      <trkpt lat="47.2692" lon="6.10921">
        <ele>257.29</ele>
        <time>2018-09-22T12:25:05Z</time>
      </trkpt>
      <trkpt lat="47.26905" lon="6.10761">
        <ele>256.81</ele>
        <time>2018-09-22T12:25:23Z</time>
      </trkpt>
      <trkpt lat="47.26903" lon="6.10616">
        <ele>256.81</ele>
        <time>2018-09-22T12:25:39Z</time>
      </trkpt>
      <trkpt lat="47.26916" lon="6.10427">
        <ele>256.33</ele>
        <time>2018-09-22T12:25:59Z</time>
      </trkpt>
      <trkpt lat="47.26939" lon="6.10281">
        <ele>256.33</ele>
        <time>2018-09-22T12:26:15Z</time>
      </trkpt>
      <trkpt lat="47.26965" lon="6.10137">
        <ele>256.81</ele>
        <time>2018-09-22T12:26:31Z</time>
      </trkpt>
      <trkpt lat="47.26988" lon="6.09976">
        <ele>257.29</ele>
        <time>2018-09-22T12:26:49Z</time>
      </trkpt>
      <trkpt lat="47.26993" lon="6.09857">
        <ele>256.81</ele>
        <time>2018-09-22T12:27:02Z</time>
      </trkpt>
      <trkpt lat="47.26993" lon="6.09848">
        <ele>256.81</ele>
        <time>2018-09-22T12:27:03Z</time>
      </trkpt>
      <trkpt lat="47.26992" lon="6.09829">
        <ele>256.81</ele>
        <time>2018-09-22T12:27:05Z</time>
      </trkpt>
      <trkpt lat="47.26992" lon="6.0982">
        <ele>256.33</ele>
        <time>2018-09-22T12:27:06Z</time>
      </trkpt>
      <trkpt lat="47.26984" lon="6.09693">
        <ele>256.33</ele>
        <time>2018-09-22T12:27:20Z</time>
      </trkpt>
      <trkpt lat="47.26982" lon="6.09637">
        <ele>256.33</ele>
        <time>2018-09-22T12:27:26Z</time>
      </trkpt>
      <trkpt lat="47.26983" lon="6.095">
        <ele>255.85</ele>
        <time>2018-09-22T12:27:41Z</time>
      </trkpt>
      <trkpt lat="47.26995" lon="6.09362">
        <ele>255.85</ele>
        <time>2018-09-22T12:27:57Z</time>
      </trkpt>
      <trkpt lat="47.2701" lon="6.09253">
        <ele>255.37</ele>
        <time>2018-09-22T12:28:10Z</time>
      </trkpt>
      <trkpt lat="47.27033" lon="6.09107">
        <ele>255.85</ele>
        <time>2018-09-22T12:28:28Z</time>
      </trkpt>
      <trkpt lat="47.27056" lon="6.08951">
        <ele>255.85</ele>
        <time>2018-09-22T12:28:46Z</time>
      </trkpt>
      <trkpt lat="47.27078" lon="6.08812">
        <ele>257.29</ele>
        <time>2018-09-22T12:29:03Z</time>
      </trkpt>
      <trkpt lat="47.27091" lon="6.08688">
        <ele>256.33</ele>
        <time>2018-09-22T12:29:18Z</time>
      </trkpt>
      <trkpt lat="47.27091" lon="6.08564">
        <ele>256.81</ele>
        <time>2018-09-22T12:29:34Z</time>
      </trkpt>
      <trkpt lat="47.2709" lon="6.08556">
        <ele>256.81</ele>
        <time>2018-09-22T12:29:35Z</time>
      </trkpt>
      <trkpt lat="47.27088" lon="6.08548">
        <ele>256.33</ele>
        <time>2018-09-22T12:29:36Z</time>
      </trkpt>
      <trkpt lat="47.27087" lon="6.08541">
        <ele>256.33</ele>
        <time>2018-09-22T12:29:37Z</time>
      </trkpt>
      <trkpt lat="47.27085" lon="6.08533">
        <ele>256.33</ele>
        <time>2018-09-22T12:29:38Z</time>
      </trkpt>
      <trkpt lat="47.27084" lon="6.08525">
        <ele>256.33</ele>
        <time>2018-09-22T12:29:39Z</time>
      </trkpt>
      <trkpt lat="47.27083" lon="6.08496">
        <ele>256.33</ele>
        <time>2018-09-22T12:29:43Z</time>
      </trkpt>
      <trkpt lat="47.27082" lon="6.08478">
        <ele>257.77</ele>
        <time>2018-09-22T12:29:48Z</time>
      </trkpt>
      <trkpt lat="47.27079" lon="6.08477">
        <ele>257.77</ele>
        <time>2018-09-22T12:29:49Z</time>
      </trkpt>
      <trkpt lat="47.27077" lon="6.08476">
        <ele>257.77</ele>
        <time>2018-09-22T12:29:50Z</time>
      </trkpt>
      <trkpt lat="47.27074" lon="6.08476">
        <ele>257.77</ele>
        <time>2018-09-22T12:29:51Z</time>
      </trkpt>
      <trkpt lat="47.2707" lon="6.08477">
        <ele>257.77</ele>
        <time>2018-09-22T12:29:52Z</time>
      </trkpt>
      <trkpt lat="47.27067" lon="6.08477">
        <ele>258.25</ele>
        <time>2018-09-22T12:29:53Z</time>
      </trkpt>
      <trkpt lat="47.27013" lon="6.08489">
        <ele>259.69</ele>
        <time>2018-09-22T12:30:05Z</time>
      </trkpt>
      <trkpt lat="47.26942" lon="6.08507">
        <ele>259.21</ele>
        <time>2018-09-22T12:30:20Z</time>
      </trkpt>
      <trkpt lat="47.26894" lon="6.08522">
        <ele>257.77</ele>
        <time>2018-09-22T12:30:28Z</time>
      </trkpt>
      <trkpt lat="47.26848" lon="6.08574">
        <ele>256.33</ele>
        <time>2018-09-22T12:30:37Z</time>
      </trkpt>
      <trkpt lat="47.26841" lon="6.08592">
        <ele>256.33</ele>
        <time>2018-09-22T12:30:39Z</time>
      </trkpt>
      <trkpt lat="47.26839" lon="6.08601">
        <ele>256.33</ele>
        <time>2018-09-22T12:30:40Z</time>
      </trkpt>
      <trkpt lat="47.26835" lon="6.08621">
        <ele>255.85</ele>
        <time>2018-09-22T12:30:42Z</time>
      </trkpt>
      <trkpt lat="47.26834" lon="6.08631">
        <ele>255.85</ele>
        <time>2018-09-22T12:30:43Z</time>
      </trkpt>
      <trkpt lat="47.26833" lon="6.08641">
        <ele>255.85</ele>
        <time>2018-09-22T12:30:44Z</time>
      </trkpt>
      <trkpt lat="47.26833" lon="6.08651">
        <ele>255.85</ele>
        <time>2018-09-22T12:30:45Z</time>
      </trkpt>
      <trkpt lat="47.26833" lon="6.08661">
        <ele>255.37</ele>
        <time>2018-09-22T12:30:46Z</time>
      </trkpt>
      <trkpt lat="47.26834" lon="6.08671">
        <ele>254.89</ele>
        <time>2018-09-22T12:30:47Z</time>
      </trkpt>
      <trkpt lat="47.26842" lon="6.08772">
        <ele>255.85</ele>
        <time>2018-09-22T12:30:59Z</time>
      </trkpt>
      <trkpt lat="47.26841" lon="6.0878">
        <ele>256.33</ele>
        <time>2018-09-22T12:31:00Z</time>
      </trkpt>
      <trkpt lat="47.26839" lon="6.08787">
        <ele>255.85</ele>
        <time>2018-09-22T12:31:01Z</time>
      </trkpt>
      <trkpt lat="47.26834" lon="6.08791">
        <ele>255.85</ele>
        <time>2018-09-22T12:31:02Z</time>
      </trkpt>
      <trkpt lat="47.26829" lon="6.08794">
        <ele>255.85</ele>
        <time>2018-09-22T12:31:03Z</time>
      </trkpt>
      <trkpt lat="47.26765" lon="6.08855">
        <ele>256.33</ele>
        <time>2018-09-22T12:31:17Z</time>
      </trkpt>
      <trkpt lat="47.26737" lon="6.08882">
        <ele>257.29</ele>
        <time>2018-09-22T12:31:24Z</time>
      </trkpt>
      <trkpt lat="47.26734" lon="6.08887">
        <ele>257.29</ele>
        <time>2018-09-22T12:31:25Z</time>
      </trkpt>
      <trkpt lat="47.26732" lon="6.08891">
        <ele>257.77</ele>
        <time>2018-09-22T12:31:26Z</time>
      </trkpt>
      <trkpt lat="47.2673" lon="6.08896">
        <ele>257.77</ele>
        <time>2018-09-22T12:31:27Z</time>
      </trkpt>
      <trkpt lat="47.26729" lon="6.089">
        <ele>258.25</ele>
        <time>2018-09-22T12:31:28Z</time>
      </trkpt>
      <trkpt lat="47.26727" lon="6.08903">
        <ele>258.73</ele>
        <time>2018-09-22T12:31:29Z</time>
      </trkpt>
      <trkpt lat="47.26714" lon="6.08926">
        <ele>261.62</ele>
        <time>2018-09-22T12:31:39Z</time>
      </trkpt>
      <trkpt lat="47.26694" lon="6.08929">
        <ele>264.98</ele>
        <time>2018-09-22T12:31:51Z</time>
      </trkpt>
      <trkpt lat="47.26672" lon="6.08929">
        <ele>267.86</ele>
        <time>2018-09-22T12:32:03Z</time>
      </trkpt>
      <trkpt lat="47.26648" lon="6.08929">
        <ele>271.23</ele>
        <time>2018-09-22T12:32:16Z</time>
      </trkpt>
      <trkpt lat="47.2662" lon="6.08928">
        <ele>274.59</ele>
        <time>2018-09-22T12:32:30Z</time>
      </trkpt>
      <trkpt lat="47.2659" lon="6.08927">
        <ele>277.48</ele>
        <time>2018-09-22T12:32:45Z</time>
      </trkpt>
      <trkpt lat="47.26562" lon="6.08925">
        <ele>281.32</ele>
        <time>2018-09-22T12:32:58Z</time>
      </trkpt>
      <trkpt lat="47.26529" lon="6.08924">
        <ele>283.73</ele>
        <time>2018-09-22T12:33:12Z</time>
      </trkpt>
      <trkpt lat="47.26499" lon="6.0892">
        <ele>287.09</ele>
        <time>2018-09-22T12:33:25Z</time>
      </trkpt>
      <trkpt lat="47.26468" lon="6.08916">
        <ele>289.97</ele>
        <time>2018-09-22T12:33:39Z</time>
      </trkpt>
      <trkpt lat="47.26439" lon="6.08909">
        <ele>293.34</ele>
        <time>2018-09-22T12:33:52Z</time>
      </trkpt>
      <trkpt lat="47.26433" lon="6.08915">
        <ele>293.82</ele>
        <time>2018-09-22T12:33:55Z</time>
      </trkpt>
      <trkpt lat="47.26433" lon="6.08918">
        <ele>294.3</ele>
        <time>2018-09-22T12:33:56Z</time>
      </trkpt>
      <trkpt lat="47.26433" lon="6.08922">
        <ele>294.78</ele>
        <time>2018-09-22T12:33:57Z</time>
      </trkpt>
      <trkpt lat="47.26433" lon="6.08925">
        <ele>295.26</ele>
        <time>2018-09-22T12:33:58Z</time>
      </trkpt>
      <trkpt lat="47.26435" lon="6.08928">
        <ele>295.26</ele>
        <time>2018-09-22T12:33:59Z</time>
      </trkpt>
      <trkpt lat="47.26436" lon="6.0893">
        <ele>295.74</ele>
        <time>2018-09-22T12:34:00Z</time>
      </trkpt>
      <trkpt lat="47.26438" lon="6.08932">
        <ele>295.74</ele>
        <time>2018-09-22T12:34:01Z</time>
      </trkpt>
      <trkpt lat="47.2644" lon="6.08934">
        <ele>295.74</ele>
        <time>2018-09-22T12:34:02Z</time>
      </trkpt>
      <trkpt lat="47.26465" lon="6.0896">
        <ele>299.11</ele>
        <time>2018-09-22T12:34:15Z</time>
      </trkpt>
      <trkpt lat="47.26488" lon="6.08988">
        <ele>301.51</ele>
        <time>2018-09-22T12:34:28Z</time>
      </trkpt>
      <trkpt lat="47.26488" lon="6.09004">
        <ele>302.95</ele>
        <time>2018-09-22T12:34:33Z</time>
      </trkpt>
      <trkpt lat="47.26487" lon="6.09007">
        <ele>303.43</ele>
        <time>2018-09-22T12:34:34Z</time>
      </trkpt>
      <trkpt lat="47.26485" lon="6.09008">
        <ele>303.91</ele>
        <time>2018-09-22T12:34:35Z</time>
      </trkpt>
      <trkpt lat="47.26483" lon="6.09009">
        <ele>304.39</ele>
        <time>2018-09-22T12:34:36Z</time>
      </trkpt>
      <trkpt lat="47.2648" lon="6.09009">
        <ele>304.39</ele>
        <time>2018-09-22T12:34:37Z</time>
      </trkpt>
      <trkpt lat="47.26478" lon="6.09008">
        <ele>304.88</ele>
        <time>2018-09-22T12:34:38Z</time>
      </trkpt>
      <trkpt lat="47.26476" lon="6.09008">
        <ele>304.88</ele>
        <time>2018-09-22T12:34:39Z</time>
      </trkpt>
      <trkpt lat="47.2644" lon="6.09007">
        <ele>307.28</ele>
        <time>2018-09-22T12:34:52Z</time>
      </trkpt>
      <trkpt lat="47.26406" lon="6.09047">
        <ele>308.24</ele>
        <time>2018-09-22T12:35:06Z</time>
      </trkpt>
      <trkpt lat="47.26372" lon="6.09095">
        <ele>309.68</ele>
        <time>2018-09-22T12:35:20Z</time>
      </trkpt>
      <trkpt lat="47.26343" lon="6.0916">
        <ele>312.57</ele>
        <time>2018-09-22T12:35:36Z</time>
      </trkpt>
      <trkpt lat="47.26326" lon="6.09236">
        <ele>315.93</ele>
        <time>2018-09-22T12:35:53Z</time>
      </trkpt>
      <trkpt lat="47.26307" lon="6.09298">
        <ele>318.81</ele>
        <time>2018-09-22T12:36:08Z</time>
      </trkpt>
      <trkpt lat="47.26293" lon="6.09349">
        <ele>322.18</ele>
        <time>2018-09-22T12:36:22Z</time>
      </trkpt>
      <trkpt lat="47.26279" lon="6.09393">
        <ele>325.06</ele>
        <time>2018-09-22T12:36:35Z</time>
      </trkpt>
      <trkpt lat="47.26256" lon="6.09414">
        <ele>327.95</ele>
        <time>2018-09-22T12:36:47Z</time>
      </trkpt>
      <trkpt lat="47.26225" lon="6.0941">
        <ele>330.83</ele>
        <time>2018-09-22T12:37:00Z</time>
      </trkpt>
      <trkpt lat="47.26197" lon="6.09405">
        <ele>333.23</ele>
        <time>2018-09-22T12:37:12Z</time>
      </trkpt>
      <trkpt lat="47.26164" lon="6.09403">
        <ele>336.6</ele>
        <time>2018-09-22T12:37:26Z</time>
      </trkpt>
      <trkpt lat="47.26161" lon="6.09435">
        <ele>338.04</ele>
        <time>2018-09-22T12:37:36Z</time>
      </trkpt>
      <trkpt lat="47.26195" lon="6.09455">
        <ele>339.96</ele>
        <time>2018-09-22T12:37:49Z</time>
      </trkpt>
      <trkpt lat="47.2622" lon="6.09473">
        <ele>341.41</ele>
        <time>2018-09-22T12:37:58Z</time>
      </trkpt>
      <trkpt lat="47.26238" lon="6.0952">
        <ele>343.81</ele>
        <time>2018-09-22T12:38:10Z</time>
      </trkpt>
      <trkpt lat="47.26242" lon="6.09554">
        <ele>346.21</ele>
        <time>2018-09-22T12:38:22Z</time>
      </trkpt>
      <trkpt lat="47.26242" lon="6.09558">
        <ele>347.17</ele>
        <time>2018-09-22T12:38:24Z</time>
      </trkpt>
      <trkpt lat="47.26239" lon="6.09567">
        <ele>348.62</ele>
        <time>2018-09-22T12:38:30Z</time>
      </trkpt>
      <trkpt lat="47.26238" lon="6.09573">
        <ele>349.58</ele>
        <time>2018-09-22T12:38:33Z</time>
      </trkpt>
      <trkpt lat="47.26238" lon="6.09578">
        <ele>350.06</ele>
        <time>2018-09-22T12:38:35Z</time>
      </trkpt>
      <trkpt lat="47.26237" lon="6.0958">
        <ele>350.54</ele>
        <time>2018-09-22T12:38:36Z</time>
      </trkpt>
      <trkpt lat="47.26237" lon="6.09581">
        <ele>351.5</ele>
        <time>2018-09-22T12:38:37Z</time>
      </trkpt>
      <trkpt lat="47.26237" lon="6.09583">
        <ele>351.5</ele>
        <time>2018-09-22T12:38:38Z</time>
      </trkpt>
      <trkpt lat="47.26237" lon="6.09585">
        <ele>351.98</ele>
        <time>2018-09-22T12:38:39Z</time>
      </trkpt>
      <trkpt lat="47.26237" lon="6.09588">
        <ele>351.98</ele>
        <time>2018-09-22T12:38:40Z</time>
      </trkpt>
      <trkpt lat="47.26237" lon="6.09592">
        <ele>352.46</ele>
        <time>2018-09-22T12:38:42Z</time>
      </trkpt>
      <trkpt lat="47.26238" lon="6.096">
        <ele>354.38</ele>
        <time>2018-09-22T12:38:47Z</time>
      </trkpt>
      <trkpt lat="47.26239" lon="6.09604">
        <ele>354.86</ele>
        <time>2018-09-22T12:38:49Z</time>
      </trkpt>
      <trkpt lat="47.2624" lon="6.09606">
        <ele>355.34</ele>
        <time>2018-09-22T12:38:50Z</time>
      </trkpt>
      <trkpt lat="47.2624" lon="6.09608">
        <ele>355.34</ele>
        <time>2018-09-22T12:38:51Z</time>
      </trkpt>
      <trkpt lat="47.26242" lon="6.09614">
        <ele>356.31</ele>
        <time>2018-09-22T12:38:54Z</time>
      </trkpt>
      <trkpt lat="47.26242" lon="6.09616">
        <ele>356.31</ele>
        <time>2018-09-22T12:38:55Z</time>
      </trkpt>
      <trkpt lat="47.26243" lon="6.09617">
        <ele>356.79</ele>
        <time>2018-09-22T12:38:56Z</time>
      </trkpt>
      <trkpt lat="47.26243" lon="6.09619">
        <ele>356.79</ele>
        <time>2018-09-22T12:38:57Z</time>
      </trkpt>
      <trkpt lat="47.26241" lon="6.09634">
        <ele>359.67</ele>
        <time>2018-09-22T12:39:05Z</time>
      </trkpt>
      <trkpt lat="47.26241" lon="6.09638">
        <ele>360.63</ele>
        <time>2018-09-22T12:39:07Z</time>
      </trkpt>
      <trkpt lat="47.2624" lon="6.09643">
        <ele>362.07</ele>
        <time>2018-09-22T12:39:11Z</time>
      </trkpt>
      <trkpt lat="47.2624" lon="6.09661">
        <ele>365.44</ele>
        <time>2018-09-22T12:39:21Z</time>
      </trkpt>
      <trkpt lat="47.2624" lon="6.09664">
        <ele>365.44</ele>
        <time>2018-09-22T12:39:22Z</time>
      </trkpt>
      <trkpt lat="47.2624" lon="6.09666">
        <ele>365.92</ele>
        <time>2018-09-22T12:39:23Z</time>
      </trkpt>
      <trkpt lat="47.2624" lon="6.09668">
        <ele>365.92</ele>
        <time>2018-09-22T12:39:24Z</time>
      </trkpt>
      <trkpt lat="47.2624" lon="6.09678">
        <ele>367.84</ele>
        <time>2018-09-22T12:39:29Z</time>
      </trkpt>
      <trkpt lat="47.26243" lon="6.09695">
        <ele>370.73</ele>
        <time>2018-09-22T12:39:39Z</time>
      </trkpt>
      <trkpt lat="47.26244" lon="6.09702">
        <ele>373.13</ele>
        <time>2018-09-22T12:39:46Z</time>
      </trkpt>
      <trkpt lat="47.26243" lon="6.09704">
        <ele>373.13</ele>
        <time>2018-09-22T12:39:47Z</time>
      </trkpt>
      <trkpt lat="47.26245" lon="6.09713">
        <ele>374.57</ele>
        <time>2018-09-22T12:39:59Z</time>
      </trkpt>
      <trkpt lat="47.26243" lon="6.09716">
        <ele>374.57</ele>
        <time>2018-09-22T12:40:21Z</time>
      </trkpt>
      <trkpt lat="47.26244" lon="6.09719">
        <ele>374.09</ele>
        <time>2018-09-22T12:40:26Z</time>
      </trkpt>
      <trkpt lat="47.26243" lon="6.09722">
        <ele>375.05</ele>
        <time>2018-09-22T12:40:28Z</time>
      </trkpt>
      <trkpt lat="47.26243" lon="6.09727">
        <ele>376.01</ele>
        <time>2018-09-22T12:40:31Z</time>
      </trkpt>
      <trkpt lat="47.26243" lon="6.09735">
        <ele>377.45</ele>
        <time>2018-09-22T12:40:36Z</time>
      </trkpt>
      <trkpt lat="47.26244" lon="6.09738">
        <ele>377.94</ele>
        <time>2018-09-22T12:40:37Z</time>
      </trkpt>
      <trkpt lat="47.26245" lon="6.09743">
        <ele>379.38</ele>
        <time>2018-09-22T12:40:46Z</time>
      </trkpt>
      <trkpt lat="47.26245" lon="6.09753">
        <ele>380.82</ele>
        <time>2018-09-22T12:40:56Z</time>
      </trkpt>
      <trkpt lat="47.26245" lon="6.09761">
        <ele>381.78</ele>
        <time>2018-09-22T12:41:09Z</time>
      </trkpt>
      <trkpt lat="47.26246" lon="6.0977">
        <ele>383.22</ele>
        <time>2018-09-22T12:41:16Z</time>
      </trkpt>
      <trkpt lat="47.26246" lon="6.09789">
        <ele>385.15</ele>
        <time>2018-09-22T12:41:27Z</time>
      </trkpt>
      <trkpt lat="47.26247" lon="6.09803">
        <ele>387.07</ele>
        <time>2018-09-22T12:41:36Z</time>
      </trkpt>
      <trkpt lat="47.26248" lon="6.09805">
        <ele>387.55</ele>
        <time>2018-09-22T12:41:37Z</time>
      </trkpt>
      <trkpt lat="47.26248" lon="6.09807">
        <ele>387.55</ele>
        <time>2018-09-22T12:41:38Z</time>
      </trkpt>
      <trkpt lat="47.2625" lon="6.09814">
        <ele>388.51</ele>
        <time>2018-09-22T12:41:42Z</time>
      </trkpt>
      <trkpt lat="47.26252" lon="6.09817">
        <ele>388.51</ele>
        <time>2018-09-22T12:41:44Z</time>
      </trkpt>
      <trkpt lat="47.26255" lon="6.09837">
        <ele>390.91</ele>
        <time>2018-09-22T12:41:56Z</time>
      </trkpt>
      <trkpt lat="47.26256" lon="6.09851">
        <ele>392.36</ele>
        <time>2018-09-22T12:42:03Z</time>
      </trkpt>
      <trkpt lat="47.26257" lon="6.09873">
        <ele>395.24</ele>
        <time>2018-09-22T12:42:15Z</time>
      </trkpt>
      <trkpt lat="47.26257" lon="6.09875">
        <ele>395.72</ele>
        <time>2018-09-22T12:42:16Z</time>
      </trkpt>
      <trkpt lat="47.26258" lon="6.09881">
        <ele>396.2</ele>
        <time>2018-09-22T12:42:19Z</time>
      </trkpt>
      <trkpt lat="47.26258" lon="6.09883">
        <ele>396.68</ele>
        <time>2018-09-22T12:42:20Z</time>
      </trkpt>
      <trkpt lat="47.26258" lon="6.09886">
        <ele>396.68</ele>
        <time>2018-09-22T12:42:21Z</time>
      </trkpt>
      <trkpt lat="47.26257" lon="6.09898">
        <ele>399.08</ele>
        <time>2018-09-22T12:42:28Z</time>
      </trkpt>
      <trkpt lat="47.26257" lon="6.099">
        <ele>399.08</ele>
        <time>2018-09-22T12:42:29Z</time>
      </trkpt>
      <trkpt lat="47.26257" lon="6.09902">
        <ele>399.57</ele>
        <time>2018-09-22T12:42:31Z</time>
      </trkpt>
      <trkpt lat="47.26257" lon="6.09912">
        <ele>401.49</ele>
        <time>2018-09-22T12:42:37Z</time>
      </trkpt>
      <trkpt lat="47.26259" lon="6.09922">
        <ele>402.93</ele>
        <time>2018-09-22T12:42:45Z</time>
      </trkpt>
      <trkpt lat="47.26257" lon="6.09931">
        <ele>404.37</ele>
        <time>2018-09-22T12:42:50Z</time>
      </trkpt>
      <trkpt lat="47.26253" lon="6.09955">
        <ele>406.77</ele>
        <time>2018-09-22T12:43:03Z</time>
      </trkpt>
      <trkpt lat="47.26249" lon="6.09975">
        <ele>409.18</ele>
        <time>2018-09-22T12:43:14Z</time>
      </trkpt>
      <trkpt lat="47.26248" lon="6.09996">
        <ele>411.58</ele>
        <time>2018-09-22T12:43:26Z</time>
      </trkpt>
      <trkpt lat="47.26245" lon="6.10007">
        <ele>413.98</ele>
        <time>2018-09-22T12:43:32Z</time>
      </trkpt>
      <trkpt lat="47.26234" lon="6.10015">
        <ele>415.91</ele>
        <time>2018-09-22T12:43:43Z</time>
      </trkpt>
      <trkpt lat="47.26219" lon="6.10018">
        <ele>416.87</ele>
        <time>2018-09-22T12:43:55Z</time>
      </trkpt>
      <trkpt lat="47.26196" lon="6.10022">
        <ele>414.47</ele>
        <time>2018-09-22T12:44:03Z</time>
      </trkpt>
      <trkpt lat="47.26191" lon="6.1002">
        <ele>413.98</ele>
        <time>2018-09-22T12:44:04Z</time>
      </trkpt>
      <trkpt lat="47.26187" lon="6.10019">
        <ele>413.5</ele>
        <time>2018-09-22T12:44:05Z</time>
      </trkpt>
      <trkpt lat="47.26183" lon="6.10021">
        <ele>413.5</ele>
        <time>2018-09-22T12:44:06Z</time>
      </trkpt>
      <trkpt lat="47.2618" lon="6.10024">
        <ele>412.54</ele>
        <time>2018-09-22T12:44:07Z</time>
      </trkpt>
      <trkpt lat="47.26177" lon="6.10027">
        <ele>411.58</ele>
        <time>2018-09-22T12:44:08Z</time>
      </trkpt>
      <trkpt lat="47.26172" lon="6.10029">
        <ele>411.58</ele>
        <time>2018-09-22T12:44:09Z</time>
      </trkpt>
      <trkpt lat="47.26168" lon="6.10031">
        <ele>411.58</ele>
        <time>2018-09-22T12:44:10Z</time>
      </trkpt>
      <trkpt lat="47.26164" lon="6.10033">
        <ele>412.06</ele>
        <time>2018-09-22T12:44:11Z</time>
      </trkpt>
      <trkpt lat="47.26161" lon="6.10035">
        <ele>412.54</ele>
        <time>2018-09-22T12:44:12Z</time>
      </trkpt>
      <trkpt lat="47.26158" lon="6.10038">
        <ele>412.54</ele>
        <time>2018-09-22T12:44:13Z</time>
      </trkpt>
      <trkpt lat="47.26155" lon="6.1004">
        <ele>413.02</ele>
        <time>2018-09-22T12:44:14Z</time>
      </trkpt>
      <trkpt lat="47.26153" lon="6.10043">
        <ele>413.02</ele>
        <time>2018-09-22T12:44:15Z</time>
      </trkpt>
      <trkpt lat="47.26151" lon="6.10045">
        <ele>413.02</ele>
        <time>2018-09-22T12:44:16Z</time>
      </trkpt>
      <trkpt lat="47.26132" lon="6.10076">
        <ele>415.43</ele>
        <time>2018-09-22T12:44:27Z</time>
      </trkpt>
      <trkpt lat="47.26111" lon="6.10111">
        <ele>417.83</ele>
        <time>2018-09-22T12:44:40Z</time>
      </trkpt>
      <trkpt lat="47.26102" lon="6.10153">
        <ele>420.23</ele>
        <time>2018-09-22T12:44:52Z</time>
      </trkpt>
      <trkpt lat="47.26098" lon="6.10213">
        <ele>420.71</ele>
        <time>2018-09-22T12:45:04Z</time>
      </trkpt>
      <trkpt lat="47.26087" lon="6.10268">
        <ele>422.16</ele>
        <time>2018-09-22T12:45:15Z</time>
      </trkpt>
      <trkpt lat="47.2607" lon="6.10327">
        <ele>425.04</ele>
        <time>2018-09-22T12:45:29Z</time>
      </trkpt>
      <trkpt lat="47.26046" lon="6.10355">
        <ele>427.44</ele>
        <time>2018-09-22T12:45:40Z</time>
      </trkpt>
      <trkpt lat="47.26021" lon="6.10347">
        <ele>429.85</ele>
        <time>2018-09-22T12:45:51Z</time>
      </trkpt>
      <trkpt lat="47.26017" lon="6.10342">
        <ele>430.81</ele>
        <time>2018-09-22T12:45:54Z</time>
      </trkpt>
      <trkpt lat="47.26015" lon="6.10341">
        <ele>430.81</ele>
        <time>2018-09-22T12:45:55Z</time>
      </trkpt>
      <trkpt lat="47.26002" lon="6.10331">
        <ele>432.25</ele>
        <time>2018-09-22T12:46:02Z</time>
      </trkpt>
      <trkpt lat="47.26001" lon="6.10329">
        <ele>432.73</ele>
        <time>2018-09-22T12:46:03Z</time>
      </trkpt>
      <trkpt lat="47.25999" lon="6.10327">
        <ele>432.73</ele>
        <time>2018-09-22T12:46:04Z</time>
      </trkpt>
      <trkpt lat="47.25997" lon="6.10326">
        <ele>433.21</ele>
        <time>2018-09-22T12:46:05Z</time>
      </trkpt>
      <trkpt lat="47.25995" lon="6.10324">
        <ele>433.21</ele>
        <time>2018-09-22T12:46:06Z</time>
      </trkpt>
      <trkpt lat="47.25993" lon="6.10323">
        <ele>433.69</ele>
        <time>2018-09-22T12:46:07Z</time>
      </trkpt>
      <trkpt lat="47.25991" lon="6.10322">
        <ele>433.69</ele>
        <time>2018-09-22T12:46:08Z</time>
      </trkpt>
      <trkpt lat="47.25989" lon="6.1032">
        <ele>434.17</ele>
        <time>2018-09-22T12:46:09Z</time>
      </trkpt>
      <trkpt lat="47.25988" lon="6.10318">
        <ele>434.17</ele>
        <time>2018-09-22T12:46:10Z</time>
      </trkpt>
      <trkpt lat="47.25987" lon="6.10316">
        <ele>434.17</ele>
        <time>2018-09-22T12:46:11Z</time>
      </trkpt>
      <trkpt lat="47.25985" lon="6.10314">
        <ele>434.65</ele>
        <time>2018-09-22T12:46:12Z</time>
      </trkpt>
      <trkpt lat="47.25984" lon="6.10313">
        <ele>434.65</ele>
        <time>2018-09-22T12:46:13Z</time>
      </trkpt>
      <trkpt lat="47.25982" lon="6.10311">
        <ele>435.13</ele>
        <time>2018-09-22T12:46:14Z</time>
      </trkpt>
      <trkpt lat="47.2598" lon="6.10309">
        <ele>435.13</ele>
        <time>2018-09-22T12:46:15Z</time>
      </trkpt>
      <trkpt lat="47.25978" lon="6.10307">
        <ele>435.61</ele>
        <time>2018-09-22T12:46:16Z</time>
      </trkpt>
      <trkpt lat="47.25977" lon="6.10306">
        <ele>435.61</ele>
        <time>2018-09-22T12:46:17Z</time>
      </trkpt>
      <trkpt lat="47.25974" lon="6.10305">
        <ele>435.61</ele>
        <time>2018-09-22T12:46:18Z</time>
      </trkpt>
      <trkpt lat="47.25972" lon="6.10303">
        <ele>436.1</ele>
        <time>2018-09-22T12:46:19Z</time>
      </trkpt>
      <trkpt lat="47.2597" lon="6.10302">
        <ele>436.1</ele>
        <time>2018-09-22T12:46:20Z</time>
      </trkpt>
      <trkpt lat="47.25968" lon="6.103">
        <ele>436.58</ele>
        <time>2018-09-22T12:46:21Z</time>
      </trkpt>
      <trkpt lat="47.2596" lon="6.10295">
        <ele>437.54</ele>
        <time>2018-09-22T12:46:25Z</time>
      </trkpt>
      <trkpt lat="47.25958" lon="6.10292">
        <ele>437.54</ele>
        <time>2018-09-22T12:46:26Z</time>
      </trkpt>
      <trkpt lat="47.25955" lon="6.10291">
        <ele>438.02</ele>
        <time>2018-09-22T12:46:27Z</time>
      </trkpt>
      <trkpt lat="47.25953" lon="6.1029">
        <ele>438.02</ele>
        <time>2018-09-22T12:46:28Z</time>
      </trkpt>
      <trkpt lat="47.2595" lon="6.10289">
        <ele>438.5</ele>
        <time>2018-09-22T12:46:29Z</time>
      </trkpt>
      <trkpt lat="47.25947" lon="6.10287">
        <ele>438.5</ele>
        <time>2018-09-22T12:46:30Z</time>
      </trkpt>
      <trkpt lat="47.25935" lon="6.10281">
        <ele>439.94</ele>
        <time>2018-09-22T12:46:34Z</time>
      </trkpt>
      <trkpt lat="47.25932" lon="6.10279">
        <ele>439.94</ele>
        <time>2018-09-22T12:46:35Z</time>
      </trkpt>
      <trkpt lat="47.2593" lon="6.10278">
        <ele>439.94</ele>
        <time>2018-09-22T12:46:36Z</time>
      </trkpt>
      <trkpt lat="47.25927" lon="6.10277">
        <ele>440.42</ele>
        <time>2018-09-22T12:46:37Z</time>
      </trkpt>
      <trkpt lat="47.25925" lon="6.10276">
        <ele>440.9</ele>
        <time>2018-09-22T12:46:38Z</time>
      </trkpt>
      <trkpt lat="47.25895" lon="6.10274">
        <ele>443.31</ele>
        <time>2018-09-22T12:46:50Z</time>
      </trkpt>
      <trkpt lat="47.25868" lon="6.10273">
        <ele>445.71</ele>
        <time>2018-09-22T12:47:00Z</time>
      </trkpt>
      <trkpt lat="47.2584" lon="6.10272">
        <ele>446.67</ele>
        <time>2018-09-22T12:47:10Z</time>
      </trkpt>
      <trkpt lat="47.2581" lon="6.10271">
        <ele>449.07</ele>
        <time>2018-09-22T12:47:21Z</time>
      </trkpt>
      <trkpt lat="47.25788" lon="6.1025">
        <ele>450.52</ele>
        <time>2018-09-22T12:47:31Z</time>
      </trkpt>
      <trkpt lat="47.25787" lon="6.10246">
        <ele>451</ele>
        <time>2018-09-22T12:47:32Z</time>
      </trkpt>
      <trkpt lat="47.25787" lon="6.10243">
        <ele>451</ele>
        <time>2018-09-22T12:47:33Z</time>
      </trkpt>
      <trkpt lat="47.25787" lon="6.10239">
        <ele>451.48</ele>
        <time>2018-09-22T12:47:34Z</time>
      </trkpt>
      <trkpt lat="47.25788" lon="6.10236">
        <ele>451.48</ele>
        <time>2018-09-22T12:47:35Z</time>
      </trkpt>
      <trkpt lat="47.25792" lon="6.1022">
        <ele>453.4</ele>
        <time>2018-09-22T12:47:40Z</time>
      </trkpt>
      <trkpt lat="47.25793" lon="6.10218">
        <ele>453.88</ele>
        <time>2018-09-22T12:47:41Z</time>
      </trkpt>
      <trkpt lat="47.25817" lon="6.10181">
        <ele>455.8</ele>
        <time>2018-09-22T12:47:53Z</time>
      </trkpt>
      <trkpt lat="47.25819" lon="6.10178">
        <ele>456.28</ele>
        <time>2018-09-22T12:47:54Z</time>
      </trkpt>
      <trkpt lat="47.25821" lon="6.10175">
        <ele>456.28</ele>
        <time>2018-09-22T12:47:55Z</time>
      </trkpt>
      <trkpt lat="47.25823" lon="6.10172">
        <ele>456.28</ele>
        <time>2018-09-22T12:47:56Z</time>
      </trkpt>
      <trkpt lat="47.25825" lon="6.10169">
        <ele>456.76</ele>
        <time>2018-09-22T12:47:57Z</time>
      </trkpt>
      <trkpt lat="47.25827" lon="6.10166">
        <ele>456.76</ele>
        <time>2018-09-22T12:47:58Z</time>
      </trkpt>
      <trkpt lat="47.25829" lon="6.10163">
        <ele>456.76</ele>
        <time>2018-09-22T12:47:59Z</time>
      </trkpt>
      <trkpt lat="47.2583" lon="6.1016">
        <ele>457.24</ele>
        <time>2018-09-22T12:48:00Z</time>
      </trkpt>
      <trkpt lat="47.25847" lon="6.10133">
        <ele>460.13</ele>
        <time>2018-09-22T12:48:10Z</time>
      </trkpt>
      <trkpt lat="47.25861" lon="6.10096">
        <ele>462.05</ele>
        <time>2018-09-22T12:48:21Z</time>
      </trkpt>
      <trkpt lat="47.25868" lon="6.10059">
        <ele>464.45</ele>
        <time>2018-09-22T12:48:31Z</time>
      </trkpt>
      <trkpt lat="47.25886" lon="6.10028">
        <ele>467.34</ele>
        <time>2018-09-22T12:48:42Z</time>
      </trkpt>
      <trkpt lat="47.25908" lon="6.10002">
        <ele>469.26</ele>
        <time>2018-09-22T12:48:53Z</time>
      </trkpt>
      <trkpt lat="47.25913" lon="6.09995">
        <ele>469.74</ele>
        <time>2018-09-22T12:48:56Z</time>
      </trkpt>
      <trkpt lat="47.25914" lon="6.09992">
        <ele>469.74</ele>
        <time>2018-09-22T12:48:57Z</time>
      </trkpt>
      <trkpt lat="47.25918" lon="6.09945">
        <ele>473.11</ele>
        <time>2018-09-22T12:49:09Z</time>
      </trkpt>
      <trkpt lat="47.25906" lon="6.09905">
        <ele>475.99</ele>
        <time>2018-09-22T12:49:21Z</time>
      </trkpt>
      <trkpt lat="47.25889" lon="6.09875">
        <ele>478.39</ele>
        <time>2018-09-22T12:49:32Z</time>
      </trkpt>
      <trkpt lat="47.25873" lon="6.09852">
        <ele>480.32</ele>
        <time>2018-09-22T12:49:41Z</time>
      </trkpt>
      <trkpt lat="47.25872" lon="6.09849">
        <ele>480.8</ele>
        <time>2018-09-22T12:49:42Z</time>
      </trkpt>
      <trkpt lat="47.25871" lon="6.09847">
        <ele>480.8</ele>
        <time>2018-09-22T12:49:43Z</time>
      </trkpt>
      <trkpt lat="47.25845" lon="6.09812">
        <ele>484.16</ele>
        <time>2018-09-22T12:49:57Z</time>
      </trkpt>
      <trkpt lat="47.25817" lon="6.09782">
        <ele>487.05</ele>
        <time>2018-09-22T12:50:10Z</time>
      </trkpt>
      <trkpt lat="47.25785" lon="6.09756">
        <ele>489.93</ele>
        <time>2018-09-22T12:50:23Z</time>
      </trkpt>
      <trkpt lat="47.25756" lon="6.09728">
        <ele>492.33</ele>
        <time>2018-09-22T12:50:35Z</time>
      </trkpt>
      <trkpt lat="47.2573" lon="6.09692">
        <ele>493.77</ele>
        <time>2018-09-22T12:50:47Z</time>
      </trkpt>
      <trkpt lat="47.25692" lon="6.09663">
        <ele>496.18</ele>
        <time>2018-09-22T12:51:00Z</time>
      </trkpt>
      <trkpt lat="47.25649" lon="6.09666">
        <ele>498.1</ele>
        <time>2018-09-22T12:51:12Z</time>
      </trkpt>
      <trkpt lat="47.25625" lon="6.09709">
        <ele>500.5</ele>
        <time>2018-09-22T12:51:23Z</time>
      </trkpt>
      <trkpt lat="47.25604" lon="6.09762">
        <ele>502.43</ele>
        <time>2018-09-22T12:51:35Z</time>
      </trkpt>
      <trkpt lat="47.25591" lon="6.09788">
        <ele>503.39</ele>
        <time>2018-09-22T12:51:41Z</time>
      </trkpt>
      <trkpt lat="47.25561" lon="6.09849">
        <ele>504.83</ele>
        <time>2018-09-22T12:51:55Z</time>
      </trkpt>
      <trkpt lat="47.25541" lon="6.09887">
        <ele>506.27</ele>
        <time>2018-09-22T12:52:05Z</time>
      </trkpt>
      <trkpt lat="47.25511" lon="6.09935">
        <ele>508.19</ele>
        <time>2018-09-22T12:52:17Z</time>
      </trkpt>
      <trkpt lat="47.25479" lon="6.09972">
        <ele>509.64</ele>
        <time>2018-09-22T12:52:28Z</time>
      </trkpt>
      <trkpt lat="47.25447" lon="6.10011">
        <ele>511.08</ele>
        <time>2018-09-22T12:52:39Z</time>
      </trkpt>
      <trkpt lat="47.25428" lon="6.10067">
        <ele>513</ele>
        <time>2018-09-22T12:52:50Z</time>
      </trkpt>
      <trkpt lat="47.25426" lon="6.10079">
        <ele>513</ele>
        <time>2018-09-22T12:52:52Z</time>
      </trkpt>
      <trkpt lat="47.25425" lon="6.10085">
        <ele>513</ele>
        <time>2018-09-22T12:52:53Z</time>
      </trkpt>
      <trkpt lat="47.25424" lon="6.10091">
        <ele>513.48</ele>
        <time>2018-09-22T12:52:54Z</time>
      </trkpt>
      <trkpt lat="47.25423" lon="6.10097">
        <ele>513.48</ele>
        <time>2018-09-22T12:52:55Z</time>
      </trkpt>
      <trkpt lat="47.25422" lon="6.10103">
        <ele>513.48</ele>
        <time>2018-09-22T12:52:56Z</time>
      </trkpt>
      <trkpt lat="47.25421" lon="6.10108">
        <ele>513.48</ele>
        <time>2018-09-22T12:52:57Z</time>
      </trkpt>
      <trkpt lat="47.25414" lon="6.10171">
        <ele>514.92</ele>
        <time>2018-09-22T12:53:08Z</time>
      </trkpt>
      <trkpt lat="47.2541" lon="6.1022">
        <ele>515.88</ele>
        <time>2018-09-22T12:53:16Z</time>
      </trkpt>
      <trkpt lat="47.2541" lon="6.10226">
        <ele>516.37</ele>
        <time>2018-09-22T12:53:17Z</time>
      </trkpt>
      <trkpt lat="47.25414" lon="6.10289">
        <ele>518.77</ele>
        <time>2018-09-22T12:53:29Z</time>
      </trkpt>
      <trkpt lat="47.25417" lon="6.10298">
        <ele>518.77</ele>
        <time>2018-09-22T12:53:31Z</time>
      </trkpt>
      <trkpt lat="47.25417" lon="6.10303">
        <ele>519.25</ele>
        <time>2018-09-22T12:53:32Z</time>
      </trkpt>
      <trkpt lat="47.25417" lon="6.10308">
        <ele>519.73</ele>
        <time>2018-09-22T12:53:33Z</time>
      </trkpt>
      <trkpt lat="47.25417" lon="6.10313">
        <ele>520.21</ele>
        <time>2018-09-22T12:53:34Z</time>
      </trkpt>
      <trkpt lat="47.25418" lon="6.10318">
        <ele>520.21</ele>
        <time>2018-09-22T12:53:35Z</time>
      </trkpt>
      <trkpt lat="47.25426" lon="6.10365">
        <ele>522.61</ele>
        <time>2018-09-22T12:53:45Z</time>
      </trkpt>
      <trkpt lat="47.25433" lon="6.10416">
        <ele>525.5</ele>
        <time>2018-09-22T12:53:56Z</time>
      </trkpt>
      <trkpt lat="47.25432" lon="6.10419">
        <ele>525.5</ele>
        <time>2018-09-22T12:53:57Z</time>
      </trkpt>
      <trkpt lat="47.25429" lon="6.10421">
        <ele>526.46</ele>
        <time>2018-09-22T12:53:58Z</time>
      </trkpt>
      <trkpt lat="47.25426" lon="6.10421">
        <ele>526.46</ele>
        <time>2018-09-22T12:53:59Z</time>
      </trkpt>
      <trkpt lat="47.25424" lon="6.10419">
        <ele>526.94</ele>
        <time>2018-09-22T12:54:00Z</time>
      </trkpt>
      <trkpt lat="47.25422" lon="6.10417">
        <ele>526.94</ele>
        <time>2018-09-22T12:54:01Z</time>
      </trkpt>
      <trkpt lat="47.254" lon="6.10388">
        <ele>529.34</ele>
        <time>2018-09-22T12:54:12Z</time>
      </trkpt>
      <trkpt lat="47.2537" lon="6.10364">
        <ele>532.23</ele>
        <time>2018-09-22T12:54:23Z</time>
      </trkpt>
      <trkpt lat="47.25337" lon="6.10358">
        <ele>535.59</ele>
        <time>2018-09-22T12:54:34Z</time>
      </trkpt>
      <trkpt lat="47.25301" lon="6.10365">
        <ele>538.48</ele>
        <time>2018-09-22T12:54:46Z</time>
      </trkpt>
      <trkpt lat="47.25276" lon="6.10367">
        <ele>540.88</ele>
        <time>2018-09-22T12:54:54Z</time>
      </trkpt>
      <trkpt lat="47.25274" lon="6.10364">
        <ele>540.88</ele>
        <time>2018-09-22T12:54:55Z</time>
      </trkpt>
      <trkpt lat="47.25272" lon="6.10361">
        <ele>540.88</ele>
        <time>2018-09-22T12:54:56Z</time>
      </trkpt>
      <trkpt lat="47.25271" lon="6.10357">
        <ele>541.36</ele>
        <time>2018-09-22T12:54:57Z</time>
      </trkpt>
      <trkpt lat="47.2527" lon="6.10354">
        <ele>541.84</ele>
        <time>2018-09-22T12:54:58Z</time>
      </trkpt>
      <trkpt lat="47.2527" lon="6.10349">
        <ele>542.32</ele>
        <time>2018-09-22T12:54:59Z</time>
      </trkpt>
      <trkpt lat="47.2527" lon="6.10345">
        <ele>542.8</ele>
        <time>2018-09-22T12:55:00Z</time>
      </trkpt>
      <trkpt lat="47.25271" lon="6.1034">
        <ele>542.8</ele>
        <time>2018-09-22T12:55:01Z</time>
      </trkpt>
      <trkpt lat="47.25276" lon="6.10295">
        <ele>544.24</ele>
        <time>2018-09-22T12:55:11Z</time>
      </trkpt>
      <trkpt lat="47.25264" lon="6.10255">
        <ele>547.13</ele>
        <time>2018-09-22T12:55:21Z</time>
      </trkpt>
      <trkpt lat="47.25238" lon="6.10233">
        <ele>549.53</ele>
        <time>2018-09-22T12:55:30Z</time>
      </trkpt>
      <trkpt lat="47.25211" lon="6.10214">
        <ele>552.9</ele>
        <time>2018-09-22T12:55:39Z</time>
      </trkpt>
      <trkpt lat="47.2518" lon="6.1019">
        <ele>555.78</ele>
        <time>2018-09-22T12:55:50Z</time>
      </trkpt>
      <trkpt lat="47.25156" lon="6.10165">
        <ele>558.66</ele>
        <time>2018-09-22T12:56:00Z</time>
      </trkpt>
      <trkpt lat="47.25144" lon="6.10148">
        <ele>560.59</ele>
        <time>2018-09-22T12:56:08Z</time>
      </trkpt>
      <trkpt lat="47.25142" lon="6.10147">
        <ele>560.59</ele>
        <time>2018-09-22T12:56:09Z</time>
      </trkpt>
      <trkpt lat="47.25141" lon="6.10146">
        <ele>561.07</ele>
        <time>2018-09-22T12:56:10Z</time>
      </trkpt>
      <trkpt lat="47.25139" lon="6.10145">
        <ele>561.07</ele>
        <time>2018-09-22T12:56:11Z</time>
      </trkpt>
      <trkpt lat="47.25138" lon="6.10143">
        <ele>561.55</ele>
        <time>2018-09-22T12:56:12Z</time>
      </trkpt>
      <trkpt lat="47.25138" lon="6.10141">
        <ele>561.55</ele>
        <time>2018-09-22T12:56:13Z</time>
      </trkpt>
      <trkpt lat="47.25137" lon="6.10138">
        <ele>561.55</ele>
        <time>2018-09-22T12:56:14Z</time>
      </trkpt>
      <trkpt lat="47.25137" lon="6.10135">
        <ele>561.55</ele>
        <time>2018-09-22T12:56:15Z</time>
      </trkpt>
      <trkpt lat="47.25136" lon="6.10132">
        <ele>561.55</ele>
        <time>2018-09-22T12:56:16Z</time>
      </trkpt>
      <trkpt lat="47.25133" lon="6.10129">
        <ele>561.55</ele>
        <time>2018-09-22T12:56:17Z</time>
      </trkpt>
      <trkpt lat="47.25111" lon="6.10101">
        <ele>562.03</ele>
        <time>2018-09-22T12:56:26Z</time>
      </trkpt>
      <trkpt lat="47.25086" lon="6.10049">
        <ele>562.03</ele>
        <time>2018-09-22T12:56:37Z</time>
      </trkpt>
      <trkpt lat="47.25063" lon="6.09998">
        <ele>562.03</ele>
        <time>2018-09-22T12:56:46Z</time>
      </trkpt>
      <trkpt lat="47.2506" lon="6.09991">
        <ele>561.55</ele>
        <time>2018-09-22T12:56:47Z</time>
      </trkpt>
      <trkpt lat="47.25039" lon="6.0994">
        <ele>561.55</ele>
        <time>2018-09-22T12:56:55Z</time>
      </trkpt>
      <trkpt lat="47.25032" lon="6.09922">
        <ele>561.55</ele>
        <time>2018-09-22T12:56:58Z</time>
      </trkpt>
      <trkpt lat="47.25029" lon="6.09917">
        <ele>561.55</ele>
        <time>2018-09-22T12:56:59Z</time>
      </trkpt>
      <trkpt lat="47.25025" lon="6.09914">
        <ele>562.03</ele>
        <time>2018-09-22T12:57:00Z</time>
      </trkpt>
      <trkpt lat="47.25013" lon="6.09904">
        <ele>562.03</ele>
        <time>2018-09-22T12:57:03Z</time>
      </trkpt>
      <trkpt lat="47.25009" lon="6.09902">
        <ele>562.03</ele>
        <time>2018-09-22T12:57:04Z</time>
      </trkpt>
      <trkpt lat="47.25004" lon="6.099">
        <ele>562.03</ele>
        <time>2018-09-22T12:57:05Z</time>
      </trkpt>
      <trkpt lat="47.24989" lon="6.09896">
        <ele>562.03</ele>
        <time>2018-09-22T12:57:08Z</time>
      </trkpt>
      <trkpt lat="47.24969" lon="6.09887">
        <ele>561.07</ele>
        <time>2018-09-22T12:57:12Z</time>
      </trkpt>
      <trkpt lat="47.2496" lon="6.09879">
        <ele>561.07</ele>
        <time>2018-09-22T12:57:14Z</time>
      </trkpt>
      <trkpt lat="47.24952" lon="6.0987">
        <ele>561.07</ele>
        <time>2018-09-22T12:57:16Z</time>
      </trkpt>
      <trkpt lat="47.24949" lon="6.09865">
        <ele>561.07</ele>
        <time>2018-09-22T12:57:17Z</time>
      </trkpt>
      <trkpt lat="47.24938" lon="6.09844">
        <ele>562.51</ele>
        <time>2018-09-22T12:57:21Z</time>
      </trkpt>
      <trkpt lat="47.24935" lon="6.09839">
        <ele>562.03</ele>
        <time>2018-09-22T12:57:22Z</time>
      </trkpt>
      <trkpt lat="47.24932" lon="6.09822">
        <ele>562.51</ele>
        <time>2018-09-22T12:57:25Z</time>
      </trkpt>
      <trkpt lat="47.24934" lon="6.09818">
        <ele>563.47</ele>
        <time>2018-09-22T12:57:26Z</time>
      </trkpt>
      <trkpt lat="47.24936" lon="6.09817">
        <ele>563.95</ele>
        <time>2018-09-22T12:57:27Z</time>
      </trkpt>
      <trkpt lat="47.24939" lon="6.09816">
        <ele>563.95</ele>
        <time>2018-09-22T12:57:28Z</time>
      </trkpt>
      <trkpt lat="47.24943" lon="6.09814">
        <ele>564.43</ele>
        <time>2018-09-22T12:57:29Z</time>
      </trkpt>
      <trkpt lat="47.24945" lon="6.0981">
        <ele>564.43</ele>
        <time>2018-09-22T12:57:30Z</time>
      </trkpt>
      <trkpt lat="47.24947" lon="6.09806">
        <ele>564.91</ele>
        <time>2018-09-22T12:57:31Z</time>
      </trkpt>
      <trkpt lat="47.24948" lon="6.09801">
        <ele>564.91</ele>
        <time>2018-09-22T12:57:32Z</time>
      </trkpt>
      <trkpt lat="47.24948" lon="6.09796">
        <ele>565.39</ele>
        <time>2018-09-22T12:57:33Z</time>
      </trkpt>
      <trkpt lat="47.24944" lon="6.0974">
        <ele>567.8</ele>
        <time>2018-09-22T12:57:45Z</time>
      </trkpt>
      <trkpt lat="47.24915" lon="6.09663">
        <ele>568.76</ele>
        <time>2018-09-22T12:58:01Z</time>
      </trkpt>
      <trkpt lat="47.24892" lon="6.09597">
        <ele>570.68</ele>
        <time>2018-09-22T12:58:14Z</time>
      </trkpt>
      <trkpt lat="47.2489" lon="6.09592">
        <ele>570.68</ele>
        <time>2018-09-22T12:58:15Z</time>
      </trkpt>
      <trkpt lat="47.24872" lon="6.09525">
        <ele>572.6</ele>
        <time>2018-09-22T12:58:28Z</time>
      </trkpt>
      <trkpt lat="47.24873" lon="6.09458">
        <ele>575.01</ele>
        <time>2018-09-22T12:58:41Z</time>
      </trkpt>
      <trkpt lat="47.24876" lon="6.09404">
        <ele>575.97</ele>
        <time>2018-09-22T12:58:53Z</time>
      </trkpt>
      <trkpt lat="47.24858" lon="6.09373">
        <ele>577.41</ele>
        <time>2018-09-22T12:59:01Z</time>
      </trkpt>
      <trkpt lat="47.24834" lon="6.09335">
        <ele>578.37</ele>
        <time>2018-09-22T12:59:10Z</time>
      </trkpt>
      <trkpt lat="47.24832" lon="6.09326">
        <ele>578.85</ele>
        <time>2018-09-22T12:59:12Z</time>
      </trkpt>
      <trkpt lat="47.24832" lon="6.09322">
        <ele>578.85</ele>
        <time>2018-09-22T12:59:13Z</time>
      </trkpt>
      <trkpt lat="47.24833" lon="6.09319">
        <ele>579.33</ele>
        <time>2018-09-22T12:59:14Z</time>
      </trkpt>
      <trkpt lat="47.24833" lon="6.09315">
        <ele>579.81</ele>
        <time>2018-09-22T12:59:15Z</time>
      </trkpt>
      <trkpt lat="47.24833" lon="6.09312">
        <ele>579.81</ele>
        <time>2018-09-22T12:59:16Z</time>
      </trkpt>
      <trkpt lat="47.24833" lon="6.09307">
        <ele>580.29</ele>
        <time>2018-09-22T12:59:17Z</time>
      </trkpt>
      <trkpt lat="47.24833" lon="6.09303">
        <ele>580.77</ele>
        <time>2018-09-22T12:59:18Z</time>
      </trkpt>
      <trkpt lat="47.24832" lon="6.09298">
        <ele>581.25</ele>
        <time>2018-09-22T12:59:19Z</time>
      </trkpt>
      <trkpt lat="47.24831" lon="6.09295">
        <ele>581.73</ele>
        <time>2018-09-22T12:59:20Z</time>
      </trkpt>
      <trkpt lat="47.24829" lon="6.09293">
        <ele>581.73</ele>
        <time>2018-09-22T12:59:21Z</time>
      </trkpt>
      <trkpt lat="47.24806" lon="6.09301">
        <ele>583.18</ele>
        <time>2018-09-22T12:59:28Z</time>
      </trkpt>
      <trkpt lat="47.24769" lon="6.09307">
        <ele>583.66</ele>
        <time>2018-09-22T12:59:38Z</time>
      </trkpt>
      <trkpt lat="47.24725" lon="6.09301">
        <ele>586.06</ele>
        <time>2018-09-22T12:59:50Z</time>
      </trkpt>
      <trkpt lat="47.24694" lon="6.09274">
        <ele>587.5</ele>
        <time>2018-09-22T13:00:00Z</time>
      </trkpt>
      <trkpt lat="47.24659" lon="6.0923">
        <ele>589.43</ele>
        <time>2018-09-22T13:00:12Z</time>
      </trkpt>
      <trkpt lat="47.24639" lon="6.09203">
        <ele>590.39</ele>
        <time>2018-09-22T13:00:18Z</time>
      </trkpt>
      <trkpt lat="47.24636" lon="6.09198">
        <ele>590.39</ele>
        <time>2018-09-22T13:00:19Z</time>
      </trkpt>
      <trkpt lat="47.24633" lon="6.09193">
        <ele>590.87</ele>
        <time>2018-09-22T13:00:20Z</time>
      </trkpt>
      <trkpt lat="47.24604" lon="6.09142">
        <ele>592.31</ele>
        <time>2018-09-22T13:00:31Z</time>
      </trkpt>
      <trkpt lat="47.24602" lon="6.09137">
        <ele>592.31</ele>
        <time>2018-09-22T13:00:32Z</time>
      </trkpt>
      <trkpt lat="47.246" lon="6.09132">
        <ele>592.79</ele>
        <time>2018-09-22T13:00:33Z</time>
      </trkpt>
      <trkpt lat="47.24576" lon="6.09072">
        <ele>594.71</ele>
        <time>2018-09-22T13:00:45Z</time>
      </trkpt>
      <trkpt lat="47.24569" lon="6.09056">
        <ele>594.71</ele>
        <time>2018-09-22T13:00:48Z</time>
      </trkpt>
      <trkpt lat="47.24567" lon="6.09051">
        <ele>594.71</ele>
        <time>2018-09-22T13:00:49Z</time>
      </trkpt>
      <trkpt lat="47.24565" lon="6.09046">
        <ele>595.19</ele>
        <time>2018-09-22T13:00:50Z</time>
      </trkpt>
      <trkpt lat="47.24539" lon="6.08974">
        <ele>596.64</ele>
        <time>2018-09-22T13:01:04Z</time>
      </trkpt>
      <trkpt lat="47.2453" lon="6.0895">
        <ele>597.6</ele>
        <time>2018-09-22T13:01:09Z</time>
      </trkpt>
      <trkpt lat="47.24515" lon="6.08901">
        <ele>598.08</ele>
        <time>2018-09-22T13:01:19Z</time>
      </trkpt>
      <trkpt lat="47.24499" lon="6.08855">
        <ele>599.04</ele>
        <time>2018-09-22T13:01:29Z</time>
      </trkpt>
      <trkpt lat="47.24499" lon="6.08847">
        <ele>600</ele>
        <time>2018-09-22T13:01:31Z</time>
      </trkpt>
      <trkpt lat="47.24503" lon="6.08838">
        <ele>602.4</ele>
        <time>2018-09-22T13:01:35Z</time>
      </trkpt>
      <trkpt lat="47.24504" lon="6.08833">
        <ele>603.36</ele>
        <time>2018-09-22T13:01:37Z</time>
      </trkpt>
      <trkpt lat="47.24505" lon="6.08824">
        <ele>602.4</ele>
        <time>2018-09-22T13:01:40Z</time>
      </trkpt>
      <trkpt lat="47.24484" lon="6.08798">
        <ele>600.96</ele>
        <time>2018-09-22T13:01:49Z</time>
      </trkpt>
      <trkpt lat="47.24476" lon="6.08787">
        <ele>600</ele>
        <time>2018-09-22T13:01:52Z</time>
      </trkpt>
      <trkpt lat="47.24473" lon="6.08782">
        <ele>600</ele>
        <time>2018-09-22T13:01:53Z</time>
      </trkpt>
      <trkpt lat="47.2447" lon="6.08777">
        <ele>600</ele>
        <time>2018-09-22T13:01:54Z</time>
      </trkpt>
      <trkpt lat="47.24466" lon="6.08773">
        <ele>600</ele>
        <time>2018-09-22T13:01:55Z</time>
      </trkpt>
      <trkpt lat="47.24463" lon="6.08768">
        <ele>600</ele>
        <time>2018-09-22T13:01:56Z</time>
      </trkpt>
      <trkpt lat="47.2446" lon="6.08762">
        <ele>600.48</ele>
        <time>2018-09-22T13:01:57Z</time>
      </trkpt>
      <trkpt lat="47.24459" lon="6.08756">
        <ele>600.48</ele>
        <time>2018-09-22T13:01:58Z</time>
      </trkpt>
      <trkpt lat="47.24459" lon="6.0875">
        <ele>600.48</ele>
        <time>2018-09-22T13:01:59Z</time>
      </trkpt>
      <trkpt lat="47.24461" lon="6.08744">
        <ele>600.96</ele>
        <time>2018-09-22T13:02:00Z</time>
      </trkpt>
      <trkpt lat="47.24462" lon="6.08739">
        <ele>600.96</ele>
        <time>2018-09-22T13:02:01Z</time>
      </trkpt>
      <trkpt lat="47.24464" lon="6.08733">
        <ele>600.96</ele>
        <time>2018-09-22T13:02:02Z</time>
      </trkpt>
      <trkpt lat="47.24466" lon="6.08727">
        <ele>600.96</ele>
        <time>2018-09-22T13:02:03Z</time>
      </trkpt>
      <trkpt lat="47.24468" lon="6.08722">
        <ele>600.96</ele>
        <time>2018-09-22T13:02:04Z</time>
      </trkpt>
      <trkpt lat="47.2447" lon="6.08716">
        <ele>600.96</ele>
        <time>2018-09-22T13:02:05Z</time>
      </trkpt>
      <trkpt lat="47.24472" lon="6.0871">
        <ele>600.96</ele>
        <time>2018-09-22T13:02:06Z</time>
      </trkpt>
      <trkpt lat="47.24473" lon="6.08704">
        <ele>600.96</ele>
        <time>2018-09-22T13:02:07Z</time>
      </trkpt>
      <trkpt lat="47.24475" lon="6.08699">
        <ele>600.48</ele>
        <time>2018-09-22T13:02:08Z</time>
      </trkpt>
      <trkpt lat="47.24478" lon="6.08694">
        <ele>600.48</ele>
        <time>2018-09-22T13:02:09Z</time>
      </trkpt>
      <trkpt lat="47.24481" lon="6.08689">
        <ele>600.48</ele>
        <time>2018-09-22T13:02:10Z</time>
      </trkpt>
      <trkpt lat="47.24483" lon="6.08684">
        <ele>600.48</ele>
        <time>2018-09-22T13:02:11Z</time>
      </trkpt>
      <trkpt lat="47.24486" lon="6.08679">
        <ele>600.48</ele>
        <time>2018-09-22T13:02:12Z</time>
      </trkpt>
      <trkpt lat="47.24488" lon="6.08674">
        <ele>600.48</ele>
        <time>2018-09-22T13:02:13Z</time>
      </trkpt>
      <trkpt lat="47.24497" lon="6.08653">
        <ele>600</ele>
        <time>2018-09-22T13:02:17Z</time>
      </trkpt>
      <trkpt lat="47.24501" lon="6.0864">
        <ele>599.52</ele>
        <time>2018-09-22T13:02:19Z</time>
      </trkpt>
      <trkpt lat="47.24503" lon="6.08634">
        <ele>599.04</ele>
        <time>2018-09-22T13:02:20Z</time>
      </trkpt>
      <trkpt lat="47.24506" lon="6.08626">
        <ele>598.56</ele>
        <time>2018-09-22T13:02:21Z</time>
      </trkpt>
      <trkpt lat="47.24509" lon="6.08619">
        <ele>598.08</ele>
        <time>2018-09-22T13:02:22Z</time>
      </trkpt>
      <trkpt lat="47.24511" lon="6.08612">
        <ele>597.12</ele>
        <time>2018-09-22T13:02:23Z</time>
      </trkpt>
      <trkpt lat="47.24514" lon="6.08603">
        <ele>596.64</ele>
        <time>2018-09-22T13:02:24Z</time>
      </trkpt>
      <trkpt lat="47.24516" lon="6.08586">
        <ele>595.67</ele>
        <time>2018-09-22T13:02:26Z</time>
      </trkpt>
      <trkpt lat="47.24515" lon="6.08578">
        <ele>595.67</ele>
        <time>2018-09-22T13:02:27Z</time>
      </trkpt>
      <trkpt lat="47.24513" lon="6.0857">
        <ele>595.67</ele>
        <time>2018-09-22T13:02:28Z</time>
      </trkpt>
      <trkpt lat="47.24509" lon="6.08564">
        <ele>595.67</ele>
        <time>2018-09-22T13:02:29Z</time>
      </trkpt>
      <trkpt lat="47.24505" lon="6.08559">
        <ele>595.19</ele>
        <time>2018-09-22T13:02:30Z</time>
      </trkpt>
      <trkpt lat="47.24501" lon="6.08554">
        <ele>595.19</ele>
        <time>2018-09-22T13:02:31Z</time>
      </trkpt>
      <trkpt lat="47.24497" lon="6.08549">
        <ele>595.67</ele>
        <time>2018-09-22T13:02:32Z</time>
      </trkpt>
      <trkpt lat="47.24493" lon="6.08544">
        <ele>595.19</ele>
        <time>2018-09-22T13:02:33Z</time>
      </trkpt>
      <trkpt lat="47.24489" lon="6.08539">
        <ele>595.19</ele>
        <time>2018-09-22T13:02:34Z</time>
      </trkpt>
      <trkpt lat="47.24469" lon="6.08508">
        <ele>591.35</ele>
        <time>2018-09-22T13:02:39Z</time>
      </trkpt>
      <trkpt lat="47.24464" lon="6.08502">
        <ele>590.87</ele>
        <time>2018-09-22T13:02:40Z</time>
      </trkpt>
      <trkpt lat="47.24459" lon="6.08496">
        <ele>589.91</ele>
        <time>2018-09-22T13:02:41Z</time>
      </trkpt>
      <trkpt lat="47.24447" lon="6.08481">
        <ele>587.98</ele>
        <time>2018-09-22T13:02:43Z</time>
      </trkpt>
      <trkpt lat="47.24441" lon="6.08473">
        <ele>587.5</ele>
        <time>2018-09-22T13:02:44Z</time>
      </trkpt>
      <trkpt lat="47.24423" lon="6.08452">
        <ele>585.1</ele>
        <time>2018-09-22T13:02:47Z</time>
      </trkpt>
      <trkpt lat="47.24416" lon="6.08446">
        <ele>584.14</ele>
        <time>2018-09-22T13:02:48Z</time>
      </trkpt>
      <trkpt lat="47.24382" lon="6.08419">
        <ele>580.77</ele>
        <time>2018-09-22T13:02:52Z</time>
      </trkpt>
      <trkpt lat="47.24346" lon="6.08386">
        <ele>577.41</ele>
        <time>2018-09-22T13:02:56Z</time>
      </trkpt>
      <trkpt lat="47.24328" lon="6.0837">
        <ele>575.49</ele>
        <time>2018-09-22T13:02:58Z</time>
      </trkpt>
      <trkpt lat="47.2429" lon="6.08336">
        <ele>571.16</ele>
        <time>2018-09-22T13:03:02Z</time>
      </trkpt>
      <trkpt lat="47.24271" lon="6.08319">
        <ele>569.72</ele>
        <time>2018-09-22T13:03:04Z</time>
      </trkpt>
      <trkpt lat="47.24261" lon="6.08312">
        <ele>568.28</ele>
        <time>2018-09-22T13:03:05Z</time>
      </trkpt>
      <trkpt lat="47.24241" lon="6.08294">
        <ele>565.39</ele>
        <time>2018-09-22T13:03:07Z</time>
      </trkpt>
      <trkpt lat="47.24214" lon="6.08268">
        <ele>562.51</ele>
        <time>2018-09-22T13:03:10Z</time>
      </trkpt>
      <trkpt lat="47.24184" lon="6.08228">
        <ele>558.18</ele>
        <time>2018-09-22T13:03:14Z</time>
      </trkpt>
      <trkpt lat="47.24157" lon="6.08201">
        <ele>555.78</ele>
        <time>2018-09-22T13:03:17Z</time>
      </trkpt>
      <trkpt lat="47.24148" lon="6.08193">
        <ele>554.82</ele>
        <time>2018-09-22T13:03:18Z</time>
      </trkpt>
      <trkpt lat="47.24139" lon="6.08185">
        <ele>554.34</ele>
        <time>2018-09-22T13:03:19Z</time>
      </trkpt>
      <trkpt lat="47.24129" lon="6.08176">
        <ele>553.38</ele>
        <time>2018-09-22T13:03:20Z</time>
      </trkpt>
      <trkpt lat="47.2412" lon="6.08166">
        <ele>552.41</ele>
        <time>2018-09-22T13:03:21Z</time>
      </trkpt>
      <trkpt lat="47.24103" lon="6.08144">
        <ele>550.97</ele>
        <time>2018-09-22T13:03:23Z</time>
      </trkpt>
      <trkpt lat="47.24078" lon="6.08115">
        <ele>547.13</ele>
        <time>2018-09-22T13:03:26Z</time>
      </trkpt>
      <trkpt lat="47.24051" lon="6.08087">
        <ele>544.24</ele>
        <time>2018-09-22T13:03:29Z</time>
      </trkpt>
      <trkpt lat="47.24023" lon="6.08058">
        <ele>540.4</ele>
        <time>2018-09-22T13:03:32Z</time>
      </trkpt>
      <trkpt lat="47.23986" lon="6.08017">
        <ele>537.03</ele>
        <time>2018-09-22T13:03:36Z</time>
      </trkpt>
      <trkpt lat="47.23957" lon="6.07986">
        <ele>534.15</ele>
        <time>2018-09-22T13:03:39Z</time>
      </trkpt>
      <trkpt lat="47.23882" lon="6.07911">
        <ele>531.75</ele>
        <time>2018-09-22T13:03:48Z</time>
      </trkpt>
      <trkpt lat="47.23849" lon="6.07881">
        <ele>530.3</ele>
        <time>2018-09-22T13:03:52Z</time>
      </trkpt>
      <trkpt lat="47.23839" lon="6.07878">
        <ele>530.3</ele>
        <time>2018-09-22T13:03:53Z</time>
      </trkpt>
      <trkpt lat="47.23805" lon="6.07876">
        <ele>526.94</ele>
        <time>2018-09-22T13:03:57Z</time>
      </trkpt>
      <trkpt lat="47.23767" lon="6.07881">
        <ele>524.54</ele>
        <time>2018-09-22T13:04:01Z</time>
      </trkpt>
      <trkpt lat="47.23719" lon="6.07893">
        <ele>521.17</ele>
        <time>2018-09-22T13:04:06Z</time>
      </trkpt>
      <trkpt lat="47.237" lon="6.07896">
        <ele>520.21</ele>
        <time>2018-09-22T13:04:08Z</time>
      </trkpt>
      <trkpt lat="47.23693" lon="6.07895">
        <ele>519.25</ele>
        <time>2018-09-22T13:04:09Z</time>
      </trkpt>
      <trkpt lat="47.23687" lon="6.07891">
        <ele>519.25</ele>
        <time>2018-09-22T13:04:10Z</time>
      </trkpt>
      <trkpt lat="47.23683" lon="6.07883">
        <ele>519.25</ele>
        <time>2018-09-22T13:04:11Z</time>
      </trkpt>
      <trkpt lat="47.23681" lon="6.07874">
        <ele>518.29</ele>
        <time>2018-09-22T13:04:12Z</time>
      </trkpt>
      <trkpt lat="47.23682" lon="6.07863">
        <ele>517.81</ele>
        <time>2018-09-22T13:04:13Z</time>
      </trkpt>
      <trkpt lat="47.23685" lon="6.07854">
        <ele>517.33</ele>
        <time>2018-09-22T13:04:14Z</time>
      </trkpt>
      <trkpt lat="47.2369" lon="6.07847">
        <ele>517.33</ele>
        <time>2018-09-22T13:04:15Z</time>
      </trkpt>
      <trkpt lat="47.23696" lon="6.07841">
        <ele>516.85</ele>
        <time>2018-09-22T13:04:16Z</time>
      </trkpt>
      <trkpt lat="47.23702" lon="6.07835">
        <ele>515.88</ele>
        <time>2018-09-22T13:04:17Z</time>
      </trkpt>
      <trkpt lat="47.23708" lon="6.07829">
        <ele>515.4</ele>
        <time>2018-09-22T13:04:18Z</time>
      </trkpt>
      <trkpt lat="47.23719" lon="6.07815">
        <ele>514.44</ele>
        <time>2018-09-22T13:04:20Z</time>
      </trkpt>
      <trkpt lat="47.23725" lon="6.07807">
        <ele>513.96</ele>
        <time>2018-09-22T13:04:21Z</time>
      </trkpt>
      <trkpt lat="47.23736" lon="6.07789">
        <ele>513</ele>
        <time>2018-09-22T13:04:23Z</time>
      </trkpt>
      <trkpt lat="47.23744" lon="6.07782">
        <ele>512.52</ele>
        <time>2018-09-22T13:04:24Z</time>
      </trkpt>
      <trkpt lat="47.23767" lon="6.0776">
        <ele>509.64</ele>
        <time>2018-09-22T13:04:27Z</time>
      </trkpt>
      <trkpt lat="47.23773" lon="6.07751">
        <ele>508.67</ele>
        <time>2018-09-22T13:04:28Z</time>
      </trkpt>
      <trkpt lat="47.23778" lon="6.07739">
        <ele>507.71</ele>
        <time>2018-09-22T13:04:29Z</time>
      </trkpt>
      <trkpt lat="47.2378" lon="6.07725">
        <ele>506.75</ele>
        <time>2018-09-22T13:04:30Z</time>
      </trkpt>
      <trkpt lat="47.23782" lon="6.07711">
        <ele>505.31</ele>
        <time>2018-09-22T13:04:31Z</time>
      </trkpt>
      <trkpt lat="47.23782" lon="6.07698">
        <ele>504.83</ele>
        <time>2018-09-22T13:04:32Z</time>
      </trkpt>
      <trkpt lat="47.23781" lon="6.07686">
        <ele>504.35</ele>
        <time>2018-09-22T13:04:33Z</time>
      </trkpt>
      <trkpt lat="47.23777" lon="6.07675">
        <ele>504.35</ele>
        <time>2018-09-22T13:04:34Z</time>
      </trkpt>
      <trkpt lat="47.2377" lon="6.07668">
        <ele>502.91</ele>
        <time>2018-09-22T13:04:35Z</time>
      </trkpt>
      <trkpt lat="47.23762" lon="6.07663">
        <ele>502.43</ele>
        <time>2018-09-22T13:04:36Z</time>
      </trkpt>
      <trkpt lat="47.23753" lon="6.0766">
        <ele>501.95</ele>
        <time>2018-09-22T13:04:37Z</time>
      </trkpt>
      <trkpt lat="47.23706" lon="6.0765">
        <ele>499.06</ele>
        <time>2018-09-22T13:04:42Z</time>
      </trkpt>
      <trkpt lat="47.23697" lon="6.07652">
        <ele>497.14</ele>
        <time>2018-09-22T13:04:43Z</time>
      </trkpt>
      <trkpt lat="47.23687" lon="6.07656">
        <ele>496.66</ele>
        <time>2018-09-22T13:04:44Z</time>
      </trkpt>
      <trkpt lat="47.23678" lon="6.07662">
        <ele>496.66</ele>
        <time>2018-09-22T13:04:45Z</time>
      </trkpt>
      <trkpt lat="47.23671" lon="6.07671">
        <ele>496.18</ele>
        <time>2018-09-22T13:04:46Z</time>
      </trkpt>
      <trkpt lat="47.23664" lon="6.07682">
        <ele>495.22</ele>
        <time>2018-09-22T13:04:47Z</time>
      </trkpt>
      <trkpt lat="47.23658" lon="6.07694">
        <ele>494.74</ele>
        <time>2018-09-22T13:04:48Z</time>
      </trkpt>
      <trkpt lat="47.23626" lon="6.07749">
        <ele>492.81</ele>
        <time>2018-09-22T13:04:53Z</time>
      </trkpt>
      <trkpt lat="47.23618" lon="6.07757">
        <ele>492.81</ele>
        <time>2018-09-22T13:04:54Z</time>
      </trkpt>
      <trkpt lat="47.23609" lon="6.07762">
        <ele>492.33</ele>
        <time>2018-09-22T13:04:55Z</time>
      </trkpt>
      <trkpt lat="47.236" lon="6.07764">
        <ele>491.85</ele>
        <time>2018-09-22T13:04:56Z</time>
      </trkpt>
      <trkpt lat="47.2359" lon="6.07765">
        <ele>491.37</ele>
        <time>2018-09-22T13:04:57Z</time>
      </trkpt>
      <trkpt lat="47.23541" lon="6.07776">
        <ele>491.37</ele>
        <time>2018-09-22T13:05:03Z</time>
      </trkpt>
      <trkpt lat="47.23534" lon="6.07776">
        <ele>491.37</ele>
        <time>2018-09-22T13:05:04Z</time>
      </trkpt>
      <trkpt lat="47.23527" lon="6.07775">
        <ele>491.85</ele>
        <time>2018-09-22T13:05:05Z</time>
      </trkpt>
      <trkpt lat="47.23521" lon="6.07772">
        <ele>491.37</ele>
        <time>2018-09-22T13:05:06Z</time>
      </trkpt>
      <trkpt lat="47.23514" lon="6.07769">
        <ele>491.85</ele>
        <time>2018-09-22T13:05:07Z</time>
      </trkpt>
      <trkpt lat="47.23494" lon="6.07756">
        <ele>489.93</ele>
        <time>2018-09-22T13:05:10Z</time>
      </trkpt>
      <trkpt lat="47.23445" lon="6.07713">
        <ele>491.85</ele>
        <time>2018-09-22T13:05:19Z</time>
      </trkpt>
      <trkpt lat="47.23441" lon="6.07711">
        <ele>492.33</ele>
        <time>2018-09-22T13:05:20Z</time>
      </trkpt>
      <trkpt lat="47.23405" lon="6.07688">
        <ele>492.81</ele>
        <time>2018-09-22T13:05:29Z</time>
      </trkpt>
      <trkpt lat="47.23391" lon="6.07675">
        <ele>491.85</ele>
        <time>2018-09-22T13:05:32Z</time>
      </trkpt>
      <trkpt lat="47.23385" lon="6.07672">
        <ele>490.89</ele>
        <time>2018-09-22T13:05:33Z</time>
      </trkpt>
      <trkpt lat="47.23378" lon="6.07672">
        <ele>489.93</ele>
        <time>2018-09-22T13:05:34Z</time>
      </trkpt>
      <trkpt lat="47.23332" lon="6.07679">
        <ele>488.49</ele>
        <time>2018-09-22T13:05:41Z</time>
      </trkpt>
      <trkpt lat="47.23311" lon="6.07681">
        <ele>488.49</ele>
        <time>2018-09-22T13:05:44Z</time>
      </trkpt>
      <trkpt lat="47.23304" lon="6.0768">
        <ele>488.49</ele>
        <time>2018-09-22T13:05:45Z</time>
      </trkpt>
      <trkpt lat="47.23291" lon="6.07677">
        <ele>488.97</ele>
        <time>2018-09-22T13:05:47Z</time>
      </trkpt>
      <trkpt lat="47.23285" lon="6.07675">
        <ele>488.97</ele>
        <time>2018-09-22T13:05:48Z</time>
      </trkpt>
      <trkpt lat="47.23279" lon="6.07673">
        <ele>488.97</ele>
        <time>2018-09-22T13:05:49Z</time>
      </trkpt>
      <trkpt lat="47.23197" lon="6.0764">
        <ele>488.01</ele>
        <time>2018-09-22T13:06:03Z</time>
      </trkpt>
      <trkpt lat="47.23157" lon="6.07626">
        <ele>489.93</ele>
        <time>2018-09-22T13:06:10Z</time>
      </trkpt>
      <trkpt lat="47.23152" lon="6.07623">
        <ele>489.93</ele>
        <time>2018-09-22T13:06:11Z</time>
      </trkpt>
      <trkpt lat="47.23105" lon="6.07592">
        <ele>488.01</ele>
        <time>2018-09-22T13:06:20Z</time>
      </trkpt>
      <trkpt lat="47.231" lon="6.07586">
        <ele>487.53</ele>
        <time>2018-09-22T13:06:21Z</time>
      </trkpt>
      <trkpt lat="47.2307" lon="6.07552">
        <ele>484.64</ele>
        <time>2018-09-22T13:06:26Z</time>
      </trkpt>
      <trkpt lat="47.2305" lon="6.07528">
        <ele>483.2</ele>
        <time>2018-09-22T13:06:29Z</time>
      </trkpt>
      <trkpt lat="47.22984" lon="6.07459">
        <ele>485.12</ele>
        <time>2018-09-22T13:06:40Z</time>
      </trkpt>
      <trkpt lat="47.22963" lon="6.07445">
        <ele>485.12</ele>
        <time>2018-09-22T13:06:44Z</time>
      </trkpt>
      <trkpt lat="47.22957" lon="6.07443">
        <ele>485.12</ele>
        <time>2018-09-22T13:06:45Z</time>
      </trkpt>
      <trkpt lat="47.22952" lon="6.07442">
        <ele>484.64</ele>
        <time>2018-09-22T13:06:46Z</time>
      </trkpt>
      <trkpt lat="47.22946" lon="6.0744">
        <ele>484.64</ele>
        <time>2018-09-22T13:06:47Z</time>
      </trkpt>
      <trkpt lat="47.2294" lon="6.07438">
        <ele>484.16</ele>
        <time>2018-09-22T13:06:48Z</time>
      </trkpt>
      <trkpt lat="47.22934" lon="6.07434">
        <ele>484.16</ele>
        <time>2018-09-22T13:06:49Z</time>
      </trkpt>
      <trkpt lat="47.22929" lon="6.07429">
        <ele>484.16</ele>
        <time>2018-09-22T13:06:50Z</time>
      </trkpt>
      <trkpt lat="47.22925" lon="6.07425">
        <ele>484.16</ele>
        <time>2018-09-22T13:06:51Z</time>
      </trkpt>
      <trkpt lat="47.22904" lon="6.07402">
        <ele>484.64</ele>
        <time>2018-09-22T13:06:56Z</time>
      </trkpt>
      <trkpt lat="47.22892" lon="6.07387">
        <ele>483.68</ele>
        <time>2018-09-22T13:06:59Z</time>
      </trkpt>
      <trkpt lat="47.22874" lon="6.0736">
        <ele>483.2</ele>
        <time>2018-09-22T13:07:04Z</time>
      </trkpt>
      <trkpt lat="47.2287" lon="6.07355">
        <ele>483.2</ele>
        <time>2018-09-22T13:07:05Z</time>
      </trkpt>
      <trkpt lat="47.22865" lon="6.0735">
        <ele>483.2</ele>
        <time>2018-09-22T13:07:06Z</time>
      </trkpt>
      <trkpt lat="47.2286" lon="6.07347">
        <ele>482.72</ele>
        <time>2018-09-22T13:07:07Z</time>
      </trkpt>
      <trkpt lat="47.22854" lon="6.07344">
        <ele>482.24</ele>
        <time>2018-09-22T13:07:08Z</time>
      </trkpt>
      <trkpt lat="47.22848" lon="6.07341">
        <ele>481.76</ele>
        <time>2018-09-22T13:07:09Z</time>
      </trkpt>
      <trkpt lat="47.22816" lon="6.07328">
        <ele>482.72</ele>
        <time>2018-09-22T13:07:16Z</time>
      </trkpt>
      <trkpt lat="47.22812" lon="6.07329">
        <ele>482.72</ele>
        <time>2018-09-22T13:07:17Z</time>
      </trkpt>
      <trkpt lat="47.22808" lon="6.0733">
        <ele>483.2</ele>
        <time>2018-09-22T13:07:18Z</time>
      </trkpt>
      <trkpt lat="47.22796" lon="6.07334">
        <ele>483.68</ele>
        <time>2018-09-22T13:07:21Z</time>
      </trkpt>
      <trkpt lat="47.22785" lon="6.07332">
        <ele>484.16</ele>
        <time>2018-09-22T13:07:24Z</time>
      </trkpt>
      <trkpt lat="47.22783" lon="6.07332">
        <ele>484.64</ele>
        <time>2018-09-22T13:07:25Z</time>
      </trkpt>
      <trkpt lat="47.22782" lon="6.07331">
        <ele>484.64</ele>
        <time>2018-09-22T13:07:26Z</time>
      </trkpt>
      <trkpt lat="47.2278" lon="6.07329">
        <ele>484.64</ele>
        <time>2018-09-22T13:07:27Z</time>
      </trkpt>
      <trkpt lat="47.22779" lon="6.07328">
        <ele>485.12</ele>
        <time>2018-09-22T13:07:28Z</time>
      </trkpt>
      <trkpt lat="47.22777" lon="6.07326">
        <ele>485.12</ele>
        <time>2018-09-22T13:07:29Z</time>
      </trkpt>
      <trkpt lat="47.22768" lon="6.07321">
        <ele>485.12</ele>
        <time>2018-09-22T13:07:33Z</time>
      </trkpt>
      <trkpt lat="47.22765" lon="6.07322">
        <ele>485.12</ele>
        <time>2018-09-22T13:07:34Z</time>
      </trkpt>
      <trkpt lat="47.22763" lon="6.07322">
        <ele>485.12</ele>
        <time>2018-09-22T13:07:35Z</time>
      </trkpt>
      <trkpt lat="47.2276" lon="6.07324">
        <ele>485.6</ele>
        <time>2018-09-22T13:07:36Z</time>
      </trkpt>
      <trkpt lat="47.22758" lon="6.07326">
        <ele>485.6</ele>
        <time>2018-09-22T13:07:37Z</time>
      </trkpt>
      <trkpt lat="47.22756" lon="6.07329">
        <ele>485.12</ele>
        <time>2018-09-22T13:07:38Z</time>
      </trkpt>
      <trkpt lat="47.22753" lon="6.07328">
        <ele>485.12</ele>
        <time>2018-09-22T13:07:39Z</time>
      </trkpt>
      <trkpt lat="47.2275" lon="6.07327">
        <ele>485.12</ele>
        <time>2018-09-22T13:07:40Z</time>
      </trkpt>
      <trkpt lat="47.22748" lon="6.07327">
        <ele>485.12</ele>
        <time>2018-09-22T13:07:41Z</time>
      </trkpt>
      <trkpt lat="47.22744" lon="6.07328">
        <ele>485.12</ele>
        <time>2018-09-22T13:07:42Z</time>
      </trkpt>
      <trkpt lat="47.22742" lon="6.07327">
        <ele>485.12</ele>
        <time>2018-09-22T13:07:43Z</time>
      </trkpt>
      <trkpt lat="47.2274" lon="6.07326">
        <ele>485.12</ele>
        <time>2018-09-22T13:07:44Z</time>
      </trkpt>
      <trkpt lat="47.22738" lon="6.07327">
        <ele>485.12</ele>
        <time>2018-09-22T13:07:45Z</time>
      </trkpt>
      <trkpt lat="47.22736" lon="6.07328">
        <ele>485.12</ele>
        <time>2018-09-22T13:07:46Z</time>
      </trkpt>
      <trkpt lat="47.22734" lon="6.0733">
        <ele>484.64</ele>
        <time>2018-09-22T13:07:47Z</time>
      </trkpt>
      <trkpt lat="47.22732" lon="6.07331">
        <ele>484.64</ele>
        <time>2018-09-22T13:07:48Z</time>
      </trkpt>
      <trkpt lat="47.22731" lon="6.07334">
        <ele>484.16</ele>
        <time>2018-09-22T13:07:49Z</time>
      </trkpt>
      <trkpt lat="47.2273" lon="6.07336">
        <ele>484.16</ele>
        <time>2018-09-22T13:07:50Z</time>
      </trkpt>
      <trkpt lat="47.22727" lon="6.07338">
        <ele>483.2</ele>
        <time>2018-09-22T13:07:51Z</time>
      </trkpt>
      <trkpt lat="47.22724" lon="6.0734">
        <ele>482.72</ele>
        <time>2018-09-22T13:07:52Z</time>
      </trkpt>
      <trkpt lat="47.2272" lon="6.07344">
        <ele>482.24</ele>
        <time>2018-09-22T13:07:53Z</time>
      </trkpt>
      <trkpt lat="47.22716" lon="6.0735">
        <ele>481.76</ele>
        <time>2018-09-22T13:07:54Z</time>
      </trkpt>
      <trkpt lat="47.22712" lon="6.07357">
        <ele>480.8</ele>
        <time>2018-09-22T13:07:55Z</time>
      </trkpt>
      <trkpt lat="47.22708" lon="6.07362">
        <ele>480.32</ele>
        <time>2018-09-22T13:07:56Z</time>
      </trkpt>
      <trkpt lat="47.22705" lon="6.07367">
        <ele>480.32</ele>
        <time>2018-09-22T13:07:57Z</time>
      </trkpt>
      <trkpt lat="47.22704" lon="6.0737">
        <ele>480.32</ele>
        <time>2018-09-22T13:07:58Z</time>
      </trkpt>
      <trkpt lat="47.22703" lon="6.07373">
        <ele>479.84</ele>
        <time>2018-09-22T13:07:59Z</time>
      </trkpt>
      <trkpt lat="47.227" lon="6.07379">
        <ele>478.87</ele>
        <time>2018-09-22T13:08:00Z</time>
      </trkpt>
      <trkpt lat="47.22697" lon="6.07384">
        <ele>478.39</ele>
        <time>2018-09-22T13:08:01Z</time>
      </trkpt>
      <trkpt lat="47.22694" lon="6.07388">
        <ele>477.91</ele>
        <time>2018-09-22T13:08:02Z</time>
      </trkpt>
      <trkpt lat="47.2269" lon="6.07392">
        <ele>477.91</ele>
        <time>2018-09-22T13:08:03Z</time>
      </trkpt>
      <trkpt lat="47.22686" lon="6.07392">
        <ele>477.91</ele>
        <time>2018-09-22T13:08:04Z</time>
      </trkpt>
      <trkpt lat="47.22682" lon="6.07393">
        <ele>478.39</ele>
        <time>2018-09-22T13:08:05Z</time>
      </trkpt>
      <trkpt lat="47.22679" lon="6.07395">
        <ele>476.95</ele>
        <time>2018-09-22T13:08:06Z</time>
      </trkpt>
      <trkpt lat="47.22674" lon="6.07396">
        <ele>476.47</ele>
        <time>2018-09-22T13:08:07Z</time>
      </trkpt>
      <trkpt lat="47.2267" lon="6.07398">
        <ele>476.47</ele>
        <time>2018-09-22T13:08:08Z</time>
      </trkpt>
      <trkpt lat="47.22668" lon="6.074">
        <ele>476.47</ele>
        <time>2018-09-22T13:08:09Z</time>
      </trkpt>
      <trkpt lat="47.22666" lon="6.07402">
        <ele>476.47</ele>
        <time>2018-09-22T13:08:10Z</time>
      </trkpt>
      <trkpt lat="47.22664" lon="6.07406">
        <ele>475.03</ele>
        <time>2018-09-22T13:08:11Z</time>
      </trkpt>
      <trkpt lat="47.2266" lon="6.07411">
        <ele>474.07</ele>
        <time>2018-09-22T13:08:12Z</time>
      </trkpt>
      <trkpt lat="47.22656" lon="6.07414">
        <ele>474.07</ele>
        <time>2018-09-22T13:08:13Z</time>
      </trkpt>
      <trkpt lat="47.22652" lon="6.07415">
        <ele>474.07</ele>
        <time>2018-09-22T13:08:14Z</time>
      </trkpt>
      <trkpt lat="47.22637" lon="6.07422">
        <ele>471.18</ele>
        <time>2018-09-22T13:08:17Z</time>
      </trkpt>
      <trkpt lat="47.22632" lon="6.07428">
        <ele>470.22</ele>
        <time>2018-09-22T13:08:18Z</time>
      </trkpt>
      <trkpt lat="47.22624" lon="6.07443">
        <ele>468.3</ele>
        <time>2018-09-22T13:08:20Z</time>
      </trkpt>
      <trkpt lat="47.22617" lon="6.07458">
        <ele>466.38</ele>
        <time>2018-09-22T13:08:22Z</time>
      </trkpt>
      <trkpt lat="47.22607" lon="6.07472">
        <ele>463.97</ele>
        <time>2018-09-22T13:08:24Z</time>
      </trkpt>
      <trkpt lat="47.22602" lon="6.07476">
        <ele>462.53</ele>
        <time>2018-09-22T13:08:25Z</time>
      </trkpt>
      <trkpt lat="47.22593" lon="6.07484">
        <ele>461.09</ele>
        <time>2018-09-22T13:08:27Z</time>
      </trkpt>
      <trkpt lat="47.2259" lon="6.07489">
        <ele>460.13</ele>
        <time>2018-09-22T13:08:28Z</time>
      </trkpt>
      <trkpt lat="47.22586" lon="6.07492">
        <ele>458.69</ele>
        <time>2018-09-22T13:08:29Z</time>
      </trkpt>
      <trkpt lat="47.22583" lon="6.07494">
        <ele>457.24</ele>
        <time>2018-09-22T13:08:30Z</time>
      </trkpt>
      <trkpt lat="47.2258" lon="6.07496">
        <ele>456.76</ele>
        <time>2018-09-22T13:08:31Z</time>
      </trkpt>
      <trkpt lat="47.22577" lon="6.07499">
        <ele>455.32</ele>
        <time>2018-09-22T13:08:32Z</time>
      </trkpt>
      <trkpt lat="47.22573" lon="6.07502">
        <ele>454.36</ele>
        <time>2018-09-22T13:08:33Z</time>
      </trkpt>
      <trkpt lat="47.2257" lon="6.07503">
        <ele>453.4</ele>
        <time>2018-09-22T13:08:34Z</time>
      </trkpt>
      <trkpt lat="47.22566" lon="6.07503">
        <ele>452.92</ele>
        <time>2018-09-22T13:08:35Z</time>
      </trkpt>
      <trkpt lat="47.22561" lon="6.07502">
        <ele>451.96</ele>
        <time>2018-09-22T13:08:36Z</time>
      </trkpt>
      <trkpt lat="47.22556" lon="6.07499">
        <ele>451</ele>
        <time>2018-09-22T13:08:37Z</time>
      </trkpt>
      <trkpt lat="47.2255" lon="6.07495">
        <ele>450.03</ele>
        <time>2018-09-22T13:08:38Z</time>
      </trkpt>
      <trkpt lat="47.22544" lon="6.0749">
        <ele>449.55</ele>
        <time>2018-09-22T13:08:39Z</time>
      </trkpt>
      <trkpt lat="47.2254" lon="6.07484">
        <ele>449.55</ele>
        <time>2018-09-22T13:08:40Z</time>
      </trkpt>
      <trkpt lat="47.22536" lon="6.07478">
        <ele>449.55</ele>
        <time>2018-09-22T13:08:41Z</time>
      </trkpt>
      <trkpt lat="47.22533" lon="6.07472">
        <ele>450.03</ele>
        <time>2018-09-22T13:08:42Z</time>
      </trkpt>
      <trkpt lat="47.22508" lon="6.07415">
        <ele>451</ele>
        <time>2018-09-22T13:08:54Z</time>
      </trkpt>
      <trkpt lat="47.22478" lon="6.07392">
        <ele>451.96</ele>
        <time>2018-09-22T13:09:04Z</time>
      </trkpt>
      <trkpt lat="47.22443" lon="6.07355">
        <ele>452.44</ele>
        <time>2018-09-22T13:09:15Z</time>
      </trkpt>
      <trkpt lat="47.22425" lon="6.07333">
        <ele>451.48</ele>
        <time>2018-09-22T13:09:20Z</time>
      </trkpt>
      <trkpt lat="47.22423" lon="6.07326">
        <ele>451.48</ele>
        <time>2018-09-22T13:09:21Z</time>
      </trkpt>
      <trkpt lat="47.2242" lon="6.07319">
        <ele>451.96</ele>
        <time>2018-09-22T13:09:22Z</time>
      </trkpt>
      <trkpt lat="47.22418" lon="6.07313">
        <ele>452.44</ele>
        <time>2018-09-22T13:09:23Z</time>
      </trkpt>
      <trkpt lat="47.22415" lon="6.07309">
        <ele>452.44</ele>
        <time>2018-09-22T13:09:24Z</time>
      </trkpt>
      <trkpt lat="47.22411" lon="6.07304">
        <ele>451.96</ele>
        <time>2018-09-22T13:09:25Z</time>
      </trkpt>
      <trkpt lat="47.22365" lon="6.07246">
        <ele>451</ele>
        <time>2018-09-22T13:09:37Z</time>
      </trkpt>
      <trkpt lat="47.22362" lon="6.0724">
        <ele>451</ele>
        <time>2018-09-22T13:09:38Z</time>
      </trkpt>
      <trkpt lat="47.22347" lon="6.0722">
        <ele>450.52</ele>
        <time>2018-09-22T13:09:42Z</time>
      </trkpt>
      <trkpt lat="47.22342" lon="6.07216">
        <ele>451</ele>
        <time>2018-09-22T13:09:43Z</time>
      </trkpt>
      <trkpt lat="47.22338" lon="6.07213">
        <ele>451</ele>
        <time>2018-09-22T13:09:44Z</time>
      </trkpt>
      <trkpt lat="47.22335" lon="6.07209">
        <ele>451.48</ele>
        <time>2018-09-22T13:09:45Z</time>
      </trkpt>
      <trkpt lat="47.22331" lon="6.07206">
        <ele>451.48</ele>
        <time>2018-09-22T13:09:46Z</time>
      </trkpt>
      <trkpt lat="47.22328" lon="6.07202">
        <ele>451.48</ele>
        <time>2018-09-22T13:09:47Z</time>
      </trkpt>
      <trkpt lat="47.22326" lon="6.07198">
        <ele>451.48</ele>
        <time>2018-09-22T13:09:48Z</time>
      </trkpt>
      <trkpt lat="47.22323" lon="6.07193">
        <ele>451.96</ele>
        <time>2018-09-22T13:09:49Z</time>
      </trkpt>
      <trkpt lat="47.2232" lon="6.07189">
        <ele>451.96</ele>
        <time>2018-09-22T13:09:50Z</time>
      </trkpt>
      <trkpt lat="47.22318" lon="6.07185">
        <ele>451.96</ele>
        <time>2018-09-22T13:09:51Z</time>
      </trkpt>
      <trkpt lat="47.22299" lon="6.07151">
        <ele>454.36</ele>
        <time>2018-09-22T13:09:59Z</time>
      </trkpt>
      <trkpt lat="47.22296" lon="6.07147">
        <ele>454.36</ele>
        <time>2018-09-22T13:10:00Z</time>
      </trkpt>
      <trkpt lat="47.22293" lon="6.07143">
        <ele>454.36</ele>
        <time>2018-09-22T13:10:01Z</time>
      </trkpt>
      <trkpt lat="47.2229" lon="6.07139">
        <ele>454.36</ele>
        <time>2018-09-22T13:10:02Z</time>
      </trkpt>
      <trkpt lat="47.22287" lon="6.07135">
        <ele>454.36</ele>
        <time>2018-09-22T13:10:03Z</time>
      </trkpt>
      <trkpt lat="47.22285" lon="6.07132">
        <ele>454.36</ele>
        <time>2018-09-22T13:10:04Z</time>
      </trkpt>
      <trkpt lat="47.22274" lon="6.07114">
        <ele>455.32</ele>
        <time>2018-09-22T13:10:08Z</time>
      </trkpt>
      <trkpt lat="47.22248" lon="6.0707">
        <ele>456.28</ele>
        <time>2018-09-22T13:10:18Z</time>
      </trkpt>
      <trkpt lat="47.22242" lon="6.0706">
        <ele>456.28</ele>
        <time>2018-09-22T13:10:20Z</time>
      </trkpt>
      <trkpt lat="47.2224" lon="6.07055">
        <ele>456.28</ele>
        <time>2018-09-22T13:10:21Z</time>
      </trkpt>
      <trkpt lat="47.22237" lon="6.07051">
        <ele>456.28</ele>
        <time>2018-09-22T13:10:22Z</time>
      </trkpt>
      <trkpt lat="47.22217" lon="6.07021">
        <ele>458.21</ele>
        <time>2018-09-22T13:10:30Z</time>
      </trkpt>
      <trkpt lat="47.22215" lon="6.0702">
        <ele>458.69</ele>
        <time>2018-09-22T13:10:31Z</time>
      </trkpt>
      <trkpt lat="47.22213" lon="6.07018">
        <ele>459.17</ele>
        <time>2018-09-22T13:10:32Z</time>
      </trkpt>
      <trkpt lat="47.22211" lon="6.07016">
        <ele>459.17</ele>
        <time>2018-09-22T13:10:33Z</time>
      </trkpt>
      <trkpt lat="47.22209" lon="6.07014">
        <ele>459.17</ele>
        <time>2018-09-22T13:10:34Z</time>
      </trkpt>
      <trkpt lat="47.22208" lon="6.0701">
        <ele>459.65</ele>
        <time>2018-09-22T13:10:35Z</time>
      </trkpt>
      <trkpt lat="47.22207" lon="6.07007">
        <ele>460.13</ele>
        <time>2018-09-22T13:10:36Z</time>
      </trkpt>
      <trkpt lat="47.22197" lon="6.06974">
        <ele>461.57</ele>
        <time>2018-09-22T13:10:45Z</time>
      </trkpt>
      <trkpt lat="47.22192" lon="6.06963">
        <ele>462.53</ele>
        <time>2018-09-22T13:10:49Z</time>
      </trkpt>
      <trkpt lat="47.2219" lon="6.06962">
        <ele>462.53</ele>
        <time>2018-09-22T13:10:50Z</time>
      </trkpt>
      <trkpt lat="47.22183" lon="6.06956">
        <ele>463.49</ele>
        <time>2018-09-22T13:10:53Z</time>
      </trkpt>
      <trkpt lat="47.22181" lon="6.06954">
        <ele>463.49</ele>
        <time>2018-09-22T13:10:54Z</time>
      </trkpt>
      <trkpt lat="47.22179" lon="6.06951">
        <ele>463.97</ele>
        <time>2018-09-22T13:10:55Z</time>
      </trkpt>
      <trkpt lat="47.22178" lon="6.06948">
        <ele>463.97</ele>
        <time>2018-09-22T13:10:56Z</time>
      </trkpt>
      <trkpt lat="47.22176" lon="6.06946">
        <ele>463.97</ele>
        <time>2018-09-22T13:10:57Z</time>
      </trkpt>
      <trkpt lat="47.22175" lon="6.06944">
        <ele>464.45</ele>
        <time>2018-09-22T13:10:58Z</time>
      </trkpt>
      <trkpt lat="47.22174" lon="6.06942">
        <ele>464.45</ele>
        <time>2018-09-22T13:10:59Z</time>
      </trkpt>
      <trkpt lat="47.22172" lon="6.0694">
        <ele>464.45</ele>
        <time>2018-09-22T13:11:00Z</time>
      </trkpt>
      <trkpt lat="47.22163" lon="6.06927">
        <ele>465.9</ele>
        <time>2018-09-22T13:11:07Z</time>
      </trkpt>
      <trkpt lat="47.22149" lon="6.06912">
        <ele>468.78</ele>
        <time>2018-09-22T13:11:17Z</time>
      </trkpt>
      <trkpt lat="47.22141" lon="6.06904">
        <ele>470.22</ele>
        <time>2018-09-22T13:11:22Z</time>
      </trkpt>
      <trkpt lat="47.22139" lon="6.06902">
        <ele>470.22</ele>
        <time>2018-09-22T13:11:23Z</time>
      </trkpt>
      <trkpt lat="47.22137" lon="6.069">
        <ele>470.7</ele>
        <time>2018-09-22T13:11:24Z</time>
      </trkpt>
      <trkpt lat="47.22129" lon="6.0689">
        <ele>472.63</ele>
        <time>2018-09-22T13:11:31Z</time>
      </trkpt>
      <trkpt lat="47.22127" lon="6.06889">
        <ele>472.63</ele>
        <time>2018-09-22T13:11:32Z</time>
      </trkpt>
      <trkpt lat="47.22111" lon="6.06871">
        <ele>473.11</ele>
        <time>2018-09-22T13:11:40Z</time>
      </trkpt>
      <trkpt lat="47.22092" lon="6.06842">
        <ele>473.59</ele>
        <time>2018-09-22T13:11:49Z</time>
      </trkpt>
      <trkpt lat="47.22075" lon="6.06817">
        <ele>475.03</ele>
        <time>2018-09-22T13:11:58Z</time>
      </trkpt>
      <trkpt lat="47.22074" lon="6.06815">
        <ele>475.03</ele>
        <time>2018-09-22T13:11:59Z</time>
      </trkpt>
      <trkpt lat="47.22073" lon="6.06813">
        <ele>475.51</ele>
        <time>2018-09-22T13:12:00Z</time>
      </trkpt>
      <trkpt lat="47.22071" lon="6.06811">
        <ele>475.51</ele>
        <time>2018-09-22T13:12:01Z</time>
      </trkpt>
      <trkpt lat="47.22069" lon="6.06808">
        <ele>475.99</ele>
        <time>2018-09-22T13:12:02Z</time>
      </trkpt>
      <trkpt lat="47.22056" lon="6.06799">
        <ele>478.87</ele>
        <time>2018-09-22T13:12:09Z</time>
      </trkpt>
      <trkpt lat="47.22054" lon="6.06797">
        <ele>479.35</ele>
        <time>2018-09-22T13:12:10Z</time>
      </trkpt>
      <trkpt lat="47.22032" lon="6.06772">
        <ele>480.8</ele>
        <time>2018-09-22T13:12:21Z</time>
      </trkpt>
      <trkpt lat="47.2203" lon="6.06769">
        <ele>480.8</ele>
        <time>2018-09-22T13:12:22Z</time>
      </trkpt>
      <trkpt lat="47.22027" lon="6.06766">
        <ele>480.8</ele>
        <time>2018-09-22T13:12:23Z</time>
      </trkpt>
      <trkpt lat="47.22024" lon="6.06763">
        <ele>480.8</ele>
        <time>2018-09-22T13:12:24Z</time>
      </trkpt>
      <trkpt lat="47.21999" lon="6.06727">
        <ele>480.8</ele>
        <time>2018-09-22T13:12:34Z</time>
      </trkpt>
      <trkpt lat="47.21977" lon="6.06693">
        <ele>480.32</ele>
        <time>2018-09-22T13:12:43Z</time>
      </trkpt>
      <trkpt lat="47.21974" lon="6.06688">
        <ele>480.32</ele>
        <time>2018-09-22T13:12:44Z</time>
      </trkpt>
      <trkpt lat="47.21971" lon="6.06683">
        <ele>479.84</ele>
        <time>2018-09-22T13:12:45Z</time>
      </trkpt>
      <trkpt lat="47.21967" lon="6.06679">
        <ele>479.84</ele>
        <time>2018-09-22T13:12:46Z</time>
      </trkpt>
      <trkpt lat="47.21964" lon="6.06675">
        <ele>479.84</ele>
        <time>2018-09-22T13:12:47Z</time>
      </trkpt>
      <trkpt lat="47.21961" lon="6.0667">
        <ele>479.84</ele>
        <time>2018-09-22T13:12:48Z</time>
      </trkpt>
      <trkpt lat="47.21958" lon="6.06665">
        <ele>479.35</ele>
        <time>2018-09-22T13:12:49Z</time>
      </trkpt>
      <trkpt lat="47.21955" lon="6.06661">
        <ele>479.35</ele>
        <time>2018-09-22T13:12:50Z</time>
      </trkpt>
      <trkpt lat="47.21952" lon="6.06658">
        <ele>479.35</ele>
        <time>2018-09-22T13:12:51Z</time>
      </trkpt>
      <trkpt lat="47.21948" lon="6.06655">
        <ele>479.35</ele>
        <time>2018-09-22T13:12:52Z</time>
      </trkpt>
      <trkpt lat="47.21945" lon="6.06651">
        <ele>479.35</ele>
        <time>2018-09-22T13:12:53Z</time>
      </trkpt>
      <trkpt lat="47.21941" lon="6.06647">
        <ele>478.87</ele>
        <time>2018-09-22T13:12:54Z</time>
      </trkpt>
      <trkpt lat="47.21938" lon="6.06643">
        <ele>478.87</ele>
        <time>2018-09-22T13:12:55Z</time>
      </trkpt>
      <trkpt lat="47.21934" lon="6.06638">
        <ele>478.39</ele>
        <time>2018-09-22T13:12:56Z</time>
      </trkpt>
      <trkpt lat="47.21933" lon="6.06633">
        <ele>478.39</ele>
        <time>2018-09-22T13:12:57Z</time>
      </trkpt>
      <trkpt lat="47.21931" lon="6.06628">
        <ele>477.91</ele>
        <time>2018-09-22T13:12:58Z</time>
      </trkpt>
      <trkpt lat="47.21929" lon="6.06623">
        <ele>478.39</ele>
        <time>2018-09-22T13:12:59Z</time>
      </trkpt>
      <trkpt lat="47.21922" lon="6.06611">
        <ele>477.91</ele>
        <time>2018-09-22T13:13:02Z</time>
      </trkpt>
      <trkpt lat="47.21914" lon="6.06604">
        <ele>476.47</ele>
        <time>2018-09-22T13:13:04Z</time>
      </trkpt>
      <trkpt lat="47.2191" lon="6.06599">
        <ele>476.47</ele>
        <time>2018-09-22T13:13:05Z</time>
      </trkpt>
      <trkpt lat="47.21906" lon="6.06594">
        <ele>475.99</ele>
        <time>2018-09-22T13:13:06Z</time>
      </trkpt>
      <trkpt lat="47.21903" lon="6.06589">
        <ele>475.03</ele>
        <time>2018-09-22T13:13:07Z</time>
      </trkpt>
      <trkpt lat="47.219" lon="6.06583">
        <ele>474.07</ele>
        <time>2018-09-22T13:13:08Z</time>
      </trkpt>
      <trkpt lat="47.21896" lon="6.06579">
        <ele>473.59</ele>
        <time>2018-09-22T13:13:09Z</time>
      </trkpt>
      <trkpt lat="47.21892" lon="6.06576">
        <ele>473.11</ele>
        <time>2018-09-22T13:13:10Z</time>
      </trkpt>
      <trkpt lat="47.21887" lon="6.06574">
        <ele>473.59</ele>
        <time>2018-09-22T13:13:11Z</time>
      </trkpt>
      <trkpt lat="47.21884" lon="6.06573">
        <ele>474.07</ele>
        <time>2018-09-22T13:13:12Z</time>
      </trkpt>
      <trkpt lat="47.21883" lon="6.06573">
        <ele>473.59</ele>
        <time>2018-09-22T13:13:13Z</time>
      </trkpt>
      <trkpt lat="47.21868" lon="6.06572">
        <ele>471.18</ele>
        <time>2018-09-22T13:13:22Z</time>
      </trkpt>
      <trkpt lat="47.21859" lon="6.06569">
        <ele>470.7</ele>
        <time>2018-09-22T13:13:34Z</time>
      </trkpt>
      <trkpt lat="47.21853" lon="6.06567">
        <ele>468.3</ele>
        <time>2018-09-22T13:13:42Z</time>
      </trkpt>
      <trkpt lat="47.21853" lon="6.06561">
        <ele>467.34</ele>
        <time>2018-09-22T13:13:43Z</time>
      </trkpt>
      <trkpt lat="47.21852" lon="6.0655">
        <ele>469.74</ele>
        <time>2018-09-22T13:13:47Z</time>
      </trkpt>
      <trkpt lat="47.2185" lon="6.06548">
        <ele>470.22</ele>
        <time>2018-09-22T13:13:49Z</time>
      </trkpt>
      <trkpt lat="47.21846" lon="6.06546">
        <ele>470.22</ele>
        <time>2018-09-22T13:13:51Z</time>
      </trkpt>
      <trkpt lat="47.21844" lon="6.06544">
        <ele>469.74</ele>
        <time>2018-09-22T13:13:52Z</time>
      </trkpt>
      <trkpt lat="47.21842" lon="6.06541">
        <ele>469.74</ele>
        <time>2018-09-22T13:13:53Z</time>
      </trkpt>
      <trkpt lat="47.21842" lon="6.06539">
        <ele>470.22</ele>
        <time>2018-09-22T13:13:54Z</time>
      </trkpt>
      <trkpt lat="47.21841" lon="6.06533">
        <ele>471.18</ele>
        <time>2018-09-22T13:14:01Z</time>
      </trkpt>
      <trkpt lat="47.21839" lon="6.06531">
        <ele>471.66</ele>
        <time>2018-09-22T13:14:03Z</time>
      </trkpt>
      <trkpt lat="47.21837" lon="6.0653">
        <ele>471.66</ele>
        <time>2018-09-22T13:14:04Z</time>
      </trkpt>
      <trkpt lat="47.21836" lon="6.06528">
        <ele>471.66</ele>
        <time>2018-09-22T13:14:06Z</time>
      </trkpt>
      <trkpt lat="47.21835" lon="6.06526">
        <ele>471.66</ele>
        <time>2018-09-22T13:14:07Z</time>
      </trkpt>
      <trkpt lat="47.21833" lon="6.06524">
        <ele>471.66</ele>
        <time>2018-09-22T13:14:08Z</time>
      </trkpt>
      <trkpt lat="47.21832" lon="6.06522">
        <ele>471.66</ele>
        <time>2018-09-22T13:14:09Z</time>
      </trkpt>
      <trkpt lat="47.21831" lon="6.06519">
        <ele>471.66</ele>
        <time>2018-09-22T13:14:10Z</time>
      </trkpt>
      <trkpt lat="47.21831" lon="6.06516">
        <ele>471.66</ele>
        <time>2018-09-22T13:14:11Z</time>
      </trkpt>
      <trkpt lat="47.21831" lon="6.06513">
        <ele>472.14</ele>
        <time>2018-09-22T13:14:12Z</time>
      </trkpt>
      <trkpt lat="47.21831" lon="6.0651">
        <ele>472.63</ele>
        <time>2018-09-22T13:14:13Z</time>
      </trkpt>
      <trkpt lat="47.2183" lon="6.06508">
        <ele>472.63</ele>
        <time>2018-09-22T13:14:14Z</time>
      </trkpt>
      <trkpt lat="47.21829" lon="6.06505">
        <ele>472.63</ele>
        <time>2018-09-22T13:14:15Z</time>
      </trkpt>
      <trkpt lat="47.21829" lon="6.06503">
        <ele>473.11</ele>
        <time>2018-09-22T13:14:16Z</time>
      </trkpt>
      <trkpt lat="47.21822" lon="6.06486">
        <ele>474.07</ele>
        <time>2018-09-22T13:14:24Z</time>
      </trkpt>
      <trkpt lat="47.2182" lon="6.06482">
        <ele>474.55</ele>
        <time>2018-09-22T13:14:26Z</time>
      </trkpt>
      <trkpt lat="47.21819" lon="6.0648">
        <ele>474.07</ele>
        <time>2018-09-22T13:14:27Z</time>
      </trkpt>
      <trkpt lat="47.21809" lon="6.06456">
        <ele>475.03</ele>
        <time>2018-09-22T13:14:35Z</time>
      </trkpt>
      <trkpt lat="47.21807" lon="6.06455">
        <ele>475.03</ele>
        <time>2018-09-22T13:14:36Z</time>
      </trkpt>
      <trkpt lat="47.21806" lon="6.06452">
        <ele>475.03</ele>
        <time>2018-09-22T13:14:37Z</time>
      </trkpt>
      <trkpt lat="47.21804" lon="6.06448">
        <ele>475.51</ele>
        <time>2018-09-22T13:14:39Z</time>
      </trkpt>
      <trkpt lat="47.21802" lon="6.06446">
        <ele>475.51</ele>
        <time>2018-09-22T13:14:40Z</time>
      </trkpt>
      <trkpt lat="47.21792" lon="6.06432">
        <ele>475.03</ele>
        <time>2018-09-22T13:14:46Z</time>
      </trkpt>
      <trkpt lat="47.2179" lon="6.06429">
        <ele>475.03</ele>
        <time>2018-09-22T13:14:47Z</time>
      </trkpt>
      <trkpt lat="47.21788" lon="6.06425">
        <ele>475.03</ele>
        <time>2018-09-22T13:14:48Z</time>
      </trkpt>
      <trkpt lat="47.21786" lon="6.06421">
        <ele>475.03</ele>
        <time>2018-09-22T13:14:49Z</time>
      </trkpt>
      <trkpt lat="47.21784" lon="6.06417">
        <ele>475.03</ele>
        <time>2018-09-22T13:14:50Z</time>
      </trkpt>
      <trkpt lat="47.21782" lon="6.06413">
        <ele>475.03</ele>
        <time>2018-09-22T13:14:51Z</time>
      </trkpt>
      <trkpt lat="47.2178" lon="6.06409">
        <ele>475.51</ele>
        <time>2018-09-22T13:14:52Z</time>
      </trkpt>
      <trkpt lat="47.21773" lon="6.06397">
        <ele>475.51</ele>
        <time>2018-09-22T13:14:56Z</time>
      </trkpt>
      <trkpt lat="47.21773" lon="6.06393">
        <ele>475.51</ele>
        <time>2018-09-22T13:14:57Z</time>
      </trkpt>
      <trkpt lat="47.21772" lon="6.0639">
        <ele>475.99</ele>
        <time>2018-09-22T13:14:58Z</time>
      </trkpt>
      <trkpt lat="47.21771" lon="6.06386">
        <ele>475.99</ele>
        <time>2018-09-22T13:14:59Z</time>
      </trkpt>
      <trkpt lat="47.21767" lon="6.06376">
        <ele>476.95</ele>
        <time>2018-09-22T13:15:04Z</time>
      </trkpt>
      <trkpt lat="47.2175" lon="6.06354">
        <ele>475.99</ele>
        <time>2018-09-22T13:15:13Z</time>
      </trkpt>
      <trkpt lat="47.21748" lon="6.0635">
        <ele>475.99</ele>
        <time>2018-09-22T13:15:14Z</time>
      </trkpt>
      <trkpt lat="47.21746" lon="6.06347">
        <ele>475.51</ele>
        <time>2018-09-22T13:15:15Z</time>
      </trkpt>
      <trkpt lat="47.21744" lon="6.06343">
        <ele>475.51</ele>
        <time>2018-09-22T13:15:16Z</time>
      </trkpt>
      <trkpt lat="47.21741" lon="6.06339">
        <ele>475.51</ele>
        <time>2018-09-22T13:15:17Z</time>
      </trkpt>
      <trkpt lat="47.21739" lon="6.06336">
        <ele>475.51</ele>
        <time>2018-09-22T13:15:18Z</time>
      </trkpt>
      <trkpt lat="47.21716" lon="6.06299">
        <ele>474.07</ele>
        <time>2018-09-22T13:15:26Z</time>
      </trkpt>
      <trkpt lat="47.21713" lon="6.06293">
        <ele>474.07</ele>
        <time>2018-09-22T13:15:27Z</time>
      </trkpt>
      <trkpt lat="47.2171" lon="6.06288">
        <ele>473.59</ele>
        <time>2018-09-22T13:15:28Z</time>
      </trkpt>
      <trkpt lat="47.21708" lon="6.06282">
        <ele>473.59</ele>
        <time>2018-09-22T13:15:29Z</time>
      </trkpt>
      <trkpt lat="47.21705" lon="6.06277">
        <ele>473.59</ele>
        <time>2018-09-22T13:15:30Z</time>
      </trkpt>
      <trkpt lat="47.21701" lon="6.06272">
        <ele>473.59</ele>
        <time>2018-09-22T13:15:31Z</time>
      </trkpt>
      <trkpt lat="47.21698" lon="6.06266">
        <ele>473.59</ele>
        <time>2018-09-22T13:15:32Z</time>
      </trkpt>
      <trkpt lat="47.21695" lon="6.0626">
        <ele>473.11</ele>
        <time>2018-09-22T13:15:33Z</time>
      </trkpt>
      <trkpt lat="47.21694" lon="6.06255">
        <ele>473.11</ele>
        <time>2018-09-22T13:15:34Z</time>
      </trkpt>
      <trkpt lat="47.21692" lon="6.06249">
        <ele>473.59</ele>
        <time>2018-09-22T13:15:35Z</time>
      </trkpt>
      <trkpt lat="47.2169" lon="6.06244">
        <ele>473.59</ele>
        <time>2018-09-22T13:15:36Z</time>
      </trkpt>
      <trkpt lat="47.21686" lon="6.0624">
        <ele>473.59</ele>
        <time>2018-09-22T13:15:37Z</time>
      </trkpt>
      <trkpt lat="47.21682" lon="6.06236">
        <ele>473.59</ele>
        <time>2018-09-22T13:15:38Z</time>
      </trkpt>
      <trkpt lat="47.2168" lon="6.06231">
        <ele>473.59</ele>
        <time>2018-09-22T13:15:39Z</time>
      </trkpt>
      <trkpt lat="47.21677" lon="6.06226">
        <ele>473.11</ele>
        <time>2018-09-22T13:15:40Z</time>
      </trkpt>
      <trkpt lat="47.21664" lon="6.062">
        <ele>473.11</ele>
        <time>2018-09-22T13:15:45Z</time>
      </trkpt>
      <trkpt lat="47.21658" lon="6.06189">
        <ele>473.11</ele>
        <time>2018-09-22T13:15:47Z</time>
      </trkpt>
      <trkpt lat="47.21655" lon="6.06183">
        <ele>473.11</ele>
        <time>2018-09-22T13:15:48Z</time>
      </trkpt>
      <trkpt lat="47.21651" lon="6.06178">
        <ele>472.63</ele>
        <time>2018-09-22T13:15:49Z</time>
      </trkpt>
      <trkpt lat="47.2164" lon="6.06165">
        <ele>472.63</ele>
        <time>2018-09-22T13:15:52Z</time>
      </trkpt>
      <trkpt lat="47.21637" lon="6.06161">
        <ele>472.63</ele>
        <time>2018-09-22T13:15:53Z</time>
      </trkpt>
      <trkpt lat="47.21633" lon="6.06157">
        <ele>472.63</ele>
        <time>2018-09-22T13:15:54Z</time>
      </trkpt>
      <trkpt lat="47.21628" lon="6.06153">
        <ele>472.63</ele>
        <time>2018-09-22T13:15:55Z</time>
      </trkpt>
      <trkpt lat="47.21624" lon="6.06149">
        <ele>472.63</ele>
        <time>2018-09-22T13:15:56Z</time>
      </trkpt>
      <trkpt lat="47.2162" lon="6.06144">
        <ele>472.14</ele>
        <time>2018-09-22T13:15:57Z</time>
      </trkpt>
      <trkpt lat="47.21616" lon="6.06138">
        <ele>471.66</ele>
        <time>2018-09-22T13:15:58Z</time>
      </trkpt>
      <trkpt lat="47.21612" lon="6.06131">
        <ele>471.66</ele>
        <time>2018-09-22T13:15:59Z</time>
      </trkpt>
      <trkpt lat="47.21608" lon="6.06125">
        <ele>472.14</ele>
        <time>2018-09-22T13:16:00Z</time>
      </trkpt>
      <trkpt lat="47.21604" lon="6.06119">
        <ele>472.14</ele>
        <time>2018-09-22T13:16:01Z</time>
      </trkpt>
      <trkpt lat="47.21601" lon="6.06113">
        <ele>472.14</ele>
        <time>2018-09-22T13:16:02Z</time>
      </trkpt>
      <trkpt lat="47.21599" lon="6.06108">
        <ele>472.63</ele>
        <time>2018-09-22T13:16:03Z</time>
      </trkpt>
      <trkpt lat="47.21597" lon="6.06104">
        <ele>473.11</ele>
        <time>2018-09-22T13:16:04Z</time>
      </trkpt>
      <trkpt lat="47.2159" lon="6.06096">
        <ele>472.63</ele>
        <time>2018-09-22T13:16:06Z</time>
      </trkpt>
      <trkpt lat="47.21587" lon="6.0609">
        <ele>472.63</ele>
        <time>2018-09-22T13:16:07Z</time>
      </trkpt>
      <trkpt lat="47.21569" lon="6.06064">
        <ele>472.14</ele>
        <time>2018-09-22T13:16:13Z</time>
      </trkpt>
      <trkpt lat="47.21566" lon="6.06059">
        <ele>471.66</ele>
        <time>2018-09-22T13:16:14Z</time>
      </trkpt>
      <trkpt lat="47.21563" lon="6.06054">
        <ele>471.66</ele>
        <time>2018-09-22T13:16:15Z</time>
      </trkpt>
      <trkpt lat="47.21559" lon="6.06048">
        <ele>471.18</ele>
        <time>2018-09-22T13:16:16Z</time>
      </trkpt>
      <trkpt lat="47.21556" lon="6.06042">
        <ele>471.18</ele>
        <time>2018-09-22T13:16:17Z</time>
      </trkpt>
      <trkpt lat="47.21553" lon="6.06038">
        <ele>471.18</ele>
        <time>2018-09-22T13:16:18Z</time>
      </trkpt>
      <trkpt lat="47.2155" lon="6.06033">
        <ele>470.7</ele>
        <time>2018-09-22T13:16:19Z</time>
      </trkpt>
      <trkpt lat="47.21548" lon="6.06027">
        <ele>469.74</ele>
        <time>2018-09-22T13:16:20Z</time>
      </trkpt>
      <trkpt lat="47.21547" lon="6.0602">
        <ele>468.78</ele>
        <time>2018-09-22T13:16:21Z</time>
      </trkpt>
      <trkpt lat="47.21546" lon="6.06015">
        <ele>468.3</ele>
        <time>2018-09-22T13:16:22Z</time>
      </trkpt>
      <trkpt lat="47.21544" lon="6.06011">
        <ele>467.82</ele>
        <time>2018-09-22T13:16:23Z</time>
      </trkpt>
      <trkpt lat="47.21542" lon="6.06005">
        <ele>467.82</ele>
        <time>2018-09-22T13:16:24Z</time>
      </trkpt>
      <trkpt lat="47.21541" lon="6.05999">
        <ele>466.38</ele>
        <time>2018-09-22T13:16:25Z</time>
      </trkpt>
      <trkpt lat="47.2154" lon="6.05992">
        <ele>465.42</ele>
        <time>2018-09-22T13:16:26Z</time>
      </trkpt>
      <trkpt lat="47.21539" lon="6.05985">
        <ele>464.93</ele>
        <time>2018-09-22T13:16:27Z</time>
      </trkpt>
      <trkpt lat="47.21537" lon="6.05979">
        <ele>464.45</ele>
        <time>2018-09-22T13:16:28Z</time>
      </trkpt>
      <trkpt lat="47.21534" lon="6.05972">
        <ele>464.45</ele>
        <time>2018-09-22T13:16:29Z</time>
      </trkpt>
      <trkpt lat="47.21531" lon="6.05965">
        <ele>463.97</ele>
        <time>2018-09-22T13:16:30Z</time>
      </trkpt>
      <trkpt lat="47.21526" lon="6.05951">
        <ele>463.01</ele>
        <time>2018-09-22T13:16:32Z</time>
      </trkpt>
      <trkpt lat="47.21523" lon="6.05944">
        <ele>463.01</ele>
        <time>2018-09-22T13:16:33Z</time>
      </trkpt>
      <trkpt lat="47.21516" lon="6.0593">
        <ele>463.01</ele>
        <time>2018-09-22T13:16:35Z</time>
      </trkpt>
      <trkpt lat="47.21513" lon="6.05924">
        <ele>463.49</ele>
        <time>2018-09-22T13:16:36Z</time>
      </trkpt>
      <trkpt lat="47.21509" lon="6.05918">
        <ele>463.49</ele>
        <time>2018-09-22T13:16:37Z</time>
      </trkpt>
      <trkpt lat="47.21506" lon="6.05911">
        <ele>463.49</ele>
        <time>2018-09-22T13:16:38Z</time>
      </trkpt>
      <trkpt lat="47.21504" lon="6.05904">
        <ele>463.01</ele>
        <time>2018-09-22T13:16:39Z</time>
      </trkpt>
      <trkpt lat="47.21496" lon="6.05881">
        <ele>462.05</ele>
        <time>2018-09-22T13:16:42Z</time>
      </trkpt>
      <trkpt lat="47.21494" lon="6.05873">
        <ele>461.57</ele>
        <time>2018-09-22T13:16:43Z</time>
      </trkpt>
      <trkpt lat="47.21492" lon="6.05865">
        <ele>461.09</ele>
        <time>2018-09-22T13:16:44Z</time>
      </trkpt>
      <trkpt lat="47.21487" lon="6.05846">
        <ele>460.13</ele>
        <time>2018-09-22T13:16:46Z</time>
      </trkpt>
      <trkpt lat="47.21488" lon="6.05838">
        <ele>460.13</ele>
        <time>2018-09-22T13:16:47Z</time>
      </trkpt>
      <trkpt lat="47.21491" lon="6.05831">
        <ele>460.13</ele>
        <time>2018-09-22T13:16:48Z</time>
      </trkpt>
      <trkpt lat="47.21494" lon="6.05823">
        <ele>459.65</ele>
        <time>2018-09-22T13:16:49Z</time>
      </trkpt>
      <trkpt lat="47.21497" lon="6.05816">
        <ele>459.65</ele>
        <time>2018-09-22T13:16:50Z</time>
      </trkpt>
      <trkpt lat="47.21502" lon="6.058">
        <ele>458.21</ele>
        <time>2018-09-22T13:16:52Z</time>
      </trkpt>
      <trkpt lat="47.21505" lon="6.05791">
        <ele>457.24</ele>
        <time>2018-09-22T13:16:53Z</time>
      </trkpt>
      <trkpt lat="47.21513" lon="6.05765">
        <ele>455.8</ele>
        <time>2018-09-22T13:16:56Z</time>
      </trkpt>
      <trkpt lat="47.21515" lon="6.05757">
        <ele>455.32</ele>
        <time>2018-09-22T13:16:57Z</time>
      </trkpt>
      <trkpt lat="47.21518" lon="6.0575">
        <ele>455.32</ele>
        <time>2018-09-22T13:16:58Z</time>
      </trkpt>
      <trkpt lat="47.21521" lon="6.05743">
        <ele>455.32</ele>
        <time>2018-09-22T13:16:59Z</time>
      </trkpt>
      <trkpt lat="47.21524" lon="6.05736">
        <ele>454.36</ele>
        <time>2018-09-22T13:17:00Z</time>
      </trkpt>
      <trkpt lat="47.21525" lon="6.05724">
        <ele>454.36</ele>
        <time>2018-09-22T13:17:01Z</time>
      </trkpt>
      <trkpt lat="47.21524" lon="6.05712">
        <ele>454.84</ele>
        <time>2018-09-22T13:17:02Z</time>
      </trkpt>
      <trkpt lat="47.21524" lon="6.05702">
        <ele>454.36</ele>
        <time>2018-09-22T13:17:03Z</time>
      </trkpt>
      <trkpt lat="47.21529" lon="6.05658">
        <ele>453.4</ele>
        <time>2018-09-22T13:17:08Z</time>
      </trkpt>
      <trkpt lat="47.2153" lon="6.05649">
        <ele>452.92</ele>
        <time>2018-09-22T13:17:09Z</time>
      </trkpt>
      <trkpt lat="47.21536" lon="6.05584">
        <ele>450.03</ele>
        <time>2018-09-22T13:17:15Z</time>
      </trkpt>
      <trkpt lat="47.21541" lon="6.05561">
        <ele>449.07</ele>
        <time>2018-09-22T13:17:17Z</time>
      </trkpt>
      <trkpt lat="47.21577" lon="6.05466">
        <ele>448.59</ele>
        <time>2018-09-22T13:17:27Z</time>
      </trkpt>
      <trkpt lat="47.216" lon="6.0543">
        <ele>450.03</ele>
        <time>2018-09-22T13:17:33Z</time>
      </trkpt>
      <trkpt lat="47.21604" lon="6.05424">
        <ele>450.03</ele>
        <time>2018-09-22T13:17:34Z</time>
      </trkpt>
      <trkpt lat="47.21631" lon="6.05369">
        <ele>450.52</ele>
        <time>2018-09-22T13:17:42Z</time>
      </trkpt>
      <trkpt lat="47.21634" lon="6.05363">
        <ele>450.52</ele>
        <time>2018-09-22T13:17:43Z</time>
      </trkpt>
      <trkpt lat="47.21641" lon="6.0535">
        <ele>450.52</ele>
        <time>2018-09-22T13:17:45Z</time>
      </trkpt>
      <trkpt lat="47.21645" lon="6.05344">
        <ele>451</ele>
        <time>2018-09-22T13:17:46Z</time>
      </trkpt>
      <trkpt lat="47.2165" lon="6.05338">
        <ele>451</ele>
        <time>2018-09-22T13:17:47Z</time>
      </trkpt>
      <trkpt lat="47.21654" lon="6.05333">
        <ele>451</ele>
        <time>2018-09-22T13:17:48Z</time>
      </trkpt>
      <trkpt lat="47.21659" lon="6.05329">
        <ele>451</ele>
        <time>2018-09-22T13:17:49Z</time>
      </trkpt>
      <trkpt lat="47.21664" lon="6.05325">
        <ele>451.48</ele>
        <time>2018-09-22T13:17:50Z</time>
      </trkpt>
      <trkpt lat="47.21669" lon="6.05324">
        <ele>451.96</ele>
        <time>2018-09-22T13:17:51Z</time>
      </trkpt>
      <trkpt lat="47.21675" lon="6.05323">
        <ele>452.44</ele>
        <time>2018-09-22T13:17:52Z</time>
      </trkpt>
      <trkpt lat="47.21711" lon="6.05318">
        <ele>453.88</ele>
        <time>2018-09-22T13:17:59Z</time>
      </trkpt>
      <trkpt lat="47.21716" lon="6.05316">
        <ele>454.36</ele>
        <time>2018-09-22T13:18:00Z</time>
      </trkpt>
      <trkpt lat="47.21721" lon="6.05313">
        <ele>454.36</ele>
        <time>2018-09-22T13:18:01Z</time>
      </trkpt>
      <trkpt lat="47.21726" lon="6.05309">
        <ele>454.36</ele>
        <time>2018-09-22T13:18:02Z</time>
      </trkpt>
      <trkpt lat="47.21731" lon="6.05305">
        <ele>454.36</ele>
        <time>2018-09-22T13:18:03Z</time>
      </trkpt>
      <trkpt lat="47.21735" lon="6.053">
        <ele>454.84</ele>
        <time>2018-09-22T13:18:04Z</time>
      </trkpt>
      <trkpt lat="47.21739" lon="6.05295">
        <ele>454.84</ele>
        <time>2018-09-22T13:18:05Z</time>
      </trkpt>
      <trkpt lat="47.21743" lon="6.05289">
        <ele>454.36</ele>
        <time>2018-09-22T13:18:06Z</time>
      </trkpt>
      <trkpt lat="47.21747" lon="6.05284">
        <ele>454.84</ele>
        <time>2018-09-22T13:18:07Z</time>
      </trkpt>
      <trkpt lat="47.2175" lon="6.05277">
        <ele>454.84</ele>
        <time>2018-09-22T13:18:08Z</time>
      </trkpt>
      <trkpt lat="47.21753" lon="6.0527">
        <ele>454.84</ele>
        <time>2018-09-22T13:18:09Z</time>
      </trkpt>
      <trkpt lat="47.21756" lon="6.05263">
        <ele>454.84</ele>
        <time>2018-09-22T13:18:10Z</time>
      </trkpt>
      <trkpt lat="47.21758" lon="6.05256">
        <ele>454.84</ele>
        <time>2018-09-22T13:18:11Z</time>
      </trkpt>
      <trkpt lat="47.21765" lon="6.05235">
        <ele>455.8</ele>
        <time>2018-09-22T13:18:14Z</time>
      </trkpt>
      <trkpt lat="47.2177" lon="6.05214">
        <ele>456.76</ele>
        <time>2018-09-22T13:18:17Z</time>
      </trkpt>
      <trkpt lat="47.21773" lon="6.05192">
        <ele>456.76</ele>
        <time>2018-09-22T13:18:20Z</time>
      </trkpt>
      <trkpt lat="47.21764" lon="6.05115">
        <ele>456.28</ele>
        <time>2018-09-22T13:18:30Z</time>
      </trkpt>
      <trkpt lat="47.21743" lon="6.05052">
        <ele>452.92</ele>
        <time>2018-09-22T13:18:37Z</time>
      </trkpt>
      <trkpt lat="47.21738" lon="6.0503">
        <ele>451.96</ele>
        <time>2018-09-22T13:18:39Z</time>
      </trkpt>
      <trkpt lat="47.21737" lon="6.05019">
        <ele>451.48</ele>
        <time>2018-09-22T13:18:40Z</time>
      </trkpt>
      <trkpt lat="47.21737" lon="6.05007">
        <ele>451</ele>
        <time>2018-09-22T13:18:41Z</time>
      </trkpt>
      <trkpt lat="47.21739" lon="6.04995">
        <ele>451</ele>
        <time>2018-09-22T13:18:42Z</time>
      </trkpt>
      <trkpt lat="47.21742" lon="6.04985">
        <ele>450.52</ele>
        <time>2018-09-22T13:18:43Z</time>
      </trkpt>
      <trkpt lat="47.21746" lon="6.04975">
        <ele>450.52</ele>
        <time>2018-09-22T13:18:44Z</time>
      </trkpt>
      <trkpt lat="47.21752" lon="6.04967">
        <ele>450.03</ele>
        <time>2018-09-22T13:18:45Z</time>
      </trkpt>
      <trkpt lat="47.21757" lon="6.04959">
        <ele>450.03</ele>
        <time>2018-09-22T13:18:46Z</time>
      </trkpt>
      <trkpt lat="47.21763" lon="6.04952">
        <ele>450.03</ele>
        <time>2018-09-22T13:18:47Z</time>
      </trkpt>
      <trkpt lat="47.21806" lon="6.04878">
        <ele>451</ele>
        <time>2018-09-22T13:18:57Z</time>
      </trkpt>
      <trkpt lat="47.21808" lon="6.04871">
        <ele>451.48</ele>
        <time>2018-09-22T13:18:58Z</time>
      </trkpt>
      <trkpt lat="47.2181" lon="6.04863">
        <ele>451.96</ele>
        <time>2018-09-22T13:18:59Z</time>
      </trkpt>
      <trkpt lat="47.21811" lon="6.04856">
        <ele>452.92</ele>
        <time>2018-09-22T13:19:00Z</time>
      </trkpt>
      <trkpt lat="47.21811" lon="6.04848">
        <ele>452.92</ele>
        <time>2018-09-22T13:19:01Z</time>
      </trkpt>
      <trkpt lat="47.21811" lon="6.04841">
        <ele>453.4</ele>
        <time>2018-09-22T13:19:02Z</time>
      </trkpt>
      <trkpt lat="47.21811" lon="6.04833">
        <ele>453.4</ele>
        <time>2018-09-22T13:19:03Z</time>
      </trkpt>
      <trkpt lat="47.2181" lon="6.04826">
        <ele>453.4</ele>
        <time>2018-09-22T13:19:04Z</time>
      </trkpt>
      <trkpt lat="47.21808" lon="6.04804">
        <ele>453.88</ele>
        <time>2018-09-22T13:19:07Z</time>
      </trkpt>
      <trkpt lat="47.21808" lon="6.04797">
        <ele>454.36</ele>
        <time>2018-09-22T13:19:08Z</time>
      </trkpt>
      <trkpt lat="47.21809" lon="6.04744">
        <ele>454.84</ele>
        <time>2018-09-22T13:19:15Z</time>
      </trkpt>
      <trkpt lat="47.2181" lon="6.04736">
        <ele>454.84</ele>
        <time>2018-09-22T13:19:16Z</time>
      </trkpt>
      <trkpt lat="47.21813" lon="6.04676">
        <ele>455.8</ele>
        <time>2018-09-22T13:19:24Z</time>
      </trkpt>
      <trkpt lat="47.21813" lon="6.04642">
        <ele>457.24</ele>
        <time>2018-09-22T13:19:29Z</time>
      </trkpt>
      <trkpt lat="47.21812" lon="6.04636">
        <ele>457.24</ele>
        <time>2018-09-22T13:19:30Z</time>
      </trkpt>
      <trkpt lat="47.21812" lon="6.0463">
        <ele>457.72</ele>
        <time>2018-09-22T13:19:31Z</time>
      </trkpt>
      <trkpt lat="47.21804" lon="6.04596">
        <ele>459.17</ele>
        <time>2018-09-22T13:19:37Z</time>
      </trkpt>
      <trkpt lat="47.21795" lon="6.04544">
        <ele>461.09</ele>
        <time>2018-09-22T13:19:48Z</time>
      </trkpt>
      <trkpt lat="47.21792" lon="6.04528">
        <ele>461.57</ele>
        <time>2018-09-22T13:19:52Z</time>
      </trkpt>
      <trkpt lat="47.21791" lon="6.04524">
        <ele>462.05</ele>
        <time>2018-09-22T13:19:53Z</time>
      </trkpt>
      <trkpt lat="47.21789" lon="6.04521">
        <ele>462.53</ele>
        <time>2018-09-22T13:19:54Z</time>
      </trkpt>
      <trkpt lat="47.21788" lon="6.04517">
        <ele>463.01</ele>
        <time>2018-09-22T13:19:55Z</time>
      </trkpt>
      <trkpt lat="47.21787" lon="6.04514">
        <ele>463.49</ele>
        <time>2018-09-22T13:19:56Z</time>
      </trkpt>
      <trkpt lat="47.21786" lon="6.04511">
        <ele>463.97</ele>
        <time>2018-09-22T13:19:57Z</time>
      </trkpt>
      <trkpt lat="47.21784" lon="6.04507">
        <ele>464.45</ele>
        <time>2018-09-22T13:19:58Z</time>
      </trkpt>
      <trkpt lat="47.21772" lon="6.04484">
        <ele>467.34</ele>
        <time>2018-09-22T13:20:06Z</time>
      </trkpt>
      <trkpt lat="47.21761" lon="6.04447">
        <ele>468.78</ele>
        <time>2018-09-22T13:20:16Z</time>
      </trkpt>
      <trkpt lat="47.21751" lon="6.04415">
        <ele>467.82</ele>
        <time>2018-09-22T13:20:23Z</time>
      </trkpt>
      <trkpt lat="47.21744" lon="6.04372">
        <ele>465.9</ele>
        <time>2018-09-22T13:20:29Z</time>
      </trkpt>
      <trkpt lat="47.21743" lon="6.04362">
        <ele>464.93</ele>
        <time>2018-09-22T13:20:30Z</time>
      </trkpt>
      <trkpt lat="47.2174" lon="6.04343">
        <ele>463.49</ele>
        <time>2018-09-22T13:20:32Z</time>
      </trkpt>
      <trkpt lat="47.21738" lon="6.04334">
        <ele>463.49</ele>
        <time>2018-09-22T13:20:33Z</time>
      </trkpt>
      <trkpt lat="47.21726" lon="6.04283">
        <ele>463.49</ele>
        <time>2018-09-22T13:20:39Z</time>
      </trkpt>
      <trkpt lat="47.21719" lon="6.04253">
        <ele>463.97</ele>
        <time>2018-09-22T13:20:43Z</time>
      </trkpt>
      <trkpt lat="47.21718" lon="6.04247">
        <ele>464.45</ele>
        <time>2018-09-22T13:20:44Z</time>
      </trkpt>
      <trkpt lat="47.21717" lon="6.04239">
        <ele>464.93</ele>
        <time>2018-09-22T13:20:45Z</time>
      </trkpt>
      <trkpt lat="47.21717" lon="6.04232">
        <ele>464.93</ele>
        <time>2018-09-22T13:20:46Z</time>
      </trkpt>
      <trkpt lat="47.21715" lon="6.04225">
        <ele>464.93</ele>
        <time>2018-09-22T13:20:47Z</time>
      </trkpt>
      <trkpt lat="47.21713" lon="6.04219">
        <ele>465.42</ele>
        <time>2018-09-22T13:20:48Z</time>
      </trkpt>
      <trkpt lat="47.21712" lon="6.04212">
        <ele>465.42</ele>
        <time>2018-09-22T13:20:49Z</time>
      </trkpt>
      <trkpt lat="47.21708" lon="6.04198">
        <ele>465.42</ele>
        <time>2018-09-22T13:20:51Z</time>
      </trkpt>
      <trkpt lat="47.21707" lon="6.04191">
        <ele>465.9</ele>
        <time>2018-09-22T13:20:52Z</time>
      </trkpt>
      <trkpt lat="47.21704" lon="6.04179">
        <ele>466.38</ele>
        <time>2018-09-22T13:20:54Z</time>
      </trkpt>
      <trkpt lat="47.21701" lon="6.04167">
        <ele>467.34</ele>
        <time>2018-09-22T13:20:56Z</time>
      </trkpt>
      <trkpt lat="47.21697" lon="6.04155">
        <ele>467.34</ele>
        <time>2018-09-22T13:20:58Z</time>
      </trkpt>
      <trkpt lat="47.21695" lon="6.04149">
        <ele>467.82</ele>
        <time>2018-09-22T13:20:59Z</time>
      </trkpt>
      <trkpt lat="47.21674" lon="6.04093">
        <ele>468.78</ele>
        <time>2018-09-22T13:21:10Z</time>
      </trkpt>
      <trkpt lat="47.2167" lon="6.04077">
        <ele>468.3</ele>
        <time>2018-09-22T13:21:13Z</time>
      </trkpt>
      <trkpt lat="47.21669" lon="6.04065">
        <ele>467.82</ele>
        <time>2018-09-22T13:21:15Z</time>
      </trkpt>
      <trkpt lat="47.21668" lon="6.04058">
        <ele>467.82</ele>
        <time>2018-09-22T13:21:16Z</time>
      </trkpt>
      <trkpt lat="47.21668" lon="6.04052">
        <ele>467.82</ele>
        <time>2018-09-22T13:21:17Z</time>
      </trkpt>
      <trkpt lat="47.21668" lon="6.04046">
        <ele>467.34</ele>
        <time>2018-09-22T13:21:18Z</time>
      </trkpt>
      <trkpt lat="47.21666" lon="6.04039">
        <ele>467.34</ele>
        <time>2018-09-22T13:21:19Z</time>
      </trkpt>
      <trkpt lat="47.21666" lon="6.04032">
        <ele>466.86</ele>
        <time>2018-09-22T13:21:20Z</time>
      </trkpt>
      <trkpt lat="47.21665" lon="6.04025">
        <ele>466.38</ele>
        <time>2018-09-22T13:21:21Z</time>
      </trkpt>
      <trkpt lat="47.21665" lon="6.04018">
        <ele>466.38</ele>
        <time>2018-09-22T13:21:22Z</time>
      </trkpt>
      <trkpt lat="47.21664" lon="6.04011">
        <ele>466.38</ele>
        <time>2018-09-22T13:21:23Z</time>
      </trkpt>
      <trkpt lat="47.21659" lon="6.03991">
        <ele>466.38</ele>
        <time>2018-09-22T13:21:30Z</time>
      </trkpt>
      <trkpt lat="47.21658" lon="6.03986">
        <ele>466.38</ele>
        <time>2018-09-22T13:21:31Z</time>
      </trkpt>
      <trkpt lat="47.21656" lon="6.0398">
        <ele>466.38</ele>
        <time>2018-09-22T13:21:32Z</time>
      </trkpt>
      <trkpt lat="47.21654" lon="6.03973">
        <ele>466.38</ele>
        <time>2018-09-22T13:21:33Z</time>
      </trkpt>
      <trkpt lat="47.21652" lon="6.03968">
        <ele>466.38</ele>
        <time>2018-09-22T13:21:34Z</time>
      </trkpt>
      <trkpt lat="47.2165" lon="6.03962">
        <ele>466.38</ele>
        <time>2018-09-22T13:21:35Z</time>
      </trkpt>
      <trkpt lat="47.21643" lon="6.03945">
        <ele>467.34</ele>
        <time>2018-09-22T13:21:38Z</time>
      </trkpt>
      <trkpt lat="47.21642" lon="6.0394">
        <ele>467.82</ele>
        <time>2018-09-22T13:21:39Z</time>
      </trkpt>
      <trkpt lat="47.21633" lon="6.03895">
        <ele>470.7</ele>
        <time>2018-09-22T13:21:47Z</time>
      </trkpt>
      <trkpt lat="47.21631" lon="6.0388">
        <ele>471.18</ele>
        <time>2018-09-22T13:21:50Z</time>
      </trkpt>
      <trkpt lat="47.2163" lon="6.03875">
        <ele>471.66</ele>
        <time>2018-09-22T13:21:51Z</time>
      </trkpt>
      <trkpt lat="47.21629" lon="6.0387">
        <ele>472.14</ele>
        <time>2018-09-22T13:21:52Z</time>
      </trkpt>
      <trkpt lat="47.21623" lon="6.03842">
        <ele>473.11</ele>
        <time>2018-09-22T13:21:58Z</time>
      </trkpt>
      <trkpt lat="47.21621" lon="6.03839">
        <ele>473.59</ele>
        <time>2018-09-22T13:21:59Z</time>
      </trkpt>
      <trkpt lat="47.2162" lon="6.03837">
        <ele>474.07</ele>
        <time>2018-09-22T13:22:00Z</time>
      </trkpt>
      <trkpt lat="47.21618" lon="6.03834">
        <ele>474.55</ele>
        <time>2018-09-22T13:22:01Z</time>
      </trkpt>
      <trkpt lat="47.21617" lon="6.03832">
        <ele>474.55</ele>
        <time>2018-09-22T13:22:02Z</time>
      </trkpt>
      <trkpt lat="47.21615" lon="6.03828">
        <ele>474.55</ele>
        <time>2018-09-22T13:22:03Z</time>
      </trkpt>
      <trkpt lat="47.21613" lon="6.03825">
        <ele>475.03</ele>
        <time>2018-09-22T13:22:04Z</time>
      </trkpt>
      <trkpt lat="47.21602" lon="6.03788">
        <ele>477.91</ele>
        <time>2018-09-22T13:22:13Z</time>
      </trkpt>
      <trkpt lat="47.21597" lon="6.0374">
        <ele>478.87</ele>
        <time>2018-09-22T13:22:23Z</time>
      </trkpt>
      <trkpt lat="47.21586" lon="6.03686">
        <ele>479.35</ele>
        <time>2018-09-22T13:22:33Z</time>
      </trkpt>
      <trkpt lat="47.21581" lon="6.03645">
        <ele>480.8</ele>
        <time>2018-09-22T13:22:41Z</time>
      </trkpt>
      <trkpt lat="47.21572" lon="6.03601">
        <ele>482.24</ele>
        <time>2018-09-22T13:22:50Z</time>
      </trkpt>
      <trkpt lat="47.21563" lon="6.03556">
        <ele>484.16</ele>
        <time>2018-09-22T13:22:59Z</time>
      </trkpt>
      <trkpt lat="47.21551" lon="6.03511">
        <ele>487.05</ele>
        <time>2018-09-22T13:23:09Z</time>
      </trkpt>
      <trkpt lat="47.2155" lon="6.03503">
        <ele>487.05</ele>
        <time>2018-09-22T13:23:11Z</time>
      </trkpt>
      <trkpt lat="47.2155" lon="6.035">
        <ele>487.53</ele>
        <time>2018-09-22T13:23:12Z</time>
      </trkpt>
      <trkpt lat="47.21549" lon="6.03496">
        <ele>488.01</ele>
        <time>2018-09-22T13:23:13Z</time>
      </trkpt>
      <trkpt lat="47.21547" lon="6.03484">
        <ele>488.97</ele>
        <time>2018-09-22T13:23:16Z</time>
      </trkpt>
      <trkpt lat="47.21547" lon="6.0348">
        <ele>488.97</ele>
        <time>2018-09-22T13:23:17Z</time>
      </trkpt>
      <trkpt lat="47.21539" lon="6.03437">
        <ele>491.85</ele>
        <time>2018-09-22T13:23:28Z</time>
      </trkpt>
      <trkpt lat="47.21536" lon="6.03421">
        <ele>492.81</ele>
        <time>2018-09-22T13:23:33Z</time>
      </trkpt>
      <trkpt lat="47.21535" lon="6.03418">
        <ele>492.81</ele>
        <time>2018-09-22T13:23:34Z</time>
      </trkpt>
      <trkpt lat="47.21534" lon="6.03414">
        <ele>493.29</ele>
        <time>2018-09-22T13:23:35Z</time>
      </trkpt>
      <trkpt lat="47.21533" lon="6.03411">
        <ele>493.77</ele>
        <time>2018-09-22T13:23:36Z</time>
      </trkpt>
      <trkpt lat="47.21533" lon="6.03408">
        <ele>493.77</ele>
        <time>2018-09-22T13:23:37Z</time>
      </trkpt>
      <trkpt lat="47.21532" lon="6.03405">
        <ele>494.26</ele>
        <time>2018-09-22T13:23:38Z</time>
      </trkpt>
      <trkpt lat="47.21531" lon="6.03401">
        <ele>494.26</ele>
        <time>2018-09-22T13:23:39Z</time>
      </trkpt>
      <trkpt lat="47.21524" lon="6.03372">
        <ele>495.7</ele>
        <time>2018-09-22T13:23:47Z</time>
      </trkpt>
      <trkpt lat="47.21524" lon="6.03368">
        <ele>495.7</ele>
        <time>2018-09-22T13:23:48Z</time>
      </trkpt>
      <trkpt lat="47.21523" lon="6.03364">
        <ele>495.7</ele>
        <time>2018-09-22T13:23:49Z</time>
      </trkpt>
      <trkpt lat="47.21518" lon="6.03345">
        <ele>496.66</ele>
        <time>2018-09-22T13:23:54Z</time>
      </trkpt>
      <trkpt lat="47.21518" lon="6.03343">
        <ele>496.18</ele>
        <time>2018-09-22T13:23:55Z</time>
      </trkpt>
      <trkpt lat="47.21518" lon="6.0334">
        <ele>496.18</ele>
        <time>2018-09-22T13:23:56Z</time>
      </trkpt>
      <trkpt lat="47.21518" lon="6.03337">
        <ele>496.18</ele>
        <time>2018-09-22T13:23:57Z</time>
      </trkpt>
      <trkpt lat="47.21519" lon="6.03334">
        <ele>495.7</ele>
        <time>2018-09-22T13:23:58Z</time>
      </trkpt>
      <trkpt lat="47.21521" lon="6.03332">
        <ele>495.22</ele>
        <time>2018-09-22T13:23:59Z</time>
      </trkpt>
      <trkpt lat="47.21523" lon="6.03329">
        <ele>494.26</ele>
        <time>2018-09-22T13:24:00Z</time>
      </trkpt>
      <trkpt lat="47.21524" lon="6.03324">
        <ele>493.29</ele>
        <time>2018-09-22T13:24:01Z</time>
      </trkpt>
      <trkpt lat="47.21536" lon="6.03313">
        <ele>488.49</ele>
        <time>2018-09-22T13:24:05Z</time>
      </trkpt>
      <trkpt lat="47.21538" lon="6.03306">
        <ele>486.56</ele>
        <time>2018-09-22T13:24:07Z</time>
      </trkpt>
      <trkpt lat="47.21538" lon="6.03299">
        <ele>486.08</ele>
        <time>2018-09-22T13:24:08Z</time>
      </trkpt>
      <trkpt lat="47.21537" lon="6.03291">
        <ele>485.6</ele>
        <time>2018-09-22T13:24:09Z</time>
      </trkpt>
      <trkpt lat="47.21536" lon="6.03281">
        <ele>486.08</ele>
        <time>2018-09-22T13:24:10Z</time>
      </trkpt>
      <trkpt lat="47.21534" lon="6.03272">
        <ele>486.08</ele>
        <time>2018-09-22T13:24:11Z</time>
      </trkpt>
      <trkpt lat="47.21532" lon="6.03263">
        <ele>486.08</ele>
        <time>2018-09-22T13:24:12Z</time>
      </trkpt>
      <trkpt lat="47.21531" lon="6.03252">
        <ele>486.08</ele>
        <time>2018-09-22T13:24:13Z</time>
      </trkpt>
      <trkpt lat="47.21532" lon="6.03243">
        <ele>485.6</ele>
        <time>2018-09-22T13:24:14Z</time>
      </trkpt>
      <trkpt lat="47.21531" lon="6.03236">
        <ele>485.6</ele>
        <time>2018-09-22T13:24:15Z</time>
      </trkpt>
      <trkpt lat="47.2153" lon="6.03228">
        <ele>485.6</ele>
        <time>2018-09-22T13:24:16Z</time>
      </trkpt>
      <trkpt lat="47.2153" lon="6.0322">
        <ele>485.6</ele>
        <time>2018-09-22T13:24:17Z</time>
      </trkpt>
      <trkpt lat="47.21528" lon="6.03206">
        <ele>485.6</ele>
        <time>2018-09-22T13:24:19Z</time>
      </trkpt>
      <trkpt lat="47.21526" lon="6.03198">
        <ele>485.6</ele>
        <time>2018-09-22T13:24:20Z</time>
      </trkpt>
      <trkpt lat="47.21525" lon="6.03191">
        <ele>485.6</ele>
        <time>2018-09-22T13:24:21Z</time>
      </trkpt>
      <trkpt lat="47.21515" lon="6.0315">
        <ele>485.6</ele>
        <time>2018-09-22T13:24:27Z</time>
      </trkpt>
      <trkpt lat="47.21514" lon="6.03143">
        <ele>485.6</ele>
        <time>2018-09-22T13:24:28Z</time>
      </trkpt>
      <trkpt lat="47.21513" lon="6.03137">
        <ele>486.08</ele>
        <time>2018-09-22T13:24:29Z</time>
      </trkpt>
      <trkpt lat="47.21512" lon="6.0313">
        <ele>486.08</ele>
        <time>2018-09-22T13:24:30Z</time>
      </trkpt>
      <trkpt lat="47.2151" lon="6.03123">
        <ele>486.08</ele>
        <time>2018-09-22T13:24:31Z</time>
      </trkpt>
      <trkpt lat="47.21508" lon="6.03117">
        <ele>486.56</ele>
        <time>2018-09-22T13:24:32Z</time>
      </trkpt>
      <trkpt lat="47.21507" lon="6.0311">
        <ele>486.56</ele>
        <time>2018-09-22T13:24:33Z</time>
      </trkpt>
      <trkpt lat="47.21506" lon="6.03104">
        <ele>486.56</ele>
        <time>2018-09-22T13:24:34Z</time>
      </trkpt>
      <trkpt lat="47.21501" lon="6.03076">
        <ele>487.53</ele>
        <time>2018-09-22T13:24:42Z</time>
      </trkpt>
      <trkpt lat="47.21502" lon="6.03071">
        <ele>487.05</ele>
        <time>2018-09-22T13:24:45Z</time>
      </trkpt>
      <trkpt lat="47.21503" lon="6.0307">
        <ele>486.56</ele>
        <time>2018-09-22T13:24:46Z</time>
      </trkpt>
      <trkpt lat="47.21505" lon="6.03065">
        <ele>485.12</ele>
        <time>2018-09-22T13:24:49Z</time>
      </trkpt>
      <trkpt lat="47.21506" lon="6.03063">
        <ele>484.16</ele>
        <time>2018-09-22T13:24:50Z</time>
      </trkpt>
      <trkpt lat="47.21506" lon="6.03061">
        <ele>483.2</ele>
        <time>2018-09-22T13:24:51Z</time>
      </trkpt>
      <trkpt lat="47.21507" lon="6.03059">
        <ele>482.72</ele>
        <time>2018-09-22T13:24:52Z</time>
      </trkpt>
      <trkpt lat="47.2151" lon="6.03034">
        <ele>481.28</ele>
        <time>2018-09-22T13:24:58Z</time>
      </trkpt>
      <trkpt lat="47.21513" lon="6.03021">
        <ele>479.84</ele>
        <time>2018-09-22T13:25:00Z</time>
      </trkpt>
      <trkpt lat="47.21515" lon="6.03013">
        <ele>478.87</ele>
        <time>2018-09-22T13:25:01Z</time>
      </trkpt>
      <trkpt lat="47.21517" lon="6.03006">
        <ele>478.39</ele>
        <time>2018-09-22T13:25:02Z</time>
      </trkpt>
      <trkpt lat="47.21519" lon="6.02999">
        <ele>477.91</ele>
        <time>2018-09-22T13:25:03Z</time>
      </trkpt>
      <trkpt lat="47.2152" lon="6.02992">
        <ele>477.43</ele>
        <time>2018-09-22T13:25:04Z</time>
      </trkpt>
      <trkpt lat="47.2152" lon="6.02986">
        <ele>477.43</ele>
        <time>2018-09-22T13:25:05Z</time>
      </trkpt>
      <trkpt lat="47.21519" lon="6.02981">
        <ele>478.39</ele>
        <time>2018-09-22T13:25:06Z</time>
      </trkpt>
      <trkpt lat="47.21519" lon="6.02976">
        <ele>479.35</ele>
        <time>2018-09-22T13:25:07Z</time>
      </trkpt>
      <trkpt lat="47.21519" lon="6.02972">
        <ele>479.84</ele>
        <time>2018-09-22T13:25:08Z</time>
      </trkpt>
      <trkpt lat="47.21517" lon="6.02962">
        <ele>480.8</ele>
        <time>2018-09-22T13:25:11Z</time>
      </trkpt>
      <trkpt lat="47.21515" lon="6.02932">
        <ele>481.28</ele>
        <time>2018-09-22T13:25:18Z</time>
      </trkpt>
      <trkpt lat="47.21514" lon="6.0293">
        <ele>481.28</ele>
        <time>2018-09-22T13:25:19Z</time>
      </trkpt>
      <trkpt lat="47.21512" lon="6.02928">
        <ele>481.76</ele>
        <time>2018-09-22T13:25:20Z</time>
      </trkpt>
      <trkpt lat="47.21511" lon="6.02924">
        <ele>482.72</ele>
        <time>2018-09-22T13:25:22Z</time>
      </trkpt>
      <trkpt lat="47.21505" lon="6.02899">
        <ele>482.24</ele>
        <time>2018-09-22T13:25:29Z</time>
      </trkpt>
      <trkpt lat="47.21502" lon="6.02898">
        <ele>482.72</ele>
        <time>2018-09-22T13:25:30Z</time>
      </trkpt>
      <trkpt lat="47.215" lon="6.02896">
        <ele>483.2</ele>
        <time>2018-09-22T13:25:31Z</time>
      </trkpt>
      <trkpt lat="47.21499" lon="6.02893">
        <ele>484.16</ele>
        <time>2018-09-22T13:25:32Z</time>
      </trkpt>
      <trkpt lat="47.21497" lon="6.02888">
        <ele>483.68</ele>
        <time>2018-09-22T13:25:34Z</time>
      </trkpt>
      <trkpt lat="47.21496" lon="6.02884">
        <ele>484.16</ele>
        <time>2018-09-22T13:25:35Z</time>
      </trkpt>
      <trkpt lat="47.21494" lon="6.02879">
        <ele>483.68</ele>
        <time>2018-09-22T13:25:36Z</time>
      </trkpt>
      <trkpt lat="47.21493" lon="6.02874">
        <ele>483.68</ele>
        <time>2018-09-22T13:25:37Z</time>
      </trkpt>
      <trkpt lat="47.21492" lon="6.0287">
        <ele>483.68</ele>
        <time>2018-09-22T13:25:38Z</time>
      </trkpt>
      <trkpt lat="47.21479" lon="6.02834">
        <ele>482.24</ele>
        <time>2018-09-22T13:25:48Z</time>
      </trkpt>
      <trkpt lat="47.21475" lon="6.02822">
        <ele>481.28</ele>
        <time>2018-09-22T13:25:51Z</time>
      </trkpt>
      <trkpt lat="47.21475" lon="6.02818">
        <ele>480.8</ele>
        <time>2018-09-22T13:25:52Z</time>
      </trkpt>
      <trkpt lat="47.21474" lon="6.02813">
        <ele>479.84</ele>
        <time>2018-09-22T13:25:53Z</time>
      </trkpt>
      <trkpt lat="47.21472" lon="6.02808">
        <ele>479.35</ele>
        <time>2018-09-22T13:25:54Z</time>
      </trkpt>
      <trkpt lat="47.21471" lon="6.02804">
        <ele>478.87</ele>
        <time>2018-09-22T13:25:55Z</time>
      </trkpt>
      <trkpt lat="47.21469" lon="6.02801">
        <ele>477.43</ele>
        <time>2018-09-22T13:25:56Z</time>
      </trkpt>
      <trkpt lat="47.21467" lon="6.02797">
        <ele>477.43</ele>
        <time>2018-09-22T13:25:57Z</time>
      </trkpt>
      <trkpt lat="47.21465" lon="6.02793">
        <ele>477.43</ele>
        <time>2018-09-22T13:25:58Z</time>
      </trkpt>
      <trkpt lat="47.21463" lon="6.02789">
        <ele>476.95</ele>
        <time>2018-09-22T13:25:59Z</time>
      </trkpt>
      <trkpt lat="47.21462" lon="6.02784">
        <ele>475.99</ele>
        <time>2018-09-22T13:26:00Z</time>
      </trkpt>
      <trkpt lat="47.2146" lon="6.02778">
        <ele>475.99</ele>
        <time>2018-09-22T13:26:01Z</time>
      </trkpt>
      <trkpt lat="47.21456" lon="6.02772">
        <ele>475.51</ele>
        <time>2018-09-22T13:26:02Z</time>
      </trkpt>
      <trkpt lat="47.21452" lon="6.02766">
        <ele>475.99</ele>
        <time>2018-09-22T13:26:03Z</time>
      </trkpt>
      <trkpt lat="47.21449" lon="6.02761">
        <ele>476.47</ele>
        <time>2018-09-22T13:26:04Z</time>
      </trkpt>
      <trkpt lat="47.21445" lon="6.02756">
        <ele>476.47</ele>
        <time>2018-09-22T13:26:05Z</time>
      </trkpt>
      <trkpt lat="47.21442" lon="6.02751">
        <ele>476.47</ele>
        <time>2018-09-22T13:26:06Z</time>
      </trkpt>
      <trkpt lat="47.21429" lon="6.0272">
        <ele>476.47</ele>
        <time>2018-09-22T13:26:14Z</time>
      </trkpt>
      <trkpt lat="47.21428" lon="6.02717">
        <ele>475.99</ele>
        <time>2018-09-22T13:26:15Z</time>
      </trkpt>
      <trkpt lat="47.21424" lon="6.027">
        <ele>475.99</ele>
        <time>2018-09-22T13:26:20Z</time>
      </trkpt>
      <trkpt lat="47.21423" lon="6.02674">
        <ele>474.07</ele>
        <time>2018-09-22T13:26:26Z</time>
      </trkpt>
      <trkpt lat="47.21419" lon="6.02661">
        <ele>474.55</ele>
        <time>2018-09-22T13:26:34Z</time>
      </trkpt>
      <trkpt lat="47.21412" lon="6.02648">
        <ele>475.99</ele>
        <time>2018-09-22T13:26:44Z</time>
      </trkpt>
      <trkpt lat="47.21408" lon="6.02646">
        <ele>476.47</ele>
        <time>2018-09-22T13:26:47Z</time>
      </trkpt>
      <trkpt lat="47.21404" lon="6.02647">
        <ele>477.43</ele>
        <time>2018-09-22T13:26:50Z</time>
      </trkpt>
      <trkpt lat="47.21401" lon="6.02645">
        <ele>477.91</ele>
        <time>2018-09-22T13:26:52Z</time>
      </trkpt>
      <trkpt lat="47.21395" lon="6.02644">
        <ele>478.87</ele>
        <time>2018-09-22T13:26:56Z</time>
      </trkpt>
      <trkpt lat="47.21385" lon="6.02635">
        <ele>478.87</ele>
        <time>2018-09-22T13:27:02Z</time>
      </trkpt>
      <trkpt lat="47.21377" lon="6.02592">
        <ele>479.35</ele>
        <time>2018-09-22T13:27:13Z</time>
      </trkpt>
      <trkpt lat="47.21372" lon="6.02564">
        <ele>480.32</ele>
        <time>2018-09-22T13:27:22Z</time>
      </trkpt>
      <trkpt lat="47.21369" lon="6.02545">
        <ele>480.8</ele>
        <time>2018-09-22T13:27:27Z</time>
      </trkpt>
      <trkpt lat="47.21366" lon="6.02512">
        <ele>481.28</ele>
        <time>2018-09-22T13:27:36Z</time>
      </trkpt>
      <trkpt lat="47.21363" lon="6.02472">
        <ele>482.24</ele>
        <time>2018-09-22T13:27:45Z</time>
      </trkpt>
      <trkpt lat="47.21357" lon="6.02454">
        <ele>482.72</ele>
        <time>2018-09-22T13:27:50Z</time>
      </trkpt>
      <trkpt lat="47.21354" lon="6.02444">
        <ele>482.72</ele>
        <time>2018-09-22T13:27:53Z</time>
      </trkpt>
      <trkpt lat="47.21352" lon="6.02428">
        <ele>482.24</ele>
        <time>2018-09-22T13:27:56Z</time>
      </trkpt>
      <trkpt lat="47.2135" lon="6.02422">
        <ele>481.76</ele>
        <time>2018-09-22T13:27:57Z</time>
      </trkpt>
      <trkpt lat="47.21349" lon="6.02415">
        <ele>481.28</ele>
        <time>2018-09-22T13:27:58Z</time>
      </trkpt>
      <trkpt lat="47.21348" lon="6.02408">
        <ele>481.28</ele>
        <time>2018-09-22T13:27:59Z</time>
      </trkpt>
      <trkpt lat="47.21343" lon="6.02387">
        <ele>479.35</ele>
        <time>2018-09-22T13:28:02Z</time>
      </trkpt>
      <trkpt lat="47.21341" lon="6.02381">
        <ele>479.35</ele>
        <time>2018-09-22T13:28:03Z</time>
      </trkpt>
      <trkpt lat="47.21339" lon="6.02374">
        <ele>478.87</ele>
        <time>2018-09-22T13:28:04Z</time>
      </trkpt>
      <trkpt lat="47.21328" lon="6.02351">
        <ele>475.51</ele>
        <time>2018-09-22T13:28:09Z</time>
      </trkpt>
      <trkpt lat="47.21325" lon="6.02342">
        <ele>473.59</ele>
        <time>2018-09-22T13:28:11Z</time>
      </trkpt>
      <trkpt lat="47.21323" lon="6.02341">
        <ele>473.59</ele>
        <time>2018-09-22T13:28:12Z</time>
      </trkpt>
      <trkpt lat="47.21321" lon="6.02339">
        <ele>473.59</ele>
        <time>2018-09-22T13:28:13Z</time>
      </trkpt>
      <trkpt lat="47.21319" lon="6.02337">
        <ele>472.63</ele>
        <time>2018-09-22T13:28:14Z</time>
      </trkpt>
      <trkpt lat="47.21317" lon="6.02334">
        <ele>472.14</ele>
        <time>2018-09-22T13:28:15Z</time>
      </trkpt>
      <trkpt lat="47.21306" lon="6.02323">
        <ele>468.78</ele>
        <time>2018-09-22T13:28:21Z</time>
      </trkpt>
      <trkpt lat="47.21303" lon="6.02312">
        <ele>465.42</ele>
        <time>2018-09-22T13:28:26Z</time>
      </trkpt>
      <trkpt lat="47.21302" lon="6.02311">
        <ele>464.93</ele>
        <time>2018-09-22T13:28:27Z</time>
      </trkpt>
      <trkpt lat="47.213" lon="6.02308">
        <ele>464.45</ele>
        <time>2018-09-22T13:28:28Z</time>
      </trkpt>
      <trkpt lat="47.21297" lon="6.02304">
        <ele>463.01</ele>
        <time>2018-09-22T13:28:30Z</time>
      </trkpt>
      <trkpt lat="47.21296" lon="6.02302">
        <ele>462.05</ele>
        <time>2018-09-22T13:28:31Z</time>
      </trkpt>
      <trkpt lat="47.21294" lon="6.02301">
        <ele>461.09</ele>
        <time>2018-09-22T13:28:32Z</time>
      </trkpt>
      <trkpt lat="47.2129" lon="6.02297">
        <ele>459.65</ele>
        <time>2018-09-22T13:28:34Z</time>
      </trkpt>
      <trkpt lat="47.21288" lon="6.02295">
        <ele>458.69</ele>
        <time>2018-09-22T13:28:35Z</time>
      </trkpt>
      <trkpt lat="47.21286" lon="6.02293">
        <ele>457.72</ele>
        <time>2018-09-22T13:28:36Z</time>
      </trkpt>
      <trkpt lat="47.21284" lon="6.02292">
        <ele>457.24</ele>
        <time>2018-09-22T13:28:37Z</time>
      </trkpt>
      <trkpt lat="47.21281" lon="6.02291">
        <ele>456.28</ele>
        <time>2018-09-22T13:28:38Z</time>
      </trkpt>
      <trkpt lat="47.21279" lon="6.02287">
        <ele>455.32</ele>
        <time>2018-09-22T13:28:39Z</time>
      </trkpt>
      <trkpt lat="47.21277" lon="6.02283">
        <ele>454.36</ele>
        <time>2018-09-22T13:28:40Z</time>
      </trkpt>
      <trkpt lat="47.21276" lon="6.0228">
        <ele>454.36</ele>
        <time>2018-09-22T13:28:41Z</time>
      </trkpt>
      <trkpt lat="47.21275" lon="6.02278">
        <ele>453.88</ele>
        <time>2018-09-22T13:28:42Z</time>
      </trkpt>
      <trkpt lat="47.21276" lon="6.02276">
        <ele>453.4</ele>
        <time>2018-09-22T13:28:43Z</time>
      </trkpt>
      <trkpt lat="47.21278" lon="6.02274">
        <ele>452.92</ele>
        <time>2018-09-22T13:28:44Z</time>
      </trkpt>
      <trkpt lat="47.2128" lon="6.02272">
        <ele>451.96</ele>
        <time>2018-09-22T13:28:45Z</time>
      </trkpt>
      <trkpt lat="47.21283" lon="6.02269">
        <ele>451.96</ele>
        <time>2018-09-22T13:28:46Z</time>
      </trkpt>
      <trkpt lat="47.21287" lon="6.02268">
        <ele>451</ele>
        <time>2018-09-22T13:28:47Z</time>
      </trkpt>
      <trkpt lat="47.21291" lon="6.02267">
        <ele>450.52</ele>
        <time>2018-09-22T13:28:48Z</time>
      </trkpt>
      <trkpt lat="47.21295" lon="6.02267">
        <ele>450.52</ele>
        <time>2018-09-22T13:28:49Z</time>
      </trkpt>
      <trkpt lat="47.2132" lon="6.02253">
        <ele>448.59</ele>
        <time>2018-09-22T13:28:58Z</time>
      </trkpt>
      <trkpt lat="47.21322" lon="6.02249">
        <ele>447.63</ele>
        <time>2018-09-22T13:28:59Z</time>
      </trkpt>
      <trkpt lat="47.21324" lon="6.02245">
        <ele>447.63</ele>
        <time>2018-09-22T13:29:00Z</time>
      </trkpt>
      <trkpt lat="47.21325" lon="6.02242">
        <ele>448.11</ele>
        <time>2018-09-22T13:29:01Z</time>
      </trkpt>
      <trkpt lat="47.21326" lon="6.02236">
        <ele>447.63</ele>
        <time>2018-09-22T13:29:03Z</time>
      </trkpt>
      <trkpt lat="47.21325" lon="6.0223">
        <ele>447.15</ele>
        <time>2018-09-22T13:29:04Z</time>
      </trkpt>
      <trkpt lat="47.21324" lon="6.02226">
        <ele>447.15</ele>
        <time>2018-09-22T13:29:05Z</time>
      </trkpt>
      <trkpt lat="47.21324" lon="6.02221">
        <ele>447.15</ele>
        <time>2018-09-22T13:29:06Z</time>
      </trkpt>
      <trkpt lat="47.21322" lon="6.02189">
        <ele>444.75</ele>
        <time>2018-09-22T13:29:16Z</time>
      </trkpt>
      <trkpt lat="47.2132" lon="6.02169">
        <ele>443.79</ele>
        <time>2018-09-22T13:29:25Z</time>
      </trkpt>
      <trkpt lat="47.21317" lon="6.02165">
        <ele>443.79</ele>
        <time>2018-09-22T13:29:38Z</time>
      </trkpt>
      <trkpt lat="47.21316" lon="6.02163">
        <ele>443.31</ele>
        <time>2018-09-22T13:29:39Z</time>
      </trkpt>
      <trkpt lat="47.21315" lon="6.02159">
        <ele>442.82</ele>
        <time>2018-09-22T13:29:40Z</time>
      </trkpt>
      <trkpt lat="47.21314" lon="6.02155">
        <ele>442.34</ele>
        <time>2018-09-22T13:29:41Z</time>
      </trkpt>
      <trkpt lat="47.21312" lon="6.02152">
        <ele>441.86</ele>
        <time>2018-09-22T13:29:42Z</time>
      </trkpt>
      <trkpt lat="47.2131" lon="6.02149">
        <ele>441.38</ele>
        <time>2018-09-22T13:29:43Z</time>
      </trkpt>
      <trkpt lat="47.21305" lon="6.02139">
        <ele>440.42</ele>
        <time>2018-09-22T13:29:45Z</time>
      </trkpt>
      <trkpt lat="47.21304" lon="6.02133">
        <ele>439.46</ele>
        <time>2018-09-22T13:29:46Z</time>
      </trkpt>
      <trkpt lat="47.21304" lon="6.02126">
        <ele>439.46</ele>
        <time>2018-09-22T13:29:47Z</time>
      </trkpt>
      <trkpt lat="47.21304" lon="6.02119">
        <ele>438.98</ele>
        <time>2018-09-22T13:29:48Z</time>
      </trkpt>
      <trkpt lat="47.21305" lon="6.02112">
        <ele>438.5</ele>
        <time>2018-09-22T13:29:49Z</time>
      </trkpt>
      <trkpt lat="47.21306" lon="6.02104">
        <ele>438.02</ele>
        <time>2018-09-22T13:29:50Z</time>
      </trkpt>
      <trkpt lat="47.21313" lon="6.02078">
        <ele>434.17</ele>
        <time>2018-09-22T13:29:53Z</time>
      </trkpt>
      <trkpt lat="47.21322" lon="6.02048">
        <ele>432.73</ele>
        <time>2018-09-22T13:29:56Z</time>
      </trkpt>
      <trkpt lat="47.21322" lon="6.02037">
        <ele>432.25</ele>
        <time>2018-09-22T13:29:57Z</time>
      </trkpt>
      <trkpt lat="47.21322" lon="6.02026">
        <ele>432.25</ele>
        <time>2018-09-22T13:29:58Z</time>
      </trkpt>
      <trkpt lat="47.21322" lon="6.02005">
        <ele>432.25</ele>
        <time>2018-09-22T13:30:00Z</time>
      </trkpt>
      <trkpt lat="47.21323" lon="6.01996">
        <ele>431.77</ele>
        <time>2018-09-22T13:30:01Z</time>
      </trkpt>
      <trkpt lat="47.21324" lon="6.01987">
        <ele>431.77</ele>
        <time>2018-09-22T13:30:02Z</time>
      </trkpt>
      <trkpt lat="47.21325" lon="6.01978">
        <ele>431.77</ele>
        <time>2018-09-22T13:30:03Z</time>
      </trkpt>
      <trkpt lat="47.21328" lon="6.01968">
        <ele>431.29</ele>
        <time>2018-09-22T13:30:04Z</time>
      </trkpt>
      <trkpt lat="47.21331" lon="6.01959">
        <ele>430.81</ele>
        <time>2018-09-22T13:30:05Z</time>
      </trkpt>
      <trkpt lat="47.21335" lon="6.01952">
        <ele>429.85</ele>
        <time>2018-09-22T13:30:06Z</time>
      </trkpt>
      <trkpt lat="47.2134" lon="6.01944">
        <ele>429.37</ele>
        <time>2018-09-22T13:30:07Z</time>
      </trkpt>
      <trkpt lat="47.21345" lon="6.01937">
        <ele>429.37</ele>
        <time>2018-09-22T13:30:08Z</time>
      </trkpt>
      <trkpt lat="47.21349" lon="6.01929">
        <ele>428.89</ele>
        <time>2018-09-22T13:30:09Z</time>
      </trkpt>
      <trkpt lat="47.21353" lon="6.0192">
        <ele>428.89</ele>
        <time>2018-09-22T13:30:10Z</time>
      </trkpt>
      <trkpt lat="47.21356" lon="6.01911">
        <ele>429.37</ele>
        <time>2018-09-22T13:30:11Z</time>
      </trkpt>
      <trkpt lat="47.21358" lon="6.01902">
        <ele>428.4</ele>
        <time>2018-09-22T13:30:12Z</time>
      </trkpt>
      <trkpt lat="47.21359" lon="6.01893">
        <ele>427.92</ele>
        <time>2018-09-22T13:30:13Z</time>
      </trkpt>
      <trkpt lat="47.21359" lon="6.01884">
        <ele>427.92</ele>
        <time>2018-09-22T13:30:14Z</time>
      </trkpt>
      <trkpt lat="47.21359" lon="6.01875">
        <ele>427.92</ele>
        <time>2018-09-22T13:30:15Z</time>
      </trkpt>
      <trkpt lat="47.21357" lon="6.01866">
        <ele>427.44</ele>
        <time>2018-09-22T13:30:16Z</time>
      </trkpt>
      <trkpt lat="47.21348" lon="6.01816">
        <ele>425.04</ele>
        <time>2018-09-22T13:30:21Z</time>
      </trkpt>
      <trkpt lat="47.21345" lon="6.01806">
        <ele>424.56</ele>
        <time>2018-09-22T13:30:22Z</time>
      </trkpt>
      <trkpt lat="47.21343" lon="6.01797">
        <ele>424.56</ele>
        <time>2018-09-22T13:30:23Z</time>
      </trkpt>
      <trkpt lat="47.21339" lon="6.01788">
        <ele>424.56</ele>
        <time>2018-09-22T13:30:24Z</time>
      </trkpt>
      <trkpt lat="47.21328" lon="6.01765">
        <ele>424.56</ele>
        <time>2018-09-22T13:30:27Z</time>
      </trkpt>
      <trkpt lat="47.21325" lon="6.01751">
        <ele>425.04</ele>
        <time>2018-09-22T13:30:29Z</time>
      </trkpt>
      <trkpt lat="47.21324" lon="6.01744">
        <ele>425.52</ele>
        <time>2018-09-22T13:30:30Z</time>
      </trkpt>
      <trkpt lat="47.21324" lon="6.01739">
        <ele>426</ele>
        <time>2018-09-22T13:30:31Z</time>
      </trkpt>
      <trkpt lat="47.21325" lon="6.01735">
        <ele>426.48</ele>
        <time>2018-09-22T13:30:32Z</time>
      </trkpt>
      <trkpt lat="47.21326" lon="6.01731">
        <ele>426.96</ele>
        <time>2018-09-22T13:30:33Z</time>
      </trkpt>
      <trkpt lat="47.21326" lon="6.01728">
        <ele>426.96</ele>
        <time>2018-09-22T13:30:34Z</time>
      </trkpt>
      <trkpt lat="47.21327" lon="6.01724">
        <ele>427.44</ele>
        <time>2018-09-22T13:30:35Z</time>
      </trkpt>
      <trkpt lat="47.21327" lon="6.0172">
        <ele>427.44</ele>
        <time>2018-09-22T13:30:36Z</time>
      </trkpt>
      <trkpt lat="47.21328" lon="6.01715">
        <ele>427.44</ele>
        <time>2018-09-22T13:30:37Z</time>
      </trkpt>
      <trkpt lat="47.21327" lon="6.0171">
        <ele>427.44</ele>
        <time>2018-09-22T13:30:38Z</time>
      </trkpt>
      <trkpt lat="47.21314" lon="6.01658">
        <ele>427.92</ele>
        <time>2018-09-22T13:30:49Z</time>
      </trkpt>
      <trkpt lat="47.21292" lon="6.01619">
        <ele>428.89</ele>
        <time>2018-09-22T13:30:59Z</time>
      </trkpt>
      <trkpt lat="47.21282" lon="6.01583">
        <ele>428.4</ele>
        <time>2018-09-22T13:31:06Z</time>
      </trkpt>
      <trkpt lat="47.21279" lon="6.01579">
        <ele>428.89</ele>
        <time>2018-09-22T13:31:07Z</time>
      </trkpt>
      <trkpt lat="47.21277" lon="6.01574">
        <ele>428.4</ele>
        <time>2018-09-22T13:31:08Z</time>
      </trkpt>
      <trkpt lat="47.21275" lon="6.01569">
        <ele>428.4</ele>
        <time>2018-09-22T13:31:09Z</time>
      </trkpt>
      <trkpt lat="47.21273" lon="6.01565">
        <ele>428.4</ele>
        <time>2018-09-22T13:31:10Z</time>
      </trkpt>
      <trkpt lat="47.2127" lon="6.0156">
        <ele>428.4</ele>
        <time>2018-09-22T13:31:11Z</time>
      </trkpt>
      <trkpt lat="47.21252" lon="6.01517">
        <ele>428.4</ele>
        <time>2018-09-22T13:31:22Z</time>
      </trkpt>
      <trkpt lat="47.2125" lon="6.01516">
        <ele>428.4</ele>
        <time>2018-09-22T13:31:35Z</time>
      </trkpt>
      <trkpt lat="47.21249" lon="6.01515">
        <ele>428.4</ele>
        <time>2018-09-22T13:31:49Z</time>
      </trkpt>
      <trkpt lat="47.21248" lon="6.01514">
        <ele>427.92</ele>
        <time>2018-09-22T13:32:09Z</time>
      </trkpt>
      <trkpt lat="47.21248" lon="6.01513">
        <ele>427.92</ele>
        <time>2018-09-22T13:32:37Z</time>
      </trkpt>
      <trkpt lat="47.21251" lon="6.01513">
        <ele>427.92</ele>
        <time>2018-09-22T13:33:11Z</time>
      </trkpt>
      <trkpt lat="47.21249" lon="6.01516">
        <ele>428.4</ele>
        <time>2018-09-22T13:33:38Z</time>
      </trkpt>
      <trkpt lat="47.21249" lon="6.01517">
        <ele>428.4</ele>
        <time>2018-09-22T13:34:08Z</time>
      </trkpt>
      <trkpt lat="47.21246" lon="6.01515">
        <ele>428.4</ele>
        <time>2018-09-22T13:34:42Z</time>
      </trkpt>
      <trkpt lat="47.21245" lon="6.01516">
        <ele>428.4</ele>
        <time>2018-09-22T13:35:17Z</time>
      </trkpt>
      <trkpt lat="47.21244" lon="6.01515">
        <ele>428.89</ele>
        <time>2018-09-22T13:35:51Z</time>
      </trkpt>
      <trkpt lat="47.21243" lon="6.01514">
        <ele>428.89</ele>
        <time>2018-09-22T13:36:22Z</time>
      </trkpt>
      <trkpt lat="47.21244" lon="6.01514">
        <ele>428.89</ele>
        <time>2018-09-22T13:36:51Z</time>
      </trkpt>
      <trkpt lat="47.21244" lon="6.01512">
        <ele>429.37</ele>
        <time>2018-09-22T13:37:26Z</time>
      </trkpt>
      <trkpt lat="47.21246" lon="6.0151">
        <ele>429.37</ele>
        <time>2018-09-22T13:38:00Z</time>
      </trkpt>
      <trkpt lat="47.21245" lon="6.0151">
        <ele>429.85</ele>
        <time>2018-09-22T13:38:34Z</time>
      </trkpt>
      <trkpt lat="47.21246" lon="6.0151">
        <ele>429.85</ele>
        <time>2018-09-22T13:39:01Z</time>
      </trkpt>
      <trkpt lat="47.21246" lon="6.0151">
        <ele>429.85</ele>
        <time>2018-09-22T13:39:31Z</time>
      </trkpt>
      <trkpt lat="47.21245" lon="6.0151">
        <ele>430.33</ele>
        <time>2018-09-22T13:40:04Z</time>
      </trkpt>
      <trkpt lat="47.21246" lon="6.0151">
        <ele>430.33</ele>
        <time>2018-09-22T13:40:34Z</time>
      </trkpt>
      <trkpt lat="47.21247" lon="6.0151">
        <ele>430.81</ele>
        <time>2018-09-22T13:41:07Z</time>
      </trkpt>
      <trkpt lat="47.21244" lon="6.01511">
        <ele>430.81</ele>
        <time>2018-09-22T13:41:43Z</time>
      </trkpt>
      <trkpt lat="47.21243" lon="6.01512">
        <ele>431.29</ele>
        <time>2018-09-22T13:42:13Z</time>
      </trkpt>
      <trkpt lat="47.21243" lon="6.01513">
        <ele>431.29</ele>
        <time>2018-09-22T13:42:45Z</time>
      </trkpt>
      <trkpt lat="47.21242" lon="6.01517">
        <ele>431.29</ele>
        <time>2018-09-22T13:43:19Z</time>
      </trkpt>
      <trkpt lat="47.21242" lon="6.01519">
        <ele>431.29</ele>
        <time>2018-09-22T13:43:52Z</time>
      </trkpt>
      <trkpt lat="47.21242" lon="6.01518">
        <ele>431.77</ele>
        <time>2018-09-22T13:44:23Z</time>
      </trkpt>
      <trkpt lat="47.21242" lon="6.01517">
        <ele>432.73</ele>
        <time>2018-09-22T13:44:37Z</time>
      </trkpt>
      <trkpt lat="47.21244" lon="6.01516">
        <ele>432.73</ele>
        <time>2018-09-22T13:44:58Z</time>
      </trkpt>
      <trkpt lat="47.21245" lon="6.01517">
        <ele>432.73</ele>
        <time>2018-09-22T13:45:22Z</time>
      </trkpt>
      <trkpt lat="47.21244" lon="6.01515">
        <ele>433.21</ele>
        <time>2018-09-22T13:45:41Z</time>
      </trkpt>
      <trkpt lat="47.21241" lon="6.0151">
        <ele>433.21</ele>
        <time>2018-09-22T13:45:46Z</time>
      </trkpt>
      <trkpt lat="47.2124" lon="6.01508">
        <ele>433.21</ele>
        <time>2018-09-22T13:45:47Z</time>
      </trkpt>
      <trkpt lat="47.21239" lon="6.01505">
        <ele>432.73</ele>
        <time>2018-09-22T13:45:48Z</time>
      </trkpt>
      <trkpt lat="47.21237" lon="6.01502">
        <ele>432.73</ele>
        <time>2018-09-22T13:45:49Z</time>
      </trkpt>
      <trkpt lat="47.21235" lon="6.01499">
        <ele>432.73</ele>
        <time>2018-09-22T13:45:50Z</time>
      </trkpt>
      <trkpt lat="47.21233" lon="6.01495">
        <ele>432.73</ele>
        <time>2018-09-22T13:45:51Z</time>
      </trkpt>
      <trkpt lat="47.21231" lon="6.0149">
        <ele>432.73</ele>
        <time>2018-09-22T13:45:52Z</time>
      </trkpt>
      <trkpt lat="47.21228" lon="6.01485">
        <ele>432.25</ele>
        <time>2018-09-22T13:45:53Z</time>
      </trkpt>
      <trkpt lat="47.21225" lon="6.01481">
        <ele>432.25</ele>
        <time>2018-09-22T13:45:54Z</time>
      </trkpt>
      <trkpt lat="47.21222" lon="6.01476">
        <ele>432.25</ele>
        <time>2018-09-22T13:45:55Z</time>
      </trkpt>
      <trkpt lat="47.21219" lon="6.01472">
        <ele>432.73</ele>
        <time>2018-09-22T13:45:56Z</time>
      </trkpt>
      <trkpt lat="47.21216" lon="6.01468">
        <ele>432.25</ele>
        <time>2018-09-22T13:45:57Z</time>
      </trkpt>
      <trkpt lat="47.21212" lon="6.01463">
        <ele>432.73</ele>
        <time>2018-09-22T13:45:58Z</time>
      </trkpt>
      <trkpt lat="47.21202" lon="6.0145">
        <ele>432.25</ele>
        <time>2018-09-22T13:46:01Z</time>
      </trkpt>
      <trkpt lat="47.21199" lon="6.01444">
        <ele>432.25</ele>
        <time>2018-09-22T13:46:02Z</time>
      </trkpt>
      <trkpt lat="47.21196" lon="6.0144">
        <ele>431.77</ele>
        <time>2018-09-22T13:46:03Z</time>
      </trkpt>
      <trkpt lat="47.21166" lon="6.01404">
        <ele>430.81</ele>
        <time>2018-09-22T13:46:12Z</time>
      </trkpt>
      <trkpt lat="47.21162" lon="6.01401">
        <ele>430.33</ele>
        <time>2018-09-22T13:46:13Z</time>
      </trkpt>
      <trkpt lat="47.21159" lon="6.01397">
        <ele>430.33</ele>
        <time>2018-09-22T13:46:14Z</time>
      </trkpt>
      <trkpt lat="47.21142" lon="6.01377">
        <ele>429.85</ele>
        <time>2018-09-22T13:46:19Z</time>
      </trkpt>
      <trkpt lat="47.21126" lon="6.01362">
        <ele>429.37</ele>
        <time>2018-09-22T13:46:23Z</time>
      </trkpt>
      <trkpt lat="47.21098" lon="6.01341">
        <ele>427.92</ele>
        <time>2018-09-22T13:46:29Z</time>
      </trkpt>
      <trkpt lat="47.21094" lon="6.01336">
        <ele>427.44</ele>
        <time>2018-09-22T13:46:30Z</time>
      </trkpt>
      <trkpt lat="47.21089" lon="6.0133">
        <ele>426.96</ele>
        <time>2018-09-22T13:46:31Z</time>
      </trkpt>
      <trkpt lat="47.21084" lon="6.01324">
        <ele>426.48</ele>
        <time>2018-09-22T13:46:32Z</time>
      </trkpt>
      <trkpt lat="47.2108" lon="6.01318">
        <ele>426.48</ele>
        <time>2018-09-22T13:46:33Z</time>
      </trkpt>
      <trkpt lat="47.21057" lon="6.01289">
        <ele>423.6</ele>
        <time>2018-09-22T13:46:38Z</time>
      </trkpt>
      <trkpt lat="47.21048" lon="6.01275">
        <ele>423.12</ele>
        <time>2018-09-22T13:46:40Z</time>
      </trkpt>
      <trkpt lat="47.21042" lon="6.01271">
        <ele>422.64</ele>
        <time>2018-09-22T13:46:41Z</time>
      </trkpt>
      <trkpt lat="47.21037" lon="6.01267">
        <ele>422.64</ele>
        <time>2018-09-22T13:46:42Z</time>
      </trkpt>
      <trkpt lat="47.21032" lon="6.01265">
        <ele>423.6</ele>
        <time>2018-09-22T13:46:43Z</time>
      </trkpt>
      <trkpt lat="47.21027" lon="6.01266">
        <ele>423.6</ele>
        <time>2018-09-22T13:46:44Z</time>
      </trkpt>
      <trkpt lat="47.21023" lon="6.0127">
        <ele>424.08</ele>
        <time>2018-09-22T13:46:45Z</time>
      </trkpt>
      <trkpt lat="47.21018" lon="6.01275">
        <ele>423.6</ele>
        <time>2018-09-22T13:46:46Z</time>
      </trkpt>
      <trkpt lat="47.21015" lon="6.01281">
        <ele>424.08</ele>
        <time>2018-09-22T13:46:47Z</time>
      </trkpt>
      <trkpt lat="47.2101" lon="6.01286">
        <ele>424.08</ele>
        <time>2018-09-22T13:46:48Z</time>
      </trkpt>
      <trkpt lat="47.21006" lon="6.01292">
        <ele>424.08</ele>
        <time>2018-09-22T13:46:49Z</time>
      </trkpt>
      <trkpt lat="47.20988" lon="6.01309">
        <ele>424.08</ele>
        <time>2018-09-22T13:46:53Z</time>
      </trkpt>
      <trkpt lat="47.20982" lon="6.01312">
        <ele>424.56</ele>
        <time>2018-09-22T13:46:54Z</time>
      </trkpt>
      <trkpt lat="47.20977" lon="6.01312">
        <ele>424.56</ele>
        <time>2018-09-22T13:46:55Z</time>
      </trkpt>
      <trkpt lat="47.20972" lon="6.01311">
        <ele>424.56</ele>
        <time>2018-09-22T13:46:56Z</time>
      </trkpt>
      <trkpt lat="47.20968" lon="6.0131">
        <ele>424.56</ele>
        <time>2018-09-22T13:46:57Z</time>
      </trkpt>
      <trkpt lat="47.20963" lon="6.01307">
        <ele>425.04</ele>
        <time>2018-09-22T13:46:58Z</time>
      </trkpt>
      <trkpt lat="47.20928" lon="6.01282">
        <ele>424.56</ele>
        <time>2018-09-22T13:47:05Z</time>
      </trkpt>
      <trkpt lat="47.20922" lon="6.01277">
        <ele>424.56</ele>
        <time>2018-09-22T13:47:06Z</time>
      </trkpt>
      <trkpt lat="47.20913" lon="6.0127">
        <ele>424.56</ele>
        <time>2018-09-22T13:47:08Z</time>
      </trkpt>
      <trkpt lat="47.20904" lon="6.0126">
        <ele>424.08</ele>
        <time>2018-09-22T13:47:10Z</time>
      </trkpt>
      <trkpt lat="47.20898" lon="6.01253">
        <ele>423.6</ele>
        <time>2018-09-22T13:47:11Z</time>
      </trkpt>
      <trkpt lat="47.20893" lon="6.01248">
        <ele>422.64</ele>
        <time>2018-09-22T13:47:12Z</time>
      </trkpt>
      <trkpt lat="47.20887" lon="6.01247">
        <ele>421.68</ele>
        <time>2018-09-22T13:47:13Z</time>
      </trkpt>
      <trkpt lat="47.20881" lon="6.01249">
        <ele>421.19</ele>
        <time>2018-09-22T13:47:14Z</time>
      </trkpt>
      <trkpt lat="47.20876" lon="6.01254">
        <ele>420.23</ele>
        <time>2018-09-22T13:47:15Z</time>
      </trkpt>
      <trkpt lat="47.2087" lon="6.01261">
        <ele>419.75</ele>
        <time>2018-09-22T13:47:16Z</time>
      </trkpt>
      <trkpt lat="47.20863" lon="6.01267">
        <ele>419.27</ele>
        <time>2018-09-22T13:47:17Z</time>
      </trkpt>
      <trkpt lat="47.20855" lon="6.01271">
        <ele>418.31</ele>
        <time>2018-09-22T13:47:18Z</time>
      </trkpt>
      <trkpt lat="47.20847" lon="6.0127">
        <ele>417.35</ele>
        <time>2018-09-22T13:47:19Z</time>
      </trkpt>
      <trkpt lat="47.20841" lon="6.01266">
        <ele>416.39</ele>
        <time>2018-09-22T13:47:20Z</time>
      </trkpt>
      <trkpt lat="47.20834" lon="6.0126">
        <ele>415.91</ele>
        <time>2018-09-22T13:47:21Z</time>
      </trkpt>
      <trkpt lat="47.2083" lon="6.01252">
        <ele>415.43</ele>
        <time>2018-09-22T13:47:22Z</time>
      </trkpt>
      <trkpt lat="47.20826" lon="6.01242">
        <ele>414.47</ele>
        <time>2018-09-22T13:47:23Z</time>
      </trkpt>
      <trkpt lat="47.20822" lon="6.01233">
        <ele>413.98</ele>
        <time>2018-09-22T13:47:24Z</time>
      </trkpt>
      <trkpt lat="47.20819" lon="6.01223">
        <ele>413.5</ele>
        <time>2018-09-22T13:47:25Z</time>
      </trkpt>
      <trkpt lat="47.20816" lon="6.01214">
        <ele>412.54</ele>
        <time>2018-09-22T13:47:26Z</time>
      </trkpt>
      <trkpt lat="47.20813" lon="6.01205">
        <ele>412.06</ele>
        <time>2018-09-22T13:47:27Z</time>
      </trkpt>
      <trkpt lat="47.20808" lon="6.01198">
        <ele>411.58</ele>
        <time>2018-09-22T13:47:28Z</time>
      </trkpt>
      <trkpt lat="47.20802" lon="6.01192">
        <ele>410.14</ele>
        <time>2018-09-22T13:47:29Z</time>
      </trkpt>
      <trkpt lat="47.20796" lon="6.01186">
        <ele>409.18</ele>
        <time>2018-09-22T13:47:30Z</time>
      </trkpt>
      <trkpt lat="47.20789" lon="6.01181">
        <ele>408.22</ele>
        <time>2018-09-22T13:47:31Z</time>
      </trkpt>
      <trkpt lat="47.20782" lon="6.01178">
        <ele>408.22</ele>
        <time>2018-09-22T13:47:32Z</time>
      </trkpt>
      <trkpt lat="47.20775" lon="6.01178">
        <ele>407.26</ele>
        <time>2018-09-22T13:47:33Z</time>
      </trkpt>
      <trkpt lat="47.2077" lon="6.01181">
        <ele>407.26</ele>
        <time>2018-09-22T13:47:34Z</time>
      </trkpt>
      <trkpt lat="47.20764" lon="6.01185">
        <ele>406.77</ele>
        <time>2018-09-22T13:47:35Z</time>
      </trkpt>
      <trkpt lat="47.2076" lon="6.01192">
        <ele>406.29</ele>
        <time>2018-09-22T13:47:36Z</time>
      </trkpt>
      <trkpt lat="47.20757" lon="6.012">
        <ele>405.81</ele>
        <time>2018-09-22T13:47:37Z</time>
      </trkpt>
      <trkpt lat="47.2075" lon="6.01217">
        <ele>404.37</ele>
        <time>2018-09-22T13:47:39Z</time>
      </trkpt>
      <trkpt lat="47.20747" lon="6.01227">
        <ele>403.89</ele>
        <time>2018-09-22T13:47:40Z</time>
      </trkpt>
      <trkpt lat="47.20745" lon="6.01238">
        <ele>402.93</ele>
        <time>2018-09-22T13:47:41Z</time>
      </trkpt>
      <trkpt lat="47.20744" lon="6.0125">
        <ele>401.97</ele>
        <time>2018-09-22T13:47:42Z</time>
      </trkpt>
      <trkpt lat="47.20745" lon="6.01262">
        <ele>401.01</ele>
        <time>2018-09-22T13:47:43Z</time>
      </trkpt>
      <trkpt lat="47.20748" lon="6.01275">
        <ele>400.05</ele>
        <time>2018-09-22T13:47:44Z</time>
      </trkpt>
      <trkpt lat="47.20751" lon="6.01287">
        <ele>399.57</ele>
        <time>2018-09-22T13:47:45Z</time>
      </trkpt>
      <trkpt lat="47.20754" lon="6.01299">
        <ele>398.6</ele>
        <time>2018-09-22T13:47:46Z</time>
      </trkpt>
      <trkpt lat="47.20773" lon="6.01357">
        <ele>395.24</ele>
        <time>2018-09-22T13:47:51Z</time>
      </trkpt>
      <trkpt lat="47.20776" lon="6.01368">
        <ele>394.28</ele>
        <time>2018-09-22T13:47:52Z</time>
      </trkpt>
      <trkpt lat="47.20784" lon="6.01388">
        <ele>392.36</ele>
        <time>2018-09-22T13:47:54Z</time>
      </trkpt>
      <trkpt lat="47.2079" lon="6.01398">
        <ele>390.91</ele>
        <time>2018-09-22T13:47:55Z</time>
      </trkpt>
      <trkpt lat="47.2081" lon="6.01426">
        <ele>387.55</ele>
        <time>2018-09-22T13:47:58Z</time>
      </trkpt>
      <trkpt lat="47.20815" lon="6.01436">
        <ele>387.07</ele>
        <time>2018-09-22T13:47:59Z</time>
      </trkpt>
      <trkpt lat="47.20819" lon="6.01449">
        <ele>385.63</ele>
        <time>2018-09-22T13:48:00Z</time>
      </trkpt>
      <trkpt lat="47.20822" lon="6.01463">
        <ele>384.18</ele>
        <time>2018-09-22T13:48:01Z</time>
      </trkpt>
      <trkpt lat="47.20823" lon="6.01477">
        <ele>382.26</ele>
        <time>2018-09-22T13:48:02Z</time>
      </trkpt>
      <trkpt lat="47.20822" lon="6.01491">
        <ele>381.3</ele>
        <time>2018-09-22T13:48:03Z</time>
      </trkpt>
      <trkpt lat="47.2082" lon="6.01506">
        <ele>380.34</ele>
        <time>2018-09-22T13:48:04Z</time>
      </trkpt>
      <trkpt lat="47.20818" lon="6.0152">
        <ele>379.38</ele>
        <time>2018-09-22T13:48:05Z</time>
      </trkpt>
      <trkpt lat="47.20812" lon="6.01573">
        <ele>376.49</ele>
        <time>2018-09-22T13:48:09Z</time>
      </trkpt>
      <trkpt lat="47.20808" lon="6.01614">
        <ele>373.13</ele>
        <time>2018-09-22T13:48:12Z</time>
      </trkpt>
      <trkpt lat="47.20808" lon="6.01659">
        <ele>369.76</ele>
        <time>2018-09-22T13:48:15Z</time>
      </trkpt>
      <trkpt lat="47.20813" lon="6.017">
        <ele>367.84</ele>
        <time>2018-09-22T13:48:18Z</time>
      </trkpt>
      <trkpt lat="47.20816" lon="6.01711">
        <ele>367.36</ele>
        <time>2018-09-22T13:48:19Z</time>
      </trkpt>
      <trkpt lat="47.2082" lon="6.01721">
        <ele>366.88</ele>
        <time>2018-09-22T13:48:20Z</time>
      </trkpt>
      <trkpt lat="47.20826" lon="6.01732">
        <ele>366.4</ele>
        <time>2018-09-22T13:48:21Z</time>
      </trkpt>
      <trkpt lat="47.20831" lon="6.01741">
        <ele>365.44</ele>
        <time>2018-09-22T13:48:22Z</time>
      </trkpt>
      <trkpt lat="47.20836" lon="6.01751">
        <ele>364.48</ele>
        <time>2018-09-22T13:48:23Z</time>
      </trkpt>
      <trkpt lat="47.20839" lon="6.01762">
        <ele>363.52</ele>
        <time>2018-09-22T13:48:24Z</time>
      </trkpt>
      <trkpt lat="47.20841" lon="6.01775">
        <ele>363.04</ele>
        <time>2018-09-22T13:48:25Z</time>
      </trkpt>
      <trkpt lat="47.20842" lon="6.01787">
        <ele>362.07</ele>
        <time>2018-09-22T13:48:26Z</time>
      </trkpt>
      <trkpt lat="47.20841" lon="6.018">
        <ele>361.11</ele>
        <time>2018-09-22T13:48:27Z</time>
      </trkpt>
      <trkpt lat="47.20839" lon="6.01813">
        <ele>360.15</ele>
        <time>2018-09-22T13:48:28Z</time>
      </trkpt>
      <trkpt lat="47.20833" lon="6.01852">
        <ele>357.27</ele>
        <time>2018-09-22T13:48:31Z</time>
      </trkpt>
      <trkpt lat="47.20825" lon="6.01884">
        <ele>356.31</ele>
        <time>2018-09-22T13:48:34Z</time>
      </trkpt>
      <trkpt lat="47.20821" lon="6.01891">
        <ele>355.34</ele>
        <time>2018-09-22T13:48:35Z</time>
      </trkpt>
      <trkpt lat="47.20815" lon="6.01894">
        <ele>354.86</ele>
        <time>2018-09-22T13:48:36Z</time>
      </trkpt>
      <trkpt lat="47.20809" lon="6.01894">
        <ele>354.38</ele>
        <time>2018-09-22T13:48:37Z</time>
      </trkpt>
      <trkpt lat="47.20805" lon="6.0189">
        <ele>353.9</ele>
        <time>2018-09-22T13:48:38Z</time>
      </trkpt>
      <trkpt lat="47.20802" lon="6.01883">
        <ele>353.9</ele>
        <time>2018-09-22T13:48:39Z</time>
      </trkpt>
      <trkpt lat="47.208" lon="6.01875">
        <ele>353.42</ele>
        <time>2018-09-22T13:48:40Z</time>
      </trkpt>
      <trkpt lat="47.208" lon="6.01866">
        <ele>352.94</ele>
        <time>2018-09-22T13:48:41Z</time>
      </trkpt>
      <trkpt lat="47.208" lon="6.01857">
        <ele>352.46</ele>
        <time>2018-09-22T13:48:42Z</time>
      </trkpt>
      <trkpt lat="47.20799" lon="6.01848">
        <ele>351.5</ele>
        <time>2018-09-22T13:48:43Z</time>
      </trkpt>
      <trkpt lat="47.20797" lon="6.01838">
        <ele>351.02</ele>
        <time>2018-09-22T13:48:44Z</time>
      </trkpt>
      <trkpt lat="47.20794" lon="6.01828">
        <ele>350.06</ele>
        <time>2018-09-22T13:48:45Z</time>
      </trkpt>
      <trkpt lat="47.20778" lon="6.01791">
        <ele>347.17</ele>
        <time>2018-09-22T13:48:49Z</time>
      </trkpt>
      <trkpt lat="47.20773" lon="6.01782">
        <ele>346.21</ele>
        <time>2018-09-22T13:48:50Z</time>
      </trkpt>
      <trkpt lat="47.20768" lon="6.01773">
        <ele>345.73</ele>
        <time>2018-09-22T13:48:51Z</time>
      </trkpt>
      <trkpt lat="47.20749" lon="6.01729">
        <ele>341.89</ele>
        <time>2018-09-22T13:48:55Z</time>
      </trkpt>
      <trkpt lat="47.20735" lon="6.01693">
        <ele>339</ele>
        <time>2018-09-22T13:48:58Z</time>
      </trkpt>
      <trkpt lat="47.20722" lon="6.01654">
        <ele>335.64</ele>
        <time>2018-09-22T13:49:01Z</time>
      </trkpt>
      <trkpt lat="47.20719" lon="6.0164">
        <ele>335.16</ele>
        <time>2018-09-22T13:49:02Z</time>
      </trkpt>
      <trkpt lat="47.20711" lon="6.01614">
        <ele>333.71</ele>
        <time>2018-09-22T13:49:04Z</time>
      </trkpt>
      <trkpt lat="47.20706" lon="6.01602">
        <ele>332.75</ele>
        <time>2018-09-22T13:49:05Z</time>
      </trkpt>
      <trkpt lat="47.207" lon="6.0159">
        <ele>331.31</ele>
        <time>2018-09-22T13:49:06Z</time>
      </trkpt>
      <trkpt lat="47.20687" lon="6.01566">
        <ele>327.47</ele>
        <time>2018-09-22T13:49:08Z</time>
      </trkpt>
      <trkpt lat="47.2066" lon="6.01524">
        <ele>324.1</ele>
        <time>2018-09-22T13:49:12Z</time>
      </trkpt>
      <trkpt lat="47.20652" lon="6.01515">
        <ele>322.66</ele>
        <time>2018-09-22T13:49:13Z</time>
      </trkpt>
      <trkpt lat="47.20634" lon="6.015">
        <ele>321.22</ele>
        <time>2018-09-22T13:49:15Z</time>
      </trkpt>
      <trkpt lat="47.20625" lon="6.01495">
        <ele>320.26</ele>
        <time>2018-09-22T13:49:16Z</time>
      </trkpt>
      <trkpt lat="47.20618" lon="6.01488">
        <ele>319.78</ele>
        <time>2018-09-22T13:49:17Z</time>
      </trkpt>
      <trkpt lat="47.20613" lon="6.01479">
        <ele>319.78</ele>
        <time>2018-09-22T13:49:18Z</time>
      </trkpt>
      <trkpt lat="47.20608" lon="6.01468">
        <ele>318.81</ele>
        <time>2018-09-22T13:49:19Z</time>
      </trkpt>
      <trkpt lat="47.20605" lon="6.01457">
        <ele>318.81</ele>
        <time>2018-09-22T13:49:20Z</time>
      </trkpt>
      <trkpt lat="47.20602" lon="6.01445">
        <ele>318.33</ele>
        <time>2018-09-22T13:49:21Z</time>
      </trkpt>
      <trkpt lat="47.20598" lon="6.01434">
        <ele>318.33</ele>
        <time>2018-09-22T13:49:22Z</time>
      </trkpt>
      <trkpt lat="47.20594" lon="6.01424">
        <ele>317.85</ele>
        <time>2018-09-22T13:49:23Z</time>
      </trkpt>
      <trkpt lat="47.2059" lon="6.01415">
        <ele>317.85</ele>
        <time>2018-09-22T13:49:24Z</time>
      </trkpt>
      <trkpt lat="47.20585" lon="6.01405">
        <ele>317.85</ele>
        <time>2018-09-22T13:49:25Z</time>
      </trkpt>
      <trkpt lat="47.20572" lon="6.01379">
        <ele>317.85</ele>
        <time>2018-09-22T13:49:28Z</time>
      </trkpt>
      <trkpt lat="47.20546" lon="6.01311">
        <ele>316.89</ele>
        <time>2018-09-22T13:49:36Z</time>
      </trkpt>
      <trkpt lat="47.20544" lon="6.01302">
        <ele>316.89</ele>
        <time>2018-09-22T13:49:37Z</time>
      </trkpt>
      <trkpt lat="47.20543" lon="6.01293">
        <ele>316.89</ele>
        <time>2018-09-22T13:49:38Z</time>
      </trkpt>
      <trkpt lat="47.20543" lon="6.01284">
        <ele>316.89</ele>
        <time>2018-09-22T13:49:39Z</time>
      </trkpt>
      <trkpt lat="47.20544" lon="6.01274">
        <ele>317.37</ele>
        <time>2018-09-22T13:49:40Z</time>
      </trkpt>
      <trkpt lat="47.20548" lon="6.01266">
        <ele>316.89</ele>
        <time>2018-09-22T13:49:41Z</time>
      </trkpt>
      <trkpt lat="47.20552" lon="6.0126">
        <ele>316.89</ele>
        <time>2018-09-22T13:49:42Z</time>
      </trkpt>
      <trkpt lat="47.20557" lon="6.01252">
        <ele>316.89</ele>
        <time>2018-09-22T13:49:43Z</time>
      </trkpt>
      <trkpt lat="47.20561" lon="6.01244">
        <ele>315.93</ele>
        <time>2018-09-22T13:49:44Z</time>
      </trkpt>
      <trkpt lat="47.20565" lon="6.01235">
        <ele>315.45</ele>
        <time>2018-09-22T13:49:45Z</time>
      </trkpt>
      <trkpt lat="47.20567" lon="6.01226">
        <ele>314.97</ele>
        <time>2018-09-22T13:49:46Z</time>
      </trkpt>
      <trkpt lat="47.20568" lon="6.01215">
        <ele>314.49</ele>
        <time>2018-09-22T13:49:47Z</time>
      </trkpt>
      <trkpt lat="47.20567" lon="6.01204">
        <ele>313.53</ele>
        <time>2018-09-22T13:49:48Z</time>
      </trkpt>
      <trkpt lat="47.20566" lon="6.01192">
        <ele>313.05</ele>
        <time>2018-09-22T13:49:49Z</time>
      </trkpt>
      <trkpt lat="47.20564" lon="6.0118">
        <ele>311.6</ele>
        <time>2018-09-22T13:49:50Z</time>
      </trkpt>
      <trkpt lat="47.20564" lon="6.01166">
        <ele>310.64</ele>
        <time>2018-09-22T13:49:51Z</time>
      </trkpt>
      <trkpt lat="47.20565" lon="6.01138">
        <ele>308.72</ele>
        <time>2018-09-22T13:49:53Z</time>
      </trkpt>
      <trkpt lat="47.20562" lon="6.01098">
        <ele>306.32</ele>
        <time>2018-09-22T13:49:56Z</time>
      </trkpt>
      <trkpt lat="47.20564" lon="6.01086">
        <ele>306.32</ele>
        <time>2018-09-22T13:49:57Z</time>
      </trkpt>
      <trkpt lat="47.20567" lon="6.01073">
        <ele>303.91</ele>
        <time>2018-09-22T13:49:58Z</time>
      </trkpt>
      <trkpt lat="47.20575" lon="6.01046">
        <ele>301.03</ele>
        <time>2018-09-22T13:50:00Z</time>
      </trkpt>
      <trkpt lat="47.20581" lon="6.01017">
        <ele>299.11</ele>
        <time>2018-09-22T13:50:02Z</time>
      </trkpt>
      <trkpt lat="47.20586" lon="6.00986">
        <ele>296.22</ele>
        <time>2018-09-22T13:50:04Z</time>
      </trkpt>
      <trkpt lat="47.20589" lon="6.00971">
        <ele>295.26</ele>
        <time>2018-09-22T13:50:05Z</time>
      </trkpt>
      <trkpt lat="47.20595" lon="6.00955">
        <ele>293.82</ele>
        <time>2018-09-22T13:50:06Z</time>
      </trkpt>
      <trkpt lat="47.20601" lon="6.0094">
        <ele>292.86</ele>
        <time>2018-09-22T13:50:07Z</time>
      </trkpt>
      <trkpt lat="47.20623" lon="6.00897">
        <ele>289.49</ele>
        <time>2018-09-22T13:50:10Z</time>
      </trkpt>
      <trkpt lat="47.20646" lon="6.00852">
        <ele>285.65</ele>
        <time>2018-09-22T13:50:13Z</time>
      </trkpt>
      <trkpt lat="47.20668" lon="6.00805">
        <ele>281.8</ele>
        <time>2018-09-22T13:50:16Z</time>
      </trkpt>
      <trkpt lat="47.20682" lon="6.00773">
        <ele>277.96</ele>
        <time>2018-09-22T13:50:18Z</time>
      </trkpt>
      <trkpt lat="47.207" lon="6.00722">
        <ele>273.63</ele>
        <time>2018-09-22T13:50:21Z</time>
      </trkpt>
      <trkpt lat="47.20704" lon="6.00705">
        <ele>273.63</ele>
        <time>2018-09-22T13:50:22Z</time>
      </trkpt>
      <trkpt lat="47.20718" lon="6.00631">
        <ele>269.31</ele>
        <time>2018-09-22T13:50:27Z</time>
      </trkpt>
      <trkpt lat="47.20718" lon="6.00617">
        <ele>268.35</ele>
        <time>2018-09-22T13:50:28Z</time>
      </trkpt>
      <trkpt lat="47.20717" lon="6.00602">
        <ele>268.35</ele>
        <time>2018-09-22T13:50:29Z</time>
      </trkpt>
      <trkpt lat="47.20708" lon="6.00545">
        <ele>264.98</ele>
        <time>2018-09-22T13:50:33Z</time>
      </trkpt>
      <trkpt lat="47.20704" lon="6.00533">
        <ele>264.02</ele>
        <time>2018-09-22T13:50:34Z</time>
      </trkpt>
      <trkpt lat="47.20699" lon="6.00524">
        <ele>263.54</ele>
        <time>2018-09-22T13:50:35Z</time>
      </trkpt>
      <trkpt lat="47.20692" lon="6.0051">
        <ele>263.06</ele>
        <time>2018-09-22T13:50:37Z</time>
      </trkpt>
      <trkpt lat="47.20691" lon="6.00504">
        <ele>262.58</ele>
        <time>2018-09-22T13:50:38Z</time>
      </trkpt>
      <trkpt lat="47.20693" lon="6.00498">
        <ele>262.1</ele>
        <time>2018-09-22T13:50:39Z</time>
      </trkpt>
      <trkpt lat="47.20694" lon="6.00493">
        <ele>262.58</ele>
        <time>2018-09-22T13:50:40Z</time>
      </trkpt>
      <trkpt lat="47.20695" lon="6.0049">
        <ele>263.06</ele>
        <time>2018-09-22T13:50:41Z</time>
      </trkpt>
      <trkpt lat="47.20695" lon="6.00488">
        <ele>263.54</ele>
        <time>2018-09-22T13:50:42Z</time>
      </trkpt>
      <trkpt lat="47.20695" lon="6.00486">
        <ele>263.54</ele>
        <time>2018-09-22T13:50:43Z</time>
      </trkpt>
      <trkpt lat="47.20695" lon="6.00484">
        <ele>263.54</ele>
        <time>2018-09-22T13:50:44Z</time>
      </trkpt>
      <trkpt lat="47.20694" lon="6.00481">
        <ele>264.02</ele>
        <time>2018-09-22T13:50:45Z</time>
      </trkpt>
      <trkpt lat="47.20693" lon="6.00479">
        <ele>264.02</ele>
        <time>2018-09-22T13:50:46Z</time>
      </trkpt>
      <trkpt lat="47.2069" lon="6.00477">
        <ele>264.02</ele>
        <time>2018-09-22T13:50:47Z</time>
      </trkpt>
      <trkpt lat="47.20687" lon="6.00476">
        <ele>264.02</ele>
        <time>2018-09-22T13:50:48Z</time>
      </trkpt>
      <trkpt lat="47.20684" lon="6.00476">
        <ele>264.02</ele>
        <time>2018-09-22T13:50:49Z</time>
      </trkpt>
      <trkpt lat="47.20681" lon="6.00479">
        <ele>264.5</ele>
        <time>2018-09-22T13:50:50Z</time>
      </trkpt>
      <trkpt lat="47.20678" lon="6.00481">
        <ele>264.5</ele>
        <time>2018-09-22T13:50:51Z</time>
      </trkpt>
      <trkpt lat="47.20675" lon="6.00482">
        <ele>264.5</ele>
        <time>2018-09-22T13:50:52Z</time>
      </trkpt>
      <trkpt lat="47.20671" lon="6.00483">
        <ele>264.5</ele>
        <time>2018-09-22T13:50:53Z</time>
      </trkpt>
      <trkpt lat="47.20629" lon="6.00485">
        <ele>266.9</ele>
        <time>2018-09-22T13:51:05Z</time>
      </trkpt>
      <trkpt lat="47.2062" lon="6.0044">
        <ele>269.31</ele>
        <time>2018-09-22T13:51:16Z</time>
      </trkpt>
      <trkpt lat="47.20613" lon="6.00376">
        <ele>271.71</ele>
        <time>2018-09-22T13:51:31Z</time>
      </trkpt>
      <trkpt lat="47.20598" lon="6.00337">
        <ele>274.11</ele>
        <time>2018-09-22T13:51:42Z</time>
      </trkpt>
      <trkpt lat="47.2058" lon="6.00304">
        <ele>276.52</ele>
        <time>2018-09-22T13:51:54Z</time>
      </trkpt>
      <trkpt lat="47.20557" lon="6.00268">
        <ele>278.92</ele>
        <time>2018-09-22T13:52:07Z</time>
      </trkpt>
      <trkpt lat="47.2053" lon="6.00233">
        <ele>281.8</ele>
        <time>2018-09-22T13:52:21Z</time>
      </trkpt>
      <trkpt lat="47.20499" lon="6.00198">
        <ele>285.17</ele>
        <time>2018-09-22T13:52:37Z</time>
      </trkpt>
      <trkpt lat="47.20471" lon="6.00173">
        <ele>288.05</ele>
        <time>2018-09-22T13:52:50Z</time>
      </trkpt>
      <trkpt lat="47.20446" lon="6.00152">
        <ele>291.42</ele>
        <time>2018-09-22T13:53:02Z</time>
      </trkpt>
      <trkpt lat="47.20421" lon="6.00129">
        <ele>294.78</ele>
        <time>2018-09-22T13:53:14Z</time>
      </trkpt>
      <trkpt lat="47.20397" lon="6.00102">
        <ele>297.67</ele>
        <time>2018-09-22T13:53:26Z</time>
      </trkpt>
      <trkpt lat="47.20366" lon="6.00069">
        <ele>301.03</ele>
        <time>2018-09-22T13:53:40Z</time>
      </trkpt>
      <trkpt lat="47.20337" lon="6.00041">
        <ele>304.39</ele>
        <time>2018-09-22T13:53:53Z</time>
      </trkpt>
      <trkpt lat="47.20306" lon="6.00009">
        <ele>307.28</ele>
        <time>2018-09-22T13:54:07Z</time>
      </trkpt>
      <trkpt lat="47.20273" lon="5.99975">
        <ele>310.16</ele>
        <time>2018-09-22T13:54:20Z</time>
      </trkpt>
      <trkpt lat="47.20244" lon="5.99948">
        <ele>314.01</ele>
        <time>2018-09-22T13:54:32Z</time>
      </trkpt>
      <trkpt lat="47.20209" lon="5.99912">
        <ele>316.89</ele>
        <time>2018-09-22T13:54:46Z</time>
      </trkpt>
      <trkpt lat="47.20189" lon="5.99909">
        <ele>318.33</ele>
        <time>2018-09-22T13:54:54Z</time>
      </trkpt>
      <trkpt lat="47.20177" lon="5.99892">
        <ele>320.26</ele>
        <time>2018-09-22T13:55:00Z</time>
      </trkpt>
      <trkpt lat="47.20147" lon="5.99851">
        <ele>322.66</ele>
        <time>2018-09-22T13:55:13Z</time>
      </trkpt>
      <trkpt lat="47.20113" lon="5.99815">
        <ele>326.02</ele>
        <time>2018-09-22T13:55:25Z</time>
      </trkpt>
      <trkpt lat="47.20076" lon="5.99772">
        <ele>328.91</ele>
        <time>2018-09-22T13:55:39Z</time>
      </trkpt>
      <trkpt lat="47.20051" lon="5.99721">
        <ele>330.83</ele>
        <time>2018-09-22T13:55:50Z</time>
      </trkpt>
      <trkpt lat="47.20036" lon="5.99651">
        <ele>333.23</ele>
        <time>2018-09-22T13:56:03Z</time>
      </trkpt>
      <trkpt lat="47.20017" lon="5.99586">
        <ele>335.64</ele>
        <time>2018-09-22T13:56:16Z</time>
      </trkpt>
      <trkpt lat="47.20001" lon="5.99524">
        <ele>338.04</ele>
        <time>2018-09-22T13:56:28Z</time>
      </trkpt>
      <trkpt lat="47.19979" lon="5.99441">
        <ele>340.92</ele>
        <time>2018-09-22T13:56:44Z</time>
      </trkpt>
      <trkpt lat="47.19961" lon="5.99355">
        <ele>343.33</ele>
        <time>2018-09-22T13:57:00Z</time>
      </trkpt>
      <trkpt lat="47.19955" lon="5.99314">
        <ele>343.81</ele>
        <time>2018-09-22T13:57:09Z</time>
      </trkpt>
      <trkpt lat="47.19952" lon="5.99309">
        <ele>343.81</ele>
        <time>2018-09-22T13:57:10Z</time>
      </trkpt>
      <trkpt lat="47.1994" lon="5.9929">
        <ele>342.85</ele>
        <time>2018-09-22T13:57:14Z</time>
      </trkpt>
      <trkpt lat="47.19913" lon="5.99239">
        <ele>343.33</ele>
        <time>2018-09-22T13:57:25Z</time>
      </trkpt>
      <trkpt lat="47.19904" lon="5.9922">
        <ele>345.25</ele>
        <time>2018-09-22T13:57:29Z</time>
      </trkpt>
      <trkpt lat="47.19876" lon="5.9917">
        <ele>345.73</ele>
        <time>2018-09-22T13:57:40Z</time>
      </trkpt>
      <trkpt lat="47.1985" lon="5.99121">
        <ele>348.13</ele>
        <time>2018-09-22T13:57:51Z</time>
      </trkpt>
      <trkpt lat="47.19827" lon="5.99086">
        <ele>348.13</ele>
        <time>2018-09-22T13:57:59Z</time>
      </trkpt>
      <trkpt lat="47.19824" lon="5.9908">
        <ele>348.13</ele>
        <time>2018-09-22T13:58:00Z</time>
      </trkpt>
      <trkpt lat="47.19805" lon="5.99054">
        <ele>347.17</ele>
        <time>2018-09-22T13:58:06Z</time>
      </trkpt>
      <trkpt lat="47.19799" lon="5.99043">
        <ele>346.69</ele>
        <time>2018-09-22T13:58:08Z</time>
      </trkpt>
      <trkpt lat="47.19785" lon="5.99023">
        <ele>346.69</ele>
        <time>2018-09-22T13:58:12Z</time>
      </trkpt>
      <trkpt lat="47.19778" lon="5.99014">
        <ele>346.69</ele>
        <time>2018-09-22T13:58:14Z</time>
      </trkpt>
      <trkpt lat="47.19775" lon="5.9901">
        <ele>346.69</ele>
        <time>2018-09-22T13:58:15Z</time>
      </trkpt>
      <trkpt lat="47.19772" lon="5.99005">
        <ele>346.69</ele>
        <time>2018-09-22T13:58:16Z</time>
      </trkpt>
      <trkpt lat="47.19765" lon="5.98996">
        <ele>347.17</ele>
        <time>2018-09-22T13:58:18Z</time>
      </trkpt>
      <trkpt lat="47.19762" lon="5.98992">
        <ele>347.17</ele>
        <time>2018-09-22T13:58:19Z</time>
      </trkpt>
      <trkpt lat="47.19759" lon="5.98987">
        <ele>347.17</ele>
        <time>2018-09-22T13:58:20Z</time>
      </trkpt>
      <trkpt lat="47.19755" lon="5.98982">
        <ele>347.65</ele>
        <time>2018-09-22T13:58:21Z</time>
      </trkpt>
      <trkpt lat="47.19751" lon="5.98978">
        <ele>347.65</ele>
        <time>2018-09-22T13:58:22Z</time>
      </trkpt>
      <trkpt lat="47.19739" lon="5.98961">
        <ele>348.13</ele>
        <time>2018-09-22T13:58:26Z</time>
      </trkpt>
      <trkpt lat="47.19726" lon="5.9894">
        <ele>348.13</ele>
        <time>2018-09-22T13:58:30Z</time>
      </trkpt>
      <trkpt lat="47.19723" lon="5.98935">
        <ele>348.13</ele>
        <time>2018-09-22T13:58:31Z</time>
      </trkpt>
      <trkpt lat="47.19696" lon="5.98893">
        <ele>351.5</ele>
        <time>2018-09-22T13:58:40Z</time>
      </trkpt>
      <trkpt lat="47.19689" lon="5.98876">
        <ele>351.5</ele>
        <time>2018-09-22T13:58:44Z</time>
      </trkpt>
      <trkpt lat="47.19684" lon="5.98867">
        <ele>351.02</ele>
        <time>2018-09-22T13:58:46Z</time>
      </trkpt>
      <trkpt lat="47.19682" lon="5.98861">
        <ele>350.06</ele>
        <time>2018-09-22T13:58:47Z</time>
      </trkpt>
      <trkpt lat="47.19676" lon="5.98847">
        <ele>349.1</ele>
        <time>2018-09-22T13:58:49Z</time>
      </trkpt>
      <trkpt lat="47.19673" lon="5.9884">
        <ele>349.1</ele>
        <time>2018-09-22T13:58:50Z</time>
      </trkpt>
      <trkpt lat="47.19659" lon="5.98809">
        <ele>348.62</ele>
        <time>2018-09-22T13:58:55Z</time>
      </trkpt>
      <trkpt lat="47.19657" lon="5.98804">
        <ele>348.62</ele>
        <time>2018-09-22T13:58:56Z</time>
      </trkpt>
      <trkpt lat="47.19656" lon="5.988">
        <ele>348.62</ele>
        <time>2018-09-22T13:58:57Z</time>
      </trkpt>
      <trkpt lat="47.19656" lon="5.98797">
        <ele>349.1</ele>
        <time>2018-09-22T13:58:58Z</time>
      </trkpt>
      <trkpt lat="47.19655" lon="5.98793">
        <ele>349.1</ele>
        <time>2018-09-22T13:58:59Z</time>
      </trkpt>
      <trkpt lat="47.19653" lon="5.98789">
        <ele>350.06</ele>
        <time>2018-09-22T13:59:00Z</time>
      </trkpt>
      <trkpt lat="47.19652" lon="5.98785">
        <ele>350.06</ele>
        <time>2018-09-22T13:59:01Z</time>
      </trkpt>
      <trkpt lat="47.1965" lon="5.9878">
        <ele>350.54</ele>
        <time>2018-09-22T13:59:02Z</time>
      </trkpt>
      <trkpt lat="47.19649" lon="5.98776">
        <ele>351.5</ele>
        <time>2018-09-22T13:59:03Z</time>
      </trkpt>
      <trkpt lat="47.19647" lon="5.98773">
        <ele>351.98</ele>
        <time>2018-09-22T13:59:04Z</time>
      </trkpt>
      <trkpt lat="47.19645" lon="5.9877">
        <ele>351.98</ele>
        <time>2018-09-22T13:59:05Z</time>
      </trkpt>
      <trkpt lat="47.19644" lon="5.98765">
        <ele>353.42</ele>
        <time>2018-09-22T13:59:06Z</time>
      </trkpt>
      <trkpt lat="47.19642" lon="5.9876">
        <ele>353.42</ele>
        <time>2018-09-22T13:59:07Z</time>
      </trkpt>
      <trkpt lat="47.19625" lon="5.98719">
        <ele>354.86</ele>
        <time>2018-09-22T13:59:17Z</time>
      </trkpt>
      <trkpt lat="47.19607" lon="5.98672">
        <ele>355.83</ele>
        <time>2018-09-22T13:59:28Z</time>
      </trkpt>
      <trkpt lat="47.196" lon="5.98647">
        <ele>358.23</ele>
        <time>2018-09-22T13:59:36Z</time>
      </trkpt>
      <trkpt lat="47.19599" lon="5.98643">
        <ele>358.71</ele>
        <time>2018-09-22T13:59:37Z</time>
      </trkpt>
      <trkpt lat="47.19597" lon="5.98639">
        <ele>359.19</ele>
        <time>2018-09-22T13:59:38Z</time>
      </trkpt>
      <trkpt lat="47.19596" lon="5.98636">
        <ele>359.67</ele>
        <time>2018-09-22T13:59:39Z</time>
      </trkpt>
      <trkpt lat="47.19596" lon="5.98632">
        <ele>360.15</ele>
        <time>2018-09-22T13:59:40Z</time>
      </trkpt>
      <trkpt lat="47.19595" lon="5.98629">
        <ele>360.63</ele>
        <time>2018-09-22T13:59:41Z</time>
      </trkpt>
      <trkpt lat="47.1959" lon="5.98605">
        <ele>361.59</ele>
        <time>2018-09-22T13:59:48Z</time>
      </trkpt>
      <trkpt lat="47.19586" lon="5.98595">
        <ele>363.04</ele>
        <time>2018-09-22T13:59:59Z</time>
      </trkpt>
      <trkpt lat="47.19584" lon="5.98587">
        <ele>362.55</ele>
        <time>2018-09-22T14:00:17Z</time>
      </trkpt>
      <trkpt lat="47.19582" lon="5.98578">
        <ele>363.04</ele>
        <time>2018-09-22T14:00:21Z</time>
      </trkpt>
      <trkpt lat="47.19582" lon="5.98567">
        <ele>364.48</ele>
        <time>2018-09-22T14:00:28Z</time>
      </trkpt>
      <trkpt lat="47.1958" lon="5.98557">
        <ele>364.96</ele>
        <time>2018-09-22T14:00:33Z</time>
      </trkpt>
      <trkpt lat="47.1958" lon="5.98554">
        <ele>365.44</ele>
        <time>2018-09-22T14:00:34Z</time>
      </trkpt>
      <trkpt lat="47.19579" lon="5.98542">
        <ele>366.88</ele>
        <time>2018-09-22T14:00:41Z</time>
      </trkpt>
      <trkpt lat="47.19579" lon="5.98539">
        <ele>367.36</ele>
        <time>2018-09-22T14:00:42Z</time>
      </trkpt>
      <trkpt lat="47.19578" lon="5.98537">
        <ele>367.36</ele>
        <time>2018-09-22T14:00:43Z</time>
      </trkpt>
      <trkpt lat="47.19577" lon="5.98534">
        <ele>367.84</ele>
        <time>2018-09-22T14:00:44Z</time>
      </trkpt>
      <trkpt lat="47.19576" lon="5.98531">
        <ele>367.84</ele>
        <time>2018-09-22T14:00:45Z</time>
      </trkpt>
      <trkpt lat="47.19576" lon="5.98529">
        <ele>367.84</ele>
        <time>2018-09-22T14:00:46Z</time>
      </trkpt>
      <trkpt lat="47.19575" lon="5.98525">
        <ele>368.32</ele>
        <time>2018-09-22T14:00:47Z</time>
      </trkpt>
      <trkpt lat="47.19575" lon="5.98522">
        <ele>368.32</ele>
        <time>2018-09-22T14:00:48Z</time>
      </trkpt>
      <trkpt lat="47.19574" lon="5.9852">
        <ele>368.8</ele>
        <time>2018-09-22T14:00:49Z</time>
      </trkpt>
      <trkpt lat="47.19573" lon="5.98517">
        <ele>368.8</ele>
        <time>2018-09-22T14:00:50Z</time>
      </trkpt>
      <trkpt lat="47.19569" lon="5.98504">
        <ele>369.76</ele>
        <time>2018-09-22T14:00:54Z</time>
      </trkpt>
      <trkpt lat="47.19568" lon="5.985">
        <ele>370.24</ele>
        <time>2018-09-22T14:00:55Z</time>
      </trkpt>
      <trkpt lat="47.19567" lon="5.98488">
        <ele>370.73</ele>
        <time>2018-09-22T14:00:59Z</time>
      </trkpt>
      <trkpt lat="47.19567" lon="5.98485">
        <ele>370.73</ele>
        <time>2018-09-22T14:01:00Z</time>
      </trkpt>
      <trkpt lat="47.19567" lon="5.9848">
        <ele>370.73</ele>
        <time>2018-09-22T14:01:01Z</time>
      </trkpt>
      <trkpt lat="47.19567" lon="5.98433">
        <ele>372.65</ele>
        <time>2018-09-22T14:01:14Z</time>
      </trkpt>
      <trkpt lat="47.19568" lon="5.98414">
        <ele>373.13</ele>
        <time>2018-09-22T14:01:19Z</time>
      </trkpt>
      <trkpt lat="47.19565" lon="5.98394">
        <ele>373.61</ele>
        <time>2018-09-22T14:01:28Z</time>
      </trkpt>
      <trkpt lat="47.19564" lon="5.98392">
        <ele>373.61</ele>
        <time>2018-09-22T14:01:29Z</time>
      </trkpt>
      <trkpt lat="47.19563" lon="5.98389">
        <ele>374.09</ele>
        <time>2018-09-22T14:01:37Z</time>
      </trkpt>
      <trkpt lat="47.19563" lon="5.98385">
        <ele>373.61</ele>
        <time>2018-09-22T14:01:44Z</time>
      </trkpt>
      <trkpt lat="47.19559" lon="5.98368">
        <ele>373.61</ele>
        <time>2018-09-22T14:01:52Z</time>
      </trkpt>
      <trkpt lat="47.19561" lon="5.98331">
        <ele>375.05</ele>
        <time>2018-09-22T14:02:04Z</time>
      </trkpt>
      <trkpt lat="47.19556" lon="5.98297">
        <ele>377.94</ele>
        <time>2018-09-22T14:02:14Z</time>
      </trkpt>
      <trkpt lat="47.19557" lon="5.98294">
        <ele>377.94</ele>
        <time>2018-09-22T14:02:15Z</time>
      </trkpt>
      <trkpt lat="47.19557" lon="5.98292">
        <ele>378.42</ele>
        <time>2018-09-22T14:02:16Z</time>
      </trkpt>
      <trkpt lat="47.19557" lon="5.98288">
        <ele>378.42</ele>
        <time>2018-09-22T14:02:17Z</time>
      </trkpt>
      <trkpt lat="47.19557" lon="5.98285">
        <ele>378.42</ele>
        <time>2018-09-22T14:02:18Z</time>
      </trkpt>
      <trkpt lat="47.19557" lon="5.98282">
        <ele>378.9</ele>
        <time>2018-09-22T14:02:19Z</time>
      </trkpt>
      <trkpt lat="47.19557" lon="5.98279">
        <ele>378.9</ele>
        <time>2018-09-22T14:02:20Z</time>
      </trkpt>
      <trkpt lat="47.19557" lon="5.98276">
        <ele>379.38</ele>
        <time>2018-09-22T14:02:21Z</time>
      </trkpt>
      <trkpt lat="47.19557" lon="5.98273">
        <ele>379.86</ele>
        <time>2018-09-22T14:02:22Z</time>
      </trkpt>
      <trkpt lat="47.19557" lon="5.98271">
        <ele>379.86</ele>
        <time>2018-09-22T14:02:23Z</time>
      </trkpt>
      <trkpt lat="47.19557" lon="5.98268">
        <ele>380.34</ele>
        <time>2018-09-22T14:02:24Z</time>
      </trkpt>
      <trkpt lat="47.19557" lon="5.98251">
        <ele>382.26</ele>
        <time>2018-09-22T14:02:30Z</time>
      </trkpt>
      <trkpt lat="47.19551" lon="5.98229">
        <ele>385.15</ele>
        <time>2018-09-22T14:02:38Z</time>
      </trkpt>
      <trkpt lat="47.19542" lon="5.98229">
        <ele>387.07</ele>
        <time>2018-09-22T14:02:44Z</time>
      </trkpt>
      <trkpt lat="47.19525" lon="5.98234">
        <ele>390.43</ele>
        <time>2018-09-22T14:02:56Z</time>
      </trkpt>
      <trkpt lat="47.19512" lon="5.98237">
        <ele>392.84</ele>
        <time>2018-09-22T14:03:05Z</time>
      </trkpt>
      <trkpt lat="47.19504" lon="5.98243">
        <ele>393.8</ele>
        <time>2018-09-22T14:03:10Z</time>
      </trkpt>
      <trkpt lat="47.1949" lon="5.98252">
        <ele>396.2</ele>
        <time>2018-09-22T14:03:19Z</time>
      </trkpt>
      <trkpt lat="47.19468" lon="5.9826">
        <ele>399.08</ele>
        <time>2018-09-22T14:03:32Z</time>
      </trkpt>
      <trkpt lat="47.19462" lon="5.98264">
        <ele>399.57</ele>
        <time>2018-09-22T14:03:35Z</time>
      </trkpt>
      <trkpt lat="47.1943" lon="5.98272">
        <ele>400.53</ele>
        <time>2018-09-22T14:03:47Z</time>
      </trkpt>
      <trkpt lat="47.19425" lon="5.98271">
        <ele>400.53</ele>
        <time>2018-09-22T14:03:49Z</time>
      </trkpt>
      <trkpt lat="47.19428" lon="5.98249">
        <ele>399.08</ele>
        <time>2018-09-22T14:03:55Z</time>
      </trkpt>
      <trkpt lat="47.1943" lon="5.98243">
        <ele>398.6</ele>
        <time>2018-09-22T14:03:56Z</time>
      </trkpt>
      <trkpt lat="47.19432" lon="5.98236">
        <ele>397.64</ele>
        <time>2018-09-22T14:03:57Z</time>
      </trkpt>
      <trkpt lat="47.19435" lon="5.98229">
        <ele>397.64</ele>
        <time>2018-09-22T14:03:58Z</time>
      </trkpt>
      <trkpt lat="47.19439" lon="5.98223">
        <ele>396.68</ele>
        <time>2018-09-22T14:03:59Z</time>
      </trkpt>
      <trkpt lat="47.19444" lon="5.98217">
        <ele>396.2</ele>
        <time>2018-09-22T14:04:00Z</time>
      </trkpt>
      <trkpt lat="47.19448" lon="5.9821">
        <ele>395.72</ele>
        <time>2018-09-22T14:04:01Z</time>
      </trkpt>
      <trkpt lat="47.19453" lon="5.98204">
        <ele>395.24</ele>
        <time>2018-09-22T14:04:02Z</time>
      </trkpt>
      <trkpt lat="47.19458" lon="5.98197">
        <ele>394.28</ele>
        <time>2018-09-22T14:04:03Z</time>
      </trkpt>
      <trkpt lat="47.19475" lon="5.98173">
        <ele>391.39</ele>
        <time>2018-09-22T14:04:06Z</time>
      </trkpt>
      <trkpt lat="47.1948" lon="5.98163">
        <ele>390.43</ele>
        <time>2018-09-22T14:04:07Z</time>
      </trkpt>
      <trkpt lat="47.19491" lon="5.98145">
        <ele>389.95</ele>
        <time>2018-09-22T14:04:09Z</time>
      </trkpt>
      <trkpt lat="47.19501" lon="5.9813">
        <ele>390.43</ele>
        <time>2018-09-22T14:04:11Z</time>
      </trkpt>
      <trkpt lat="47.19505" lon="5.98122">
        <ele>390.43</ele>
        <time>2018-09-22T14:04:12Z</time>
      </trkpt>
      <trkpt lat="47.19509" lon="5.98115">
        <ele>390.91</ele>
        <time>2018-09-22T14:04:13Z</time>
      </trkpt>
      <trkpt lat="47.19512" lon="5.98108">
        <ele>390.91</ele>
        <time>2018-09-22T14:04:14Z</time>
      </trkpt>
      <trkpt lat="47.19516" lon="5.98101">
        <ele>390.91</ele>
        <time>2018-09-22T14:04:15Z</time>
      </trkpt>
      <trkpt lat="47.1952" lon="5.98095">
        <ele>391.39</ele>
        <time>2018-09-22T14:04:16Z</time>
      </trkpt>
      <trkpt lat="47.19523" lon="5.98089">
        <ele>391.39</ele>
        <time>2018-09-22T14:04:17Z</time>
      </trkpt>
      <trkpt lat="47.19532" lon="5.98078">
        <ele>391.39</ele>
        <time>2018-09-22T14:04:19Z</time>
      </trkpt>
      <trkpt lat="47.19537" lon="5.98075">
        <ele>391.39</ele>
        <time>2018-09-22T14:04:20Z</time>
      </trkpt>
      <trkpt lat="47.19542" lon="5.98071">
        <ele>391.39</ele>
        <time>2018-09-22T14:04:21Z</time>
      </trkpt>
      <trkpt lat="47.19546" lon="5.98066">
        <ele>391.39</ele>
        <time>2018-09-22T14:04:22Z</time>
      </trkpt>
      <trkpt lat="47.19549" lon="5.9806">
        <ele>391.39</ele>
        <time>2018-09-22T14:04:23Z</time>
      </trkpt>
      <trkpt lat="47.19553" lon="5.98053">
        <ele>391.39</ele>
        <time>2018-09-22T14:04:24Z</time>
      </trkpt>
      <trkpt lat="47.19558" lon="5.98039">
        <ele>391.87</ele>
        <time>2018-09-22T14:04:26Z</time>
      </trkpt>
      <trkpt lat="47.19562" lon="5.98026">
        <ele>390.91</ele>
        <time>2018-09-22T14:04:28Z</time>
      </trkpt>
      <trkpt lat="47.19564" lon="5.98019">
        <ele>390.43</ele>
        <time>2018-09-22T14:04:29Z</time>
      </trkpt>
      <trkpt lat="47.19566" lon="5.9801">
        <ele>389.95</ele>
        <time>2018-09-22T14:04:30Z</time>
      </trkpt>
      <trkpt lat="47.19571" lon="5.9798">
        <ele>386.59</ele>
        <time>2018-09-22T14:04:33Z</time>
      </trkpt>
      <trkpt lat="47.19572" lon="5.97968">
        <ele>385.15</ele>
        <time>2018-09-22T14:04:34Z</time>
      </trkpt>
      <trkpt lat="47.19571" lon="5.97956">
        <ele>383.7</ele>
        <time>2018-09-22T14:04:35Z</time>
      </trkpt>
      <trkpt lat="47.19567" lon="5.97915">
        <ele>379.86</ele>
        <time>2018-09-22T14:04:38Z</time>
      </trkpt>
      <trkpt lat="47.19565" lon="5.97902">
        <ele>378.9</ele>
        <time>2018-09-22T14:04:39Z</time>
      </trkpt>
      <trkpt lat="47.19558" lon="5.97881">
        <ele>378.42</ele>
        <time>2018-09-22T14:04:41Z</time>
      </trkpt>
      <trkpt lat="47.19553" lon="5.97874">
        <ele>377.94</ele>
        <time>2018-09-22T14:04:42Z</time>
      </trkpt>
      <trkpt lat="47.19548" lon="5.97868">
        <ele>376.97</ele>
        <time>2018-09-22T14:04:43Z</time>
      </trkpt>
      <trkpt lat="47.19544" lon="5.97861">
        <ele>375.53</ele>
        <time>2018-09-22T14:04:44Z</time>
      </trkpt>
      <trkpt lat="47.19541" lon="5.97852">
        <ele>374.09</ele>
        <time>2018-09-22T14:04:45Z</time>
      </trkpt>
      <trkpt lat="47.19538" lon="5.97841">
        <ele>373.13</ele>
        <time>2018-09-22T14:04:46Z</time>
      </trkpt>
      <trkpt lat="47.19536" lon="5.97829">
        <ele>372.17</ele>
        <time>2018-09-22T14:04:47Z</time>
      </trkpt>
      <trkpt lat="47.19535" lon="5.97816">
        <ele>371.21</ele>
        <time>2018-09-22T14:04:48Z</time>
      </trkpt>
      <trkpt lat="47.19525" lon="5.97732">
        <ele>367.84</ele>
        <time>2018-09-22T14:04:54Z</time>
      </trkpt>
      <trkpt lat="47.19523" lon="5.97719">
        <ele>366.88</ele>
        <time>2018-09-22T14:04:55Z</time>
      </trkpt>
      <trkpt lat="47.19521" lon="5.97706">
        <ele>366.88</ele>
        <time>2018-09-22T14:04:56Z</time>
      </trkpt>
      <trkpt lat="47.19517" lon="5.9768">
        <ele>365.44</ele>
        <time>2018-09-22T14:04:58Z</time>
      </trkpt>
      <trkpt lat="47.19515" lon="5.97666">
        <ele>365.44</ele>
        <time>2018-09-22T14:04:59Z</time>
      </trkpt>
      <trkpt lat="47.1951" lon="5.97642">
        <ele>364.48</ele>
        <time>2018-09-22T14:05:01Z</time>
      </trkpt>
      <trkpt lat="47.19494" lon="5.97601">
        <ele>364.48</ele>
        <time>2018-09-22T14:05:05Z</time>
      </trkpt>
      <trkpt lat="47.1949" lon="5.97592">
        <ele>364.48</ele>
        <time>2018-09-22T14:05:06Z</time>
      </trkpt>
      <trkpt lat="47.19486" lon="5.97583">
        <ele>364</ele>
        <time>2018-09-22T14:05:07Z</time>
      </trkpt>
      <trkpt lat="47.1948" lon="5.97564">
        <ele>363.04</ele>
        <time>2018-09-22T14:05:09Z</time>
      </trkpt>
      <trkpt lat="47.19479" lon="5.97553">
        <ele>362.55</ele>
        <time>2018-09-22T14:05:10Z</time>
      </trkpt>
      <trkpt lat="47.19479" lon="5.97543">
        <ele>362.55</ele>
        <time>2018-09-22T14:05:11Z</time>
      </trkpt>
      <trkpt lat="47.19481" lon="5.97535">
        <ele>362.07</ele>
        <time>2018-09-22T14:05:12Z</time>
      </trkpt>
      <trkpt lat="47.19485" lon="5.97527">
        <ele>362.07</ele>
        <time>2018-09-22T14:05:13Z</time>
      </trkpt>
      <trkpt lat="47.19504" lon="5.97482">
        <ele>361.59</ele>
        <time>2018-09-22T14:05:19Z</time>
      </trkpt>
      <trkpt lat="47.19506" lon="5.97469">
        <ele>360.15</ele>
        <time>2018-09-22T14:05:21Z</time>
      </trkpt>
      <trkpt lat="47.19506" lon="5.97461">
        <ele>359.19</ele>
        <time>2018-09-22T14:05:22Z</time>
      </trkpt>
      <trkpt lat="47.19506" lon="5.97453">
        <ele>358.71</ele>
        <time>2018-09-22T14:05:23Z</time>
      </trkpt>
      <trkpt lat="47.19505" lon="5.97443">
        <ele>358.23</ele>
        <time>2018-09-22T14:05:24Z</time>
      </trkpt>
      <trkpt lat="47.19503" lon="5.97433">
        <ele>357.75</ele>
        <time>2018-09-22T14:05:25Z</time>
      </trkpt>
      <trkpt lat="47.19501" lon="5.97422">
        <ele>357.27</ele>
        <time>2018-09-22T14:05:26Z</time>
      </trkpt>
      <trkpt lat="47.19499" lon="5.97412">
        <ele>357.27</ele>
        <time>2018-09-22T14:05:27Z</time>
      </trkpt>
      <trkpt lat="47.19497" lon="5.97402">
        <ele>356.79</ele>
        <time>2018-09-22T14:05:28Z</time>
      </trkpt>
      <trkpt lat="47.19491" lon="5.97381">
        <ele>355.83</ele>
        <time>2018-09-22T14:05:30Z</time>
      </trkpt>
      <trkpt lat="47.1948" lon="5.97333">
        <ele>355.34</ele>
        <time>2018-09-22T14:05:35Z</time>
      </trkpt>
      <trkpt lat="47.19467" lon="5.97299">
        <ele>353.9</ele>
        <time>2018-09-22T14:05:39Z</time>
      </trkpt>
      <trkpt lat="47.19463" lon="5.9729">
        <ele>353.42</ele>
        <time>2018-09-22T14:05:40Z</time>
      </trkpt>
      <trkpt lat="47.19459" lon="5.97281">
        <ele>352.94</ele>
        <time>2018-09-22T14:05:41Z</time>
      </trkpt>
      <trkpt lat="47.19455" lon="5.97273">
        <ele>352.94</ele>
        <time>2018-09-22T14:05:42Z</time>
      </trkpt>
      <trkpt lat="47.19452" lon="5.97262">
        <ele>352.94</ele>
        <time>2018-09-22T14:05:43Z</time>
      </trkpt>
      <trkpt lat="47.19449" lon="5.97252">
        <ele>352.94</ele>
        <time>2018-09-22T14:05:44Z</time>
      </trkpt>
      <trkpt lat="47.19447" lon="5.97244">
        <ele>352.94</ele>
        <time>2018-09-22T14:05:45Z</time>
      </trkpt>
      <trkpt lat="47.19447" lon="5.97237">
        <ele>352.94</ele>
        <time>2018-09-22T14:05:46Z</time>
      </trkpt>
      <trkpt lat="47.1945" lon="5.9722">
        <ele>352.46</ele>
        <time>2018-09-22T14:05:48Z</time>
      </trkpt>
      <trkpt lat="47.19453" lon="5.97212">
        <ele>351.5</ele>
        <time>2018-09-22T14:05:49Z</time>
      </trkpt>
      <trkpt lat="47.19455" lon="5.97204">
        <ele>351.02</ele>
        <time>2018-09-22T14:05:50Z</time>
      </trkpt>
      <trkpt lat="47.19457" lon="5.97196">
        <ele>350.54</ele>
        <time>2018-09-22T14:05:51Z</time>
      </trkpt>
      <trkpt lat="47.19457" lon="5.97188">
        <ele>350.54</ele>
        <time>2018-09-22T14:05:52Z</time>
      </trkpt>
      <trkpt lat="47.19456" lon="5.97179">
        <ele>351.02</ele>
        <time>2018-09-22T14:05:53Z</time>
      </trkpt>
      <trkpt lat="47.19451" lon="5.97151">
        <ele>351.5</ele>
        <time>2018-09-22T14:05:56Z</time>
      </trkpt>
      <trkpt lat="47.1945" lon="5.97143">
        <ele>351.98</ele>
        <time>2018-09-22T14:05:57Z</time>
      </trkpt>
      <trkpt lat="47.19449" lon="5.97134">
        <ele>351.98</ele>
        <time>2018-09-22T14:05:58Z</time>
      </trkpt>
      <trkpt lat="47.19448" lon="5.97125">
        <ele>351.98</ele>
        <time>2018-09-22T14:05:59Z</time>
      </trkpt>
      <trkpt lat="47.19447" lon="5.97116">
        <ele>351.5</ele>
        <time>2018-09-22T14:06:00Z</time>
      </trkpt>
      <trkpt lat="47.19448" lon="5.97107">
        <ele>351.02</ele>
        <time>2018-09-22T14:06:01Z</time>
      </trkpt>
      <trkpt lat="47.19449" lon="5.97098">
        <ele>350.54</ele>
        <time>2018-09-22T14:06:02Z</time>
      </trkpt>
      <trkpt lat="47.19451" lon="5.97089">
        <ele>350.54</ele>
        <time>2018-09-22T14:06:03Z</time>
      </trkpt>
      <trkpt lat="47.19453" lon="5.97081">
        <ele>350.06</ele>
        <time>2018-09-22T14:06:04Z</time>
      </trkpt>
      <trkpt lat="47.19455" lon="5.97072">
        <ele>350.06</ele>
        <time>2018-09-22T14:06:05Z</time>
      </trkpt>
      <trkpt lat="47.19457" lon="5.97064">
        <ele>349.1</ele>
        <time>2018-09-22T14:06:06Z</time>
      </trkpt>
      <trkpt lat="47.19464" lon="5.97036">
        <ele>348.13</ele>
        <time>2018-09-22T14:06:09Z</time>
      </trkpt>
      <trkpt lat="47.1948" lon="5.96981">
        <ele>345.73</ele>
        <time>2018-09-22T14:06:15Z</time>
      </trkpt>
      <trkpt lat="47.19495" lon="5.96924">
        <ele>341.89</ele>
        <time>2018-09-22T14:06:21Z</time>
      </trkpt>
      <trkpt lat="47.19506" lon="5.96894">
        <ele>339</ele>
        <time>2018-09-22T14:06:24Z</time>
      </trkpt>
      <trkpt lat="47.19512" lon="5.96885">
        <ele>337.56</ele>
        <time>2018-09-22T14:06:25Z</time>
      </trkpt>
      <trkpt lat="47.19526" lon="5.9687">
        <ele>334.68</ele>
        <time>2018-09-22T14:06:27Z</time>
      </trkpt>
      <trkpt lat="47.19534" lon="5.96864">
        <ele>333.23</ele>
        <time>2018-09-22T14:06:28Z</time>
      </trkpt>
      <trkpt lat="47.19559" lon="5.96846">
        <ele>329.87</ele>
        <time>2018-09-22T14:06:31Z</time>
      </trkpt>
      <trkpt lat="47.19578" lon="5.96834">
        <ele>326.02</ele>
        <time>2018-09-22T14:06:34Z</time>
      </trkpt>
      <trkpt lat="47.19584" lon="5.96833">
        <ele>325.06</ele>
        <time>2018-09-22T14:06:35Z</time>
      </trkpt>
      <trkpt lat="47.19589" lon="5.96832">
        <ele>324.58</ele>
        <time>2018-09-22T14:06:36Z</time>
      </trkpt>
      <trkpt lat="47.19595" lon="5.96834">
        <ele>324.1</ele>
        <time>2018-09-22T14:06:37Z</time>
      </trkpt>
      <trkpt lat="47.196" lon="5.96836">
        <ele>323.14</ele>
        <time>2018-09-22T14:06:38Z</time>
      </trkpt>
      <trkpt lat="47.19606" lon="5.96839">
        <ele>322.66</ele>
        <time>2018-09-22T14:06:39Z</time>
      </trkpt>
      <trkpt lat="47.19611" lon="5.96843">
        <ele>321.7</ele>
        <time>2018-09-22T14:06:40Z</time>
      </trkpt>
      <trkpt lat="47.19615" lon="5.96845">
        <ele>321.22</ele>
        <time>2018-09-22T14:06:41Z</time>
      </trkpt>
      <trkpt lat="47.19618" lon="5.96846">
        <ele>321.22</ele>
        <time>2018-09-22T14:06:42Z</time>
      </trkpt>
      <trkpt lat="47.1962" lon="5.96846">
        <ele>320.74</ele>
        <time>2018-09-22T14:06:43Z</time>
      </trkpt>
      <trkpt lat="47.19622" lon="5.96845">
        <ele>320.74</ele>
        <time>2018-09-22T14:06:44Z</time>
      </trkpt>
      <trkpt lat="47.19626" lon="5.96842">
        <ele>320.26</ele>
        <time>2018-09-22T14:06:46Z</time>
      </trkpt>
      <trkpt lat="47.19629" lon="5.96838">
        <ele>320.74</ele>
        <time>2018-09-22T14:06:47Z</time>
      </trkpt>
      <trkpt lat="47.19631" lon="5.96835">
        <ele>320.26</ele>
        <time>2018-09-22T14:06:48Z</time>
      </trkpt>
      <trkpt lat="47.19633" lon="5.96837">
        <ele>320.26</ele>
        <time>2018-09-22T14:06:53Z</time>
      </trkpt>
      <trkpt lat="47.19632" lon="5.96836">
        <ele>320.74</ele>
        <time>2018-09-22T14:06:59Z</time>
      </trkpt>
      <trkpt lat="47.19631" lon="5.96834">
        <ele>320.74</ele>
        <time>2018-09-22T14:07:00Z</time>
      </trkpt>
      <trkpt lat="47.1963" lon="5.96832">
        <ele>320.26</ele>
        <time>2018-09-22T14:07:01Z</time>
      </trkpt>
      <trkpt lat="47.19624" lon="5.96824">
        <ele>318.81</ele>
        <time>2018-09-22T14:07:04Z</time>
      </trkpt>
      <trkpt lat="47.1961" lon="5.96807">
        <ele>315.93</ele>
        <time>2018-09-22T14:07:07Z</time>
      </trkpt>
      <trkpt lat="47.19592" lon="5.96788">
        <ele>312.57</ele>
        <time>2018-09-22T14:07:10Z</time>
      </trkpt>
      <trkpt lat="47.19578" lon="5.96769">
        <ele>309.68</ele>
        <time>2018-09-22T14:07:13Z</time>
      </trkpt>
      <trkpt lat="47.19575" lon="5.9676">
        <ele>308.72</ele>
        <time>2018-09-22T14:07:14Z</time>
      </trkpt>
      <trkpt lat="47.19574" lon="5.9675">
        <ele>307.76</ele>
        <time>2018-09-22T14:07:15Z</time>
      </trkpt>
      <trkpt lat="47.19571" lon="5.96716">
        <ele>304.88</ele>
        <time>2018-09-22T14:07:19Z</time>
      </trkpt>
      <trkpt lat="47.19571" lon="5.9671">
        <ele>304.39</ele>
        <time>2018-09-22T14:07:20Z</time>
      </trkpt>
      <trkpt lat="47.1957" lon="5.96705">
        <ele>303.43</ele>
        <time>2018-09-22T14:07:21Z</time>
      </trkpt>
      <trkpt lat="47.1957" lon="5.96696">
        <ele>302.95</ele>
        <time>2018-09-22T14:07:22Z</time>
      </trkpt>
      <trkpt lat="47.19571" lon="5.96686">
        <ele>301.51</ele>
        <time>2018-09-22T14:07:23Z</time>
      </trkpt>
      <trkpt lat="47.19573" lon="5.96675">
        <ele>299.11</ele>
        <time>2018-09-22T14:07:24Z</time>
      </trkpt>
      <trkpt lat="47.19578" lon="5.96636">
        <ele>295.74</ele>
        <time>2018-09-22T14:07:28Z</time>
      </trkpt>
      <trkpt lat="47.19578" lon="5.9663">
        <ele>295.26</ele>
        <time>2018-09-22T14:07:29Z</time>
      </trkpt>
      <trkpt lat="47.19578" lon="5.96625">
        <ele>294.78</ele>
        <time>2018-09-22T14:07:30Z</time>
      </trkpt>
      <trkpt lat="47.1958" lon="5.96619">
        <ele>294.3</ele>
        <time>2018-09-22T14:07:31Z</time>
      </trkpt>
      <trkpt lat="47.19582" lon="5.96613">
        <ele>293.82</ele>
        <time>2018-09-22T14:07:32Z</time>
      </trkpt>
      <trkpt lat="47.19585" lon="5.96608">
        <ele>292.86</ele>
        <time>2018-09-22T14:07:33Z</time>
      </trkpt>
      <trkpt lat="47.1959" lon="5.96601">
        <ele>292.38</ele>
        <time>2018-09-22T14:07:34Z</time>
      </trkpt>
      <trkpt lat="47.19604" lon="5.96576">
        <ele>288.53</ele>
        <time>2018-09-22T14:07:37Z</time>
      </trkpt>
      <trkpt lat="47.19609" lon="5.96565">
        <ele>287.57</ele>
        <time>2018-09-22T14:07:38Z</time>
      </trkpt>
      <trkpt lat="47.19612" lon="5.96553">
        <ele>286.61</ele>
        <time>2018-09-22T14:07:39Z</time>
      </trkpt>
      <trkpt lat="47.19614" lon="5.9654">
        <ele>286.13</ele>
        <time>2018-09-22T14:07:40Z</time>
      </trkpt>
      <trkpt lat="47.19614" lon="5.96527">
        <ele>285.17</ele>
        <time>2018-09-22T14:07:41Z</time>
      </trkpt>
      <trkpt lat="47.19612" lon="5.96513">
        <ele>284.21</ele>
        <time>2018-09-22T14:07:42Z</time>
      </trkpt>
      <trkpt lat="47.19609" lon="5.96501">
        <ele>284.21</ele>
        <time>2018-09-22T14:07:43Z</time>
      </trkpt>
      <trkpt lat="47.19605" lon="5.96489">
        <ele>284.21</ele>
        <time>2018-09-22T14:07:44Z</time>
      </trkpt>
      <trkpt lat="47.19583" lon="5.96434">
        <ele>282.28</ele>
        <time>2018-09-22T14:07:49Z</time>
      </trkpt>
      <trkpt lat="47.19581" lon="5.96424">
        <ele>282.77</ele>
        <time>2018-09-22T14:07:50Z</time>
      </trkpt>
      <trkpt lat="47.19582" lon="5.96415">
        <ele>282.77</ele>
        <time>2018-09-22T14:07:51Z</time>
      </trkpt>
      <trkpt lat="47.19585" lon="5.96405">
        <ele>282.28</ele>
        <time>2018-09-22T14:07:52Z</time>
      </trkpt>
      <trkpt lat="47.1959" lon="5.96397">
        <ele>281.8</ele>
        <time>2018-09-22T14:07:53Z</time>
      </trkpt>
      <trkpt lat="47.19595" lon="5.96389">
        <ele>281.32</ele>
        <time>2018-09-22T14:07:54Z</time>
      </trkpt>
      <trkpt lat="47.19601" lon="5.96381">
        <ele>281.32</ele>
        <time>2018-09-22T14:07:55Z</time>
      </trkpt>
      <trkpt lat="47.19606" lon="5.96374">
        <ele>281.32</ele>
        <time>2018-09-22T14:07:56Z</time>
      </trkpt>
      <trkpt lat="47.19624" lon="5.96356">
        <ele>280.84</ele>
        <time>2018-09-22T14:07:59Z</time>
      </trkpt>
      <trkpt lat="47.1963" lon="5.96353">
        <ele>280.84</ele>
        <time>2018-09-22T14:08:00Z</time>
      </trkpt>
      <trkpt lat="47.19636" lon="5.96353">
        <ele>280.84</ele>
        <time>2018-09-22T14:08:01Z</time>
      </trkpt>
      <trkpt lat="47.19642" lon="5.96356">
        <ele>280.84</ele>
        <time>2018-09-22T14:08:02Z</time>
      </trkpt>
      <trkpt lat="47.19647" lon="5.9636">
        <ele>280.84</ele>
        <time>2018-09-22T14:08:03Z</time>
      </trkpt>
      <trkpt lat="47.19653" lon="5.96364">
        <ele>280.84</ele>
        <time>2018-09-22T14:08:04Z</time>
      </trkpt>
      <trkpt lat="47.19658" lon="5.96368">
        <ele>280.84</ele>
        <time>2018-09-22T14:08:05Z</time>
      </trkpt>
      <trkpt lat="47.19664" lon="5.96371">
        <ele>280.84</ele>
        <time>2018-09-22T14:08:06Z</time>
      </trkpt>
      <trkpt lat="47.19729" lon="5.96394">
        <ele>279.4</ele>
        <time>2018-09-22T14:08:19Z</time>
      </trkpt>
      <trkpt lat="47.19741" lon="5.96398">
        <ele>278.44</ele>
        <time>2018-09-22T14:08:21Z</time>
      </trkpt>
      <trkpt lat="47.19747" lon="5.96402">
        <ele>277.48</ele>
        <time>2018-09-22T14:08:22Z</time>
      </trkpt>
      <trkpt lat="47.19769" lon="5.96422">
        <ele>274.11</ele>
        <time>2018-09-22T14:08:27Z</time>
      </trkpt>
      <trkpt lat="47.19773" lon="5.96424">
        <ele>273.63</ele>
        <time>2018-09-22T14:08:28Z</time>
      </trkpt>
      <trkpt lat="47.19778" lon="5.96424">
        <ele>273.15</ele>
        <time>2018-09-22T14:08:29Z</time>
      </trkpt>
      <trkpt lat="47.19783" lon="5.96422">
        <ele>272.19</ele>
        <time>2018-09-22T14:08:30Z</time>
      </trkpt>
      <trkpt lat="47.19788" lon="5.9642">
        <ele>271.23</ele>
        <time>2018-09-22T14:08:31Z</time>
      </trkpt>
      <trkpt lat="47.19793" lon="5.96416">
        <ele>270.75</ele>
        <time>2018-09-22T14:08:32Z</time>
      </trkpt>
      <trkpt lat="47.19797" lon="5.96411">
        <ele>269.79</ele>
        <time>2018-09-22T14:08:33Z</time>
      </trkpt>
      <trkpt lat="47.19803" lon="5.96405">
        <ele>268.35</ele>
        <time>2018-09-22T14:08:34Z</time>
      </trkpt>
      <trkpt lat="47.19808" lon="5.96399">
        <ele>267.38</ele>
        <time>2018-09-22T14:08:35Z</time>
      </trkpt>
      <trkpt lat="47.19813" lon="5.96392">
        <ele>265.94</ele>
        <time>2018-09-22T14:08:36Z</time>
      </trkpt>
      <trkpt lat="47.19818" lon="5.96385">
        <ele>264.02</ele>
        <time>2018-09-22T14:08:37Z</time>
      </trkpt>
      <trkpt lat="47.19822" lon="5.96378">
        <ele>263.54</ele>
        <time>2018-09-22T14:08:38Z</time>
      </trkpt>
      <trkpt lat="47.19824" lon="5.9637">
        <ele>263.06</ele>
        <time>2018-09-22T14:08:39Z</time>
      </trkpt>
      <trkpt lat="47.19825" lon="5.9636">
        <ele>262.58</ele>
        <time>2018-09-22T14:08:40Z</time>
      </trkpt>
      <trkpt lat="47.19825" lon="5.96351">
        <ele>261.14</ele>
        <time>2018-09-22T14:08:41Z</time>
      </trkpt>
      <trkpt lat="47.19823" lon="5.96341">
        <ele>260.65</ele>
        <time>2018-09-22T14:08:42Z</time>
      </trkpt>
      <trkpt lat="47.19822" lon="5.9633">
        <ele>259.69</ele>
        <time>2018-09-22T14:08:43Z</time>
      </trkpt>
      <trkpt lat="47.19821" lon="5.96319">
        <ele>258.73</ele>
        <time>2018-09-22T14:08:44Z</time>
      </trkpt>
      <trkpt lat="47.19813" lon="5.96276">
        <ele>255.37</ele>
        <time>2018-09-22T14:08:48Z</time>
      </trkpt>
      <trkpt lat="47.19811" lon="5.96266">
        <ele>254.41</ele>
        <time>2018-09-22T14:08:49Z</time>
      </trkpt>
      <trkpt lat="47.1981" lon="5.96257">
        <ele>253.93</ele>
        <time>2018-09-22T14:08:50Z</time>
      </trkpt>
      <trkpt lat="47.19811" lon="5.96248">
        <ele>253.44</ele>
        <time>2018-09-22T14:08:51Z</time>
      </trkpt>
      <trkpt lat="47.19812" lon="5.9624">
        <ele>252.96</ele>
        <time>2018-09-22T14:08:52Z</time>
      </trkpt>
      <trkpt lat="47.19815" lon="5.96231">
        <ele>252</ele>
        <time>2018-09-22T14:08:53Z</time>
      </trkpt>
      <trkpt lat="47.19819" lon="5.96221">
        <ele>250.56</ele>
        <time>2018-09-22T14:08:54Z</time>
      </trkpt>
      <trkpt lat="47.19827" lon="5.96197">
        <ele>248.64</ele>
        <time>2018-09-22T14:08:57Z</time>
      </trkpt>
      <trkpt lat="47.1983" lon="5.96194">
        <ele>249.12</ele>
        <time>2018-09-22T14:08:58Z</time>
      </trkpt>
      <trkpt lat="47.19834" lon="5.96194">
        <ele>249.12</ele>
        <time>2018-09-22T14:08:59Z</time>
      </trkpt>
      <trkpt lat="47.19838" lon="5.96198">
        <ele>248.64</ele>
        <time>2018-09-22T14:09:00Z</time>
      </trkpt>
      <trkpt lat="47.19842" lon="5.96203">
        <ele>248.16</ele>
        <time>2018-09-22T14:09:01Z</time>
      </trkpt>
      <trkpt lat="47.19846" lon="5.96209">
        <ele>246.72</ele>
        <time>2018-09-22T14:09:02Z</time>
      </trkpt>
      <trkpt lat="47.19861" lon="5.96227">
        <ele>246.23</ele>
        <time>2018-09-22T14:09:05Z</time>
      </trkpt>
      <trkpt lat="47.19867" lon="5.96231">
        <ele>246.23</ele>
        <time>2018-09-22T14:09:06Z</time>
      </trkpt>
      <trkpt lat="47.19873" lon="5.96234">
        <ele>245.75</ele>
        <time>2018-09-22T14:09:07Z</time>
      </trkpt>
      <trkpt lat="47.1988" lon="5.96235">
        <ele>245.75</ele>
        <time>2018-09-22T14:09:08Z</time>
      </trkpt>
      <trkpt lat="47.19885" lon="5.96235">
        <ele>245.75</ele>
        <time>2018-09-22T14:09:09Z</time>
      </trkpt>
      <trkpt lat="47.19891" lon="5.96234">
        <ele>246.23</ele>
        <time>2018-09-22T14:09:10Z</time>
      </trkpt>
      <trkpt lat="47.19904" lon="5.96234">
        <ele>247.68</ele>
        <time>2018-09-22T14:09:13Z</time>
      </trkpt>
      <trkpt lat="47.19961" lon="5.96235">
        <ele>247.2</ele>
        <time>2018-09-22T14:09:25Z</time>
      </trkpt>
      <trkpt lat="47.20025" lon="5.96236">
        <ele>247.2</ele>
        <time>2018-09-22T14:09:38Z</time>
      </trkpt>
      <trkpt lat="47.20073" lon="5.96234">
        <ele>247.2</ele>
        <time>2018-09-22T14:09:50Z</time>
      </trkpt>
      <trkpt lat="47.20087" lon="5.96231">
        <ele>247.2</ele>
        <time>2018-09-22T14:09:54Z</time>
      </trkpt>
      <trkpt lat="47.20089" lon="5.96215">
        <ele>247.2</ele>
        <time>2018-09-22T14:10:02Z</time>
      </trkpt>
      <trkpt lat="47.2009" lon="5.96214">
        <ele>247.2</ele>
        <time>2018-09-22T14:10:25Z</time>
      </trkpt>
      <trkpt lat="47.2009" lon="5.96218">
        <ele>247.2</ele>
        <time>2018-09-22T14:10:41Z</time>
      </trkpt>
      <trkpt lat="47.20089" lon="5.96219">
        <ele>247.2</ele>
        <time>2018-09-22T14:10:59Z</time>
      </trkpt>
      <trkpt lat="47.20089" lon="5.96226">
        <ele>247.2</ele>
        <time>2018-09-22T14:11:12Z</time>
      </trkpt>
      <trkpt lat="47.20091" lon="5.96226">
        <ele>247.2</ele>
        <time>2018-09-22T14:11:27Z</time>
      </trkpt>
      <trkpt lat="47.20092" lon="5.96226">
        <ele>247.2</ele>
        <time>2018-09-22T14:11:36Z</time>
      </trkpt>
      <trkpt lat="47.20093" lon="5.96226">
        <ele>247.2</ele>
        <time>2018-09-22T14:11:37Z</time>
      </trkpt>
      <trkpt lat="47.20128" lon="5.96232">
        <ele>246.23</ele>
        <time>2018-09-22T14:11:49Z</time>
      </trkpt>
      <trkpt lat="47.20132" lon="5.96234">
        <ele>246.23</ele>
        <time>2018-09-22T14:11:50Z</time>
      </trkpt>
      <trkpt lat="47.20137" lon="5.96235">
        <ele>245.75</ele>
        <time>2018-09-22T14:11:51Z</time>
      </trkpt>
      <trkpt lat="47.20141" lon="5.96233">
        <ele>246.23</ele>
        <time>2018-09-22T14:11:52Z</time>
      </trkpt>
      <trkpt lat="47.2015" lon="5.96231">
        <ele>245.75</ele>
        <time>2018-09-22T14:11:54Z</time>
      </trkpt>
      <trkpt lat="47.20154" lon="5.96231">
        <ele>245.75</ele>
        <time>2018-09-22T14:11:55Z</time>
      </trkpt>
      <trkpt lat="47.20173" lon="5.96234">
        <ele>246.23</ele>
        <time>2018-09-22T14:12:00Z</time>
      </trkpt>
      <trkpt lat="47.20176" lon="5.96229">
        <ele>245.75</ele>
        <time>2018-09-22T14:12:01Z</time>
      </trkpt>
      <trkpt lat="47.20177" lon="5.96223">
        <ele>245.75</ele>
        <time>2018-09-22T14:12:02Z</time>
      </trkpt>
      <trkpt lat="47.20182" lon="5.96135">
        <ele>244.79</ele>
        <time>2018-09-22T14:12:14Z</time>
      </trkpt>
      <trkpt lat="47.20183" lon="5.96069">
        <ele>244.79</ele>
        <time>2018-09-22T14:12:23Z</time>
      </trkpt>
      <trkpt lat="47.20186" lon="5.95952">
        <ele>245.27</ele>
        <time>2018-09-22T14:12:39Z</time>
      </trkpt>
      <trkpt lat="47.2019" lon="5.95808">
        <ele>244.79</ele>
        <time>2018-09-22T14:12:56Z</time>
      </trkpt>
      <trkpt lat="47.20169" lon="5.95667">
        <ele>243.35</ele>
        <time>2018-09-22T14:13:13Z</time>
      </trkpt>
      <trkpt lat="47.20168" lon="5.95659">
        <ele>243.35</ele>
        <time>2018-09-22T14:13:14Z</time>
      </trkpt>
      <trkpt lat="47.20169" lon="5.95651">
        <ele>242.87</ele>
        <time>2018-09-22T14:13:15Z</time>
      </trkpt>
      <trkpt lat="47.2017" lon="5.95643">
        <ele>243.35</ele>
        <time>2018-09-22T14:13:16Z</time>
      </trkpt>
      <trkpt lat="47.20195" lon="5.95569">
        <ele>243.83</ele>
        <time>2018-09-22T14:13:26Z</time>
      </trkpt>
      <trkpt lat="47.20252" lon="5.95482">
        <ele>245.27</ele>
        <time>2018-09-22T14:13:41Z</time>
      </trkpt>
      <trkpt lat="47.20279" lon="5.95436">
        <ele>246.23</ele>
        <time>2018-09-22T14:13:49Z</time>
      </trkpt>
      <trkpt lat="47.20312" lon="5.95379">
        <ele>249.12</ele>
        <time>2018-09-22T14:14:01Z</time>
      </trkpt>
      <trkpt lat="47.20331" lon="5.95347">
        <ele>252.48</ele>
        <time>2018-09-22T14:14:13Z</time>
      </trkpt>
      <trkpt lat="47.20339" lon="5.95309">
        <ele>255.37</ele>
        <time>2018-09-22T14:14:26Z</time>
      </trkpt>
      <trkpt lat="47.20337" lon="5.95276">
        <ele>258.73</ele>
        <time>2018-09-22T14:14:38Z</time>
      </trkpt>
      <trkpt lat="47.20335" lon="5.95239">
        <ele>262.1</ele>
        <time>2018-09-22T14:14:52Z</time>
      </trkpt>
      <trkpt lat="47.20332" lon="5.95221">
        <ele>263.54</ele>
        <time>2018-09-22T14:15:02Z</time>
      </trkpt>
      <trkpt lat="47.2033" lon="5.95202">
        <ele>265.46</ele>
        <time>2018-09-22T14:15:13Z</time>
      </trkpt>
      <trkpt lat="47.2033" lon="5.952">
        <ele>265.94</ele>
        <time>2018-09-22T14:15:14Z</time>
      </trkpt>
      <trkpt lat="47.2033" lon="5.95197">
        <ele>265.94</ele>
        <time>2018-09-22T14:15:15Z</time>
      </trkpt>
      <trkpt lat="47.20329" lon="5.95195">
        <ele>265.94</ele>
        <time>2018-09-22T14:15:16Z</time>
      </trkpt>
      <trkpt lat="47.20329" lon="5.95193">
        <ele>266.42</ele>
        <time>2018-09-22T14:15:17Z</time>
      </trkpt>
      <trkpt lat="47.20328" lon="5.95191">
        <ele>266.42</ele>
        <time>2018-09-22T14:15:18Z</time>
      </trkpt>
      <trkpt lat="47.20328" lon="5.95189">
        <ele>266.9</ele>
        <time>2018-09-22T14:15:19Z</time>
      </trkpt>
      <trkpt lat="47.20328" lon="5.95187">
        <ele>267.38</ele>
        <time>2018-09-22T14:15:20Z</time>
      </trkpt>
      <trkpt lat="47.20324" lon="5.95158">
        <ele>270.27</ele>
        <time>2018-09-22T14:15:33Z</time>
      </trkpt>
      <trkpt lat="47.20322" lon="5.95133">
        <ele>273.63</ele>
        <time>2018-09-22T14:15:45Z</time>
      </trkpt>
      <trkpt lat="47.20322" lon="5.9513">
        <ele>273.63</ele>
        <time>2018-09-22T14:15:46Z</time>
      </trkpt>
      <trkpt lat="47.20317" lon="5.95102">
        <ele>277</ele>
        <time>2018-09-22T14:15:59Z</time>
      </trkpt>
      <trkpt lat="47.20316" lon="5.95098">
        <ele>277.48</ele>
        <time>2018-09-22T14:16:01Z</time>
      </trkpt>
      <trkpt lat="47.20315" lon="5.95093">
        <ele>278.44</ele>
        <time>2018-09-22T14:16:04Z</time>
      </trkpt>
      <trkpt lat="47.20314" lon="5.95086">
        <ele>278.92</ele>
        <time>2018-09-22T14:16:07Z</time>
      </trkpt>
      <trkpt lat="47.20313" lon="5.95083">
        <ele>279.4</ele>
        <time>2018-09-22T14:16:08Z</time>
      </trkpt>
      <trkpt lat="47.20313" lon="5.95079">
        <ele>279.88</ele>
        <time>2018-09-22T14:16:10Z</time>
      </trkpt>
      <trkpt lat="47.20312" lon="5.95077">
        <ele>280.36</ele>
        <time>2018-09-22T14:16:11Z</time>
      </trkpt>
      <trkpt lat="47.20311" lon="5.95075">
        <ele>280.36</ele>
        <time>2018-09-22T14:16:12Z</time>
      </trkpt>
      <trkpt lat="47.20311" lon="5.95072">
        <ele>280.84</ele>
        <time>2018-09-22T14:16:13Z</time>
      </trkpt>
      <trkpt lat="47.2031" lon="5.9507">
        <ele>280.84</ele>
        <time>2018-09-22T14:16:14Z</time>
      </trkpt>
      <trkpt lat="47.20309" lon="5.95068">
        <ele>281.32</ele>
        <time>2018-09-22T14:16:15Z</time>
      </trkpt>
      <trkpt lat="47.20307" lon="5.95058">
        <ele>282.28</ele>
        <time>2018-09-22T14:16:19Z</time>
      </trkpt>
      <trkpt lat="47.20307" lon="5.95056">
        <ele>282.77</ele>
        <time>2018-09-22T14:16:20Z</time>
      </trkpt>
      <trkpt lat="47.20307" lon="5.95054">
        <ele>282.77</ele>
        <time>2018-09-22T14:16:21Z</time>
      </trkpt>
      <trkpt lat="47.20306" lon="5.95052">
        <ele>283.25</ele>
        <time>2018-09-22T14:16:22Z</time>
      </trkpt>
      <trkpt lat="47.20305" lon="5.9505">
        <ele>283.25</ele>
        <time>2018-09-22T14:16:23Z</time>
      </trkpt>
      <trkpt lat="47.20304" lon="5.95048">
        <ele>283.73</ele>
        <time>2018-09-22T14:16:24Z</time>
      </trkpt>
      <trkpt lat="47.20304" lon="5.95045">
        <ele>283.73</ele>
        <time>2018-09-22T14:16:25Z</time>
      </trkpt>
      <trkpt lat="47.20304" lon="5.95043">
        <ele>283.73</ele>
        <time>2018-09-22T14:16:26Z</time>
      </trkpt>
      <trkpt lat="47.20303" lon="5.95041">
        <ele>284.21</ele>
        <time>2018-09-22T14:16:27Z</time>
      </trkpt>
      <trkpt lat="47.20303" lon="5.95038">
        <ele>284.69</ele>
        <time>2018-09-22T14:16:28Z</time>
      </trkpt>
      <trkpt lat="47.20303" lon="5.95036">
        <ele>284.69</ele>
        <time>2018-09-22T14:16:29Z</time>
      </trkpt>
      <trkpt lat="47.20302" lon="5.95033">
        <ele>285.17</ele>
        <time>2018-09-22T14:16:30Z</time>
      </trkpt>
      <trkpt lat="47.20303" lon="5.95029">
        <ele>285.17</ele>
        <time>2018-09-22T14:16:31Z</time>
      </trkpt>
      <trkpt lat="47.20303" lon="5.95026">
        <ele>285.65</ele>
        <time>2018-09-22T14:16:32Z</time>
      </trkpt>
      <trkpt lat="47.20303" lon="5.95024">
        <ele>286.13</ele>
        <time>2018-09-22T14:16:33Z</time>
      </trkpt>
      <trkpt lat="47.20303" lon="5.95021">
        <ele>286.61</ele>
        <time>2018-09-22T14:16:34Z</time>
      </trkpt>
      <trkpt lat="47.20303" lon="5.95018">
        <ele>286.61</ele>
        <time>2018-09-22T14:16:35Z</time>
      </trkpt>
      <trkpt lat="47.20303" lon="5.95015">
        <ele>287.09</ele>
        <time>2018-09-22T14:16:36Z</time>
      </trkpt>
      <trkpt lat="47.20303" lon="5.95012">
        <ele>287.09</ele>
        <time>2018-09-22T14:16:37Z</time>
      </trkpt>
      <trkpt lat="47.20304" lon="5.95008">
        <ele>288.05</ele>
        <time>2018-09-22T14:16:39Z</time>
      </trkpt>
      <trkpt lat="47.20304" lon="5.95006">
        <ele>288.05</ele>
        <time>2018-09-22T14:16:40Z</time>
      </trkpt>
      <trkpt lat="47.20304" lon="5.95003">
        <ele>288.53</ele>
        <time>2018-09-22T14:16:41Z</time>
      </trkpt>
      <trkpt lat="47.20304" lon="5.95001">
        <ele>288.53</ele>
        <time>2018-09-22T14:16:42Z</time>
      </trkpt>
      <trkpt lat="47.20304" lon="5.94998">
        <ele>289.01</ele>
        <time>2018-09-22T14:16:43Z</time>
      </trkpt>
      <trkpt lat="47.20305" lon="5.94995">
        <ele>289.01</ele>
        <time>2018-09-22T14:16:44Z</time>
      </trkpt>
      <trkpt lat="47.20305" lon="5.94993">
        <ele>289.49</ele>
        <time>2018-09-22T14:16:45Z</time>
      </trkpt>
      <trkpt lat="47.20306" lon="5.94986">
        <ele>289.97</ele>
        <time>2018-09-22T14:16:48Z</time>
      </trkpt>
      <trkpt lat="47.20306" lon="5.94984">
        <ele>290.46</ele>
        <time>2018-09-22T14:16:49Z</time>
      </trkpt>
      <trkpt lat="47.20305" lon="5.94981">
        <ele>290.46</ele>
        <time>2018-09-22T14:16:50Z</time>
      </trkpt>
      <trkpt lat="47.20304" lon="5.94977">
        <ele>290.46</ele>
        <time>2018-09-22T14:16:51Z</time>
      </trkpt>
      <trkpt lat="47.20304" lon="5.94973">
        <ele>290.94</ele>
        <time>2018-09-22T14:16:52Z</time>
      </trkpt>
      <trkpt lat="47.20294" lon="5.94928">
        <ele>293.34</ele>
        <time>2018-09-22T14:17:05Z</time>
      </trkpt>
      <trkpt lat="47.20296" lon="5.94881">
        <ele>294.3</ele>
        <time>2018-09-22T14:17:16Z</time>
      </trkpt>
      <trkpt lat="47.20298" lon="5.94879">
        <ele>294.3</ele>
        <time>2018-09-22T14:17:17Z</time>
      </trkpt>
      <trkpt lat="47.20299" lon="5.94878">
        <ele>294.78</ele>
        <time>2018-09-22T14:17:18Z</time>
      </trkpt>
      <trkpt lat="47.20301" lon="5.94876">
        <ele>295.26</ele>
        <time>2018-09-22T14:17:19Z</time>
      </trkpt>
      <trkpt lat="47.20303" lon="5.94874">
        <ele>295.26</ele>
        <time>2018-09-22T14:17:20Z</time>
      </trkpt>
      <trkpt lat="47.20304" lon="5.94872">
        <ele>295.74</ele>
        <time>2018-09-22T14:17:21Z</time>
      </trkpt>
      <trkpt lat="47.2031" lon="5.9487">
        <ele>297.18</ele>
        <time>2018-09-22T14:17:25Z</time>
      </trkpt>
      <trkpt lat="47.2032" lon="5.94865">
        <ele>299.11</ele>
        <time>2018-09-22T14:17:31Z</time>
      </trkpt>
      <trkpt lat="47.20322" lon="5.94866">
        <ele>299.11</ele>
        <time>2018-09-22T14:17:32Z</time>
      </trkpt>
      <trkpt lat="47.20324" lon="5.94866">
        <ele>299.59</ele>
        <time>2018-09-22T14:17:33Z</time>
      </trkpt>
      <trkpt lat="47.20325" lon="5.94868">
        <ele>299.59</ele>
        <time>2018-09-22T14:17:34Z</time>
      </trkpt>
      <trkpt lat="47.20326" lon="5.94868">
        <ele>300.07</ele>
        <time>2018-09-22T14:17:35Z</time>
      </trkpt>
      <trkpt lat="47.20328" lon="5.94868">
        <ele>300.07</ele>
        <time>2018-09-22T14:17:36Z</time>
      </trkpt>
      <trkpt lat="47.20329" lon="5.94868">
        <ele>300.55</ele>
        <time>2018-09-22T14:17:37Z</time>
      </trkpt>
      <trkpt lat="47.20331" lon="5.94867">
        <ele>300.55</ele>
        <time>2018-09-22T14:17:38Z</time>
      </trkpt>
      <trkpt lat="47.20332" lon="5.94865">
        <ele>301.03</ele>
        <time>2018-09-22T14:17:39Z</time>
      </trkpt>
      <trkpt lat="47.20336" lon="5.94861">
        <ele>301.51</ele>
        <time>2018-09-22T14:17:42Z</time>
      </trkpt>
      <trkpt lat="47.20338" lon="5.94859">
        <ele>301.99</ele>
        <time>2018-09-22T14:17:43Z</time>
      </trkpt>
      <trkpt lat="47.2034" lon="5.94858">
        <ele>302.47</ele>
        <time>2018-09-22T14:17:44Z</time>
      </trkpt>
      <trkpt lat="47.20343" lon="5.94855">
        <ele>302.47</ele>
        <time>2018-09-22T14:17:46Z</time>
      </trkpt>
      <trkpt lat="47.20345" lon="5.94853">
        <ele>302.95</ele>
        <time>2018-09-22T14:17:47Z</time>
      </trkpt>
      <trkpt lat="47.20348" lon="5.94851">
        <ele>302.95</ele>
        <time>2018-09-22T14:17:48Z</time>
      </trkpt>
      <trkpt lat="47.20351" lon="5.94847">
        <ele>303.43</ele>
        <time>2018-09-22T14:17:49Z</time>
      </trkpt>
      <trkpt lat="47.20353" lon="5.94845">
        <ele>303.43</ele>
        <time>2018-09-22T14:17:50Z</time>
      </trkpt>
      <trkpt lat="47.20355" lon="5.94843">
        <ele>303.91</ele>
        <time>2018-09-22T14:17:51Z</time>
      </trkpt>
      <trkpt lat="47.20358" lon="5.94842">
        <ele>303.91</ele>
        <time>2018-09-22T14:17:52Z</time>
      </trkpt>
      <trkpt lat="47.20361" lon="5.94841">
        <ele>304.39</ele>
        <time>2018-09-22T14:17:53Z</time>
      </trkpt>
      <trkpt lat="47.20363" lon="5.9484">
        <ele>304.39</ele>
        <time>2018-09-22T14:17:54Z</time>
      </trkpt>
      <trkpt lat="47.20365" lon="5.94839">
        <ele>304.39</ele>
        <time>2018-09-22T14:17:55Z</time>
      </trkpt>
      <trkpt lat="47.20387" lon="5.9483">
        <ele>305.36</ele>
        <time>2018-09-22T14:18:04Z</time>
      </trkpt>
      <trkpt lat="47.20417" lon="5.94824">
        <ele>306.8</ele>
        <time>2018-09-22T14:18:15Z</time>
      </trkpt>
      <trkpt lat="47.20448" lon="5.94783">
        <ele>307.28</ele>
        <time>2018-09-22T14:18:26Z</time>
      </trkpt>
      <trkpt lat="47.20469" lon="5.94738">
        <ele>306.32</ele>
        <time>2018-09-22T14:18:35Z</time>
      </trkpt>
      <trkpt lat="47.20471" lon="5.94731">
        <ele>305.84</ele>
        <time>2018-09-22T14:18:36Z</time>
      </trkpt>
      <trkpt lat="47.20475" lon="5.94724">
        <ele>305.36</ele>
        <time>2018-09-22T14:18:37Z</time>
      </trkpt>
      <trkpt lat="47.20478" lon="5.94719">
        <ele>304.88</ele>
        <time>2018-09-22T14:18:38Z</time>
      </trkpt>
      <trkpt lat="47.20482" lon="5.94713">
        <ele>304.39</ele>
        <time>2018-09-22T14:18:39Z</time>
      </trkpt>
      <trkpt lat="47.20487" lon="5.94706">
        <ele>304.39</ele>
        <time>2018-09-22T14:18:40Z</time>
      </trkpt>
      <trkpt lat="47.20491" lon="5.94699">
        <ele>303.91</ele>
        <time>2018-09-22T14:18:41Z</time>
      </trkpt>
      <trkpt lat="47.20495" lon="5.94693">
        <ele>303.43</ele>
        <time>2018-09-22T14:18:42Z</time>
      </trkpt>
      <trkpt lat="47.205" lon="5.94688">
        <ele>302.95</ele>
        <time>2018-09-22T14:18:43Z</time>
      </trkpt>
      <trkpt lat="47.20506" lon="5.94684">
        <ele>302.95</ele>
        <time>2018-09-22T14:18:44Z</time>
      </trkpt>
      <trkpt lat="47.20517" lon="5.94673">
        <ele>301.99</ele>
        <time>2018-09-22T14:18:46Z</time>
      </trkpt>
      <trkpt lat="47.20552" lon="5.94626">
        <ele>299.59</ele>
        <time>2018-09-22T14:18:53Z</time>
      </trkpt>
      <trkpt lat="47.20556" lon="5.94619">
        <ele>299.11</ele>
        <time>2018-09-22T14:18:54Z</time>
      </trkpt>
      <trkpt lat="47.20559" lon="5.9461">
        <ele>298.15</ele>
        <time>2018-09-22T14:18:55Z</time>
      </trkpt>
      <trkpt lat="47.20568" lon="5.94558">
        <ele>295.26</ele>
        <time>2018-09-22T14:19:00Z</time>
      </trkpt>
      <trkpt lat="47.20572" lon="5.94532">
        <ele>293.34</ele>
        <time>2018-09-22T14:19:02Z</time>
      </trkpt>
      <trkpt lat="47.20575" lon="5.9452">
        <ele>292.38</ele>
        <time>2018-09-22T14:19:03Z</time>
      </trkpt>
      <trkpt lat="47.20579" lon="5.94508">
        <ele>291.9</ele>
        <time>2018-09-22T14:19:04Z</time>
      </trkpt>
      <trkpt lat="47.20585" lon="5.94496">
        <ele>291.42</ele>
        <time>2018-09-22T14:19:05Z</time>
      </trkpt>
      <trkpt lat="47.20591" lon="5.94487">
        <ele>290.46</ele>
        <time>2018-09-22T14:19:06Z</time>
      </trkpt>
      <trkpt lat="47.20599" lon="5.94481">
        <ele>289.49</ele>
        <time>2018-09-22T14:19:07Z</time>
      </trkpt>
      <trkpt lat="47.20608" lon="5.94476">
        <ele>289.01</ele>
        <time>2018-09-22T14:19:08Z</time>
      </trkpt>
      <trkpt lat="47.20616" lon="5.94473">
        <ele>288.53</ele>
        <time>2018-09-22T14:19:09Z</time>
      </trkpt>
      <trkpt lat="47.20625" lon="5.9447">
        <ele>288.05</ele>
        <time>2018-09-22T14:19:10Z</time>
      </trkpt>
      <trkpt lat="47.20632" lon="5.94464">
        <ele>287.09</ele>
        <time>2018-09-22T14:19:11Z</time>
      </trkpt>
      <trkpt lat="47.20639" lon="5.94458">
        <ele>286.61</ele>
        <time>2018-09-22T14:19:12Z</time>
      </trkpt>
      <trkpt lat="47.20646" lon="5.94452">
        <ele>286.61</ele>
        <time>2018-09-22T14:19:13Z</time>
      </trkpt>
      <trkpt lat="47.20656" lon="5.94439">
        <ele>285.17</ele>
        <time>2018-09-22T14:19:15Z</time>
      </trkpt>
      <trkpt lat="47.20659" lon="5.94433">
        <ele>285.17</ele>
        <time>2018-09-22T14:19:16Z</time>
      </trkpt>
      <trkpt lat="47.20664" lon="5.94418">
        <ele>284.21</ele>
        <time>2018-09-22T14:19:18Z</time>
      </trkpt>
      <trkpt lat="47.20665" lon="5.9441">
        <ele>283.25</ele>
        <time>2018-09-22T14:19:19Z</time>
      </trkpt>
      <trkpt lat="47.20665" lon="5.94401">
        <ele>282.77</ele>
        <time>2018-09-22T14:19:20Z</time>
      </trkpt>
      <trkpt lat="47.20664" lon="5.94391">
        <ele>282.28</ele>
        <time>2018-09-22T14:19:21Z</time>
      </trkpt>
      <trkpt lat="47.20663" lon="5.94381">
        <ele>281.32</ele>
        <time>2018-09-22T14:19:22Z</time>
      </trkpt>
      <trkpt lat="47.20659" lon="5.94348">
        <ele>279.88</ele>
        <time>2018-09-22T14:19:25Z</time>
      </trkpt>
      <trkpt lat="47.20658" lon="5.94336">
        <ele>279.4</ele>
        <time>2018-09-22T14:19:26Z</time>
      </trkpt>
      <trkpt lat="47.20658" lon="5.94326">
        <ele>279.4</ele>
        <time>2018-09-22T14:19:27Z</time>
      </trkpt>
      <trkpt lat="47.20661" lon="5.94306">
        <ele>278.92</ele>
        <time>2018-09-22T14:19:29Z</time>
      </trkpt>
      <trkpt lat="47.20666" lon="5.94276">
        <ele>278.92</ele>
        <time>2018-09-22T14:19:32Z</time>
      </trkpt>
      <trkpt lat="47.20667" lon="5.94266">
        <ele>278.92</ele>
        <time>2018-09-22T14:19:33Z</time>
      </trkpt>
      <trkpt lat="47.20669" lon="5.94258">
        <ele>279.88</ele>
        <time>2018-09-22T14:19:34Z</time>
      </trkpt>
      <trkpt lat="47.20671" lon="5.9425">
        <ele>280.36</ele>
        <time>2018-09-22T14:19:35Z</time>
      </trkpt>
      <trkpt lat="47.20672" lon="5.94243">
        <ele>280.84</ele>
        <time>2018-09-22T14:19:36Z</time>
      </trkpt>
      <trkpt lat="47.20674" lon="5.94237">
        <ele>281.32</ele>
        <time>2018-09-22T14:19:37Z</time>
      </trkpt>
      <trkpt lat="47.20676" lon="5.94231">
        <ele>281.32</ele>
        <time>2018-09-22T14:19:38Z</time>
      </trkpt>
      <trkpt lat="47.20679" lon="5.94226">
        <ele>281.32</ele>
        <time>2018-09-22T14:19:39Z</time>
      </trkpt>
      <trkpt lat="47.20691" lon="5.94214">
        <ele>280.36</ele>
        <time>2018-09-22T14:19:42Z</time>
      </trkpt>
      <trkpt lat="47.20696" lon="5.94211">
        <ele>280.36</ele>
        <time>2018-09-22T14:19:43Z</time>
      </trkpt>
      <trkpt lat="47.207" lon="5.94208">
        <ele>279.88</ele>
        <time>2018-09-22T14:19:44Z</time>
      </trkpt>
      <trkpt lat="47.2071" lon="5.94202">
        <ele>278.44</ele>
        <time>2018-09-22T14:19:46Z</time>
      </trkpt>
      <trkpt lat="47.20723" lon="5.94198">
        <ele>276.04</ele>
        <time>2018-09-22T14:19:48Z</time>
      </trkpt>
      <trkpt lat="47.2073" lon="5.94192">
        <ele>275.56</ele>
        <time>2018-09-22T14:19:49Z</time>
      </trkpt>
      <trkpt lat="47.20743" lon="5.94183">
        <ele>275.07</ele>
        <time>2018-09-22T14:19:51Z</time>
      </trkpt>
      <trkpt lat="47.20749" lon="5.94179">
        <ele>275.07</ele>
        <time>2018-09-22T14:19:52Z</time>
      </trkpt>
      <trkpt lat="47.20755" lon="5.94175">
        <ele>275.07</ele>
        <time>2018-09-22T14:19:53Z</time>
      </trkpt>
      <trkpt lat="47.2076" lon="5.94169">
        <ele>275.07</ele>
        <time>2018-09-22T14:19:54Z</time>
      </trkpt>
      <trkpt lat="47.20765" lon="5.94161">
        <ele>274.59</ele>
        <time>2018-09-22T14:19:55Z</time>
      </trkpt>
      <trkpt lat="47.2077" lon="5.94152">
        <ele>274.59</ele>
        <time>2018-09-22T14:19:56Z</time>
      </trkpt>
      <trkpt lat="47.20774" lon="5.94142">
        <ele>274.11</ele>
        <time>2018-09-22T14:19:57Z</time>
      </trkpt>
      <trkpt lat="47.20779" lon="5.94134">
        <ele>274.11</ele>
        <time>2018-09-22T14:19:58Z</time>
      </trkpt>
      <trkpt lat="47.20784" lon="5.94127">
        <ele>274.11</ele>
        <time>2018-09-22T14:19:59Z</time>
      </trkpt>
      <trkpt lat="47.2079" lon="5.9412">
        <ele>274.11</ele>
        <time>2018-09-22T14:20:00Z</time>
      </trkpt>
      <trkpt lat="47.20799" lon="5.94107">
        <ele>274.59</ele>
        <time>2018-09-22T14:20:02Z</time>
      </trkpt>
      <trkpt lat="47.20804" lon="5.94101">
        <ele>274.59</ele>
        <time>2018-09-22T14:20:03Z</time>
      </trkpt>
      <trkpt lat="47.20809" lon="5.94096">
        <ele>275.07</ele>
        <time>2018-09-22T14:20:04Z</time>
      </trkpt>
      <trkpt lat="47.20813" lon="5.94089">
        <ele>275.56</ele>
        <time>2018-09-22T14:20:05Z</time>
      </trkpt>
      <trkpt lat="47.20816" lon="5.94083">
        <ele>275.56</ele>
        <time>2018-09-22T14:20:06Z</time>
      </trkpt>
      <trkpt lat="47.20828" lon="5.94057">
        <ele>275.56</ele>
        <time>2018-09-22T14:20:10Z</time>
      </trkpt>
      <trkpt lat="47.20831" lon="5.9405">
        <ele>275.56</ele>
        <time>2018-09-22T14:20:11Z</time>
      </trkpt>
      <trkpt lat="47.20832" lon="5.94044">
        <ele>275.56</ele>
        <time>2018-09-22T14:20:12Z</time>
      </trkpt>
      <trkpt lat="47.20831" lon="5.94039">
        <ele>276.04</ele>
        <time>2018-09-22T14:20:13Z</time>
      </trkpt>
      <trkpt lat="47.20831" lon="5.94034">
        <ele>276.52</ele>
        <time>2018-09-22T14:20:14Z</time>
      </trkpt>
      <trkpt lat="47.2083" lon="5.94029">
        <ele>276.04</ele>
        <time>2018-09-22T14:20:15Z</time>
      </trkpt>
      <trkpt lat="47.20831" lon="5.94021">
        <ele>276.04</ele>
        <time>2018-09-22T14:20:17Z</time>
      </trkpt>
      <trkpt lat="47.20832" lon="5.94017">
        <ele>276.04</ele>
        <time>2018-09-22T14:20:18Z</time>
      </trkpt>
      <trkpt lat="47.20833" lon="5.94014">
        <ele>276.52</ele>
        <time>2018-09-22T14:20:19Z</time>
      </trkpt>
      <trkpt lat="47.20835" lon="5.94011">
        <ele>276.52</ele>
        <time>2018-09-22T14:20:20Z</time>
      </trkpt>
      <trkpt lat="47.20837" lon="5.94005">
        <ele>276.52</ele>
        <time>2018-09-22T14:20:21Z</time>
      </trkpt>
      <trkpt lat="47.20839" lon="5.94">
        <ele>277</ele>
        <time>2018-09-22T14:20:22Z</time>
      </trkpt>
      <trkpt lat="47.20841" lon="5.93997">
        <ele>277</ele>
        <time>2018-09-22T14:20:23Z</time>
      </trkpt>
      <trkpt lat="47.20855" lon="5.93985">
        <ele>277.96</ele>
        <time>2018-09-22T14:20:29Z</time>
      </trkpt>
      <trkpt lat="47.20862" lon="5.93974">
        <ele>277.96</ele>
        <time>2018-09-22T14:20:31Z</time>
      </trkpt>
      <trkpt lat="47.2087" lon="5.93953">
        <ele>277.96</ele>
        <time>2018-09-22T14:20:34Z</time>
      </trkpt>
      <trkpt lat="47.20871" lon="5.93946">
        <ele>277.48</ele>
        <time>2018-09-22T14:20:35Z</time>
      </trkpt>
      <trkpt lat="47.20873" lon="5.93939">
        <ele>277.48</ele>
        <time>2018-09-22T14:20:36Z</time>
      </trkpt>
      <trkpt lat="47.20891" lon="5.93877">
        <ele>276.04</ele>
        <time>2018-09-22T14:20:44Z</time>
      </trkpt>
      <trkpt lat="47.20894" lon="5.9387">
        <ele>276.04</ele>
        <time>2018-09-22T14:20:45Z</time>
      </trkpt>
      <trkpt lat="47.20897" lon="5.93864">
        <ele>276.04</ele>
        <time>2018-09-22T14:20:46Z</time>
      </trkpt>
      <trkpt lat="47.20901" lon="5.93858">
        <ele>276.04</ele>
        <time>2018-09-22T14:20:47Z</time>
      </trkpt>
      <trkpt lat="47.20904" lon="5.93852">
        <ele>276.04</ele>
        <time>2018-09-22T14:20:48Z</time>
      </trkpt>
      <trkpt lat="47.20907" lon="5.93846">
        <ele>276.52</ele>
        <time>2018-09-22T14:20:49Z</time>
      </trkpt>
      <trkpt lat="47.20909" lon="5.9384">
        <ele>277</ele>
        <time>2018-09-22T14:20:50Z</time>
      </trkpt>
      <trkpt lat="47.20914" lon="5.93829">
        <ele>277.48</ele>
        <time>2018-09-22T14:20:52Z</time>
      </trkpt>
      <trkpt lat="47.20914" lon="5.93821">
        <ele>277.96</ele>
        <time>2018-09-22T14:20:53Z</time>
      </trkpt>
      <trkpt lat="47.20915" lon="5.93814">
        <ele>277.96</ele>
        <time>2018-09-22T14:20:54Z</time>
      </trkpt>
      <trkpt lat="47.20928" lon="5.9377">
        <ele>278.92</ele>
        <time>2018-09-22T14:21:01Z</time>
      </trkpt>
      <trkpt lat="47.20933" lon="5.93755">
        <ele>278.44</ele>
        <time>2018-09-22T14:21:03Z</time>
      </trkpt>
      <trkpt lat="47.20936" lon="5.93748">
        <ele>278.44</ele>
        <time>2018-09-22T14:21:04Z</time>
      </trkpt>
      <trkpt lat="47.20939" lon="5.93742">
        <ele>278.44</ele>
        <time>2018-09-22T14:21:05Z</time>
      </trkpt>
      <trkpt lat="47.20942" lon="5.93737">
        <ele>278.44</ele>
        <time>2018-09-22T14:21:06Z</time>
      </trkpt>
      <trkpt lat="47.20946" lon="5.9373">
        <ele>278.44</ele>
        <time>2018-09-22T14:21:07Z</time>
      </trkpt>
      <trkpt lat="47.20949" lon="5.93724">
        <ele>278.44</ele>
        <time>2018-09-22T14:21:08Z</time>
      </trkpt>
      <trkpt lat="47.20952" lon="5.93717">
        <ele>277.96</ele>
        <time>2018-09-22T14:21:09Z</time>
      </trkpt>
      <trkpt lat="47.20962" lon="5.9369">
        <ele>277.96</ele>
        <time>2018-09-22T14:21:13Z</time>
      </trkpt>
      <trkpt lat="47.20964" lon="5.93683">
        <ele>277.96</ele>
        <time>2018-09-22T14:21:14Z</time>
      </trkpt>
      <trkpt lat="47.20966" lon="5.93669">
        <ele>278.44</ele>
        <time>2018-09-22T14:21:16Z</time>
      </trkpt>
      <trkpt lat="47.20972" lon="5.93615">
        <ele>280.36</ele>
        <time>2018-09-22T14:21:25Z</time>
      </trkpt>
      <trkpt lat="47.20973" lon="5.93611">
        <ele>280.36</ele>
        <time>2018-09-22T14:21:26Z</time>
      </trkpt>
      <trkpt lat="47.20978" lon="5.93589">
        <ele>281.32</ele>
        <time>2018-09-22T14:21:31Z</time>
      </trkpt>
      <trkpt lat="47.20982" lon="5.93571">
        <ele>283.25</ele>
        <time>2018-09-22T14:21:36Z</time>
      </trkpt>
      <trkpt lat="47.20984" lon="5.93567">
        <ele>283.73</ele>
        <time>2018-09-22T14:21:38Z</time>
      </trkpt>
      <trkpt lat="47.20985" lon="5.93564">
        <ele>283.73</ele>
        <time>2018-09-22T14:21:39Z</time>
      </trkpt>
      <trkpt lat="47.20993" lon="5.93525">
        <ele>285.65</ele>
        <time>2018-09-22T14:21:48Z</time>
      </trkpt>
      <trkpt lat="47.20997" lon="5.93512">
        <ele>286.61</ele>
        <time>2018-09-22T14:21:51Z</time>
      </trkpt>
      <trkpt lat="47.20997" lon="5.93508">
        <ele>286.61</ele>
        <time>2018-09-22T14:21:52Z</time>
      </trkpt>
      <trkpt lat="47.20998" lon="5.93503">
        <ele>286.61</ele>
        <time>2018-09-22T14:21:53Z</time>
      </trkpt>
      <trkpt lat="47.20999" lon="5.93498">
        <ele>286.61</ele>
        <time>2018-09-22T14:21:54Z</time>
      </trkpt>
      <trkpt lat="47.21001" lon="5.93494">
        <ele>287.09</ele>
        <time>2018-09-22T14:21:55Z</time>
      </trkpt>
      <trkpt lat="47.21004" lon="5.93491">
        <ele>287.09</ele>
        <time>2018-09-22T14:21:56Z</time>
      </trkpt>
      <trkpt lat="47.21006" lon="5.93488">
        <ele>287.57</ele>
        <time>2018-09-22T14:21:57Z</time>
      </trkpt>
      <trkpt lat="47.21009" lon="5.93486">
        <ele>287.57</ele>
        <time>2018-09-22T14:21:58Z</time>
      </trkpt>
      <trkpt lat="47.21018" lon="5.93464">
        <ele>289.01</ele>
        <time>2018-09-22T14:22:04Z</time>
      </trkpt>
      <trkpt lat="47.21035" lon="5.93425">
        <ele>290.46</ele>
        <time>2018-09-22T14:22:15Z</time>
      </trkpt>
      <trkpt lat="47.21044" lon="5.93394">
        <ele>292.86</ele>
        <time>2018-09-22T14:22:25Z</time>
      </trkpt>
      <trkpt lat="47.21046" lon="5.93389">
        <ele>293.34</ele>
        <time>2018-09-22T14:22:32Z</time>
      </trkpt>
      <trkpt lat="47.21056" lon="5.93385">
        <ele>294.3</ele>
        <time>2018-09-22T14:22:39Z</time>
      </trkpt>
      <trkpt lat="47.21058" lon="5.93384">
        <ele>294.78</ele>
        <time>2018-09-22T14:22:40Z</time>
      </trkpt>
      <trkpt lat="47.2106" lon="5.93383">
        <ele>294.78</ele>
        <time>2018-09-22T14:22:41Z</time>
      </trkpt>
      <trkpt lat="47.21061" lon="5.93381">
        <ele>294.78</ele>
        <time>2018-09-22T14:22:42Z</time>
      </trkpt>
      <trkpt lat="47.21063" lon="5.9338">
        <ele>295.26</ele>
        <time>2018-09-22T14:22:43Z</time>
      </trkpt>
      <trkpt lat="47.21065" lon="5.9338">
        <ele>295.26</ele>
        <time>2018-09-22T14:22:44Z</time>
      </trkpt>
      <trkpt lat="47.21066" lon="5.93379">
        <ele>295.26</ele>
        <time>2018-09-22T14:22:45Z</time>
      </trkpt>
      <trkpt lat="47.21068" lon="5.93378">
        <ele>295.74</ele>
        <time>2018-09-22T14:22:46Z</time>
      </trkpt>
      <trkpt lat="47.21086" lon="5.93356">
        <ele>298.15</ele>
        <time>2018-09-22T14:22:59Z</time>
      </trkpt>
      <trkpt lat="47.21101" lon="5.93318">
        <ele>298.15</ele>
        <time>2018-09-22T14:23:10Z</time>
      </trkpt>
      <trkpt lat="47.21109" lon="5.93242">
        <ele>297.18</ele>
        <time>2018-09-22T14:23:24Z</time>
      </trkpt>
      <trkpt lat="47.2111" lon="5.93235">
        <ele>297.18</ele>
        <time>2018-09-22T14:23:25Z</time>
      </trkpt>
      <trkpt lat="47.21118" lon="5.93162">
        <ele>295.74</ele>
        <time>2018-09-22T14:23:35Z</time>
      </trkpt>
      <trkpt lat="47.21122" lon="5.93156">
        <ele>295.26</ele>
        <time>2018-09-22T14:23:36Z</time>
      </trkpt>
      <trkpt lat="47.21128" lon="5.93153">
        <ele>295.26</ele>
        <time>2018-09-22T14:23:37Z</time>
      </trkpt>
      <trkpt lat="47.21134" lon="5.93152">
        <ele>294.78</ele>
        <time>2018-09-22T14:23:38Z</time>
      </trkpt>
      <trkpt lat="47.2114" lon="5.93153">
        <ele>294.78</ele>
        <time>2018-09-22T14:23:39Z</time>
      </trkpt>
      <trkpt lat="47.21146" lon="5.93155">
        <ele>294.78</ele>
        <time>2018-09-22T14:23:40Z</time>
      </trkpt>
      <trkpt lat="47.21151" lon="5.93156">
        <ele>294.78</ele>
        <time>2018-09-22T14:23:41Z</time>
      </trkpt>
      <trkpt lat="47.21203" lon="5.93168">
        <ele>291.42</ele>
        <time>2018-09-22T14:23:49Z</time>
      </trkpt>
      <trkpt lat="47.21237" lon="5.93172">
        <ele>287.57</ele>
        <time>2018-09-22T14:23:53Z</time>
      </trkpt>
      <trkpt lat="47.21246" lon="5.93172">
        <ele>287.09</ele>
        <time>2018-09-22T14:23:54Z</time>
      </trkpt>
      <trkpt lat="47.21255" lon="5.9317">
        <ele>286.61</ele>
        <time>2018-09-22T14:23:55Z</time>
      </trkpt>
      <trkpt lat="47.21273" lon="5.93165">
        <ele>286.61</ele>
        <time>2018-09-22T14:23:57Z</time>
      </trkpt>
      <trkpt lat="47.21319" lon="5.93153">
        <ele>289.01</ele>
        <time>2018-09-22T14:24:03Z</time>
      </trkpt>
      <trkpt lat="47.21325" lon="5.93152">
        <ele>289.49</ele>
        <time>2018-09-22T14:24:04Z</time>
      </trkpt>
      <trkpt lat="47.2133" lon="5.93151">
        <ele>289.97</ele>
        <time>2018-09-22T14:24:05Z</time>
      </trkpt>
      <trkpt lat="47.21335" lon="5.93152">
        <ele>290.46</ele>
        <time>2018-09-22T14:24:06Z</time>
      </trkpt>
      <trkpt lat="47.21339" lon="5.93153">
        <ele>290.94</ele>
        <time>2018-09-22T14:24:07Z</time>
      </trkpt>
      <trkpt lat="47.21369" lon="5.93172">
        <ele>293.82</ele>
        <time>2018-09-22T14:24:17Z</time>
      </trkpt>
      <trkpt lat="47.21399" lon="5.93193">
        <ele>296.7</ele>
        <time>2018-09-22T14:24:27Z</time>
      </trkpt>
      <trkpt lat="47.21434" lon="5.93213">
        <ele>299.59</ele>
        <time>2018-09-22T14:24:39Z</time>
      </trkpt>
      <trkpt lat="47.21472" lon="5.9324">
        <ele>301.51</ele>
        <time>2018-09-22T14:24:51Z</time>
      </trkpt>
      <trkpt lat="47.21507" lon="5.93258">
        <ele>302.95</ele>
        <time>2018-09-22T14:25:01Z</time>
      </trkpt>
      <trkpt lat="47.21532" lon="5.93277">
        <ele>304.88</ele>
        <time>2018-09-22T14:25:10Z</time>
      </trkpt>
      <trkpt lat="47.21551" lon="5.93289">
        <ele>305.84</ele>
        <time>2018-09-22T14:25:18Z</time>
      </trkpt>
      <trkpt lat="47.21552" lon="5.93292">
        <ele>305.84</ele>
        <time>2018-09-22T14:25:19Z</time>
      </trkpt>
      <trkpt lat="47.21553" lon="5.93295">
        <ele>305.84</ele>
        <time>2018-09-22T14:25:20Z</time>
      </trkpt>
      <trkpt lat="47.21553" lon="5.9331">
        <ele>307.28</ele>
        <time>2018-09-22T14:25:25Z</time>
      </trkpt>
      <trkpt lat="47.21553" lon="5.93313">
        <ele>307.28</ele>
        <time>2018-09-22T14:25:26Z</time>
      </trkpt>
      <trkpt lat="47.21551" lon="5.93317">
        <ele>307.28</ele>
        <time>2018-09-22T14:25:27Z</time>
      </trkpt>
      <trkpt lat="47.2155" lon="5.93321">
        <ele>307.76</ele>
        <time>2018-09-22T14:25:28Z</time>
      </trkpt>
      <trkpt lat="47.21548" lon="5.93325">
        <ele>307.76</ele>
        <time>2018-09-22T14:25:29Z</time>
      </trkpt>
      <trkpt lat="47.21547" lon="5.93328">
        <ele>308.24</ele>
        <time>2018-09-22T14:25:30Z</time>
      </trkpt>
      <trkpt lat="47.21547" lon="5.9333">
        <ele>308.24</ele>
        <time>2018-09-22T14:25:31Z</time>
      </trkpt>
      <trkpt lat="47.21547" lon="5.93333">
        <ele>308.24</ele>
        <time>2018-09-22T14:25:32Z</time>
      </trkpt>
      <trkpt lat="47.21546" lon="5.93337">
        <ele>308.72</ele>
        <time>2018-09-22T14:25:33Z</time>
      </trkpt>
      <trkpt lat="47.21545" lon="5.93341">
        <ele>308.72</ele>
        <time>2018-09-22T14:25:34Z</time>
      </trkpt>
      <trkpt lat="47.21542" lon="5.93367">
        <ele>310.16</ele>
        <time>2018-09-22T14:25:41Z</time>
      </trkpt>
      <trkpt lat="47.2154" lon="5.93371">
        <ele>310.16</ele>
        <time>2018-09-22T14:25:42Z</time>
      </trkpt>
      <trkpt lat="47.21539" lon="5.93375">
        <ele>310.64</ele>
        <time>2018-09-22T14:25:43Z</time>
      </trkpt>
      <trkpt lat="47.21538" lon="5.9338">
        <ele>310.64</ele>
        <time>2018-09-22T14:25:44Z</time>
      </trkpt>
      <trkpt lat="47.21537" lon="5.93384">
        <ele>310.64</ele>
        <time>2018-09-22T14:25:45Z</time>
      </trkpt>
      <trkpt lat="47.21536" lon="5.93387">
        <ele>311.12</ele>
        <time>2018-09-22T14:25:46Z</time>
      </trkpt>
      <trkpt lat="47.21535" lon="5.93389">
        <ele>311.12</ele>
        <time>2018-09-22T14:25:47Z</time>
      </trkpt>
      <trkpt lat="47.21534" lon="5.93392">
        <ele>311.6</ele>
        <time>2018-09-22T14:25:48Z</time>
      </trkpt>
      <trkpt lat="47.21533" lon="5.93395">
        <ele>311.6</ele>
        <time>2018-09-22T14:25:49Z</time>
      </trkpt>
      <trkpt lat="47.21532" lon="5.93399">
        <ele>311.6</ele>
        <time>2018-09-22T14:25:50Z</time>
      </trkpt>
      <trkpt lat="47.21532" lon="5.93404">
        <ele>311.6</ele>
        <time>2018-09-22T14:25:51Z</time>
      </trkpt>
      <trkpt lat="47.21532" lon="5.93409">
        <ele>311.6</ele>
        <time>2018-09-22T14:25:52Z</time>
      </trkpt>
      <trkpt lat="47.21531" lon="5.93423">
        <ele>312.57</ele>
        <time>2018-09-22T14:25:56Z</time>
      </trkpt>
      <trkpt lat="47.21529" lon="5.93426">
        <ele>312.57</ele>
        <time>2018-09-22T14:25:57Z</time>
      </trkpt>
      <trkpt lat="47.21528" lon="5.93428">
        <ele>313.05</ele>
        <time>2018-09-22T14:25:58Z</time>
      </trkpt>
      <trkpt lat="47.2152" lon="5.93461">
        <ele>314.01</ele>
        <time>2018-09-22T14:26:08Z</time>
      </trkpt>
      <trkpt lat="47.21519" lon="5.93465">
        <ele>314.49</ele>
        <time>2018-09-22T14:26:09Z</time>
      </trkpt>
      <trkpt lat="47.21518" lon="5.9347">
        <ele>314.49</ele>
        <time>2018-09-22T14:26:10Z</time>
      </trkpt>
      <trkpt lat="47.21517" lon="5.93474">
        <ele>314.49</ele>
        <time>2018-09-22T14:26:11Z</time>
      </trkpt>
      <trkpt lat="47.21515" lon="5.93478">
        <ele>314.49</ele>
        <time>2018-09-22T14:26:12Z</time>
      </trkpt>
      <trkpt lat="47.21514" lon="5.93482">
        <ele>314.49</ele>
        <time>2018-09-22T14:26:13Z</time>
      </trkpt>
      <trkpt lat="47.21512" lon="5.93486">
        <ele>314.97</ele>
        <time>2018-09-22T14:26:14Z</time>
      </trkpt>
      <trkpt lat="47.2151" lon="5.9349">
        <ele>314.97</ele>
        <time>2018-09-22T14:26:15Z</time>
      </trkpt>
      <trkpt lat="47.2151" lon="5.93494">
        <ele>314.97</ele>
        <time>2018-09-22T14:26:16Z</time>
      </trkpt>
      <trkpt lat="47.21511" lon="5.93498">
        <ele>314.97</ele>
        <time>2018-09-22T14:26:17Z</time>
      </trkpt>
      <trkpt lat="47.21512" lon="5.93509">
        <ele>314.97</ele>
        <time>2018-09-22T14:26:21Z</time>
      </trkpt>
      <trkpt lat="47.21513" lon="5.93511">
        <ele>315.45</ele>
        <time>2018-09-22T14:26:22Z</time>
      </trkpt>
      <trkpt lat="47.21531" lon="5.93563">
        <ele>314.97</ele>
        <time>2018-09-22T14:26:32Z</time>
      </trkpt>
      <trkpt lat="47.21534" lon="5.93567">
        <ele>314.49</ele>
        <time>2018-09-22T14:26:33Z</time>
      </trkpt>
      <trkpt lat="47.21537" lon="5.93567">
        <ele>314.01</ele>
        <time>2018-09-22T14:26:34Z</time>
      </trkpt>
      <trkpt lat="47.21543" lon="5.93567">
        <ele>312.57</ele>
        <time>2018-09-22T14:26:36Z</time>
      </trkpt>
      <trkpt lat="47.21557" lon="5.93561">
        <ele>312.09</ele>
        <time>2018-09-22T14:26:39Z</time>
      </trkpt>
      <trkpt lat="47.21564" lon="5.9356">
        <ele>311.6</ele>
        <time>2018-09-22T14:26:40Z</time>
      </trkpt>
      <trkpt lat="47.2157" lon="5.9356">
        <ele>311.6</ele>
        <time>2018-09-22T14:26:41Z</time>
      </trkpt>
      <trkpt lat="47.21576" lon="5.93561">
        <ele>311.6</ele>
        <time>2018-09-22T14:26:42Z</time>
      </trkpt>
      <trkpt lat="47.21583" lon="5.93563">
        <ele>310.64</ele>
        <time>2018-09-22T14:26:43Z</time>
      </trkpt>
      <trkpt lat="47.21589" lon="5.93565">
        <ele>310.64</ele>
        <time>2018-09-22T14:26:44Z</time>
      </trkpt>
      <trkpt lat="47.21596" lon="5.93569">
        <ele>310.16</ele>
        <time>2018-09-22T14:26:45Z</time>
      </trkpt>
      <trkpt lat="47.21602" lon="5.93573">
        <ele>309.68</ele>
        <time>2018-09-22T14:26:46Z</time>
      </trkpt>
      <trkpt lat="47.21609" lon="5.93579">
        <ele>309.2</ele>
        <time>2018-09-22T14:26:47Z</time>
      </trkpt>
      <trkpt lat="47.21614" lon="5.93586">
        <ele>308.72</ele>
        <time>2018-09-22T14:26:48Z</time>
      </trkpt>
      <trkpt lat="47.2162" lon="5.93593">
        <ele>308.24</ele>
        <time>2018-09-22T14:26:49Z</time>
      </trkpt>
      <trkpt lat="47.21633" lon="5.93608">
        <ele>307.28</ele>
        <time>2018-09-22T14:26:51Z</time>
      </trkpt>
      <trkpt lat="47.21639" lon="5.93616">
        <ele>306.32</ele>
        <time>2018-09-22T14:26:52Z</time>
      </trkpt>
      <trkpt lat="47.21645" lon="5.93623">
        <ele>305.84</ele>
        <time>2018-09-22T14:26:53Z</time>
      </trkpt>
      <trkpt lat="47.21649" lon="5.93631">
        <ele>305.36</ele>
        <time>2018-09-22T14:26:54Z</time>
      </trkpt>
      <trkpt lat="47.21655" lon="5.9364">
        <ele>304.39</ele>
        <time>2018-09-22T14:26:55Z</time>
      </trkpt>
      <trkpt lat="47.2166" lon="5.93648">
        <ele>303.91</ele>
        <time>2018-09-22T14:26:56Z</time>
      </trkpt>
      <trkpt lat="47.21679" lon="5.93671">
        <ele>301.51</ele>
        <time>2018-09-22T14:26:59Z</time>
      </trkpt>
      <trkpt lat="47.21687" lon="5.93676">
        <ele>300.55</ele>
        <time>2018-09-22T14:27:00Z</time>
      </trkpt>
      <trkpt lat="47.21695" lon="5.93681">
        <ele>301.03</ele>
        <time>2018-09-22T14:27:01Z</time>
      </trkpt>
      <trkpt lat="47.21745" lon="5.93696">
        <ele>297.67</ele>
        <time>2018-09-22T14:27:07Z</time>
      </trkpt>
      <trkpt lat="47.21753" lon="5.93697">
        <ele>297.67</ele>
        <time>2018-09-22T14:27:08Z</time>
      </trkpt>
      <trkpt lat="47.2177" lon="5.93702">
        <ele>296.22</ele>
        <time>2018-09-22T14:27:10Z</time>
      </trkpt>
      <trkpt lat="47.21778" lon="5.93709">
        <ele>296.22</ele>
        <time>2018-09-22T14:27:11Z</time>
      </trkpt>
      <trkpt lat="47.21783" lon="5.93717">
        <ele>295.26</ele>
        <time>2018-09-22T14:27:12Z</time>
      </trkpt>
      <trkpt lat="47.21785" lon="5.93726">
        <ele>294.78</ele>
        <time>2018-09-22T14:27:13Z</time>
      </trkpt>
      <trkpt lat="47.21786" lon="5.93736">
        <ele>294.78</ele>
        <time>2018-09-22T14:27:14Z</time>
      </trkpt>
      <trkpt lat="47.21785" lon="5.93746">
        <ele>294.3</ele>
        <time>2018-09-22T14:27:15Z</time>
      </trkpt>
      <trkpt lat="47.21782" lon="5.93755">
        <ele>293.82</ele>
        <time>2018-09-22T14:27:16Z</time>
      </trkpt>
      <trkpt lat="47.2178" lon="5.93764">
        <ele>293.34</ele>
        <time>2018-09-22T14:27:17Z</time>
      </trkpt>
      <trkpt lat="47.21778" lon="5.93773">
        <ele>292.38</ele>
        <time>2018-09-22T14:27:18Z</time>
      </trkpt>
      <trkpt lat="47.21776" lon="5.93781">
        <ele>291.9</ele>
        <time>2018-09-22T14:27:19Z</time>
      </trkpt>
      <trkpt lat="47.21762" lon="5.9383">
        <ele>288.53</ele>
        <time>2018-09-22T14:27:24Z</time>
      </trkpt>
      <trkpt lat="47.21743" lon="5.93903">
        <ele>285.65</ele>
        <time>2018-09-22T14:27:31Z</time>
      </trkpt>
      <trkpt lat="47.21729" lon="5.93959">
        <ele>282.77</ele>
        <time>2018-09-22T14:27:36Z</time>
      </trkpt>
      <trkpt lat="47.21726" lon="5.93967">
        <ele>283.25</ele>
        <time>2018-09-22T14:27:37Z</time>
      </trkpt>
      <trkpt lat="47.21724" lon="5.93972">
        <ele>283.25</ele>
        <time>2018-09-22T14:27:38Z</time>
      </trkpt>
      <trkpt lat="47.21724" lon="5.93977">
        <ele>283.73</ele>
        <time>2018-09-22T14:27:39Z</time>
      </trkpt>
      <trkpt lat="47.21723" lon="5.93983">
        <ele>283.73</ele>
        <time>2018-09-22T14:27:40Z</time>
      </trkpt>
      <trkpt lat="47.21723" lon="5.93991">
        <ele>283.73</ele>
        <time>2018-09-22T14:27:41Z</time>
      </trkpt>
      <trkpt lat="47.21725" lon="5.93996">
        <ele>283.73</ele>
        <time>2018-09-22T14:27:42Z</time>
      </trkpt>
      <trkpt lat="47.21728" lon="5.94001">
        <ele>283.73</ele>
        <time>2018-09-22T14:27:43Z</time>
      </trkpt>
      <trkpt lat="47.21732" lon="5.94005">
        <ele>283.73</ele>
        <time>2018-09-22T14:27:44Z</time>
      </trkpt>
      <trkpt lat="47.21736" lon="5.94007">
        <ele>283.73</ele>
        <time>2018-09-22T14:27:45Z</time>
      </trkpt>
      <trkpt lat="47.2174" lon="5.9401">
        <ele>283.73</ele>
        <time>2018-09-22T14:27:46Z</time>
      </trkpt>
      <trkpt lat="47.21795" lon="5.94066">
        <ele>284.69</ele>
        <time>2018-09-22T14:28:00Z</time>
      </trkpt>
      <trkpt lat="47.21839" lon="5.94125">
        <ele>285.17</ele>
        <time>2018-09-22T14:28:11Z</time>
      </trkpt>
      <trkpt lat="47.21855" lon="5.94136">
        <ele>285.17</ele>
        <time>2018-09-22T14:28:14Z</time>
      </trkpt>
      <trkpt lat="47.21925" lon="5.94179">
        <ele>285.65</ele>
        <time>2018-09-22T14:28:28Z</time>
      </trkpt>
      <trkpt lat="47.21934" lon="5.9417">
        <ele>285.65</ele>
        <time>2018-09-22T14:28:33Z</time>
      </trkpt>
      <trkpt lat="47.21937" lon="5.94165">
        <ele>285.17</ele>
        <time>2018-09-22T14:28:34Z</time>
      </trkpt>
      <trkpt lat="47.21939" lon="5.94159">
        <ele>285.17</ele>
        <time>2018-09-22T14:28:35Z</time>
      </trkpt>
      <trkpt lat="47.21943" lon="5.9414">
        <ele>285.17</ele>
        <time>2018-09-22T14:28:38Z</time>
      </trkpt>
      <trkpt lat="47.21947" lon="5.94127">
        <ele>285.17</ele>
        <time>2018-09-22T14:28:40Z</time>
      </trkpt>
      <trkpt lat="47.21949" lon="5.94121">
        <ele>285.65</ele>
        <time>2018-09-22T14:28:41Z</time>
      </trkpt>
      <trkpt lat="47.21953" lon="5.94116">
        <ele>285.65</ele>
        <time>2018-09-22T14:28:42Z</time>
      </trkpt>
      <trkpt lat="47.21957" lon="5.94112">
        <ele>285.65</ele>
        <time>2018-09-22T14:28:43Z</time>
      </trkpt>
      <trkpt lat="47.21961" lon="5.94111">
        <ele>285.65</ele>
        <time>2018-09-22T14:28:44Z</time>
      </trkpt>
      <trkpt lat="47.21965" lon="5.9411">
        <ele>286.13</ele>
        <time>2018-09-22T14:28:45Z</time>
      </trkpt>
      <trkpt lat="47.21969" lon="5.94109">
        <ele>286.13</ele>
        <time>2018-09-22T14:28:46Z</time>
      </trkpt>
      <trkpt lat="47.21972" lon="5.9411">
        <ele>286.13</ele>
        <time>2018-09-22T14:28:47Z</time>
      </trkpt>
      <trkpt lat="47.21976" lon="5.94112">
        <ele>286.61</ele>
        <time>2018-09-22T14:28:48Z</time>
      </trkpt>
      <trkpt lat="47.2198" lon="5.94115">
        <ele>286.61</ele>
        <time>2018-09-22T14:28:49Z</time>
      </trkpt>
      <trkpt lat="47.21984" lon="5.94118">
        <ele>286.61</ele>
        <time>2018-09-22T14:28:50Z</time>
      </trkpt>
      <trkpt lat="47.21988" lon="5.94121">
        <ele>286.61</ele>
        <time>2018-09-22T14:28:51Z</time>
      </trkpt>
      <trkpt lat="47.21999" lon="5.94128">
        <ele>286.13</ele>
        <time>2018-09-22T14:28:54Z</time>
      </trkpt>
      <trkpt lat="47.22011" lon="5.94141">
        <ele>285.65</ele>
        <time>2018-09-22T14:28:57Z</time>
      </trkpt>
      <trkpt lat="47.22015" lon="5.94146">
        <ele>285.65</ele>
        <time>2018-09-22T14:28:58Z</time>
      </trkpt>
      <trkpt lat="47.22041" lon="5.94181">
        <ele>285.17</ele>
        <time>2018-09-22T14:29:05Z</time>
      </trkpt>
      <trkpt lat="47.22045" lon="5.94186">
        <ele>285.17</ele>
        <time>2018-09-22T14:29:06Z</time>
      </trkpt>
      <trkpt lat="47.22062" lon="5.94204">
        <ele>283.25</ele>
        <time>2018-09-22T14:29:10Z</time>
      </trkpt>
      <trkpt lat="47.2207" lon="5.94216">
        <ele>280.84</ele>
        <time>2018-09-22T14:29:12Z</time>
      </trkpt>
      <trkpt lat="47.22074" lon="5.94223">
        <ele>278.44</ele>
        <time>2018-09-22T14:29:13Z</time>
      </trkpt>
      <trkpt lat="47.22079" lon="5.94229">
        <ele>276.04</ele>
        <time>2018-09-22T14:29:14Z</time>
      </trkpt>
      <trkpt lat="47.22085" lon="5.94236">
        <ele>275.56</ele>
        <time>2018-09-22T14:29:15Z</time>
      </trkpt>
      <trkpt lat="47.22091" lon="5.94243">
        <ele>276.04</ele>
        <time>2018-09-22T14:29:16Z</time>
      </trkpt>
      <trkpt lat="47.22102" lon="5.94254">
        <ele>277.48</ele>
        <time>2018-09-22T14:29:18Z</time>
      </trkpt>
      <trkpt lat="47.22107" lon="5.94259">
        <ele>277.96</ele>
        <time>2018-09-22T14:29:19Z</time>
      </trkpt>
      <trkpt lat="47.22112" lon="5.94264">
        <ele>278.44</ele>
        <time>2018-09-22T14:29:20Z</time>
      </trkpt>
      <trkpt lat="47.2212" lon="5.9427">
        <ele>279.88</ele>
        <time>2018-09-22T14:29:22Z</time>
      </trkpt>
      <trkpt lat="47.22147" lon="5.94293">
        <ele>283.25</ele>
        <time>2018-09-22T14:29:30Z</time>
      </trkpt>
      <trkpt lat="47.22176" lon="5.94318">
        <ele>285.17</ele>
        <time>2018-09-22T14:29:39Z</time>
      </trkpt>
      <trkpt lat="47.22185" lon="5.94329">
        <ele>285.65</ele>
        <time>2018-09-22T14:29:42Z</time>
      </trkpt>
      <trkpt lat="47.22189" lon="5.94333">
        <ele>285.65</ele>
        <time>2018-09-22T14:29:43Z</time>
      </trkpt>
      <trkpt lat="47.22192" lon="5.94337">
        <ele>286.13</ele>
        <time>2018-09-22T14:29:44Z</time>
      </trkpt>
      <trkpt lat="47.22194" lon="5.9434">
        <ele>286.13</ele>
        <time>2018-09-22T14:29:45Z</time>
      </trkpt>
      <trkpt lat="47.22197" lon="5.94344">
        <ele>286.13</ele>
        <time>2018-09-22T14:29:46Z</time>
      </trkpt>
      <trkpt lat="47.22199" lon="5.94349">
        <ele>286.61</ele>
        <time>2018-09-22T14:29:47Z</time>
      </trkpt>
      <trkpt lat="47.22202" lon="5.94352">
        <ele>286.61</ele>
        <time>2018-09-22T14:29:48Z</time>
      </trkpt>
      <trkpt lat="47.22205" lon="5.94356">
        <ele>287.09</ele>
        <time>2018-09-22T14:29:49Z</time>
      </trkpt>
      <trkpt lat="47.22208" lon="5.9436">
        <ele>287.09</ele>
        <time>2018-09-22T14:29:50Z</time>
      </trkpt>
      <trkpt lat="47.22212" lon="5.94364">
        <ele>287.57</ele>
        <time>2018-09-22T14:29:51Z</time>
      </trkpt>
      <trkpt lat="47.22215" lon="5.94368">
        <ele>288.05</ele>
        <time>2018-09-22T14:29:52Z</time>
      </trkpt>
      <trkpt lat="47.22218" lon="5.94372">
        <ele>288.05</ele>
        <time>2018-09-22T14:29:53Z</time>
      </trkpt>
      <trkpt lat="47.2222" lon="5.94376">
        <ele>288.05</ele>
        <time>2018-09-22T14:29:54Z</time>
      </trkpt>
      <trkpt lat="47.22223" lon="5.9438">
        <ele>288.05</ele>
        <time>2018-09-22T14:29:55Z</time>
      </trkpt>
      <trkpt lat="47.22226" lon="5.94383">
        <ele>288.05</ele>
        <time>2018-09-22T14:29:56Z</time>
      </trkpt>
      <trkpt lat="47.22265" lon="5.94431">
        <ele>289.49</ele>
        <time>2018-09-22T14:30:08Z</time>
      </trkpt>
      <trkpt lat="47.22269" lon="5.94434">
        <ele>289.49</ele>
        <time>2018-09-22T14:30:09Z</time>
      </trkpt>
      <trkpt lat="47.22273" lon="5.94436">
        <ele>289.49</ele>
        <time>2018-09-22T14:30:10Z</time>
      </trkpt>
      <trkpt lat="47.22277" lon="5.94438">
        <ele>289.49</ele>
        <time>2018-09-22T14:30:11Z</time>
      </trkpt>
      <trkpt lat="47.22281" lon="5.94441">
        <ele>289.49</ele>
        <time>2018-09-22T14:30:12Z</time>
      </trkpt>
      <trkpt lat="47.22285" lon="5.94444">
        <ele>289.01</ele>
        <time>2018-09-22T14:30:13Z</time>
      </trkpt>
      <trkpt lat="47.2229" lon="5.94446">
        <ele>289.01</ele>
        <time>2018-09-22T14:30:14Z</time>
      </trkpt>
      <trkpt lat="47.22294" lon="5.94447">
        <ele>288.53</ele>
        <time>2018-09-22T14:30:15Z</time>
      </trkpt>
      <trkpt lat="47.22307" lon="5.9445">
        <ele>288.05</ele>
        <time>2018-09-22T14:30:18Z</time>
      </trkpt>
      <trkpt lat="47.22311" lon="5.94449">
        <ele>287.57</ele>
        <time>2018-09-22T14:30:19Z</time>
      </trkpt>
      <trkpt lat="47.22316" lon="5.9445">
        <ele>287.57</ele>
        <time>2018-09-22T14:30:20Z</time>
      </trkpt>
      <trkpt lat="47.22321" lon="5.94452">
        <ele>287.57</ele>
        <time>2018-09-22T14:30:21Z</time>
      </trkpt>
      <trkpt lat="47.22325" lon="5.94454">
        <ele>287.57</ele>
        <time>2018-09-22T14:30:22Z</time>
      </trkpt>
      <trkpt lat="47.22331" lon="5.94455">
        <ele>287.57</ele>
        <time>2018-09-22T14:30:23Z</time>
      </trkpt>
      <trkpt lat="47.22342" lon="5.94458">
        <ele>287.57</ele>
        <time>2018-09-22T14:30:25Z</time>
      </trkpt>
      <trkpt lat="47.22363" lon="5.94465">
        <ele>287.57</ele>
        <time>2018-09-22T14:30:28Z</time>
      </trkpt>
      <trkpt lat="47.224" lon="5.94466">
        <ele>288.05</ele>
        <time>2018-09-22T14:30:34Z</time>
      </trkpt>
      <trkpt lat="47.22405" lon="5.94469">
        <ele>288.05</ele>
        <time>2018-09-22T14:30:35Z</time>
      </trkpt>
      <trkpt lat="47.22408" lon="5.94471">
        <ele>288.05</ele>
        <time>2018-09-22T14:30:36Z</time>
      </trkpt>
      <trkpt lat="47.22412" lon="5.94474">
        <ele>288.05</ele>
        <time>2018-09-22T14:30:37Z</time>
      </trkpt>
      <trkpt lat="47.22416" lon="5.94476">
        <ele>287.57</ele>
        <time>2018-09-22T14:30:38Z</time>
      </trkpt>
      <trkpt lat="47.22433" lon="5.94481">
        <ele>289.01</ele>
        <time>2018-09-22T14:30:42Z</time>
      </trkpt>
      <trkpt lat="47.22438" lon="5.9448">
        <ele>289.49</ele>
        <time>2018-09-22T14:30:43Z</time>
      </trkpt>
      <trkpt lat="47.2246" lon="5.94471">
        <ele>290.46</ele>
        <time>2018-09-22T14:30:48Z</time>
      </trkpt>
      <trkpt lat="47.22496" lon="5.94452">
        <ele>291.42</ele>
        <time>2018-09-22T14:30:57Z</time>
      </trkpt>
      <trkpt lat="47.22504" lon="5.94441">
        <ele>290.94</ele>
        <time>2018-09-22T14:30:59Z</time>
      </trkpt>
      <trkpt lat="47.22507" lon="5.94434">
        <ele>290.94</ele>
        <time>2018-09-22T14:31:00Z</time>
      </trkpt>
      <trkpt lat="47.2251" lon="5.94427">
        <ele>290.94</ele>
        <time>2018-09-22T14:31:01Z</time>
      </trkpt>
      <trkpt lat="47.22513" lon="5.94419">
        <ele>290.94</ele>
        <time>2018-09-22T14:31:02Z</time>
      </trkpt>
      <trkpt lat="47.22516" lon="5.94411">
        <ele>290.94</ele>
        <time>2018-09-22T14:31:03Z</time>
      </trkpt>
      <trkpt lat="47.22561" lon="5.94312">
        <ele>290.46</ele>
        <time>2018-09-22T14:31:16Z</time>
      </trkpt>
      <trkpt lat="47.22615" lon="5.94212">
        <ele>289.97</ele>
        <time>2018-09-22T14:31:29Z</time>
      </trkpt>
      <trkpt lat="47.22696" lon="5.94139">
        <ele>289.01</ele>
        <time>2018-09-22T14:31:43Z</time>
      </trkpt>
      <trkpt lat="47.22796" lon="5.94108">
        <ele>289.01</ele>
        <time>2018-09-22T14:31:58Z</time>
      </trkpt>
      <trkpt lat="47.22858" lon="5.94091">
        <ele>285.65</ele>
        <time>2018-09-22T14:32:06Z</time>
      </trkpt>
      <trkpt lat="47.22883" lon="5.94079">
        <ele>283.73</ele>
        <time>2018-09-22T14:32:09Z</time>
      </trkpt>
      <trkpt lat="47.22924" lon="5.9405">
        <ele>281.32</ele>
        <time>2018-09-22T14:32:14Z</time>
      </trkpt>
      <trkpt lat="47.2294" lon="5.94035">
        <ele>279.88</ele>
        <time>2018-09-22T14:32:16Z</time>
      </trkpt>
      <trkpt lat="47.22949" lon="5.94029">
        <ele>278.44</ele>
        <time>2018-09-22T14:32:17Z</time>
      </trkpt>
      <trkpt lat="47.22958" lon="5.94024">
        <ele>277.96</ele>
        <time>2018-09-22T14:32:18Z</time>
      </trkpt>
      <trkpt lat="47.22968" lon="5.94022">
        <ele>277</ele>
        <time>2018-09-22T14:32:19Z</time>
      </trkpt>
      <trkpt lat="47.22978" lon="5.94023">
        <ele>277</ele>
        <time>2018-09-22T14:32:20Z</time>
      </trkpt>
      <trkpt lat="47.22987" lon="5.94028">
        <ele>277</ele>
        <time>2018-09-22T14:32:21Z</time>
      </trkpt>
      <trkpt lat="47.22996" lon="5.94034">
        <ele>277</ele>
        <time>2018-09-22T14:32:22Z</time>
      </trkpt>
      <trkpt lat="47.23004" lon="5.9404">
        <ele>277</ele>
        <time>2018-09-22T14:32:23Z</time>
      </trkpt>
      <trkpt lat="47.23017" lon="5.9405">
        <ele>277.48</ele>
        <time>2018-09-22T14:32:25Z</time>
      </trkpt>
      <trkpt lat="47.23023" lon="5.94051">
        <ele>277.48</ele>
        <time>2018-09-22T14:32:26Z</time>
      </trkpt>
      <trkpt lat="47.23029" lon="5.94048">
        <ele>277</ele>
        <time>2018-09-22T14:32:27Z</time>
      </trkpt>
      <trkpt lat="47.23033" lon="5.94041">
        <ele>276.52</ele>
        <time>2018-09-22T14:32:28Z</time>
      </trkpt>
      <trkpt lat="47.23036" lon="5.94033">
        <ele>276.52</ele>
        <time>2018-09-22T14:32:29Z</time>
      </trkpt>
      <trkpt lat="47.23038" lon="5.94024">
        <ele>276.04</ele>
        <time>2018-09-22T14:32:30Z</time>
      </trkpt>
      <trkpt lat="47.23042" lon="5.94016">
        <ele>275.56</ele>
        <time>2018-09-22T14:32:31Z</time>
      </trkpt>
      <trkpt lat="47.23047" lon="5.94011">
        <ele>275.56</ele>
        <time>2018-09-22T14:32:32Z</time>
      </trkpt>
      <trkpt lat="47.23054" lon="5.94009">
        <ele>275.56</ele>
        <time>2018-09-22T14:32:33Z</time>
      </trkpt>
      <trkpt lat="47.23061" lon="5.94009">
        <ele>275.56</ele>
        <time>2018-09-22T14:32:34Z</time>
      </trkpt>
      <trkpt lat="47.23068" lon="5.94009">
        <ele>275.07</ele>
        <time>2018-09-22T14:32:35Z</time>
      </trkpt>
      <trkpt lat="47.23088" lon="5.94009">
        <ele>274.11</ele>
        <time>2018-09-22T14:32:38Z</time>
      </trkpt>
      <trkpt lat="47.23093" lon="5.94014">
        <ele>274.59</ele>
        <time>2018-09-22T14:32:39Z</time>
      </trkpt>
      <trkpt lat="47.23096" lon="5.94021">
        <ele>274.59</ele>
        <time>2018-09-22T14:32:40Z</time>
      </trkpt>
      <trkpt lat="47.23096" lon="5.94028">
        <ele>274.59</ele>
        <time>2018-09-22T14:32:41Z</time>
      </trkpt>
      <trkpt lat="47.23095" lon="5.94034">
        <ele>275.07</ele>
        <time>2018-09-22T14:32:42Z</time>
      </trkpt>
      <trkpt lat="47.23093" lon="5.94039">
        <ele>275.07</ele>
        <time>2018-09-22T14:32:43Z</time>
      </trkpt>
      <trkpt lat="47.23091" lon="5.94045">
        <ele>275.56</ele>
        <time>2018-09-22T14:32:44Z</time>
      </trkpt>
      <trkpt lat="47.23089" lon="5.94051">
        <ele>275.56</ele>
        <time>2018-09-22T14:32:45Z</time>
      </trkpt>
      <trkpt lat="47.23088" lon="5.94056">
        <ele>275.56</ele>
        <time>2018-09-22T14:32:46Z</time>
      </trkpt>
      <trkpt lat="47.23087" lon="5.94062">
        <ele>275.56</ele>
        <time>2018-09-22T14:32:47Z</time>
      </trkpt>
      <trkpt lat="47.23071" lon="5.94138">
        <ele>276.04</ele>
        <time>2018-09-22T14:33:00Z</time>
      </trkpt>
      <trkpt lat="47.2307" lon="5.94144">
        <ele>276.04</ele>
        <time>2018-09-22T14:33:01Z</time>
      </trkpt>
      <trkpt lat="47.23069" lon="5.9415">
        <ele>276.04</ele>
        <time>2018-09-22T14:33:02Z</time>
      </trkpt>
      <trkpt lat="47.23067" lon="5.94156">
        <ele>276.04</ele>
        <time>2018-09-22T14:33:03Z</time>
      </trkpt>
      <trkpt lat="47.23065" lon="5.94162">
        <ele>275.56</ele>
        <time>2018-09-22T14:33:04Z</time>
      </trkpt>
      <trkpt lat="47.23063" lon="5.94169">
        <ele>276.04</ele>
        <time>2018-09-22T14:33:05Z</time>
      </trkpt>
      <trkpt lat="47.23054" lon="5.94208">
        <ele>276.52</ele>
        <time>2018-09-22T14:33:11Z</time>
      </trkpt>
      <trkpt lat="47.2304" lon="5.94294">
        <ele>276.04</ele>
        <time>2018-09-22T14:33:23Z</time>
      </trkpt>
      <trkpt lat="47.23035" lon="5.94323">
        <ele>276.04</ele>
        <time>2018-09-22T14:33:27Z</time>
      </trkpt>
      <trkpt lat="47.23033" lon="5.9433">
        <ele>276.04</ele>
        <time>2018-09-22T14:33:28Z</time>
      </trkpt>
      <trkpt lat="47.2303" lon="5.9435">
        <ele>277</ele>
        <time>2018-09-22T14:33:31Z</time>
      </trkpt>
      <trkpt lat="47.23029" lon="5.94356">
        <ele>277</ele>
        <time>2018-09-22T14:33:32Z</time>
      </trkpt>
      <trkpt lat="47.23025" lon="5.94376">
        <ele>277.48</ele>
        <time>2018-09-22T14:33:35Z</time>
      </trkpt>
      <trkpt lat="47.23024" lon="5.94395">
        <ele>277.48</ele>
        <time>2018-09-22T14:33:38Z</time>
      </trkpt>
      <trkpt lat="47.23025" lon="5.94402">
        <ele>277.48</ele>
        <time>2018-09-22T14:33:39Z</time>
      </trkpt>
      <trkpt lat="47.23026" lon="5.94409">
        <ele>277.48</ele>
        <time>2018-09-22T14:33:40Z</time>
      </trkpt>
      <trkpt lat="47.23027" lon="5.94416">
        <ele>277</ele>
        <time>2018-09-22T14:33:41Z</time>
      </trkpt>
      <trkpt lat="47.23028" lon="5.94422">
        <ele>277.48</ele>
        <time>2018-09-22T14:33:42Z</time>
      </trkpt>
      <trkpt lat="47.23039" lon="5.94469">
        <ele>277</ele>
        <time>2018-09-22T14:33:49Z</time>
      </trkpt>
      <trkpt lat="47.2304" lon="5.94476">
        <ele>277</ele>
        <time>2018-09-22T14:33:50Z</time>
      </trkpt>
      <trkpt lat="47.2304" lon="5.94482">
        <ele>277.48</ele>
        <time>2018-09-22T14:33:51Z</time>
      </trkpt>
      <trkpt lat="47.23039" lon="5.94489">
        <ele>277.48</ele>
        <time>2018-09-22T14:33:52Z</time>
      </trkpt>
      <trkpt lat="47.23038" lon="5.94494">
        <ele>277.96</ele>
        <time>2018-09-22T14:33:53Z</time>
      </trkpt>
      <trkpt lat="47.23037" lon="5.94499">
        <ele>277.96</ele>
        <time>2018-09-22T14:33:54Z</time>
      </trkpt>
      <trkpt lat="47.23035" lon="5.94503">
        <ele>278.44</ele>
        <time>2018-09-22T14:33:55Z</time>
      </trkpt>
      <trkpt lat="47.23032" lon="5.94507">
        <ele>278.44</ele>
        <time>2018-09-22T14:33:56Z</time>
      </trkpt>
      <trkpt lat="47.2303" lon="5.94511">
        <ele>278.44</ele>
        <time>2018-09-22T14:33:57Z</time>
      </trkpt>
      <trkpt lat="47.23017" lon="5.9455">
        <ele>280.36</ele>
        <time>2018-09-22T14:34:06Z</time>
      </trkpt>
      <trkpt lat="47.23013" lon="5.94613">
        <ele>281.8</ele>
        <time>2018-09-22T14:34:17Z</time>
      </trkpt>
      <trkpt lat="47.23013" lon="5.94639">
        <ele>281.8</ele>
        <time>2018-09-22T14:34:22Z</time>
      </trkpt>
      <trkpt lat="47.23014" lon="5.94644">
        <ele>281.8</ele>
        <time>2018-09-22T14:34:23Z</time>
      </trkpt>
      <trkpt lat="47.23015" lon="5.9465">
        <ele>281.8</ele>
        <time>2018-09-22T14:34:24Z</time>
      </trkpt>
      <trkpt lat="47.23034" lon="5.94701">
        <ele>282.77</ele>
        <time>2018-09-22T14:34:33Z</time>
      </trkpt>
      <trkpt lat="47.23036" lon="5.94705">
        <ele>282.77</ele>
        <time>2018-09-22T14:34:34Z</time>
      </trkpt>
      <trkpt lat="47.23038" lon="5.94711">
        <ele>282.77</ele>
        <time>2018-09-22T14:34:35Z</time>
      </trkpt>
      <trkpt lat="47.23041" lon="5.94716">
        <ele>282.77</ele>
        <time>2018-09-22T14:34:36Z</time>
      </trkpt>
      <trkpt lat="47.23043" lon="5.94723">
        <ele>282.77</ele>
        <time>2018-09-22T14:34:37Z</time>
      </trkpt>
      <trkpt lat="47.23046" lon="5.94729">
        <ele>282.77</ele>
        <time>2018-09-22T14:34:38Z</time>
      </trkpt>
      <trkpt lat="47.23049" lon="5.94736">
        <ele>282.77</ele>
        <time>2018-09-22T14:34:39Z</time>
      </trkpt>
      <trkpt lat="47.23052" lon="5.9474">
        <ele>283.25</ele>
        <time>2018-09-22T14:34:40Z</time>
      </trkpt>
      <trkpt lat="47.23077" lon="5.94786">
        <ele>284.69</ele>
        <time>2018-09-22T14:34:50Z</time>
      </trkpt>
      <trkpt lat="47.23092" lon="5.94836">
        <ele>285.65</ele>
        <time>2018-09-22T14:34:59Z</time>
      </trkpt>
      <trkpt lat="47.231" lon="5.94855">
        <ele>285.65</ele>
        <time>2018-09-22T14:35:05Z</time>
      </trkpt>
      <trkpt lat="47.23102" lon="5.94857">
        <ele>285.17</ele>
        <time>2018-09-22T14:35:06Z</time>
      </trkpt>
      <trkpt lat="47.23106" lon="5.94862">
        <ele>285.17</ele>
        <time>2018-09-22T14:35:08Z</time>
      </trkpt>
      <trkpt lat="47.23109" lon="5.94864">
        <ele>285.17</ele>
        <time>2018-09-22T14:35:09Z</time>
      </trkpt>
      <trkpt lat="47.23112" lon="5.94866">
        <ele>284.69</ele>
        <time>2018-09-22T14:35:10Z</time>
      </trkpt>
      <trkpt lat="47.23116" lon="5.9487">
        <ele>284.21</ele>
        <time>2018-09-22T14:35:11Z</time>
      </trkpt>
      <trkpt lat="47.23119" lon="5.94877">
        <ele>284.21</ele>
        <time>2018-09-22T14:35:12Z</time>
      </trkpt>
      <trkpt lat="47.23122" lon="5.94884">
        <ele>283.73</ele>
        <time>2018-09-22T14:35:13Z</time>
      </trkpt>
      <trkpt lat="47.23124" lon="5.94891">
        <ele>283.25</ele>
        <time>2018-09-22T14:35:14Z</time>
      </trkpt>
      <trkpt lat="47.23129" lon="5.94905">
        <ele>282.77</ele>
        <time>2018-09-22T14:35:16Z</time>
      </trkpt>
      <trkpt lat="47.23132" lon="5.94916">
        <ele>282.77</ele>
        <time>2018-09-22T14:35:17Z</time>
      </trkpt>
      <trkpt lat="47.23135" lon="5.94925">
        <ele>282.28</ele>
        <time>2018-09-22T14:35:18Z</time>
      </trkpt>
      <trkpt lat="47.23137" lon="5.94935">
        <ele>282.28</ele>
        <time>2018-09-22T14:35:19Z</time>
      </trkpt>
      <trkpt lat="47.23139" lon="5.94944">
        <ele>282.28</ele>
        <time>2018-09-22T14:35:20Z</time>
      </trkpt>
      <trkpt lat="47.23141" lon="5.94953">
        <ele>282.28</ele>
        <time>2018-09-22T14:35:21Z</time>
      </trkpt>
      <trkpt lat="47.23147" lon="5.9497">
        <ele>282.77</ele>
        <time>2018-09-22T14:35:23Z</time>
      </trkpt>
      <trkpt lat="47.23149" lon="5.9498">
        <ele>282.28</ele>
        <time>2018-09-22T14:35:24Z</time>
      </trkpt>
      <trkpt lat="47.2315" lon="5.94989">
        <ele>282.28</ele>
        <time>2018-09-22T14:35:25Z</time>
      </trkpt>
      <trkpt lat="47.23151" lon="5.94997">
        <ele>282.77</ele>
        <time>2018-09-22T14:35:26Z</time>
      </trkpt>
      <trkpt lat="47.23151" lon="5.95005">
        <ele>282.77</ele>
        <time>2018-09-22T14:35:27Z</time>
      </trkpt>
      <trkpt lat="47.23157" lon="5.95074">
        <ele>283.73</ele>
        <time>2018-09-22T14:35:35Z</time>
      </trkpt>
      <trkpt lat="47.2316" lon="5.95097">
        <ele>284.69</ele>
        <time>2018-09-22T14:35:38Z</time>
      </trkpt>
      <trkpt lat="47.23161" lon="5.95118">
        <ele>285.65</ele>
        <time>2018-09-22T14:35:41Z</time>
      </trkpt>
      <trkpt lat="47.23163" lon="5.95141">
        <ele>286.13</ele>
        <time>2018-09-22T14:35:44Z</time>
      </trkpt>
      <trkpt lat="47.23165" lon="5.95176">
        <ele>287.57</ele>
        <time>2018-09-22T14:35:49Z</time>
      </trkpt>
      <trkpt lat="47.23165" lon="5.95182">
        <ele>288.05</ele>
        <time>2018-09-22T14:35:50Z</time>
      </trkpt>
      <trkpt lat="47.23165" lon="5.95188">
        <ele>288.05</ele>
        <time>2018-09-22T14:35:51Z</time>
      </trkpt>
      <trkpt lat="47.23165" lon="5.95194">
        <ele>288.53</ele>
        <time>2018-09-22T14:35:52Z</time>
      </trkpt>
      <trkpt lat="47.23166" lon="5.95199">
        <ele>289.01</ele>
        <time>2018-09-22T14:35:53Z</time>
      </trkpt>
      <trkpt lat="47.23166" lon="5.95205">
        <ele>289.01</ele>
        <time>2018-09-22T14:35:54Z</time>
      </trkpt>
      <trkpt lat="47.23166" lon="5.9521">
        <ele>289.49</ele>
        <time>2018-09-22T14:35:55Z</time>
      </trkpt>
      <trkpt lat="47.23164" lon="5.95243">
        <ele>289.49</ele>
        <time>2018-09-22T14:36:01Z</time>
      </trkpt>
      <trkpt lat="47.23165" lon="5.95249">
        <ele>289.49</ele>
        <time>2018-09-22T14:36:02Z</time>
      </trkpt>
      <trkpt lat="47.23165" lon="5.95255">
        <ele>289.97</ele>
        <time>2018-09-22T14:36:03Z</time>
      </trkpt>
      <trkpt lat="47.23168" lon="5.95313">
        <ele>292.38</ele>
        <time>2018-09-22T14:36:14Z</time>
      </trkpt>
      <trkpt lat="47.2317" lon="5.95319">
        <ele>292.38</ele>
        <time>2018-09-22T14:36:15Z</time>
      </trkpt>
      <trkpt lat="47.23172" lon="5.95324">
        <ele>292.86</ele>
        <time>2018-09-22T14:36:16Z</time>
      </trkpt>
      <trkpt lat="47.23174" lon="5.9533">
        <ele>292.86</ele>
        <time>2018-09-22T14:36:17Z</time>
      </trkpt>
      <trkpt lat="47.23177" lon="5.95335">
        <ele>292.86</ele>
        <time>2018-09-22T14:36:18Z</time>
      </trkpt>
      <trkpt lat="47.23181" lon="5.95339">
        <ele>292.86</ele>
        <time>2018-09-22T14:36:19Z</time>
      </trkpt>
      <trkpt lat="47.23184" lon="5.95342">
        <ele>293.34</ele>
        <time>2018-09-22T14:36:20Z</time>
      </trkpt>
      <trkpt lat="47.23212" lon="5.95374">
        <ele>296.22</ele>
        <time>2018-09-22T14:36:30Z</time>
      </trkpt>
      <trkpt lat="47.23226" lon="5.95396">
        <ele>297.18</ele>
        <time>2018-09-22T14:36:38Z</time>
      </trkpt>
      <trkpt lat="47.23227" lon="5.954">
        <ele>297.67</ele>
        <time>2018-09-22T14:36:39Z</time>
      </trkpt>
      <trkpt lat="47.23255" lon="5.95434">
        <ele>299.59</ele>
        <time>2018-09-22T14:36:51Z</time>
      </trkpt>
      <trkpt lat="47.23287" lon="5.95473">
        <ele>302.47</ele>
        <time>2018-09-22T14:37:03Z</time>
      </trkpt>
      <trkpt lat="47.23293" lon="5.95482">
        <ele>303.43</ele>
        <time>2018-09-22T14:37:07Z</time>
      </trkpt>
      <trkpt lat="47.23294" lon="5.95484">
        <ele>303.43</ele>
        <time>2018-09-22T14:37:08Z</time>
      </trkpt>
      <trkpt lat="47.23296" lon="5.95486">
        <ele>303.91</ele>
        <time>2018-09-22T14:37:09Z</time>
      </trkpt>
      <trkpt lat="47.23311" lon="5.95508">
        <ele>306.32</ele>
        <time>2018-09-22T14:37:19Z</time>
      </trkpt>
      <trkpt lat="47.23328" lon="5.9553">
        <ele>309.2</ele>
        <time>2018-09-22T14:37:29Z</time>
      </trkpt>
      <trkpt lat="47.23338" lon="5.95544">
        <ele>310.16</ele>
        <time>2018-09-22T14:37:35Z</time>
      </trkpt>
      <trkpt lat="47.23339" lon="5.95545">
        <ele>310.64</ele>
        <time>2018-09-22T14:37:36Z</time>
      </trkpt>
      <trkpt lat="47.23341" lon="5.95547">
        <ele>310.64</ele>
        <time>2018-09-22T14:37:37Z</time>
      </trkpt>
      <trkpt lat="47.23342" lon="5.95549">
        <ele>311.12</ele>
        <time>2018-09-22T14:37:38Z</time>
      </trkpt>
      <trkpt lat="47.23343" lon="5.95551">
        <ele>311.12</ele>
        <time>2018-09-22T14:37:39Z</time>
      </trkpt>
      <trkpt lat="47.23345" lon="5.95553">
        <ele>311.12</ele>
        <time>2018-09-22T14:37:40Z</time>
      </trkpt>
      <trkpt lat="47.23368" lon="5.95588">
        <ele>314.01</ele>
        <time>2018-09-22T14:37:53Z</time>
      </trkpt>
      <trkpt lat="47.23389" lon="5.9562">
        <ele>315.93</ele>
        <time>2018-09-22T14:38:03Z</time>
      </trkpt>
      <trkpt lat="47.23416" lon="5.95659">
        <ele>317.85</ele>
        <time>2018-09-22T14:38:13Z</time>
      </trkpt>
      <trkpt lat="47.23441" lon="5.95694">
        <ele>318.33</ele>
        <time>2018-09-22T14:38:22Z</time>
      </trkpt>
      <trkpt lat="47.23467" lon="5.95734">
        <ele>319.3</ele>
        <time>2018-09-22T14:38:33Z</time>
      </trkpt>
      <trkpt lat="47.23495" lon="5.95773">
        <ele>320.74</ele>
        <time>2018-09-22T14:38:42Z</time>
      </trkpt>
      <trkpt lat="47.23514" lon="5.958">
        <ele>321.22</ele>
        <time>2018-09-22T14:38:48Z</time>
      </trkpt>
      <trkpt lat="47.23517" lon="5.95804">
        <ele>321.22</ele>
        <time>2018-09-22T14:38:49Z</time>
      </trkpt>
      <trkpt lat="47.23521" lon="5.95806">
        <ele>321.22</ele>
        <time>2018-09-22T14:38:50Z</time>
      </trkpt>
      <trkpt lat="47.23531" lon="5.95803">
        <ele>320.26</ele>
        <time>2018-09-22T14:38:52Z</time>
      </trkpt>
      <trkpt lat="47.23537" lon="5.95801">
        <ele>319.3</ele>
        <time>2018-09-22T14:38:53Z</time>
      </trkpt>
      <trkpt lat="47.23543" lon="5.958">
        <ele>318.81</ele>
        <time>2018-09-22T14:38:54Z</time>
      </trkpt>
      <trkpt lat="47.23549" lon="5.958">
        <ele>317.37</ele>
        <time>2018-09-22T14:38:55Z</time>
      </trkpt>
      <trkpt lat="47.23556" lon="5.95799">
        <ele>316.89</ele>
        <time>2018-09-22T14:38:56Z</time>
      </trkpt>
      <trkpt lat="47.23562" lon="5.95799">
        <ele>316.41</ele>
        <time>2018-09-22T14:38:57Z</time>
      </trkpt>
      <trkpt lat="47.23569" lon="5.95797">
        <ele>315.93</ele>
        <time>2018-09-22T14:38:58Z</time>
      </trkpt>
      <trkpt lat="47.23589" lon="5.95787">
        <ele>313.05</ele>
        <time>2018-09-22T14:39:01Z</time>
      </trkpt>
      <trkpt lat="47.23596" lon="5.95787">
        <ele>312.57</ele>
        <time>2018-09-22T14:39:02Z</time>
      </trkpt>
      <trkpt lat="47.23604" lon="5.95788">
        <ele>311.6</ele>
        <time>2018-09-22T14:39:03Z</time>
      </trkpt>
      <trkpt lat="47.23611" lon="5.95786">
        <ele>311.6</ele>
        <time>2018-09-22T14:39:04Z</time>
      </trkpt>
      <trkpt lat="47.23617" lon="5.95783">
        <ele>311.12</ele>
        <time>2018-09-22T14:39:05Z</time>
      </trkpt>
      <trkpt lat="47.23624" lon="5.95779">
        <ele>310.16</ele>
        <time>2018-09-22T14:39:06Z</time>
      </trkpt>
      <trkpt lat="47.23629" lon="5.95774">
        <ele>309.68</ele>
        <time>2018-09-22T14:39:07Z</time>
      </trkpt>
      <trkpt lat="47.23634" lon="5.95767">
        <ele>308.72</ele>
        <time>2018-09-22T14:39:08Z</time>
      </trkpt>
      <trkpt lat="47.23642" lon="5.95753">
        <ele>306.8</ele>
        <time>2018-09-22T14:39:10Z</time>
      </trkpt>
      <trkpt lat="47.23647" lon="5.95749">
        <ele>306.8</ele>
        <time>2018-09-22T14:39:11Z</time>
      </trkpt>
      <trkpt lat="47.23653" lon="5.95746">
        <ele>306.32</ele>
        <time>2018-09-22T14:39:12Z</time>
      </trkpt>
      <trkpt lat="47.23659" lon="5.95747">
        <ele>305.84</ele>
        <time>2018-09-22T14:39:13Z</time>
      </trkpt>
      <trkpt lat="47.23664" lon="5.95749">
        <ele>305.84</ele>
        <time>2018-09-22T14:39:14Z</time>
      </trkpt>
      <trkpt lat="47.23668" lon="5.95753">
        <ele>305.84</ele>
        <time>2018-09-22T14:39:15Z</time>
      </trkpt>
      <trkpt lat="47.23672" lon="5.95759">
        <ele>305.84</ele>
        <time>2018-09-22T14:39:16Z</time>
      </trkpt>
      <trkpt lat="47.23676" lon="5.95765">
        <ele>305.84</ele>
        <time>2018-09-22T14:39:17Z</time>
      </trkpt>
      <trkpt lat="47.2368" lon="5.9577">
        <ele>306.32</ele>
        <time>2018-09-22T14:39:18Z</time>
      </trkpt>
      <trkpt lat="47.23694" lon="5.95789">
        <ele>307.28</ele>
        <time>2018-09-22T14:39:22Z</time>
      </trkpt>
      <trkpt lat="47.23697" lon="5.95795">
        <ele>307.28</ele>
        <time>2018-09-22T14:39:23Z</time>
      </trkpt>
      <trkpt lat="47.237" lon="5.958">
        <ele>307.28</ele>
        <time>2018-09-22T14:39:24Z</time>
      </trkpt>
      <trkpt lat="47.23706" lon="5.9581">
        <ele>307.76</ele>
        <time>2018-09-22T14:39:26Z</time>
      </trkpt>
      <trkpt lat="47.23714" lon="5.95817">
        <ele>307.28</ele>
        <time>2018-09-22T14:39:28Z</time>
      </trkpt>
      <trkpt lat="47.23718" lon="5.95819">
        <ele>307.28</ele>
        <time>2018-09-22T14:39:29Z</time>
      </trkpt>
      <trkpt lat="47.23723" lon="5.95821">
        <ele>306.8</ele>
        <time>2018-09-22T14:39:30Z</time>
      </trkpt>
      <trkpt lat="47.23729" lon="5.95822">
        <ele>306.32</ele>
        <time>2018-09-22T14:39:31Z</time>
      </trkpt>
      <trkpt lat="47.23736" lon="5.95824">
        <ele>305.84</ele>
        <time>2018-09-22T14:39:32Z</time>
      </trkpt>
      <trkpt lat="47.23767" lon="5.95822">
        <ele>303.43</ele>
        <time>2018-09-22T14:39:36Z</time>
      </trkpt>
      <trkpt lat="47.23774" lon="5.95824">
        <ele>302.95</ele>
        <time>2018-09-22T14:39:37Z</time>
      </trkpt>
      <trkpt lat="47.2378" lon="5.95827">
        <ele>302.95</ele>
        <time>2018-09-22T14:39:38Z</time>
      </trkpt>
      <trkpt lat="47.23786" lon="5.95833">
        <ele>302.47</ele>
        <time>2018-09-22T14:39:39Z</time>
      </trkpt>
      <trkpt lat="47.2379" lon="5.95841">
        <ele>302.95</ele>
        <time>2018-09-22T14:39:40Z</time>
      </trkpt>
      <trkpt lat="47.23793" lon="5.95848">
        <ele>302.47</ele>
        <time>2018-09-22T14:39:41Z</time>
      </trkpt>
      <trkpt lat="47.23815" lon="5.95894">
        <ele>301.99</ele>
        <time>2018-09-22T14:39:47Z</time>
      </trkpt>
      <trkpt lat="47.23818" lon="5.95902">
        <ele>301.99</ele>
        <time>2018-09-22T14:39:48Z</time>
      </trkpt>
      <trkpt lat="47.23819" lon="5.9591">
        <ele>302.47</ele>
        <time>2018-09-22T14:39:49Z</time>
      </trkpt>
      <trkpt lat="47.2382" lon="5.95918">
        <ele>301.99</ele>
        <time>2018-09-22T14:39:50Z</time>
      </trkpt>
      <trkpt lat="47.23822" lon="5.95926">
        <ele>301.99</ele>
        <time>2018-09-22T14:39:51Z</time>
      </trkpt>
      <trkpt lat="47.23823" lon="5.95933">
        <ele>301.99</ele>
        <time>2018-09-22T14:39:52Z</time>
      </trkpt>
      <trkpt lat="47.23824" lon="5.9594">
        <ele>301.99</ele>
        <time>2018-09-22T14:39:53Z</time>
      </trkpt>
      <trkpt lat="47.23836" lon="5.95991">
        <ele>301.03</ele>
        <time>2018-09-22T14:40:00Z</time>
      </trkpt>
      <trkpt lat="47.23839" lon="5.95997">
        <ele>301.03</ele>
        <time>2018-09-22T14:40:01Z</time>
      </trkpt>
      <trkpt lat="47.23843" lon="5.96003">
        <ele>301.03</ele>
        <time>2018-09-22T14:40:02Z</time>
      </trkpt>
      <trkpt lat="47.23859" lon="5.96021">
        <ele>301.03</ele>
        <time>2018-09-22T14:40:06Z</time>
      </trkpt>
      <trkpt lat="47.23863" lon="5.96027">
        <ele>301.03</ele>
        <time>2018-09-22T14:40:07Z</time>
      </trkpt>
      <trkpt lat="47.23872" lon="5.96044">
        <ele>301.03</ele>
        <time>2018-09-22T14:40:10Z</time>
      </trkpt>
      <trkpt lat="47.23874" lon="5.9605">
        <ele>301.51</ele>
        <time>2018-09-22T14:40:11Z</time>
      </trkpt>
      <trkpt lat="47.23875" lon="5.96056">
        <ele>301.51</ele>
        <time>2018-09-22T14:40:12Z</time>
      </trkpt>
      <trkpt lat="47.23878" lon="5.96113">
        <ele>303.91</ele>
        <time>2018-09-22T14:40:24Z</time>
      </trkpt>
      <trkpt lat="47.23861" lon="5.96151">
        <ele>306.8</ele>
        <time>2018-09-22T14:40:36Z</time>
      </trkpt>
      <trkpt lat="47.23847" lon="5.96179">
        <ele>309.2</ele>
        <time>2018-09-22T14:40:49Z</time>
      </trkpt>
      <trkpt lat="47.23844" lon="5.96191">
        <ele>310.16</ele>
        <time>2018-09-22T14:40:55Z</time>
      </trkpt>
      <trkpt lat="47.23843" lon="5.96202">
        <ele>311.12</ele>
        <time>2018-09-22T14:41:01Z</time>
      </trkpt>
      <trkpt lat="47.23845" lon="5.96209">
        <ele>311.6</ele>
        <time>2018-09-22T14:41:12Z</time>
      </trkpt>
      <trkpt lat="47.23845" lon="5.96209">
        <ele>311.6</ele>
        <time>2018-09-22T14:41:43Z</time>
      </trkpt>
      <trkpt lat="47.23845" lon="5.96215">
        <ele>312.09</ele>
        <time>2018-09-22T14:41:56Z</time>
      </trkpt>
      <trkpt lat="47.23846" lon="5.96228">
        <ele>313.05</ele>
        <time>2018-09-22T14:42:02Z</time>
      </trkpt>
      <trkpt lat="47.23847" lon="5.96233">
        <ele>313.53</ele>
        <time>2018-09-22T14:42:04Z</time>
      </trkpt>
      <trkpt lat="47.23848" lon="5.96234">
        <ele>313.53</ele>
        <time>2018-09-22T14:42:05Z</time>
      </trkpt>
      <trkpt lat="47.23849" lon="5.96236">
        <ele>313.53</ele>
        <time>2018-09-22T14:42:06Z</time>
      </trkpt>
      <trkpt lat="47.2385" lon="5.96239">
        <ele>314.01</ele>
        <time>2018-09-22T14:42:08Z</time>
      </trkpt>
      <trkpt lat="47.2385" lon="5.96242">
        <ele>314.01</ele>
        <time>2018-09-22T14:42:09Z</time>
      </trkpt>
      <trkpt lat="47.2385" lon="5.96245">
        <ele>314.49</ele>
        <time>2018-09-22T14:42:10Z</time>
      </trkpt>
      <trkpt lat="47.23849" lon="5.96248">
        <ele>314.49</ele>
        <time>2018-09-22T14:42:11Z</time>
      </trkpt>
      <trkpt lat="47.23849" lon="5.9625">
        <ele>314.97</ele>
        <time>2018-09-22T14:42:12Z</time>
      </trkpt>
      <trkpt lat="47.23846" lon="5.96263">
        <ele>315.93</ele>
        <time>2018-09-22T14:42:17Z</time>
      </trkpt>
      <trkpt lat="47.23846" lon="5.96265">
        <ele>315.93</ele>
        <time>2018-09-22T14:42:18Z</time>
      </trkpt>
      <trkpt lat="47.23846" lon="5.96268">
        <ele>316.41</ele>
        <time>2018-09-22T14:42:19Z</time>
      </trkpt>
      <trkpt lat="47.23845" lon="5.96271">
        <ele>316.41</ele>
        <time>2018-09-22T14:42:20Z</time>
      </trkpt>
      <trkpt lat="47.23845" lon="5.96274">
        <ele>316.89</ele>
        <time>2018-09-22T14:42:21Z</time>
      </trkpt>
      <trkpt lat="47.23845" lon="5.96276">
        <ele>316.89</ele>
        <time>2018-09-22T14:42:22Z</time>
      </trkpt>
      <trkpt lat="47.23845" lon="5.96278">
        <ele>317.37</ele>
        <time>2018-09-22T14:42:23Z</time>
      </trkpt>
      <trkpt lat="47.23845" lon="5.96281">
        <ele>317.37</ele>
        <time>2018-09-22T14:42:24Z</time>
      </trkpt>
      <trkpt lat="47.23844" lon="5.96283">
        <ele>317.37</ele>
        <time>2018-09-22T14:42:25Z</time>
      </trkpt>
      <trkpt lat="47.23844" lon="5.96286">
        <ele>317.85</ele>
        <time>2018-09-22T14:42:26Z</time>
      </trkpt>
      <trkpt lat="47.23844" lon="5.96288">
        <ele>317.85</ele>
        <time>2018-09-22T14:42:27Z</time>
      </trkpt>
      <trkpt lat="47.23843" lon="5.96291">
        <ele>318.33</ele>
        <time>2018-09-22T14:42:28Z</time>
      </trkpt>
      <trkpt lat="47.23843" lon="5.96296">
        <ele>318.33</ele>
        <time>2018-09-22T14:42:29Z</time>
      </trkpt>
      <trkpt lat="47.23843" lon="5.96299">
        <ele>318.81</ele>
        <time>2018-09-22T14:42:30Z</time>
      </trkpt>
      <trkpt lat="47.23842" lon="5.96301">
        <ele>318.81</ele>
        <time>2018-09-22T14:42:31Z</time>
      </trkpt>
      <trkpt lat="47.23841" lon="5.96303">
        <ele>318.81</ele>
        <time>2018-09-22T14:42:32Z</time>
      </trkpt>
      <trkpt lat="47.2384" lon="5.96307">
        <ele>319.3</ele>
        <time>2018-09-22T14:42:33Z</time>
      </trkpt>
      <trkpt lat="47.2384" lon="5.9631">
        <ele>319.3</ele>
        <time>2018-09-22T14:42:34Z</time>
      </trkpt>
      <trkpt lat="47.23839" lon="5.96313">
        <ele>319.78</ele>
        <time>2018-09-22T14:42:35Z</time>
      </trkpt>
      <trkpt lat="47.23838" lon="5.96316">
        <ele>319.78</ele>
        <time>2018-09-22T14:42:36Z</time>
      </trkpt>
      <trkpt lat="47.23837" lon="5.9632">
        <ele>320.26</ele>
        <time>2018-09-22T14:42:39Z</time>
      </trkpt>
      <trkpt lat="47.23834" lon="5.96324">
        <ele>320.74</ele>
        <time>2018-09-22T14:42:41Z</time>
      </trkpt>
      <trkpt lat="47.23833" lon="5.96327">
        <ele>320.74</ele>
        <time>2018-09-22T14:42:42Z</time>
      </trkpt>
      <trkpt lat="47.23833" lon="5.9633">
        <ele>321.22</ele>
        <time>2018-09-22T14:42:43Z</time>
      </trkpt>
      <trkpt lat="47.23833" lon="5.96334">
        <ele>321.22</ele>
        <time>2018-09-22T14:42:44Z</time>
      </trkpt>
      <trkpt lat="47.23833" lon="5.96336">
        <ele>321.22</ele>
        <time>2018-09-22T14:42:45Z</time>
      </trkpt>
      <trkpt lat="47.23834" lon="5.96339">
        <ele>321.7</ele>
        <time>2018-09-22T14:42:46Z</time>
      </trkpt>
      <trkpt lat="47.23835" lon="5.96341">
        <ele>321.7</ele>
        <time>2018-09-22T14:42:47Z</time>
      </trkpt>
      <trkpt lat="47.23835" lon="5.96343">
        <ele>322.18</ele>
        <time>2018-09-22T14:42:48Z</time>
      </trkpt>
      <trkpt lat="47.23836" lon="5.96346">
        <ele>322.66</ele>
        <time>2018-09-22T14:42:49Z</time>
      </trkpt>
      <trkpt lat="47.23837" lon="5.96349">
        <ele>323.14</ele>
        <time>2018-09-22T14:42:50Z</time>
      </trkpt>
      <trkpt lat="47.23838" lon="5.96352">
        <ele>323.14</ele>
        <time>2018-09-22T14:42:51Z</time>
      </trkpt>
      <trkpt lat="47.23839" lon="5.96355">
        <ele>323.62</ele>
        <time>2018-09-22T14:42:52Z</time>
      </trkpt>
      <trkpt lat="47.2384" lon="5.96359">
        <ele>323.62</ele>
        <time>2018-09-22T14:42:53Z</time>
      </trkpt>
      <trkpt lat="47.23841" lon="5.96362">
        <ele>323.62</ele>
        <time>2018-09-22T14:42:54Z</time>
      </trkpt>
      <trkpt lat="47.23842" lon="5.96366">
        <ele>324.1</ele>
        <time>2018-09-22T14:42:55Z</time>
      </trkpt>
      <trkpt lat="47.23844" lon="5.9637">
        <ele>324.1</ele>
        <time>2018-09-22T14:42:56Z</time>
      </trkpt>
      <trkpt lat="47.23846" lon="5.96375">
        <ele>324.58</ele>
        <time>2018-09-22T14:42:57Z</time>
      </trkpt>
      <trkpt lat="47.23846" lon="5.96381">
        <ele>324.58</ele>
        <time>2018-09-22T14:42:58Z</time>
      </trkpt>
      <trkpt lat="47.23847" lon="5.96386">
        <ele>324.58</ele>
        <time>2018-09-22T14:42:59Z</time>
      </trkpt>
      <trkpt lat="47.2385" lon="5.96403">
        <ele>325.54</ele>
        <time>2018-09-22T14:43:02Z</time>
      </trkpt>
      <trkpt lat="47.23851" lon="5.96408">
        <ele>325.54</ele>
        <time>2018-09-22T14:43:03Z</time>
      </trkpt>
      <trkpt lat="47.23853" lon="5.96412">
        <ele>325.54</ele>
        <time>2018-09-22T14:43:04Z</time>
      </trkpt>
      <trkpt lat="47.23854" lon="5.96414">
        <ele>326.02</ele>
        <time>2018-09-22T14:43:05Z</time>
      </trkpt>
      <trkpt lat="47.23856" lon="5.96416">
        <ele>326.02</ele>
        <time>2018-09-22T14:43:06Z</time>
      </trkpt>
      <trkpt lat="47.23858" lon="5.96421">
        <ele>326.02</ele>
        <time>2018-09-22T14:43:07Z</time>
      </trkpt>
      <trkpt lat="47.23859" lon="5.96428">
        <ele>326.5</ele>
        <time>2018-09-22T14:43:08Z</time>
      </trkpt>
      <trkpt lat="47.2386" lon="5.96434">
        <ele>326.99</ele>
        <time>2018-09-22T14:43:09Z</time>
      </trkpt>
      <trkpt lat="47.2388" lon="5.96467">
        <ele>328.43</ele>
        <time>2018-09-22T14:43:19Z</time>
      </trkpt>
      <trkpt lat="47.23909" lon="5.96479">
        <ele>329.87</ele>
        <time>2018-09-22T14:43:28Z</time>
      </trkpt>
      <trkpt lat="47.23923" lon="5.96489">
        <ele>330.83</ele>
        <time>2018-09-22T14:43:33Z</time>
      </trkpt>
      <trkpt lat="47.23926" lon="5.96492">
        <ele>331.31</ele>
        <time>2018-09-22T14:43:34Z</time>
      </trkpt>
      <trkpt lat="47.23929" lon="5.96495">
        <ele>331.31</ele>
        <time>2018-09-22T14:43:35Z</time>
      </trkpt>
      <trkpt lat="47.23955" lon="5.96524">
        <ele>333.23</ele>
        <time>2018-09-22T14:43:45Z</time>
      </trkpt>
      <trkpt lat="47.23986" lon="5.96549">
        <ele>334.2</ele>
        <time>2018-09-22T14:43:54Z</time>
      </trkpt>
      <trkpt lat="47.24019" lon="5.96559">
        <ele>334.2</ele>
        <time>2018-09-22T14:44:03Z</time>
      </trkpt>
      <trkpt lat="47.24024" lon="5.9656">
        <ele>334.2</ele>
        <time>2018-09-22T14:44:04Z</time>
      </trkpt>
      <trkpt lat="47.24028" lon="5.96561">
        <ele>334.2</ele>
        <time>2018-09-22T14:44:05Z</time>
      </trkpt>
      <trkpt lat="47.24034" lon="5.96561">
        <ele>334.2</ele>
        <time>2018-09-22T14:44:06Z</time>
      </trkpt>
      <trkpt lat="47.24039" lon="5.96561">
        <ele>333.71</ele>
        <time>2018-09-22T14:44:07Z</time>
      </trkpt>
      <trkpt lat="47.2405" lon="5.96561">
        <ele>333.23</ele>
        <time>2018-09-22T14:44:09Z</time>
      </trkpt>
      <trkpt lat="47.24056" lon="5.9656">
        <ele>333.23</ele>
        <time>2018-09-22T14:44:10Z</time>
      </trkpt>
      <trkpt lat="47.24061" lon="5.96559">
        <ele>333.23</ele>
        <time>2018-09-22T14:44:11Z</time>
      </trkpt>
      <trkpt lat="47.24079" lon="5.96558">
        <ele>332.27</ele>
        <time>2018-09-22T14:44:14Z</time>
      </trkpt>
      <trkpt lat="47.24116" lon="5.96549">
        <ele>330.83</ele>
        <time>2018-09-22T14:44:20Z</time>
      </trkpt>
      <trkpt lat="47.24128" lon="5.96549">
        <ele>330.35</ele>
        <time>2018-09-22T14:44:22Z</time>
      </trkpt>
      <trkpt lat="47.24146" lon="5.96545">
        <ele>329.87</ele>
        <time>2018-09-22T14:44:25Z</time>
      </trkpt>
      <trkpt lat="47.24151" lon="5.96543">
        <ele>330.35</ele>
        <time>2018-09-22T14:44:26Z</time>
      </trkpt>
      <trkpt lat="47.24156" lon="5.96541">
        <ele>330.35</ele>
        <time>2018-09-22T14:44:27Z</time>
      </trkpt>
      <trkpt lat="47.24191" lon="5.96532">
        <ele>329.87</ele>
        <time>2018-09-22T14:44:33Z</time>
      </trkpt>
      <trkpt lat="47.24209" lon="5.96531">
        <ele>329.87</ele>
        <time>2018-09-22T14:44:36Z</time>
      </trkpt>
      <trkpt lat="47.24215" lon="5.96533">
        <ele>329.39</ele>
        <time>2018-09-22T14:44:37Z</time>
      </trkpt>
      <trkpt lat="47.2422" lon="5.96534">
        <ele>329.39</ele>
        <time>2018-09-22T14:44:38Z</time>
      </trkpt>
      <trkpt lat="47.24225" lon="5.96535">
        <ele>329.39</ele>
        <time>2018-09-22T14:44:39Z</time>
      </trkpt>
      <trkpt lat="47.24231" lon="5.96536">
        <ele>328.91</ele>
        <time>2018-09-22T14:44:40Z</time>
      </trkpt>
      <trkpt lat="47.24237" lon="5.96536">
        <ele>328.91</ele>
        <time>2018-09-22T14:44:41Z</time>
      </trkpt>
      <trkpt lat="47.24243" lon="5.96536">
        <ele>328.91</ele>
        <time>2018-09-22T14:44:42Z</time>
      </trkpt>
      <trkpt lat="47.24249" lon="5.96535">
        <ele>328.91</ele>
        <time>2018-09-22T14:44:43Z</time>
      </trkpt>
      <trkpt lat="47.24255" lon="5.96535">
        <ele>328.43</ele>
        <time>2018-09-22T14:44:44Z</time>
      </trkpt>
      <trkpt lat="47.24261" lon="5.96534">
        <ele>328.43</ele>
        <time>2018-09-22T14:44:45Z</time>
      </trkpt>
      <trkpt lat="47.24267" lon="5.96533">
        <ele>328.43</ele>
        <time>2018-09-22T14:44:46Z</time>
      </trkpt>
      <trkpt lat="47.24273" lon="5.96534">
        <ele>327.95</ele>
        <time>2018-09-22T14:44:47Z</time>
      </trkpt>
      <trkpt lat="47.2428" lon="5.96535">
        <ele>327.95</ele>
        <time>2018-09-22T14:44:48Z</time>
      </trkpt>
      <trkpt lat="47.24286" lon="5.96538">
        <ele>327.95</ele>
        <time>2018-09-22T14:44:49Z</time>
      </trkpt>
      <trkpt lat="47.24291" lon="5.9654">
        <ele>327.95</ele>
        <time>2018-09-22T14:44:50Z</time>
      </trkpt>
      <trkpt lat="47.24297" lon="5.96542">
        <ele>327.95</ele>
        <time>2018-09-22T14:44:51Z</time>
      </trkpt>
      <trkpt lat="47.24303" lon="5.96545">
        <ele>327.47</ele>
        <time>2018-09-22T14:44:52Z</time>
      </trkpt>
      <trkpt lat="47.24308" lon="5.96548">
        <ele>327.47</ele>
        <time>2018-09-22T14:44:53Z</time>
      </trkpt>
      <trkpt lat="47.24329" lon="5.96559">
        <ele>326.99</ele>
        <time>2018-09-22T14:44:57Z</time>
      </trkpt>
      <trkpt lat="47.24334" lon="5.96562">
        <ele>326.5</ele>
        <time>2018-09-22T14:44:58Z</time>
      </trkpt>
      <trkpt lat="47.2434" lon="5.96565">
        <ele>326.5</ele>
        <time>2018-09-22T14:44:59Z</time>
      </trkpt>
      <trkpt lat="47.24352" lon="5.96569">
        <ele>326.02</ele>
        <time>2018-09-22T14:45:01Z</time>
      </trkpt>
      <trkpt lat="47.24383" lon="5.96578">
        <ele>325.54</ele>
        <time>2018-09-22T14:45:06Z</time>
      </trkpt>
      <trkpt lat="47.2439" lon="5.96579">
        <ele>325.54</ele>
        <time>2018-09-22T14:45:07Z</time>
      </trkpt>
      <trkpt lat="47.24402" lon="5.96583">
        <ele>325.06</ele>
        <time>2018-09-22T14:45:09Z</time>
      </trkpt>
      <trkpt lat="47.24408" lon="5.96588">
        <ele>324.58</ele>
        <time>2018-09-22T14:45:10Z</time>
      </trkpt>
      <trkpt lat="47.24413" lon="5.96594">
        <ele>324.1</ele>
        <time>2018-09-22T14:45:11Z</time>
      </trkpt>
      <trkpt lat="47.24427" lon="5.96613">
        <ele>323.62</ele>
        <time>2018-09-22T14:45:14Z</time>
      </trkpt>
      <trkpt lat="47.24431" lon="5.96618">
        <ele>323.62</ele>
        <time>2018-09-22T14:45:15Z</time>
      </trkpt>
      <trkpt lat="47.24436" lon="5.96623">
        <ele>323.14</ele>
        <time>2018-09-22T14:45:16Z</time>
      </trkpt>
      <trkpt lat="47.24439" lon="5.9663">
        <ele>323.14</ele>
        <time>2018-09-22T14:45:17Z</time>
      </trkpt>
      <trkpt lat="47.2444" lon="5.96639">
        <ele>322.66</ele>
        <time>2018-09-22T14:45:18Z</time>
      </trkpt>
      <trkpt lat="47.24441" lon="5.96648">
        <ele>322.66</ele>
        <time>2018-09-22T14:45:19Z</time>
      </trkpt>
      <trkpt lat="47.2444" lon="5.96657">
        <ele>321.7</ele>
        <time>2018-09-22T14:45:20Z</time>
      </trkpt>
      <trkpt lat="47.24439" lon="5.96666">
        <ele>320.74</ele>
        <time>2018-09-22T14:45:21Z</time>
      </trkpt>
      <trkpt lat="47.24438" lon="5.96677">
        <ele>319.3</ele>
        <time>2018-09-22T14:45:22Z</time>
      </trkpt>
      <trkpt lat="47.24436" lon="5.96688">
        <ele>317.85</ele>
        <time>2018-09-22T14:45:23Z</time>
      </trkpt>
      <trkpt lat="47.24434" lon="5.967">
        <ele>315.93</ele>
        <time>2018-09-22T14:45:24Z</time>
      </trkpt>
      <trkpt lat="47.24434" lon="5.96713">
        <ele>314.01</ele>
        <time>2018-09-22T14:45:25Z</time>
      </trkpt>
      <trkpt lat="47.24435" lon="5.96728">
        <ele>313.05</ele>
        <time>2018-09-22T14:45:26Z</time>
      </trkpt>
      <trkpt lat="47.24436" lon="5.96742">
        <ele>312.57</ele>
        <time>2018-09-22T14:45:27Z</time>
      </trkpt>
      <trkpt lat="47.24452" lon="5.96858">
        <ele>311.6</ele>
        <time>2018-09-22T14:45:36Z</time>
      </trkpt>
      <trkpt lat="47.24453" lon="5.96868">
        <ele>311.6</ele>
        <time>2018-09-22T14:45:37Z</time>
      </trkpt>
      <trkpt lat="47.24456" lon="5.96877">
        <ele>312.09</ele>
        <time>2018-09-22T14:45:38Z</time>
      </trkpt>
      <trkpt lat="47.24462" lon="5.96893">
        <ele>312.57</ele>
        <time>2018-09-22T14:45:40Z</time>
      </trkpt>
      <trkpt lat="47.24465" lon="5.96898">
        <ele>312.57</ele>
        <time>2018-09-22T14:45:41Z</time>
      </trkpt>
      <trkpt lat="47.24479" lon="5.96934">
        <ele>313.53</ele>
        <time>2018-09-22T14:45:46Z</time>
      </trkpt>
      <trkpt lat="47.245" lon="5.96971">
        <ele>314.49</ele>
        <time>2018-09-22T14:45:53Z</time>
      </trkpt>
      <trkpt lat="47.24528" lon="5.97007">
        <ele>315.93</ele>
        <time>2018-09-22T14:46:00Z</time>
      </trkpt>
      <trkpt lat="47.24548" lon="5.9705">
        <ele>316.89</ele>
        <time>2018-09-22T14:46:06Z</time>
      </trkpt>
      <trkpt lat="47.24552" lon="5.97056">
        <ele>317.37</ele>
        <time>2018-09-22T14:46:07Z</time>
      </trkpt>
      <trkpt lat="47.24565" lon="5.97075">
        <ele>317.85</ele>
        <time>2018-09-22T14:46:10Z</time>
      </trkpt>
      <trkpt lat="47.24568" lon="5.97082">
        <ele>317.85</ele>
        <time>2018-09-22T14:46:11Z</time>
      </trkpt>
      <trkpt lat="47.24569" lon="5.97089">
        <ele>318.33</ele>
        <time>2018-09-22T14:46:12Z</time>
      </trkpt>
      <trkpt lat="47.24571" lon="5.97096">
        <ele>318.81</ele>
        <time>2018-09-22T14:46:13Z</time>
      </trkpt>
      <trkpt lat="47.24573" lon="5.97102">
        <ele>319.3</ele>
        <time>2018-09-22T14:46:14Z</time>
      </trkpt>
      <trkpt lat="47.24576" lon="5.97108">
        <ele>319.3</ele>
        <time>2018-09-22T14:46:15Z</time>
      </trkpt>
      <trkpt lat="47.24578" lon="5.97114">
        <ele>319.3</ele>
        <time>2018-09-22T14:46:16Z</time>
      </trkpt>
      <trkpt lat="47.24581" lon="5.9712">
        <ele>319.3</ele>
        <time>2018-09-22T14:46:17Z</time>
      </trkpt>
      <trkpt lat="47.24594" lon="5.97142">
        <ele>320.26</ele>
        <time>2018-09-22T14:46:21Z</time>
      </trkpt>
      <trkpt lat="47.24599" lon="5.97155">
        <ele>320.26</ele>
        <time>2018-09-22T14:46:23Z</time>
      </trkpt>
      <trkpt lat="47.24601" lon="5.97162">
        <ele>320.74</ele>
        <time>2018-09-22T14:46:24Z</time>
      </trkpt>
      <trkpt lat="47.24602" lon="5.97169">
        <ele>320.74</ele>
        <time>2018-09-22T14:46:25Z</time>
      </trkpt>
      <trkpt lat="47.24606" lon="5.97181">
        <ele>321.22</ele>
        <time>2018-09-22T14:46:27Z</time>
      </trkpt>
      <trkpt lat="47.24607" lon="5.97187">
        <ele>321.22</ele>
        <time>2018-09-22T14:46:28Z</time>
      </trkpt>
      <trkpt lat="47.24609" lon="5.97193">
        <ele>321.22</ele>
        <time>2018-09-22T14:46:29Z</time>
      </trkpt>
      <trkpt lat="47.24613" lon="5.97205">
        <ele>321.7</ele>
        <time>2018-09-22T14:46:31Z</time>
      </trkpt>
      <trkpt lat="47.24616" lon="5.97211">
        <ele>321.7</ele>
        <time>2018-09-22T14:46:32Z</time>
      </trkpt>
      <trkpt lat="47.24629" lon="5.9728">
        <ele>324.1</ele>
        <time>2018-09-22T14:46:44Z</time>
      </trkpt>
      <trkpt lat="47.24632" lon="5.97338">
        <ele>326.99</ele>
        <time>2018-09-22T14:46:55Z</time>
      </trkpt>
      <trkpt lat="47.24633" lon="5.97405">
        <ele>328.43</ele>
        <time>2018-09-22T14:47:07Z</time>
      </trkpt>
      <trkpt lat="47.24626" lon="5.97434">
        <ele>328.91</ele>
        <time>2018-09-22T14:47:12Z</time>
      </trkpt>
      <trkpt lat="47.24623" lon="5.97445">
        <ele>329.39</ele>
        <time>2018-09-22T14:47:14Z</time>
      </trkpt>
      <trkpt lat="47.24621" lon="5.9745">
        <ele>329.39</ele>
        <time>2018-09-22T14:47:15Z</time>
      </trkpt>
      <trkpt lat="47.24598" lon="5.97531">
        <ele>332.75</ele>
        <time>2018-09-22T14:47:29Z</time>
      </trkpt>
      <trkpt lat="47.24598" lon="5.97537">
        <ele>333.23</ele>
        <time>2018-09-22T14:47:30Z</time>
      </trkpt>
      <trkpt lat="47.246" lon="5.97543">
        <ele>333.23</ele>
        <time>2018-09-22T14:47:31Z</time>
      </trkpt>
      <trkpt lat="47.24603" lon="5.97547">
        <ele>333.23</ele>
        <time>2018-09-22T14:47:32Z</time>
      </trkpt>
      <trkpt lat="47.24607" lon="5.97551">
        <ele>333.23</ele>
        <time>2018-09-22T14:47:33Z</time>
      </trkpt>
      <trkpt lat="47.24625" lon="5.97568">
        <ele>334.68</ele>
        <time>2018-09-22T14:47:38Z</time>
      </trkpt>
      <trkpt lat="47.24637" lon="5.97574">
        <ele>335.64</ele>
        <time>2018-09-22T14:47:41Z</time>
      </trkpt>
      <trkpt lat="47.24666" lon="5.97581">
        <ele>336.12</ele>
        <time>2018-09-22T14:47:48Z</time>
      </trkpt>
      <trkpt lat="47.2467" lon="5.97582">
        <ele>336.12</ele>
        <time>2018-09-22T14:47:49Z</time>
      </trkpt>
      <trkpt lat="47.24675" lon="5.97584">
        <ele>336.12</ele>
        <time>2018-09-22T14:47:50Z</time>
      </trkpt>
      <trkpt lat="47.24683" lon="5.97589">
        <ele>336.12</ele>
        <time>2018-09-22T14:47:52Z</time>
      </trkpt>
      <trkpt lat="47.24686" lon="5.97593">
        <ele>336.12</ele>
        <time>2018-09-22T14:47:53Z</time>
      </trkpt>
      <trkpt lat="47.24693" lon="5.976">
        <ele>336.12</ele>
        <time>2018-09-22T14:47:55Z</time>
      </trkpt>
      <trkpt lat="47.24697" lon="5.97603">
        <ele>336.12</ele>
        <time>2018-09-22T14:47:56Z</time>
      </trkpt>
      <trkpt lat="47.24702" lon="5.97604">
        <ele>336.12</ele>
        <time>2018-09-22T14:47:57Z</time>
      </trkpt>
      <trkpt lat="47.24706" lon="5.97604">
        <ele>335.64</ele>
        <time>2018-09-22T14:47:58Z</time>
      </trkpt>
      <trkpt lat="47.24711" lon="5.97604">
        <ele>335.64</ele>
        <time>2018-09-22T14:47:59Z</time>
      </trkpt>
      <trkpt lat="47.24716" lon="5.97605">
        <ele>335.16</ele>
        <time>2018-09-22T14:48:00Z</time>
      </trkpt>
      <trkpt lat="47.2472" lon="5.97609">
        <ele>335.16</ele>
        <time>2018-09-22T14:48:01Z</time>
      </trkpt>
      <trkpt lat="47.24722" lon="5.97614">
        <ele>335.16</ele>
        <time>2018-09-22T14:48:02Z</time>
      </trkpt>
      <trkpt lat="47.24724" lon="5.97619">
        <ele>335.16</ele>
        <time>2018-09-22T14:48:03Z</time>
      </trkpt>
      <trkpt lat="47.24725" lon="5.97625">
        <ele>335.64</ele>
        <time>2018-09-22T14:48:04Z</time>
      </trkpt>
      <trkpt lat="47.24725" lon="5.97631">
        <ele>335.64</ele>
        <time>2018-09-22T14:48:05Z</time>
      </trkpt>
      <trkpt lat="47.24725" lon="5.97681">
        <ele>335.16</ele>
        <time>2018-09-22T14:48:13Z</time>
      </trkpt>
      <trkpt lat="47.24726" lon="5.97689">
        <ele>334.68</ele>
        <time>2018-09-22T14:48:14Z</time>
      </trkpt>
      <trkpt lat="47.24728" lon="5.97697">
        <ele>333.71</ele>
        <time>2018-09-22T14:48:15Z</time>
      </trkpt>
      <trkpt lat="47.24731" lon="5.97705">
        <ele>333.23</ele>
        <time>2018-09-22T14:48:16Z</time>
      </trkpt>
      <trkpt lat="47.24735" lon="5.97713">
        <ele>332.75</ele>
        <time>2018-09-22T14:48:17Z</time>
      </trkpt>
      <trkpt lat="47.24738" lon="5.9772">
        <ele>332.27</ele>
        <time>2018-09-22T14:48:18Z</time>
      </trkpt>
      <trkpt lat="47.24742" lon="5.97725">
        <ele>331.79</ele>
        <time>2018-09-22T14:48:19Z</time>
      </trkpt>
      <trkpt lat="47.24747" lon="5.97728">
        <ele>331.31</ele>
        <time>2018-09-22T14:48:20Z</time>
      </trkpt>
      <trkpt lat="47.24752" lon="5.97726">
        <ele>330.83</ele>
        <time>2018-09-22T14:48:21Z</time>
      </trkpt>
      <trkpt lat="47.24756" lon="5.97721">
        <ele>330.83</ele>
        <time>2018-09-22T14:48:22Z</time>
      </trkpt>
      <trkpt lat="47.24761" lon="5.97717">
        <ele>330.35</ele>
        <time>2018-09-22T14:48:23Z</time>
      </trkpt>
      <trkpt lat="47.24766" lon="5.97712">
        <ele>330.35</ele>
        <time>2018-09-22T14:48:24Z</time>
      </trkpt>
      <trkpt lat="47.24771" lon="5.97709">
        <ele>329.87</ele>
        <time>2018-09-22T14:48:25Z</time>
      </trkpt>
      <trkpt lat="47.2482" lon="5.97685">
        <ele>326.99</ele>
        <time>2018-09-22T14:48:33Z</time>
      </trkpt>
      <trkpt lat="47.24827" lon="5.97683">
        <ele>326.5</ele>
        <time>2018-09-22T14:48:34Z</time>
      </trkpt>
      <trkpt lat="47.24851" lon="5.97674">
        <ele>324.1</ele>
        <time>2018-09-22T14:48:37Z</time>
      </trkpt>
      <trkpt lat="47.24877" lon="5.97662">
        <ele>321.7</ele>
        <time>2018-09-22T14:48:40Z</time>
      </trkpt>
      <trkpt lat="47.24886" lon="5.9766">
        <ele>320.74</ele>
        <time>2018-09-22T14:48:41Z</time>
      </trkpt>
      <trkpt lat="47.24907" lon="5.97656">
        <ele>317.85</ele>
        <time>2018-09-22T14:48:43Z</time>
      </trkpt>
      <trkpt lat="47.24917" lon="5.97652">
        <ele>316.89</ele>
        <time>2018-09-22T14:48:44Z</time>
      </trkpt>
      <trkpt lat="47.24926" lon="5.97645">
        <ele>315.93</ele>
        <time>2018-09-22T14:48:45Z</time>
      </trkpt>
      <trkpt lat="47.24933" lon="5.97634">
        <ele>315.93</ele>
        <time>2018-09-22T14:48:46Z</time>
      </trkpt>
      <trkpt lat="47.24937" lon="5.97621">
        <ele>314.97</ele>
        <time>2018-09-22T14:48:47Z</time>
      </trkpt>
      <trkpt lat="47.2494" lon="5.97607">
        <ele>314.49</ele>
        <time>2018-09-22T14:48:48Z</time>
      </trkpt>
      <trkpt lat="47.24942" lon="5.97593">
        <ele>314.97</ele>
        <time>2018-09-22T14:48:49Z</time>
      </trkpt>
      <trkpt lat="47.24943" lon="5.9758">
        <ele>314.49</ele>
        <time>2018-09-22T14:48:50Z</time>
      </trkpt>
      <trkpt lat="47.24942" lon="5.97566">
        <ele>314.49</ele>
        <time>2018-09-22T14:48:51Z</time>
      </trkpt>
      <trkpt lat="47.2494" lon="5.97541">
        <ele>313.53</ele>
        <time>2018-09-22T14:48:53Z</time>
      </trkpt>
      <trkpt lat="47.2494" lon="5.97528">
        <ele>313.53</ele>
        <time>2018-09-22T14:48:54Z</time>
      </trkpt>
      <trkpt lat="47.24943" lon="5.97517">
        <ele>313.05</ele>
        <time>2018-09-22T14:48:55Z</time>
      </trkpt>
      <trkpt lat="47.24947" lon="5.97507">
        <ele>313.05</ele>
        <time>2018-09-22T14:48:56Z</time>
      </trkpt>
      <trkpt lat="47.24953" lon="5.97497">
        <ele>312.57</ele>
        <time>2018-09-22T14:48:57Z</time>
      </trkpt>
      <trkpt lat="47.24957" lon="5.97487">
        <ele>312.57</ele>
        <time>2018-09-22T14:48:58Z</time>
      </trkpt>
      <trkpt lat="47.24958" lon="5.97476">
        <ele>312.09</ele>
        <time>2018-09-22T14:48:59Z</time>
      </trkpt>
      <trkpt lat="47.24957" lon="5.97466">
        <ele>312.57</ele>
        <time>2018-09-22T14:49:00Z</time>
      </trkpt>
      <trkpt lat="47.24954" lon="5.97457">
        <ele>313.05</ele>
        <time>2018-09-22T14:49:01Z</time>
      </trkpt>
      <trkpt lat="47.24951" lon="5.97449">
        <ele>313.05</ele>
        <time>2018-09-22T14:49:02Z</time>
      </trkpt>
      <trkpt lat="47.24947" lon="5.97442">
        <ele>313.05</ele>
        <time>2018-09-22T14:49:03Z</time>
      </trkpt>
      <trkpt lat="47.24944" lon="5.97435">
        <ele>313.05</ele>
        <time>2018-09-22T14:49:04Z</time>
      </trkpt>
      <trkpt lat="47.24943" lon="5.97427">
        <ele>313.53</ele>
        <time>2018-09-22T14:49:05Z</time>
      </trkpt>
      <trkpt lat="47.24945" lon="5.9742">
        <ele>313.05</ele>
        <time>2018-09-22T14:49:06Z</time>
      </trkpt>
      <trkpt lat="47.2495" lon="5.97418">
        <ele>313.05</ele>
        <time>2018-09-22T14:49:07Z</time>
      </trkpt>
      <trkpt lat="47.24955" lon="5.97421">
        <ele>313.05</ele>
        <time>2018-09-22T14:49:08Z</time>
      </trkpt>
      <trkpt lat="47.24959" lon="5.97428">
        <ele>312.57</ele>
        <time>2018-09-22T14:49:09Z</time>
      </trkpt>
      <trkpt lat="47.24962" lon="5.97435">
        <ele>312.57</ele>
        <time>2018-09-22T14:49:10Z</time>
      </trkpt>
      <trkpt lat="47.24966" lon="5.97441">
        <ele>312.09</ele>
        <time>2018-09-22T14:49:11Z</time>
      </trkpt>
      <trkpt lat="47.24978" lon="5.97473">
        <ele>313.53</ele>
        <time>2018-09-22T14:49:16Z</time>
      </trkpt>
      <trkpt lat="47.2498" lon="5.97478">
        <ele>313.53</ele>
        <time>2018-09-22T14:49:17Z</time>
      </trkpt>
      <trkpt lat="47.24983" lon="5.97483">
        <ele>313.53</ele>
        <time>2018-09-22T14:49:18Z</time>
      </trkpt>
      <trkpt lat="47.24985" lon="5.97485">
        <ele>314.49</ele>
        <time>2018-09-22T14:49:19Z</time>
      </trkpt>
      <trkpt lat="47.24987" lon="5.97486">
        <ele>314.97</ele>
        <time>2018-09-22T14:49:20Z</time>
      </trkpt>
      <trkpt lat="47.2499" lon="5.97487">
        <ele>315.45</ele>
        <time>2018-09-22T14:49:21Z</time>
      </trkpt>
      <trkpt lat="47.24992" lon="5.97489">
        <ele>315.93</ele>
        <time>2018-09-22T14:49:22Z</time>
      </trkpt>
      <trkpt lat="47.24994" lon="5.97491">
        <ele>316.89</ele>
        <time>2018-09-22T14:49:23Z</time>
      </trkpt>
      <trkpt lat="47.24996" lon="5.97495">
        <ele>316.89</ele>
        <time>2018-09-22T14:49:24Z</time>
      </trkpt>
      <trkpt lat="47.24998" lon="5.97498">
        <ele>317.37</ele>
        <time>2018-09-22T14:49:25Z</time>
      </trkpt>
      <trkpt lat="47.25" lon="5.97502">
        <ele>317.85</ele>
        <time>2018-09-22T14:49:26Z</time>
      </trkpt>
      <trkpt lat="47.2503" lon="5.97528">
        <ele>320.74</ele>
        <time>2018-09-22T14:49:39Z</time>
      </trkpt>
      <trkpt lat="47.25079" lon="5.97496">
        <ele>321.22</ele>
        <time>2018-09-22T14:49:52Z</time>
      </trkpt>
      <trkpt lat="47.25081" lon="5.97499">
        <ele>321.7</ele>
        <time>2018-09-22T14:49:53Z</time>
      </trkpt>
      <trkpt lat="47.25081" lon="5.97503">
        <ele>322.66</ele>
        <time>2018-09-22T14:49:54Z</time>
      </trkpt>
      <trkpt lat="47.25079" lon="5.97507">
        <ele>322.66</ele>
        <time>2018-09-22T14:49:55Z</time>
      </trkpt>
      <trkpt lat="47.25076" lon="5.97512">
        <ele>322.66</ele>
        <time>2018-09-22T14:49:56Z</time>
      </trkpt>
      <trkpt lat="47.25043" lon="5.9757">
        <ele>325.06</ele>
        <time>2018-09-22T14:50:10Z</time>
      </trkpt>
      <trkpt lat="47.2502" lon="5.97643">
        <ele>325.54</ele>
        <time>2018-09-22T14:50:25Z</time>
      </trkpt>
      <trkpt lat="47.25023" lon="5.97653">
        <ele>325.54</ele>
        <time>2018-09-22T14:50:27Z</time>
      </trkpt>
      <trkpt lat="47.25025" lon="5.97655">
        <ele>325.54</ele>
        <time>2018-09-22T14:50:28Z</time>
      </trkpt>
      <trkpt lat="47.25028" lon="5.97657">
        <ele>325.54</ele>
        <time>2018-09-22T14:50:29Z</time>
      </trkpt>
      <trkpt lat="47.25049" lon="5.97672">
        <ele>328.43</ele>
        <time>2018-09-22T14:50:41Z</time>
      </trkpt>
      <trkpt lat="47.25071" lon="5.97696">
        <ele>331.79</ele>
        <time>2018-09-22T14:50:56Z</time>
      </trkpt>
      <trkpt lat="47.25092" lon="5.97712">
        <ele>334.68</ele>
        <time>2018-09-22T14:51:09Z</time>
      </trkpt>
      <trkpt lat="47.25112" lon="5.97727">
        <ele>337.08</ele>
        <time>2018-09-22T14:51:22Z</time>
      </trkpt>
      <trkpt lat="47.25124" lon="5.97734">
        <ele>338.52</ele>
        <time>2018-09-22T14:51:29Z</time>
      </trkpt>
      <trkpt lat="47.25126" lon="5.97736">
        <ele>339</ele>
        <time>2018-09-22T14:51:30Z</time>
      </trkpt>
      <trkpt lat="47.25127" lon="5.97736">
        <ele>339</ele>
        <time>2018-09-22T14:51:31Z</time>
      </trkpt>
      <trkpt lat="47.25128" lon="5.97739">
        <ele>339</ele>
        <time>2018-09-22T14:51:32Z</time>
      </trkpt>
      <trkpt lat="47.2513" lon="5.97741">
        <ele>339.48</ele>
        <time>2018-09-22T14:51:33Z</time>
      </trkpt>
      <trkpt lat="47.2513" lon="5.97744">
        <ele>339.48</ele>
        <time>2018-09-22T14:51:34Z</time>
      </trkpt>
      <trkpt lat="47.25129" lon="5.97746">
        <ele>339.48</ele>
        <time>2018-09-22T14:51:35Z</time>
      </trkpt>
      <trkpt lat="47.25128" lon="5.97748">
        <ele>339.96</ele>
        <time>2018-09-22T14:51:36Z</time>
      </trkpt>
      <trkpt lat="47.25127" lon="5.9775">
        <ele>339.96</ele>
        <time>2018-09-22T14:51:37Z</time>
      </trkpt>
      <trkpt lat="47.25126" lon="5.97752">
        <ele>339.48</ele>
        <time>2018-09-22T14:51:38Z</time>
      </trkpt>
      <trkpt lat="47.25126" lon="5.97756">
        <ele>339.48</ele>
        <time>2018-09-22T14:51:39Z</time>
      </trkpt>
      <trkpt lat="47.25125" lon="5.97759">
        <ele>339.48</ele>
        <time>2018-09-22T14:51:40Z</time>
      </trkpt>
      <trkpt lat="47.25125" lon="5.97762">
        <ele>339.48</ele>
        <time>2018-09-22T14:51:41Z</time>
      </trkpt>
      <trkpt lat="47.25124" lon="5.97766">
        <ele>339.48</ele>
        <time>2018-09-22T14:51:42Z</time>
      </trkpt>
      <trkpt lat="47.25124" lon="5.97771">
        <ele>339.48</ele>
        <time>2018-09-22T14:51:43Z</time>
      </trkpt>
      <trkpt lat="47.25113" lon="5.97801">
        <ele>338.04</ele>
        <time>2018-09-22T14:51:50Z</time>
      </trkpt>
      <trkpt lat="47.25113" lon="5.97805">
        <ele>338.04</ele>
        <time>2018-09-22T14:51:51Z</time>
      </trkpt>
      <trkpt lat="47.25114" lon="5.97808">
        <ele>338.52</ele>
        <time>2018-09-22T14:51:52Z</time>
      </trkpt>
      <trkpt lat="47.25115" lon="5.97812">
        <ele>338.52</ele>
        <time>2018-09-22T14:51:53Z</time>
      </trkpt>
      <trkpt lat="47.25115" lon="5.97815">
        <ele>338.52</ele>
        <time>2018-09-22T14:51:54Z</time>
      </trkpt>
      <trkpt lat="47.25113" lon="5.97818">
        <ele>338.52</ele>
        <time>2018-09-22T14:51:55Z</time>
      </trkpt>
      <trkpt lat="47.25112" lon="5.97821">
        <ele>338.04</ele>
        <time>2018-09-22T14:51:56Z</time>
      </trkpt>
      <trkpt lat="47.2511" lon="5.97825">
        <ele>337.56</ele>
        <time>2018-09-22T14:51:57Z</time>
      </trkpt>
      <trkpt lat="47.25109" lon="5.9783">
        <ele>337.08</ele>
        <time>2018-09-22T14:51:58Z</time>
      </trkpt>
      <trkpt lat="47.25114" lon="5.9784">
        <ele>337.56</ele>
        <time>2018-09-22T14:52:01Z</time>
      </trkpt>
      <trkpt lat="47.2512" lon="5.97847">
        <ele>339</ele>
        <time>2018-09-22T14:52:05Z</time>
      </trkpt>
      <trkpt lat="47.25123" lon="5.97868">
        <ele>339</ele>
        <time>2018-09-22T14:52:11Z</time>
      </trkpt>
      <trkpt lat="47.25126" lon="5.97881">
        <ele>339.96</ele>
        <time>2018-09-22T14:52:15Z</time>
      </trkpt>
      <trkpt lat="47.25148" lon="5.97902">
        <ele>341.89</ele>
        <time>2018-09-22T14:52:27Z</time>
      </trkpt>
      <trkpt lat="47.2517" lon="5.97922">
        <ele>344.29</ele>
        <time>2018-09-22T14:52:38Z</time>
      </trkpt>
      <trkpt lat="47.25174" lon="5.97926">
        <ele>344.77</ele>
        <time>2018-09-22T14:52:40Z</time>
      </trkpt>
      <trkpt lat="47.25198" lon="5.97942">
        <ele>347.17</ele>
        <time>2018-09-22T14:52:51Z</time>
      </trkpt>
      <trkpt lat="47.252" lon="5.97943">
        <ele>347.17</ele>
        <time>2018-09-22T14:52:52Z</time>
      </trkpt>
      <trkpt lat="47.25215" lon="5.9795">
        <ele>348.62</ele>
        <time>2018-09-22T14:52:58Z</time>
      </trkpt>
      <trkpt lat="47.25226" lon="5.97964">
        <ele>349.58</ele>
        <time>2018-09-22T14:53:04Z</time>
      </trkpt>
      <trkpt lat="47.25234" lon="5.97967">
        <ele>350.54</ele>
        <time>2018-09-22T14:53:07Z</time>
      </trkpt>
      <trkpt lat="47.25251" lon="5.97969">
        <ele>352.46</ele>
        <time>2018-09-22T14:53:15Z</time>
      </trkpt>
      <trkpt lat="47.25253" lon="5.9797">
        <ele>352.46</ele>
        <time>2018-09-22T14:53:16Z</time>
      </trkpt>
      <trkpt lat="47.25279" lon="5.97985">
        <ele>355.83</ele>
        <time>2018-09-22T14:53:28Z</time>
      </trkpt>
      <trkpt lat="47.2529" lon="5.98002">
        <ele>357.27</ele>
        <time>2018-09-22T14:53:36Z</time>
      </trkpt>
      <trkpt lat="47.25295" lon="5.98012">
        <ele>358.23</ele>
        <time>2018-09-22T14:53:41Z</time>
      </trkpt>
      <trkpt lat="47.25304" lon="5.98032">
        <ele>360.63</ele>
        <time>2018-09-22T14:53:52Z</time>
      </trkpt>
      <trkpt lat="47.25307" lon="5.98038">
        <ele>361.59</ele>
        <time>2018-09-22T14:53:59Z</time>
      </trkpt>
      <trkpt lat="47.25313" lon="5.98042">
        <ele>362.07</ele>
        <time>2018-09-22T14:54:05Z</time>
      </trkpt>
      <trkpt lat="47.25316" lon="5.98055">
        <ele>361.11</ele>
        <time>2018-09-22T14:54:09Z</time>
      </trkpt>
      <trkpt lat="47.25337" lon="5.98074">
        <ele>363.04</ele>
        <time>2018-09-22T14:54:20Z</time>
      </trkpt>
      <trkpt lat="47.25369" lon="5.98102">
        <ele>365.44</ele>
        <time>2018-09-22T14:54:34Z</time>
      </trkpt>
      <trkpt lat="47.25395" lon="5.98132">
        <ele>366.88</ele>
        <time>2018-09-22T14:54:46Z</time>
      </trkpt>
      <trkpt lat="47.2543" lon="5.98175">
        <ele>367.84</ele>
        <time>2018-09-22T14:55:00Z</time>
      </trkpt>
      <trkpt lat="47.25435" lon="5.9818">
        <ele>367.36</ele>
        <time>2018-09-22T14:55:02Z</time>
      </trkpt>
      <trkpt lat="47.25445" lon="5.98184">
        <ele>367.84</ele>
        <time>2018-09-22T14:55:05Z</time>
      </trkpt>
      <trkpt lat="47.25456" lon="5.98197">
        <ele>367.84</ele>
        <time>2018-09-22T14:55:09Z</time>
      </trkpt>
      <trkpt lat="47.2549" lon="5.98237">
        <ele>366.88</ele>
        <time>2018-09-22T14:55:20Z</time>
      </trkpt>
      <trkpt lat="47.25502" lon="5.98247">
        <ele>366.4</ele>
        <time>2018-09-22T14:55:23Z</time>
      </trkpt>
      <trkpt lat="47.25506" lon="5.9825">
        <ele>365.92</ele>
        <time>2018-09-22T14:55:24Z</time>
      </trkpt>
      <trkpt lat="47.25515" lon="5.98257">
        <ele>365.92</ele>
        <time>2018-09-22T14:55:26Z</time>
      </trkpt>
      <trkpt lat="47.25579" lon="5.98301">
        <ele>362.55</ele>
        <time>2018-09-22T14:55:39Z</time>
      </trkpt>
      <trkpt lat="47.25592" lon="5.98308">
        <ele>361.59</ele>
        <time>2018-09-22T14:55:41Z</time>
      </trkpt>
      <trkpt lat="47.25598" lon="5.98312">
        <ele>361.59</ele>
        <time>2018-09-22T14:55:42Z</time>
      </trkpt>
      <trkpt lat="47.25638" lon="5.98337">
        <ele>359.19</ele>
        <time>2018-09-22T14:55:48Z</time>
      </trkpt>
      <trkpt lat="47.25684" lon="5.98363">
        <ele>356.31</ele>
        <time>2018-09-22T14:55:54Z</time>
      </trkpt>
      <trkpt lat="47.25693" lon="5.98368">
        <ele>355.83</ele>
        <time>2018-09-22T14:55:55Z</time>
      </trkpt>
      <trkpt lat="47.25708" lon="5.98377">
        <ele>354.86</ele>
        <time>2018-09-22T14:55:57Z</time>
      </trkpt>
      <trkpt lat="47.2574" lon="5.984">
        <ele>353.42</ele>
        <time>2018-09-22T14:56:01Z</time>
      </trkpt>
      <trkpt lat="47.25746" lon="5.98408">
        <ele>353.42</ele>
        <time>2018-09-22T14:56:02Z</time>
      </trkpt>
      <trkpt lat="47.25752" lon="5.98418">
        <ele>352.46</ele>
        <time>2018-09-22T14:56:03Z</time>
      </trkpt>
      <trkpt lat="47.25757" lon="5.9843">
        <ele>351.98</ele>
        <time>2018-09-22T14:56:04Z</time>
      </trkpt>
      <trkpt lat="47.25762" lon="5.98442">
        <ele>351.02</ele>
        <time>2018-09-22T14:56:05Z</time>
      </trkpt>
      <trkpt lat="47.25783" lon="5.98489">
        <ele>348.13</ele>
        <time>2018-09-22T14:56:09Z</time>
      </trkpt>
      <trkpt lat="47.25787" lon="5.985">
        <ele>347.17</ele>
        <time>2018-09-22T14:56:10Z</time>
      </trkpt>
      <trkpt lat="47.25793" lon="5.98508">
        <ele>347.17</ele>
        <time>2018-09-22T14:56:11Z</time>
      </trkpt>
      <trkpt lat="47.25799" lon="5.98513">
        <ele>346.69</ele>
        <time>2018-09-22T14:56:12Z</time>
      </trkpt>
      <trkpt lat="47.25806" lon="5.98514">
        <ele>346.69</ele>
        <time>2018-09-22T14:56:13Z</time>
      </trkpt>
      <trkpt lat="47.25811" lon="5.98512">
        <ele>347.65</ele>
        <time>2018-09-22T14:56:14Z</time>
      </trkpt>
      <trkpt lat="47.25815" lon="5.98509">
        <ele>349.58</ele>
        <time>2018-09-22T14:56:15Z</time>
      </trkpt>
      <trkpt lat="47.25818" lon="5.98507">
        <ele>350.54</ele>
        <time>2018-09-22T14:56:16Z</time>
      </trkpt>
      <trkpt lat="47.25821" lon="5.98505">
        <ele>350.54</ele>
        <time>2018-09-22T14:56:17Z</time>
      </trkpt>
      <trkpt lat="47.25841" lon="5.98496">
        <ele>353.9</ele>
        <time>2018-09-22T14:56:24Z</time>
      </trkpt>
      <trkpt lat="47.25871" lon="5.98487">
        <ele>354.86</ele>
        <time>2018-09-22T14:56:33Z</time>
      </trkpt>
      <trkpt lat="47.25875" lon="5.98484">
        <ele>355.34</ele>
        <time>2018-09-22T14:56:34Z</time>
      </trkpt>
      <trkpt lat="47.25878" lon="5.98481">
        <ele>355.34</ele>
        <time>2018-09-22T14:56:35Z</time>
      </trkpt>
      <trkpt lat="47.25881" lon="5.98477">
        <ele>355.83</ele>
        <time>2018-09-22T14:56:36Z</time>
      </trkpt>
      <trkpt lat="47.25883" lon="5.98472">
        <ele>355.83</ele>
        <time>2018-09-22T14:56:37Z</time>
      </trkpt>
      <trkpt lat="47.25885" lon="5.98468">
        <ele>355.83</ele>
        <time>2018-09-22T14:56:38Z</time>
      </trkpt>
      <trkpt lat="47.25888" lon="5.98463">
        <ele>355.83</ele>
        <time>2018-09-22T14:56:39Z</time>
      </trkpt>
      <trkpt lat="47.25896" lon="5.98447">
        <ele>355.34</ele>
        <time>2018-09-22T14:56:42Z</time>
      </trkpt>
      <trkpt lat="47.259" lon="5.98442">
        <ele>354.86</ele>
        <time>2018-09-22T14:56:43Z</time>
      </trkpt>
      <trkpt lat="47.25905" lon="5.98437">
        <ele>354.38</ele>
        <time>2018-09-22T14:56:44Z</time>
      </trkpt>
      <trkpt lat="47.2591" lon="5.98433">
        <ele>353.42</ele>
        <time>2018-09-22T14:56:45Z</time>
      </trkpt>
      <trkpt lat="47.25916" lon="5.98429">
        <ele>352.94</ele>
        <time>2018-09-22T14:56:46Z</time>
      </trkpt>
      <trkpt lat="47.25928" lon="5.98422">
        <ele>352.46</ele>
        <time>2018-09-22T14:56:48Z</time>
      </trkpt>
      <trkpt lat="47.25977" lon="5.98406">
        <ele>352.46</ele>
        <time>2018-09-22T14:56:56Z</time>
      </trkpt>
      <trkpt lat="47.25982" lon="5.98403">
        <ele>352.46</ele>
        <time>2018-09-22T14:56:57Z</time>
      </trkpt>
      <trkpt lat="47.25992" lon="5.98395">
        <ele>351.98</ele>
        <time>2018-09-22T14:56:59Z</time>
      </trkpt>
      <trkpt lat="47.25997" lon="5.9839">
        <ele>351.98</ele>
        <time>2018-09-22T14:57:00Z</time>
      </trkpt>
      <trkpt lat="47.26002" lon="5.98388">
        <ele>351.02</ele>
        <time>2018-09-22T14:57:01Z</time>
      </trkpt>
      <trkpt lat="47.26009" lon="5.98389">
        <ele>351.02</ele>
        <time>2018-09-22T14:57:02Z</time>
      </trkpt>
      <trkpt lat="47.26015" lon="5.98393">
        <ele>350.54</ele>
        <time>2018-09-22T14:57:03Z</time>
      </trkpt>
      <trkpt lat="47.2602" lon="5.984">
        <ele>350.54</ele>
        <time>2018-09-22T14:57:04Z</time>
      </trkpt>
      <trkpt lat="47.26024" lon="5.98408">
        <ele>350.54</ele>
        <time>2018-09-22T14:57:05Z</time>
      </trkpt>
      <trkpt lat="47.26059" lon="5.98474">
        <ele>347.17</ele>
        <time>2018-09-22T14:57:13Z</time>
      </trkpt>
      <trkpt lat="47.26064" lon="5.98482">
        <ele>346.21</ele>
        <time>2018-09-22T14:57:14Z</time>
      </trkpt>
      <trkpt lat="47.26081" lon="5.98506">
        <ele>344.77</ele>
        <time>2018-09-22T14:57:17Z</time>
      </trkpt>
      <trkpt lat="47.26101" lon="5.98531">
        <ele>344.29</ele>
        <time>2018-09-22T14:57:21Z</time>
      </trkpt>
      <trkpt lat="47.26147" lon="5.98596">
        <ele>344.29</ele>
        <time>2018-09-22T14:57:31Z</time>
      </trkpt>
      <trkpt lat="47.26196" lon="5.98649">
        <ele>346.69</ele>
        <time>2018-09-22T14:57:42Z</time>
      </trkpt>
      <trkpt lat="47.26203" lon="5.98657">
        <ele>347.17</ele>
        <time>2018-09-22T14:57:44Z</time>
      </trkpt>
      <trkpt lat="47.26206" lon="5.98661">
        <ele>347.65</ele>
        <time>2018-09-22T14:57:45Z</time>
      </trkpt>
      <trkpt lat="47.26213" lon="5.98669">
        <ele>348.13</ele>
        <time>2018-09-22T14:57:47Z</time>
      </trkpt>
      <trkpt lat="47.26263" lon="5.98735">
        <ele>349.58</ele>
        <time>2018-09-22T14:58:00Z</time>
      </trkpt>
      <trkpt lat="47.26322" lon="5.9881">
        <ele>348.62</ele>
        <time>2018-09-22T14:58:14Z</time>
      </trkpt>
      <trkpt lat="47.26328" lon="5.98816">
        <ele>348.13</ele>
        <time>2018-09-22T14:58:15Z</time>
      </trkpt>
      <trkpt lat="47.26334" lon="5.9882">
        <ele>347.17</ele>
        <time>2018-09-22T14:58:16Z</time>
      </trkpt>
      <trkpt lat="47.26341" lon="5.98824">
        <ele>347.17</ele>
        <time>2018-09-22T14:58:17Z</time>
      </trkpt>
      <trkpt lat="47.26347" lon="5.98826">
        <ele>347.17</ele>
        <time>2018-09-22T14:58:18Z</time>
      </trkpt>
      <trkpt lat="47.26354" lon="5.98828">
        <ele>347.17</ele>
        <time>2018-09-22T14:58:19Z</time>
      </trkpt>
      <trkpt lat="47.26359" lon="5.9883">
        <ele>347.65</ele>
        <time>2018-09-22T14:58:20Z</time>
      </trkpt>
      <trkpt lat="47.26365" lon="5.98833">
        <ele>348.13</ele>
        <time>2018-09-22T14:58:21Z</time>
      </trkpt>
      <trkpt lat="47.2637" lon="5.98836">
        <ele>348.62</ele>
        <time>2018-09-22T14:58:22Z</time>
      </trkpt>
      <trkpt lat="47.26375" lon="5.98839">
        <ele>348.62</ele>
        <time>2018-09-22T14:58:23Z</time>
      </trkpt>
      <trkpt lat="47.26379" lon="5.98843">
        <ele>349.1</ele>
        <time>2018-09-22T14:58:24Z</time>
      </trkpt>
      <trkpt lat="47.26411" lon="5.98872">
        <ele>349.58</ele>
        <time>2018-09-22T14:58:31Z</time>
      </trkpt>
      <trkpt lat="47.26438" lon="5.98888">
        <ele>350.06</ele>
        <time>2018-09-22T14:58:37Z</time>
      </trkpt>
      <trkpt lat="47.26443" lon="5.98891">
        <ele>350.06</ele>
        <time>2018-09-22T14:58:38Z</time>
      </trkpt>
      <trkpt lat="47.26448" lon="5.98893">
        <ele>350.54</ele>
        <time>2018-09-22T14:58:39Z</time>
      </trkpt>
      <trkpt lat="47.26454" lon="5.98896">
        <ele>350.06</ele>
        <time>2018-09-22T14:58:40Z</time>
      </trkpt>
      <trkpt lat="47.26459" lon="5.98899">
        <ele>350.06</ele>
        <time>2018-09-22T14:58:41Z</time>
      </trkpt>
      <trkpt lat="47.26528" lon="5.98944">
        <ele>349.1</ele>
        <time>2018-09-22T14:58:54Z</time>
      </trkpt>
      <trkpt lat="47.26587" lon="5.98994">
        <ele>346.69</ele>
        <time>2018-09-22T14:59:05Z</time>
      </trkpt>
      <trkpt lat="47.26599" lon="5.99003">
        <ele>345.73</ele>
        <time>2018-09-22T14:59:07Z</time>
      </trkpt>
      <trkpt lat="47.2661" lon="5.99013">
        <ele>345.25</ele>
        <time>2018-09-22T14:59:09Z</time>
      </trkpt>
      <trkpt lat="47.26616" lon="5.99017">
        <ele>344.77</ele>
        <time>2018-09-22T14:59:10Z</time>
      </trkpt>
      <trkpt lat="47.26629" lon="5.99025">
        <ele>343.33</ele>
        <time>2018-09-22T14:59:12Z</time>
      </trkpt>
      <trkpt lat="47.26662" lon="5.99048">
        <ele>339.48</ele>
        <time>2018-09-22T14:59:17Z</time>
      </trkpt>
      <trkpt lat="47.26669" lon="5.99052">
        <ele>339.48</ele>
        <time>2018-09-22T14:59:18Z</time>
      </trkpt>
      <trkpt lat="47.26692" lon="5.99067">
        <ele>337.56</ele>
        <time>2018-09-22T14:59:21Z</time>
      </trkpt>
      <trkpt lat="47.26699" lon="5.99073">
        <ele>337.56</ele>
        <time>2018-09-22T14:59:22Z</time>
      </trkpt>
      <trkpt lat="47.26705" lon="5.99081">
        <ele>337.08</ele>
        <time>2018-09-22T14:59:23Z</time>
      </trkpt>
      <trkpt lat="47.26727" lon="5.99111">
        <ele>336.6</ele>
        <time>2018-09-22T14:59:27Z</time>
      </trkpt>
      <trkpt lat="47.2673" lon="5.99116">
        <ele>337.08</ele>
        <time>2018-09-22T14:59:28Z</time>
      </trkpt>
      <trkpt lat="47.26734" lon="5.99122">
        <ele>337.56</ele>
        <time>2018-09-22T14:59:29Z</time>
      </trkpt>
      <trkpt lat="47.26738" lon="5.99127">
        <ele>337.56</ele>
        <time>2018-09-22T14:59:30Z</time>
      </trkpt>
      <trkpt lat="47.26742" lon="5.99133">
        <ele>337.56</ele>
        <time>2018-09-22T14:59:31Z</time>
      </trkpt>
      <trkpt lat="47.26744" lon="5.99139">
        <ele>338.04</ele>
        <time>2018-09-22T14:59:32Z</time>
      </trkpt>
      <trkpt lat="47.26747" lon="5.99146">
        <ele>338.04</ele>
        <time>2018-09-22T14:59:33Z</time>
      </trkpt>
      <trkpt lat="47.2675" lon="5.99153">
        <ele>338.52</ele>
        <time>2018-09-22T14:59:34Z</time>
      </trkpt>
      <trkpt lat="47.26771" lon="5.99198">
        <ele>337.56</ele>
        <time>2018-09-22T14:59:41Z</time>
      </trkpt>
      <trkpt lat="47.26773" lon="5.99204">
        <ele>337.56</ele>
        <time>2018-09-22T14:59:42Z</time>
      </trkpt>
      <trkpt lat="47.26781" lon="5.99234">
        <ele>336.6</ele>
        <time>2018-09-22T14:59:46Z</time>
      </trkpt>
      <trkpt lat="47.26784" lon="5.99241">
        <ele>337.08</ele>
        <time>2018-09-22T14:59:47Z</time>
      </trkpt>
      <trkpt lat="47.26786" lon="5.99247">
        <ele>337.08</ele>
        <time>2018-09-22T14:59:48Z</time>
      </trkpt>
      <trkpt lat="47.26811" lon="5.99289">
        <ele>337.56</ele>
        <time>2018-09-22T14:59:56Z</time>
      </trkpt>
      <trkpt lat="47.26814" lon="5.99295">
        <ele>337.56</ele>
        <time>2018-09-22T14:59:57Z</time>
      </trkpt>
      <trkpt lat="47.26848" lon="5.99349">
        <ele>339.48</ele>
        <time>2018-09-22T15:00:08Z</time>
      </trkpt>
      <trkpt lat="47.26852" lon="5.99354">
        <ele>339.96</ele>
        <time>2018-09-22T15:00:09Z</time>
      </trkpt>
      <trkpt lat="47.26855" lon="5.99359">
        <ele>339.96</ele>
        <time>2018-09-22T15:00:10Z</time>
      </trkpt>
      <trkpt lat="47.26876" lon="5.99404">
        <ele>340.92</ele>
        <time>2018-09-22T15:00:20Z</time>
      </trkpt>
      <trkpt lat="47.269" lon="5.9946">
        <ele>341.41</ele>
        <time>2018-09-22T15:00:32Z</time>
      </trkpt>
      <trkpt lat="47.2692" lon="5.99525">
        <ele>342.85</ele>
        <time>2018-09-22T15:00:44Z</time>
      </trkpt>
      <trkpt lat="47.26921" lon="5.9953">
        <ele>343.33</ele>
        <time>2018-09-22T15:00:45Z</time>
      </trkpt>
      <trkpt lat="47.26923" lon="5.99534">
        <ele>343.33</ele>
        <time>2018-09-22T15:00:46Z</time>
      </trkpt>
      <trkpt lat="47.26924" lon="5.9954">
        <ele>343.33</ele>
        <time>2018-09-22T15:00:47Z</time>
      </trkpt>
      <trkpt lat="47.26925" lon="5.99545">
        <ele>343.81</ele>
        <time>2018-09-22T15:00:48Z</time>
      </trkpt>
      <trkpt lat="47.26928" lon="5.9955">
        <ele>343.81</ele>
        <time>2018-09-22T15:00:49Z</time>
      </trkpt>
      <trkpt lat="47.26946" lon="5.9961">
        <ele>344.29</ele>
        <time>2018-09-22T15:00:59Z</time>
      </trkpt>
      <trkpt lat="47.26969" lon="5.99698">
        <ele>342.85</ele>
        <time>2018-09-22T15:01:12Z</time>
      </trkpt>
      <trkpt lat="47.26981" lon="5.99756">
        <ele>341.41</ele>
        <time>2018-09-22T15:01:20Z</time>
      </trkpt>
      <trkpt lat="47.26984" lon="5.99771">
        <ele>341.41</ele>
        <time>2018-09-22T15:01:22Z</time>
      </trkpt>
      <trkpt lat="47.26986" lon="5.99778">
        <ele>340.92</ele>
        <time>2018-09-22T15:01:23Z</time>
      </trkpt>
      <trkpt lat="47.2699" lon="5.99783">
        <ele>340.44</ele>
        <time>2018-09-22T15:01:24Z</time>
      </trkpt>
      <trkpt lat="47.26995" lon="5.99787">
        <ele>339.96</ele>
        <time>2018-09-22T15:01:25Z</time>
      </trkpt>
      <trkpt lat="47.27001" lon="5.9979">
        <ele>339.48</ele>
        <time>2018-09-22T15:01:26Z</time>
      </trkpt>
      <trkpt lat="47.27007" lon="5.99791">
        <ele>338.52</ele>
        <time>2018-09-22T15:01:27Z</time>
      </trkpt>
      <trkpt lat="47.27014" lon="5.99794">
        <ele>338.52</ele>
        <time>2018-09-22T15:01:28Z</time>
      </trkpt>
      <trkpt lat="47.27021" lon="5.99798">
        <ele>338.04</ele>
        <time>2018-09-22T15:01:29Z</time>
      </trkpt>
      <trkpt lat="47.27033" lon="5.99808">
        <ele>338.04</ele>
        <time>2018-09-22T15:01:31Z</time>
      </trkpt>
      <trkpt lat="47.27038" lon="5.9981">
        <ele>338.04</ele>
        <time>2018-09-22T15:01:32Z</time>
      </trkpt>
      <trkpt lat="47.27043" lon="5.99811">
        <ele>338.52</ele>
        <time>2018-09-22T15:01:33Z</time>
      </trkpt>
      <trkpt lat="47.27048" lon="5.99811">
        <ele>339</ele>
        <time>2018-09-22T15:01:34Z</time>
      </trkpt>
      <trkpt lat="47.27052" lon="5.9981">
        <ele>339</ele>
        <time>2018-09-22T15:01:35Z</time>
      </trkpt>
      <trkpt lat="47.27057" lon="5.99808">
        <ele>338.52</ele>
        <time>2018-09-22T15:01:36Z</time>
      </trkpt>
      <trkpt lat="47.27062" lon="5.99804">
        <ele>338.52</ele>
        <time>2018-09-22T15:01:37Z</time>
      </trkpt>
      <trkpt lat="47.27067" lon="5.99799">
        <ele>338.04</ele>
        <time>2018-09-22T15:01:38Z</time>
      </trkpt>
      <trkpt lat="47.27086" lon="5.99779">
        <ele>337.56</ele>
        <time>2018-09-22T15:01:42Z</time>
      </trkpt>
      <trkpt lat="47.27144" lon="5.99735">
        <ele>336.12</ele>
        <time>2018-09-22T15:01:53Z</time>
      </trkpt>
      <trkpt lat="47.2715" lon="5.99735">
        <ele>336.12</ele>
        <time>2018-09-22T15:01:54Z</time>
      </trkpt>
      <trkpt lat="47.27156" lon="5.99737">
        <ele>336.12</ele>
        <time>2018-09-22T15:01:55Z</time>
      </trkpt>
      <trkpt lat="47.27184" lon="5.99757">
        <ele>336.12</ele>
        <time>2018-09-22T15:02:00Z</time>
      </trkpt>
      <trkpt lat="47.27187" lon="5.99765">
        <ele>335.64</ele>
        <time>2018-09-22T15:02:01Z</time>
      </trkpt>
      <trkpt lat="47.27189" lon="5.99772">
        <ele>336.12</ele>
        <time>2018-09-22T15:02:02Z</time>
      </trkpt>
      <trkpt lat="47.2722" lon="5.99855">
        <ele>335.64</ele>
        <time>2018-09-22T15:02:13Z</time>
      </trkpt>
      <trkpt lat="47.27226" lon="5.99858">
        <ele>335.64</ele>
        <time>2018-09-22T15:02:14Z</time>
      </trkpt>
      <trkpt lat="47.27231" lon="5.99863">
        <ele>335.64</ele>
        <time>2018-09-22T15:02:15Z</time>
      </trkpt>
      <trkpt lat="47.27233" lon="5.99869">
        <ele>335.64</ele>
        <time>2018-09-22T15:02:16Z</time>
      </trkpt>
      <trkpt lat="47.27233" lon="5.99877">
        <ele>336.12</ele>
        <time>2018-09-22T15:02:17Z</time>
      </trkpt>
      <trkpt lat="47.27232" lon="5.99884">
        <ele>336.12</ele>
        <time>2018-09-22T15:02:18Z</time>
      </trkpt>
      <trkpt lat="47.27232" lon="5.99892">
        <ele>336.12</ele>
        <time>2018-09-22T15:02:19Z</time>
      </trkpt>
      <trkpt lat="47.27231" lon="5.99899">
        <ele>335.64</ele>
        <time>2018-09-22T15:02:20Z</time>
      </trkpt>
      <trkpt lat="47.2723" lon="5.99907">
        <ele>335.64</ele>
        <time>2018-09-22T15:02:21Z</time>
      </trkpt>
      <trkpt lat="47.27229" lon="5.99914">
        <ele>335.64</ele>
        <time>2018-09-22T15:02:22Z</time>
      </trkpt>
      <trkpt lat="47.27227" lon="5.99921">
        <ele>335.64</ele>
        <time>2018-09-22T15:02:23Z</time>
      </trkpt>
      <trkpt lat="47.27225" lon="5.99928">
        <ele>335.64</ele>
        <time>2018-09-22T15:02:24Z</time>
      </trkpt>
      <trkpt lat="47.27223" lon="5.99934">
        <ele>335.64</ele>
        <time>2018-09-22T15:02:25Z</time>
      </trkpt>
      <trkpt lat="47.2722" lon="5.9994">
        <ele>335.64</ele>
        <time>2018-09-22T15:02:26Z</time>
      </trkpt>
      <trkpt lat="47.27216" lon="5.99946">
        <ele>335.64</ele>
        <time>2018-09-22T15:02:27Z</time>
      </trkpt>
      <trkpt lat="47.27212" lon="5.99951">
        <ele>335.64</ele>
        <time>2018-09-22T15:02:28Z</time>
      </trkpt>
      <trkpt lat="47.27209" lon="5.99955">
        <ele>335.64</ele>
        <time>2018-09-22T15:02:29Z</time>
      </trkpt>
      <trkpt lat="47.27208" lon="5.99959">
        <ele>335.64</ele>
        <time>2018-09-22T15:02:30Z</time>
      </trkpt>
      <trkpt lat="47.2721" lon="5.99961">
        <ele>335.64</ele>
        <time>2018-09-22T15:02:31Z</time>
      </trkpt>
      <trkpt lat="47.27213" lon="5.99961">
        <ele>335.16</ele>
        <time>2018-09-22T15:02:32Z</time>
      </trkpt>
      <trkpt lat="47.27219" lon="5.99963">
        <ele>334.2</ele>
        <time>2018-09-22T15:02:33Z</time>
      </trkpt>
      <trkpt lat="47.27224" lon="5.99968">
        <ele>331.79</ele>
        <time>2018-09-22T15:02:34Z</time>
      </trkpt>
      <trkpt lat="47.27228" lon="5.99974">
        <ele>331.79</ele>
        <time>2018-09-22T15:02:35Z</time>
      </trkpt>
      <trkpt lat="47.27232" lon="5.99981">
        <ele>331.79</ele>
        <time>2018-09-22T15:02:36Z</time>
      </trkpt>
      <trkpt lat="47.27236" lon="5.99987">
        <ele>332.27</ele>
        <time>2018-09-22T15:02:37Z</time>
      </trkpt>
      <trkpt lat="47.2724" lon="5.99993">
        <ele>332.27</ele>
        <time>2018-09-22T15:02:38Z</time>
      </trkpt>
      <trkpt lat="47.27243" lon="5.99999">
        <ele>332.75</ele>
        <time>2018-09-22T15:02:39Z</time>
      </trkpt>
      <trkpt lat="47.27283" lon="6.00071">
        <ele>336.12</ele>
        <time>2018-09-22T15:02:53Z</time>
      </trkpt>
      <trkpt lat="47.27301" lon="6.00102">
        <ele>339</ele>
        <time>2018-09-22T15:03:01Z</time>
      </trkpt>
      <trkpt lat="47.27319" lon="6.00143">
        <ele>342.37</ele>
        <time>2018-09-22T15:03:11Z</time>
      </trkpt>
      <trkpt lat="47.27345" lon="6.00198">
        <ele>345.73</ele>
        <time>2018-09-22T15:03:25Z</time>
      </trkpt>
      <trkpt lat="47.2737" lon="6.00252">
        <ele>349.1</ele>
        <time>2018-09-22T15:03:39Z</time>
      </trkpt>
      <trkpt lat="47.27387" lon="6.00292">
        <ele>351.98</ele>
        <time>2018-09-22T15:03:51Z</time>
      </trkpt>
      <trkpt lat="47.274" lon="6.00315">
        <ele>354.38</ele>
        <time>2018-09-22T15:04:00Z</time>
      </trkpt>
      <trkpt lat="47.27403" lon="6.00315">
        <ele>354.38</ele>
        <time>2018-09-22T15:04:01Z</time>
      </trkpt>
      <trkpt lat="47.27405" lon="6.00314">
        <ele>354.38</ele>
        <time>2018-09-22T15:04:02Z</time>
      </trkpt>
      <trkpt lat="47.27408" lon="6.00313">
        <ele>353.9</ele>
        <time>2018-09-22T15:04:03Z</time>
      </trkpt>
      <trkpt lat="47.27412" lon="6.00311">
        <ele>353.9</ele>
        <time>2018-09-22T15:04:04Z</time>
      </trkpt>
      <trkpt lat="47.27419" lon="6.00305">
        <ele>353.42</ele>
        <time>2018-09-22T15:04:06Z</time>
      </trkpt>
      <trkpt lat="47.27423" lon="6.00302">
        <ele>352.94</ele>
        <time>2018-09-22T15:04:07Z</time>
      </trkpt>
      <trkpt lat="47.27447" lon="6.00283">
        <ele>351.5</ele>
        <time>2018-09-22T15:04:12Z</time>
      </trkpt>
      <trkpt lat="47.27451" lon="6.00278">
        <ele>351.02</ele>
        <time>2018-09-22T15:04:13Z</time>
      </trkpt>
      <trkpt lat="47.27456" lon="6.00272">
        <ele>351.02</ele>
        <time>2018-09-22T15:04:14Z</time>
      </trkpt>
      <trkpt lat="47.27461" lon="6.00267">
        <ele>350.54</ele>
        <time>2018-09-22T15:04:15Z</time>
      </trkpt>
      <trkpt lat="47.27466" lon="6.00264">
        <ele>350.54</ele>
        <time>2018-09-22T15:04:16Z</time>
      </trkpt>
      <trkpt lat="47.2747" lon="6.00263">
        <ele>350.54</ele>
        <time>2018-09-22T15:04:17Z</time>
      </trkpt>
      <trkpt lat="47.27474" lon="6.00263">
        <ele>351.5</ele>
        <time>2018-09-22T15:04:18Z</time>
      </trkpt>
      <trkpt lat="47.27477" lon="6.00261">
        <ele>351.98</ele>
        <time>2018-09-22T15:04:19Z</time>
      </trkpt>
      <trkpt lat="47.2748" lon="6.00257">
        <ele>351.98</ele>
        <time>2018-09-22T15:04:20Z</time>
      </trkpt>
      <trkpt lat="47.27526" lon="6.002">
        <ele>350.06</ele>
        <time>2018-09-22T15:04:32Z</time>
      </trkpt>
      <trkpt lat="47.27563" lon="6.00157">
        <ele>346.69</ele>
        <time>2018-09-22T15:04:39Z</time>
      </trkpt>
      <trkpt lat="47.27575" lon="6.00145">
        <ele>345.73</ele>
        <time>2018-09-22T15:04:41Z</time>
      </trkpt>
      <trkpt lat="47.27612" lon="6.00118">
        <ele>342.85</ele>
        <time>2018-09-22T15:04:46Z</time>
      </trkpt>
      <trkpt lat="47.27644" lon="6.00092">
        <ele>339.48</ele>
        <time>2018-09-22T15:04:50Z</time>
      </trkpt>
      <trkpt lat="47.27677" lon="6.00065">
        <ele>336.6</ele>
        <time>2018-09-22T15:04:54Z</time>
      </trkpt>
      <trkpt lat="47.2769" lon="6.00053">
        <ele>336.12</ele>
        <time>2018-09-22T15:04:56Z</time>
      </trkpt>
      <trkpt lat="47.27695" lon="6.00047">
        <ele>336.12</ele>
        <time>2018-09-22T15:04:57Z</time>
      </trkpt>
      <trkpt lat="47.27698" lon="6.00041">
        <ele>335.64</ele>
        <time>2018-09-22T15:04:58Z</time>
      </trkpt>
      <trkpt lat="47.27698" lon="6.00035">
        <ele>336.12</ele>
        <time>2018-09-22T15:04:59Z</time>
      </trkpt>
      <trkpt lat="47.27699" lon="6.00031">
        <ele>336.12</ele>
        <time>2018-09-22T15:05:00Z</time>
      </trkpt>
      <trkpt lat="47.277" lon="6.00028">
        <ele>336.12</ele>
        <time>2018-09-22T15:05:01Z</time>
      </trkpt>
      <trkpt lat="47.27703" lon="6.00027">
        <ele>335.64</ele>
        <time>2018-09-22T15:05:02Z</time>
      </trkpt>
      <trkpt lat="47.27705" lon="6.00027">
        <ele>335.64</ele>
        <time>2018-09-22T15:05:03Z</time>
      </trkpt>
      <trkpt lat="47.27708" lon="6.00028">
        <ele>334.68</ele>
        <time>2018-09-22T15:05:04Z</time>
      </trkpt>
      <trkpt lat="47.27712" lon="6.00028">
        <ele>334.68</ele>
        <time>2018-09-22T15:05:05Z</time>
      </trkpt>
      <trkpt lat="47.27716" lon="6.00029">
        <ele>334.2</ele>
        <time>2018-09-22T15:05:06Z</time>
      </trkpt>
      <trkpt lat="47.27721" lon="6.0003">
        <ele>333.71</ele>
        <time>2018-09-22T15:05:07Z</time>
      </trkpt>
      <trkpt lat="47.2773" lon="6.00034">
        <ele>333.23</ele>
        <time>2018-09-22T15:05:09Z</time>
      </trkpt>
      <trkpt lat="47.27754" lon="6.00038">
        <ele>331.79</ele>
        <time>2018-09-22T15:05:13Z</time>
      </trkpt>
      <trkpt lat="47.27766" lon="6.00038">
        <ele>331.31</ele>
        <time>2018-09-22T15:05:15Z</time>
      </trkpt>
      <trkpt lat="47.27773" lon="6.00037">
        <ele>330.83</ele>
        <time>2018-09-22T15:05:16Z</time>
      </trkpt>
      <trkpt lat="47.2778" lon="6.00034">
        <ele>330.35</ele>
        <time>2018-09-22T15:05:17Z</time>
      </trkpt>
      <trkpt lat="47.27787" lon="6.00033">
        <ele>329.87</ele>
        <time>2018-09-22T15:05:18Z</time>
      </trkpt>
      <trkpt lat="47.27799" lon="6.00038">
        <ele>329.39</ele>
        <time>2018-09-22T15:05:20Z</time>
      </trkpt>
      <trkpt lat="47.27808" lon="6.00052">
        <ele>329.39</ele>
        <time>2018-09-22T15:05:23Z</time>
      </trkpt>
      <trkpt lat="47.27818" lon="6.00065">
        <ele>328.43</ele>
        <time>2018-09-22T15:05:26Z</time>
      </trkpt>
      <trkpt lat="47.27823" lon="6.0007">
        <ele>327.95</ele>
        <time>2018-09-22T15:05:27Z</time>
      </trkpt>
      <trkpt lat="47.27829" lon="6.00076">
        <ele>326.5</ele>
        <time>2018-09-22T15:05:28Z</time>
      </trkpt>
      <trkpt lat="47.27834" lon="6.00083">
        <ele>325.06</ele>
        <time>2018-09-22T15:05:29Z</time>
      </trkpt>
      <trkpt lat="47.27839" lon="6.00091">
        <ele>324.1</ele>
        <time>2018-09-22T15:05:30Z</time>
      </trkpt>
      <trkpt lat="47.27843" lon="6.00101">
        <ele>323.14</ele>
        <time>2018-09-22T15:05:31Z</time>
      </trkpt>
      <trkpt lat="47.27846" lon="6.00111">
        <ele>323.14</ele>
        <time>2018-09-22T15:05:32Z</time>
      </trkpt>
      <trkpt lat="47.2785" lon="6.0012">
        <ele>323.14</ele>
        <time>2018-09-22T15:05:33Z</time>
      </trkpt>
      <trkpt lat="47.27854" lon="6.00129">
        <ele>322.66</ele>
        <time>2018-09-22T15:05:34Z</time>
      </trkpt>
      <trkpt lat="47.27858" lon="6.00138">
        <ele>322.18</ele>
        <time>2018-09-22T15:05:35Z</time>
      </trkpt>
      <trkpt lat="47.27864" lon="6.00147">
        <ele>320.74</ele>
        <time>2018-09-22T15:05:36Z</time>
      </trkpt>
      <trkpt lat="47.27869" lon="6.00156">
        <ele>320.26</ele>
        <time>2018-09-22T15:05:37Z</time>
      </trkpt>
      <trkpt lat="47.27874" lon="6.00167">
        <ele>319.78</ele>
        <time>2018-09-22T15:05:38Z</time>
      </trkpt>
      <trkpt lat="47.27878" lon="6.00178">
        <ele>318.81</ele>
        <time>2018-09-22T15:05:39Z</time>
      </trkpt>
      <trkpt lat="47.27884" lon="6.00199">
        <ele>318.33</ele>
        <time>2018-09-22T15:05:41Z</time>
      </trkpt>
      <trkpt lat="47.27889" lon="6.00208">
        <ele>317.85</ele>
        <time>2018-09-22T15:05:42Z</time>
      </trkpt>
      <trkpt lat="47.27894" lon="6.00215">
        <ele>317.37</ele>
        <time>2018-09-22T15:05:43Z</time>
      </trkpt>
      <trkpt lat="47.27899" lon="6.00223">
        <ele>317.37</ele>
        <time>2018-09-22T15:05:44Z</time>
      </trkpt>
      <trkpt lat="47.27903" lon="6.00231">
        <ele>316.89</ele>
        <time>2018-09-22T15:05:45Z</time>
      </trkpt>
      <trkpt lat="47.27906" lon="6.00241">
        <ele>316.41</ele>
        <time>2018-09-22T15:05:46Z</time>
      </trkpt>
      <trkpt lat="47.27907" lon="6.0025">
        <ele>315.45</ele>
        <time>2018-09-22T15:05:47Z</time>
      </trkpt>
      <trkpt lat="47.27907" lon="6.00261">
        <ele>314.49</ele>
        <time>2018-09-22T15:05:48Z</time>
      </trkpt>
      <trkpt lat="47.27907" lon="6.00272">
        <ele>313.53</ele>
        <time>2018-09-22T15:05:49Z</time>
      </trkpt>
      <trkpt lat="47.27906" lon="6.00283">
        <ele>312.09</ele>
        <time>2018-09-22T15:05:50Z</time>
      </trkpt>
      <trkpt lat="47.27904" lon="6.00294">
        <ele>310.64</ele>
        <time>2018-09-22T15:05:51Z</time>
      </trkpt>
      <trkpt lat="47.27903" lon="6.00305">
        <ele>310.16</ele>
        <time>2018-09-22T15:05:52Z</time>
      </trkpt>
      <trkpt lat="47.27901" lon="6.00315">
        <ele>309.2</ele>
        <time>2018-09-22T15:05:53Z</time>
      </trkpt>
      <trkpt lat="47.27899" lon="6.00337">
        <ele>308.72</ele>
        <time>2018-09-22T15:05:55Z</time>
      </trkpt>
      <trkpt lat="47.279" lon="6.00347">
        <ele>308.72</ele>
        <time>2018-09-22T15:05:56Z</time>
      </trkpt>
      <trkpt lat="47.27903" lon="6.00364">
        <ele>308.24</ele>
        <time>2018-09-22T15:05:58Z</time>
      </trkpt>
      <trkpt lat="47.27906" lon="6.00372">
        <ele>308.24</ele>
        <time>2018-09-22T15:05:59Z</time>
      </trkpt>
      <trkpt lat="47.2791" lon="6.0038">
        <ele>308.72</ele>
        <time>2018-09-22T15:06:00Z</time>
      </trkpt>
      <trkpt lat="47.27912" lon="6.00387">
        <ele>308.72</ele>
        <time>2018-09-22T15:06:01Z</time>
      </trkpt>
      <trkpt lat="47.27914" lon="6.00393">
        <ele>309.2</ele>
        <time>2018-09-22T15:06:02Z</time>
      </trkpt>
      <trkpt lat="47.27915" lon="6.004">
        <ele>309.2</ele>
        <time>2018-09-22T15:06:03Z</time>
      </trkpt>
      <trkpt lat="47.27915" lon="6.00407">
        <ele>308.72</ele>
        <time>2018-09-22T15:06:04Z</time>
      </trkpt>
      <trkpt lat="47.27914" lon="6.00422">
        <ele>308.24</ele>
        <time>2018-09-22T15:06:06Z</time>
      </trkpt>
      <trkpt lat="47.27913" lon="6.00439">
        <ele>307.76</ele>
        <time>2018-09-22T15:06:08Z</time>
      </trkpt>
      <trkpt lat="47.27914" lon="6.00447">
        <ele>307.76</ele>
        <time>2018-09-22T15:06:09Z</time>
      </trkpt>
      <trkpt lat="47.27915" lon="6.00455">
        <ele>306.8</ele>
        <time>2018-09-22T15:06:10Z</time>
      </trkpt>
      <trkpt lat="47.27918" lon="6.0047">
        <ele>306.32</ele>
        <time>2018-09-22T15:06:12Z</time>
      </trkpt>
      <trkpt lat="47.27921" lon="6.00477">
        <ele>305.84</ele>
        <time>2018-09-22T15:06:13Z</time>
      </trkpt>
      <trkpt lat="47.27931" lon="6.00495">
        <ele>305.84</ele>
        <time>2018-09-22T15:06:16Z</time>
      </trkpt>
      <trkpt lat="47.27936" lon="6.005">
        <ele>305.84</ele>
        <time>2018-09-22T15:06:17Z</time>
      </trkpt>
      <trkpt lat="47.2794" lon="6.00505">
        <ele>305.36</ele>
        <time>2018-09-22T15:06:18Z</time>
      </trkpt>
      <trkpt lat="47.27952" lon="6.0052">
        <ele>305.36</ele>
        <time>2018-09-22T15:06:21Z</time>
      </trkpt>
      <trkpt lat="47.27957" lon="6.00526">
        <ele>305.36</ele>
        <time>2018-09-22T15:06:22Z</time>
      </trkpt>
      <trkpt lat="47.27961" lon="6.00529">
        <ele>305.36</ele>
        <time>2018-09-22T15:06:23Z</time>
      </trkpt>
      <trkpt lat="47.27965" lon="6.00531">
        <ele>305.36</ele>
        <time>2018-09-22T15:06:24Z</time>
      </trkpt>
      <trkpt lat="47.27968" lon="6.00532">
        <ele>304.88</ele>
        <time>2018-09-22T15:06:25Z</time>
      </trkpt>
      <trkpt lat="47.27972" lon="6.00532">
        <ele>304.39</ele>
        <time>2018-09-22T15:06:26Z</time>
      </trkpt>
      <trkpt lat="47.27975" lon="6.00533">
        <ele>303.91</ele>
        <time>2018-09-22T15:06:27Z</time>
      </trkpt>
      <trkpt lat="47.27978" lon="6.00532">
        <ele>302.47</ele>
        <time>2018-09-22T15:06:28Z</time>
      </trkpt>
      <trkpt lat="47.27982" lon="6.00532">
        <ele>301.03</ele>
        <time>2018-09-22T15:06:29Z</time>
      </trkpt>
      <trkpt lat="47.27987" lon="6.00532">
        <ele>300.07</ele>
        <time>2018-09-22T15:06:30Z</time>
      </trkpt>
      <trkpt lat="47.27993" lon="6.00532">
        <ele>300.55</ele>
        <time>2018-09-22T15:06:31Z</time>
      </trkpt>
      <trkpt lat="47.27999" lon="6.00531">
        <ele>301.03</ele>
        <time>2018-09-22T15:06:32Z</time>
      </trkpt>
      <trkpt lat="47.28005" lon="6.00531">
        <ele>302.47</ele>
        <time>2018-09-22T15:06:33Z</time>
      </trkpt>
      <trkpt lat="47.28037" lon="6.00534">
        <ele>303.91</ele>
        <time>2018-09-22T15:06:40Z</time>
      </trkpt>
      <trkpt lat="47.28049" lon="6.00539">
        <ele>301.99</ele>
        <time>2018-09-22T15:06:42Z</time>
      </trkpt>
      <trkpt lat="47.28054" lon="6.00543">
        <ele>301.99</ele>
        <time>2018-09-22T15:06:43Z</time>
      </trkpt>
      <trkpt lat="47.28057" lon="6.00548">
        <ele>302.47</ele>
        <time>2018-09-22T15:06:44Z</time>
      </trkpt>
      <trkpt lat="47.28058" lon="6.0055">
        <ele>302.47</ele>
        <time>2018-09-22T15:06:45Z</time>
      </trkpt>
      <trkpt lat="47.2806" lon="6.00553">
        <ele>302.47</ele>
        <time>2018-09-22T15:06:46Z</time>
      </trkpt>
      <trkpt lat="47.28064" lon="6.00559">
        <ele>302.95</ele>
        <time>2018-09-22T15:06:54Z</time>
      </trkpt>
      <trkpt lat="47.28065" lon="6.00566">
        <ele>303.43</ele>
        <time>2018-09-22T15:06:57Z</time>
      </trkpt>
      <trkpt lat="47.28065" lon="6.00569">
        <ele>303.43</ele>
        <time>2018-09-22T15:06:58Z</time>
      </trkpt>
      <trkpt lat="47.2806" lon="6.00605">
        <ele>302.95</ele>
        <time>2018-09-22T15:07:05Z</time>
      </trkpt>
      <trkpt lat="47.28059" lon="6.00615">
        <ele>301.03</ele>
        <time>2018-09-22T15:07:06Z</time>
      </trkpt>
      <trkpt lat="47.28057" lon="6.00636">
        <ele>299.59</ele>
        <time>2018-09-22T15:07:08Z</time>
      </trkpt>
      <trkpt lat="47.2805" lon="6.00682">
        <ele>301.51</ele>
        <time>2018-09-22T15:07:13Z</time>
      </trkpt>
      <trkpt lat="47.28049" lon="6.00688">
        <ele>302.47</ele>
        <time>2018-09-22T15:07:14Z</time>
      </trkpt>
      <trkpt lat="47.28048" lon="6.00693">
        <ele>302.95</ele>
        <time>2018-09-22T15:07:15Z</time>
      </trkpt>
      <trkpt lat="47.28047" lon="6.00697">
        <ele>303.43</ele>
        <time>2018-09-22T15:07:16Z</time>
      </trkpt>
      <trkpt lat="47.28047" lon="6.00701">
        <ele>304.39</ele>
        <time>2018-09-22T15:07:17Z</time>
      </trkpt>
      <trkpt lat="47.28046" lon="6.00705">
        <ele>304.88</ele>
        <time>2018-09-22T15:07:18Z</time>
      </trkpt>
      <trkpt lat="47.28045" lon="6.00708">
        <ele>304.88</ele>
        <time>2018-09-22T15:07:19Z</time>
      </trkpt>
      <trkpt lat="47.28044" lon="6.00712">
        <ele>305.36</ele>
        <time>2018-09-22T15:07:20Z</time>
      </trkpt>
      <trkpt lat="47.28044" lon="6.00716">
        <ele>305.84</ele>
        <time>2018-09-22T15:07:21Z</time>
      </trkpt>
      <trkpt lat="47.28043" lon="6.0072">
        <ele>305.84</ele>
        <time>2018-09-22T15:07:22Z</time>
      </trkpt>
      <trkpt lat="47.28043" lon="6.00724">
        <ele>306.32</ele>
        <time>2018-09-22T15:07:23Z</time>
      </trkpt>
      <trkpt lat="47.2804" lon="6.00752">
        <ele>308.24</ele>
        <time>2018-09-22T15:07:30Z</time>
      </trkpt>
      <trkpt lat="47.28041" lon="6.00755">
        <ele>308.24</ele>
        <time>2018-09-22T15:07:31Z</time>
      </trkpt>
      <trkpt lat="47.28044" lon="6.00757">
        <ele>308.72</ele>
        <time>2018-09-22T15:07:32Z</time>
      </trkpt>
      <trkpt lat="47.28062" lon="6.00763">
        <ele>308.72</ele>
        <time>2018-09-22T15:07:38Z</time>
      </trkpt>
      <trkpt lat="47.28065" lon="6.00764">
        <ele>308.24</ele>
        <time>2018-09-22T15:07:39Z</time>
      </trkpt>
      <trkpt lat="47.28069" lon="6.00765">
        <ele>308.72</ele>
        <time>2018-09-22T15:07:40Z</time>
      </trkpt>
      <trkpt lat="47.28109" lon="6.00773">
        <ele>309.2</ele>
        <time>2018-09-22T15:07:51Z</time>
      </trkpt>
      <trkpt lat="47.2816" lon="6.00788">
        <ele>309.2</ele>
        <time>2018-09-22T15:08:03Z</time>
      </trkpt>
      <trkpt lat="47.28195" lon="6.00806">
        <ele>309.2</ele>
        <time>2018-09-22T15:08:13Z</time>
      </trkpt>
      <trkpt lat="47.28221" lon="6.00823">
        <ele>308.72</ele>
        <time>2018-09-22T15:08:20Z</time>
      </trkpt>
      <trkpt lat="47.28232" lon="6.00826">
        <ele>307.76</ele>
        <time>2018-09-22T15:08:22Z</time>
      </trkpt>
      <trkpt lat="47.28253" lon="6.00827">
        <ele>306.8</ele>
        <time>2018-09-22T15:08:26Z</time>
      </trkpt>
      <trkpt lat="47.28258" lon="6.00826">
        <ele>306.32</ele>
        <time>2018-09-22T15:08:27Z</time>
      </trkpt>
      <trkpt lat="47.28285" lon="6.0082">
        <ele>305.84</ele>
        <time>2018-09-22T15:08:32Z</time>
      </trkpt>
      <trkpt lat="47.2829" lon="6.00817">
        <ele>305.36</ele>
        <time>2018-09-22T15:08:33Z</time>
      </trkpt>
      <trkpt lat="47.28295" lon="6.00812">
        <ele>305.36</ele>
        <time>2018-09-22T15:08:34Z</time>
      </trkpt>
      <trkpt lat="47.28305" lon="6.00804">
        <ele>304.88</ele>
        <time>2018-09-22T15:08:36Z</time>
      </trkpt>
      <trkpt lat="47.2831" lon="6.00801">
        <ele>304.88</ele>
        <time>2018-09-22T15:08:37Z</time>
      </trkpt>
      <trkpt lat="47.28327" lon="6.00796">
        <ele>304.88</ele>
        <time>2018-09-22T15:08:40Z</time>
      </trkpt>
      <trkpt lat="47.28359" lon="6.00795">
        <ele>306.8</ele>
        <time>2018-09-22T15:08:46Z</time>
      </trkpt>
      <trkpt lat="47.28367" lon="6.00797">
        <ele>307.28</ele>
        <time>2018-09-22T15:08:48Z</time>
      </trkpt>
      <trkpt lat="47.28371" lon="6.00799">
        <ele>307.28</ele>
        <time>2018-09-22T15:08:49Z</time>
      </trkpt>
      <trkpt lat="47.28375" lon="6.00802">
        <ele>307.76</ele>
        <time>2018-09-22T15:08:50Z</time>
      </trkpt>
      <trkpt lat="47.28379" lon="6.00806">
        <ele>307.76</ele>
        <time>2018-09-22T15:08:51Z</time>
      </trkpt>
      <trkpt lat="47.28382" lon="6.00811">
        <ele>308.24</ele>
        <time>2018-09-22T15:08:52Z</time>
      </trkpt>
      <trkpt lat="47.28385" lon="6.00815">
        <ele>308.24</ele>
        <time>2018-09-22T15:08:53Z</time>
      </trkpt>
      <trkpt lat="47.28388" lon="6.00821">
        <ele>308.24</ele>
        <time>2018-09-22T15:08:54Z</time>
      </trkpt>
      <trkpt lat="47.2839" lon="6.00826">
        <ele>308.24</ele>
        <time>2018-09-22T15:08:55Z</time>
      </trkpt>
      <trkpt lat="47.28392" lon="6.00832">
        <ele>308.24</ele>
        <time>2018-09-22T15:08:56Z</time>
      </trkpt>
      <trkpt lat="47.28394" lon="6.00844">
        <ele>308.24</ele>
        <time>2018-09-22T15:08:58Z</time>
      </trkpt>
      <trkpt lat="47.28395" lon="6.0085">
        <ele>308.24</ele>
        <time>2018-09-22T15:08:59Z</time>
      </trkpt>
      <trkpt lat="47.28398" lon="6.00867">
        <ele>308.24</ele>
        <time>2018-09-22T15:09:02Z</time>
      </trkpt>
      <trkpt lat="47.28419" lon="6.0093">
        <ele>307.28</ele>
        <time>2018-09-22T15:09:11Z</time>
      </trkpt>
      <trkpt lat="47.28421" lon="6.00937">
        <ele>308.24</ele>
        <time>2018-09-22T15:09:12Z</time>
      </trkpt>
      <trkpt lat="47.28448" lon="6.01007">
        <ele>310.16</ele>
        <time>2018-09-22T15:09:25Z</time>
      </trkpt>
      <trkpt lat="47.28456" lon="6.0103">
        <ele>312.09</ele>
        <time>2018-09-22T15:09:30Z</time>
      </trkpt>
      <trkpt lat="47.28456" lon="6.01034">
        <ele>312.09</ele>
        <time>2018-09-22T15:09:31Z</time>
      </trkpt>
      <trkpt lat="47.28457" lon="6.01039">
        <ele>312.57</ele>
        <time>2018-09-22T15:09:32Z</time>
      </trkpt>
      <trkpt lat="47.28457" lon="6.01044">
        <ele>312.57</ele>
        <time>2018-09-22T15:09:33Z</time>
      </trkpt>
      <trkpt lat="47.28457" lon="6.01049">
        <ele>313.05</ele>
        <time>2018-09-22T15:09:34Z</time>
      </trkpt>
      <trkpt lat="47.28457" lon="6.01055">
        <ele>313.05</ele>
        <time>2018-09-22T15:09:35Z</time>
      </trkpt>
      <trkpt lat="47.28458" lon="6.0106">
        <ele>313.53</ele>
        <time>2018-09-22T15:09:36Z</time>
      </trkpt>
      <trkpt lat="47.28459" lon="6.01065">
        <ele>313.53</ele>
        <time>2018-09-22T15:09:37Z</time>
      </trkpt>
      <trkpt lat="47.28464" lon="6.01087">
        <ele>313.05</ele>
        <time>2018-09-22T15:09:41Z</time>
      </trkpt>
      <trkpt lat="47.28466" lon="6.01093">
        <ele>313.53</ele>
        <time>2018-09-22T15:09:42Z</time>
      </trkpt>
      <trkpt lat="47.28468" lon="6.01098">
        <ele>313.53</ele>
        <time>2018-09-22T15:09:43Z</time>
      </trkpt>
      <trkpt lat="47.28471" lon="6.01102">
        <ele>313.05</ele>
        <time>2018-09-22T15:09:44Z</time>
      </trkpt>
      <trkpt lat="47.28473" lon="6.01107">
        <ele>313.05</ele>
        <time>2018-09-22T15:09:45Z</time>
      </trkpt>
      <trkpt lat="47.28479" lon="6.01117">
        <ele>312.09</ele>
        <time>2018-09-22T15:09:47Z</time>
      </trkpt>
      <trkpt lat="47.28506" lon="6.01158">
        <ele>312.57</ele>
        <time>2018-09-22T15:09:55Z</time>
      </trkpt>
      <trkpt lat="47.28529" lon="6.01186">
        <ele>313.53</ele>
        <time>2018-09-22T15:10:03Z</time>
      </trkpt>
      <trkpt lat="47.28557" lon="6.01212">
        <ele>314.97</ele>
        <time>2018-09-22T15:10:14Z</time>
      </trkpt>
      <trkpt lat="47.2858" lon="6.01218">
        <ele>315.93</ele>
        <time>2018-09-22T15:10:25Z</time>
      </trkpt>
      <trkpt lat="47.28589" lon="6.01216">
        <ele>317.37</ele>
        <time>2018-09-22T15:10:30Z</time>
      </trkpt>
      <trkpt lat="47.28612" lon="6.01213">
        <ele>319.3</ele>
        <time>2018-09-22T15:10:44Z</time>
      </trkpt>
      <trkpt lat="47.28628" lon="6.01205">
        <ele>322.66</ele>
        <time>2018-09-22T15:10:56Z</time>
      </trkpt>
      <trkpt lat="47.28631" lon="6.01203">
        <ele>323.62</ele>
        <time>2018-09-22T15:10:59Z</time>
      </trkpt>
      <trkpt lat="47.28647" lon="6.012">
        <ele>326.5</ele>
        <time>2018-09-22T15:11:12Z</time>
      </trkpt>
      <trkpt lat="47.28661" lon="6.01207">
        <ele>329.39</ele>
        <time>2018-09-22T15:11:27Z</time>
      </trkpt>
      <trkpt lat="47.28672" lon="6.01209">
        <ele>331.31</ele>
        <time>2018-09-22T15:11:34Z</time>
      </trkpt>
      <trkpt lat="47.2868" lon="6.01212">
        <ele>333.71</ele>
        <time>2018-09-22T15:11:42Z</time>
      </trkpt>
      <trkpt lat="47.28691" lon="6.01211">
        <ele>335.64</ele>
        <time>2018-09-22T15:11:50Z</time>
      </trkpt>
      <trkpt lat="47.28693" lon="6.01211">
        <ele>336.12</ele>
        <time>2018-09-22T15:11:51Z</time>
      </trkpt>
      <trkpt lat="47.28703" lon="6.01214">
        <ele>338.04</ele>
        <time>2018-09-22T15:12:00Z</time>
      </trkpt>
      <trkpt lat="47.28707" lon="6.01216">
        <ele>339</ele>
        <time>2018-09-22T15:12:03Z</time>
      </trkpt>
      <trkpt lat="47.28709" lon="6.01217">
        <ele>339</ele>
        <time>2018-09-22T15:12:04Z</time>
      </trkpt>
      <trkpt lat="47.28725" lon="6.01223">
        <ele>341.41</ele>
        <time>2018-09-22T15:12:16Z</time>
      </trkpt>
      <trkpt lat="47.28733" lon="6.01226">
        <ele>342.85</ele>
        <time>2018-09-22T15:12:22Z</time>
      </trkpt>
      <trkpt lat="47.28735" lon="6.01227">
        <ele>343.33</ele>
        <time>2018-09-22T15:12:23Z</time>
      </trkpt>
      <trkpt lat="47.28736" lon="6.01227">
        <ele>343.33</ele>
        <time>2018-09-22T15:12:24Z</time>
      </trkpt>
      <trkpt lat="47.28756" lon="6.01245">
        <ele>345.25</ele>
        <time>2018-09-22T15:12:35Z</time>
      </trkpt>
      <trkpt lat="47.28782" lon="6.01274">
        <ele>346.21</ele>
        <time>2018-09-22T15:12:48Z</time>
      </trkpt>
      <trkpt lat="47.28815" lon="6.01318">
        <ele>343.81</ele>
        <time>2018-09-22T15:13:01Z</time>
      </trkpt>
      <trkpt lat="47.28832" lon="6.01336">
        <ele>343.33</ele>
        <time>2018-09-22T15:13:06Z</time>
      </trkpt>
      <trkpt lat="47.28869" lon="6.01371">
        <ele>345.25</ele>
        <time>2018-09-22T15:13:19Z</time>
      </trkpt>
      <trkpt lat="47.28902" lon="6.01415">
        <ele>344.77</ele>
        <time>2018-09-22T15:13:32Z</time>
      </trkpt>
      <trkpt lat="47.2893" lon="6.01424">
        <ele>346.69</ele>
        <time>2018-09-22T15:13:43Z</time>
      </trkpt>
      <trkpt lat="47.28954" lon="6.01398">
        <ele>349.58</ele>
        <time>2018-09-22T15:13:56Z</time>
      </trkpt>
      <trkpt lat="47.28969" lon="6.01363">
        <ele>351.02</ele>
        <time>2018-09-22T15:14:08Z</time>
      </trkpt>
      <trkpt lat="47.28972" lon="6.01361">
        <ele>351.02</ele>
        <time>2018-09-22T15:14:09Z</time>
      </trkpt>
      <trkpt lat="47.28973" lon="6.01359">
        <ele>351.02</ele>
        <time>2018-09-22T15:14:10Z</time>
      </trkpt>
      <trkpt lat="47.28981" lon="6.01339">
        <ele>352.94</ele>
        <time>2018-09-22T15:14:18Z</time>
      </trkpt>
      <trkpt lat="47.28981" lon="6.01335">
        <ele>352.94</ele>
        <time>2018-09-22T15:14:19Z</time>
      </trkpt>
      <trkpt lat="47.28981" lon="6.01332">
        <ele>352.94</ele>
        <time>2018-09-22T15:14:20Z</time>
      </trkpt>
      <trkpt lat="47.28982" lon="6.01329">
        <ele>353.42</ele>
        <time>2018-09-22T15:14:21Z</time>
      </trkpt>
      <trkpt lat="47.28982" lon="6.01326">
        <ele>353.42</ele>
        <time>2018-09-22T15:14:22Z</time>
      </trkpt>
      <trkpt lat="47.28982" lon="6.01323">
        <ele>353.42</ele>
        <time>2018-09-22T15:14:23Z</time>
      </trkpt>
      <trkpt lat="47.28982" lon="6.0132">
        <ele>353.42</ele>
        <time>2018-09-22T15:14:24Z</time>
      </trkpt>
      <trkpt lat="47.28982" lon="6.01317">
        <ele>353.42</ele>
        <time>2018-09-22T15:14:25Z</time>
      </trkpt>
      <trkpt lat="47.28981" lon="6.01314">
        <ele>353.9</ele>
        <time>2018-09-22T15:14:26Z</time>
      </trkpt>
      <trkpt lat="47.28981" lon="6.01311">
        <ele>353.9</ele>
        <time>2018-09-22T15:14:27Z</time>
      </trkpt>
      <trkpt lat="47.2898" lon="6.01309">
        <ele>354.38</ele>
        <time>2018-09-22T15:14:28Z</time>
      </trkpt>
      <trkpt lat="47.2898" lon="6.01306">
        <ele>354.38</ele>
        <time>2018-09-22T15:14:29Z</time>
      </trkpt>
      <trkpt lat="47.28979" lon="6.01303">
        <ele>354.38</ele>
        <time>2018-09-22T15:14:30Z</time>
      </trkpt>
      <trkpt lat="47.28979" lon="6.01301">
        <ele>354.38</ele>
        <time>2018-09-22T15:14:31Z</time>
      </trkpt>
      <trkpt lat="47.28979" lon="6.01298">
        <ele>354.86</ele>
        <time>2018-09-22T15:14:32Z</time>
      </trkpt>
      <trkpt lat="47.2898" lon="6.01295">
        <ele>354.86</ele>
        <time>2018-09-22T15:14:33Z</time>
      </trkpt>
      <trkpt lat="47.2898" lon="6.01293">
        <ele>355.34</ele>
        <time>2018-09-22T15:14:34Z</time>
      </trkpt>
      <trkpt lat="47.2898" lon="6.0129">
        <ele>355.83</ele>
        <time>2018-09-22T15:14:35Z</time>
      </trkpt>
      <trkpt lat="47.2898" lon="6.01287">
        <ele>355.83</ele>
        <time>2018-09-22T15:14:36Z</time>
      </trkpt>
      <trkpt lat="47.28981" lon="6.01284">
        <ele>356.31</ele>
        <time>2018-09-22T15:14:37Z</time>
      </trkpt>
      <trkpt lat="47.28982" lon="6.01282">
        <ele>356.79</ele>
        <time>2018-09-22T15:14:38Z</time>
      </trkpt>
      <trkpt lat="47.28983" lon="6.0128">
        <ele>356.79</ele>
        <time>2018-09-22T15:14:39Z</time>
      </trkpt>
      <trkpt lat="47.28985" lon="6.01278">
        <ele>357.27</ele>
        <time>2018-09-22T15:14:40Z</time>
      </trkpt>
      <trkpt lat="47.28986" lon="6.01277">
        <ele>357.27</ele>
        <time>2018-09-22T15:14:41Z</time>
      </trkpt>
      <trkpt lat="47.28987" lon="6.01276">
        <ele>357.75</ele>
        <time>2018-09-22T15:14:42Z</time>
      </trkpt>
      <trkpt lat="47.28989" lon="6.01276">
        <ele>357.75</ele>
        <time>2018-09-22T15:14:43Z</time>
      </trkpt>
      <trkpt lat="47.28991" lon="6.01275">
        <ele>358.23</ele>
        <time>2018-09-22T15:14:44Z</time>
      </trkpt>
      <trkpt lat="47.28993" lon="6.01275">
        <ele>358.23</ele>
        <time>2018-09-22T15:14:45Z</time>
      </trkpt>
      <trkpt lat="47.28995" lon="6.01274">
        <ele>358.71</ele>
        <time>2018-09-22T15:14:46Z</time>
      </trkpt>
      <trkpt lat="47.28996" lon="6.01274">
        <ele>358.71</ele>
        <time>2018-09-22T15:14:47Z</time>
      </trkpt>
      <trkpt lat="47.29004" lon="6.01273">
        <ele>359.67</ele>
        <time>2018-09-22T15:14:52Z</time>
      </trkpt>
      <trkpt lat="47.29016" lon="6.01266">
        <ele>360.15</ele>
        <time>2018-09-22T15:14:57Z</time>
      </trkpt>
      <trkpt lat="47.29016" lon="6.01262">
        <ele>360.63</ele>
        <time>2018-09-22T15:14:58Z</time>
      </trkpt>
      <trkpt lat="47.29016" lon="6.01259">
        <ele>361.11</ele>
        <time>2018-09-22T15:14:59Z</time>
      </trkpt>
      <trkpt lat="47.29014" lon="6.01256">
        <ele>361.59</ele>
        <time>2018-09-22T15:15:00Z</time>
      </trkpt>
      <trkpt lat="47.29012" lon="6.01255">
        <ele>361.59</ele>
        <time>2018-09-22T15:15:01Z</time>
      </trkpt>
      <trkpt lat="47.2901" lon="6.01253">
        <ele>361.59</ele>
        <time>2018-09-22T15:15:02Z</time>
      </trkpt>
      <trkpt lat="47.29008" lon="6.01251">
        <ele>362.07</ele>
        <time>2018-09-22T15:15:03Z</time>
      </trkpt>
      <trkpt lat="47.29005" lon="6.01249">
        <ele>362.07</ele>
        <time>2018-09-22T15:15:04Z</time>
      </trkpt>
      <trkpt lat="47.29003" lon="6.01247">
        <ele>362.07</ele>
        <time>2018-09-22T15:15:05Z</time>
      </trkpt>
      <trkpt lat="47.29001" lon="6.01245">
        <ele>362.07</ele>
        <time>2018-09-22T15:15:06Z</time>
      </trkpt>
      <trkpt lat="47.28977" lon="6.01227">
        <ele>364</ele>
        <time>2018-09-22T15:15:17Z</time>
      </trkpt>
      <trkpt lat="47.28953" lon="6.01203">
        <ele>366.88</ele>
        <time>2018-09-22T15:15:30Z</time>
      </trkpt>
      <trkpt lat="47.28927" lon="6.01185">
        <ele>368.32</ele>
        <time>2018-09-22T15:15:41Z</time>
      </trkpt>
      <trkpt lat="47.28899" lon="6.01169">
        <ele>371.21</ele>
        <time>2018-09-22T15:15:53Z</time>
      </trkpt>
      <trkpt lat="47.28864" lon="6.01128">
        <ele>373.61</ele>
        <time>2018-09-22T15:16:08Z</time>
      </trkpt>
      <trkpt lat="47.28834" lon="6.01073">
        <ele>375.05</ele>
        <time>2018-09-22T15:16:23Z</time>
      </trkpt>
      <trkpt lat="47.28817" lon="6.0102">
        <ele>376.97</ele>
        <time>2018-09-22T15:16:35Z</time>
      </trkpt>
      <trkpt lat="47.28807" lon="6.00966">
        <ele>378.42</ele>
        <time>2018-09-22T15:16:46Z</time>
      </trkpt>
      <trkpt lat="47.28798" lon="6.009">
        <ele>379.86</ele>
        <time>2018-09-22T15:16:59Z</time>
      </trkpt>
      <trkpt lat="47.28791" lon="6.00832">
        <ele>380.34</ele>
        <time>2018-09-22T15:17:11Z</time>
      </trkpt>
      <trkpt lat="47.28787" lon="6.00804">
        <ele>380.34</ele>
        <time>2018-09-22T15:17:16Z</time>
      </trkpt>
      <trkpt lat="47.28787" lon="6.00797">
        <ele>379.86</ele>
        <time>2018-09-22T15:17:17Z</time>
      </trkpt>
      <trkpt lat="47.28787" lon="6.00755">
        <ele>379.86</ele>
        <time>2018-09-22T15:17:23Z</time>
      </trkpt>
      <trkpt lat="47.28787" lon="6.00748">
        <ele>379.86</ele>
        <time>2018-09-22T15:17:24Z</time>
      </trkpt>
      <trkpt lat="47.28788" lon="6.00742">
        <ele>379.38</ele>
        <time>2018-09-22T15:17:25Z</time>
      </trkpt>
      <trkpt lat="47.28788" lon="6.00736">
        <ele>379.86</ele>
        <time>2018-09-22T15:17:26Z</time>
      </trkpt>
      <trkpt lat="47.28788" lon="6.0073">
        <ele>379.38</ele>
        <time>2018-09-22T15:17:27Z</time>
      </trkpt>
      <trkpt lat="47.28794" lon="6.00676">
        <ele>378.9</ele>
        <time>2018-09-22T15:17:36Z</time>
      </trkpt>
      <trkpt lat="47.28795" lon="6.0067">
        <ele>378.9</ele>
        <time>2018-09-22T15:17:37Z</time>
      </trkpt>
      <trkpt lat="47.28796" lon="6.00664">
        <ele>378.9</ele>
        <time>2018-09-22T15:17:38Z</time>
      </trkpt>
      <trkpt lat="47.28802" lon="6.0064">
        <ele>378.9</ele>
        <time>2018-09-22T15:17:42Z</time>
      </trkpt>
      <trkpt lat="47.28805" lon="6.00616">
        <ele>377.94</ele>
        <time>2018-09-22T15:17:46Z</time>
      </trkpt>
      <trkpt lat="47.28804" lon="6.00608">
        <ele>377.45</ele>
        <time>2018-09-22T15:17:47Z</time>
      </trkpt>
      <trkpt lat="47.28803" lon="6.00601">
        <ele>377.45</ele>
        <time>2018-09-22T15:17:48Z</time>
      </trkpt>
      <trkpt lat="47.28796" lon="6.00579">
        <ele>376.01</ele>
        <time>2018-09-22T15:17:51Z</time>
      </trkpt>
      <trkpt lat="47.28792" lon="6.00571">
        <ele>375.05</ele>
        <time>2018-09-22T15:17:52Z</time>
      </trkpt>
      <trkpt lat="47.28787" lon="6.00563">
        <ele>374.57</ele>
        <time>2018-09-22T15:17:53Z</time>
      </trkpt>
      <trkpt lat="47.28782" lon="6.00554">
        <ele>373.61</ele>
        <time>2018-09-22T15:17:54Z</time>
      </trkpt>
      <trkpt lat="47.28777" lon="6.00545">
        <ele>371.21</ele>
        <time>2018-09-22T15:17:55Z</time>
      </trkpt>
      <trkpt lat="47.28762" lon="6.00515">
        <ele>368.8</ele>
        <time>2018-09-22T15:17:58Z</time>
      </trkpt>
      <trkpt lat="47.28746" lon="6.00474">
        <ele>365.92</ele>
        <time>2018-09-22T15:18:02Z</time>
      </trkpt>
      <trkpt lat="47.28737" lon="6.00457">
        <ele>364.96</ele>
        <time>2018-09-22T15:18:04Z</time>
      </trkpt>
      <trkpt lat="47.28733" lon="6.00448">
        <ele>364.96</ele>
        <time>2018-09-22T15:18:05Z</time>
      </trkpt>
      <trkpt lat="47.28729" lon="6.00441">
        <ele>364.48</ele>
        <time>2018-09-22T15:18:06Z</time>
      </trkpt>
      <trkpt lat="47.28718" lon="6.00425">
        <ele>363.04</ele>
        <time>2018-09-22T15:18:09Z</time>
      </trkpt>
      <trkpt lat="47.28716" lon="6.00422">
        <ele>363.04</ele>
        <time>2018-09-22T15:18:10Z</time>
      </trkpt>
      <trkpt lat="47.28716" lon="6.0042">
        <ele>362.55</ele>
        <time>2018-09-22T15:18:11Z</time>
      </trkpt>
      <trkpt lat="47.28717" lon="6.00419">
        <ele>362.55</ele>
        <time>2018-09-22T15:18:12Z</time>
      </trkpt>
      <trkpt lat="47.28718" lon="6.00418">
        <ele>362.55</ele>
        <time>2018-09-22T15:18:13Z</time>
      </trkpt>
      <trkpt lat="47.2872" lon="6.00417">
        <ele>362.55</ele>
        <time>2018-09-22T15:18:14Z</time>
      </trkpt>
      <trkpt lat="47.28725" lon="6.0041">
        <ele>363.04</ele>
        <time>2018-09-22T15:18:18Z</time>
      </trkpt>
      <trkpt lat="47.28733" lon="6.00397">
        <ele>365.92</ele>
        <time>2018-09-22T15:18:29Z</time>
      </trkpt>
      <trkpt lat="47.28742" lon="6.00383">
        <ele>367.36</ele>
        <time>2018-09-22T15:18:37Z</time>
      </trkpt>
      <trkpt lat="47.28754" lon="6.00369">
        <ele>369.76</ele>
        <time>2018-09-22T15:18:49Z</time>
      </trkpt>
      <trkpt lat="47.28755" lon="6.00367">
        <ele>370.24</ele>
        <time>2018-09-22T15:18:51Z</time>
      </trkpt>
      <trkpt lat="47.28756" lon="6.00366">
        <ele>370.24</ele>
        <time>2018-09-22T15:18:52Z</time>
      </trkpt>
      <trkpt lat="47.28759" lon="6.00361">
        <ele>371.21</ele>
        <time>2018-09-22T15:18:55Z</time>
      </trkpt>
      <trkpt lat="47.2876" lon="6.00359">
        <ele>371.21</ele>
        <time>2018-09-22T15:18:56Z</time>
      </trkpt>
      <trkpt lat="47.28761" lon="6.00358">
        <ele>371.69</ele>
        <time>2018-09-22T15:18:57Z</time>
      </trkpt>
      <trkpt lat="47.28768" lon="6.00347">
        <ele>375.05</ele>
        <time>2018-09-22T15:19:07Z</time>
      </trkpt>
      <trkpt lat="47.28769" lon="6.00346">
        <ele>375.53</ele>
        <time>2018-09-22T15:19:08Z</time>
      </trkpt>
      <trkpt lat="47.28771" lon="6.00345">
        <ele>375.53</ele>
        <time>2018-09-22T15:19:09Z</time>
      </trkpt>
      <trkpt lat="47.28773" lon="6.00342">
        <ele>377.45</ele>
        <time>2018-09-22T15:19:13Z</time>
      </trkpt>
      <trkpt lat="47.28776" lon="6.0034">
        <ele>378.42</ele>
        <time>2018-09-22T15:19:16Z</time>
      </trkpt>
      <trkpt lat="47.28781" lon="6.00331">
        <ele>379.86</ele>
        <time>2018-09-22T15:19:21Z</time>
      </trkpt>
      <trkpt lat="47.28783" lon="6.00329">
        <ele>380.34</ele>
        <time>2018-09-22T15:19:22Z</time>
      </trkpt>
      <trkpt lat="47.28786" lon="6.00326">
        <ele>380.82</ele>
        <time>2018-09-22T15:19:24Z</time>
      </trkpt>
      <trkpt lat="47.28788" lon="6.00324">
        <ele>380.82</ele>
        <time>2018-09-22T15:19:25Z</time>
      </trkpt>
      <trkpt lat="47.28791" lon="6.00319">
        <ele>381.3</ele>
        <time>2018-09-22T15:19:27Z</time>
      </trkpt>
      <trkpt lat="47.28792" lon="6.00317">
        <ele>381.78</ele>
        <time>2018-09-22T15:19:28Z</time>
      </trkpt>
      <trkpt lat="47.28802" lon="6.00298">
        <ele>384.66</ele>
        <time>2018-09-22T15:19:40Z</time>
      </trkpt>
      <trkpt lat="47.28807" lon="6.00287">
        <ele>387.07</ele>
        <time>2018-09-22T15:19:51Z</time>
      </trkpt>
      <trkpt lat="47.28815" lon="6.00275">
        <ele>388.99</ele>
        <time>2018-09-22T15:20:02Z</time>
      </trkpt>
      <trkpt lat="47.28827" lon="6.00256">
        <ele>391.39</ele>
        <time>2018-09-22T15:20:16Z</time>
      </trkpt>
      <trkpt lat="47.28836" lon="6.00244">
        <ele>393.32</ele>
        <time>2018-09-22T15:20:24Z</time>
      </trkpt>
      <trkpt lat="47.28837" lon="6.00241">
        <ele>393.8</ele>
        <time>2018-09-22T15:20:25Z</time>
      </trkpt>
      <trkpt lat="47.28839" lon="6.00239">
        <ele>393.8</ele>
        <time>2018-09-22T15:20:26Z</time>
      </trkpt>
      <trkpt lat="47.2884" lon="6.00237">
        <ele>394.28</ele>
        <time>2018-09-22T15:20:28Z</time>
      </trkpt>
      <trkpt lat="47.28843" lon="6.00233">
        <ele>394.76</ele>
        <time>2018-09-22T15:20:31Z</time>
      </trkpt>
      <trkpt lat="47.28844" lon="6.00231">
        <ele>395.24</ele>
        <time>2018-09-22T15:20:32Z</time>
      </trkpt>
      <trkpt lat="47.28857" lon="6.00214">
        <ele>397.16</ele>
        <time>2018-09-22T15:20:42Z</time>
      </trkpt>
      <trkpt lat="47.28868" lon="6.00199">
        <ele>399.08</ele>
        <time>2018-09-22T15:20:54Z</time>
      </trkpt>
      <trkpt lat="47.28877" lon="6.00181">
        <ele>401.01</ele>
        <time>2018-09-22T15:21:05Z</time>
      </trkpt>
      <trkpt lat="47.28879" lon="6.00179">
        <ele>401.01</ele>
        <time>2018-09-22T15:21:07Z</time>
      </trkpt>
      <trkpt lat="47.28881" lon="6.00177">
        <ele>401.01</ele>
        <time>2018-09-22T15:21:08Z</time>
      </trkpt>
      <trkpt lat="47.28883" lon="6.00175">
        <ele>401.01</ele>
        <time>2018-09-22T15:21:09Z</time>
      </trkpt>
      <trkpt lat="47.28884" lon="6.00174">
        <ele>401.49</ele>
        <time>2018-09-22T15:21:10Z</time>
      </trkpt>
      <trkpt lat="47.28886" lon="6.00172">
        <ele>401.49</ele>
        <time>2018-09-22T15:21:11Z</time>
      </trkpt>
      <trkpt lat="47.28887" lon="6.00169">
        <ele>401.49</ele>
        <time>2018-09-22T15:21:12Z</time>
      </trkpt>
      <trkpt lat="47.28889" lon="6.00167">
        <ele>401.97</ele>
        <time>2018-09-22T15:21:13Z</time>
      </trkpt>
      <trkpt lat="47.28891" lon="6.00165">
        <ele>401.49</ele>
        <time>2018-09-22T15:21:14Z</time>
      </trkpt>
      <trkpt lat="47.28892" lon="6.00163">
        <ele>401.97</ele>
        <time>2018-09-22T15:21:15Z</time>
      </trkpt>
      <trkpt lat="47.28893" lon="6.00161">
        <ele>401.97</ele>
        <time>2018-09-22T15:21:16Z</time>
      </trkpt>
      <trkpt lat="47.28895" lon="6.00159">
        <ele>401.97</ele>
        <time>2018-09-22T15:21:17Z</time>
      </trkpt>
      <trkpt lat="47.28897" lon="6.00158">
        <ele>401.97</ele>
        <time>2018-09-22T15:21:18Z</time>
      </trkpt>
      <trkpt lat="47.289" lon="6.00159">
        <ele>401.97</ele>
        <time>2018-09-22T15:21:19Z</time>
      </trkpt>
      <trkpt lat="47.28902" lon="6.0016">
        <ele>401.97</ele>
        <time>2018-09-22T15:21:20Z</time>
      </trkpt>
      <trkpt lat="47.28904" lon="6.00161">
        <ele>402.45</ele>
        <time>2018-09-22T15:21:21Z</time>
      </trkpt>
      <trkpt lat="47.28906" lon="6.00162">
        <ele>402.45</ele>
        <time>2018-09-22T15:21:22Z</time>
      </trkpt>
      <trkpt lat="47.28908" lon="6.00161">
        <ele>402.45</ele>
        <time>2018-09-22T15:21:23Z</time>
      </trkpt>
      <trkpt lat="47.28909" lon="6.00161">
        <ele>401.97</ele>
        <time>2018-09-22T15:21:24Z</time>
      </trkpt>
      <trkpt lat="47.28912" lon="6.0016">
        <ele>401.97</ele>
        <time>2018-09-22T15:21:25Z</time>
      </trkpt>
      <trkpt lat="47.28915" lon="6.0016">
        <ele>401.49</ele>
        <time>2018-09-22T15:21:26Z</time>
      </trkpt>
      <trkpt lat="47.28919" lon="6.0016">
        <ele>401.49</ele>
        <time>2018-09-22T15:21:27Z</time>
      </trkpt>
      <trkpt lat="47.28926" lon="6.00161">
        <ele>400.53</ele>
        <time>2018-09-22T15:21:29Z</time>
      </trkpt>
      <trkpt lat="47.2896" lon="6.00162">
        <ele>399.57</ele>
        <time>2018-09-22T15:21:39Z</time>
      </trkpt>
      <trkpt lat="47.28973" lon="6.00165">
        <ele>399.08</ele>
        <time>2018-09-22T15:21:50Z</time>
      </trkpt>
      <trkpt lat="47.28975" lon="6.00167">
        <ele>399.08</ele>
        <time>2018-09-22T15:21:52Z</time>
      </trkpt>
      <trkpt lat="47.28977" lon="6.00169">
        <ele>398.6</ele>
        <time>2018-09-22T15:21:53Z</time>
      </trkpt>
      <trkpt lat="47.28981" lon="6.00172">
        <ele>398.12</ele>
        <time>2018-09-22T15:21:54Z</time>
      </trkpt>
      <trkpt lat="47.28983" lon="6.00174">
        <ele>398.12</ele>
        <time>2018-09-22T15:21:55Z</time>
      </trkpt>
      <trkpt lat="47.28986" lon="6.00177">
        <ele>398.6</ele>
        <time>2018-09-22T15:21:56Z</time>
      </trkpt>
      <trkpt lat="47.28987" lon="6.0018">
        <ele>398.12</ele>
        <time>2018-09-22T15:21:57Z</time>
      </trkpt>
      <trkpt lat="47.28989" lon="6.00184">
        <ele>398.6</ele>
        <time>2018-09-22T15:21:58Z</time>
      </trkpt>
      <trkpt lat="47.28991" lon="6.00187">
        <ele>398.12</ele>
        <time>2018-09-22T15:21:59Z</time>
      </trkpt>
      <trkpt lat="47.28999" lon="6.00197">
        <ele>399.08</ele>
        <time>2018-09-22T15:22:03Z</time>
      </trkpt>
      <trkpt lat="47.29006" lon="6.00202">
        <ele>399.57</ele>
        <time>2018-09-22T15:22:05Z</time>
      </trkpt>
      <trkpt lat="47.29031" lon="6.0023">
        <ele>401.49</ele>
        <time>2018-09-22T15:22:18Z</time>
      </trkpt>
      <trkpt lat="47.29049" lon="6.00253">
        <ele>403.89</ele>
        <time>2018-09-22T15:22:29Z</time>
      </trkpt>
      <trkpt lat="47.29062" lon="6.00273">
        <ele>405.81</ele>
        <time>2018-09-22T15:22:39Z</time>
      </trkpt>
      <trkpt lat="47.29063" lon="6.00275">
        <ele>405.81</ele>
        <time>2018-09-22T15:22:40Z</time>
      </trkpt>
      <trkpt lat="47.29064" lon="6.00276">
        <ele>406.29</ele>
        <time>2018-09-22T15:22:41Z</time>
      </trkpt>
      <trkpt lat="47.29066" lon="6.00277">
        <ele>406.29</ele>
        <time>2018-09-22T15:22:42Z</time>
      </trkpt>
      <trkpt lat="47.29067" lon="6.00278">
        <ele>406.29</ele>
        <time>2018-09-22T15:22:43Z</time>
      </trkpt>
      <trkpt lat="47.29069" lon="6.0028">
        <ele>406.77</ele>
        <time>2018-09-22T15:22:44Z</time>
      </trkpt>
      <trkpt lat="47.29073" lon="6.00284">
        <ele>407.26</ele>
        <time>2018-09-22T15:22:47Z</time>
      </trkpt>
      <trkpt lat="47.29084" lon="6.00296">
        <ele>408.7</ele>
        <time>2018-09-22T15:22:56Z</time>
      </trkpt>
      <trkpt lat="47.29085" lon="6.00298">
        <ele>408.7</ele>
        <time>2018-09-22T15:22:57Z</time>
      </trkpt>
      <trkpt lat="47.29086" lon="6.003">
        <ele>408.7</ele>
        <time>2018-09-22T15:22:58Z</time>
      </trkpt>
      <trkpt lat="47.29088" lon="6.00301">
        <ele>409.18</ele>
        <time>2018-09-22T15:22:59Z</time>
      </trkpt>
      <trkpt lat="47.2909" lon="6.00303">
        <ele>409.18</ele>
        <time>2018-09-22T15:23:00Z</time>
      </trkpt>
      <trkpt lat="47.29091" lon="6.00305">
        <ele>409.66</ele>
        <time>2018-09-22T15:23:01Z</time>
      </trkpt>
      <trkpt lat="47.29092" lon="6.00306">
        <ele>409.66</ele>
        <time>2018-09-22T15:23:02Z</time>
      </trkpt>
      <trkpt lat="47.29095" lon="6.00308">
        <ele>410.14</ele>
        <time>2018-09-22T15:23:04Z</time>
      </trkpt>
      <trkpt lat="47.29096" lon="6.0031">
        <ele>410.14</ele>
        <time>2018-09-22T15:23:05Z</time>
      </trkpt>
      <trkpt lat="47.29102" lon="6.00315">
        <ele>410.62</ele>
        <time>2018-09-22T15:23:08Z</time>
      </trkpt>
      <trkpt lat="47.29103" lon="6.00316">
        <ele>410.62</ele>
        <time>2018-09-22T15:23:09Z</time>
      </trkpt>
      <trkpt lat="47.29128" lon="6.00338">
        <ele>413.5</ele>
        <time>2018-09-22T15:23:23Z</time>
      </trkpt>
      <trkpt lat="47.29147" lon="6.00356">
        <ele>416.39</ele>
        <time>2018-09-22T15:23:35Z</time>
      </trkpt>
      <trkpt lat="47.29148" lon="6.00358">
        <ele>416.39</ele>
        <time>2018-09-22T15:23:36Z</time>
      </trkpt>
      <trkpt lat="47.2915" lon="6.00359">
        <ele>416.39</ele>
        <time>2018-09-22T15:23:37Z</time>
      </trkpt>
      <trkpt lat="47.29158" lon="6.0037">
        <ele>417.83</ele>
        <time>2018-09-22T15:23:44Z</time>
      </trkpt>
      <trkpt lat="47.2916" lon="6.00371">
        <ele>418.31</ele>
        <time>2018-09-22T15:23:45Z</time>
      </trkpt>
      <trkpt lat="47.29162" lon="6.00371">
        <ele>418.31</ele>
        <time>2018-09-22T15:23:46Z</time>
      </trkpt>
      <trkpt lat="47.29176" lon="6.00383">
        <ele>419.75</ele>
        <time>2018-09-22T15:23:54Z</time>
      </trkpt>
      <trkpt lat="47.29194" lon="6.00398">
        <ele>422.16</ele>
        <time>2018-09-22T15:24:04Z</time>
      </trkpt>
      <trkpt lat="47.29195" lon="6.00399">
        <ele>422.64</ele>
        <time>2018-09-22T15:24:05Z</time>
      </trkpt>
      <trkpt lat="47.29196" lon="6.00401">
        <ele>422.64</ele>
        <time>2018-09-22T15:24:06Z</time>
      </trkpt>
      <trkpt lat="47.29198" lon="6.00402">
        <ele>422.64</ele>
        <time>2018-09-22T15:24:07Z</time>
      </trkpt>
      <trkpt lat="47.29199" lon="6.00404">
        <ele>423.12</ele>
        <time>2018-09-22T15:24:08Z</time>
      </trkpt>
      <trkpt lat="47.29201" lon="6.00405">
        <ele>423.6</ele>
        <time>2018-09-22T15:24:09Z</time>
      </trkpt>
      <trkpt lat="47.2921" lon="6.00415">
        <ele>424.08</ele>
        <time>2018-09-22T15:24:15Z</time>
      </trkpt>
      <trkpt lat="47.29211" lon="6.00417">
        <ele>424.08</ele>
        <time>2018-09-22T15:24:16Z</time>
      </trkpt>
      <trkpt lat="47.29212" lon="6.00418">
        <ele>424.56</ele>
        <time>2018-09-22T15:24:17Z</time>
      </trkpt>
      <trkpt lat="47.29214" lon="6.0042">
        <ele>424.56</ele>
        <time>2018-09-22T15:24:18Z</time>
      </trkpt>
      <trkpt lat="47.29215" lon="6.00421">
        <ele>425.04</ele>
        <time>2018-09-22T15:24:19Z</time>
      </trkpt>
      <trkpt lat="47.29216" lon="6.00423">
        <ele>425.04</ele>
        <time>2018-09-22T15:24:20Z</time>
      </trkpt>
      <trkpt lat="47.29218" lon="6.00425">
        <ele>425.04</ele>
        <time>2018-09-22T15:24:21Z</time>
      </trkpt>
      <trkpt lat="47.29219" lon="6.00427">
        <ele>425.04</ele>
        <time>2018-09-22T15:24:22Z</time>
      </trkpt>
      <trkpt lat="47.2922" lon="6.00429">
        <ele>425.52</ele>
        <time>2018-09-22T15:24:23Z</time>
      </trkpt>
      <trkpt lat="47.29222" lon="6.00431">
        <ele>425.52</ele>
        <time>2018-09-22T15:24:24Z</time>
      </trkpt>
      <trkpt lat="47.29238" lon="6.0045">
        <ele>426.96</ele>
        <time>2018-09-22T15:24:34Z</time>
      </trkpt>
      <trkpt lat="47.2924" lon="6.00453">
        <ele>427.44</ele>
        <time>2018-09-22T15:24:35Z</time>
      </trkpt>
      <trkpt lat="47.29242" lon="6.00455">
        <ele>427.44</ele>
        <time>2018-09-22T15:24:36Z</time>
      </trkpt>
      <trkpt lat="47.29266" lon="6.00483">
        <ele>428.89</ele>
        <time>2018-09-22T15:24:47Z</time>
      </trkpt>
      <trkpt lat="47.29281" lon="6.00513">
        <ele>429.85</ele>
        <time>2018-09-22T15:24:58Z</time>
      </trkpt>
      <trkpt lat="47.29292" lon="6.00539">
        <ele>430.81</ele>
        <time>2018-09-22T15:25:06Z</time>
      </trkpt>
      <trkpt lat="47.2931" lon="6.00575">
        <ele>431.77</ele>
        <time>2018-09-22T15:25:16Z</time>
      </trkpt>
      <trkpt lat="47.29329" lon="6.00615">
        <ele>431.77</ele>
        <time>2018-09-22T15:25:27Z</time>
      </trkpt>
      <trkpt lat="47.29347" lon="6.00652">
        <ele>431.77</ele>
        <time>2018-09-22T15:25:36Z</time>
      </trkpt>
      <trkpt lat="47.2936" lon="6.00688">
        <ele>431.29</ele>
        <time>2018-09-22T15:25:44Z</time>
      </trkpt>
      <trkpt lat="47.29363" lon="6.00694">
        <ele>431.29</ele>
        <time>2018-09-22T15:25:45Z</time>
      </trkpt>
      <trkpt lat="47.29365" lon="6.007">
        <ele>431.29</ele>
        <time>2018-09-22T15:25:46Z</time>
      </trkpt>
      <trkpt lat="47.29368" lon="6.00707">
        <ele>430.81</ele>
        <time>2018-09-22T15:25:47Z</time>
      </trkpt>
      <trkpt lat="47.2937" lon="6.00713">
        <ele>430.81</ele>
        <time>2018-09-22T15:25:48Z</time>
      </trkpt>
      <trkpt lat="47.29393" lon="6.00768">
        <ele>428.89</ele>
        <time>2018-09-22T15:26:00Z</time>
      </trkpt>
      <trkpt lat="47.29395" lon="6.00771">
        <ele>428.89</ele>
        <time>2018-09-22T15:26:01Z</time>
      </trkpt>
      <trkpt lat="47.29397" lon="6.00776">
        <ele>428.89</ele>
        <time>2018-09-22T15:26:02Z</time>
      </trkpt>
      <trkpt lat="47.29418" lon="6.0082">
        <ele>426.48</ele>
        <time>2018-09-22T15:26:10Z</time>
      </trkpt>
      <trkpt lat="47.29425" lon="6.00833">
        <ele>425.52</ele>
        <time>2018-09-22T15:26:12Z</time>
      </trkpt>
      <trkpt lat="47.29428" lon="6.0084">
        <ele>425.04</ele>
        <time>2018-09-22T15:26:13Z</time>
      </trkpt>
      <trkpt lat="47.29432" lon="6.00847">
        <ele>424.56</ele>
        <time>2018-09-22T15:26:14Z</time>
      </trkpt>
      <trkpt lat="47.29436" lon="6.00854">
        <ele>424.08</ele>
        <time>2018-09-22T15:26:15Z</time>
      </trkpt>
      <trkpt lat="47.2944" lon="6.00862">
        <ele>423.6</ele>
        <time>2018-09-22T15:26:16Z</time>
      </trkpt>
      <trkpt lat="47.29444" lon="6.0087">
        <ele>423.6</ele>
        <time>2018-09-22T15:26:17Z</time>
      </trkpt>
      <trkpt lat="47.29463" lon="6.0091">
        <ele>420.71</ele>
        <time>2018-09-22T15:26:22Z</time>
      </trkpt>
      <trkpt lat="47.29481" lon="6.00954">
        <ele>418.31</ele>
        <time>2018-09-22T15:26:27Z</time>
      </trkpt>
      <trkpt lat="47.29488" lon="6.00973">
        <ele>416.87</ele>
        <time>2018-09-22T15:26:29Z</time>
      </trkpt>
      <trkpt lat="47.29491" lon="6.00982">
        <ele>416.39</ele>
        <time>2018-09-22T15:26:30Z</time>
      </trkpt>
      <trkpt lat="47.29504" lon="6.01013">
        <ele>413.02</ele>
        <time>2018-09-22T15:26:35Z</time>
      </trkpt>
      <trkpt lat="47.29507" lon="6.01021">
        <ele>411.1</ele>
        <time>2018-09-22T15:26:36Z</time>
      </trkpt>
      <trkpt lat="47.29513" lon="6.01038">
        <ele>408.7</ele>
        <time>2018-09-22T15:26:38Z</time>
      </trkpt>
      <trkpt lat="47.29517" lon="6.01046">
        <ele>408.22</ele>
        <time>2018-09-22T15:26:39Z</time>
      </trkpt>
      <trkpt lat="47.2952" lon="6.01052">
        <ele>408.22</ele>
        <time>2018-09-22T15:26:40Z</time>
      </trkpt>
      <trkpt lat="47.29522" lon="6.01058">
        <ele>407.74</ele>
        <time>2018-09-22T15:26:41Z</time>
      </trkpt>
      <trkpt lat="47.29524" lon="6.01064">
        <ele>406.77</ele>
        <time>2018-09-22T15:26:42Z</time>
      </trkpt>
      <trkpt lat="47.29527" lon="6.01096">
        <ele>403.89</ele>
        <time>2018-09-22T15:26:48Z</time>
      </trkpt>
      <trkpt lat="47.29529" lon="6.01101">
        <ele>402.45</ele>
        <time>2018-09-22T15:26:50Z</time>
      </trkpt>
      <trkpt lat="47.2953" lon="6.01105">
        <ele>402.45</ele>
        <time>2018-09-22T15:26:51Z</time>
      </trkpt>
      <trkpt lat="47.29532" lon="6.01109">
        <ele>402.45</ele>
        <time>2018-09-22T15:26:52Z</time>
      </trkpt>
      <trkpt lat="47.29533" lon="6.01112">
        <ele>402.93</ele>
        <time>2018-09-22T15:26:53Z</time>
      </trkpt>
      <trkpt lat="47.29535" lon="6.01115">
        <ele>403.41</ele>
        <time>2018-09-22T15:26:54Z</time>
      </trkpt>
      <trkpt lat="47.29536" lon="6.01118">
        <ele>404.37</ele>
        <time>2018-09-22T15:26:55Z</time>
      </trkpt>
      <trkpt lat="47.29537" lon="6.0112">
        <ele>404.85</ele>
        <time>2018-09-22T15:26:56Z</time>
      </trkpt>
      <trkpt lat="47.29537" lon="6.01123">
        <ele>404.85</ele>
        <time>2018-09-22T15:26:57Z</time>
      </trkpt>
      <trkpt lat="47.29539" lon="6.01127">
        <ele>404.85</ele>
        <time>2018-09-22T15:26:58Z</time>
      </trkpt>
      <trkpt lat="47.2954" lon="6.01131">
        <ele>404.85</ele>
        <time>2018-09-22T15:26:59Z</time>
      </trkpt>
      <trkpt lat="47.29541" lon="6.01133">
        <ele>404.85</ele>
        <time>2018-09-22T15:27:00Z</time>
      </trkpt>
      <trkpt lat="47.29543" lon="6.01136">
        <ele>405.81</ele>
        <time>2018-09-22T15:27:01Z</time>
      </trkpt>
      <trkpt lat="47.29544" lon="6.01138">
        <ele>405.81</ele>
        <time>2018-09-22T15:27:02Z</time>
      </trkpt>
      <trkpt lat="47.29546" lon="6.0114">
        <ele>406.29</ele>
        <time>2018-09-22T15:27:03Z</time>
      </trkpt>
      <trkpt lat="47.29553" lon="6.01149">
        <ele>407.74</ele>
        <time>2018-09-22T15:27:09Z</time>
      </trkpt>
      <trkpt lat="47.29558" lon="6.01153">
        <ele>408.7</ele>
        <time>2018-09-22T15:27:13Z</time>
      </trkpt>
      <trkpt lat="47.2956" lon="6.01155">
        <ele>408.7</ele>
        <time>2018-09-22T15:27:14Z</time>
      </trkpt>
      <trkpt lat="47.29562" lon="6.01159">
        <ele>409.18</ele>
        <time>2018-09-22T15:27:16Z</time>
      </trkpt>
      <trkpt lat="47.29563" lon="6.01161">
        <ele>409.18</ele>
        <time>2018-09-22T15:27:17Z</time>
      </trkpt>
      <trkpt lat="47.29565" lon="6.01163">
        <ele>409.18</ele>
        <time>2018-09-22T15:27:18Z</time>
      </trkpt>
      <trkpt lat="47.29571" lon="6.01173">
        <ele>410.14</ele>
        <time>2018-09-22T15:27:23Z</time>
      </trkpt>
      <trkpt lat="47.29573" lon="6.01175">
        <ele>410.62</ele>
        <time>2018-09-22T15:27:24Z</time>
      </trkpt>
      <trkpt lat="47.29575" lon="6.01178">
        <ele>410.62</ele>
        <time>2018-09-22T15:27:25Z</time>
      </trkpt>
      <trkpt lat="47.29576" lon="6.01182">
        <ele>410.62</ele>
        <time>2018-09-22T15:27:26Z</time>
      </trkpt>
      <trkpt lat="47.29578" lon="6.01184">
        <ele>411.1</ele>
        <time>2018-09-22T15:27:27Z</time>
      </trkpt>
      <trkpt lat="47.29579" lon="6.01187">
        <ele>411.1</ele>
        <time>2018-09-22T15:27:28Z</time>
      </trkpt>
      <trkpt lat="47.29583" lon="6.01197">
        <ele>411.58</ele>
        <time>2018-09-22T15:27:32Z</time>
      </trkpt>
      <trkpt lat="47.29585" lon="6.012">
        <ele>412.06</ele>
        <time>2018-09-22T15:27:33Z</time>
      </trkpt>
      <trkpt lat="47.29589" lon="6.01208">
        <ele>412.06</ele>
        <time>2018-09-22T15:27:36Z</time>
      </trkpt>
      <trkpt lat="47.29591" lon="6.0121">
        <ele>412.54</ele>
        <time>2018-09-22T15:27:37Z</time>
      </trkpt>
      <trkpt lat="47.29593" lon="6.01212">
        <ele>412.54</ele>
        <time>2018-09-22T15:27:38Z</time>
      </trkpt>
      <trkpt lat="47.29595" lon="6.01215">
        <ele>412.54</ele>
        <time>2018-09-22T15:27:39Z</time>
      </trkpt>
      <trkpt lat="47.29597" lon="6.01217">
        <ele>412.54</ele>
        <time>2018-09-22T15:27:40Z</time>
      </trkpt>
      <trkpt lat="47.296" lon="6.01219">
        <ele>413.02</ele>
        <time>2018-09-22T15:27:41Z</time>
      </trkpt>
      <trkpt lat="47.29615" lon="6.01241">
        <ele>414.47</ele>
        <time>2018-09-22T15:27:51Z</time>
      </trkpt>
      <trkpt lat="47.29625" lon="6.01252">
        <ele>414.95</ele>
        <time>2018-09-22T15:27:56Z</time>
      </trkpt>
      <trkpt lat="47.29627" lon="6.01254">
        <ele>414.95</ele>
        <time>2018-09-22T15:27:57Z</time>
      </trkpt>
      <trkpt lat="47.29629" lon="6.01258">
        <ele>414.95</ele>
        <time>2018-09-22T15:27:58Z</time>
      </trkpt>
      <trkpt lat="47.29652" lon="6.01291">
        <ele>415.91</ele>
        <time>2018-09-22T15:28:09Z</time>
      </trkpt>
      <trkpt lat="47.29672" lon="6.01309">
        <ele>416.87</ele>
        <time>2018-09-22T15:28:17Z</time>
      </trkpt>
      <trkpt lat="47.2969" lon="6.01335">
        <ele>417.83</ele>
        <time>2018-09-22T15:28:25Z</time>
      </trkpt>
      <trkpt lat="47.29705" lon="6.01357">
        <ele>418.79</ele>
        <time>2018-09-22T15:28:32Z</time>
      </trkpt>
      <trkpt lat="47.29732" lon="6.01391">
        <ele>420.71</ele>
        <time>2018-09-22T15:28:42Z</time>
      </trkpt>
      <trkpt lat="47.29752" lon="6.01419">
        <ele>421.68</ele>
        <time>2018-09-22T15:28:50Z</time>
      </trkpt>
      <trkpt lat="47.29771" lon="6.01446">
        <ele>424.08</ele>
        <time>2018-09-22T15:28:59Z</time>
      </trkpt>
      <trkpt lat="47.29776" lon="6.01455">
        <ele>424.56</ele>
        <time>2018-09-22T15:29:02Z</time>
      </trkpt>
      <trkpt lat="47.29786" lon="6.01469">
        <ele>426</ele>
        <time>2018-09-22T15:29:08Z</time>
      </trkpt>
      <trkpt lat="47.29787" lon="6.01471">
        <ele>426</ele>
        <time>2018-09-22T15:29:09Z</time>
      </trkpt>
      <trkpt lat="47.29789" lon="6.01475">
        <ele>426.48</ele>
        <time>2018-09-22T15:29:11Z</time>
      </trkpt>
      <trkpt lat="47.2979" lon="6.01478">
        <ele>426.48</ele>
        <time>2018-09-22T15:29:12Z</time>
      </trkpt>
      <trkpt lat="47.29791" lon="6.01481">
        <ele>426.96</ele>
        <time>2018-09-22T15:29:13Z</time>
      </trkpt>
      <trkpt lat="47.29792" lon="6.01483">
        <ele>426.96</ele>
        <time>2018-09-22T15:29:14Z</time>
      </trkpt>
      <trkpt lat="47.29794" lon="6.01486">
        <ele>426.96</ele>
        <time>2018-09-22T15:29:15Z</time>
      </trkpt>
      <trkpt lat="47.29795" lon="6.01488">
        <ele>426.96</ele>
        <time>2018-09-22T15:29:16Z</time>
      </trkpt>
      <trkpt lat="47.29797" lon="6.01491">
        <ele>427.44</ele>
        <time>2018-09-22T15:29:17Z</time>
      </trkpt>
      <trkpt lat="47.29798" lon="6.01494">
        <ele>427.44</ele>
        <time>2018-09-22T15:29:18Z</time>
      </trkpt>
      <trkpt lat="47.29799" lon="6.01497">
        <ele>427.44</ele>
        <time>2018-09-22T15:29:19Z</time>
      </trkpt>
      <trkpt lat="47.298" lon="6.015">
        <ele>427.92</ele>
        <time>2018-09-22T15:29:20Z</time>
      </trkpt>
      <trkpt lat="47.29802" lon="6.01502">
        <ele>427.92</ele>
        <time>2018-09-22T15:29:21Z</time>
      </trkpt>
      <trkpt lat="47.29803" lon="6.01505">
        <ele>427.92</ele>
        <time>2018-09-22T15:29:22Z</time>
      </trkpt>
      <trkpt lat="47.29807" lon="6.01518">
        <ele>428.89</ele>
        <time>2018-09-22T15:29:27Z</time>
      </trkpt>
      <trkpt lat="47.29808" lon="6.01522">
        <ele>428.89</ele>
        <time>2018-09-22T15:29:28Z</time>
      </trkpt>
      <trkpt lat="47.29814" lon="6.01538">
        <ele>429.85</ele>
        <time>2018-09-22T15:29:34Z</time>
      </trkpt>
      <trkpt lat="47.29815" lon="6.01541">
        <ele>429.85</ele>
        <time>2018-09-22T15:29:35Z</time>
      </trkpt>
      <trkpt lat="47.29817" lon="6.01544">
        <ele>430.33</ele>
        <time>2018-09-22T15:29:36Z</time>
      </trkpt>
      <trkpt lat="47.29818" lon="6.01547">
        <ele>430.33</ele>
        <time>2018-09-22T15:29:37Z</time>
      </trkpt>
      <trkpt lat="47.29819" lon="6.0155">
        <ele>430.33</ele>
        <time>2018-09-22T15:29:38Z</time>
      </trkpt>
      <trkpt lat="47.29821" lon="6.01553">
        <ele>430.81</ele>
        <time>2018-09-22T15:29:39Z</time>
      </trkpt>
      <trkpt lat="47.29822" lon="6.01556">
        <ele>430.81</ele>
        <time>2018-09-22T15:29:40Z</time>
      </trkpt>
      <trkpt lat="47.29823" lon="6.01558">
        <ele>430.81</ele>
        <time>2018-09-22T15:29:41Z</time>
      </trkpt>
      <trkpt lat="47.29825" lon="6.01561">
        <ele>430.81</ele>
        <time>2018-09-22T15:29:42Z</time>
      </trkpt>
      <trkpt lat="47.29826" lon="6.01564">
        <ele>430.81</ele>
        <time>2018-09-22T15:29:43Z</time>
      </trkpt>
      <trkpt lat="47.29827" lon="6.01566">
        <ele>430.81</ele>
        <time>2018-09-22T15:29:44Z</time>
      </trkpt>
      <trkpt lat="47.29828" lon="6.01568">
        <ele>430.81</ele>
        <time>2018-09-22T15:29:45Z</time>
      </trkpt>
      <trkpt lat="47.29829" lon="6.01569">
        <ele>431.29</ele>
        <time>2018-09-22T15:29:46Z</time>
      </trkpt>
      <trkpt lat="47.29831" lon="6.01572">
        <ele>431.29</ele>
        <time>2018-09-22T15:29:47Z</time>
      </trkpt>
      <trkpt lat="47.29832" lon="6.01574">
        <ele>431.29</ele>
        <time>2018-09-22T15:29:48Z</time>
      </trkpt>
      <trkpt lat="47.29835" lon="6.01577">
        <ele>431.29</ele>
        <time>2018-09-22T15:29:49Z</time>
      </trkpt>
      <trkpt lat="47.29836" lon="6.0158">
        <ele>431.77</ele>
        <time>2018-09-22T15:29:50Z</time>
      </trkpt>
      <trkpt lat="47.29838" lon="6.01583">
        <ele>431.77</ele>
        <time>2018-09-22T15:29:51Z</time>
      </trkpt>
      <trkpt lat="47.29841" lon="6.01586">
        <ele>432.25</ele>
        <time>2018-09-22T15:29:52Z</time>
      </trkpt>
      <trkpt lat="47.29843" lon="6.01589">
        <ele>432.25</ele>
        <time>2018-09-22T15:29:53Z</time>
      </trkpt>
      <trkpt lat="47.29845" lon="6.01592">
        <ele>432.25</ele>
        <time>2018-09-22T15:29:54Z</time>
      </trkpt>
      <trkpt lat="47.29847" lon="6.01595">
        <ele>432.73</ele>
        <time>2018-09-22T15:29:55Z</time>
      </trkpt>
      <trkpt lat="47.29849" lon="6.01598">
        <ele>433.21</ele>
        <time>2018-09-22T15:29:56Z</time>
      </trkpt>
      <trkpt lat="47.29851" lon="6.016">
        <ele>433.21</ele>
        <time>2018-09-22T15:29:57Z</time>
      </trkpt>
      <trkpt lat="47.29853" lon="6.01603">
        <ele>433.69</ele>
        <time>2018-09-22T15:29:58Z</time>
      </trkpt>
      <trkpt lat="47.29854" lon="6.01606">
        <ele>433.69</ele>
        <time>2018-09-22T15:29:59Z</time>
      </trkpt>
      <trkpt lat="47.29855" lon="6.01609">
        <ele>433.69</ele>
        <time>2018-09-22T15:30:00Z</time>
      </trkpt>
      <trkpt lat="47.29856" lon="6.01612">
        <ele>434.17</ele>
        <time>2018-09-22T15:30:01Z</time>
      </trkpt>
      <trkpt lat="47.29857" lon="6.01615">
        <ele>434.65</ele>
        <time>2018-09-22T15:30:02Z</time>
      </trkpt>
      <trkpt lat="47.29866" lon="6.01628">
        <ele>435.61</ele>
        <time>2018-09-22T15:30:07Z</time>
      </trkpt>
      <trkpt lat="47.29868" lon="6.01629">
        <ele>436.1</ele>
        <time>2018-09-22T15:30:08Z</time>
      </trkpt>
      <trkpt lat="47.29869" lon="6.01631">
        <ele>436.1</ele>
        <time>2018-09-22T15:30:09Z</time>
      </trkpt>
      <trkpt lat="47.29872" lon="6.01634">
        <ele>436.1</ele>
        <time>2018-09-22T15:30:10Z</time>
      </trkpt>
      <trkpt lat="47.29874" lon="6.01636">
        <ele>436.58</ele>
        <time>2018-09-22T15:30:11Z</time>
      </trkpt>
      <trkpt lat="47.29876" lon="6.01637">
        <ele>436.58</ele>
        <time>2018-09-22T15:30:12Z</time>
      </trkpt>
      <trkpt lat="47.29877" lon="6.01639">
        <ele>436.58</ele>
        <time>2018-09-22T15:30:13Z</time>
      </trkpt>
      <trkpt lat="47.29878" lon="6.01641">
        <ele>437.06</ele>
        <time>2018-09-22T15:30:14Z</time>
      </trkpt>
      <trkpt lat="47.29879" lon="6.01643">
        <ele>437.06</ele>
        <time>2018-09-22T15:30:15Z</time>
      </trkpt>
      <trkpt lat="47.29881" lon="6.01645">
        <ele>437.06</ele>
        <time>2018-09-22T15:30:16Z</time>
      </trkpt>
      <trkpt lat="47.29882" lon="6.01647">
        <ele>437.06</ele>
        <time>2018-09-22T15:30:17Z</time>
      </trkpt>
      <trkpt lat="47.29884" lon="6.01649">
        <ele>437.54</ele>
        <time>2018-09-22T15:30:18Z</time>
      </trkpt>
      <trkpt lat="47.29886" lon="6.01651">
        <ele>437.54</ele>
        <time>2018-09-22T15:30:19Z</time>
      </trkpt>
      <trkpt lat="47.29887" lon="6.01652">
        <ele>438.02</ele>
        <time>2018-09-22T15:30:20Z</time>
      </trkpt>
      <trkpt lat="47.29888" lon="6.01654">
        <ele>438.02</ele>
        <time>2018-09-22T15:30:21Z</time>
      </trkpt>
      <trkpt lat="47.2989" lon="6.01656">
        <ele>438.5</ele>
        <time>2018-09-22T15:30:22Z</time>
      </trkpt>
      <trkpt lat="47.29892" lon="6.01657">
        <ele>438.5</ele>
        <time>2018-09-22T15:30:23Z</time>
      </trkpt>
      <trkpt lat="47.29908" lon="6.01683">
        <ele>439.94</ele>
        <time>2018-09-22T15:30:33Z</time>
      </trkpt>
      <trkpt lat="47.29925" lon="6.01708">
        <ele>441.86</ele>
        <time>2018-09-22T15:30:43Z</time>
      </trkpt>
      <trkpt lat="47.2993" lon="6.01716">
        <ele>442.34</ele>
        <time>2018-09-22T15:30:46Z</time>
      </trkpt>
      <trkpt lat="47.29931" lon="6.01719">
        <ele>442.82</ele>
        <time>2018-09-22T15:30:47Z</time>
      </trkpt>
      <trkpt lat="47.29931" lon="6.01722">
        <ele>442.82</ele>
        <time>2018-09-22T15:30:48Z</time>
      </trkpt>
      <trkpt lat="47.29933" lon="6.01724">
        <ele>442.82</ele>
        <time>2018-09-22T15:30:49Z</time>
      </trkpt>
      <trkpt lat="47.29935" lon="6.01727">
        <ele>442.82</ele>
        <time>2018-09-22T15:30:50Z</time>
      </trkpt>
      <trkpt lat="47.29942" lon="6.01749">
        <ele>443.79</ele>
        <time>2018-09-22T15:30:58Z</time>
      </trkpt>
      <trkpt lat="47.29943" lon="6.01753">
        <ele>444.27</ele>
        <time>2018-09-22T15:31:01Z</time>
      </trkpt>
      <trkpt lat="47.29944" lon="6.01756">
        <ele>444.27</ele>
        <time>2018-09-22T15:31:02Z</time>
      </trkpt>
      <trkpt lat="47.29946" lon="6.0176">
        <ele>444.27</ele>
        <time>2018-09-22T15:31:03Z</time>
      </trkpt>
      <trkpt lat="47.29946" lon="6.01764">
        <ele>443.79</ele>
        <time>2018-09-22T15:31:04Z</time>
      </trkpt>
      <trkpt lat="47.29946" lon="6.01768">
        <ele>444.27</ele>
        <time>2018-09-22T15:31:05Z</time>
      </trkpt>
      <trkpt lat="47.29946" lon="6.01778">
        <ele>443.79</ele>
        <time>2018-09-22T15:31:07Z</time>
      </trkpt>
      <trkpt lat="47.29946" lon="6.01783">
        <ele>443.31</ele>
        <time>2018-09-22T15:31:08Z</time>
      </trkpt>
      <trkpt lat="47.29946" lon="6.01788">
        <ele>443.31</ele>
        <time>2018-09-22T15:31:09Z</time>
      </trkpt>
      <trkpt lat="47.29946" lon="6.01793">
        <ele>442.82</ele>
        <time>2018-09-22T15:31:10Z</time>
      </trkpt>
      <trkpt lat="47.29946" lon="6.01798">
        <ele>442.82</ele>
        <time>2018-09-22T15:31:11Z</time>
      </trkpt>
      <trkpt lat="47.29946" lon="6.01804">
        <ele>442.34</ele>
        <time>2018-09-22T15:31:12Z</time>
      </trkpt>
      <trkpt lat="47.29948" lon="6.0181">
        <ele>442.34</ele>
        <time>2018-09-22T15:31:13Z</time>
      </trkpt>
      <trkpt lat="47.29952" lon="6.0183">
        <ele>442.34</ele>
        <time>2018-09-22T15:31:17Z</time>
      </trkpt>
      <trkpt lat="47.29952" lon="6.01835">
        <ele>442.34</ele>
        <time>2018-09-22T15:31:18Z</time>
      </trkpt>
      <trkpt lat="47.29953" lon="6.0184">
        <ele>441.86</ele>
        <time>2018-09-22T15:31:19Z</time>
      </trkpt>
      <trkpt lat="47.29954" lon="6.01846">
        <ele>441.86</ele>
        <time>2018-09-22T15:31:20Z</time>
      </trkpt>
      <trkpt lat="47.29956" lon="6.01851">
        <ele>442.34</ele>
        <time>2018-09-22T15:31:21Z</time>
      </trkpt>
      <trkpt lat="47.29957" lon="6.01855">
        <ele>442.34</ele>
        <time>2018-09-22T15:31:22Z</time>
      </trkpt>
      <trkpt lat="47.2996" lon="6.0188">
        <ele>443.31</ele>
        <time>2018-09-22T15:31:28Z</time>
      </trkpt>
      <trkpt lat="47.29961" lon="6.01884">
        <ele>443.79</ele>
        <time>2018-09-22T15:31:29Z</time>
      </trkpt>
      <trkpt lat="47.29962" lon="6.01887">
        <ele>443.79</ele>
        <time>2018-09-22T15:31:30Z</time>
      </trkpt>
      <trkpt lat="47.29966" lon="6.01908">
        <ele>444.75</ele>
        <time>2018-09-22T15:31:36Z</time>
      </trkpt>
      <trkpt lat="47.29966" lon="6.01913">
        <ele>444.75</ele>
        <time>2018-09-22T15:31:37Z</time>
      </trkpt>
      <trkpt lat="47.29965" lon="6.01921">
        <ele>444.75</ele>
        <time>2018-09-22T15:31:39Z</time>
      </trkpt>
      <trkpt lat="47.29969" lon="6.01936">
        <ele>445.71</ele>
        <time>2018-09-22T15:31:44Z</time>
      </trkpt>
      <trkpt lat="47.29969" lon="6.01939">
        <ele>445.71</ele>
        <time>2018-09-22T15:31:45Z</time>
      </trkpt>
      <trkpt lat="47.2997" lon="6.01941">
        <ele>445.71</ele>
        <time>2018-09-22T15:31:46Z</time>
      </trkpt>
      <trkpt lat="47.29971" lon="6.01944">
        <ele>446.19</ele>
        <time>2018-09-22T15:31:47Z</time>
      </trkpt>
      <trkpt lat="47.29971" lon="6.01947">
        <ele>446.19</ele>
        <time>2018-09-22T15:31:48Z</time>
      </trkpt>
      <trkpt lat="47.29971" lon="6.0195">
        <ele>446.19</ele>
        <time>2018-09-22T15:31:49Z</time>
      </trkpt>
      <trkpt lat="47.29974" lon="6.01965">
        <ele>447.15</ele>
        <time>2018-09-22T15:31:54Z</time>
      </trkpt>
      <trkpt lat="47.29975" lon="6.01967">
        <ele>447.63</ele>
        <time>2018-09-22T15:31:55Z</time>
      </trkpt>
      <trkpt lat="47.29975" lon="6.01969">
        <ele>447.63</ele>
        <time>2018-09-22T15:31:56Z</time>
      </trkpt>
      <trkpt lat="47.29975" lon="6.01975">
        <ele>447.63</ele>
        <time>2018-09-22T15:31:58Z</time>
      </trkpt>
      <trkpt lat="47.29975" lon="6.01978">
        <ele>448.11</ele>
        <time>2018-09-22T15:31:59Z</time>
      </trkpt>
      <trkpt lat="47.29976" lon="6.01981">
        <ele>448.59</ele>
        <time>2018-09-22T15:32:00Z</time>
      </trkpt>
      <trkpt lat="47.29982" lon="6.02007">
        <ele>450.03</ele>
        <time>2018-09-22T15:32:09Z</time>
      </trkpt>
      <trkpt lat="47.29982" lon="6.0201">
        <ele>450.03</ele>
        <time>2018-09-22T15:32:10Z</time>
      </trkpt>
      <trkpt lat="47.29982" lon="6.02013">
        <ele>450.03</ele>
        <time>2018-09-22T15:32:11Z</time>
      </trkpt>
      <trkpt lat="47.29983" lon="6.02016">
        <ele>450.03</ele>
        <time>2018-09-22T15:32:12Z</time>
      </trkpt>
      <trkpt lat="47.29983" lon="6.0202">
        <ele>450.03</ele>
        <time>2018-09-22T15:32:13Z</time>
      </trkpt>
      <trkpt lat="47.29983" lon="6.02023">
        <ele>450.52</ele>
        <time>2018-09-22T15:32:14Z</time>
      </trkpt>
      <trkpt lat="47.29982" lon="6.02026">
        <ele>450.52</ele>
        <time>2018-09-22T15:32:15Z</time>
      </trkpt>
      <trkpt lat="47.29982" lon="6.02028">
        <ele>450.52</ele>
        <time>2018-09-22T15:32:16Z</time>
      </trkpt>
      <trkpt lat="47.29982" lon="6.02031">
        <ele>450.52</ele>
        <time>2018-09-22T15:32:17Z</time>
      </trkpt>
      <trkpt lat="47.29982" lon="6.02035">
        <ele>451</ele>
        <time>2018-09-22T15:32:18Z</time>
      </trkpt>
      <trkpt lat="47.29981" lon="6.02037">
        <ele>451</ele>
        <time>2018-09-22T15:32:19Z</time>
      </trkpt>
      <trkpt lat="47.29982" lon="6.02039">
        <ele>451</ele>
        <time>2018-09-22T15:32:20Z</time>
      </trkpt>
      <trkpt lat="47.29982" lon="6.02042">
        <ele>451</ele>
        <time>2018-09-22T15:32:21Z</time>
      </trkpt>
      <trkpt lat="47.29983" lon="6.02044">
        <ele>451.48</ele>
        <time>2018-09-22T15:32:22Z</time>
      </trkpt>
      <trkpt lat="47.29983" lon="6.02047">
        <ele>451.48</ele>
        <time>2018-09-22T15:32:23Z</time>
      </trkpt>
      <trkpt lat="47.29984" lon="6.0205">
        <ele>451.96</ele>
        <time>2018-09-22T15:32:24Z</time>
      </trkpt>
      <trkpt lat="47.29985" lon="6.02054">
        <ele>452.44</ele>
        <time>2018-09-22T15:32:26Z</time>
      </trkpt>
      <trkpt lat="47.29985" lon="6.02056">
        <ele>452.44</ele>
        <time>2018-09-22T15:32:27Z</time>
      </trkpt>
      <trkpt lat="47.29985" lon="6.02059">
        <ele>452.44</ele>
        <time>2018-09-22T15:32:28Z</time>
      </trkpt>
      <trkpt lat="47.29985" lon="6.02062">
        <ele>452.44</ele>
        <time>2018-09-22T15:32:29Z</time>
      </trkpt>
      <trkpt lat="47.29985" lon="6.02064">
        <ele>452.92</ele>
        <time>2018-09-22T15:32:30Z</time>
      </trkpt>
      <trkpt lat="47.29985" lon="6.02067">
        <ele>452.92</ele>
        <time>2018-09-22T15:32:31Z</time>
      </trkpt>
      <trkpt lat="47.29986" lon="6.02069">
        <ele>452.92</ele>
        <time>2018-09-22T15:32:32Z</time>
      </trkpt>
      <trkpt lat="47.29987" lon="6.02072">
        <ele>452.92</ele>
        <time>2018-09-22T15:32:33Z</time>
      </trkpt>
      <trkpt lat="47.29988" lon="6.0208">
        <ele>453.4</ele>
        <time>2018-09-22T15:32:36Z</time>
      </trkpt>
      <trkpt lat="47.29989" lon="6.02096">
        <ele>455.32</ele>
        <time>2018-09-22T15:32:45Z</time>
      </trkpt>
      <trkpt lat="47.2999" lon="6.02101">
        <ele>456.28</ele>
        <time>2018-09-22T15:32:48Z</time>
      </trkpt>
      <trkpt lat="47.29992" lon="6.02115">
        <ele>457.24</ele>
        <time>2018-09-22T15:32:56Z</time>
      </trkpt>
      <trkpt lat="47.29993" lon="6.02117">
        <ele>457.72</ele>
        <time>2018-09-22T15:32:57Z</time>
      </trkpt>
      <trkpt lat="47.29994" lon="6.0212">
        <ele>457.72</ele>
        <time>2018-09-22T15:32:58Z</time>
      </trkpt>
      <trkpt lat="47.29995" lon="6.02122">
        <ele>457.72</ele>
        <time>2018-09-22T15:32:59Z</time>
      </trkpt>
      <trkpt lat="47.29996" lon="6.02123">
        <ele>458.21</ele>
        <time>2018-09-22T15:33:00Z</time>
      </trkpt>
      <trkpt lat="47.29997" lon="6.02125">
        <ele>458.21</ele>
        <time>2018-09-22T15:33:01Z</time>
      </trkpt>
      <trkpt lat="47.30001" lon="6.02135">
        <ele>459.65</ele>
        <time>2018-09-22T15:33:07Z</time>
      </trkpt>
      <trkpt lat="47.30002" lon="6.02139">
        <ele>460.13</ele>
        <time>2018-09-22T15:33:09Z</time>
      </trkpt>
      <trkpt lat="47.30007" lon="6.02146">
        <ele>460.61</ele>
        <time>2018-09-22T15:33:13Z</time>
      </trkpt>
      <trkpt lat="47.3001" lon="6.02156">
        <ele>462.05</ele>
        <time>2018-09-22T15:33:18Z</time>
      </trkpt>
      <trkpt lat="47.30011" lon="6.02158">
        <ele>462.05</ele>
        <time>2018-09-22T15:33:19Z</time>
      </trkpt>
      <trkpt lat="47.3002" lon="6.02175">
        <ele>463.49</ele>
        <time>2018-09-22T15:33:29Z</time>
      </trkpt>
      <trkpt lat="47.3002" lon="6.02177">
        <ele>463.97</ele>
        <time>2018-09-22T15:33:30Z</time>
      </trkpt>
      <trkpt lat="47.30021" lon="6.02179">
        <ele>463.97</ele>
        <time>2018-09-22T15:33:31Z</time>
      </trkpt>
      <trkpt lat="47.30022" lon="6.02181">
        <ele>463.97</ele>
        <time>2018-09-22T15:33:32Z</time>
      </trkpt>
      <trkpt lat="47.30023" lon="6.02183">
        <ele>464.45</ele>
        <time>2018-09-22T15:33:33Z</time>
      </trkpt>
      <trkpt lat="47.30024" lon="6.02185">
        <ele>464.45</ele>
        <time>2018-09-22T15:33:34Z</time>
      </trkpt>
      <trkpt lat="47.30033" lon="6.02204">
        <ele>466.86</ele>
        <time>2018-09-22T15:33:45Z</time>
      </trkpt>
      <trkpt lat="47.30035" lon="6.02205">
        <ele>467.34</ele>
        <time>2018-09-22T15:33:47Z</time>
      </trkpt>
      <trkpt lat="47.30037" lon="6.0221">
        <ele>467.82</ele>
        <time>2018-09-22T15:33:50Z</time>
      </trkpt>
      <trkpt lat="47.30047" lon="6.02226">
        <ele>469.74</ele>
        <time>2018-09-22T15:34:01Z</time>
      </trkpt>
      <trkpt lat="47.30049" lon="6.02227">
        <ele>470.22</ele>
        <time>2018-09-22T15:34:02Z</time>
      </trkpt>
      <trkpt lat="47.3005" lon="6.02228">
        <ele>470.22</ele>
        <time>2018-09-22T15:34:03Z</time>
      </trkpt>
      <trkpt lat="47.30051" lon="6.0223">
        <ele>470.7</ele>
        <time>2018-09-22T15:34:04Z</time>
      </trkpt>
      <trkpt lat="47.30059" lon="6.02246">
        <ele>472.63</ele>
        <time>2018-09-22T15:34:14Z</time>
      </trkpt>
      <trkpt lat="47.30059" lon="6.02249">
        <ele>473.11</ele>
        <time>2018-09-22T15:34:15Z</time>
      </trkpt>
      <trkpt lat="47.30063" lon="6.02264">
        <ele>474.07</ele>
        <time>2018-09-22T15:34:23Z</time>
      </trkpt>
      <trkpt lat="47.30064" lon="6.02266">
        <ele>474.55</ele>
        <time>2018-09-22T15:34:24Z</time>
      </trkpt>
      <trkpt lat="47.30065" lon="6.02277">
        <ele>475.03</ele>
        <time>2018-09-22T15:34:29Z</time>
      </trkpt>
      <trkpt lat="47.30065" lon="6.02281">
        <ele>475.99</ele>
        <time>2018-09-22T15:34:33Z</time>
      </trkpt>
      <trkpt lat="47.30067" lon="6.02283">
        <ele>475.99</ele>
        <time>2018-09-22T15:34:34Z</time>
      </trkpt>
      <trkpt lat="47.30069" lon="6.02292">
        <ele>476.95</ele>
        <time>2018-09-22T15:34:40Z</time>
      </trkpt>
      <trkpt lat="47.30072" lon="6.02298">
        <ele>477.43</ele>
        <time>2018-09-22T15:34:43Z</time>
      </trkpt>
      <trkpt lat="47.30072" lon="6.02299">
        <ele>477.43</ele>
        <time>2018-09-22T15:34:44Z</time>
      </trkpt>
      <trkpt lat="47.30074" lon="6.02304">
        <ele>477.91</ele>
        <time>2018-09-22T15:34:47Z</time>
      </trkpt>
      <trkpt lat="47.30076" lon="6.02306">
        <ele>477.91</ele>
        <time>2018-09-22T15:34:48Z</time>
      </trkpt>
      <trkpt lat="47.30077" lon="6.02309">
        <ele>478.39</ele>
        <time>2018-09-22T15:34:49Z</time>
      </trkpt>
      <trkpt lat="47.30078" lon="6.02311">
        <ele>478.39</ele>
        <time>2018-09-22T15:34:50Z</time>
      </trkpt>
      <trkpt lat="47.30085" lon="6.02327">
        <ele>479.84</ele>
        <time>2018-09-22T15:35:00Z</time>
      </trkpt>
      <trkpt lat="47.30086" lon="6.0233">
        <ele>479.84</ele>
        <time>2018-09-22T15:35:01Z</time>
      </trkpt>
      <trkpt lat="47.30088" lon="6.02332">
        <ele>480.32</ele>
        <time>2018-09-22T15:35:02Z</time>
      </trkpt>
      <trkpt lat="47.30089" lon="6.02336">
        <ele>480.32</ele>
        <time>2018-09-22T15:35:03Z</time>
      </trkpt>
      <trkpt lat="47.3009" lon="6.02338">
        <ele>480.32</ele>
        <time>2018-09-22T15:35:04Z</time>
      </trkpt>
      <trkpt lat="47.30092" lon="6.0234">
        <ele>480.8</ele>
        <time>2018-09-22T15:35:05Z</time>
      </trkpt>
      <trkpt lat="47.30093" lon="6.02343">
        <ele>480.8</ele>
        <time>2018-09-22T15:35:06Z</time>
      </trkpt>
      <trkpt lat="47.30094" lon="6.02345">
        <ele>480.8</ele>
        <time>2018-09-22T15:35:07Z</time>
      </trkpt>
      <trkpt lat="47.30096" lon="6.02348">
        <ele>480.8</ele>
        <time>2018-09-22T15:35:08Z</time>
      </trkpt>
      <trkpt lat="47.30096" lon="6.02351">
        <ele>480.8</ele>
        <time>2018-09-22T15:35:09Z</time>
      </trkpt>
      <trkpt lat="47.30097" lon="6.02353">
        <ele>481.28</ele>
        <time>2018-09-22T15:35:10Z</time>
      </trkpt>
      <trkpt lat="47.30098" lon="6.02358">
        <ele>481.76</ele>
        <time>2018-09-22T15:35:13Z</time>
      </trkpt>
      <trkpt lat="47.30098" lon="6.0236">
        <ele>482.24</ele>
        <time>2018-09-22T15:35:14Z</time>
      </trkpt>
      <trkpt lat="47.30102" lon="6.02369">
        <ele>482.24</ele>
        <time>2018-09-22T15:35:19Z</time>
      </trkpt>
      <trkpt lat="47.30103" lon="6.02371">
        <ele>482.24</ele>
        <time>2018-09-22T15:35:20Z</time>
      </trkpt>
      <trkpt lat="47.30105" lon="6.02373">
        <ele>482.72</ele>
        <time>2018-09-22T15:35:21Z</time>
      </trkpt>
      <trkpt lat="47.30107" lon="6.02374">
        <ele>483.2</ele>
        <time>2018-09-22T15:35:22Z</time>
      </trkpt>
      <trkpt lat="47.3011" lon="6.02381">
        <ele>483.2</ele>
        <time>2018-09-22T15:35:25Z</time>
      </trkpt>
      <trkpt lat="47.30112" lon="6.02386">
        <ele>483.2</ele>
        <time>2018-09-22T15:35:27Z</time>
      </trkpt>
      <trkpt lat="47.30113" lon="6.02389">
        <ele>483.2</ele>
        <time>2018-09-22T15:35:28Z</time>
      </trkpt>
      <trkpt lat="47.30114" lon="6.02391">
        <ele>483.2</ele>
        <time>2018-09-22T15:35:29Z</time>
      </trkpt>
      <trkpt lat="47.30115" lon="6.02394">
        <ele>483.68</ele>
        <time>2018-09-22T15:35:30Z</time>
      </trkpt>
      <trkpt lat="47.30125" lon="6.02411">
        <ele>484.64</ele>
        <time>2018-09-22T15:35:38Z</time>
      </trkpt>
      <trkpt lat="47.3013" lon="6.0242">
        <ele>485.12</ele>
        <time>2018-09-22T15:35:42Z</time>
      </trkpt>
      <trkpt lat="47.30131" lon="6.02422">
        <ele>485.12</ele>
        <time>2018-09-22T15:35:43Z</time>
      </trkpt>
      <trkpt lat="47.30133" lon="6.02424">
        <ele>485.12</ele>
        <time>2018-09-22T15:35:44Z</time>
      </trkpt>
      <trkpt lat="47.30134" lon="6.02426">
        <ele>485.6</ele>
        <time>2018-09-22T15:35:45Z</time>
      </trkpt>
      <trkpt lat="47.30136" lon="6.02428">
        <ele>485.6</ele>
        <time>2018-09-22T15:35:46Z</time>
      </trkpt>
      <trkpt lat="47.30137" lon="6.02431">
        <ele>485.6</ele>
        <time>2018-09-22T15:35:47Z</time>
      </trkpt>
      <trkpt lat="47.30138" lon="6.02433">
        <ele>485.6</ele>
        <time>2018-09-22T15:35:48Z</time>
      </trkpt>
      <trkpt lat="47.30139" lon="6.02436">
        <ele>486.08</ele>
        <time>2018-09-22T15:35:49Z</time>
      </trkpt>
      <trkpt lat="47.3014" lon="6.02439">
        <ele>486.08</ele>
        <time>2018-09-22T15:35:50Z</time>
      </trkpt>
      <trkpt lat="47.30141" lon="6.02441">
        <ele>486.08</ele>
        <time>2018-09-22T15:35:51Z</time>
      </trkpt>
      <trkpt lat="47.30142" lon="6.02442">
        <ele>486.08</ele>
        <time>2018-09-22T15:35:52Z</time>
      </trkpt>
      <trkpt lat="47.30153" lon="6.02459">
        <ele>487.05</ele>
        <time>2018-09-22T15:36:00Z</time>
      </trkpt>
      <trkpt lat="47.30155" lon="6.02464">
        <ele>487.05</ele>
        <time>2018-09-22T15:36:02Z</time>
      </trkpt>
      <trkpt lat="47.30157" lon="6.02465">
        <ele>487.05</ele>
        <time>2018-09-22T15:36:03Z</time>
      </trkpt>
      <trkpt lat="47.30158" lon="6.02467">
        <ele>487.53</ele>
        <time>2018-09-22T15:36:04Z</time>
      </trkpt>
      <trkpt lat="47.3016" lon="6.02469">
        <ele>487.53</ele>
        <time>2018-09-22T15:36:05Z</time>
      </trkpt>
      <trkpt lat="47.30162" lon="6.02472">
        <ele>487.53</ele>
        <time>2018-09-22T15:36:06Z</time>
      </trkpt>
      <trkpt lat="47.30162" lon="6.02475">
        <ele>488.01</ele>
        <time>2018-09-22T15:36:07Z</time>
      </trkpt>
      <trkpt lat="47.30163" lon="6.02477">
        <ele>487.53</ele>
        <time>2018-09-22T15:36:08Z</time>
      </trkpt>
      <trkpt lat="47.30167" lon="6.02487">
        <ele>488.01</ele>
        <time>2018-09-22T15:36:13Z</time>
      </trkpt>
      <trkpt lat="47.30168" lon="6.02497">
        <ele>488.01</ele>
        <time>2018-09-22T15:36:16Z</time>
      </trkpt>
      <trkpt lat="47.30168" lon="6.02504">
        <ele>488.01</ele>
        <time>2018-09-22T15:36:18Z</time>
      </trkpt>
      <trkpt lat="47.30168" lon="6.02508">
        <ele>488.01</ele>
        <time>2018-09-22T15:36:19Z</time>
      </trkpt>
      <trkpt lat="47.30169" lon="6.02512">
        <ele>487.53</ele>
        <time>2018-09-22T15:36:20Z</time>
      </trkpt>
      <trkpt lat="47.3017" lon="6.02515">
        <ele>488.01</ele>
        <time>2018-09-22T15:36:21Z</time>
      </trkpt>
      <trkpt lat="47.30171" lon="6.02519">
        <ele>487.53</ele>
        <time>2018-09-22T15:36:22Z</time>
      </trkpt>
      <trkpt lat="47.30171" lon="6.02524">
        <ele>487.53</ele>
        <time>2018-09-22T15:36:23Z</time>
      </trkpt>
      <trkpt lat="47.30172" lon="6.02529">
        <ele>487.05</ele>
        <time>2018-09-22T15:36:24Z</time>
      </trkpt>
      <trkpt lat="47.30173" lon="6.02535">
        <ele>487.05</ele>
        <time>2018-09-22T15:36:25Z</time>
      </trkpt>
      <trkpt lat="47.30174" lon="6.0254">
        <ele>487.05</ele>
        <time>2018-09-22T15:36:26Z</time>
      </trkpt>
      <trkpt lat="47.30191" lon="6.02591">
        <ele>487.05</ele>
        <time>2018-09-22T15:36:37Z</time>
      </trkpt>
      <trkpt lat="47.30214" lon="6.02627">
        <ele>488.49</ele>
        <time>2018-09-22T15:36:47Z</time>
      </trkpt>
      <trkpt lat="47.30232" lon="6.02651">
        <ele>489.45</ele>
        <time>2018-09-22T15:36:54Z</time>
      </trkpt>
      <trkpt lat="47.30234" lon="6.02654">
        <ele>489.45</ele>
        <time>2018-09-22T15:36:55Z</time>
      </trkpt>
      <trkpt lat="47.30236" lon="6.02656">
        <ele>489.93</ele>
        <time>2018-09-22T15:36:56Z</time>
      </trkpt>
      <trkpt lat="47.30248" lon="6.02676">
        <ele>490.41</ele>
        <time>2018-09-22T15:37:03Z</time>
      </trkpt>
      <trkpt lat="47.30249" lon="6.02679">
        <ele>490.41</ele>
        <time>2018-09-22T15:37:04Z</time>
      </trkpt>
      <trkpt lat="47.3025" lon="6.02682">
        <ele>490.41</ele>
        <time>2018-09-22T15:37:05Z</time>
      </trkpt>
      <trkpt lat="47.30251" lon="6.02686">
        <ele>490.41</ele>
        <time>2018-09-22T15:37:06Z</time>
      </trkpt>
      <trkpt lat="47.30252" lon="6.02689">
        <ele>490.41</ele>
        <time>2018-09-22T15:37:07Z</time>
      </trkpt>
      <trkpt lat="47.30253" lon="6.02693">
        <ele>490.41</ele>
        <time>2018-09-22T15:37:08Z</time>
      </trkpt>
      <trkpt lat="47.30255" lon="6.02697">
        <ele>490.41</ele>
        <time>2018-09-22T15:37:09Z</time>
      </trkpt>
      <trkpt lat="47.30259" lon="6.02704">
        <ele>490.41</ele>
        <time>2018-09-22T15:37:11Z</time>
      </trkpt>
      <trkpt lat="47.3026" lon="6.02708">
        <ele>490.41</ele>
        <time>2018-09-22T15:37:12Z</time>
      </trkpt>
      <trkpt lat="47.30262" lon="6.02711">
        <ele>490.41</ele>
        <time>2018-09-22T15:37:13Z</time>
      </trkpt>
      <trkpt lat="47.30282" lon="6.02755">
        <ele>490.41</ele>
        <time>2018-09-22T15:37:25Z</time>
      </trkpt>
      <trkpt lat="47.30305" lon="6.02789">
        <ele>489.93</ele>
        <time>2018-09-22T15:37:35Z</time>
      </trkpt>
      <trkpt lat="47.3032" lon="6.02823">
        <ele>488.97</ele>
        <time>2018-09-22T15:37:44Z</time>
      </trkpt>
      <trkpt lat="47.30325" lon="6.02841">
        <ele>487.05</ele>
        <time>2018-09-22T15:37:47Z</time>
      </trkpt>
      <trkpt lat="47.30328" lon="6.02846">
        <ele>486.56</ele>
        <time>2018-09-22T15:37:48Z</time>
      </trkpt>
      <trkpt lat="47.30332" lon="6.02852">
        <ele>485.6</ele>
        <time>2018-09-22T15:37:49Z</time>
      </trkpt>
      <trkpt lat="47.30349" lon="6.02882">
        <ele>481.28</ele>
        <time>2018-09-22T15:37:53Z</time>
      </trkpt>
      <trkpt lat="47.30354" lon="6.02893">
        <ele>480.32</ele>
        <time>2018-09-22T15:37:54Z</time>
      </trkpt>
      <trkpt lat="47.30366" lon="6.02925">
        <ele>477.91</ele>
        <time>2018-09-22T15:37:57Z</time>
      </trkpt>
      <trkpt lat="47.30385" lon="6.02964">
        <ele>475.51</ele>
        <time>2018-09-22T15:38:01Z</time>
      </trkpt>
      <trkpt lat="47.30388" lon="6.02972">
        <ele>475.51</ele>
        <time>2018-09-22T15:38:02Z</time>
      </trkpt>
      <trkpt lat="47.3039" lon="6.0298">
        <ele>475.03</ele>
        <time>2018-09-22T15:38:03Z</time>
      </trkpt>
      <trkpt lat="47.30391" lon="6.02988">
        <ele>474.07</ele>
        <time>2018-09-22T15:38:04Z</time>
      </trkpt>
      <trkpt lat="47.30393" lon="6.02995">
        <ele>473.59</ele>
        <time>2018-09-22T15:38:05Z</time>
      </trkpt>
      <trkpt lat="47.30395" lon="6.02999">
        <ele>472.63</ele>
        <time>2018-09-22T15:38:06Z</time>
      </trkpt>
      <trkpt lat="47.30398" lon="6.03001">
        <ele>472.14</ele>
        <time>2018-09-22T15:38:07Z</time>
      </trkpt>
      <trkpt lat="47.30404" lon="6.03002">
        <ele>472.14</ele>
        <time>2018-09-22T15:38:08Z</time>
      </trkpt>
      <trkpt lat="47.30407" lon="6.03002">
        <ele>472.63</ele>
        <time>2018-09-22T15:38:09Z</time>
      </trkpt>
      <trkpt lat="47.30409" lon="6.03002">
        <ele>473.11</ele>
        <time>2018-09-22T15:38:10Z</time>
      </trkpt>
      <trkpt lat="47.30411" lon="6.03002">
        <ele>473.11</ele>
        <time>2018-09-22T15:38:11Z</time>
      </trkpt>
      <trkpt lat="47.30412" lon="6.03003">
        <ele>473.11</ele>
        <time>2018-09-22T15:38:12Z</time>
      </trkpt>
      <trkpt lat="47.30413" lon="6.03002">
        <ele>473.59</ele>
        <time>2018-09-22T15:38:26Z</time>
      </trkpt>
      <trkpt lat="47.30411" lon="6.03002">
        <ele>473.59</ele>
        <time>2018-09-22T15:38:42Z</time>
      </trkpt>
      <trkpt lat="47.30409" lon="6.03002">
        <ele>473.59</ele>
        <time>2018-09-22T15:39:10Z</time>
      </trkpt>
      <trkpt lat="47.3041" lon="6.03004">
        <ele>473.59</ele>
        <time>2018-09-22T15:39:36Z</time>
      </trkpt>
      <trkpt lat="47.30412" lon="6.03005">
        <ele>474.07</ele>
        <time>2018-09-22T15:39:48Z</time>
      </trkpt>
      <trkpt lat="47.30416" lon="6.03003">
        <ele>474.07</ele>
        <time>2018-09-22T15:40:17Z</time>
      </trkpt>
      <trkpt lat="47.30417" lon="6.03002">
        <ele>474.07</ele>
        <time>2018-09-22T15:40:47Z</time>
      </trkpt>
      <trkpt lat="47.30415" lon="6.03003">
        <ele>474.55</ele>
        <time>2018-09-22T15:41:16Z</time>
      </trkpt>
      <trkpt lat="47.30414" lon="6.03005">
        <ele>474.55</ele>
        <time>2018-09-22T15:41:45Z</time>
      </trkpt>
      <trkpt lat="47.30414" lon="6.03004">
        <ele>474.55</ele>
        <time>2018-09-22T15:42:14Z</time>
      </trkpt>
      <trkpt lat="47.30414" lon="6.03005">
        <ele>475.03</ele>
        <time>2018-09-22T15:42:42Z</time>
      </trkpt>
      <trkpt lat="47.30415" lon="6.03003">
        <ele>475.03</ele>
        <time>2018-09-22T15:43:10Z</time>
      </trkpt>
      <trkpt lat="47.30414" lon="6.03003">
        <ele>475.03</ele>
        <time>2018-09-22T15:43:36Z</time>
      </trkpt>
      <trkpt lat="47.30415" lon="6.03003">
        <ele>475.51</ele>
        <time>2018-09-22T15:43:59Z</time>
      </trkpt>
      <trkpt lat="47.30418" lon="6.03005">
        <ele>475.51</ele>
        <time>2018-09-22T15:44:15Z</time>
      </trkpt>
      <trkpt lat="47.30419" lon="6.03007">
        <ele>475.51</ele>
        <time>2018-09-22T15:44:34Z</time>
      </trkpt>
      <trkpt lat="47.3042" lon="6.03007">
        <ele>475.99</ele>
        <time>2018-09-22T15:44:50Z</time>
      </trkpt>
      <trkpt lat="47.30422" lon="6.03009">
        <ele>475.99</ele>
        <time>2018-09-22T15:44:52Z</time>
      </trkpt>
      <trkpt lat="47.30423" lon="6.03011">
        <ele>475.99</ele>
        <time>2018-09-22T15:44:53Z</time>
      </trkpt>
      <trkpt lat="47.30423" lon="6.03012">
        <ele>475.99</ele>
        <time>2018-09-22T15:44:54Z</time>
      </trkpt>
      <trkpt lat="47.30428" lon="6.0302">
        <ele>475.99</ele>
        <time>2018-09-22T15:45:00Z</time>
      </trkpt>
      <trkpt lat="47.30429" lon="6.03022">
        <ele>475.99</ele>
        <time>2018-09-22T15:45:01Z</time>
      </trkpt>
      <trkpt lat="47.30446" lon="6.03054">
        <ele>476.47</ele>
        <time>2018-09-22T15:45:14Z</time>
      </trkpt>
      <trkpt lat="47.30469" lon="6.03085">
        <ele>477.43</ele>
        <time>2018-09-22T15:45:28Z</time>
      </trkpt>
      <trkpt lat="47.30485" lon="6.03105">
        <ele>478.87</ele>
        <time>2018-09-22T15:45:38Z</time>
      </trkpt>
      <trkpt lat="47.305" lon="6.03123">
        <ele>480.32</ele>
        <time>2018-09-22T15:45:49Z</time>
      </trkpt>
      <trkpt lat="47.30511" lon="6.03138">
        <ele>481.28</ele>
        <time>2018-09-22T15:45:57Z</time>
      </trkpt>
      <trkpt lat="47.30512" lon="6.03139">
        <ele>481.76</ele>
        <time>2018-09-22T15:45:58Z</time>
      </trkpt>
      <trkpt lat="47.30514" lon="6.03141">
        <ele>481.76</ele>
        <time>2018-09-22T15:45:59Z</time>
      </trkpt>
      <trkpt lat="47.30515" lon="6.03141">
        <ele>481.76</ele>
        <time>2018-09-22T15:46:00Z</time>
      </trkpt>
      <trkpt lat="47.30516" lon="6.03146">
        <ele>482.24</ele>
        <time>2018-09-22T15:46:03Z</time>
      </trkpt>
      <trkpt lat="47.30518" lon="6.03148">
        <ele>482.24</ele>
        <time>2018-09-22T15:46:04Z</time>
      </trkpt>
      <trkpt lat="47.30519" lon="6.0315">
        <ele>482.24</ele>
        <time>2018-09-22T15:46:05Z</time>
      </trkpt>
      <trkpt lat="47.30521" lon="6.03152">
        <ele>482.72</ele>
        <time>2018-09-22T15:46:06Z</time>
      </trkpt>
      <trkpt lat="47.30522" lon="6.03154">
        <ele>482.72</ele>
        <time>2018-09-22T15:46:07Z</time>
      </trkpt>
      <trkpt lat="47.30524" lon="6.03155">
        <ele>482.72</ele>
        <time>2018-09-22T15:46:08Z</time>
      </trkpt>
      <trkpt lat="47.30526" lon="6.03156">
        <ele>483.2</ele>
        <time>2018-09-22T15:46:09Z</time>
      </trkpt>
      <trkpt lat="47.30528" lon="6.03158">
        <ele>483.2</ele>
        <time>2018-09-22T15:46:10Z</time>
      </trkpt>
      <trkpt lat="47.30529" lon="6.03159">
        <ele>483.2</ele>
        <time>2018-09-22T15:46:11Z</time>
      </trkpt>
      <trkpt lat="47.30541" lon="6.03176">
        <ele>484.16</ele>
        <time>2018-09-22T15:46:19Z</time>
      </trkpt>
      <trkpt lat="47.30556" lon="6.03193">
        <ele>485.6</ele>
        <time>2018-09-22T15:46:28Z</time>
      </trkpt>
      <trkpt lat="47.30573" lon="6.03218">
        <ele>487.05</ele>
        <time>2018-09-22T15:46:40Z</time>
      </trkpt>
      <trkpt lat="47.30582" lon="6.03232">
        <ele>488.01</ele>
        <time>2018-09-22T15:46:46Z</time>
      </trkpt>
      <trkpt lat="47.30583" lon="6.03235">
        <ele>488.01</ele>
        <time>2018-09-22T15:46:47Z</time>
      </trkpt>
      <trkpt lat="47.30584" lon="6.03237">
        <ele>488.01</ele>
        <time>2018-09-22T15:46:48Z</time>
      </trkpt>
      <trkpt lat="47.30587" lon="6.03242">
        <ele>488.49</ele>
        <time>2018-09-22T15:46:50Z</time>
      </trkpt>
      <trkpt lat="47.30588" lon="6.03245">
        <ele>488.49</ele>
        <time>2018-09-22T15:46:51Z</time>
      </trkpt>
      <trkpt lat="47.30589" lon="6.03247">
        <ele>488.49</ele>
        <time>2018-09-22T15:46:52Z</time>
      </trkpt>
      <trkpt lat="47.3059" lon="6.0325">
        <ele>488.97</ele>
        <time>2018-09-22T15:46:53Z</time>
      </trkpt>
      <trkpt lat="47.30591" lon="6.03253">
        <ele>488.97</ele>
        <time>2018-09-22T15:46:54Z</time>
      </trkpt>
      <trkpt lat="47.30592" lon="6.03255">
        <ele>488.97</ele>
        <time>2018-09-22T15:46:55Z</time>
      </trkpt>
      <trkpt lat="47.30596" lon="6.03262">
        <ele>489.45</ele>
        <time>2018-09-22T15:46:58Z</time>
      </trkpt>
      <trkpt lat="47.30599" lon="6.03266">
        <ele>489.45</ele>
        <time>2018-09-22T15:47:00Z</time>
      </trkpt>
      <trkpt lat="47.30599" lon="6.03269">
        <ele>489.45</ele>
        <time>2018-09-22T15:47:01Z</time>
      </trkpt>
      <trkpt lat="47.306" lon="6.03271">
        <ele>489.93</ele>
        <time>2018-09-22T15:47:02Z</time>
      </trkpt>
      <trkpt lat="47.306" lon="6.03274">
        <ele>489.93</ele>
        <time>2018-09-22T15:47:03Z</time>
      </trkpt>
      <trkpt lat="47.30601" lon="6.03277">
        <ele>489.93</ele>
        <time>2018-09-22T15:47:04Z</time>
      </trkpt>
      <trkpt lat="47.30601" lon="6.0328">
        <ele>490.41</ele>
        <time>2018-09-22T15:47:05Z</time>
      </trkpt>
      <trkpt lat="47.30602" lon="6.03283">
        <ele>490.41</ele>
        <time>2018-09-22T15:47:06Z</time>
      </trkpt>
      <trkpt lat="47.30603" lon="6.03285">
        <ele>490.41</ele>
        <time>2018-09-22T15:47:07Z</time>
      </trkpt>
      <trkpt lat="47.3061" lon="6.033">
        <ele>490.89</ele>
        <time>2018-09-22T15:47:12Z</time>
      </trkpt>
      <trkpt lat="47.30611" lon="6.03304">
        <ele>490.89</ele>
        <time>2018-09-22T15:47:13Z</time>
      </trkpt>
      <trkpt lat="47.30612" lon="6.03306">
        <ele>491.37</ele>
        <time>2018-09-22T15:47:14Z</time>
      </trkpt>
      <trkpt lat="47.30612" lon="6.03309">
        <ele>491.85</ele>
        <time>2018-09-22T15:47:15Z</time>
      </trkpt>
      <trkpt lat="47.30613" lon="6.03312">
        <ele>491.37</ele>
        <time>2018-09-22T15:47:16Z</time>
      </trkpt>
      <trkpt lat="47.30614" lon="6.03315">
        <ele>491.37</ele>
        <time>2018-09-22T15:47:17Z</time>
      </trkpt>
      <trkpt lat="47.30614" lon="6.03318">
        <ele>491.85</ele>
        <time>2018-09-22T15:47:18Z</time>
      </trkpt>
      <trkpt lat="47.30616" lon="6.03321">
        <ele>491.85</ele>
        <time>2018-09-22T15:47:19Z</time>
      </trkpt>
      <trkpt lat="47.30617" lon="6.03324">
        <ele>491.85</ele>
        <time>2018-09-22T15:47:20Z</time>
      </trkpt>
      <trkpt lat="47.30618" lon="6.03327">
        <ele>491.85</ele>
        <time>2018-09-22T15:47:21Z</time>
      </trkpt>
      <trkpt lat="47.30619" lon="6.03329">
        <ele>492.33</ele>
        <time>2018-09-22T15:47:22Z</time>
      </trkpt>
      <trkpt lat="47.3062" lon="6.03332">
        <ele>492.33</ele>
        <time>2018-09-22T15:47:23Z</time>
      </trkpt>
      <trkpt lat="47.30639" lon="6.03371">
        <ele>494.26</ele>
        <time>2018-09-22T15:47:37Z</time>
      </trkpt>
      <trkpt lat="47.30647" lon="6.0339">
        <ele>495.22</ele>
        <time>2018-09-22T15:47:44Z</time>
      </trkpt>
      <trkpt lat="47.30649" lon="6.03393">
        <ele>495.22</ele>
        <time>2018-09-22T15:47:45Z</time>
      </trkpt>
      <trkpt lat="47.30655" lon="6.03407">
        <ele>496.18</ele>
        <time>2018-09-22T15:47:50Z</time>
      </trkpt>
      <trkpt lat="47.30655" lon="6.03409">
        <ele>496.18</ele>
        <time>2018-09-22T15:47:51Z</time>
      </trkpt>
      <trkpt lat="47.30656" lon="6.03411">
        <ele>496.18</ele>
        <time>2018-09-22T15:47:52Z</time>
      </trkpt>
      <trkpt lat="47.30658" lon="6.03413">
        <ele>496.66</ele>
        <time>2018-09-22T15:47:53Z</time>
      </trkpt>
      <trkpt lat="47.30659" lon="6.03416">
        <ele>496.66</ele>
        <time>2018-09-22T15:47:54Z</time>
      </trkpt>
      <trkpt lat="47.3066" lon="6.03419">
        <ele>496.66</ele>
        <time>2018-09-22T15:47:55Z</time>
      </trkpt>
      <trkpt lat="47.30669" lon="6.03436">
        <ele>497.62</ele>
        <time>2018-09-22T15:48:01Z</time>
      </trkpt>
      <trkpt lat="47.30677" lon="6.03456">
        <ele>498.58</ele>
        <time>2018-09-22T15:48:08Z</time>
      </trkpt>
      <trkpt lat="47.30678" lon="6.03458">
        <ele>498.58</ele>
        <time>2018-09-22T15:48:09Z</time>
      </trkpt>
      <trkpt lat="47.30679" lon="6.03461">
        <ele>499.06</ele>
        <time>2018-09-22T15:48:10Z</time>
      </trkpt>
      <trkpt lat="47.3068" lon="6.03465">
        <ele>499.06</ele>
        <time>2018-09-22T15:48:11Z</time>
      </trkpt>
      <trkpt lat="47.30682" lon="6.03468">
        <ele>499.06</ele>
        <time>2018-09-22T15:48:12Z</time>
      </trkpt>
      <trkpt lat="47.30683" lon="6.03471">
        <ele>499.06</ele>
        <time>2018-09-22T15:48:13Z</time>
      </trkpt>
      <trkpt lat="47.30695" lon="6.03491">
        <ele>500.02</ele>
        <time>2018-09-22T15:48:21Z</time>
      </trkpt>
      <trkpt lat="47.30695" lon="6.03494">
        <ele>500.02</ele>
        <time>2018-09-22T15:48:22Z</time>
      </trkpt>
      <trkpt lat="47.30707" lon="6.03529">
        <ele>501.46</ele>
        <time>2018-09-22T15:48:33Z</time>
      </trkpt>
      <trkpt lat="47.30716" lon="6.03547">
        <ele>502.43</ele>
        <time>2018-09-22T15:48:40Z</time>
      </trkpt>
      <trkpt lat="47.30717" lon="6.03549">
        <ele>502.91</ele>
        <time>2018-09-22T15:48:41Z</time>
      </trkpt>
      <trkpt lat="47.30718" lon="6.03552">
        <ele>502.91</ele>
        <time>2018-09-22T15:48:42Z</time>
      </trkpt>
      <trkpt lat="47.3072" lon="6.03555">
        <ele>503.39</ele>
        <time>2018-09-22T15:48:43Z</time>
      </trkpt>
      <trkpt lat="47.30721" lon="6.03557">
        <ele>503.39</ele>
        <time>2018-09-22T15:48:44Z</time>
      </trkpt>
      <trkpt lat="47.30722" lon="6.0356">
        <ele>503.39</ele>
        <time>2018-09-22T15:48:45Z</time>
      </trkpt>
      <trkpt lat="47.30724" lon="6.03562">
        <ele>503.39</ele>
        <time>2018-09-22T15:48:46Z</time>
      </trkpt>
      <trkpt lat="47.30726" lon="6.03565">
        <ele>503.87</ele>
        <time>2018-09-22T15:48:47Z</time>
      </trkpt>
      <trkpt lat="47.30727" lon="6.03567">
        <ele>503.87</ele>
        <time>2018-09-22T15:48:48Z</time>
      </trkpt>
      <trkpt lat="47.30729" lon="6.0357">
        <ele>503.87</ele>
        <time>2018-09-22T15:48:49Z</time>
      </trkpt>
      <trkpt lat="47.3073" lon="6.03573">
        <ele>503.87</ele>
        <time>2018-09-22T15:48:50Z</time>
      </trkpt>
      <trkpt lat="47.30739" lon="6.03594">
        <ele>504.83</ele>
        <time>2018-09-22T15:48:58Z</time>
      </trkpt>
      <trkpt lat="47.3074" lon="6.03596">
        <ele>505.31</ele>
        <time>2018-09-22T15:48:59Z</time>
      </trkpt>
      <trkpt lat="47.30742" lon="6.03599">
        <ele>505.79</ele>
        <time>2018-09-22T15:49:00Z</time>
      </trkpt>
      <trkpt lat="47.30743" lon="6.03601">
        <ele>505.79</ele>
        <time>2018-09-22T15:49:01Z</time>
      </trkpt>
      <trkpt lat="47.30744" lon="6.03604">
        <ele>505.79</ele>
        <time>2018-09-22T15:49:02Z</time>
      </trkpt>
      <trkpt lat="47.30748" lon="6.03613">
        <ele>506.27</ele>
        <time>2018-09-22T15:49:05Z</time>
      </trkpt>
      <trkpt lat="47.30759" lon="6.03647">
        <ele>507.71</ele>
        <time>2018-09-22T15:49:16Z</time>
      </trkpt>
      <trkpt lat="47.30765" lon="6.03659">
        <ele>508.19</ele>
        <time>2018-09-22T15:49:20Z</time>
      </trkpt>
      <trkpt lat="47.30766" lon="6.03662">
        <ele>508.19</ele>
        <time>2018-09-22T15:49:21Z</time>
      </trkpt>
      <trkpt lat="47.30769" lon="6.03671">
        <ele>508.67</ele>
        <time>2018-09-22T15:49:24Z</time>
      </trkpt>
      <trkpt lat="47.3077" lon="6.03673">
        <ele>508.67</ele>
        <time>2018-09-22T15:49:25Z</time>
      </trkpt>
      <trkpt lat="47.30779" lon="6.037">
        <ele>510.12</ele>
        <time>2018-09-22T15:49:33Z</time>
      </trkpt>
      <trkpt lat="47.3078" lon="6.03704">
        <ele>510.12</ele>
        <time>2018-09-22T15:49:34Z</time>
      </trkpt>
      <trkpt lat="47.3079" lon="6.03731">
        <ele>511.08</ele>
        <time>2018-09-22T15:49:43Z</time>
      </trkpt>
      <trkpt lat="47.30791" lon="6.03734">
        <ele>511.08</ele>
        <time>2018-09-22T15:49:44Z</time>
      </trkpt>
      <trkpt lat="47.30792" lon="6.03737">
        <ele>511.56</ele>
        <time>2018-09-22T15:49:45Z</time>
      </trkpt>
      <trkpt lat="47.30794" lon="6.0374">
        <ele>511.56</ele>
        <time>2018-09-22T15:49:46Z</time>
      </trkpt>
      <trkpt lat="47.30796" lon="6.03743">
        <ele>511.56</ele>
        <time>2018-09-22T15:49:47Z</time>
      </trkpt>
      <trkpt lat="47.30797" lon="6.03747">
        <ele>511.56</ele>
        <time>2018-09-22T15:49:48Z</time>
      </trkpt>
      <trkpt lat="47.30798" lon="6.0375">
        <ele>511.56</ele>
        <time>2018-09-22T15:49:49Z</time>
      </trkpt>
      <trkpt lat="47.30799" lon="6.03753">
        <ele>512.04</ele>
        <time>2018-09-22T15:49:50Z</time>
      </trkpt>
      <trkpt lat="47.30799" lon="6.03757">
        <ele>512.04</ele>
        <time>2018-09-22T15:49:51Z</time>
      </trkpt>
      <trkpt lat="47.30798" lon="6.0376">
        <ele>512.04</ele>
        <time>2018-09-22T15:49:52Z</time>
      </trkpt>
      <trkpt lat="47.30799" lon="6.03763">
        <ele>512.52</ele>
        <time>2018-09-22T15:49:53Z</time>
      </trkpt>
      <trkpt lat="47.308" lon="6.03766">
        <ele>512.52</ele>
        <time>2018-09-22T15:49:54Z</time>
      </trkpt>
      <trkpt lat="47.308" lon="6.03769">
        <ele>513</ele>
        <time>2018-09-22T15:49:55Z</time>
      </trkpt>
      <trkpt lat="47.30799" lon="6.03773">
        <ele>513</ele>
        <time>2018-09-22T15:49:56Z</time>
      </trkpt>
      <trkpt lat="47.30799" lon="6.03776">
        <ele>513</ele>
        <time>2018-09-22T15:49:57Z</time>
      </trkpt>
      <trkpt lat="47.30799" lon="6.0378">
        <ele>513</ele>
        <time>2018-09-22T15:49:58Z</time>
      </trkpt>
      <trkpt lat="47.308" lon="6.03783">
        <ele>513.48</ele>
        <time>2018-09-22T15:49:59Z</time>
      </trkpt>
      <trkpt lat="47.30802" lon="6.03799">
        <ele>513.96</ele>
        <time>2018-09-22T15:50:04Z</time>
      </trkpt>
      <trkpt lat="47.30808" lon="6.03841">
        <ele>515.88</ele>
        <time>2018-09-22T15:50:17Z</time>
      </trkpt>
      <trkpt lat="47.30812" lon="6.03883">
        <ele>517.33</ele>
        <time>2018-09-22T15:50:29Z</time>
      </trkpt>
      <trkpt lat="47.30819" lon="6.03921">
        <ele>519.25</ele>
        <time>2018-09-22T15:50:41Z</time>
      </trkpt>
      <trkpt lat="47.30821" lon="6.03966">
        <ele>520.69</ele>
        <time>2018-09-22T15:50:55Z</time>
      </trkpt>
      <trkpt lat="47.30821" lon="6.0397">
        <ele>520.69</ele>
        <time>2018-09-22T15:50:56Z</time>
      </trkpt>
      <trkpt lat="47.3082" lon="6.03973">
        <ele>520.69</ele>
        <time>2018-09-22T15:50:57Z</time>
      </trkpt>
      <trkpt lat="47.30818" lon="6.04018">
        <ele>522.13</ele>
        <time>2018-09-22T15:51:09Z</time>
      </trkpt>
      <trkpt lat="47.30818" lon="6.0406">
        <ele>523.09</ele>
        <time>2018-09-22T15:51:20Z</time>
      </trkpt>
      <trkpt lat="47.30826" lon="6.04102">
        <ele>524.54</ele>
        <time>2018-09-22T15:51:33Z</time>
      </trkpt>
      <trkpt lat="47.30829" lon="6.04104">
        <ele>524.54</ele>
        <time>2018-09-22T15:51:35Z</time>
      </trkpt>
      <trkpt lat="47.30831" lon="6.04104">
        <ele>525.02</ele>
        <time>2018-09-22T15:51:36Z</time>
      </trkpt>
      <trkpt lat="47.30833" lon="6.04103">
        <ele>525.02</ele>
        <time>2018-09-22T15:51:37Z</time>
      </trkpt>
      <trkpt lat="47.30844" lon="6.04097">
        <ele>525.5</ele>
        <time>2018-09-22T15:51:43Z</time>
      </trkpt>
      <trkpt lat="47.30845" lon="6.04095">
        <ele>525.5</ele>
        <time>2018-09-22T15:51:44Z</time>
      </trkpt>
      <trkpt lat="47.30846" lon="6.04093">
        <ele>525.5</ele>
        <time>2018-09-22T15:51:45Z</time>
      </trkpt>
      <trkpt lat="47.30847" lon="6.0409">
        <ele>525.5</ele>
        <time>2018-09-22T15:51:46Z</time>
      </trkpt>
      <trkpt lat="47.30847" lon="6.04087">
        <ele>525.5</ele>
        <time>2018-09-22T15:51:47Z</time>
      </trkpt>
      <trkpt lat="47.30847" lon="6.04084">
        <ele>525.98</ele>
        <time>2018-09-22T15:51:48Z</time>
      </trkpt>
      <trkpt lat="47.30846" lon="6.0408">
        <ele>525.98</ele>
        <time>2018-09-22T15:51:49Z</time>
      </trkpt>
      <trkpt lat="47.30846" lon="6.04077">
        <ele>525.98</ele>
        <time>2018-09-22T15:51:50Z</time>
      </trkpt>
      <trkpt lat="47.30841" lon="6.04035">
        <ele>526.46</ele>
        <time>2018-09-22T15:52:02Z</time>
      </trkpt>
      <trkpt lat="47.3084" lon="6.04031">
        <ele>526.46</ele>
        <time>2018-09-22T15:52:03Z</time>
      </trkpt>
      <trkpt lat="47.30839" lon="6.04028">
        <ele>526.94</ele>
        <time>2018-09-22T15:52:04Z</time>
      </trkpt>
      <trkpt lat="47.30839" lon="6.04024">
        <ele>526.94</ele>
        <time>2018-09-22T15:52:05Z</time>
      </trkpt>
      <trkpt lat="47.30841" lon="6.04003">
        <ele>526.94</ele>
        <time>2018-09-22T15:52:11Z</time>
      </trkpt>
      <trkpt lat="47.30841" lon="6.03999">
        <ele>527.42</ele>
        <time>2018-09-22T15:52:12Z</time>
      </trkpt>
      <trkpt lat="47.30842" lon="6.03995">
        <ele>527.42</ele>
        <time>2018-09-22T15:52:13Z</time>
      </trkpt>
      <trkpt lat="47.30842" lon="6.03991">
        <ele>527.42</ele>
        <time>2018-09-22T15:52:14Z</time>
      </trkpt>
      <trkpt lat="47.30842" lon="6.03987">
        <ele>527.42</ele>
        <time>2018-09-22T15:52:15Z</time>
      </trkpt>
      <trkpt lat="47.30843" lon="6.03983">
        <ele>527.42</ele>
        <time>2018-09-22T15:52:16Z</time>
      </trkpt>
      <trkpt lat="47.30844" lon="6.0398">
        <ele>527.42</ele>
        <time>2018-09-22T15:52:17Z</time>
      </trkpt>
      <trkpt lat="47.30844" lon="6.03977">
        <ele>527.9</ele>
        <time>2018-09-22T15:52:18Z</time>
      </trkpt>
      <trkpt lat="47.30845" lon="6.03974">
        <ele>527.9</ele>
        <time>2018-09-22T15:52:19Z</time>
      </trkpt>
      <trkpt lat="47.30845" lon="6.03971">
        <ele>527.9</ele>
        <time>2018-09-22T15:52:20Z</time>
      </trkpt>
      <trkpt lat="47.30846" lon="6.03967">
        <ele>527.9</ele>
        <time>2018-09-22T15:52:21Z</time>
      </trkpt>
      <trkpt lat="47.30846" lon="6.03964">
        <ele>528.38</ele>
        <time>2018-09-22T15:52:22Z</time>
      </trkpt>
      <trkpt lat="47.30847" lon="6.03961">
        <ele>528.38</ele>
        <time>2018-09-22T15:52:23Z</time>
      </trkpt>
      <trkpt lat="47.30847" lon="6.03958">
        <ele>528.38</ele>
        <time>2018-09-22T15:52:24Z</time>
      </trkpt>
      <trkpt lat="47.30848" lon="6.03955">
        <ele>528.38</ele>
        <time>2018-09-22T15:52:25Z</time>
      </trkpt>
      <trkpt lat="47.30848" lon="6.03952">
        <ele>528.38</ele>
        <time>2018-09-22T15:52:26Z</time>
      </trkpt>
      <trkpt lat="47.30848" lon="6.03949">
        <ele>528.38</ele>
        <time>2018-09-22T15:52:27Z</time>
      </trkpt>
      <trkpt lat="47.30852" lon="6.03911">
        <ele>529.82</ele>
        <time>2018-09-22T15:52:39Z</time>
      </trkpt>
      <trkpt lat="47.30853" lon="6.03909">
        <ele>529.82</ele>
        <time>2018-09-22T15:52:40Z</time>
      </trkpt>
      <trkpt lat="47.30854" lon="6.03906">
        <ele>529.82</ele>
        <time>2018-09-22T15:52:41Z</time>
      </trkpt>
      <trkpt lat="47.30855" lon="6.03902">
        <ele>530.3</ele>
        <time>2018-09-22T15:52:42Z</time>
      </trkpt>
      <trkpt lat="47.30855" lon="6.03898">
        <ele>530.3</ele>
        <time>2018-09-22T15:52:43Z</time>
      </trkpt>
      <trkpt lat="47.30856" lon="6.03895">
        <ele>530.79</ele>
        <time>2018-09-22T15:52:44Z</time>
      </trkpt>
      <trkpt lat="47.30856" lon="6.03892">
        <ele>530.79</ele>
        <time>2018-09-22T15:52:45Z</time>
      </trkpt>
      <trkpt lat="47.30857" lon="6.03889">
        <ele>530.79</ele>
        <time>2018-09-22T15:52:46Z</time>
      </trkpt>
      <trkpt lat="47.30858" lon="6.03887">
        <ele>531.27</ele>
        <time>2018-09-22T15:52:47Z</time>
      </trkpt>
      <trkpt lat="47.3086" lon="6.03881">
        <ele>531.27</ele>
        <time>2018-09-22T15:52:49Z</time>
      </trkpt>
      <trkpt lat="47.30863" lon="6.03878">
        <ele>531.75</ele>
        <time>2018-09-22T15:52:51Z</time>
      </trkpt>
      <trkpt lat="47.30864" lon="6.03875">
        <ele>531.75</ele>
        <time>2018-09-22T15:52:52Z</time>
      </trkpt>
      <trkpt lat="47.30865" lon="6.03872">
        <ele>531.75</ele>
        <time>2018-09-22T15:52:53Z</time>
      </trkpt>
      <trkpt lat="47.30865" lon="6.03869">
        <ele>531.75</ele>
        <time>2018-09-22T15:52:54Z</time>
      </trkpt>
      <trkpt lat="47.30866" lon="6.03866">
        <ele>532.23</ele>
        <time>2018-09-22T15:52:55Z</time>
      </trkpt>
      <trkpt lat="47.30875" lon="6.0382">
        <ele>534.15</ele>
        <time>2018-09-22T15:53:11Z</time>
      </trkpt>
      <trkpt lat="47.30883" lon="6.03794">
        <ele>535.59</ele>
        <time>2018-09-22T15:53:20Z</time>
      </trkpt>
      <trkpt lat="47.30884" lon="6.03791">
        <ele>535.59</ele>
        <time>2018-09-22T15:53:21Z</time>
      </trkpt>
      <trkpt lat="47.30885" lon="6.03788">
        <ele>535.59</ele>
        <time>2018-09-22T15:53:22Z</time>
      </trkpt>
      <trkpt lat="47.30886" lon="6.03784">
        <ele>536.07</ele>
        <time>2018-09-22T15:53:23Z</time>
      </trkpt>
      <trkpt lat="47.30887" lon="6.03781">
        <ele>535.59</ele>
        <time>2018-09-22T15:53:24Z</time>
      </trkpt>
      <trkpt lat="47.30887" lon="6.03778">
        <ele>536.07</ele>
        <time>2018-09-22T15:53:25Z</time>
      </trkpt>
      <trkpt lat="47.30889" lon="6.03775">
        <ele>536.55</ele>
        <time>2018-09-22T15:53:26Z</time>
      </trkpt>
      <trkpt lat="47.30889" lon="6.03772">
        <ele>536.55</ele>
        <time>2018-09-22T15:53:27Z</time>
      </trkpt>
      <trkpt lat="47.3089" lon="6.03768">
        <ele>536.55</ele>
        <time>2018-09-22T15:53:28Z</time>
      </trkpt>
      <trkpt lat="47.30891" lon="6.03765">
        <ele>536.55</ele>
        <time>2018-09-22T15:53:29Z</time>
      </trkpt>
      <trkpt lat="47.30891" lon="6.03762">
        <ele>536.55</ele>
        <time>2018-09-22T15:53:30Z</time>
      </trkpt>
      <trkpt lat="47.30901" lon="6.03721">
        <ele>538.48</ele>
        <time>2018-09-22T15:53:43Z</time>
      </trkpt>
      <trkpt lat="47.30902" lon="6.03716">
        <ele>538.96</ele>
        <time>2018-09-22T15:53:45Z</time>
      </trkpt>
      <trkpt lat="47.30903" lon="6.03714">
        <ele>538.96</ele>
        <time>2018-09-22T15:53:46Z</time>
      </trkpt>
      <trkpt lat="47.30904" lon="6.03712">
        <ele>538.96</ele>
        <time>2018-09-22T15:53:47Z</time>
      </trkpt>
      <trkpt lat="47.30905" lon="6.03709">
        <ele>538.96</ele>
        <time>2018-09-22T15:53:48Z</time>
      </trkpt>
      <trkpt lat="47.30906" lon="6.03706">
        <ele>539.44</ele>
        <time>2018-09-22T15:53:49Z</time>
      </trkpt>
      <trkpt lat="47.30907" lon="6.03702">
        <ele>539.44</ele>
        <time>2018-09-22T15:53:50Z</time>
      </trkpt>
      <trkpt lat="47.30908" lon="6.03699">
        <ele>539.44</ele>
        <time>2018-09-22T15:53:51Z</time>
      </trkpt>
      <trkpt lat="47.30912" lon="6.03672">
        <ele>540.88</ele>
        <time>2018-09-22T15:53:58Z</time>
      </trkpt>
      <trkpt lat="47.30913" lon="6.03669">
        <ele>540.88</ele>
        <time>2018-09-22T15:53:59Z</time>
      </trkpt>
      <trkpt lat="47.30913" lon="6.03666">
        <ele>540.88</ele>
        <time>2018-09-22T15:54:00Z</time>
      </trkpt>
      <trkpt lat="47.30924" lon="6.03629">
        <ele>542.32</ele>
        <time>2018-09-22T15:54:12Z</time>
      </trkpt>
      <trkpt lat="47.30932" lon="6.03615">
        <ele>543.28</ele>
        <time>2018-09-22T15:54:18Z</time>
      </trkpt>
      <trkpt lat="47.30939" lon="6.0361">
        <ele>543.76</ele>
        <time>2018-09-22T15:54:22Z</time>
      </trkpt>
      <trkpt lat="47.30941" lon="6.0361">
        <ele>544.24</ele>
        <time>2018-09-22T15:54:23Z</time>
      </trkpt>
      <trkpt lat="47.30943" lon="6.03611">
        <ele>544.24</ele>
        <time>2018-09-22T15:54:24Z</time>
      </trkpt>
      <trkpt lat="47.30945" lon="6.03611">
        <ele>544.24</ele>
        <time>2018-09-22T15:54:25Z</time>
      </trkpt>
      <trkpt lat="47.30947" lon="6.03612">
        <ele>544.24</ele>
        <time>2018-09-22T15:54:26Z</time>
      </trkpt>
      <trkpt lat="47.30949" lon="6.03613">
        <ele>544.24</ele>
        <time>2018-09-22T15:54:27Z</time>
      </trkpt>
      <trkpt lat="47.30951" lon="6.03615">
        <ele>544.72</ele>
        <time>2018-09-22T15:54:28Z</time>
      </trkpt>
      <trkpt lat="47.30953" lon="6.03616">
        <ele>544.72</ele>
        <time>2018-09-22T15:54:29Z</time>
      </trkpt>
      <trkpt lat="47.30955" lon="6.03617">
        <ele>544.72</ele>
        <time>2018-09-22T15:54:30Z</time>
      </trkpt>
      <trkpt lat="47.30957" lon="6.0362">
        <ele>544.72</ele>
        <time>2018-09-22T15:54:31Z</time>
      </trkpt>
      <trkpt lat="47.30967" lon="6.03651">
        <ele>546.17</ele>
        <time>2018-09-22T15:54:41Z</time>
      </trkpt>
      <trkpt lat="47.3097" lon="6.03677">
        <ele>547.13</ele>
        <time>2018-09-22T15:54:49Z</time>
      </trkpt>
      <trkpt lat="47.3097" lon="6.0368">
        <ele>547.13</ele>
        <time>2018-09-22T15:54:50Z</time>
      </trkpt>
      <trkpt lat="47.3097" lon="6.03682">
        <ele>547.61</ele>
        <time>2018-09-22T15:54:51Z</time>
      </trkpt>
      <trkpt lat="47.3097" lon="6.03684">
        <ele>547.61</ele>
        <time>2018-09-22T15:54:52Z</time>
      </trkpt>
      <trkpt lat="47.3097" lon="6.03686">
        <ele>547.61</ele>
        <time>2018-09-22T15:54:53Z</time>
      </trkpt>
      <trkpt lat="47.30969" lon="6.03697">
        <ele>547.61</ele>
        <time>2018-09-22T15:54:56Z</time>
      </trkpt>
      <trkpt lat="47.30969" lon="6.037">
        <ele>548.09</ele>
        <time>2018-09-22T15:54:57Z</time>
      </trkpt>
      <trkpt lat="47.30969" lon="6.03704">
        <ele>548.09</ele>
        <time>2018-09-22T15:54:58Z</time>
      </trkpt>
      <trkpt lat="47.30969" lon="6.03707">
        <ele>548.09</ele>
        <time>2018-09-22T15:54:59Z</time>
      </trkpt>
      <trkpt lat="47.30969" lon="6.03711">
        <ele>548.09</ele>
        <time>2018-09-22T15:55:00Z</time>
      </trkpt>
      <trkpt lat="47.30969" lon="6.03715">
        <ele>548.09</ele>
        <time>2018-09-22T15:55:01Z</time>
      </trkpt>
      <trkpt lat="47.30968" lon="6.03719">
        <ele>548.09</ele>
        <time>2018-09-22T15:55:02Z</time>
      </trkpt>
      <trkpt lat="47.30969" lon="6.03721">
        <ele>548.09</ele>
        <time>2018-09-22T15:55:03Z</time>
      </trkpt>
      <trkpt lat="47.30969" lon="6.03724">
        <ele>548.57</ele>
        <time>2018-09-22T15:55:04Z</time>
      </trkpt>
      <trkpt lat="47.30968" lon="6.03727">
        <ele>548.57</ele>
        <time>2018-09-22T15:55:05Z</time>
      </trkpt>
      <trkpt lat="47.30967" lon="6.0373">
        <ele>548.57</ele>
        <time>2018-09-22T15:55:06Z</time>
      </trkpt>
      <trkpt lat="47.30965" lon="6.03768">
        <ele>550.01</ele>
        <time>2018-09-22T15:55:17Z</time>
      </trkpt>
      <trkpt lat="47.30962" lon="6.03803">
        <ele>550.49</ele>
        <time>2018-09-22T15:55:28Z</time>
      </trkpt>
      <trkpt lat="47.30962" lon="6.03806">
        <ele>550.49</ele>
        <time>2018-09-22T15:55:29Z</time>
      </trkpt>
      <trkpt lat="47.30962" lon="6.03809">
        <ele>550.97</ele>
        <time>2018-09-22T15:55:30Z</time>
      </trkpt>
      <trkpt lat="47.30961" lon="6.03812">
        <ele>550.49</ele>
        <time>2018-09-22T15:55:31Z</time>
      </trkpt>
      <trkpt lat="47.3096" lon="6.03816">
        <ele>550.97</ele>
        <time>2018-09-22T15:55:32Z</time>
      </trkpt>
      <trkpt lat="47.3096" lon="6.0382">
        <ele>550.49</ele>
        <time>2018-09-22T15:55:33Z</time>
      </trkpt>
      <trkpt lat="47.30959" lon="6.03848">
        <ele>551.45</ele>
        <time>2018-09-22T15:55:43Z</time>
      </trkpt>
      <trkpt lat="47.30953" lon="6.03879">
        <ele>552.41</ele>
        <time>2018-09-22T15:55:51Z</time>
      </trkpt>
      <trkpt lat="47.30951" lon="6.03895">
        <ele>552.41</ele>
        <time>2018-09-22T15:55:56Z</time>
      </trkpt>
      <trkpt lat="47.30951" lon="6.03898">
        <ele>552.41</ele>
        <time>2018-09-22T15:55:57Z</time>
      </trkpt>
      <trkpt lat="47.3095" lon="6.0395">
        <ele>553.38</ele>
        <time>2018-09-22T15:56:11Z</time>
      </trkpt>
      <trkpt lat="47.30943" lon="6.04001">
        <ele>554.34</ele>
        <time>2018-09-22T15:56:23Z</time>
      </trkpt>
      <trkpt lat="47.30937" lon="6.0404">
        <ele>554.34</ele>
        <time>2018-09-22T15:56:32Z</time>
      </trkpt>
      <trkpt lat="47.30938" lon="6.04043">
        <ele>554.34</ele>
        <time>2018-09-22T15:56:33Z</time>
      </trkpt>
      <trkpt lat="47.30938" lon="6.04047">
        <ele>554.34</ele>
        <time>2018-09-22T15:56:34Z</time>
      </trkpt>
      <trkpt lat="47.30936" lon="6.04096">
        <ele>554.82</ele>
        <time>2018-09-22T15:56:46Z</time>
      </trkpt>
      <trkpt lat="47.30934" lon="6.04115">
        <ele>555.3</ele>
        <time>2018-09-22T15:56:52Z</time>
      </trkpt>
      <trkpt lat="47.30933" lon="6.04118">
        <ele>555.3</ele>
        <time>2018-09-22T15:56:53Z</time>
      </trkpt>
      <trkpt lat="47.30933" lon="6.04121">
        <ele>555.3</ele>
        <time>2018-09-22T15:56:54Z</time>
      </trkpt>
      <trkpt lat="47.30934" lon="6.04125">
        <ele>555.3</ele>
        <time>2018-09-22T15:56:55Z</time>
      </trkpt>
      <trkpt lat="47.30934" lon="6.04129">
        <ele>555.3</ele>
        <time>2018-09-22T15:56:56Z</time>
      </trkpt>
      <trkpt lat="47.30934" lon="6.04132">
        <ele>555.78</ele>
        <time>2018-09-22T15:56:57Z</time>
      </trkpt>
      <trkpt lat="47.30934" lon="6.04136">
        <ele>555.78</ele>
        <time>2018-09-22T15:56:58Z</time>
      </trkpt>
      <trkpt lat="47.30934" lon="6.04139">
        <ele>555.78</ele>
        <time>2018-09-22T15:56:59Z</time>
      </trkpt>
      <trkpt lat="47.30936" lon="6.0418">
        <ele>556.26</ele>
        <time>2018-09-22T15:57:10Z</time>
      </trkpt>
      <trkpt lat="47.30937" lon="6.04191">
        <ele>556.74</ele>
        <time>2018-09-22T15:57:13Z</time>
      </trkpt>
      <trkpt lat="47.30936" lon="6.04195">
        <ele>556.74</ele>
        <time>2018-09-22T15:57:14Z</time>
      </trkpt>
      <trkpt lat="47.30937" lon="6.04198">
        <ele>556.74</ele>
        <time>2018-09-22T15:57:15Z</time>
      </trkpt>
      <trkpt lat="47.30937" lon="6.04201">
        <ele>557.22</ele>
        <time>2018-09-22T15:57:16Z</time>
      </trkpt>
      <trkpt lat="47.30938" lon="6.04205">
        <ele>557.22</ele>
        <time>2018-09-22T15:57:17Z</time>
      </trkpt>
      <trkpt lat="47.30938" lon="6.04208">
        <ele>557.22</ele>
        <time>2018-09-22T15:57:18Z</time>
      </trkpt>
      <trkpt lat="47.30938" lon="6.04212">
        <ele>557.22</ele>
        <time>2018-09-22T15:57:19Z</time>
      </trkpt>
      <trkpt lat="47.30939" lon="6.04216">
        <ele>557.7</ele>
        <time>2018-09-22T15:57:20Z</time>
      </trkpt>
      <trkpt lat="47.30939" lon="6.04219">
        <ele>557.22</ele>
        <time>2018-09-22T15:57:21Z</time>
      </trkpt>
      <trkpt lat="47.3094" lon="6.04223">
        <ele>557.22</ele>
        <time>2018-09-22T15:57:22Z</time>
      </trkpt>
      <trkpt lat="47.3094" lon="6.04226">
        <ele>557.7</ele>
        <time>2018-09-22T15:57:23Z</time>
      </trkpt>
      <trkpt lat="47.30942" lon="6.04234">
        <ele>558.18</ele>
        <time>2018-09-22T15:57:26Z</time>
      </trkpt>
      <trkpt lat="47.30943" lon="6.04237">
        <ele>557.7</ele>
        <time>2018-09-22T15:57:27Z</time>
      </trkpt>
      <trkpt lat="47.30945" lon="6.04257">
        <ele>558.18</ele>
        <time>2018-09-22T15:57:32Z</time>
      </trkpt>
      <trkpt lat="47.30946" lon="6.04262">
        <ele>558.18</ele>
        <time>2018-09-22T15:57:33Z</time>
      </trkpt>
      <trkpt lat="47.30946" lon="6.04266">
        <ele>558.66</ele>
        <time>2018-09-22T15:57:34Z</time>
      </trkpt>
      <trkpt lat="47.30947" lon="6.0427">
        <ele>558.66</ele>
        <time>2018-09-22T15:57:35Z</time>
      </trkpt>
      <trkpt lat="47.30947" lon="6.04274">
        <ele>558.66</ele>
        <time>2018-09-22T15:57:36Z</time>
      </trkpt>
      <trkpt lat="47.30947" lon="6.04278">
        <ele>558.66</ele>
        <time>2018-09-22T15:57:37Z</time>
      </trkpt>
      <trkpt lat="47.30948" lon="6.04282">
        <ele>558.66</ele>
        <time>2018-09-22T15:57:38Z</time>
      </trkpt>
      <trkpt lat="47.30955" lon="6.04312">
        <ele>559.62</ele>
        <time>2018-09-22T15:57:46Z</time>
      </trkpt>
      <trkpt lat="47.30955" lon="6.04315">
        <ele>559.62</ele>
        <time>2018-09-22T15:57:47Z</time>
      </trkpt>
      <trkpt lat="47.3096" lon="6.04335">
        <ele>560.59</ele>
        <time>2018-09-22T15:57:53Z</time>
      </trkpt>
      <trkpt lat="47.30961" lon="6.04337">
        <ele>560.59</ele>
        <time>2018-09-22T15:57:54Z</time>
      </trkpt>
      <trkpt lat="47.30962" lon="6.0434">
        <ele>560.59</ele>
        <time>2018-09-22T15:57:55Z</time>
      </trkpt>
      <trkpt lat="47.30963" lon="6.04343">
        <ele>560.59</ele>
        <time>2018-09-22T15:57:56Z</time>
      </trkpt>
      <trkpt lat="47.30964" lon="6.04346">
        <ele>560.59</ele>
        <time>2018-09-22T15:57:57Z</time>
      </trkpt>
      <trkpt lat="47.30965" lon="6.04349">
        <ele>561.07</ele>
        <time>2018-09-22T15:57:58Z</time>
      </trkpt>
      <trkpt lat="47.30973" lon="6.0437">
        <ele>561.55</ele>
        <time>2018-09-22T15:58:05Z</time>
      </trkpt>
      <trkpt lat="47.30974" lon="6.04373">
        <ele>561.55</ele>
        <time>2018-09-22T15:58:06Z</time>
      </trkpt>
      <trkpt lat="47.30975" lon="6.04377">
        <ele>562.03</ele>
        <time>2018-09-22T15:58:07Z</time>
      </trkpt>
      <trkpt lat="47.30977" lon="6.0438">
        <ele>562.03</ele>
        <time>2018-09-22T15:58:08Z</time>
      </trkpt>
      <trkpt lat="47.30979" lon="6.04383">
        <ele>562.03</ele>
        <time>2018-09-22T15:58:09Z</time>
      </trkpt>
      <trkpt lat="47.3098" lon="6.04386">
        <ele>562.51</ele>
        <time>2018-09-22T15:58:10Z</time>
      </trkpt>
      <trkpt lat="47.30989" lon="6.04404">
        <ele>562.51</ele>
        <time>2018-09-22T15:58:15Z</time>
      </trkpt>
      <trkpt lat="47.30993" lon="6.04415">
        <ele>562.99</ele>
        <time>2018-09-22T15:58:18Z</time>
      </trkpt>
      <trkpt lat="47.30994" lon="6.04418">
        <ele>562.99</ele>
        <time>2018-09-22T15:58:19Z</time>
      </trkpt>
      <trkpt lat="47.30996" lon="6.04421">
        <ele>562.99</ele>
        <time>2018-09-22T15:58:20Z</time>
      </trkpt>
      <trkpt lat="47.30998" lon="6.04424">
        <ele>562.99</ele>
        <time>2018-09-22T15:58:21Z</time>
      </trkpt>
      <trkpt lat="47.31" lon="6.04428">
        <ele>562.99</ele>
        <time>2018-09-22T15:58:22Z</time>
      </trkpt>
      <trkpt lat="47.31001" lon="6.04431">
        <ele>562.99</ele>
        <time>2018-09-22T15:58:23Z</time>
      </trkpt>
      <trkpt lat="47.31003" lon="6.04434">
        <ele>563.47</ele>
        <time>2018-09-22T15:58:24Z</time>
      </trkpt>
      <trkpt lat="47.31005" lon="6.04438">
        <ele>563.47</ele>
        <time>2018-09-22T15:58:25Z</time>
      </trkpt>
      <trkpt lat="47.31029" lon="6.04472">
        <ele>563.95</ele>
        <time>2018-09-22T15:58:36Z</time>
      </trkpt>
      <trkpt lat="47.31054" lon="6.04507">
        <ele>563.95</ele>
        <time>2018-09-22T15:58:48Z</time>
      </trkpt>
      <trkpt lat="47.31074" lon="6.04543">
        <ele>562.99</ele>
        <time>2018-09-22T15:58:58Z</time>
      </trkpt>
      <trkpt lat="47.31093" lon="6.04577">
        <ele>562.51</ele>
        <time>2018-09-22T15:59:07Z</time>
      </trkpt>
      <trkpt lat="47.311" lon="6.04589">
        <ele>562.03</ele>
        <time>2018-09-22T15:59:10Z</time>
      </trkpt>
      <trkpt lat="47.31117" lon="6.0464">
        <ele>560.11</ele>
        <time>2018-09-22T15:59:20Z</time>
      </trkpt>
      <trkpt lat="47.31138" lon="6.047">
        <ele>557.22</ele>
        <time>2018-09-22T15:59:30Z</time>
      </trkpt>
      <trkpt lat="47.31146" lon="6.04727">
        <ele>556.26</ele>
        <time>2018-09-22T15:59:34Z</time>
      </trkpt>
      <trkpt lat="47.31152" lon="6.04747">
        <ele>555.78</ele>
        <time>2018-09-22T15:59:37Z</time>
      </trkpt>
      <trkpt lat="47.31184" lon="6.04826">
        <ele>552.9</ele>
        <time>2018-09-22T15:59:48Z</time>
      </trkpt>
      <trkpt lat="47.31199" lon="6.04891">
        <ele>550.49</ele>
        <time>2018-09-22T15:59:56Z</time>
      </trkpt>
      <trkpt lat="47.31201" lon="6.04899">
        <ele>550.49</ele>
        <time>2018-09-22T15:59:57Z</time>
      </trkpt>
      <trkpt lat="47.31203" lon="6.04906">
        <ele>550.49</ele>
        <time>2018-09-22T15:59:58Z</time>
      </trkpt>
      <trkpt lat="47.31219" lon="6.0496">
        <ele>552.41</ele>
        <time>2018-09-22T16:00:09Z</time>
      </trkpt>
      <trkpt lat="47.31234" lon="6.04999">
        <ele>553.86</ele>
        <time>2018-09-22T16:00:21Z</time>
      </trkpt>
      <trkpt lat="47.31239" lon="6.05007">
        <ele>554.34</ele>
        <time>2018-09-22T16:00:24Z</time>
      </trkpt>
      <trkpt lat="47.31254" lon="6.05049">
        <ele>555.78</ele>
        <time>2018-09-22T16:00:37Z</time>
      </trkpt>
      <trkpt lat="47.31258" lon="6.05064">
        <ele>556.26</ele>
        <time>2018-09-22T16:00:41Z</time>
      </trkpt>
      <trkpt lat="47.31259" lon="6.05067">
        <ele>556.26</ele>
        <time>2018-09-22T16:00:42Z</time>
      </trkpt>
      <trkpt lat="47.31277" lon="6.05107">
        <ele>557.7</ele>
        <time>2018-09-22T16:00:54Z</time>
      </trkpt>
      <trkpt lat="47.31293" lon="6.05147">
        <ele>559.62</ele>
        <time>2018-09-22T16:01:07Z</time>
      </trkpt>
      <trkpt lat="47.31308" lon="6.05179">
        <ele>560.59</ele>
        <time>2018-09-22T16:01:18Z</time>
      </trkpt>
      <trkpt lat="47.31316" lon="6.05195">
        <ele>561.07</ele>
        <time>2018-09-22T16:01:24Z</time>
      </trkpt>
      <trkpt lat="47.31318" lon="6.05197">
        <ele>561.55</ele>
        <time>2018-09-22T16:01:25Z</time>
      </trkpt>
      <trkpt lat="47.31319" lon="6.052">
        <ele>561.55</ele>
        <time>2018-09-22T16:01:26Z</time>
      </trkpt>
      <trkpt lat="47.31339" lon="6.05232">
        <ele>562.99</ele>
        <time>2018-09-22T16:01:38Z</time>
      </trkpt>
      <trkpt lat="47.31346" lon="6.05238">
        <ele>563.47</ele>
        <time>2018-09-22T16:01:41Z</time>
      </trkpt>
      <trkpt lat="47.31348" lon="6.05241">
        <ele>563.47</ele>
        <time>2018-09-22T16:01:42Z</time>
      </trkpt>
      <trkpt lat="47.31367" lon="6.05278">
        <ele>564.43</ele>
        <time>2018-09-22T16:01:55Z</time>
      </trkpt>
      <trkpt lat="47.31368" lon="6.0528">
        <ele>564.91</ele>
        <time>2018-09-22T16:01:56Z</time>
      </trkpt>
      <trkpt lat="47.3137" lon="6.05282">
        <ele>564.91</ele>
        <time>2018-09-22T16:01:57Z</time>
      </trkpt>
      <trkpt lat="47.31372" lon="6.05284">
        <ele>564.91</ele>
        <time>2018-09-22T16:01:58Z</time>
      </trkpt>
      <trkpt lat="47.31374" lon="6.05287">
        <ele>564.91</ele>
        <time>2018-09-22T16:01:59Z</time>
      </trkpt>
      <trkpt lat="47.31376" lon="6.0529">
        <ele>564.91</ele>
        <time>2018-09-22T16:02:00Z</time>
      </trkpt>
      <trkpt lat="47.31394" lon="6.05314">
        <ele>565.87</ele>
        <time>2018-09-22T16:02:09Z</time>
      </trkpt>
      <trkpt lat="47.31408" lon="6.05335">
        <ele>567.32</ele>
        <time>2018-09-22T16:02:18Z</time>
      </trkpt>
      <trkpt lat="47.31419" lon="6.05351">
        <ele>568.76</ele>
        <time>2018-09-22T16:02:25Z</time>
      </trkpt>
      <trkpt lat="47.31421" lon="6.05353">
        <ele>568.76</ele>
        <time>2018-09-22T16:02:26Z</time>
      </trkpt>
      <trkpt lat="47.31422" lon="6.05354">
        <ele>568.76</ele>
        <time>2018-09-22T16:02:27Z</time>
      </trkpt>
      <trkpt lat="47.31423" lon="6.05356">
        <ele>568.76</ele>
        <time>2018-09-22T16:02:28Z</time>
      </trkpt>
      <trkpt lat="47.31425" lon="6.05358">
        <ele>569.24</ele>
        <time>2018-09-22T16:02:29Z</time>
      </trkpt>
      <trkpt lat="47.31426" lon="6.05361">
        <ele>569.24</ele>
        <time>2018-09-22T16:02:30Z</time>
      </trkpt>
      <trkpt lat="47.31446" lon="6.05385">
        <ele>571.16</ele>
        <time>2018-09-22T16:02:42Z</time>
      </trkpt>
      <trkpt lat="47.31448" lon="6.05387">
        <ele>571.64</ele>
        <time>2018-09-22T16:02:43Z</time>
      </trkpt>
      <trkpt lat="47.3145" lon="6.05389">
        <ele>571.64</ele>
        <time>2018-09-22T16:02:44Z</time>
      </trkpt>
      <trkpt lat="47.31462" lon="6.05407">
        <ele>573.08</ele>
        <time>2018-09-22T16:02:53Z</time>
      </trkpt>
      <trkpt lat="47.31477" lon="6.05426">
        <ele>574.53</ele>
        <time>2018-09-22T16:03:04Z</time>
      </trkpt>
      <trkpt lat="47.31478" lon="6.05428">
        <ele>574.53</ele>
        <time>2018-09-22T16:03:05Z</time>
      </trkpt>
      <trkpt lat="47.31479" lon="6.05429">
        <ele>575.01</ele>
        <time>2018-09-22T16:03:06Z</time>
      </trkpt>
      <trkpt lat="47.3148" lon="6.0543">
        <ele>575.01</ele>
        <time>2018-09-22T16:03:07Z</time>
      </trkpt>
      <trkpt lat="47.31482" lon="6.05433">
        <ele>575.01</ele>
        <time>2018-09-22T16:03:08Z</time>
      </trkpt>
      <trkpt lat="47.31482" lon="6.05435">
        <ele>575.01</ele>
        <time>2018-09-22T16:03:09Z</time>
      </trkpt>
      <trkpt lat="47.31484" lon="6.05437">
        <ele>575.49</ele>
        <time>2018-09-22T16:03:10Z</time>
      </trkpt>
      <trkpt lat="47.31485" lon="6.05439">
        <ele>575.49</ele>
        <time>2018-09-22T16:03:11Z</time>
      </trkpt>
      <trkpt lat="47.31487" lon="6.05442">
        <ele>575.49</ele>
        <time>2018-09-22T16:03:12Z</time>
      </trkpt>
      <trkpt lat="47.31489" lon="6.05444">
        <ele>575.97</ele>
        <time>2018-09-22T16:03:13Z</time>
      </trkpt>
      <trkpt lat="47.31491" lon="6.05446">
        <ele>575.97</ele>
        <time>2018-09-22T16:03:14Z</time>
      </trkpt>
      <trkpt lat="47.31492" lon="6.05448">
        <ele>575.97</ele>
        <time>2018-09-22T16:03:15Z</time>
      </trkpt>
      <trkpt lat="47.31494" lon="6.0545">
        <ele>576.45</ele>
        <time>2018-09-22T16:03:16Z</time>
      </trkpt>
      <trkpt lat="47.31497" lon="6.05454">
        <ele>576.45</ele>
        <time>2018-09-22T16:03:18Z</time>
      </trkpt>
      <trkpt lat="47.31499" lon="6.05456">
        <ele>576.93</ele>
        <time>2018-09-22T16:03:19Z</time>
      </trkpt>
      <trkpt lat="47.31501" lon="6.05459">
        <ele>576.93</ele>
        <time>2018-09-22T16:03:20Z</time>
      </trkpt>
      <trkpt lat="47.31502" lon="6.05461">
        <ele>576.93</ele>
        <time>2018-09-22T16:03:21Z</time>
      </trkpt>
      <trkpt lat="47.31504" lon="6.05463">
        <ele>577.41</ele>
        <time>2018-09-22T16:03:22Z</time>
      </trkpt>
      <trkpt lat="47.31506" lon="6.05464">
        <ele>576.93</ele>
        <time>2018-09-22T16:03:23Z</time>
      </trkpt>
      <trkpt lat="47.31508" lon="6.05466">
        <ele>577.41</ele>
        <time>2018-09-22T16:03:24Z</time>
      </trkpt>
      <trkpt lat="47.31509" lon="6.05468">
        <ele>577.41</ele>
        <time>2018-09-22T16:03:25Z</time>
      </trkpt>
      <trkpt lat="47.31519" lon="6.05482">
        <ele>578.37</ele>
        <time>2018-09-22T16:03:32Z</time>
      </trkpt>
      <trkpt lat="47.31525" lon="6.05492">
        <ele>579.33</ele>
        <time>2018-09-22T16:03:37Z</time>
      </trkpt>
      <trkpt lat="47.31543" lon="6.05518">
        <ele>581.25</ele>
        <time>2018-09-22T16:03:50Z</time>
      </trkpt>
      <trkpt lat="47.31565" lon="6.05539">
        <ele>583.18</ele>
        <time>2018-09-22T16:04:02Z</time>
      </trkpt>
      <trkpt lat="47.31584" lon="6.05553">
        <ele>584.62</ele>
        <time>2018-09-22T16:04:13Z</time>
      </trkpt>
      <trkpt lat="47.31603" lon="6.05567">
        <ele>585.58</ele>
        <time>2018-09-22T16:04:22Z</time>
      </trkpt>
      <trkpt lat="47.31623" lon="6.05593">
        <ele>586.54</ele>
        <time>2018-09-22T16:04:33Z</time>
      </trkpt>
      <trkpt lat="47.31645" lon="6.05627">
        <ele>586.54</ele>
        <time>2018-09-22T16:04:44Z</time>
      </trkpt>
      <trkpt lat="47.31647" lon="6.05631">
        <ele>586.54</ele>
        <time>2018-09-22T16:04:45Z</time>
      </trkpt>
      <trkpt lat="47.31649" lon="6.05634">
        <ele>586.54</ele>
        <time>2018-09-22T16:04:46Z</time>
      </trkpt>
      <trkpt lat="47.31652" lon="6.0564">
        <ele>586.54</ele>
        <time>2018-09-22T16:04:48Z</time>
      </trkpt>
      <trkpt lat="47.31653" lon="6.05643">
        <ele>586.54</ele>
        <time>2018-09-22T16:04:49Z</time>
      </trkpt>
      <trkpt lat="47.31655" lon="6.05646">
        <ele>586.54</ele>
        <time>2018-09-22T16:04:50Z</time>
      </trkpt>
      <trkpt lat="47.31658" lon="6.05649">
        <ele>586.54</ele>
        <time>2018-09-22T16:04:51Z</time>
      </trkpt>
      <trkpt lat="47.3166" lon="6.05651">
        <ele>586.54</ele>
        <time>2018-09-22T16:04:52Z</time>
      </trkpt>
      <trkpt lat="47.31662" lon="6.05654">
        <ele>586.54</ele>
        <time>2018-09-22T16:04:53Z</time>
      </trkpt>
      <trkpt lat="47.31664" lon="6.05656">
        <ele>586.54</ele>
        <time>2018-09-22T16:04:54Z</time>
      </trkpt>
      <trkpt lat="47.31667" lon="6.05659">
        <ele>586.54</ele>
        <time>2018-09-22T16:04:55Z</time>
      </trkpt>
      <trkpt lat="47.31669" lon="6.05662">
        <ele>586.54</ele>
        <time>2018-09-22T16:04:56Z</time>
      </trkpt>
      <trkpt lat="47.31671" lon="6.05665">
        <ele>586.54</ele>
        <time>2018-09-22T16:04:57Z</time>
      </trkpt>
      <trkpt lat="47.31673" lon="6.05668">
        <ele>586.54</ele>
        <time>2018-09-22T16:04:58Z</time>
      </trkpt>
      <trkpt lat="47.31674" lon="6.05671">
        <ele>586.54</ele>
        <time>2018-09-22T16:04:59Z</time>
      </trkpt>
      <trkpt lat="47.31676" lon="6.05674">
        <ele>586.54</ele>
        <time>2018-09-22T16:05:00Z</time>
      </trkpt>
      <trkpt lat="47.31678" lon="6.05677">
        <ele>586.54</ele>
        <time>2018-09-22T16:05:01Z</time>
      </trkpt>
      <trkpt lat="47.31694" lon="6.05707">
        <ele>587.5</ele>
        <time>2018-09-22T16:05:11Z</time>
      </trkpt>
      <trkpt lat="47.317" lon="6.0572">
        <ele>587.98</ele>
        <time>2018-09-22T16:05:15Z</time>
      </trkpt>
      <trkpt lat="47.317" lon="6.05723">
        <ele>588.46</ele>
        <time>2018-09-22T16:05:16Z</time>
      </trkpt>
      <trkpt lat="47.31701" lon="6.05725">
        <ele>588.46</ele>
        <time>2018-09-22T16:05:17Z</time>
      </trkpt>
      <trkpt lat="47.31702" lon="6.05728">
        <ele>588.46</ele>
        <time>2018-09-22T16:05:18Z</time>
      </trkpt>
      <trkpt lat="47.31703" lon="6.05731">
        <ele>588.46</ele>
        <time>2018-09-22T16:05:19Z</time>
      </trkpt>
      <trkpt lat="47.31713" lon="6.05751">
        <ele>589.43</ele>
        <time>2018-09-22T16:05:26Z</time>
      </trkpt>
      <trkpt lat="47.31714" lon="6.05753">
        <ele>589.43</ele>
        <time>2018-09-22T16:05:27Z</time>
      </trkpt>
      <trkpt lat="47.31722" lon="6.0577">
        <ele>590.39</ele>
        <time>2018-09-22T16:05:33Z</time>
      </trkpt>
      <trkpt lat="47.31722" lon="6.05772">
        <ele>590.39</ele>
        <time>2018-09-22T16:05:34Z</time>
      </trkpt>
      <trkpt lat="47.31723" lon="6.05775">
        <ele>590.87</ele>
        <time>2018-09-22T16:05:35Z</time>
      </trkpt>
      <trkpt lat="47.31724" lon="6.05777">
        <ele>590.87</ele>
        <time>2018-09-22T16:05:36Z</time>
      </trkpt>
      <trkpt lat="47.31725" lon="6.05779">
        <ele>590.87</ele>
        <time>2018-09-22T16:05:37Z</time>
      </trkpt>
      <trkpt lat="47.3174" lon="6.05809">
        <ele>592.31</ele>
        <time>2018-09-22T16:05:47Z</time>
      </trkpt>
      <trkpt lat="47.31745" lon="6.0582">
        <ele>592.79</ele>
        <time>2018-09-22T16:05:51Z</time>
      </trkpt>
      <trkpt lat="47.31746" lon="6.05823">
        <ele>592.79</ele>
        <time>2018-09-22T16:05:52Z</time>
      </trkpt>
      <trkpt lat="47.31748" lon="6.05827">
        <ele>592.79</ele>
        <time>2018-09-22T16:05:53Z</time>
      </trkpt>
      <trkpt lat="47.31749" lon="6.0583">
        <ele>592.79</ele>
        <time>2018-09-22T16:05:54Z</time>
      </trkpt>
      <trkpt lat="47.3175" lon="6.05834">
        <ele>592.79</ele>
        <time>2018-09-22T16:05:55Z</time>
      </trkpt>
      <trkpt lat="47.31751" lon="6.05838">
        <ele>593.27</ele>
        <time>2018-09-22T16:05:56Z</time>
      </trkpt>
      <trkpt lat="47.31753" lon="6.05841">
        <ele>593.27</ele>
        <time>2018-09-22T16:05:57Z</time>
      </trkpt>
      <trkpt lat="47.31755" lon="6.05845">
        <ele>593.27</ele>
        <time>2018-09-22T16:05:58Z</time>
      </trkpt>
      <trkpt lat="47.31756" lon="6.05847">
        <ele>593.75</ele>
        <time>2018-09-22T16:05:59Z</time>
      </trkpt>
      <trkpt lat="47.31757" lon="6.05849">
        <ele>593.75</ele>
        <time>2018-09-22T16:06:00Z</time>
      </trkpt>
      <trkpt lat="47.31767" lon="6.05865">
        <ele>594.71</ele>
        <time>2018-09-22T16:06:07Z</time>
      </trkpt>
      <trkpt lat="47.31769" lon="6.05868">
        <ele>594.71</ele>
        <time>2018-09-22T16:06:08Z</time>
      </trkpt>
      <trkpt lat="47.31771" lon="6.0587">
        <ele>594.71</ele>
        <time>2018-09-22T16:06:09Z</time>
      </trkpt>
      <trkpt lat="47.31772" lon="6.05873">
        <ele>594.71</ele>
        <time>2018-09-22T16:06:10Z</time>
      </trkpt>
      <trkpt lat="47.31774" lon="6.05876">
        <ele>594.71</ele>
        <time>2018-09-22T16:06:11Z</time>
      </trkpt>
      <trkpt lat="47.31775" lon="6.05879">
        <ele>595.19</ele>
        <time>2018-09-22T16:06:12Z</time>
      </trkpt>
      <trkpt lat="47.31777" lon="6.05882">
        <ele>595.19</ele>
        <time>2018-09-22T16:06:13Z</time>
      </trkpt>
      <trkpt lat="47.31778" lon="6.05885">
        <ele>595.19</ele>
        <time>2018-09-22T16:06:14Z</time>
      </trkpt>
      <trkpt lat="47.3178" lon="6.05887">
        <ele>595.19</ele>
        <time>2018-09-22T16:06:15Z</time>
      </trkpt>
      <trkpt lat="47.31781" lon="6.05889">
        <ele>595.67</ele>
        <time>2018-09-22T16:06:16Z</time>
      </trkpt>
      <trkpt lat="47.31783" lon="6.05891">
        <ele>595.67</ele>
        <time>2018-09-22T16:06:17Z</time>
      </trkpt>
      <trkpt lat="47.31785" lon="6.05893">
        <ele>595.67</ele>
        <time>2018-09-22T16:06:18Z</time>
      </trkpt>
      <trkpt lat="47.31787" lon="6.05895">
        <ele>595.67</ele>
        <time>2018-09-22T16:06:19Z</time>
      </trkpt>
      <trkpt lat="47.31807" lon="6.05906">
        <ele>597.12</ele>
        <time>2018-09-22T16:06:29Z</time>
      </trkpt>
      <trkpt lat="47.3183" lon="6.05918">
        <ele>598.56</ele>
        <time>2018-09-22T16:06:39Z</time>
      </trkpt>
      <trkpt lat="47.31836" lon="6.05925">
        <ele>598.56</ele>
        <time>2018-09-22T16:06:42Z</time>
      </trkpt>
      <trkpt lat="47.31838" lon="6.05928">
        <ele>599.04</ele>
        <time>2018-09-22T16:06:43Z</time>
      </trkpt>
      <trkpt lat="47.31843" lon="6.05934">
        <ele>599.52</ele>
        <time>2018-09-22T16:06:46Z</time>
      </trkpt>
      <trkpt lat="47.31846" lon="6.05939">
        <ele>600</ele>
        <time>2018-09-22T16:06:48Z</time>
      </trkpt>
      <trkpt lat="47.31846" lon="6.05942">
        <ele>600</ele>
        <time>2018-09-22T16:06:49Z</time>
      </trkpt>
      <trkpt lat="47.31852" lon="6.05953">
        <ele>600.48</ele>
        <time>2018-09-22T16:06:53Z</time>
      </trkpt>
      <trkpt lat="47.31852" lon="6.05955">
        <ele>600.96</ele>
        <time>2018-09-22T16:06:54Z</time>
      </trkpt>
      <trkpt lat="47.31852" lon="6.05957">
        <ele>600.96</ele>
        <time>2018-09-22T16:06:55Z</time>
      </trkpt>
      <trkpt lat="47.31852" lon="6.0596">
        <ele>601.44</ele>
        <time>2018-09-22T16:06:56Z</time>
      </trkpt>
      <trkpt lat="47.31853" lon="6.05962">
        <ele>601.44</ele>
        <time>2018-09-22T16:06:57Z</time>
      </trkpt>
      <trkpt lat="47.31855" lon="6.05964">
        <ele>601.44</ele>
        <time>2018-09-22T16:06:58Z</time>
      </trkpt>
      <trkpt lat="47.31856" lon="6.05964">
        <ele>601.92</ele>
        <time>2018-09-22T16:06:59Z</time>
      </trkpt>
      <trkpt lat="47.31858" lon="6.05965">
        <ele>601.92</ele>
        <time>2018-09-22T16:07:00Z</time>
      </trkpt>
      <trkpt lat="47.31859" lon="6.05964">
        <ele>601.92</ele>
        <time>2018-09-22T16:07:01Z</time>
      </trkpt>
      <trkpt lat="47.31861" lon="6.05964">
        <ele>601.92</ele>
        <time>2018-09-22T16:07:02Z</time>
      </trkpt>
      <trkpt lat="47.31863" lon="6.05963">
        <ele>601.92</ele>
        <time>2018-09-22T16:07:03Z</time>
      </trkpt>
      <trkpt lat="47.31865" lon="6.05963">
        <ele>601.92</ele>
        <time>2018-09-22T16:07:04Z</time>
      </trkpt>
      <trkpt lat="47.31869" lon="6.05961">
        <ele>601.92</ele>
        <time>2018-09-22T16:07:06Z</time>
      </trkpt>
      <trkpt lat="47.31869" lon="6.05958">
        <ele>601.44</ele>
        <time>2018-09-22T16:07:07Z</time>
      </trkpt>
      <trkpt lat="47.31868" lon="6.05956">
        <ele>601.44</ele>
        <time>2018-09-22T16:07:08Z</time>
      </trkpt>
      <trkpt lat="47.31866" lon="6.05955">
        <ele>600.96</ele>
        <time>2018-09-22T16:07:09Z</time>
      </trkpt>
      <trkpt lat="47.31864" lon="6.05954">
        <ele>600.96</ele>
        <time>2018-09-22T16:07:10Z</time>
      </trkpt>
      <trkpt lat="47.31859" lon="6.05955">
        <ele>601.44</ele>
        <time>2018-09-22T16:07:13Z</time>
      </trkpt>
      <trkpt lat="47.31848" lon="6.05936">
        <ele>598.56</ele>
        <time>2018-09-22T16:07:19Z</time>
      </trkpt>
      <trkpt lat="47.31839" lon="6.0592">
        <ele>597.12</ele>
        <time>2018-09-22T16:07:22Z</time>
      </trkpt>
      <trkpt lat="47.31833" lon="6.05912">
        <ele>596.64</ele>
        <time>2018-09-22T16:07:24Z</time>
      </trkpt>
      <trkpt lat="47.31829" lon="6.05909">
        <ele>596.15</ele>
        <time>2018-09-22T16:07:25Z</time>
      </trkpt>
      <trkpt lat="47.31823" lon="6.05907">
        <ele>596.15</ele>
        <time>2018-09-22T16:07:26Z</time>
      </trkpt>
      <trkpt lat="47.31813" lon="6.05903">
        <ele>595.67</ele>
        <time>2018-09-22T16:07:28Z</time>
      </trkpt>
      <trkpt lat="47.31808" lon="6.05901">
        <ele>595.19</ele>
        <time>2018-09-22T16:07:29Z</time>
      </trkpt>
      <trkpt lat="47.31803" lon="6.05897">
        <ele>594.71</ele>
        <time>2018-09-22T16:07:30Z</time>
      </trkpt>
      <trkpt lat="47.31797" lon="6.05892">
        <ele>594.23</ele>
        <time>2018-09-22T16:07:31Z</time>
      </trkpt>
      <trkpt lat="47.31792" lon="6.05887">
        <ele>594.23</ele>
        <time>2018-09-22T16:07:32Z</time>
      </trkpt>
      <trkpt lat="47.31786" lon="6.05882">
        <ele>593.75</ele>
        <time>2018-09-22T16:07:33Z</time>
      </trkpt>
      <trkpt lat="47.31781" lon="6.05876">
        <ele>593.75</ele>
        <time>2018-09-22T16:07:34Z</time>
      </trkpt>
      <trkpt lat="47.31776" lon="6.05869">
        <ele>593.27</ele>
        <time>2018-09-22T16:07:35Z</time>
      </trkpt>
      <trkpt lat="47.31772" lon="6.05862">
        <ele>592.79</ele>
        <time>2018-09-22T16:07:36Z</time>
      </trkpt>
      <trkpt lat="47.31767" lon="6.05856">
        <ele>592.79</ele>
        <time>2018-09-22T16:07:37Z</time>
      </trkpt>
      <trkpt lat="47.31762" lon="6.05851">
        <ele>592.31</ele>
        <time>2018-09-22T16:07:38Z</time>
      </trkpt>
      <trkpt lat="47.31756" lon="6.05848">
        <ele>591.83</ele>
        <time>2018-09-22T16:07:39Z</time>
      </trkpt>
      <trkpt lat="47.3175" lon="6.05846">
        <ele>591.35</ele>
        <time>2018-09-22T16:07:40Z</time>
      </trkpt>
      <trkpt lat="47.31737" lon="6.05842">
        <ele>589.43</ele>
        <time>2018-09-22T16:07:42Z</time>
      </trkpt>
      <trkpt lat="47.31705" lon="6.05834">
        <ele>586.06</ele>
        <time>2018-09-22T16:07:46Z</time>
      </trkpt>
      <trkpt lat="47.31672" lon="6.05823">
        <ele>581.73</ele>
        <time>2018-09-22T16:07:50Z</time>
      </trkpt>
      <trkpt lat="47.31643" lon="6.05814">
        <ele>579.81</ele>
        <time>2018-09-22T16:07:53Z</time>
      </trkpt>
      <trkpt lat="47.31635" lon="6.05809">
        <ele>579.33</ele>
        <time>2018-09-22T16:07:54Z</time>
      </trkpt>
      <trkpt lat="47.31621" lon="6.058">
        <ele>578.37</ele>
        <time>2018-09-22T16:07:56Z</time>
      </trkpt>
      <trkpt lat="47.31614" lon="6.05798">
        <ele>577.89</ele>
        <time>2018-09-22T16:07:57Z</time>
      </trkpt>
      <trkpt lat="47.31592" lon="6.05801">
        <ele>575.01</ele>
        <time>2018-09-22T16:08:00Z</time>
      </trkpt>
      <trkpt lat="47.31577" lon="6.05805">
        <ele>573.08</ele>
        <time>2018-09-22T16:08:02Z</time>
      </trkpt>
      <trkpt lat="47.31571" lon="6.05805">
        <ele>572.12</ele>
        <time>2018-09-22T16:08:03Z</time>
      </trkpt>
      <trkpt lat="47.31565" lon="6.05803">
        <ele>570.68</ele>
        <time>2018-09-22T16:08:04Z</time>
      </trkpt>
      <trkpt lat="47.3156" lon="6.05798">
        <ele>569.72</ele>
        <time>2018-09-22T16:08:05Z</time>
      </trkpt>
      <trkpt lat="47.31555" lon="6.05791">
        <ele>569.24</ele>
        <time>2018-09-22T16:08:06Z</time>
      </trkpt>
      <trkpt lat="47.31546" lon="6.05777">
        <ele>567.8</ele>
        <time>2018-09-22T16:08:08Z</time>
      </trkpt>
      <trkpt lat="47.3154" lon="6.05771">
        <ele>567.32</ele>
        <time>2018-09-22T16:08:09Z</time>
      </trkpt>
      <trkpt lat="47.31522" lon="6.05755">
        <ele>563.95</ele>
        <time>2018-09-22T16:08:12Z</time>
      </trkpt>
      <trkpt lat="47.31499" lon="6.05735">
        <ele>561.55</ele>
        <time>2018-09-22T16:08:15Z</time>
      </trkpt>
      <trkpt lat="47.31469" lon="6.05701">
        <ele>557.7</ele>
        <time>2018-09-22T16:08:19Z</time>
      </trkpt>
      <trkpt lat="47.31444" lon="6.05675">
        <ele>553.86</ele>
        <time>2018-09-22T16:08:22Z</time>
      </trkpt>
      <trkpt lat="47.31416" lon="6.05647">
        <ele>549.53</ele>
        <time>2018-09-22T16:08:25Z</time>
      </trkpt>
      <trkpt lat="47.31388" lon="6.05615">
        <ele>545.69</ele>
        <time>2018-09-22T16:08:28Z</time>
      </trkpt>
      <trkpt lat="47.31368" lon="6.0559">
        <ele>541.36</ele>
        <time>2018-09-22T16:08:30Z</time>
      </trkpt>
      <trkpt lat="47.3134" lon="6.0555">
        <ele>537.03</ele>
        <time>2018-09-22T16:08:33Z</time>
      </trkpt>
      <trkpt lat="47.31312" lon="6.0551">
        <ele>532.71</ele>
        <time>2018-09-22T16:08:36Z</time>
      </trkpt>
      <trkpt lat="47.31283" lon="6.05473">
        <ele>528.86</ele>
        <time>2018-09-22T16:08:39Z</time>
      </trkpt>
      <trkpt lat="47.31254" lon="6.05437">
        <ele>525.5</ele>
        <time>2018-09-22T16:08:42Z</time>
      </trkpt>
      <trkpt lat="47.31247" lon="6.05427">
        <ele>525.02</ele>
        <time>2018-09-22T16:08:43Z</time>
      </trkpt>
      <trkpt lat="47.3124" lon="6.05417">
        <ele>524.54</ele>
        <time>2018-09-22T16:08:44Z</time>
      </trkpt>
      <trkpt lat="47.31232" lon="6.05407">
        <ele>524.06</ele>
        <time>2018-09-22T16:08:45Z</time>
      </trkpt>
      <trkpt lat="47.31225" lon="6.05399">
        <ele>522.13</ele>
        <time>2018-09-22T16:08:46Z</time>
      </trkpt>
      <trkpt lat="47.3121" lon="6.05383">
        <ele>518.77</ele>
        <time>2018-09-22T16:08:48Z</time>
      </trkpt>
      <trkpt lat="47.31201" lon="6.05376">
        <ele>517.81</ele>
        <time>2018-09-22T16:08:49Z</time>
      </trkpt>
      <trkpt lat="47.31169" lon="6.05351">
        <ele>513</ele>
        <time>2018-09-22T16:08:52Z</time>
      </trkpt>
      <trkpt lat="47.31148" lon="6.05331">
        <ele>508.67</ele>
        <time>2018-09-22T16:08:54Z</time>
      </trkpt>
      <trkpt lat="47.31121" lon="6.05299">
        <ele>505.31</ele>
        <time>2018-09-22T16:08:57Z</time>
      </trkpt>
      <trkpt lat="47.31113" lon="6.05287">
        <ele>504.35</ele>
        <time>2018-09-22T16:08:58Z</time>
      </trkpt>
      <trkpt lat="47.31088" lon="6.05249">
        <ele>500.02</ele>
        <time>2018-09-22T16:09:01Z</time>
      </trkpt>
      <trkpt lat="47.31081" lon="6.05235">
        <ele>499.06</ele>
        <time>2018-09-22T16:09:02Z</time>
      </trkpt>
      <trkpt lat="47.31048" lon="6.05171">
        <ele>495.22</ele>
        <time>2018-09-22T16:09:07Z</time>
      </trkpt>
      <trkpt lat="47.31037" lon="6.05144">
        <ele>492.33</ele>
        <time>2018-09-22T16:09:09Z</time>
      </trkpt>
      <trkpt lat="47.31022" lon="6.05103">
        <ele>488.97</ele>
        <time>2018-09-22T16:09:12Z</time>
      </trkpt>
      <trkpt lat="47.31015" lon="6.05092">
        <ele>488.49</ele>
        <time>2018-09-22T16:09:13Z</time>
      </trkpt>
      <trkpt lat="47.31008" lon="6.05084">
        <ele>488.01</ele>
        <time>2018-09-22T16:09:14Z</time>
      </trkpt>
      <trkpt lat="47.31001" lon="6.05078">
        <ele>488.01</ele>
        <time>2018-09-22T16:09:15Z</time>
      </trkpt>
      <trkpt lat="47.30992" lon="6.05072">
        <ele>486.56</ele>
        <time>2018-09-22T16:09:16Z</time>
      </trkpt>
      <trkpt lat="47.30976" lon="6.05059">
        <ele>483.2</ele>
        <time>2018-09-22T16:09:18Z</time>
      </trkpt>
      <trkpt lat="47.30969" lon="6.0505">
        <ele>482.72</ele>
        <time>2018-09-22T16:09:19Z</time>
      </trkpt>
      <trkpt lat="47.30963" lon="6.0504">
        <ele>481.76</ele>
        <time>2018-09-22T16:09:20Z</time>
      </trkpt>
      <trkpt lat="47.30957" lon="6.0503">
        <ele>481.28</ele>
        <time>2018-09-22T16:09:21Z</time>
      </trkpt>
      <trkpt lat="47.30951" lon="6.05022">
        <ele>480.8</ele>
        <time>2018-09-22T16:09:22Z</time>
      </trkpt>
      <trkpt lat="47.30944" lon="6.05014">
        <ele>479.84</ele>
        <time>2018-09-22T16:09:23Z</time>
      </trkpt>
      <trkpt lat="47.30936" lon="6.05006">
        <ele>478.39</ele>
        <time>2018-09-22T16:09:24Z</time>
      </trkpt>
      <trkpt lat="47.30913" lon="6.04978">
        <ele>474.55</ele>
        <time>2018-09-22T16:09:27Z</time>
      </trkpt>
      <trkpt lat="47.30889" lon="6.0495">
        <ele>471.18</ele>
        <time>2018-09-22T16:09:30Z</time>
      </trkpt>
      <trkpt lat="47.30882" lon="6.04943">
        <ele>470.7</ele>
        <time>2018-09-22T16:09:31Z</time>
      </trkpt>
      <trkpt lat="47.30876" lon="6.04937">
        <ele>470.22</ele>
        <time>2018-09-22T16:09:32Z</time>
      </trkpt>
      <trkpt lat="47.30866" lon="6.04929">
        <ele>468.78</ele>
        <time>2018-09-22T16:09:34Z</time>
      </trkpt>
      <trkpt lat="47.30864" lon="6.04928">
        <ele>468.78</ele>
        <time>2018-09-22T16:09:39Z</time>
      </trkpt>
      <trkpt lat="47.30864" lon="6.0493">
        <ele>468.78</ele>
        <time>2018-09-22T16:09:40Z</time>
      </trkpt>
      <trkpt lat="47.30864" lon="6.04933">
        <ele>468.3</ele>
        <time>2018-09-22T16:09:41Z</time>
      </trkpt>
      <trkpt lat="47.30864" lon="6.04937">
        <ele>467.82</ele>
        <time>2018-09-22T16:09:42Z</time>
      </trkpt>
      <trkpt lat="47.30864" lon="6.04941">
        <ele>467.82</ele>
        <time>2018-09-22T16:09:43Z</time>
      </trkpt>
      <trkpt lat="47.30864" lon="6.04952">
        <ele>466.38</ele>
        <time>2018-09-22T16:09:45Z</time>
      </trkpt>
      <trkpt lat="47.30864" lon="6.04968">
        <ele>464.45</ele>
        <time>2018-09-22T16:09:47Z</time>
      </trkpt>
      <trkpt lat="47.30863" lon="6.04978">
        <ele>463.97</ele>
        <time>2018-09-22T16:09:48Z</time>
      </trkpt>
      <trkpt lat="47.30863" lon="6.04987">
        <ele>463.01</ele>
        <time>2018-09-22T16:09:49Z</time>
      </trkpt>
      <trkpt lat="47.30857" lon="6.05032">
        <ele>459.65</ele>
        <time>2018-09-22T16:09:53Z</time>
      </trkpt>
      <trkpt lat="47.30852" lon="6.05055">
        <ele>458.69</ele>
        <time>2018-09-22T16:09:55Z</time>
      </trkpt>
      <trkpt lat="47.3085" lon="6.05078">
        <ele>457.72</ele>
        <time>2018-09-22T16:09:57Z</time>
      </trkpt>
      <trkpt lat="47.30847" lon="6.05141">
        <ele>453.88</ele>
        <time>2018-09-22T16:10:02Z</time>
      </trkpt>
      <trkpt lat="47.30848" lon="6.05154">
        <ele>453.4</ele>
        <time>2018-09-22T16:10:03Z</time>
      </trkpt>
      <trkpt lat="47.30852" lon="6.05166">
        <ele>452.44</ele>
        <time>2018-09-22T16:10:04Z</time>
      </trkpt>
      <trkpt lat="47.30857" lon="6.05176">
        <ele>451.96</ele>
        <time>2018-09-22T16:10:05Z</time>
      </trkpt>
      <trkpt lat="47.30863" lon="6.05186">
        <ele>451.96</ele>
        <time>2018-09-22T16:10:06Z</time>
      </trkpt>
      <trkpt lat="47.30867" lon="6.05197">
        <ele>451.96</ele>
        <time>2018-09-22T16:10:07Z</time>
      </trkpt>
      <trkpt lat="47.30868" lon="6.05208">
        <ele>451</ele>
        <time>2018-09-22T16:10:08Z</time>
      </trkpt>
      <trkpt lat="47.30867" lon="6.05218">
        <ele>451.96</ele>
        <time>2018-09-22T16:10:09Z</time>
      </trkpt>
      <trkpt lat="47.30856" lon="6.05273">
        <ele>448.59</ele>
        <time>2018-09-22T16:10:14Z</time>
      </trkpt>
      <trkpt lat="47.30848" lon="6.05333">
        <ele>444.75</ele>
        <time>2018-09-22T16:10:19Z</time>
      </trkpt>
      <trkpt lat="47.30845" lon="6.05359">
        <ele>443.31</ele>
        <time>2018-09-22T16:10:21Z</time>
      </trkpt>
      <trkpt lat="47.3084" lon="6.05401">
        <ele>439.94</ele>
        <time>2018-09-22T16:10:24Z</time>
      </trkpt>
      <trkpt lat="47.30839" lon="6.05416">
        <ele>439.46</ele>
        <time>2018-09-22T16:10:25Z</time>
      </trkpt>
      <trkpt lat="47.30839" lon="6.0547">
        <ele>435.61</ele>
        <time>2018-09-22T16:10:29Z</time>
      </trkpt>
      <trkpt lat="47.30838" lon="6.05479">
        <ele>435.61</ele>
        <time>2018-09-22T16:10:30Z</time>
      </trkpt>
      <trkpt lat="47.30835" lon="6.05484">
        <ele>435.13</ele>
        <time>2018-09-22T16:10:31Z</time>
      </trkpt>
      <trkpt lat="47.30832" lon="6.05486">
        <ele>434.65</ele>
        <time>2018-09-22T16:10:32Z</time>
      </trkpt>
      <trkpt lat="47.30829" lon="6.05484">
        <ele>433.21</ele>
        <time>2018-09-22T16:10:33Z</time>
      </trkpt>
      <trkpt lat="47.30827" lon="6.05481">
        <ele>432.73</ele>
        <time>2018-09-22T16:10:34Z</time>
      </trkpt>
      <trkpt lat="47.30824" lon="6.05478">
        <ele>432.25</ele>
        <time>2018-09-22T16:10:35Z</time>
      </trkpt>
      <trkpt lat="47.30821" lon="6.05474">
        <ele>431.29</ele>
        <time>2018-09-22T16:10:36Z</time>
      </trkpt>
      <trkpt lat="47.30808" lon="6.05458">
        <ele>427.92</ele>
        <time>2018-09-22T16:10:39Z</time>
      </trkpt>
      <trkpt lat="47.30802" lon="6.0545">
        <ele>427.44</ele>
        <time>2018-09-22T16:10:40Z</time>
      </trkpt>
      <trkpt lat="47.30798" lon="6.0544">
        <ele>427.44</ele>
        <time>2018-09-22T16:10:41Z</time>
      </trkpt>
      <trkpt lat="47.30795" lon="6.0543">
        <ele>426.96</ele>
        <time>2018-09-22T16:10:42Z</time>
      </trkpt>
      <trkpt lat="47.30792" lon="6.05421">
        <ele>426.48</ele>
        <time>2018-09-22T16:10:43Z</time>
      </trkpt>
      <trkpt lat="47.30788" lon="6.05412">
        <ele>426</ele>
        <time>2018-09-22T16:10:44Z</time>
      </trkpt>
      <trkpt lat="47.30783" lon="6.05403">
        <ele>425.52</ele>
        <time>2018-09-22T16:10:45Z</time>
      </trkpt>
      <trkpt lat="47.30777" lon="6.05394">
        <ele>424.56</ele>
        <time>2018-09-22T16:10:46Z</time>
      </trkpt>
      <trkpt lat="47.30744" lon="6.05344">
        <ele>421.19</ele>
        <time>2018-09-22T16:10:51Z</time>
      </trkpt>
      <trkpt lat="47.30722" lon="6.05311">
        <ele>418.31</ele>
        <time>2018-09-22T16:10:54Z</time>
      </trkpt>
      <trkpt lat="47.307" lon="6.05278">
        <ele>414.95</ele>
        <time>2018-09-22T16:10:57Z</time>
      </trkpt>
      <trkpt lat="47.30669" lon="6.05243">
        <ele>412.06</ele>
        <time>2018-09-22T16:11:01Z</time>
      </trkpt>
      <trkpt lat="47.30661" lon="6.05237">
        <ele>411.1</ele>
        <time>2018-09-22T16:11:02Z</time>
      </trkpt>
      <trkpt lat="47.30653" lon="6.05232">
        <ele>410.62</ele>
        <time>2018-09-22T16:11:03Z</time>
      </trkpt>
      <trkpt lat="47.30644" lon="6.0523">
        <ele>409.66</ele>
        <time>2018-09-22T16:11:04Z</time>
      </trkpt>
      <trkpt lat="47.30635" lon="6.05228">
        <ele>408.7</ele>
        <time>2018-09-22T16:11:05Z</time>
      </trkpt>
      <trkpt lat="47.30625" lon="6.05227">
        <ele>407.74</ele>
        <time>2018-09-22T16:11:06Z</time>
      </trkpt>
      <trkpt lat="47.30616" lon="6.05228">
        <ele>406.77</ele>
        <time>2018-09-22T16:11:07Z</time>
      </trkpt>
      <trkpt lat="47.30607" lon="6.05231">
        <ele>405.81</ele>
        <time>2018-09-22T16:11:08Z</time>
      </trkpt>
      <trkpt lat="47.30599" lon="6.05237">
        <ele>405.33</ele>
        <time>2018-09-22T16:11:09Z</time>
      </trkpt>
      <trkpt lat="47.30592" lon="6.05245">
        <ele>403.89</ele>
        <time>2018-09-22T16:11:10Z</time>
      </trkpt>
      <trkpt lat="47.30586" lon="6.05256">
        <ele>402.93</ele>
        <time>2018-09-22T16:11:11Z</time>
      </trkpt>
      <trkpt lat="47.3058" lon="6.05268">
        <ele>401.49</ele>
        <time>2018-09-22T16:11:12Z</time>
      </trkpt>
      <trkpt lat="47.30577" lon="6.05281">
        <ele>401.01</ele>
        <time>2018-09-22T16:11:13Z</time>
      </trkpt>
      <trkpt lat="47.30576" lon="6.05294">
        <ele>400.53</ele>
        <time>2018-09-22T16:11:14Z</time>
      </trkpt>
      <trkpt lat="47.30577" lon="6.05307">
        <ele>399.57</ele>
        <time>2018-09-22T16:11:15Z</time>
      </trkpt>
      <trkpt lat="47.30578" lon="6.05321">
        <ele>398.6</ele>
        <time>2018-09-22T16:11:16Z</time>
      </trkpt>
      <trkpt lat="47.30585" lon="6.05379">
        <ele>394.76</ele>
        <time>2018-09-22T16:11:20Z</time>
      </trkpt>
      <trkpt lat="47.30591" lon="6.05428">
        <ele>391.39</ele>
        <time>2018-09-22T16:11:23Z</time>
      </trkpt>
      <trkpt lat="47.30597" lon="6.05462">
        <ele>387.07</ele>
        <time>2018-09-22T16:11:25Z</time>
      </trkpt>
      <trkpt lat="47.30608" lon="6.05511">
        <ele>383.7</ele>
        <time>2018-09-22T16:11:28Z</time>
      </trkpt>
      <trkpt lat="47.30612" lon="6.05537">
        <ele>383.22</ele>
        <time>2018-09-22T16:11:30Z</time>
      </trkpt>
      <trkpt lat="47.30612" lon="6.05547">
        <ele>383.22</ele>
        <time>2018-09-22T16:11:31Z</time>
      </trkpt>
      <trkpt lat="47.30609" lon="6.05556">
        <ele>383.22</ele>
        <time>2018-09-22T16:11:32Z</time>
      </trkpt>
      <trkpt lat="47.30606" lon="6.05564">
        <ele>383.22</ele>
        <time>2018-09-22T16:11:33Z</time>
      </trkpt>
      <trkpt lat="47.30601" lon="6.05571">
        <ele>383.22</ele>
        <time>2018-09-22T16:11:34Z</time>
      </trkpt>
      <trkpt lat="47.30597" lon="6.05578">
        <ele>383.22</ele>
        <time>2018-09-22T16:11:35Z</time>
      </trkpt>
      <trkpt lat="47.30593" lon="6.05583">
        <ele>383.7</ele>
        <time>2018-09-22T16:11:36Z</time>
      </trkpt>
      <trkpt lat="47.30587" lon="6.05585">
        <ele>383.7</ele>
        <time>2018-09-22T16:11:37Z</time>
      </trkpt>
      <trkpt lat="47.30582" lon="6.05585">
        <ele>383.7</ele>
        <time>2018-09-22T16:11:38Z</time>
      </trkpt>
      <trkpt lat="47.30576" lon="6.05584">
        <ele>384.18</ele>
        <time>2018-09-22T16:11:39Z</time>
      </trkpt>
      <trkpt lat="47.30571" lon="6.05584">
        <ele>384.66</ele>
        <time>2018-09-22T16:11:40Z</time>
      </trkpt>
      <trkpt lat="47.30566" lon="6.05584">
        <ele>385.15</ele>
        <time>2018-09-22T16:11:41Z</time>
      </trkpt>
      <trkpt lat="47.30561" lon="6.05584">
        <ele>385.15</ele>
        <time>2018-09-22T16:11:42Z</time>
      </trkpt>
      <trkpt lat="47.30539" lon="6.05581">
        <ele>386.59</ele>
        <time>2018-09-22T16:11:48Z</time>
      </trkpt>
      <trkpt lat="47.30538" lon="6.05581">
        <ele>386.59</ele>
        <time>2018-09-22T16:11:49Z</time>
      </trkpt>
      <trkpt lat="47.30518" lon="6.05574">
        <ele>389.47</ele>
        <time>2018-09-22T16:11:59Z</time>
      </trkpt>
      <trkpt lat="47.30505" lon="6.05577">
        <ele>389.47</ele>
        <time>2018-09-22T16:12:04Z</time>
      </trkpt>
      <trkpt lat="47.30501" lon="6.0558">
        <ele>389.47</ele>
        <time>2018-09-22T16:12:05Z</time>
      </trkpt>
      <trkpt lat="47.30497" lon="6.05584">
        <ele>388.99</ele>
        <time>2018-09-22T16:12:06Z</time>
      </trkpt>
      <trkpt lat="47.30493" lon="6.05588">
        <ele>388.51</ele>
        <time>2018-09-22T16:12:07Z</time>
      </trkpt>
      <trkpt lat="47.30488" lon="6.05591">
        <ele>388.03</ele>
        <time>2018-09-22T16:12:08Z</time>
      </trkpt>
      <trkpt lat="47.30483" lon="6.05592">
        <ele>388.03</ele>
        <time>2018-09-22T16:12:09Z</time>
      </trkpt>
      <trkpt lat="47.30479" lon="6.05592">
        <ele>388.03</ele>
        <time>2018-09-22T16:12:10Z</time>
      </trkpt>
      <trkpt lat="47.30474" lon="6.05593">
        <ele>387.55</ele>
        <time>2018-09-22T16:12:11Z</time>
      </trkpt>
      <trkpt lat="47.30465" lon="6.05593">
        <ele>387.55</ele>
        <time>2018-09-22T16:12:13Z</time>
      </trkpt>
      <trkpt lat="47.3046" lon="6.05592">
        <ele>387.07</ele>
        <time>2018-09-22T16:12:14Z</time>
      </trkpt>
      <trkpt lat="47.30455" lon="6.05591">
        <ele>387.07</ele>
        <time>2018-09-22T16:12:15Z</time>
      </trkpt>
      <trkpt lat="47.30439" lon="6.0559">
        <ele>386.11</ele>
        <time>2018-09-22T16:12:18Z</time>
      </trkpt>
      <trkpt lat="47.30433" lon="6.05592">
        <ele>385.63</ele>
        <time>2018-09-22T16:12:19Z</time>
      </trkpt>
      <trkpt lat="47.30426" lon="6.05596">
        <ele>384.66</ele>
        <time>2018-09-22T16:12:20Z</time>
      </trkpt>
      <trkpt lat="47.3042" lon="6.05603">
        <ele>383.7</ele>
        <time>2018-09-22T16:12:21Z</time>
      </trkpt>
      <trkpt lat="47.30415" lon="6.05612">
        <ele>382.26</ele>
        <time>2018-09-22T16:12:22Z</time>
      </trkpt>
      <trkpt lat="47.30409" lon="6.05622">
        <ele>381.3</ele>
        <time>2018-09-22T16:12:23Z</time>
      </trkpt>
      <trkpt lat="47.30403" lon="6.0563">
        <ele>379.86</ele>
        <time>2018-09-22T16:12:24Z</time>
      </trkpt>
      <trkpt lat="47.30395" lon="6.05637">
        <ele>378.9</ele>
        <time>2018-09-22T16:12:25Z</time>
      </trkpt>
      <trkpt lat="47.30387" lon="6.05642">
        <ele>377.94</ele>
        <time>2018-09-22T16:12:26Z</time>
      </trkpt>
      <trkpt lat="47.30378" lon="6.05645">
        <ele>376.97</ele>
        <time>2018-09-22T16:12:27Z</time>
      </trkpt>
      <trkpt lat="47.30335" lon="6.05665">
        <ele>376.01</ele>
        <time>2018-09-22T16:12:32Z</time>
      </trkpt>
      <trkpt lat="47.30328" lon="6.05666">
        <ele>375.53</ele>
        <time>2018-09-22T16:12:33Z</time>
      </trkpt>
      <trkpt lat="47.30268" lon="6.05672">
        <ele>373.13</ele>
        <time>2018-09-22T16:12:40Z</time>
      </trkpt>
      <trkpt lat="47.3026" lon="6.05672">
        <ele>372.65</ele>
        <time>2018-09-22T16:12:41Z</time>
      </trkpt>
      <trkpt lat="47.30252" lon="6.0567">
        <ele>372.65</ele>
        <time>2018-09-22T16:12:42Z</time>
      </trkpt>
      <trkpt lat="47.30246" lon="6.05666">
        <ele>372.17</ele>
        <time>2018-09-22T16:12:43Z</time>
      </trkpt>
      <trkpt lat="47.30239" lon="6.0566">
        <ele>372.17</ele>
        <time>2018-09-22T16:12:44Z</time>
      </trkpt>
      <trkpt lat="47.30233" lon="6.05654">
        <ele>372.17</ele>
        <time>2018-09-22T16:12:45Z</time>
      </trkpt>
      <trkpt lat="47.30227" lon="6.05648">
        <ele>371.69</ele>
        <time>2018-09-22T16:12:46Z</time>
      </trkpt>
      <trkpt lat="47.30221" lon="6.05642">
        <ele>371.69</ele>
        <time>2018-09-22T16:12:47Z</time>
      </trkpt>
      <trkpt lat="47.3019" lon="6.05607">
        <ele>372.17</ele>
        <time>2018-09-22T16:12:53Z</time>
      </trkpt>
      <trkpt lat="47.30166" lon="6.05587">
        <ele>372.17</ele>
        <time>2018-09-22T16:12:58Z</time>
      </trkpt>
      <trkpt lat="47.30162" lon="6.05585">
        <ele>372.17</ele>
        <time>2018-09-22T16:12:59Z</time>
      </trkpt>
      <trkpt lat="47.3012" lon="6.05542">
        <ele>370.24</ele>
        <time>2018-09-22T16:13:07Z</time>
      </trkpt>
      <trkpt lat="47.30109" lon="6.05533">
        <ele>369.28</ele>
        <time>2018-09-22T16:13:09Z</time>
      </trkpt>
      <trkpt lat="47.30098" lon="6.05525">
        <ele>369.28</ele>
        <time>2018-09-22T16:13:11Z</time>
      </trkpt>
      <trkpt lat="47.30092" lon="6.05521">
        <ele>368.8</ele>
        <time>2018-09-22T16:13:12Z</time>
      </trkpt>
      <trkpt lat="47.30087" lon="6.05519">
        <ele>368.32</ele>
        <time>2018-09-22T16:13:13Z</time>
      </trkpt>
      <trkpt lat="47.30081" lon="6.05516">
        <ele>368.32</ele>
        <time>2018-09-22T16:13:14Z</time>
      </trkpt>
      <trkpt lat="47.30076" lon="6.05513">
        <ele>367.84</ele>
        <time>2018-09-22T16:13:15Z</time>
      </trkpt>
      <trkpt lat="47.30069" lon="6.05508">
        <ele>366.88</ele>
        <time>2018-09-22T16:13:16Z</time>
      </trkpt>
      <trkpt lat="47.30063" lon="6.05503">
        <ele>366.88</ele>
        <time>2018-09-22T16:13:17Z</time>
      </trkpt>
      <trkpt lat="47.30056" lon="6.05497">
        <ele>365.92</ele>
        <time>2018-09-22T16:13:18Z</time>
      </trkpt>
      <trkpt lat="47.3005" lon="6.0549">
        <ele>365.92</ele>
        <time>2018-09-22T16:13:19Z</time>
      </trkpt>
      <trkpt lat="47.30021" lon="6.05453">
        <ele>364</ele>
        <time>2018-09-22T16:13:24Z</time>
      </trkpt>
      <trkpt lat="47.30016" lon="6.05446">
        <ele>363.52</ele>
        <time>2018-09-22T16:13:25Z</time>
      </trkpt>
      <trkpt lat="47.3001" lon="6.0544">
        <ele>363.04</ele>
        <time>2018-09-22T16:13:26Z</time>
      </trkpt>
      <trkpt lat="47.30003" lon="6.05434">
        <ele>362.55</ele>
        <time>2018-09-22T16:13:27Z</time>
      </trkpt>
      <trkpt lat="47.29995" lon="6.05429">
        <ele>362.07</ele>
        <time>2018-09-22T16:13:28Z</time>
      </trkpt>
      <trkpt lat="47.29957" lon="6.05405">
        <ele>358.71</ele>
        <time>2018-09-22T16:13:33Z</time>
      </trkpt>
      <trkpt lat="47.29904" lon="6.05368">
        <ele>355.34</ele>
        <time>2018-09-22T16:13:40Z</time>
      </trkpt>
      <trkpt lat="47.29862" lon="6.05338">
        <ele>354.38</ele>
        <time>2018-09-22T16:13:48Z</time>
      </trkpt>
      <trkpt lat="47.29859" lon="6.05336">
        <ele>354.38</ele>
        <time>2018-09-22T16:13:50Z</time>
      </trkpt>
      <trkpt lat="47.29857" lon="6.05335">
        <ele>353.9</ele>
        <time>2018-09-22T16:13:51Z</time>
      </trkpt>
      <trkpt lat="47.29855" lon="6.05334">
        <ele>353.42</ele>
        <time>2018-09-22T16:13:52Z</time>
      </trkpt>
      <trkpt lat="47.29842" lon="6.05319">
        <ele>351.5</ele>
        <time>2018-09-22T16:13:57Z</time>
      </trkpt>
      <trkpt lat="47.29831" lon="6.05306">
        <ele>350.54</ele>
        <time>2018-09-22T16:14:00Z</time>
      </trkpt>
      <trkpt lat="47.29814" lon="6.05292">
        <ele>350.06</ele>
        <time>2018-09-22T16:14:03Z</time>
      </trkpt>
      <trkpt lat="47.29807" lon="6.05288">
        <ele>349.58</ele>
        <time>2018-09-22T16:14:04Z</time>
      </trkpt>
      <trkpt lat="47.29801" lon="6.05283">
        <ele>349.58</ele>
        <time>2018-09-22T16:14:05Z</time>
      </trkpt>
      <trkpt lat="47.2979" lon="6.05275">
        <ele>349.1</ele>
        <time>2018-09-22T16:14:07Z</time>
      </trkpt>
      <trkpt lat="47.29784" lon="6.0527">
        <ele>348.62</ele>
        <time>2018-09-22T16:14:08Z</time>
      </trkpt>
      <trkpt lat="47.29758" lon="6.05257">
        <ele>347.65</ele>
        <time>2018-09-22T16:14:11Z</time>
      </trkpt>
      <trkpt lat="47.29751" lon="6.0525">
        <ele>347.17</ele>
        <time>2018-09-22T16:14:12Z</time>
      </trkpt>
      <trkpt lat="47.29724" lon="6.05227">
        <ele>344.77</ele>
        <time>2018-09-22T16:14:16Z</time>
      </trkpt>
      <trkpt lat="47.29717" lon="6.05224">
        <ele>344.77</ele>
        <time>2018-09-22T16:14:17Z</time>
      </trkpt>
      <trkpt lat="47.29695" lon="6.05214">
        <ele>343.33</ele>
        <time>2018-09-22T16:14:20Z</time>
      </trkpt>
      <trkpt lat="47.29648" lon="6.05189">
        <ele>343.33</ele>
        <time>2018-09-22T16:14:28Z</time>
      </trkpt>
      <trkpt lat="47.29643" lon="6.05185">
        <ele>342.85</ele>
        <time>2018-09-22T16:14:29Z</time>
      </trkpt>
      <trkpt lat="47.2962" lon="6.05168">
        <ele>341.89</ele>
        <time>2018-09-22T16:14:33Z</time>
      </trkpt>
      <trkpt lat="47.29581" lon="6.05128">
        <ele>340.44</ele>
        <time>2018-09-22T16:14:40Z</time>
      </trkpt>
      <trkpt lat="47.29559" lon="6.05113">
        <ele>341.89</ele>
        <time>2018-09-22T16:14:44Z</time>
      </trkpt>
      <trkpt lat="47.29555" lon="6.0511">
        <ele>341.89</ele>
        <time>2018-09-22T16:14:45Z</time>
      </trkpt>
      <trkpt lat="47.29518" lon="6.05089">
        <ele>345.25</ele>
        <time>2018-09-22T16:14:55Z</time>
      </trkpt>
      <trkpt lat="47.29507" lon="6.05082">
        <ele>345.25</ele>
        <time>2018-09-22T16:14:58Z</time>
      </trkpt>
      <trkpt lat="47.29504" lon="6.05078">
        <ele>344.77</ele>
        <time>2018-09-22T16:14:59Z</time>
      </trkpt>
      <trkpt lat="47.29493" lon="6.05067">
        <ele>344.77</ele>
        <time>2018-09-22T16:15:02Z</time>
      </trkpt>
      <trkpt lat="47.29482" lon="6.05057">
        <ele>344.29</ele>
        <time>2018-09-22T16:15:05Z</time>
      </trkpt>
      <trkpt lat="47.29477" lon="6.05054">
        <ele>344.29</ele>
        <time>2018-09-22T16:15:06Z</time>
      </trkpt>
      <trkpt lat="47.29474" lon="6.05052">
        <ele>344.29</ele>
        <time>2018-09-22T16:15:07Z</time>
      </trkpt>
      <trkpt lat="47.2947" lon="6.0505">
        <ele>344.29</ele>
        <time>2018-09-22T16:15:08Z</time>
      </trkpt>
      <trkpt lat="47.29467" lon="6.0505">
        <ele>344.29</ele>
        <time>2018-09-22T16:15:09Z</time>
      </trkpt>
      <trkpt lat="47.29462" lon="6.0505">
        <ele>344.29</ele>
        <time>2018-09-22T16:15:10Z</time>
      </trkpt>
      <trkpt lat="47.29456" lon="6.0505">
        <ele>344.29</ele>
        <time>2018-09-22T16:15:11Z</time>
      </trkpt>
      <trkpt lat="47.29452" lon="6.05051">
        <ele>344.29</ele>
        <time>2018-09-22T16:15:12Z</time>
      </trkpt>
      <trkpt lat="47.29447" lon="6.05052">
        <ele>344.29</ele>
        <time>2018-09-22T16:15:13Z</time>
      </trkpt>
      <trkpt lat="47.29412" lon="6.0506">
        <ele>344.77</ele>
        <time>2018-09-22T16:15:20Z</time>
      </trkpt>
      <trkpt lat="47.29388" lon="6.05066">
        <ele>346.69</ele>
        <time>2018-09-22T16:15:26Z</time>
      </trkpt>
      <trkpt lat="47.29356" lon="6.05062">
        <ele>347.17</ele>
        <time>2018-09-22T16:15:36Z</time>
      </trkpt>
      <trkpt lat="47.29325" lon="6.05079">
        <ele>349.58</ele>
        <time>2018-09-22T16:15:45Z</time>
      </trkpt>
      <trkpt lat="47.29297" lon="6.05107">
        <ele>351.02</ele>
        <time>2018-09-22T16:15:54Z</time>
      </trkpt>
      <trkpt lat="47.29292" lon="6.05111">
        <ele>349.58</ele>
        <time>2018-09-22T16:15:55Z</time>
      </trkpt>
      <trkpt lat="47.29286" lon="6.05116">
        <ele>351.02</ele>
        <time>2018-09-22T16:15:56Z</time>
      </trkpt>
      <trkpt lat="47.29279" lon="6.05121">
        <ele>348.62</ele>
        <time>2018-09-22T16:15:57Z</time>
      </trkpt>
      <trkpt lat="47.29274" lon="6.05126">
        <ele>348.62</ele>
        <time>2018-09-22T16:15:58Z</time>
      </trkpt>
      <trkpt lat="47.29269" lon="6.05132">
        <ele>348.13</ele>
        <time>2018-09-22T16:15:59Z</time>
      </trkpt>
      <trkpt lat="47.29264" lon="6.05138">
        <ele>347.17</ele>
        <time>2018-09-22T16:16:00Z</time>
      </trkpt>
      <trkpt lat="47.29239" lon="6.05171">
        <ele>343.81</ele>
        <time>2018-09-22T16:16:04Z</time>
      </trkpt>
      <trkpt lat="47.29232" lon="6.05181">
        <ele>342.85</ele>
        <time>2018-09-22T16:16:05Z</time>
      </trkpt>
      <trkpt lat="47.29225" lon="6.0519">
        <ele>342.37</ele>
        <time>2018-09-22T16:16:06Z</time>
      </trkpt>
      <trkpt lat="47.29209" lon="6.05207">
        <ele>340.92</ele>
        <time>2018-09-22T16:16:08Z</time>
      </trkpt>
      <trkpt lat="47.292" lon="6.05215">
        <ele>339.96</ele>
        <time>2018-09-22T16:16:09Z</time>
      </trkpt>
      <trkpt lat="47.29191" lon="6.05222">
        <ele>339</ele>
        <time>2018-09-22T16:16:10Z</time>
      </trkpt>
      <trkpt lat="47.29153" lon="6.05251">
        <ele>335.16</ele>
        <time>2018-09-22T16:16:14Z</time>
      </trkpt>
      <trkpt lat="47.29143" lon="6.05259">
        <ele>334.2</ele>
        <time>2018-09-22T16:16:15Z</time>
      </trkpt>
      <trkpt lat="47.29111" lon="6.05281">
        <ele>331.31</ele>
        <time>2018-09-22T16:16:18Z</time>
      </trkpt>
      <trkpt lat="47.291" lon="6.0529">
        <ele>329.87</ele>
        <time>2018-09-22T16:16:19Z</time>
      </trkpt>
      <trkpt lat="47.29071" lon="6.05318">
        <ele>326.02</ele>
        <time>2018-09-22T16:16:22Z</time>
      </trkpt>
      <trkpt lat="47.29061" lon="6.05328">
        <ele>324.1</ele>
        <time>2018-09-22T16:16:23Z</time>
      </trkpt>
      <trkpt lat="47.29052" lon="6.05338">
        <ele>323.14</ele>
        <time>2018-09-22T16:16:24Z</time>
      </trkpt>
      <trkpt lat="47.29042" lon="6.0535">
        <ele>323.14</ele>
        <time>2018-09-22T16:16:25Z</time>
      </trkpt>
      <trkpt lat="47.29033" lon="6.05359">
        <ele>323.14</ele>
        <time>2018-09-22T16:16:26Z</time>
      </trkpt>
      <trkpt lat="47.29024" lon="6.05365">
        <ele>323.14</ele>
        <time>2018-09-22T16:16:27Z</time>
      </trkpt>
      <trkpt lat="47.29015" lon="6.05368">
        <ele>323.14</ele>
        <time>2018-09-22T16:16:28Z</time>
      </trkpt>
      <trkpt lat="47.29006" lon="6.05367">
        <ele>323.62</ele>
        <time>2018-09-22T16:16:29Z</time>
      </trkpt>
      <trkpt lat="47.28997" lon="6.05364">
        <ele>323.14</ele>
        <time>2018-09-22T16:16:30Z</time>
      </trkpt>
      <trkpt lat="47.28988" lon="6.05361">
        <ele>323.14</ele>
        <time>2018-09-22T16:16:31Z</time>
      </trkpt>
      <trkpt lat="47.2898" lon="6.05356">
        <ele>323.14</ele>
        <time>2018-09-22T16:16:32Z</time>
      </trkpt>
      <trkpt lat="47.28939" lon="6.05342">
        <ele>321.7</ele>
        <time>2018-09-22T16:16:37Z</time>
      </trkpt>
      <trkpt lat="47.28914" lon="6.05342">
        <ele>320.74</ele>
        <time>2018-09-22T16:16:40Z</time>
      </trkpt>
      <trkpt lat="47.28851" lon="6.05355">
        <ele>320.26</ele>
        <time>2018-09-22T16:16:48Z</time>
      </trkpt>
      <trkpt lat="47.28845" lon="6.05358">
        <ele>320.26</ele>
        <time>2018-09-22T16:16:49Z</time>
      </trkpt>
      <trkpt lat="47.28799" lon="6.05393">
        <ele>322.66</ele>
        <time>2018-09-22T16:17:00Z</time>
      </trkpt>
      <trkpt lat="47.28769" lon="6.05419">
        <ele>323.62</ele>
        <time>2018-09-22T16:17:09Z</time>
      </trkpt>
      <trkpt lat="47.28765" lon="6.05422">
        <ele>323.62</ele>
        <time>2018-09-22T16:17:10Z</time>
      </trkpt>
      <trkpt lat="47.28752" lon="6.05433">
        <ele>327.95</ele>
        <time>2018-09-22T16:17:14Z</time>
      </trkpt>
      <trkpt lat="47.28744" lon="6.05439">
        <ele>324.58</ele>
        <time>2018-09-22T16:17:16Z</time>
      </trkpt>
      <trkpt lat="47.28738" lon="6.05444">
        <ele>324.58</ele>
        <time>2018-09-22T16:17:18Z</time>
      </trkpt>
      <trkpt lat="47.28734" lon="6.05448">
        <ele>324.58</ele>
        <time>2018-09-22T16:17:19Z</time>
      </trkpt>
      <trkpt lat="47.2873" lon="6.05452">
        <ele>324.58</ele>
        <time>2018-09-22T16:17:20Z</time>
      </trkpt>
      <trkpt lat="47.28719" lon="6.0546">
        <ele>325.06</ele>
        <time>2018-09-22T16:17:23Z</time>
      </trkpt>
      <trkpt lat="47.28714" lon="6.05462">
        <ele>325.06</ele>
        <time>2018-09-22T16:17:24Z</time>
      </trkpt>
      <trkpt lat="47.2871" lon="6.05463">
        <ele>325.06</ele>
        <time>2018-09-22T16:17:25Z</time>
      </trkpt>
      <trkpt lat="47.28706" lon="6.05464">
        <ele>325.54</ele>
        <time>2018-09-22T16:17:26Z</time>
      </trkpt>
      <trkpt lat="47.28702" lon="6.05465">
        <ele>325.06</ele>
        <time>2018-09-22T16:17:27Z</time>
      </trkpt>
      <trkpt lat="47.28697" lon="6.05466">
        <ele>326.02</ele>
        <time>2018-09-22T16:17:28Z</time>
      </trkpt>
      <trkpt lat="47.28693" lon="6.05467">
        <ele>326.02</ele>
        <time>2018-09-22T16:17:29Z</time>
      </trkpt>
      <trkpt lat="47.28672" lon="6.05494">
        <ele>328.91</ele>
        <time>2018-09-22T16:17:38Z</time>
      </trkpt>
      <trkpt lat="47.28652" lon="6.05529">
        <ele>330.83</ele>
        <time>2018-09-22T16:17:48Z</time>
      </trkpt>
      <trkpt lat="47.28648" lon="6.05535">
        <ele>331.31</ele>
        <time>2018-09-22T16:17:50Z</time>
      </trkpt>
      <trkpt lat="47.28647" lon="6.0554">
        <ele>331.31</ele>
        <time>2018-09-22T16:17:51Z</time>
      </trkpt>
      <trkpt lat="47.28645" lon="6.05544">
        <ele>331.79</ele>
        <time>2018-09-22T16:17:52Z</time>
      </trkpt>
      <trkpt lat="47.28628" lon="6.05606">
        <ele>333.23</ele>
        <time>2018-09-22T16:18:03Z</time>
      </trkpt>
      <trkpt lat="47.28604" lon="6.05651">
        <ele>334.2</ele>
        <time>2018-09-22T16:18:13Z</time>
      </trkpt>
      <trkpt lat="47.28571" lon="6.05677">
        <ele>336.12</ele>
        <time>2018-09-22T16:18:23Z</time>
      </trkpt>
      <trkpt lat="47.28554" lon="6.05695">
        <ele>338.52</ele>
        <time>2018-09-22T16:18:29Z</time>
      </trkpt>
      <trkpt lat="47.28509" lon="6.05728">
        <ele>339.96</ele>
        <time>2018-09-22T16:18:41Z</time>
      </trkpt>
      <trkpt lat="47.28496" lon="6.05745">
        <ele>339.48</ele>
        <time>2018-09-22T16:18:45Z</time>
      </trkpt>
      <trkpt lat="47.28488" lon="6.05755">
        <ele>339</ele>
        <time>2018-09-22T16:18:47Z</time>
      </trkpt>
      <trkpt lat="47.28483" lon="6.05759">
        <ele>338.52</ele>
        <time>2018-09-22T16:18:48Z</time>
      </trkpt>
      <trkpt lat="47.28461" lon="6.05774">
        <ele>337.08</ele>
        <time>2018-09-22T16:18:52Z</time>
      </trkpt>
      <trkpt lat="47.28435" lon="6.05792">
        <ele>337.08</ele>
        <time>2018-09-22T16:18:57Z</time>
      </trkpt>
      <trkpt lat="47.28404" lon="6.05821">
        <ele>339.48</ele>
        <time>2018-09-22T16:19:07Z</time>
      </trkpt>
      <trkpt lat="47.28376" lon="6.05847">
        <ele>340.44</ele>
        <time>2018-09-22T16:19:17Z</time>
      </trkpt>
      <trkpt lat="47.28337" lon="6.05853">
        <ele>341.41</ele>
        <time>2018-09-22T16:19:26Z</time>
      </trkpt>
      <trkpt lat="47.28308" lon="6.05851">
        <ele>341.89</ele>
        <time>2018-09-22T16:19:34Z</time>
      </trkpt>
      <trkpt lat="47.28259" lon="6.05848">
        <ele>341.89</ele>
        <time>2018-09-22T16:19:44Z</time>
      </trkpt>
      <trkpt lat="47.28249" lon="6.0585">
        <ele>341.89</ele>
        <time>2018-09-22T16:19:46Z</time>
      </trkpt>
      <trkpt lat="47.28239" lon="6.05853">
        <ele>341.89</ele>
        <time>2018-09-22T16:19:48Z</time>
      </trkpt>
      <trkpt lat="47.28206" lon="6.05864">
        <ele>341.41</ele>
        <time>2018-09-22T16:19:55Z</time>
      </trkpt>
      <trkpt lat="47.28202" lon="6.05865">
        <ele>341.89</ele>
        <time>2018-09-22T16:19:56Z</time>
      </trkpt>
      <trkpt lat="47.28198" lon="6.05866">
        <ele>341.89</ele>
        <time>2018-09-22T16:19:57Z</time>
      </trkpt>
      <trkpt lat="47.28177" lon="6.05868">
        <ele>341.89</ele>
        <time>2018-09-22T16:20:01Z</time>
      </trkpt>
      <trkpt lat="47.28173" lon="6.05868">
        <ele>341.89</ele>
        <time>2018-09-22T16:20:02Z</time>
      </trkpt>
      <trkpt lat="47.28168" lon="6.05867">
        <ele>341.89</ele>
        <time>2018-09-22T16:20:03Z</time>
      </trkpt>
      <trkpt lat="47.28125" lon="6.0586">
        <ele>342.85</ele>
        <time>2018-09-22T16:20:12Z</time>
      </trkpt>
      <trkpt lat="47.28116" lon="6.05858">
        <ele>342.37</ele>
        <time>2018-09-22T16:20:14Z</time>
      </trkpt>
      <trkpt lat="47.28113" lon="6.05855">
        <ele>342.37</ele>
        <time>2018-09-22T16:20:15Z</time>
      </trkpt>
      <trkpt lat="47.28109" lon="6.05852">
        <ele>341.89</ele>
        <time>2018-09-22T16:20:16Z</time>
      </trkpt>
      <trkpt lat="47.281" lon="6.05844">
        <ele>341.41</ele>
        <time>2018-09-22T16:20:18Z</time>
      </trkpt>
      <trkpt lat="47.28096" lon="6.05838">
        <ele>341.89</ele>
        <time>2018-09-22T16:20:19Z</time>
      </trkpt>
      <trkpt lat="47.28094" lon="6.05832">
        <ele>341.89</ele>
        <time>2018-09-22T16:20:20Z</time>
      </trkpt>
      <trkpt lat="47.28081" lon="6.05801">
        <ele>341.89</ele>
        <time>2018-09-22T16:20:25Z</time>
      </trkpt>
      <trkpt lat="47.28075" lon="6.05789">
        <ele>341.89</ele>
        <time>2018-09-22T16:20:27Z</time>
      </trkpt>
      <trkpt lat="47.28073" lon="6.05782">
        <ele>341.89</ele>
        <time>2018-09-22T16:20:28Z</time>
      </trkpt>
      <trkpt lat="47.28063" lon="6.05764">
        <ele>341.89</ele>
        <time>2018-09-22T16:20:31Z</time>
      </trkpt>
      <trkpt lat="47.2805" lon="6.05751">
        <ele>341.41</ele>
        <time>2018-09-22T16:20:34Z</time>
      </trkpt>
      <trkpt lat="47.28045" lon="6.05747">
        <ele>341.41</ele>
        <time>2018-09-22T16:20:35Z</time>
      </trkpt>
      <trkpt lat="47.28028" lon="6.05738">
        <ele>340.44</ele>
        <time>2018-09-22T16:20:38Z</time>
      </trkpt>
      <trkpt lat="47.28018" lon="6.05729">
        <ele>339.96</ele>
        <time>2018-09-22T16:20:40Z</time>
      </trkpt>
      <trkpt lat="47.28007" lon="6.05717">
        <ele>339.48</ele>
        <time>2018-09-22T16:20:42Z</time>
      </trkpt>
      <trkpt lat="47.28001" lon="6.05711">
        <ele>339.48</ele>
        <time>2018-09-22T16:20:43Z</time>
      </trkpt>
      <trkpt lat="47.27996" lon="6.05706">
        <ele>339.48</ele>
        <time>2018-09-22T16:20:44Z</time>
      </trkpt>
      <trkpt lat="47.27972" lon="6.0568">
        <ele>338.52</ele>
        <time>2018-09-22T16:20:49Z</time>
      </trkpt>
      <trkpt lat="47.27966" lon="6.05676">
        <ele>338.04</ele>
        <time>2018-09-22T16:20:50Z</time>
      </trkpt>
      <trkpt lat="47.27961" lon="6.05671">
        <ele>337.56</ele>
        <time>2018-09-22T16:20:51Z</time>
      </trkpt>
      <trkpt lat="47.27939" lon="6.05647">
        <ele>337.08</ele>
        <time>2018-09-22T16:20:55Z</time>
      </trkpt>
      <trkpt lat="47.27929" lon="6.05632">
        <ele>336.6</ele>
        <time>2018-09-22T16:20:57Z</time>
      </trkpt>
      <trkpt lat="47.27925" lon="6.05624">
        <ele>336.6</ele>
        <time>2018-09-22T16:20:58Z</time>
      </trkpt>
      <trkpt lat="47.27922" lon="6.05616">
        <ele>336.6</ele>
        <time>2018-09-22T16:20:59Z</time>
      </trkpt>
      <trkpt lat="47.2792" lon="6.05608">
        <ele>336.6</ele>
        <time>2018-09-22T16:21:00Z</time>
      </trkpt>
      <trkpt lat="47.27918" lon="6.056">
        <ele>337.08</ele>
        <time>2018-09-22T16:21:01Z</time>
      </trkpt>
      <trkpt lat="47.27915" lon="6.05593">
        <ele>337.08</ele>
        <time>2018-09-22T16:21:02Z</time>
      </trkpt>
      <trkpt lat="47.27908" lon="6.05581">
        <ele>336.6</ele>
        <time>2018-09-22T16:21:04Z</time>
      </trkpt>
      <trkpt lat="47.27903" lon="6.05575">
        <ele>336.6</ele>
        <time>2018-09-22T16:21:05Z</time>
      </trkpt>
      <trkpt lat="47.27895" lon="6.05563">
        <ele>336.12</ele>
        <time>2018-09-22T16:21:07Z</time>
      </trkpt>
      <trkpt lat="47.27891" lon="6.05555">
        <ele>336.12</ele>
        <time>2018-09-22T16:21:08Z</time>
      </trkpt>
      <trkpt lat="47.27889" lon="6.05546">
        <ele>335.64</ele>
        <time>2018-09-22T16:21:09Z</time>
      </trkpt>
      <trkpt lat="47.27887" lon="6.05537">
        <ele>335.16</ele>
        <time>2018-09-22T16:21:10Z</time>
      </trkpt>
      <trkpt lat="47.27886" lon="6.05527">
        <ele>334.68</ele>
        <time>2018-09-22T16:21:11Z</time>
      </trkpt>
      <trkpt lat="47.27887" lon="6.05518">
        <ele>334.68</ele>
        <time>2018-09-22T16:21:12Z</time>
      </trkpt>
      <trkpt lat="47.27888" lon="6.05509">
        <ele>335.16</ele>
        <time>2018-09-22T16:21:13Z</time>
      </trkpt>
      <trkpt lat="47.27889" lon="6.05502">
        <ele>335.16</ele>
        <time>2018-09-22T16:21:14Z</time>
      </trkpt>
      <trkpt lat="47.27889" lon="6.05496">
        <ele>335.64</ele>
        <time>2018-09-22T16:21:15Z</time>
      </trkpt>
      <trkpt lat="47.2789" lon="6.05491">
        <ele>335.64</ele>
        <time>2018-09-22T16:21:16Z</time>
      </trkpt>
      <trkpt lat="47.27886" lon="6.05483">
        <ele>335.64</ele>
        <time>2018-09-22T16:21:18Z</time>
      </trkpt>
      <trkpt lat="47.2788" lon="6.0548">
        <ele>335.16</ele>
        <time>2018-09-22T16:21:19Z</time>
      </trkpt>
      <trkpt lat="47.27874" lon="6.05477">
        <ele>334.68</ele>
        <time>2018-09-22T16:21:20Z</time>
      </trkpt>
      <trkpt lat="47.27868" lon="6.05473">
        <ele>334.68</ele>
        <time>2018-09-22T16:21:21Z</time>
      </trkpt>
      <trkpt lat="47.27864" lon="6.05467">
        <ele>334.68</ele>
        <time>2018-09-22T16:21:22Z</time>
      </trkpt>
      <trkpt lat="47.2786" lon="6.05459">
        <ele>334.2</ele>
        <time>2018-09-22T16:21:23Z</time>
      </trkpt>
      <trkpt lat="47.27857" lon="6.05449">
        <ele>332.75</ele>
        <time>2018-09-22T16:21:24Z</time>
      </trkpt>
      <trkpt lat="47.27854" lon="6.05437">
        <ele>332.27</ele>
        <time>2018-09-22T16:21:25Z</time>
      </trkpt>
      <trkpt lat="47.27852" lon="6.05425">
        <ele>332.27</ele>
        <time>2018-09-22T16:21:26Z</time>
      </trkpt>
      <trkpt lat="47.27851" lon="6.05415">
        <ele>334.2</ele>
        <time>2018-09-22T16:21:27Z</time>
      </trkpt>
      <trkpt lat="47.27848" lon="6.0541">
        <ele>337.56</ele>
        <time>2018-09-22T16:21:28Z</time>
      </trkpt>
      <trkpt lat="47.27847" lon="6.05406">
        <ele>339</ele>
        <time>2018-09-22T16:21:30Z</time>
      </trkpt>
      <trkpt lat="47.27845" lon="6.054">
        <ele>339.48</ele>
        <time>2018-09-22T16:21:32Z</time>
      </trkpt>
      <trkpt lat="47.27844" lon="6.05385">
        <ele>340.44</ele>
        <time>2018-09-22T16:21:37Z</time>
      </trkpt>
      <trkpt lat="47.27843" lon="6.05382">
        <ele>340.44</ele>
        <time>2018-09-22T16:21:38Z</time>
      </trkpt>
      <trkpt lat="47.27843" lon="6.05379">
        <ele>340.44</ele>
        <time>2018-09-22T16:21:39Z</time>
      </trkpt>
      <trkpt lat="47.27842" lon="6.05375">
        <ele>340.44</ele>
        <time>2018-09-22T16:21:40Z</time>
      </trkpt>
      <trkpt lat="47.27843" lon="6.05373">
        <ele>340.44</ele>
        <time>2018-09-22T16:21:41Z</time>
      </trkpt>
      <trkpt lat="47.27844" lon="6.05371">
        <ele>340.92</ele>
        <time>2018-09-22T16:21:42Z</time>
      </trkpt>
      <trkpt lat="47.27845" lon="6.05368">
        <ele>340.92</ele>
        <time>2018-09-22T16:21:43Z</time>
      </trkpt>
      <trkpt lat="47.27847" lon="6.05352">
        <ele>341.89</ele>
        <time>2018-09-22T16:21:47Z</time>
      </trkpt>
      <trkpt lat="47.27848" lon="6.05348">
        <ele>341.89</ele>
        <time>2018-09-22T16:21:48Z</time>
      </trkpt>
      <trkpt lat="47.27848" lon="6.05344">
        <ele>341.89</ele>
        <time>2018-09-22T16:21:49Z</time>
      </trkpt>
      <trkpt lat="47.27849" lon="6.05341">
        <ele>341.89</ele>
        <time>2018-09-22T16:21:50Z</time>
      </trkpt>
      <trkpt lat="47.2785" lon="6.05338">
        <ele>342.37</ele>
        <time>2018-09-22T16:21:51Z</time>
      </trkpt>
      <trkpt lat="47.27855" lon="6.05318">
        <ele>342.37</ele>
        <time>2018-09-22T16:21:56Z</time>
      </trkpt>
      <trkpt lat="47.27855" lon="6.05314">
        <ele>342.37</ele>
        <time>2018-09-22T16:21:57Z</time>
      </trkpt>
      <trkpt lat="47.27855" lon="6.05311">
        <ele>342.37</ele>
        <time>2018-09-22T16:21:58Z</time>
      </trkpt>
      <trkpt lat="47.27855" lon="6.05308">
        <ele>342.37</ele>
        <time>2018-09-22T16:21:59Z</time>
      </trkpt>
      <trkpt lat="47.27854" lon="6.05304">
        <ele>342.37</ele>
        <time>2018-09-22T16:22:00Z</time>
      </trkpt>
      <trkpt lat="47.27849" lon="6.05262">
        <ele>340.44</ele>
        <time>2018-09-22T16:22:08Z</time>
      </trkpt>
      <trkpt lat="47.2785" lon="6.05255">
        <ele>339.96</ele>
        <time>2018-09-22T16:22:09Z</time>
      </trkpt>
      <trkpt lat="47.27852" lon="6.05248">
        <ele>339</ele>
        <time>2018-09-22T16:22:10Z</time>
      </trkpt>
      <trkpt lat="47.27856" lon="6.05243">
        <ele>338.52</ele>
        <time>2018-09-22T16:22:11Z</time>
      </trkpt>
      <trkpt lat="47.2786" lon="6.05236">
        <ele>338.04</ele>
        <time>2018-09-22T16:22:12Z</time>
      </trkpt>
      <trkpt lat="47.27873" lon="6.05218">
        <ele>338.04</ele>
        <time>2018-09-22T16:22:15Z</time>
      </trkpt>
      <trkpt lat="47.27881" lon="6.0521">
        <ele>339</ele>
        <time>2018-09-22T16:22:17Z</time>
      </trkpt>
      <trkpt lat="47.27883" lon="6.05206">
        <ele>339.48</ele>
        <time>2018-09-22T16:22:18Z</time>
      </trkpt>
      <trkpt lat="47.27885" lon="6.05202">
        <ele>339.96</ele>
        <time>2018-09-22T16:22:19Z</time>
      </trkpt>
      <trkpt lat="47.27886" lon="6.05198">
        <ele>340.44</ele>
        <time>2018-09-22T16:22:20Z</time>
      </trkpt>
      <trkpt lat="47.27886" lon="6.05194">
        <ele>340.44</ele>
        <time>2018-09-22T16:22:21Z</time>
      </trkpt>
      <trkpt lat="47.27885" lon="6.05189">
        <ele>340.92</ele>
        <time>2018-09-22T16:22:22Z</time>
      </trkpt>
      <trkpt lat="47.27883" lon="6.05183">
        <ele>340.44</ele>
        <time>2018-09-22T16:22:23Z</time>
      </trkpt>
      <trkpt lat="47.27875" lon="6.05148">
        <ele>340.44</ele>
        <time>2018-09-22T16:22:28Z</time>
      </trkpt>
      <trkpt lat="47.27873" lon="6.05142">
        <ele>340.44</ele>
        <time>2018-09-22T16:22:29Z</time>
      </trkpt>
      <trkpt lat="47.27871" lon="6.05135">
        <ele>340.92</ele>
        <time>2018-09-22T16:22:30Z</time>
      </trkpt>
      <trkpt lat="47.27852" lon="6.05081">
        <ele>342.37</ele>
        <time>2018-09-22T16:22:40Z</time>
      </trkpt>
      <trkpt lat="47.2785" lon="6.05075">
        <ele>342.37</ele>
        <time>2018-09-22T16:22:41Z</time>
      </trkpt>
      <trkpt lat="47.27842" lon="6.05055">
        <ele>342.85</ele>
        <time>2018-09-22T16:22:45Z</time>
      </trkpt>
      <trkpt lat="47.27818" lon="6.05031">
        <ele>343.33</ele>
        <time>2018-09-22T16:22:52Z</time>
      </trkpt>
      <trkpt lat="47.27814" lon="6.05028">
        <ele>343.33</ele>
        <time>2018-09-22T16:22:53Z</time>
      </trkpt>
      <trkpt lat="47.2781" lon="6.05025">
        <ele>343.33</ele>
        <time>2018-09-22T16:22:54Z</time>
      </trkpt>
      <trkpt lat="47.27807" lon="6.05021">
        <ele>343.33</ele>
        <time>2018-09-22T16:22:55Z</time>
      </trkpt>
      <trkpt lat="47.27805" lon="6.05017">
        <ele>343.33</ele>
        <time>2018-09-22T16:22:56Z</time>
      </trkpt>
      <trkpt lat="47.27804" lon="6.05012">
        <ele>343.33</ele>
        <time>2018-09-22T16:22:57Z</time>
      </trkpt>
      <trkpt lat="47.27802" lon="6.05007">
        <ele>343.33</ele>
        <time>2018-09-22T16:22:58Z</time>
      </trkpt>
      <trkpt lat="47.278" lon="6.05003">
        <ele>343.33</ele>
        <time>2018-09-22T16:22:59Z</time>
      </trkpt>
      <trkpt lat="47.27797" lon="6.04999">
        <ele>342.85</ele>
        <time>2018-09-22T16:23:00Z</time>
      </trkpt>
      <trkpt lat="47.27794" lon="6.04995">
        <ele>342.85</ele>
        <time>2018-09-22T16:23:01Z</time>
      </trkpt>
      <trkpt lat="47.27792" lon="6.04989">
        <ele>342.85</ele>
        <time>2018-09-22T16:23:02Z</time>
      </trkpt>
      <trkpt lat="47.27791" lon="6.04984">
        <ele>342.85</ele>
        <time>2018-09-22T16:23:03Z</time>
      </trkpt>
      <trkpt lat="47.27791" lon="6.04978">
        <ele>342.37</ele>
        <time>2018-09-22T16:23:04Z</time>
      </trkpt>
      <trkpt lat="47.27793" lon="6.04972">
        <ele>341.89</ele>
        <time>2018-09-22T16:23:05Z</time>
      </trkpt>
      <trkpt lat="47.27795" lon="6.04966">
        <ele>341.41</ele>
        <time>2018-09-22T16:23:06Z</time>
      </trkpt>
      <trkpt lat="47.27797" lon="6.04963">
        <ele>340.92</ele>
        <time>2018-09-22T16:23:07Z</time>
      </trkpt>
      <trkpt lat="47.27801" lon="6.04956">
        <ele>340.92</ele>
        <time>2018-09-22T16:23:08Z</time>
      </trkpt>
      <trkpt lat="47.27805" lon="6.04951">
        <ele>341.41</ele>
        <time>2018-09-22T16:23:09Z</time>
      </trkpt>
      <trkpt lat="47.27819" lon="6.04898">
        <ele>342.37</ele>
        <time>2018-09-22T16:23:18Z</time>
      </trkpt>
      <trkpt lat="47.27819" lon="6.04887">
        <ele>342.85</ele>
        <time>2018-09-22T16:23:20Z</time>
      </trkpt>
      <trkpt lat="47.27814" lon="6.04863">
        <ele>343.33</ele>
        <time>2018-09-22T16:23:24Z</time>
      </trkpt>
      <trkpt lat="47.27813" lon="6.04855">
        <ele>342.85</ele>
        <time>2018-09-22T16:23:25Z</time>
      </trkpt>
      <trkpt lat="47.27815" lon="6.04847">
        <ele>341.89</ele>
        <time>2018-09-22T16:23:26Z</time>
      </trkpt>
      <trkpt lat="47.27818" lon="6.04841">
        <ele>341.41</ele>
        <time>2018-09-22T16:23:27Z</time>
      </trkpt>
      <trkpt lat="47.27822" lon="6.04836">
        <ele>341.41</ele>
        <time>2018-09-22T16:23:28Z</time>
      </trkpt>
      <trkpt lat="47.27835" lon="6.04818">
        <ele>345.25</ele>
        <time>2018-09-22T16:23:32Z</time>
      </trkpt>
      <trkpt lat="47.27837" lon="6.04816">
        <ele>345.73</ele>
        <time>2018-09-22T16:23:33Z</time>
      </trkpt>
      <trkpt lat="47.27838" lon="6.04812">
        <ele>346.21</ele>
        <time>2018-09-22T16:23:34Z</time>
      </trkpt>
      <trkpt lat="47.27839" lon="6.04808">
        <ele>346.69</ele>
        <time>2018-09-22T16:23:35Z</time>
      </trkpt>
      <trkpt lat="47.27839" lon="6.04803">
        <ele>346.69</ele>
        <time>2018-09-22T16:23:36Z</time>
      </trkpt>
      <trkpt lat="47.2784" lon="6.04797">
        <ele>346.69</ele>
        <time>2018-09-22T16:23:37Z</time>
      </trkpt>
      <trkpt lat="47.27839" lon="6.04792">
        <ele>347.17</ele>
        <time>2018-09-22T16:23:38Z</time>
      </trkpt>
      <trkpt lat="47.27839" lon="6.04787">
        <ele>347.65</ele>
        <time>2018-09-22T16:23:39Z</time>
      </trkpt>
      <trkpt lat="47.27841" lon="6.04743">
        <ele>350.06</ele>
        <time>2018-09-22T16:23:49Z</time>
      </trkpt>
      <trkpt lat="47.2784" lon="6.0474">
        <ele>350.06</ele>
        <time>2018-09-22T16:23:50Z</time>
      </trkpt>
      <trkpt lat="47.27837" lon="6.04737">
        <ele>351.02</ele>
        <time>2018-09-22T16:23:51Z</time>
      </trkpt>
      <trkpt lat="47.27834" lon="6.04736">
        <ele>351.02</ele>
        <time>2018-09-22T16:23:52Z</time>
      </trkpt>
      <trkpt lat="47.27831" lon="6.04737">
        <ele>351.02</ele>
        <time>2018-09-22T16:23:53Z</time>
      </trkpt>
      <trkpt lat="47.27827" lon="6.04738">
        <ele>351.5</ele>
        <time>2018-09-22T16:23:54Z</time>
      </trkpt>
      <trkpt lat="47.27822" lon="6.04739">
        <ele>351.5</ele>
        <time>2018-09-22T16:23:55Z</time>
      </trkpt>
      <trkpt lat="47.27819" lon="6.0474">
        <ele>351.5</ele>
        <time>2018-09-22T16:23:56Z</time>
      </trkpt>
      <trkpt lat="47.27816" lon="6.04739">
        <ele>351.98</ele>
        <time>2018-09-22T16:23:57Z</time>
      </trkpt>
      <trkpt lat="47.27813" lon="6.04738">
        <ele>351.98</ele>
        <time>2018-09-22T16:23:58Z</time>
      </trkpt>
      <trkpt lat="47.2781" lon="6.04736">
        <ele>351.98</ele>
        <time>2018-09-22T16:23:59Z</time>
      </trkpt>
      <trkpt lat="47.27808" lon="6.04733">
        <ele>351.98</ele>
        <time>2018-09-22T16:24:00Z</time>
      </trkpt>
      <trkpt lat="47.27805" lon="6.0473">
        <ele>351.98</ele>
        <time>2018-09-22T16:24:01Z</time>
      </trkpt>
      <trkpt lat="47.27803" lon="6.04727">
        <ele>351.98</ele>
        <time>2018-09-22T16:24:02Z</time>
      </trkpt>
      <trkpt lat="47.27801" lon="6.04723">
        <ele>351.98</ele>
        <time>2018-09-22T16:24:03Z</time>
      </trkpt>
      <trkpt lat="47.27799" lon="6.0472">
        <ele>351.98</ele>
        <time>2018-09-22T16:24:04Z</time>
      </trkpt>
      <trkpt lat="47.27797" lon="6.04717">
        <ele>351.98</ele>
        <time>2018-09-22T16:24:05Z</time>
      </trkpt>
      <trkpt lat="47.27796" lon="6.04713">
        <ele>351.98</ele>
        <time>2018-09-22T16:24:06Z</time>
      </trkpt>
      <trkpt lat="47.27796" lon="6.04708">
        <ele>351.98</ele>
        <time>2018-09-22T16:24:07Z</time>
      </trkpt>
      <trkpt lat="47.27797" lon="6.04679">
        <ele>351.5</ele>
        <time>2018-09-22T16:24:14Z</time>
      </trkpt>
      <trkpt lat="47.27785" lon="6.04664">
        <ele>351.02</ele>
        <time>2018-09-22T16:24:18Z</time>
      </trkpt>
      <trkpt lat="47.27781" lon="6.04661">
        <ele>351.02</ele>
        <time>2018-09-22T16:24:19Z</time>
      </trkpt>
      <trkpt lat="47.27777" lon="6.04658">
        <ele>351.02</ele>
        <time>2018-09-22T16:24:20Z</time>
      </trkpt>
      <trkpt lat="47.27772" lon="6.04655">
        <ele>351.02</ele>
        <time>2018-09-22T16:24:21Z</time>
      </trkpt>
      <trkpt lat="47.27767" lon="6.04652">
        <ele>351.02</ele>
        <time>2018-09-22T16:24:22Z</time>
      </trkpt>
      <trkpt lat="47.27763" lon="6.04648">
        <ele>351.5</ele>
        <time>2018-09-22T16:24:23Z</time>
      </trkpt>
      <trkpt lat="47.27758" lon="6.04643">
        <ele>351.5</ele>
        <time>2018-09-22T16:24:24Z</time>
      </trkpt>
      <trkpt lat="47.27715" lon="6.04617">
        <ele>351.98</ele>
        <time>2018-09-22T16:24:34Z</time>
      </trkpt>
      <trkpt lat="47.2771" lon="6.04613">
        <ele>351.98</ele>
        <time>2018-09-22T16:24:35Z</time>
      </trkpt>
      <trkpt lat="47.27705" lon="6.04611">
        <ele>351.98</ele>
        <time>2018-09-22T16:24:36Z</time>
      </trkpt>
      <trkpt lat="47.277" lon="6.0461">
        <ele>351.5</ele>
        <time>2018-09-22T16:24:37Z</time>
      </trkpt>
      <trkpt lat="47.2769" lon="6.04605">
        <ele>351.02</ele>
        <time>2018-09-22T16:24:39Z</time>
      </trkpt>
      <trkpt lat="47.27683" lon="6.04599">
        <ele>351.02</ele>
        <time>2018-09-22T16:24:41Z</time>
      </trkpt>
      <trkpt lat="47.2767" lon="6.04591">
        <ele>350.54</ele>
        <time>2018-09-22T16:24:44Z</time>
      </trkpt>
      <trkpt lat="47.27665" lon="6.0459">
        <ele>350.54</ele>
        <time>2018-09-22T16:24:45Z</time>
      </trkpt>
      <trkpt lat="47.27661" lon="6.04589">
        <ele>350.54</ele>
        <time>2018-09-22T16:24:46Z</time>
      </trkpt>
      <trkpt lat="47.27656" lon="6.0459">
        <ele>350.06</ele>
        <time>2018-09-22T16:24:47Z</time>
      </trkpt>
      <trkpt lat="47.27652" lon="6.04591">
        <ele>350.06</ele>
        <time>2018-09-22T16:24:48Z</time>
      </trkpt>
      <trkpt lat="47.27648" lon="6.04591">
        <ele>350.06</ele>
        <time>2018-09-22T16:24:49Z</time>
      </trkpt>
      <trkpt lat="47.27641" lon="6.04588">
        <ele>349.58</ele>
        <time>2018-09-22T16:24:51Z</time>
      </trkpt>
      <trkpt lat="47.27637" lon="6.04584">
        <ele>349.58</ele>
        <time>2018-09-22T16:24:52Z</time>
      </trkpt>
      <trkpt lat="47.27625" lon="6.04567">
        <ele>349.58</ele>
        <time>2018-09-22T16:24:55Z</time>
      </trkpt>
      <trkpt lat="47.27595" lon="6.0453">
        <ele>348.62</ele>
        <time>2018-09-22T16:25:02Z</time>
      </trkpt>
      <trkpt lat="47.27591" lon="6.04526">
        <ele>348.13</ele>
        <time>2018-09-22T16:25:03Z</time>
      </trkpt>
      <trkpt lat="47.27583" lon="6.04516">
        <ele>348.13</ele>
        <time>2018-09-22T16:25:05Z</time>
      </trkpt>
      <trkpt lat="47.27553" lon="6.04482">
        <ele>347.65</ele>
        <time>2018-09-22T16:25:12Z</time>
      </trkpt>
      <trkpt lat="47.27549" lon="6.04476">
        <ele>347.65</ele>
        <time>2018-09-22T16:25:13Z</time>
      </trkpt>
      <trkpt lat="47.27539" lon="6.0446">
        <ele>347.65</ele>
        <time>2018-09-22T16:25:16Z</time>
      </trkpt>
      <trkpt lat="47.2751" lon="6.04434">
        <ele>347.65</ele>
        <time>2018-09-22T16:25:24Z</time>
      </trkpt>
      <trkpt lat="47.27491" lon="6.04433">
        <ele>347.65</ele>
        <time>2018-09-22T16:25:28Z</time>
      </trkpt>
      <trkpt lat="47.27486" lon="6.04436">
        <ele>347.65</ele>
        <time>2018-09-22T16:25:29Z</time>
      </trkpt>
      <trkpt lat="47.27482" lon="6.04438">
        <ele>347.65</ele>
        <time>2018-09-22T16:25:30Z</time>
      </trkpt>
      <trkpt lat="47.27477" lon="6.04441">
        <ele>347.65</ele>
        <time>2018-09-22T16:25:31Z</time>
      </trkpt>
      <trkpt lat="47.27473" lon="6.04444">
        <ele>347.17</ele>
        <time>2018-09-22T16:25:32Z</time>
      </trkpt>
      <trkpt lat="47.27461" lon="6.04454">
        <ele>347.17</ele>
        <time>2018-09-22T16:25:35Z</time>
      </trkpt>
      <trkpt lat="47.27457" lon="6.04456">
        <ele>346.69</ele>
        <time>2018-09-22T16:25:36Z</time>
      </trkpt>
      <trkpt lat="47.27448" lon="6.04459">
        <ele>346.21</ele>
        <time>2018-09-22T16:25:38Z</time>
      </trkpt>
      <trkpt lat="47.27443" lon="6.04461">
        <ele>346.21</ele>
        <time>2018-09-22T16:25:39Z</time>
      </trkpt>
      <trkpt lat="47.27438" lon="6.04462">
        <ele>345.73</ele>
        <time>2018-09-22T16:25:40Z</time>
      </trkpt>
      <trkpt lat="47.27432" lon="6.04462">
        <ele>345.73</ele>
        <time>2018-09-22T16:25:41Z</time>
      </trkpt>
      <trkpt lat="47.27427" lon="6.04463">
        <ele>345.73</ele>
        <time>2018-09-22T16:25:42Z</time>
      </trkpt>
      <trkpt lat="47.27423" lon="6.04464">
        <ele>345.25</ele>
        <time>2018-09-22T16:25:43Z</time>
      </trkpt>
      <trkpt lat="47.27418" lon="6.04464">
        <ele>344.77</ele>
        <time>2018-09-22T16:25:44Z</time>
      </trkpt>
      <trkpt lat="47.27413" lon="6.04463">
        <ele>344.29</ele>
        <time>2018-09-22T16:25:45Z</time>
      </trkpt>
      <trkpt lat="47.27409" lon="6.0446">
        <ele>344.29</ele>
        <time>2018-09-22T16:25:46Z</time>
      </trkpt>
      <trkpt lat="47.27404" lon="6.04457">
        <ele>343.81</ele>
        <time>2018-09-22T16:25:47Z</time>
      </trkpt>
      <trkpt lat="47.274" lon="6.04456">
        <ele>343.33</ele>
        <time>2018-09-22T16:25:48Z</time>
      </trkpt>
      <trkpt lat="47.27395" lon="6.04456">
        <ele>342.85</ele>
        <time>2018-09-22T16:25:49Z</time>
      </trkpt>
      <trkpt lat="47.27364" lon="6.04454">
        <ele>340.92</ele>
        <time>2018-09-22T16:25:54Z</time>
      </trkpt>
      <trkpt lat="47.27359" lon="6.04453">
        <ele>340.92</ele>
        <time>2018-09-22T16:25:55Z</time>
      </trkpt>
      <trkpt lat="47.27336" lon="6.04452">
        <ele>339.96</ele>
        <time>2018-09-22T16:25:59Z</time>
      </trkpt>
      <trkpt lat="47.27326" lon="6.04458">
        <ele>339</ele>
        <time>2018-09-22T16:26:01Z</time>
      </trkpt>
      <trkpt lat="47.2732" lon="6.04462">
        <ele>338.52</ele>
        <time>2018-09-22T16:26:02Z</time>
      </trkpt>
      <trkpt lat="47.27309" lon="6.04474">
        <ele>337.08</ele>
        <time>2018-09-22T16:26:04Z</time>
      </trkpt>
      <trkpt lat="47.27303" lon="6.04482">
        <ele>336.6</ele>
        <time>2018-09-22T16:26:05Z</time>
      </trkpt>
      <trkpt lat="47.27296" lon="6.04489">
        <ele>335.64</ele>
        <time>2018-09-22T16:26:06Z</time>
      </trkpt>
      <trkpt lat="47.27267" lon="6.04513">
        <ele>333.23</ele>
        <time>2018-09-22T16:26:10Z</time>
      </trkpt>
      <trkpt lat="47.27257" lon="6.04515">
        <ele>332.75</ele>
        <time>2018-09-22T16:26:11Z</time>
      </trkpt>
      <trkpt lat="47.27249" lon="6.04515">
        <ele>332.75</ele>
        <time>2018-09-22T16:26:12Z</time>
      </trkpt>
      <trkpt lat="47.27241" lon="6.04514">
        <ele>332.75</ele>
        <time>2018-09-22T16:26:13Z</time>
      </trkpt>
      <trkpt lat="47.27233" lon="6.04513">
        <ele>332.75</ele>
        <time>2018-09-22T16:26:14Z</time>
      </trkpt>
      <trkpt lat="47.27177" lon="6.04526">
        <ele>333.23</ele>
        <time>2018-09-22T16:26:24Z</time>
      </trkpt>
      <trkpt lat="47.27175" lon="6.04529">
        <ele>333.23</ele>
        <time>2018-09-22T16:26:25Z</time>
      </trkpt>
      <trkpt lat="47.27172" lon="6.04533">
        <ele>332.75</ele>
        <time>2018-09-22T16:26:26Z</time>
      </trkpt>
      <trkpt lat="47.27168" lon="6.0454">
        <ele>331.79</ele>
        <time>2018-09-22T16:26:27Z</time>
      </trkpt>
      <trkpt lat="47.27164" lon="6.04548">
        <ele>330.83</ele>
        <time>2018-09-22T16:26:28Z</time>
      </trkpt>
      <trkpt lat="47.2716" lon="6.04556">
        <ele>329.87</ele>
        <time>2018-09-22T16:26:29Z</time>
      </trkpt>
      <trkpt lat="47.27154" lon="6.04565">
        <ele>328.91</ele>
        <time>2018-09-22T16:26:30Z</time>
      </trkpt>
      <trkpt lat="47.27135" lon="6.04589">
        <ele>326.5</ele>
        <time>2018-09-22T16:26:33Z</time>
      </trkpt>
      <trkpt lat="47.27127" lon="6.04595">
        <ele>326.02</ele>
        <time>2018-09-22T16:26:34Z</time>
      </trkpt>
      <trkpt lat="47.2712" lon="6.046">
        <ele>325.54</ele>
        <time>2018-09-22T16:26:35Z</time>
      </trkpt>
      <trkpt lat="47.27089" lon="6.0462">
        <ele>327.47</ele>
        <time>2018-09-22T16:26:40Z</time>
      </trkpt>
      <trkpt lat="47.27084" lon="6.04625">
        <ele>327.95</ele>
        <time>2018-09-22T16:26:41Z</time>
      </trkpt>
      <trkpt lat="47.2708" lon="6.04631">
        <ele>328.43</ele>
        <time>2018-09-22T16:26:42Z</time>
      </trkpt>
      <trkpt lat="47.27072" lon="6.04641">
        <ele>329.87</ele>
        <time>2018-09-22T16:26:44Z</time>
      </trkpt>
      <trkpt lat="47.27066" lon="6.04646">
        <ele>330.35</ele>
        <time>2018-09-22T16:26:45Z</time>
      </trkpt>
      <trkpt lat="47.27055" lon="6.04655">
        <ele>331.31</ele>
        <time>2018-09-22T16:26:47Z</time>
      </trkpt>
      <trkpt lat="47.27043" lon="6.04662">
        <ele>332.27</ele>
        <time>2018-09-22T16:26:49Z</time>
      </trkpt>
      <trkpt lat="47.27037" lon="6.04662">
        <ele>333.23</ele>
        <time>2018-09-22T16:26:50Z</time>
      </trkpt>
      <trkpt lat="47.27031" lon="6.04664">
        <ele>334.2</ele>
        <time>2018-09-22T16:26:51Z</time>
      </trkpt>
      <trkpt lat="47.27026" lon="6.04666">
        <ele>335.16</ele>
        <time>2018-09-22T16:26:52Z</time>
      </trkpt>
      <trkpt lat="47.27021" lon="6.04671">
        <ele>335.64</ele>
        <time>2018-09-22T16:26:53Z</time>
      </trkpt>
      <trkpt lat="47.27016" lon="6.04676">
        <ele>336.12</ele>
        <time>2018-09-22T16:26:54Z</time>
      </trkpt>
      <trkpt lat="47.27012" lon="6.04679">
        <ele>336.12</ele>
        <time>2018-09-22T16:26:55Z</time>
      </trkpt>
      <trkpt lat="47.27005" lon="6.04679">
        <ele>336.6</ele>
        <time>2018-09-22T16:26:56Z</time>
      </trkpt>
      <trkpt lat="47.26999" lon="6.04679">
        <ele>336.6</ele>
        <time>2018-09-22T16:26:57Z</time>
      </trkpt>
      <trkpt lat="47.26993" lon="6.04679">
        <ele>337.08</ele>
        <time>2018-09-22T16:26:58Z</time>
      </trkpt>
      <trkpt lat="47.26988" lon="6.04681">
        <ele>337.56</ele>
        <time>2018-09-22T16:26:59Z</time>
      </trkpt>
      <trkpt lat="47.26973" lon="6.04688">
        <ele>339</ele>
        <time>2018-09-22T16:27:02Z</time>
      </trkpt>
      <trkpt lat="47.26947" lon="6.047">
        <ele>340.44</ele>
        <time>2018-09-22T16:27:07Z</time>
      </trkpt>
      <trkpt lat="47.26941" lon="6.04703">
        <ele>340.44</ele>
        <time>2018-09-22T16:27:08Z</time>
      </trkpt>
      <trkpt lat="47.26936" lon="6.04705">
        <ele>340.92</ele>
        <time>2018-09-22T16:27:09Z</time>
      </trkpt>
      <trkpt lat="47.26925" lon="6.04711">
        <ele>340.92</ele>
        <time>2018-09-22T16:27:11Z</time>
      </trkpt>
      <trkpt lat="47.269" lon="6.04727">
        <ele>336.12</ele>
        <time>2018-09-22T16:27:16Z</time>
      </trkpt>
      <trkpt lat="47.26895" lon="6.04731">
        <ele>344.29</ele>
        <time>2018-09-22T16:27:17Z</time>
      </trkpt>
      <trkpt lat="47.2689" lon="6.04734">
        <ele>341.41</ele>
        <time>2018-09-22T16:27:18Z</time>
      </trkpt>
      <trkpt lat="47.2683" lon="6.04799">
        <ele>342.37</ele>
        <time>2018-09-22T16:27:32Z</time>
      </trkpt>
      <trkpt lat="47.2682" lon="6.04812">
        <ele>342.85</ele>
        <time>2018-09-22T16:27:35Z</time>
      </trkpt>
      <trkpt lat="47.26816" lon="6.04814">
        <ele>343.33</ele>
        <time>2018-09-22T16:27:36Z</time>
      </trkpt>
      <trkpt lat="47.26812" lon="6.04815">
        <ele>343.33</ele>
        <time>2018-09-22T16:27:37Z</time>
      </trkpt>
      <trkpt lat="47.26808" lon="6.04812">
        <ele>343.33</ele>
        <time>2018-09-22T16:27:38Z</time>
      </trkpt>
      <trkpt lat="47.26805" lon="6.04808">
        <ele>343.33</ele>
        <time>2018-09-22T16:27:39Z</time>
      </trkpt>
      <trkpt lat="47.26802" lon="6.04804">
        <ele>342.85</ele>
        <time>2018-09-22T16:27:40Z</time>
      </trkpt>
      <trkpt lat="47.26762" lon="6.04744">
        <ele>343.81</ele>
        <time>2018-09-22T16:27:52Z</time>
      </trkpt>
      <trkpt lat="47.26758" lon="6.0474">
        <ele>344.29</ele>
        <time>2018-09-22T16:27:53Z</time>
      </trkpt>
      <trkpt lat="47.26754" lon="6.04736">
        <ele>344.29</ele>
        <time>2018-09-22T16:27:54Z</time>
      </trkpt>
      <trkpt lat="47.26688" lon="6.04683">
        <ele>345.25</ele>
        <time>2018-09-22T16:28:07Z</time>
      </trkpt>
      <trkpt lat="47.26683" lon="6.0468">
        <ele>345.25</ele>
        <time>2018-09-22T16:28:08Z</time>
      </trkpt>
      <trkpt lat="47.26677" lon="6.04677">
        <ele>345.25</ele>
        <time>2018-09-22T16:28:09Z</time>
      </trkpt>
      <trkpt lat="47.26671" lon="6.04676">
        <ele>345.25</ele>
        <time>2018-09-22T16:28:10Z</time>
      </trkpt>
      <trkpt lat="47.26665" lon="6.04675">
        <ele>345.25</ele>
        <time>2018-09-22T16:28:11Z</time>
      </trkpt>
      <trkpt lat="47.26652" lon="6.04674">
        <ele>344.77</ele>
        <time>2018-09-22T16:28:13Z</time>
      </trkpt>
      <trkpt lat="47.26558" lon="6.04661">
        <ele>341.89</ele>
        <time>2018-09-22T16:28:28Z</time>
      </trkpt>
      <trkpt lat="47.26552" lon="6.04657">
        <ele>341.41</ele>
        <time>2018-09-22T16:28:29Z</time>
      </trkpt>
      <trkpt lat="47.26546" lon="6.04652">
        <ele>341.41</ele>
        <time>2018-09-22T16:28:30Z</time>
      </trkpt>
      <trkpt lat="47.26541" lon="6.04646">
        <ele>340.44</ele>
        <time>2018-09-22T16:28:31Z</time>
      </trkpt>
      <trkpt lat="47.26536" lon="6.04639">
        <ele>340.44</ele>
        <time>2018-09-22T16:28:32Z</time>
      </trkpt>
      <trkpt lat="47.26487" lon="6.0459">
        <ele>339</ele>
        <time>2018-09-22T16:28:41Z</time>
      </trkpt>
      <trkpt lat="47.26405" lon="6.04547">
        <ele>338.52</ele>
        <time>2018-09-22T16:28:56Z</time>
      </trkpt>
      <trkpt lat="47.2638" lon="6.04531">
        <ele>339.48</ele>
        <time>2018-09-22T16:29:06Z</time>
      </trkpt>
      <trkpt lat="47.26361" lon="6.04525">
        <ele>338.52</ele>
        <time>2018-09-22T16:29:14Z</time>
      </trkpt>
      <trkpt lat="47.26317" lon="6.04493">
        <ele>336.6</ele>
        <time>2018-09-22T16:29:26Z</time>
      </trkpt>
      <trkpt lat="47.26279" lon="6.04456">
        <ele>333.71</ele>
        <time>2018-09-22T16:29:34Z</time>
      </trkpt>
      <trkpt lat="47.26247" lon="6.04423">
        <ele>331.31</ele>
        <time>2018-09-22T16:29:40Z</time>
      </trkpt>
      <trkpt lat="47.26242" lon="6.04415">
        <ele>331.31</ele>
        <time>2018-09-22T16:29:41Z</time>
      </trkpt>
      <trkpt lat="47.26226" lon="6.04397">
        <ele>329.87</ele>
        <time>2018-09-22T16:29:44Z</time>
      </trkpt>
      <trkpt lat="47.2622" lon="6.04393">
        <ele>329.87</ele>
        <time>2018-09-22T16:29:45Z</time>
      </trkpt>
      <trkpt lat="47.26194" lon="6.04376">
        <ele>329.39</ele>
        <time>2018-09-22T16:29:49Z</time>
      </trkpt>
      <trkpt lat="47.26189" lon="6.04369">
        <ele>329.39</ele>
        <time>2018-09-22T16:29:50Z</time>
      </trkpt>
      <trkpt lat="47.26175" lon="6.04348">
        <ele>328.91</ele>
        <time>2018-09-22T16:29:53Z</time>
      </trkpt>
      <trkpt lat="47.2617" lon="6.04341">
        <ele>328.91</ele>
        <time>2018-09-22T16:29:54Z</time>
      </trkpt>
      <trkpt lat="47.26122" lon="6.04267">
        <ele>327.95</ele>
        <time>2018-09-22T16:30:06Z</time>
      </trkpt>
      <trkpt lat="47.26119" lon="6.04261">
        <ele>327.95</ele>
        <time>2018-09-22T16:30:07Z</time>
      </trkpt>
      <trkpt lat="47.26115" lon="6.04256">
        <ele>327.95</ele>
        <time>2018-09-22T16:30:08Z</time>
      </trkpt>
      <trkpt lat="47.26104" lon="6.04236">
        <ele>328.91</ele>
        <time>2018-09-22T16:30:16Z</time>
      </trkpt>
      <trkpt lat="47.26131" lon="6.04225">
        <ele>328.43</ele>
        <time>2018-09-22T16:30:29Z</time>
      </trkpt>
    </trkseg>
  </trk>
</gpx>